<?xml version="1.0" encoding="UTF-8" standalone="no" ?>
<gpx xmlns="http://www.topografix.com/GPX/1/1" xmlns:xsi="http://www.w3.org/2001/XMLSchema-instance" xsi:schemaLocation="http://www.topografix.com/GPX/1/1 http://www.topografix.com/GPX/1/1/gpx.xsd" version="1.1" creator="VisuGPX - https://www.visugpx.com">
  <metadata>
    <name>Col de Porte</name>
  </metadata>
  <trk>
    <name><![CDATA[☀️ Sortie au col de Porte avec Loïc et Rodolphe | Ride | Strava]]></name>
    <extensions>
      <line xmlns="http://www.topografix.com/GPX/gpx_style/0/2">
        <color>0000FF</color>
        <width>4</width>
      </line>
    </extensions>
    <trkseg>
      <trkpt lat="45.83506" lon="5.39577">
        <ele>256.2</ele>
        <time>2021-02-20T11:59:00.000Z</time>
      </trkpt>
      <trkpt lat="45.83501" lon="5.39575">
        <ele>256.2</ele>
        <time>2021-02-20T11:59:02.000Z</time>
      </trkpt>
      <trkpt lat="45.83495" lon="5.39578">
        <ele>256</ele>
        <time>2021-02-20T11:59:04.000Z</time>
      </trkpt>
      <trkpt lat="45.83493" lon="5.3958">
        <ele>256</ele>
        <time>2021-02-20T11:59:05.000Z</time>
      </trkpt>
      <trkpt lat="45.83479" lon="5.39594">
        <ele>254.6</ele>
        <time>2021-02-20T11:59:10.000Z</time>
      </trkpt>
      <trkpt lat="45.83476" lon="5.39597">
        <ele>254.6</ele>
        <time>2021-02-20T11:59:11.000Z</time>
      </trkpt>
      <trkpt lat="45.83472" lon="5.39601">
        <ele>254.2</ele>
        <time>2021-02-20T11:59:12.000Z</time>
      </trkpt>
      <trkpt lat="45.83466" lon="5.3961">
        <ele>253.8</ele>
        <time>2021-02-20T11:59:14.000Z</time>
      </trkpt>
      <trkpt lat="45.83464" lon="5.39614">
        <ele>253.4</ele>
        <time>2021-02-20T11:59:15.000Z</time>
      </trkpt>
      <trkpt lat="45.83462" lon="5.39619">
        <ele>253.2</ele>
        <time>2021-02-20T11:59:16.000Z</time>
      </trkpt>
      <trkpt lat="45.83461" lon="5.39622">
        <ele>253</ele>
        <time>2021-02-20T11:59:17.000Z</time>
      </trkpt>
      <trkpt lat="45.83458" lon="5.39624">
        <ele>252.8</ele>
        <time>2021-02-20T11:59:18.000Z</time>
      </trkpt>
      <trkpt lat="45.83456" lon="5.39625">
        <ele>252.8</ele>
        <time>2021-02-20T11:59:19.000Z</time>
      </trkpt>
      <trkpt lat="45.83454" lon="5.39623">
        <ele>252.6</ele>
        <time>2021-02-20T11:59:20.000Z</time>
      </trkpt>
      <trkpt lat="45.83453" lon="5.39619">
        <ele>252.4</ele>
        <time>2021-02-20T11:59:21.000Z</time>
      </trkpt>
      <trkpt lat="45.83451" lon="5.39609">
        <ele>252.2</ele>
        <time>2021-02-20T11:59:23.000Z</time>
      </trkpt>
      <trkpt lat="45.83446" lon="5.39591">
        <ele>251.8</ele>
        <time>2021-02-20T11:59:26.000Z</time>
      </trkpt>
      <trkpt lat="45.83444" lon="5.39585">
        <ele>251.8</ele>
        <time>2021-02-20T11:59:27.000Z</time>
      </trkpt>
      <trkpt lat="45.8344" lon="5.39574">
        <ele>251.4</ele>
        <time>2021-02-20T11:59:29.000Z</time>
      </trkpt>
      <trkpt lat="45.83437" lon="5.39568">
        <ele>251.6</ele>
        <time>2021-02-20T11:59:30.000Z</time>
      </trkpt>
      <trkpt lat="45.83429" lon="5.39546">
        <ele>251.2</ele>
        <time>2021-02-20T11:59:33.000Z</time>
      </trkpt>
      <trkpt lat="45.83424" lon="5.3953">
        <ele>251</ele>
        <time>2021-02-20T11:59:35.000Z</time>
      </trkpt>
      <trkpt lat="45.83409" lon="5.39483">
        <ele>249.8</ele>
        <time>2021-02-20T11:59:41.000Z</time>
      </trkpt>
      <trkpt lat="45.83406" lon="5.39475">
        <ele>249.4</ele>
        <time>2021-02-20T11:59:42.000Z</time>
      </trkpt>
      <trkpt lat="45.83395" lon="5.39443">
        <ele>247.8</ele>
        <time>2021-02-20T11:59:46.000Z</time>
      </trkpt>
      <trkpt lat="45.83393" lon="5.39434">
        <ele>247.4</ele>
        <time>2021-02-20T11:59:47.000Z</time>
      </trkpt>
      <trkpt lat="45.83393" lon="5.39426">
        <ele>247</ele>
        <time>2021-02-20T11:59:48.000Z</time>
      </trkpt>
      <trkpt lat="45.83393" lon="5.39419">
        <ele>247</ele>
        <time>2021-02-20T11:59:49.000Z</time>
      </trkpt>
      <trkpt lat="45.83396" lon="5.39413">
        <ele>246.8</ele>
        <time>2021-02-20T11:59:50.000Z</time>
      </trkpt>
      <trkpt lat="45.83399" lon="5.39407">
        <ele>246.8</ele>
        <time>2021-02-20T11:59:51.000Z</time>
      </trkpt>
      <trkpt lat="45.83403" lon="5.39403">
        <ele>246.8</ele>
        <time>2021-02-20T11:59:52.000Z</time>
      </trkpt>
      <trkpt lat="45.83407" lon="5.39399">
        <ele>246.8</ele>
        <time>2021-02-20T11:59:53.000Z</time>
      </trkpt>
      <trkpt lat="45.83411" lon="5.39395">
        <ele>246.8</ele>
        <time>2021-02-20T11:59:54.000Z</time>
      </trkpt>
      <trkpt lat="45.83415" lon="5.39392">
        <ele>246.8</ele>
        <time>2021-02-20T11:59:55.000Z</time>
      </trkpt>
      <trkpt lat="45.8342" lon="5.39388">
        <ele>246.8</ele>
        <time>2021-02-20T11:59:56.000Z</time>
      </trkpt>
      <trkpt lat="45.83424" lon="5.39385">
        <ele>246.8</ele>
        <time>2021-02-20T11:59:57.000Z</time>
      </trkpt>
      <trkpt lat="45.83428" lon="5.39382">
        <ele>246.8</ele>
        <time>2021-02-20T11:59:58.000Z</time>
      </trkpt>
      <trkpt lat="45.83431" lon="5.39379">
        <ele>246.8</ele>
        <time>2021-02-20T11:59:59.000Z</time>
      </trkpt>
      <trkpt lat="45.83434" lon="5.39377">
        <ele>246.8</ele>
        <time>2021-02-20T12:00:00.000Z</time>
      </trkpt>
      <trkpt lat="45.83437" lon="5.39374">
        <ele>247.2</ele>
        <time>2021-02-20T12:00:01.000Z</time>
      </trkpt>
      <trkpt lat="45.8344" lon="5.39371">
        <ele>247.2</ele>
        <time>2021-02-20T12:00:02.000Z</time>
      </trkpt>
      <trkpt lat="45.83442" lon="5.39368">
        <ele>247.2</ele>
        <time>2021-02-20T12:00:03.000Z</time>
      </trkpt>
      <trkpt lat="45.83446" lon="5.39365">
        <ele>247.4</ele>
        <time>2021-02-20T12:00:04.000Z</time>
      </trkpt>
      <trkpt lat="45.83449" lon="5.39362">
        <ele>247.8</ele>
        <time>2021-02-20T12:00:05.000Z</time>
      </trkpt>
      <trkpt lat="45.83451" lon="5.39358">
        <ele>248</ele>
        <time>2021-02-20T12:00:06.000Z</time>
      </trkpt>
      <trkpt lat="45.83453" lon="5.39355">
        <ele>248.6</ele>
        <time>2021-02-20T12:00:07.000Z</time>
      </trkpt>
      <trkpt lat="45.83456" lon="5.39352">
        <ele>248.8</ele>
        <time>2021-02-20T12:00:08.000Z</time>
      </trkpt>
      <trkpt lat="45.83458" lon="5.39349">
        <ele>249</ele>
        <time>2021-02-20T12:00:09.000Z</time>
      </trkpt>
      <trkpt lat="45.83459" lon="5.39346">
        <ele>249</ele>
        <time>2021-02-20T12:00:10.000Z</time>
      </trkpt>
      <trkpt lat="45.83462" lon="5.39343">
        <ele>249.2</ele>
        <time>2021-02-20T12:00:11.000Z</time>
      </trkpt>
      <trkpt lat="45.83464" lon="5.39339">
        <ele>249.4</ele>
        <time>2021-02-20T12:00:12.000Z</time>
      </trkpt>
      <trkpt lat="45.83466" lon="5.39335">
        <ele>249.8</ele>
        <time>2021-02-20T12:00:13.000Z</time>
      </trkpt>
      <trkpt lat="45.83468" lon="5.39332">
        <ele>249.8</ele>
        <time>2021-02-20T12:00:14.000Z</time>
      </trkpt>
      <trkpt lat="45.83469" lon="5.39328">
        <ele>250</ele>
        <time>2021-02-20T12:00:15.000Z</time>
      </trkpt>
      <trkpt lat="45.83471" lon="5.39325">
        <ele>250.4</ele>
        <time>2021-02-20T12:00:16.000Z</time>
      </trkpt>
      <trkpt lat="45.83473" lon="5.39322">
        <ele>250.6</ele>
        <time>2021-02-20T12:00:17.000Z</time>
      </trkpt>
      <trkpt lat="45.83475" lon="5.39319">
        <ele>251</ele>
        <time>2021-02-20T12:00:18.000Z</time>
      </trkpt>
      <trkpt lat="45.83477" lon="5.39315">
        <ele>251.2</ele>
        <time>2021-02-20T12:00:19.000Z</time>
      </trkpt>
      <trkpt lat="45.83479" lon="5.39312">
        <ele>251.6</ele>
        <time>2021-02-20T12:00:20.000Z</time>
      </trkpt>
      <trkpt lat="45.83481" lon="5.39308">
        <ele>251.8</ele>
        <time>2021-02-20T12:00:21.000Z</time>
      </trkpt>
      <trkpt lat="45.83484" lon="5.39304">
        <ele>252.2</ele>
        <time>2021-02-20T12:00:22.000Z</time>
      </trkpt>
      <trkpt lat="45.83486" lon="5.393">
        <ele>252.4</ele>
        <time>2021-02-20T12:00:23.000Z</time>
      </trkpt>
      <trkpt lat="45.83489" lon="5.39297">
        <ele>253</ele>
        <time>2021-02-20T12:00:24.000Z</time>
      </trkpt>
      <trkpt lat="45.83492" lon="5.39293">
        <ele>253</ele>
        <time>2021-02-20T12:00:25.000Z</time>
      </trkpt>
      <trkpt lat="45.83494" lon="5.39289">
        <ele>253.2</ele>
        <time>2021-02-20T12:00:26.000Z</time>
      </trkpt>
      <trkpt lat="45.83497" lon="5.39285">
        <ele>253.4</ele>
        <time>2021-02-20T12:00:27.000Z</time>
      </trkpt>
      <trkpt lat="45.835" lon="5.39281">
        <ele>253.4</ele>
        <time>2021-02-20T12:00:28.000Z</time>
      </trkpt>
      <trkpt lat="45.83503" lon="5.39277">
        <ele>253.4</ele>
        <time>2021-02-20T12:00:29.000Z</time>
      </trkpt>
      <trkpt lat="45.83505" lon="5.39273">
        <ele>253.4</ele>
        <time>2021-02-20T12:00:30.000Z</time>
      </trkpt>
      <trkpt lat="45.83508" lon="5.39269">
        <ele>253.4</ele>
        <time>2021-02-20T12:00:31.000Z</time>
      </trkpt>
      <trkpt lat="45.8351" lon="5.39265">
        <ele>253.4</ele>
        <time>2021-02-20T12:00:32.000Z</time>
      </trkpt>
      <trkpt lat="45.83513" lon="5.39261">
        <ele>253.4</ele>
        <time>2021-02-20T12:00:33.000Z</time>
      </trkpt>
      <trkpt lat="45.83516" lon="5.39257">
        <ele>253.6</ele>
        <time>2021-02-20T12:00:34.000Z</time>
      </trkpt>
      <trkpt lat="45.83519" lon="5.39254">
        <ele>253.6</ele>
        <time>2021-02-20T12:00:35.000Z</time>
      </trkpt>
      <trkpt lat="45.83522" lon="5.3925">
        <ele>253.6</ele>
        <time>2021-02-20T12:00:36.000Z</time>
      </trkpt>
      <trkpt lat="45.83525" lon="5.39247">
        <ele>253.6</ele>
        <time>2021-02-20T12:00:37.000Z</time>
      </trkpt>
      <trkpt lat="45.83536" lon="5.39237">
        <ele>253.6</ele>
        <time>2021-02-20T12:00:40.000Z</time>
      </trkpt>
      <trkpt lat="45.83541" lon="5.39233">
        <ele>253.6</ele>
        <time>2021-02-20T12:00:41.000Z</time>
      </trkpt>
      <trkpt lat="45.83558" lon="5.39223">
        <ele>253.8</ele>
        <time>2021-02-20T12:00:44.000Z</time>
      </trkpt>
      <trkpt lat="45.83563" lon="5.3922">
        <ele>253.6</ele>
        <time>2021-02-20T12:00:45.000Z</time>
      </trkpt>
      <trkpt lat="45.83568" lon="5.39219">
        <ele>253.6</ele>
        <time>2021-02-20T12:00:46.000Z</time>
      </trkpt>
      <trkpt lat="45.83573" lon="5.39217">
        <ele>253.4</ele>
        <time>2021-02-20T12:00:47.000Z</time>
      </trkpt>
      <trkpt lat="45.83578" lon="5.39216">
        <ele>253.4</ele>
        <time>2021-02-20T12:00:48.000Z</time>
      </trkpt>
      <trkpt lat="45.83583" lon="5.39214">
        <ele>252.6</ele>
        <time>2021-02-20T12:00:49.000Z</time>
      </trkpt>
      <trkpt lat="45.83587" lon="5.39213">
        <ele>252.6</ele>
        <time>2021-02-20T12:00:50.000Z</time>
      </trkpt>
      <trkpt lat="45.83592" lon="5.39212">
        <ele>252.6</ele>
        <time>2021-02-20T12:00:51.000Z</time>
      </trkpt>
      <trkpt lat="45.83598" lon="5.39211">
        <ele>252.2</ele>
        <time>2021-02-20T12:00:52.000Z</time>
      </trkpt>
      <trkpt lat="45.83608" lon="5.39211">
        <ele>251.8</ele>
        <time>2021-02-20T12:00:54.000Z</time>
      </trkpt>
      <trkpt lat="45.83614" lon="5.39211">
        <ele>251.8</ele>
        <time>2021-02-20T12:00:55.000Z</time>
      </trkpt>
      <trkpt lat="45.83619" lon="5.39211">
        <ele>251.6</ele>
        <time>2021-02-20T12:00:56.000Z</time>
      </trkpt>
      <trkpt lat="45.83623" lon="5.3921">
        <ele>251.6</ele>
        <time>2021-02-20T12:00:57.000Z</time>
      </trkpt>
      <trkpt lat="45.83627" lon="5.39211">
        <ele>251.6</ele>
        <time>2021-02-20T12:00:58.000Z</time>
      </trkpt>
      <trkpt lat="45.83631" lon="5.39211">
        <ele>251.4</ele>
        <time>2021-02-20T12:00:59.000Z</time>
      </trkpt>
      <trkpt lat="45.83635" lon="5.39211">
        <ele>251.6</ele>
        <time>2021-02-20T12:01:00.000Z</time>
      </trkpt>
      <trkpt lat="45.83643" lon="5.39211">
        <ele>251.6</ele>
        <time>2021-02-20T12:01:02.000Z</time>
      </trkpt>
      <trkpt lat="45.83648" lon="5.39211">
        <ele>251.4</ele>
        <time>2021-02-20T12:01:03.000Z</time>
      </trkpt>
      <trkpt lat="45.83652" lon="5.39211">
        <ele>251.4</ele>
        <time>2021-02-20T12:01:04.000Z</time>
      </trkpt>
      <trkpt lat="45.83667" lon="5.39209">
        <ele>251.4</ele>
        <time>2021-02-20T12:01:07.000Z</time>
      </trkpt>
      <trkpt lat="45.83672" lon="5.39208">
        <ele>251.6</ele>
        <time>2021-02-20T12:01:08.000Z</time>
      </trkpt>
      <trkpt lat="45.83676" lon="5.39208">
        <ele>251.6</ele>
        <time>2021-02-20T12:01:09.000Z</time>
      </trkpt>
      <trkpt lat="45.83681" lon="5.39207">
        <ele>251.6</ele>
        <time>2021-02-20T12:01:10.000Z</time>
      </trkpt>
      <trkpt lat="45.83686" lon="5.39207">
        <ele>251.6</ele>
        <time>2021-02-20T12:01:11.000Z</time>
      </trkpt>
      <trkpt lat="45.83711" lon="5.39201">
        <ele>251.6</ele>
        <time>2021-02-20T12:01:16.000Z</time>
      </trkpt>
      <trkpt lat="45.8372" lon="5.39199">
        <ele>251.6</ele>
        <time>2021-02-20T12:01:18.000Z</time>
      </trkpt>
      <trkpt lat="45.83725" lon="5.39197">
        <ele>251.4</ele>
        <time>2021-02-20T12:01:19.000Z</time>
      </trkpt>
      <trkpt lat="45.8373" lon="5.39195">
        <ele>251.4</ele>
        <time>2021-02-20T12:01:20.000Z</time>
      </trkpt>
      <trkpt lat="45.83734" lon="5.39194">
        <ele>251.4</ele>
        <time>2021-02-20T12:01:21.000Z</time>
      </trkpt>
      <trkpt lat="45.83738" lon="5.39192">
        <ele>251.4</ele>
        <time>2021-02-20T12:01:22.000Z</time>
      </trkpt>
      <trkpt lat="45.83742" lon="5.3919">
        <ele>251.6</ele>
        <time>2021-02-20T12:01:23.000Z</time>
      </trkpt>
      <trkpt lat="45.83754" lon="5.39185">
        <ele>251.6</ele>
        <time>2021-02-20T12:01:26.000Z</time>
      </trkpt>
      <trkpt lat="45.83758" lon="5.39184">
        <ele>251.6</ele>
        <time>2021-02-20T12:01:27.000Z</time>
      </trkpt>
      <trkpt lat="45.83775" lon="5.39175">
        <ele>252</ele>
        <time>2021-02-20T12:01:31.000Z</time>
      </trkpt>
      <trkpt lat="45.83793" lon="5.39163">
        <ele>252</ele>
        <time>2021-02-20T12:01:35.000Z</time>
      </trkpt>
      <trkpt lat="45.83802" lon="5.39157">
        <ele>252</ele>
        <time>2021-02-20T12:01:37.000Z</time>
      </trkpt>
      <trkpt lat="45.83809" lon="5.39151">
        <ele>252.2</ele>
        <time>2021-02-20T12:01:39.000Z</time>
      </trkpt>
      <trkpt lat="45.83818" lon="5.39143">
        <ele>252</ele>
        <time>2021-02-20T12:01:41.000Z</time>
      </trkpt>
      <trkpt lat="45.83822" lon="5.39139">
        <ele>252.2</ele>
        <time>2021-02-20T12:01:42.000Z</time>
      </trkpt>
      <trkpt lat="45.83826" lon="5.39135">
        <ele>252</ele>
        <time>2021-02-20T12:01:43.000Z</time>
      </trkpt>
      <trkpt lat="45.83844" lon="5.39118">
        <ele>251.8</ele>
        <time>2021-02-20T12:01:47.000Z</time>
      </trkpt>
      <trkpt lat="45.83849" lon="5.39114">
        <ele>251.8</ele>
        <time>2021-02-20T12:01:48.000Z</time>
      </trkpt>
      <trkpt lat="45.83853" lon="5.39111">
        <ele>251.8</ele>
        <time>2021-02-20T12:01:49.000Z</time>
      </trkpt>
      <trkpt lat="45.83858" lon="5.39107">
        <ele>251.8</ele>
        <time>2021-02-20T12:01:50.000Z</time>
      </trkpt>
      <trkpt lat="45.83867" lon="5.39099">
        <ele>251.6</ele>
        <time>2021-02-20T12:01:52.000Z</time>
      </trkpt>
      <trkpt lat="45.83876" lon="5.39092">
        <ele>251.6</ele>
        <time>2021-02-20T12:01:54.000Z</time>
      </trkpt>
      <trkpt lat="45.8388" lon="5.39088">
        <ele>251.4</ele>
        <time>2021-02-20T12:01:55.000Z</time>
      </trkpt>
      <trkpt lat="45.83884" lon="5.39085">
        <ele>251.6</ele>
        <time>2021-02-20T12:01:56.000Z</time>
      </trkpt>
      <trkpt lat="45.83889" lon="5.39082">
        <ele>251.6</ele>
        <time>2021-02-20T12:01:57.000Z</time>
      </trkpt>
      <trkpt lat="45.83892" lon="5.39081">
        <ele>251.4</ele>
        <time>2021-02-20T12:01:58.000Z</time>
      </trkpt>
      <trkpt lat="45.83896" lon="5.39079">
        <ele>251.6</ele>
        <time>2021-02-20T12:01:59.000Z</time>
      </trkpt>
      <trkpt lat="45.839" lon="5.39077">
        <ele>251.6</ele>
        <time>2021-02-20T12:02:00.000Z</time>
      </trkpt>
      <trkpt lat="45.83907" lon="5.39073">
        <ele>251.8</ele>
        <time>2021-02-20T12:02:02.000Z</time>
      </trkpt>
      <trkpt lat="45.8391" lon="5.39072">
        <ele>251.6</ele>
        <time>2021-02-20T12:02:03.000Z</time>
      </trkpt>
      <trkpt lat="45.83917" lon="5.39068">
        <ele>251.8</ele>
        <time>2021-02-20T12:02:05.000Z</time>
      </trkpt>
      <trkpt lat="45.83926" lon="5.39066">
        <ele>252</ele>
        <time>2021-02-20T12:02:07.000Z</time>
      </trkpt>
      <trkpt lat="45.8393" lon="5.39065">
        <ele>252.4</ele>
        <time>2021-02-20T12:02:08.000Z</time>
      </trkpt>
      <trkpt lat="45.83934" lon="5.39064">
        <ele>252.6</ele>
        <time>2021-02-20T12:02:09.000Z</time>
      </trkpt>
      <trkpt lat="45.83939" lon="5.39062">
        <ele>252.6</ele>
        <time>2021-02-20T12:02:10.000Z</time>
      </trkpt>
      <trkpt lat="45.83944" lon="5.39061">
        <ele>252.6</ele>
        <time>2021-02-20T12:02:11.000Z</time>
      </trkpt>
      <trkpt lat="45.83948" lon="5.3906">
        <ele>252.6</ele>
        <time>2021-02-20T12:02:12.000Z</time>
      </trkpt>
      <trkpt lat="45.83952" lon="5.3906">
        <ele>252.6</ele>
        <time>2021-02-20T12:02:13.000Z</time>
      </trkpt>
      <trkpt lat="45.83956" lon="5.39059">
        <ele>252.8</ele>
        <time>2021-02-20T12:02:14.000Z</time>
      </trkpt>
      <trkpt lat="45.83959" lon="5.39059">
        <ele>252.8</ele>
        <time>2021-02-20T12:02:15.000Z</time>
      </trkpt>
      <trkpt lat="45.83963" lon="5.39059">
        <ele>253</ele>
        <time>2021-02-20T12:02:16.000Z</time>
      </trkpt>
      <trkpt lat="45.83966" lon="5.39058">
        <ele>253</ele>
        <time>2021-02-20T12:02:17.000Z</time>
      </trkpt>
      <trkpt lat="45.83969" lon="5.39058">
        <ele>253</ele>
        <time>2021-02-20T12:02:18.000Z</time>
      </trkpt>
      <trkpt lat="45.83972" lon="5.39058">
        <ele>253</ele>
        <time>2021-02-20T12:02:19.000Z</time>
      </trkpt>
      <trkpt lat="45.83975" lon="5.39058">
        <ele>253</ele>
        <time>2021-02-20T12:02:20.000Z</time>
      </trkpt>
      <trkpt lat="45.83979" lon="5.39057">
        <ele>253.2</ele>
        <time>2021-02-20T12:02:21.000Z</time>
      </trkpt>
      <trkpt lat="45.83982" lon="5.39057">
        <ele>253.4</ele>
        <time>2021-02-20T12:02:22.000Z</time>
      </trkpt>
      <trkpt lat="45.83986" lon="5.39057">
        <ele>253.4</ele>
        <time>2021-02-20T12:02:23.000Z</time>
      </trkpt>
      <trkpt lat="45.83989" lon="5.39057">
        <ele>253.6</ele>
        <time>2021-02-20T12:02:24.000Z</time>
      </trkpt>
      <trkpt lat="45.83992" lon="5.39058">
        <ele>253.8</ele>
        <time>2021-02-20T12:02:25.000Z</time>
      </trkpt>
      <trkpt lat="45.83996" lon="5.39057">
        <ele>254</ele>
        <time>2021-02-20T12:02:26.000Z</time>
      </trkpt>
      <trkpt lat="45.83999" lon="5.39057">
        <ele>254</ele>
        <time>2021-02-20T12:02:27.000Z</time>
      </trkpt>
      <trkpt lat="45.84002" lon="5.39058">
        <ele>254.4</ele>
        <time>2021-02-20T12:02:28.000Z</time>
      </trkpt>
      <trkpt lat="45.84005" lon="5.39058">
        <ele>254.6</ele>
        <time>2021-02-20T12:02:29.000Z</time>
      </trkpt>
      <trkpt lat="45.84009" lon="5.39058">
        <ele>254.6</ele>
        <time>2021-02-20T12:02:30.000Z</time>
      </trkpt>
      <trkpt lat="45.84012" lon="5.39059">
        <ele>254.8</ele>
        <time>2021-02-20T12:02:31.000Z</time>
      </trkpt>
      <trkpt lat="45.84015" lon="5.3906">
        <ele>255.2</ele>
        <time>2021-02-20T12:02:32.000Z</time>
      </trkpt>
      <trkpt lat="45.84018" lon="5.39062">
        <ele>255</ele>
        <time>2021-02-20T12:02:33.000Z</time>
      </trkpt>
      <trkpt lat="45.84021" lon="5.39063">
        <ele>255.2</ele>
        <time>2021-02-20T12:02:34.000Z</time>
      </trkpt>
      <trkpt lat="45.84024" lon="5.39065">
        <ele>255.2</ele>
        <time>2021-02-20T12:02:35.000Z</time>
      </trkpt>
      <trkpt lat="45.84028" lon="5.39066">
        <ele>255.4</ele>
        <time>2021-02-20T12:02:36.000Z</time>
      </trkpt>
      <trkpt lat="45.84031" lon="5.39068">
        <ele>255.4</ele>
        <time>2021-02-20T12:02:37.000Z</time>
      </trkpt>
      <trkpt lat="45.84035" lon="5.39069">
        <ele>255.4</ele>
        <time>2021-02-20T12:02:38.000Z</time>
      </trkpt>
      <trkpt lat="45.84039" lon="5.39071">
        <ele>255.4</ele>
        <time>2021-02-20T12:02:39.000Z</time>
      </trkpt>
      <trkpt lat="45.84042" lon="5.39072">
        <ele>255.4</ele>
        <time>2021-02-20T12:02:40.000Z</time>
      </trkpt>
      <trkpt lat="45.84062" lon="5.39079">
        <ele>255.8</ele>
        <time>2021-02-20T12:02:45.000Z</time>
      </trkpt>
      <trkpt lat="45.84072" lon="5.39084">
        <ele>256.2</ele>
        <time>2021-02-20T12:02:48.000Z</time>
      </trkpt>
      <trkpt lat="45.84082" lon="5.3909">
        <ele>256.6</ele>
        <time>2021-02-20T12:02:51.000Z</time>
      </trkpt>
      <trkpt lat="45.84085" lon="5.39092">
        <ele>256.6</ele>
        <time>2021-02-20T12:02:52.000Z</time>
      </trkpt>
      <trkpt lat="45.84092" lon="5.39096">
        <ele>256.6</ele>
        <time>2021-02-20T12:02:54.000Z</time>
      </trkpt>
      <trkpt lat="45.84095" lon="5.39098">
        <ele>257</ele>
        <time>2021-02-20T12:02:55.000Z</time>
      </trkpt>
      <trkpt lat="45.84099" lon="5.391">
        <ele>256.8</ele>
        <time>2021-02-20T12:02:56.000Z</time>
      </trkpt>
      <trkpt lat="45.84102" lon="5.39103">
        <ele>257.2</ele>
        <time>2021-02-20T12:02:57.000Z</time>
      </trkpt>
      <trkpt lat="45.84105" lon="5.39105">
        <ele>257.2</ele>
        <time>2021-02-20T12:02:58.000Z</time>
      </trkpt>
      <trkpt lat="45.84108" lon="5.39107">
        <ele>257.4</ele>
        <time>2021-02-20T12:02:59.000Z</time>
      </trkpt>
      <trkpt lat="45.84112" lon="5.39109">
        <ele>257.4</ele>
        <time>2021-02-20T12:03:00.000Z</time>
      </trkpt>
      <trkpt lat="45.84115" lon="5.39112">
        <ele>257.8</ele>
        <time>2021-02-20T12:03:01.000Z</time>
      </trkpt>
      <trkpt lat="45.84118" lon="5.39115">
        <ele>258</ele>
        <time>2021-02-20T12:03:02.000Z</time>
      </trkpt>
      <trkpt lat="45.84122" lon="5.39117">
        <ele>258.2</ele>
        <time>2021-02-20T12:03:03.000Z</time>
      </trkpt>
      <trkpt lat="45.84125" lon="5.3912">
        <ele>258.6</ele>
        <time>2021-02-20T12:03:04.000Z</time>
      </trkpt>
      <trkpt lat="45.84129" lon="5.39124">
        <ele>258.6</ele>
        <time>2021-02-20T12:03:05.000Z</time>
      </trkpt>
      <trkpt lat="45.84132" lon="5.39127">
        <ele>258.6</ele>
        <time>2021-02-20T12:03:06.000Z</time>
      </trkpt>
      <trkpt lat="45.84136" lon="5.39129">
        <ele>258.8</ele>
        <time>2021-02-20T12:03:07.000Z</time>
      </trkpt>
      <trkpt lat="45.84139" lon="5.39131">
        <ele>259</ele>
        <time>2021-02-20T12:03:08.000Z</time>
      </trkpt>
      <trkpt lat="45.84142" lon="5.39133">
        <ele>259</ele>
        <time>2021-02-20T12:03:09.000Z</time>
      </trkpt>
      <trkpt lat="45.84145" lon="5.39135">
        <ele>259</ele>
        <time>2021-02-20T12:03:10.000Z</time>
      </trkpt>
      <trkpt lat="45.84147" lon="5.39137">
        <ele>259.2</ele>
        <time>2021-02-20T12:03:11.000Z</time>
      </trkpt>
      <trkpt lat="45.8415" lon="5.39138">
        <ele>259.2</ele>
        <time>2021-02-20T12:03:12.000Z</time>
      </trkpt>
      <trkpt lat="45.84153" lon="5.39138">
        <ele>259.4</ele>
        <time>2021-02-20T12:03:13.000Z</time>
      </trkpt>
      <trkpt lat="45.84156" lon="5.39138">
        <ele>259.4</ele>
        <time>2021-02-20T12:03:14.000Z</time>
      </trkpt>
      <trkpt lat="45.8416" lon="5.39136">
        <ele>259.4</ele>
        <time>2021-02-20T12:03:15.000Z</time>
      </trkpt>
      <trkpt lat="45.84164" lon="5.39135">
        <ele>259.6</ele>
        <time>2021-02-20T12:03:16.000Z</time>
      </trkpt>
      <trkpt lat="45.84168" lon="5.39134">
        <ele>259.8</ele>
        <time>2021-02-20T12:03:17.000Z</time>
      </trkpt>
      <trkpt lat="45.84171" lon="5.39133">
        <ele>259.8</ele>
        <time>2021-02-20T12:03:18.000Z</time>
      </trkpt>
      <trkpt lat="45.84175" lon="5.39132">
        <ele>260</ele>
        <time>2021-02-20T12:03:19.000Z</time>
      </trkpt>
      <trkpt lat="45.84178" lon="5.39132">
        <ele>260.2</ele>
        <time>2021-02-20T12:03:20.000Z</time>
      </trkpt>
      <trkpt lat="45.84182" lon="5.39131">
        <ele>260.4</ele>
        <time>2021-02-20T12:03:21.000Z</time>
      </trkpt>
      <trkpt lat="45.84186" lon="5.39131">
        <ele>260.6</ele>
        <time>2021-02-20T12:03:22.000Z</time>
      </trkpt>
      <trkpt lat="45.8419" lon="5.3913">
        <ele>260.8</ele>
        <time>2021-02-20T12:03:23.000Z</time>
      </trkpt>
      <trkpt lat="45.84193" lon="5.39129">
        <ele>260.6</ele>
        <time>2021-02-20T12:03:24.000Z</time>
      </trkpt>
      <trkpt lat="45.84196" lon="5.39128">
        <ele>260.8</ele>
        <time>2021-02-20T12:03:25.000Z</time>
      </trkpt>
      <trkpt lat="45.84199" lon="5.39127">
        <ele>260.8</ele>
        <time>2021-02-20T12:03:26.000Z</time>
      </trkpt>
      <trkpt lat="45.84203" lon="5.39125">
        <ele>261</ele>
        <time>2021-02-20T12:03:27.000Z</time>
      </trkpt>
      <trkpt lat="45.84206" lon="5.39124">
        <ele>261</ele>
        <time>2021-02-20T12:03:28.000Z</time>
      </trkpt>
      <trkpt lat="45.8421" lon="5.39123">
        <ele>261.2</ele>
        <time>2021-02-20T12:03:29.000Z</time>
      </trkpt>
      <trkpt lat="45.84214" lon="5.39122">
        <ele>261.2</ele>
        <time>2021-02-20T12:03:30.000Z</time>
      </trkpt>
      <trkpt lat="45.84218" lon="5.39123">
        <ele>261</ele>
        <time>2021-02-20T12:03:31.000Z</time>
      </trkpt>
      <trkpt lat="45.84221" lon="5.39124">
        <ele>261.4</ele>
        <time>2021-02-20T12:03:32.000Z</time>
      </trkpt>
      <trkpt lat="45.84225" lon="5.39126">
        <ele>261.6</ele>
        <time>2021-02-20T12:03:33.000Z</time>
      </trkpt>
      <trkpt lat="45.84228" lon="5.39128">
        <ele>261.6</ele>
        <time>2021-02-20T12:03:34.000Z</time>
      </trkpt>
      <trkpt lat="45.84232" lon="5.3913">
        <ele>261.6</ele>
        <time>2021-02-20T12:03:35.000Z</time>
      </trkpt>
      <trkpt lat="45.84236" lon="5.39131">
        <ele>262</ele>
        <time>2021-02-20T12:03:36.000Z</time>
      </trkpt>
      <trkpt lat="45.84239" lon="5.39133">
        <ele>262.2</ele>
        <time>2021-02-20T12:03:37.000Z</time>
      </trkpt>
      <trkpt lat="45.84243" lon="5.39134">
        <ele>262.2</ele>
        <time>2021-02-20T12:03:38.000Z</time>
      </trkpt>
      <trkpt lat="45.84247" lon="5.39136">
        <ele>262.6</ele>
        <time>2021-02-20T12:03:39.000Z</time>
      </trkpt>
      <trkpt lat="45.8425" lon="5.39138">
        <ele>262.8</ele>
        <time>2021-02-20T12:03:40.000Z</time>
      </trkpt>
      <trkpt lat="45.84253" lon="5.39139">
        <ele>263</ele>
        <time>2021-02-20T12:03:41.000Z</time>
      </trkpt>
      <trkpt lat="45.84257" lon="5.3914">
        <ele>263</ele>
        <time>2021-02-20T12:03:42.000Z</time>
      </trkpt>
      <trkpt lat="45.8426" lon="5.39142">
        <ele>263.2</ele>
        <time>2021-02-20T12:03:43.000Z</time>
      </trkpt>
      <trkpt lat="45.84263" lon="5.39144">
        <ele>263.2</ele>
        <time>2021-02-20T12:03:44.000Z</time>
      </trkpt>
      <trkpt lat="45.84267" lon="5.39145">
        <ele>263.2</ele>
        <time>2021-02-20T12:03:45.000Z</time>
      </trkpt>
      <trkpt lat="45.8427" lon="5.39146">
        <ele>263.4</ele>
        <time>2021-02-20T12:03:46.000Z</time>
      </trkpt>
      <trkpt lat="45.84273" lon="5.39147">
        <ele>263.8</ele>
        <time>2021-02-20T12:03:47.000Z</time>
      </trkpt>
      <trkpt lat="45.84276" lon="5.39149">
        <ele>264</ele>
        <time>2021-02-20T12:03:48.000Z</time>
      </trkpt>
      <trkpt lat="45.8428" lon="5.3915">
        <ele>264</ele>
        <time>2021-02-20T12:03:49.000Z</time>
      </trkpt>
      <trkpt lat="45.84283" lon="5.39152">
        <ele>264</ele>
        <time>2021-02-20T12:03:50.000Z</time>
      </trkpt>
      <trkpt lat="45.84287" lon="5.39153">
        <ele>264</ele>
        <time>2021-02-20T12:03:51.000Z</time>
      </trkpt>
      <trkpt lat="45.8429" lon="5.39154">
        <ele>264.2</ele>
        <time>2021-02-20T12:03:52.000Z</time>
      </trkpt>
      <trkpt lat="45.84293" lon="5.39156">
        <ele>264.2</ele>
        <time>2021-02-20T12:03:53.000Z</time>
      </trkpt>
      <trkpt lat="45.84297" lon="5.39158">
        <ele>264.2</ele>
        <time>2021-02-20T12:03:54.000Z</time>
      </trkpt>
      <trkpt lat="45.843" lon="5.3916">
        <ele>264.4</ele>
        <time>2021-02-20T12:03:55.000Z</time>
      </trkpt>
      <trkpt lat="45.84304" lon="5.39161">
        <ele>264.8</ele>
        <time>2021-02-20T12:03:56.000Z</time>
      </trkpt>
      <trkpt lat="45.84307" lon="5.39163">
        <ele>264.8</ele>
        <time>2021-02-20T12:03:57.000Z</time>
      </trkpt>
      <trkpt lat="45.84311" lon="5.39165">
        <ele>265.4</ele>
        <time>2021-02-20T12:03:58.000Z</time>
      </trkpt>
      <trkpt lat="45.84314" lon="5.39166">
        <ele>265.6</ele>
        <time>2021-02-20T12:03:59.000Z</time>
      </trkpt>
      <trkpt lat="45.84317" lon="5.39167">
        <ele>265.8</ele>
        <time>2021-02-20T12:04:00.000Z</time>
      </trkpt>
      <trkpt lat="45.84321" lon="5.39169">
        <ele>266</ele>
        <time>2021-02-20T12:04:01.000Z</time>
      </trkpt>
      <trkpt lat="45.84324" lon="5.39171">
        <ele>266</ele>
        <time>2021-02-20T12:04:02.000Z</time>
      </trkpt>
      <trkpt lat="45.84327" lon="5.39173">
        <ele>266</ele>
        <time>2021-02-20T12:04:03.000Z</time>
      </trkpt>
      <trkpt lat="45.84331" lon="5.39175">
        <ele>266</ele>
        <time>2021-02-20T12:04:04.000Z</time>
      </trkpt>
      <trkpt lat="45.84334" lon="5.39177">
        <ele>266.2</ele>
        <time>2021-02-20T12:04:05.000Z</time>
      </trkpt>
      <trkpt lat="45.84337" lon="5.3918">
        <ele>266.2</ele>
        <time>2021-02-20T12:04:06.000Z</time>
      </trkpt>
      <trkpt lat="45.8434" lon="5.39182">
        <ele>266.4</ele>
        <time>2021-02-20T12:04:07.000Z</time>
      </trkpt>
      <trkpt lat="45.84343" lon="5.39184">
        <ele>266.4</ele>
        <time>2021-02-20T12:04:08.000Z</time>
      </trkpt>
      <trkpt lat="45.84347" lon="5.39186">
        <ele>266.4</ele>
        <time>2021-02-20T12:04:09.000Z</time>
      </trkpt>
      <trkpt lat="45.8435" lon="5.39189">
        <ele>266.4</ele>
        <time>2021-02-20T12:04:10.000Z</time>
      </trkpt>
      <trkpt lat="45.84354" lon="5.39191">
        <ele>266.6</ele>
        <time>2021-02-20T12:04:11.000Z</time>
      </trkpt>
      <trkpt lat="45.84357" lon="5.39192">
        <ele>266.6</ele>
        <time>2021-02-20T12:04:12.000Z</time>
      </trkpt>
      <trkpt lat="45.84361" lon="5.39193">
        <ele>266.8</ele>
        <time>2021-02-20T12:04:13.000Z</time>
      </trkpt>
      <trkpt lat="45.84364" lon="5.39194">
        <ele>267</ele>
        <time>2021-02-20T12:04:14.000Z</time>
      </trkpt>
      <trkpt lat="45.84368" lon="5.39196">
        <ele>267</ele>
        <time>2021-02-20T12:04:15.000Z</time>
      </trkpt>
      <trkpt lat="45.84371" lon="5.39196">
        <ele>267.4</ele>
        <time>2021-02-20T12:04:16.000Z</time>
      </trkpt>
      <trkpt lat="45.84374" lon="5.39197">
        <ele>267.4</ele>
        <time>2021-02-20T12:04:17.000Z</time>
      </trkpt>
      <trkpt lat="45.84378" lon="5.39198">
        <ele>267.6</ele>
        <time>2021-02-20T12:04:18.000Z</time>
      </trkpt>
      <trkpt lat="45.84382" lon="5.39199">
        <ele>267.6</ele>
        <time>2021-02-20T12:04:19.000Z</time>
      </trkpt>
      <trkpt lat="45.84386" lon="5.392">
        <ele>267.8</ele>
        <time>2021-02-20T12:04:20.000Z</time>
      </trkpt>
      <trkpt lat="45.84389" lon="5.392">
        <ele>267.8</ele>
        <time>2021-02-20T12:04:21.000Z</time>
      </trkpt>
      <trkpt lat="45.84393" lon="5.392">
        <ele>268</ele>
        <time>2021-02-20T12:04:22.000Z</time>
      </trkpt>
      <trkpt lat="45.84396" lon="5.392">
        <ele>268</ele>
        <time>2021-02-20T12:04:23.000Z</time>
      </trkpt>
      <trkpt lat="45.84399" lon="5.392">
        <ele>268.2</ele>
        <time>2021-02-20T12:04:24.000Z</time>
      </trkpt>
      <trkpt lat="45.84402" lon="5.39199">
        <ele>268.2</ele>
        <time>2021-02-20T12:04:25.000Z</time>
      </trkpt>
      <trkpt lat="45.84404" lon="5.39199">
        <ele>268.4</ele>
        <time>2021-02-20T12:04:26.000Z</time>
      </trkpt>
      <trkpt lat="45.84407" lon="5.39199">
        <ele>268.6</ele>
        <time>2021-02-20T12:04:27.000Z</time>
      </trkpt>
      <trkpt lat="45.8441" lon="5.39199">
        <ele>268.8</ele>
        <time>2021-02-20T12:04:28.000Z</time>
      </trkpt>
      <trkpt lat="45.84414" lon="5.39199">
        <ele>268.8</ele>
        <time>2021-02-20T12:04:29.000Z</time>
      </trkpt>
      <trkpt lat="45.84417" lon="5.392">
        <ele>268.8</ele>
        <time>2021-02-20T12:04:30.000Z</time>
      </trkpt>
      <trkpt lat="45.8442" lon="5.392">
        <ele>268.8</ele>
        <time>2021-02-20T12:04:31.000Z</time>
      </trkpt>
      <trkpt lat="45.84423" lon="5.392">
        <ele>269</ele>
        <time>2021-02-20T12:04:32.000Z</time>
      </trkpt>
      <trkpt lat="45.84426" lon="5.39201">
        <ele>269</ele>
        <time>2021-02-20T12:04:33.000Z</time>
      </trkpt>
      <trkpt lat="45.84428" lon="5.39201">
        <ele>269.2</ele>
        <time>2021-02-20T12:04:34.000Z</time>
      </trkpt>
      <trkpt lat="45.8443" lon="5.39202">
        <ele>269.2</ele>
        <time>2021-02-20T12:04:35.000Z</time>
      </trkpt>
      <trkpt lat="45.84433" lon="5.39203">
        <ele>269.6</ele>
        <time>2021-02-20T12:04:36.000Z</time>
      </trkpt>
      <trkpt lat="45.84437" lon="5.39203">
        <ele>269.8</ele>
        <time>2021-02-20T12:04:37.000Z</time>
      </trkpt>
      <trkpt lat="45.8444" lon="5.39203">
        <ele>270.2</ele>
        <time>2021-02-20T12:04:38.000Z</time>
      </trkpt>
      <trkpt lat="45.84442" lon="5.39203">
        <ele>270.4</ele>
        <time>2021-02-20T12:04:39.000Z</time>
      </trkpt>
      <trkpt lat="45.84445" lon="5.39204">
        <ele>270.6</ele>
        <time>2021-02-20T12:04:40.000Z</time>
      </trkpt>
      <trkpt lat="45.84448" lon="5.39204">
        <ele>271</ele>
        <time>2021-02-20T12:04:41.000Z</time>
      </trkpt>
      <trkpt lat="45.84452" lon="5.39205">
        <ele>271.2</ele>
        <time>2021-02-20T12:04:42.000Z</time>
      </trkpt>
      <trkpt lat="45.84456" lon="5.39205">
        <ele>271.4</ele>
        <time>2021-02-20T12:04:43.000Z</time>
      </trkpt>
      <trkpt lat="45.84459" lon="5.39206">
        <ele>271.4</ele>
        <time>2021-02-20T12:04:44.000Z</time>
      </trkpt>
      <trkpt lat="45.84462" lon="5.39207">
        <ele>271.6</ele>
        <time>2021-02-20T12:04:45.000Z</time>
      </trkpt>
      <trkpt lat="45.84466" lon="5.39208">
        <ele>272</ele>
        <time>2021-02-20T12:04:46.000Z</time>
      </trkpt>
      <trkpt lat="45.8447" lon="5.39209">
        <ele>272.2</ele>
        <time>2021-02-20T12:04:47.000Z</time>
      </trkpt>
      <trkpt lat="45.84473" lon="5.3921">
        <ele>272.4</ele>
        <time>2021-02-20T12:04:48.000Z</time>
      </trkpt>
      <trkpt lat="45.84477" lon="5.39212">
        <ele>272.4</ele>
        <time>2021-02-20T12:04:49.000Z</time>
      </trkpt>
      <trkpt lat="45.8448" lon="5.39213">
        <ele>272.4</ele>
        <time>2021-02-20T12:04:50.000Z</time>
      </trkpt>
      <trkpt lat="45.84483" lon="5.39214">
        <ele>272.6</ele>
        <time>2021-02-20T12:04:51.000Z</time>
      </trkpt>
      <trkpt lat="45.84486" lon="5.39216">
        <ele>273</ele>
        <time>2021-02-20T12:04:52.000Z</time>
      </trkpt>
      <trkpt lat="45.84488" lon="5.39217">
        <ele>273.2</ele>
        <time>2021-02-20T12:04:53.000Z</time>
      </trkpt>
      <trkpt lat="45.84491" lon="5.39219">
        <ele>273.6</ele>
        <time>2021-02-20T12:04:54.000Z</time>
      </trkpt>
      <trkpt lat="45.84494" lon="5.3922">
        <ele>273.8</ele>
        <time>2021-02-20T12:04:55.000Z</time>
      </trkpt>
      <trkpt lat="45.84497" lon="5.3922">
        <ele>274</ele>
        <time>2021-02-20T12:04:56.000Z</time>
      </trkpt>
      <trkpt lat="45.845" lon="5.39221">
        <ele>274.2</ele>
        <time>2021-02-20T12:04:57.000Z</time>
      </trkpt>
      <trkpt lat="45.84503" lon="5.39222">
        <ele>274.4</ele>
        <time>2021-02-20T12:04:58.000Z</time>
      </trkpt>
      <trkpt lat="45.84506" lon="5.39223">
        <ele>274.6</ele>
        <time>2021-02-20T12:04:59.000Z</time>
      </trkpt>
      <trkpt lat="45.84509" lon="5.39223">
        <ele>274.6</ele>
        <time>2021-02-20T12:05:00.000Z</time>
      </trkpt>
      <trkpt lat="45.84513" lon="5.39224">
        <ele>274.8</ele>
        <time>2021-02-20T12:05:01.000Z</time>
      </trkpt>
      <trkpt lat="45.84516" lon="5.39225">
        <ele>274.8</ele>
        <time>2021-02-20T12:05:02.000Z</time>
      </trkpt>
      <trkpt lat="45.84519" lon="5.39226">
        <ele>274.8</ele>
        <time>2021-02-20T12:05:03.000Z</time>
      </trkpt>
      <trkpt lat="45.84523" lon="5.39227">
        <ele>275</ele>
        <time>2021-02-20T12:05:04.000Z</time>
      </trkpt>
      <trkpt lat="45.84526" lon="5.39229">
        <ele>275</ele>
        <time>2021-02-20T12:05:05.000Z</time>
      </trkpt>
      <trkpt lat="45.84531" lon="5.39231">
        <ele>275.2</ele>
        <time>2021-02-20T12:05:06.000Z</time>
      </trkpt>
      <trkpt lat="45.84535" lon="5.39233">
        <ele>275.2</ele>
        <time>2021-02-20T12:05:07.000Z</time>
      </trkpt>
      <trkpt lat="45.84539" lon="5.39236">
        <ele>275.2</ele>
        <time>2021-02-20T12:05:08.000Z</time>
      </trkpt>
      <trkpt lat="45.84543" lon="5.39239">
        <ele>275.2</ele>
        <time>2021-02-20T12:05:09.000Z</time>
      </trkpt>
      <trkpt lat="45.8455" lon="5.39246">
        <ele>275.2</ele>
        <time>2021-02-20T12:05:11.000Z</time>
      </trkpt>
      <trkpt lat="45.84557" lon="5.39254">
        <ele>275</ele>
        <time>2021-02-20T12:05:13.000Z</time>
      </trkpt>
      <trkpt lat="45.84561" lon="5.39258">
        <ele>275</ele>
        <time>2021-02-20T12:05:14.000Z</time>
      </trkpt>
      <trkpt lat="45.84564" lon="5.39263">
        <ele>275</ele>
        <time>2021-02-20T12:05:15.000Z</time>
      </trkpt>
      <trkpt lat="45.84567" lon="5.39269">
        <ele>274.8</ele>
        <time>2021-02-20T12:05:16.000Z</time>
      </trkpt>
      <trkpt lat="45.8458" lon="5.39293">
        <ele>274.8</ele>
        <time>2021-02-20T12:05:20.000Z</time>
      </trkpt>
      <trkpt lat="45.84585" lon="5.39298">
        <ele>274.8</ele>
        <time>2021-02-20T12:05:21.000Z</time>
      </trkpt>
      <trkpt lat="45.84593" lon="5.39308">
        <ele>274.4</ele>
        <time>2021-02-20T12:05:23.000Z</time>
      </trkpt>
      <trkpt lat="45.84602" lon="5.39316">
        <ele>274.4</ele>
        <time>2021-02-20T12:05:25.000Z</time>
      </trkpt>
      <trkpt lat="45.84606" lon="5.39319">
        <ele>274.4</ele>
        <time>2021-02-20T12:05:26.000Z</time>
      </trkpt>
      <trkpt lat="45.84609" lon="5.39322">
        <ele>274.2</ele>
        <time>2021-02-20T12:05:27.000Z</time>
      </trkpt>
      <trkpt lat="45.84613" lon="5.39325">
        <ele>274</ele>
        <time>2021-02-20T12:05:28.000Z</time>
      </trkpt>
      <trkpt lat="45.84621" lon="5.39332">
        <ele>273.8</ele>
        <time>2021-02-20T12:05:30.000Z</time>
      </trkpt>
      <trkpt lat="45.84632" lon="5.39339">
        <ele>273.2</ele>
        <time>2021-02-20T12:05:32.000Z</time>
      </trkpt>
      <trkpt lat="45.84638" lon="5.39342">
        <ele>272.8</ele>
        <time>2021-02-20T12:05:33.000Z</time>
      </trkpt>
      <trkpt lat="45.84644" lon="5.39346">
        <ele>272.6</ele>
        <time>2021-02-20T12:05:34.000Z</time>
      </trkpt>
      <trkpt lat="45.84651" lon="5.39349">
        <ele>272.4</ele>
        <time>2021-02-20T12:05:35.000Z</time>
      </trkpt>
      <trkpt lat="45.84666" lon="5.39357">
        <ele>272</ele>
        <time>2021-02-20T12:05:37.000Z</time>
      </trkpt>
      <trkpt lat="45.84674" lon="5.39361">
        <ele>272</ele>
        <time>2021-02-20T12:05:38.000Z</time>
      </trkpt>
      <trkpt lat="45.84681" lon="5.39365">
        <ele>271.8</ele>
        <time>2021-02-20T12:05:39.000Z</time>
      </trkpt>
      <trkpt lat="45.84688" lon="5.39368">
        <ele>271.4</ele>
        <time>2021-02-20T12:05:40.000Z</time>
      </trkpt>
      <trkpt lat="45.84694" lon="5.39372">
        <ele>271</ele>
        <time>2021-02-20T12:05:41.000Z</time>
      </trkpt>
      <trkpt lat="45.84699" lon="5.39375">
        <ele>270</ele>
        <time>2021-02-20T12:05:42.000Z</time>
      </trkpt>
      <trkpt lat="45.84705" lon="5.39377">
        <ele>268.2</ele>
        <time>2021-02-20T12:05:43.000Z</time>
      </trkpt>
      <trkpt lat="45.84709" lon="5.39381">
        <ele>267</ele>
        <time>2021-02-20T12:05:44.000Z</time>
      </trkpt>
      <trkpt lat="45.84713" lon="5.39384">
        <ele>266.4</ele>
        <time>2021-02-20T12:05:45.000Z</time>
      </trkpt>
      <trkpt lat="45.84717" lon="5.39386">
        <ele>266</ele>
        <time>2021-02-20T12:05:46.000Z</time>
      </trkpt>
      <trkpt lat="45.84721" lon="5.39388">
        <ele>265.8</ele>
        <time>2021-02-20T12:05:47.000Z</time>
      </trkpt>
      <trkpt lat="45.84725" lon="5.3939">
        <ele>265.8</ele>
        <time>2021-02-20T12:05:48.000Z</time>
      </trkpt>
      <trkpt lat="45.84746" lon="5.394">
        <ele>265</ele>
        <time>2021-02-20T12:05:52.000Z</time>
      </trkpt>
      <trkpt lat="45.84752" lon="5.39402">
        <ele>264.4</ele>
        <time>2021-02-20T12:05:53.000Z</time>
      </trkpt>
      <trkpt lat="45.84757" lon="5.39406">
        <ele>264.2</ele>
        <time>2021-02-20T12:05:54.000Z</time>
      </trkpt>
      <trkpt lat="45.84761" lon="5.39409">
        <ele>264</ele>
        <time>2021-02-20T12:05:55.000Z</time>
      </trkpt>
      <trkpt lat="45.84764" lon="5.39413">
        <ele>264</ele>
        <time>2021-02-20T12:05:56.000Z</time>
      </trkpt>
      <trkpt lat="45.8477" lon="5.39414">
        <ele>263.8</ele>
        <time>2021-02-20T12:05:57.000Z</time>
      </trkpt>
      <trkpt lat="45.84775" lon="5.39417">
        <ele>263.8</ele>
        <time>2021-02-20T12:05:58.000Z</time>
      </trkpt>
      <trkpt lat="45.84779" lon="5.39419">
        <ele>263.8</ele>
        <time>2021-02-20T12:05:59.000Z</time>
      </trkpt>
      <trkpt lat="45.84784" lon="5.3942">
        <ele>264</ele>
        <time>2021-02-20T12:06:00.000Z</time>
      </trkpt>
      <trkpt lat="45.84787" lon="5.39423">
        <ele>264</ele>
        <time>2021-02-20T12:06:01.000Z</time>
      </trkpt>
      <trkpt lat="45.84792" lon="5.39424">
        <ele>264.2</ele>
        <time>2021-02-20T12:06:02.000Z</time>
      </trkpt>
      <trkpt lat="45.84802" lon="5.39425">
        <ele>264</ele>
        <time>2021-02-20T12:06:04.000Z</time>
      </trkpt>
      <trkpt lat="45.84806" lon="5.39426">
        <ele>264</ele>
        <time>2021-02-20T12:06:05.000Z</time>
      </trkpt>
      <trkpt lat="45.84811" lon="5.39427">
        <ele>263.8</ele>
        <time>2021-02-20T12:06:06.000Z</time>
      </trkpt>
      <trkpt lat="45.84814" lon="5.39429">
        <ele>264</ele>
        <time>2021-02-20T12:06:07.000Z</time>
      </trkpt>
      <trkpt lat="45.84817" lon="5.3943">
        <ele>264.2</ele>
        <time>2021-02-20T12:06:08.000Z</time>
      </trkpt>
      <trkpt lat="45.84824" lon="5.39433">
        <ele>264.2</ele>
        <time>2021-02-20T12:06:10.000Z</time>
      </trkpt>
      <trkpt lat="45.84826" lon="5.39435">
        <ele>264</ele>
        <time>2021-02-20T12:06:11.000Z</time>
      </trkpt>
      <trkpt lat="45.84829" lon="5.39436">
        <ele>264.2</ele>
        <time>2021-02-20T12:06:12.000Z</time>
      </trkpt>
      <trkpt lat="45.84832" lon="5.39437">
        <ele>264.4</ele>
        <time>2021-02-20T12:06:13.000Z</time>
      </trkpt>
      <trkpt lat="45.84834" lon="5.39438">
        <ele>264.4</ele>
        <time>2021-02-20T12:06:14.000Z</time>
      </trkpt>
      <trkpt lat="45.84837" lon="5.39438">
        <ele>264.4</ele>
        <time>2021-02-20T12:06:15.000Z</time>
      </trkpt>
      <trkpt lat="45.84839" lon="5.39438">
        <ele>264.6</ele>
        <time>2021-02-20T12:06:16.000Z</time>
      </trkpt>
      <trkpt lat="45.84841" lon="5.39439">
        <ele>264.6</ele>
        <time>2021-02-20T12:06:17.000Z</time>
      </trkpt>
      <trkpt lat="45.84843" lon="5.3944">
        <ele>265.2</ele>
        <time>2021-02-20T12:06:18.000Z</time>
      </trkpt>
      <trkpt lat="45.84845" lon="5.39441">
        <ele>265.2</ele>
        <time>2021-02-20T12:06:19.000Z</time>
      </trkpt>
      <trkpt lat="45.84846" lon="5.39442">
        <ele>265.6</ele>
        <time>2021-02-20T12:06:20.000Z</time>
      </trkpt>
      <trkpt lat="45.84848" lon="5.39444">
        <ele>265.8</ele>
        <time>2021-02-20T12:06:21.000Z</time>
      </trkpt>
      <trkpt lat="45.8485" lon="5.39444">
        <ele>266.2</ele>
        <time>2021-02-20T12:06:22.000Z</time>
      </trkpt>
      <trkpt lat="45.84853" lon="5.39446">
        <ele>266.2</ele>
        <time>2021-02-20T12:06:23.000Z</time>
      </trkpt>
      <trkpt lat="45.84855" lon="5.39448">
        <ele>266.4</ele>
        <time>2021-02-20T12:06:24.000Z</time>
      </trkpt>
      <trkpt lat="45.84858" lon="5.39449">
        <ele>266.4</ele>
        <time>2021-02-20T12:06:25.000Z</time>
      </trkpt>
      <trkpt lat="45.84862" lon="5.39451">
        <ele>266.6</ele>
        <time>2021-02-20T12:06:26.000Z</time>
      </trkpt>
      <trkpt lat="45.84865" lon="5.39453">
        <ele>266.4</ele>
        <time>2021-02-20T12:06:27.000Z</time>
      </trkpt>
      <trkpt lat="45.84869" lon="5.39456">
        <ele>266.4</ele>
        <time>2021-02-20T12:06:28.000Z</time>
      </trkpt>
      <trkpt lat="45.84882" lon="5.39461">
        <ele>266.6</ele>
        <time>2021-02-20T12:06:30.000Z</time>
      </trkpt>
      <trkpt lat="45.84888" lon="5.39465">
        <ele>266.6</ele>
        <time>2021-02-20T12:06:31.000Z</time>
      </trkpt>
      <trkpt lat="45.84894" lon="5.39469">
        <ele>266.6</ele>
        <time>2021-02-20T12:06:32.000Z</time>
      </trkpt>
      <trkpt lat="45.84914" lon="5.39489">
        <ele>266.2</ele>
        <time>2021-02-20T12:06:35.000Z</time>
      </trkpt>
      <trkpt lat="45.84921" lon="5.39495">
        <ele>266</ele>
        <time>2021-02-20T12:06:36.000Z</time>
      </trkpt>
      <trkpt lat="45.84929" lon="5.39501">
        <ele>265.4</ele>
        <time>2021-02-20T12:06:37.000Z</time>
      </trkpt>
      <trkpt lat="45.84938" lon="5.39506">
        <ele>264.8</ele>
        <time>2021-02-20T12:06:38.000Z</time>
      </trkpt>
      <trkpt lat="45.84945" lon="5.3951">
        <ele>264.4</ele>
        <time>2021-02-20T12:06:39.000Z</time>
      </trkpt>
      <trkpt lat="45.84951" lon="5.39514">
        <ele>263.2</ele>
        <time>2021-02-20T12:06:40.000Z</time>
      </trkpt>
      <trkpt lat="45.84957" lon="5.39517">
        <ele>261.6</ele>
        <time>2021-02-20T12:06:41.000Z</time>
      </trkpt>
      <trkpt lat="45.84964" lon="5.3952">
        <ele>260.8</ele>
        <time>2021-02-20T12:06:42.000Z</time>
      </trkpt>
      <trkpt lat="45.84972" lon="5.39522">
        <ele>260.4</ele>
        <time>2021-02-20T12:06:43.000Z</time>
      </trkpt>
      <trkpt lat="45.8498" lon="5.39525">
        <ele>260</ele>
        <time>2021-02-20T12:06:44.000Z</time>
      </trkpt>
      <trkpt lat="45.84986" lon="5.3953">
        <ele>259.4</ele>
        <time>2021-02-20T12:06:45.000Z</time>
      </trkpt>
      <trkpt lat="45.84996" lon="5.39541">
        <ele>258.2</ele>
        <time>2021-02-20T12:06:47.000Z</time>
      </trkpt>
      <trkpt lat="45.85009" lon="5.39551">
        <ele>257.8</ele>
        <time>2021-02-20T12:06:49.000Z</time>
      </trkpt>
      <trkpt lat="45.85015" lon="5.39556">
        <ele>257.6</ele>
        <time>2021-02-20T12:06:50.000Z</time>
      </trkpt>
      <trkpt lat="45.8502" lon="5.39563">
        <ele>257.4</ele>
        <time>2021-02-20T12:06:51.000Z</time>
      </trkpt>
      <trkpt lat="45.85026" lon="5.3957">
        <ele>256.8</ele>
        <time>2021-02-20T12:06:52.000Z</time>
      </trkpt>
      <trkpt lat="45.85031" lon="5.39577">
        <ele>256.4</ele>
        <time>2021-02-20T12:06:53.000Z</time>
      </trkpt>
      <trkpt lat="45.85034" lon="5.39587">
        <ele>255.2</ele>
        <time>2021-02-20T12:06:54.000Z</time>
      </trkpt>
      <trkpt lat="45.85037" lon="5.39597">
        <ele>253.2</ele>
        <time>2021-02-20T12:06:55.000Z</time>
      </trkpt>
      <trkpt lat="45.85039" lon="5.39607">
        <ele>252.2</ele>
        <time>2021-02-20T12:06:56.000Z</time>
      </trkpt>
      <trkpt lat="45.85041" lon="5.39619">
        <ele>251.2</ele>
        <time>2021-02-20T12:06:57.000Z</time>
      </trkpt>
      <trkpt lat="45.85042" lon="5.39631">
        <ele>250.2</ele>
        <time>2021-02-20T12:06:58.000Z</time>
      </trkpt>
      <trkpt lat="45.85042" lon="5.39642">
        <ele>248.4</ele>
        <time>2021-02-20T12:06:59.000Z</time>
      </trkpt>
      <trkpt lat="45.85042" lon="5.39653">
        <ele>247.4</ele>
        <time>2021-02-20T12:07:00.000Z</time>
      </trkpt>
      <trkpt lat="45.85041" lon="5.39663">
        <ele>245.8</ele>
        <time>2021-02-20T12:07:01.000Z</time>
      </trkpt>
      <trkpt lat="45.8504" lon="5.39673">
        <ele>244.4</ele>
        <time>2021-02-20T12:07:02.000Z</time>
      </trkpt>
      <trkpt lat="45.85039" lon="5.39682">
        <ele>243</ele>
        <time>2021-02-20T12:07:03.000Z</time>
      </trkpt>
      <trkpt lat="45.85039" lon="5.39693">
        <ele>242</ele>
        <time>2021-02-20T12:07:04.000Z</time>
      </trkpt>
      <trkpt lat="45.85041" lon="5.39703">
        <ele>241.4</ele>
        <time>2021-02-20T12:07:05.000Z</time>
      </trkpt>
      <trkpt lat="45.85043" lon="5.39711">
        <ele>240.2</ele>
        <time>2021-02-20T12:07:06.000Z</time>
      </trkpt>
      <trkpt lat="45.85044" lon="5.39718">
        <ele>238.8</ele>
        <time>2021-02-20T12:07:07.000Z</time>
      </trkpt>
      <trkpt lat="45.85046" lon="5.39723">
        <ele>238</ele>
        <time>2021-02-20T12:07:08.000Z</time>
      </trkpt>
      <trkpt lat="45.85049" lon="5.39727">
        <ele>238</ele>
        <time>2021-02-20T12:07:09.000Z</time>
      </trkpt>
      <trkpt lat="45.85055" lon="5.39729">
        <ele>237</ele>
        <time>2021-02-20T12:07:10.000Z</time>
      </trkpt>
      <trkpt lat="45.85062" lon="5.39729">
        <ele>235.8</ele>
        <time>2021-02-20T12:07:11.000Z</time>
      </trkpt>
      <trkpt lat="45.85068" lon="5.39728">
        <ele>235.2</ele>
        <time>2021-02-20T12:07:12.000Z</time>
      </trkpt>
      <trkpt lat="45.8508" lon="5.39721">
        <ele>234.2</ele>
        <time>2021-02-20T12:07:13.000Z</time>
      </trkpt>
      <trkpt lat="45.85103" lon="5.39711">
        <ele>233.2</ele>
        <time>2021-02-20T12:07:14.000Z</time>
      </trkpt>
      <trkpt lat="45.85129" lon="5.39705">
        <ele>231</ele>
        <time>2021-02-20T12:07:16.000Z</time>
      </trkpt>
      <trkpt lat="45.85139" lon="5.39706">
        <ele>229.8</ele>
        <time>2021-02-20T12:07:17.000Z</time>
      </trkpt>
      <trkpt lat="45.85149" lon="5.39708">
        <ele>228.2</ele>
        <time>2021-02-20T12:07:18.000Z</time>
      </trkpt>
      <trkpt lat="45.85158" lon="5.39711">
        <ele>226</ele>
        <time>2021-02-20T12:07:19.000Z</time>
      </trkpt>
      <trkpt lat="45.85166" lon="5.39715">
        <ele>224.4</ele>
        <time>2021-02-20T12:07:20.000Z</time>
      </trkpt>
      <trkpt lat="45.85174" lon="5.3972">
        <ele>223</ele>
        <time>2021-02-20T12:07:21.000Z</time>
      </trkpt>
      <trkpt lat="45.8518" lon="5.39726">
        <ele>222</ele>
        <time>2021-02-20T12:07:22.000Z</time>
      </trkpt>
      <trkpt lat="45.85186" lon="5.39731">
        <ele>220.8</ele>
        <time>2021-02-20T12:07:23.000Z</time>
      </trkpt>
      <trkpt lat="45.85191" lon="5.39737">
        <ele>219.8</ele>
        <time>2021-02-20T12:07:24.000Z</time>
      </trkpt>
      <trkpt lat="45.85195" lon="5.39743">
        <ele>218.8</ele>
        <time>2021-02-20T12:07:25.000Z</time>
      </trkpt>
      <trkpt lat="45.85199" lon="5.39748">
        <ele>218</ele>
        <time>2021-02-20T12:07:26.000Z</time>
      </trkpt>
      <trkpt lat="45.85203" lon="5.39752">
        <ele>217.6</ele>
        <time>2021-02-20T12:07:27.000Z</time>
      </trkpt>
      <trkpt lat="45.85206" lon="5.39756">
        <ele>217.6</ele>
        <time>2021-02-20T12:07:28.000Z</time>
      </trkpt>
      <trkpt lat="45.8521" lon="5.3976">
        <ele>217.4</ele>
        <time>2021-02-20T12:07:29.000Z</time>
      </trkpt>
      <trkpt lat="45.85216" lon="5.39768">
        <ele>217</ele>
        <time>2021-02-20T12:07:31.000Z</time>
      </trkpt>
      <trkpt lat="45.85223" lon="5.39777">
        <ele>217</ele>
        <time>2021-02-20T12:07:33.000Z</time>
      </trkpt>
      <trkpt lat="45.85242" lon="5.39806">
        <ele>216.6</ele>
        <time>2021-02-20T12:07:39.000Z</time>
      </trkpt>
      <trkpt lat="45.85245" lon="5.39812">
        <ele>216.6</ele>
        <time>2021-02-20T12:07:40.000Z</time>
      </trkpt>
      <trkpt lat="45.85261" lon="5.39832">
        <ele>216.6</ele>
        <time>2021-02-20T12:07:44.000Z</time>
      </trkpt>
      <trkpt lat="45.85265" lon="5.39836">
        <ele>216.6</ele>
        <time>2021-02-20T12:07:45.000Z</time>
      </trkpt>
      <trkpt lat="45.85278" lon="5.3985">
        <ele>216.4</ele>
        <time>2021-02-20T12:07:48.000Z</time>
      </trkpt>
      <trkpt lat="45.85282" lon="5.39854">
        <ele>216.4</ele>
        <time>2021-02-20T12:07:49.000Z</time>
      </trkpt>
      <trkpt lat="45.85289" lon="5.39862">
        <ele>216.2</ele>
        <time>2021-02-20T12:07:51.000Z</time>
      </trkpt>
      <trkpt lat="45.85293" lon="5.39866">
        <ele>216.2</ele>
        <time>2021-02-20T12:07:52.000Z</time>
      </trkpt>
      <trkpt lat="45.85297" lon="5.3987">
        <ele>216</ele>
        <time>2021-02-20T12:07:53.000Z</time>
      </trkpt>
      <trkpt lat="45.85301" lon="5.39875">
        <ele>215.8</ele>
        <time>2021-02-20T12:07:54.000Z</time>
      </trkpt>
      <trkpt lat="45.85304" lon="5.39879">
        <ele>215.8</ele>
        <time>2021-02-20T12:07:55.000Z</time>
      </trkpt>
      <trkpt lat="45.85308" lon="5.39883">
        <ele>215.8</ele>
        <time>2021-02-20T12:07:56.000Z</time>
      </trkpt>
      <trkpt lat="45.85312" lon="5.39887">
        <ele>215.6</ele>
        <time>2021-02-20T12:07:57.000Z</time>
      </trkpt>
      <trkpt lat="45.85315" lon="5.39891">
        <ele>215.8</ele>
        <time>2021-02-20T12:07:58.000Z</time>
      </trkpt>
      <trkpt lat="45.85318" lon="5.39894">
        <ele>215.8</ele>
        <time>2021-02-20T12:07:59.000Z</time>
      </trkpt>
      <trkpt lat="45.85321" lon="5.39897">
        <ele>215.8</ele>
        <time>2021-02-20T12:08:00.000Z</time>
      </trkpt>
      <trkpt lat="45.85324" lon="5.39899">
        <ele>215.8</ele>
        <time>2021-02-20T12:08:01.000Z</time>
      </trkpt>
      <trkpt lat="45.85327" lon="5.39902">
        <ele>215.8</ele>
        <time>2021-02-20T12:08:02.000Z</time>
      </trkpt>
      <trkpt lat="45.8533" lon="5.39904">
        <ele>215.8</ele>
        <time>2021-02-20T12:08:03.000Z</time>
      </trkpt>
      <trkpt lat="45.85332" lon="5.39907">
        <ele>215.8</ele>
        <time>2021-02-20T12:08:04.000Z</time>
      </trkpt>
      <trkpt lat="45.85338" lon="5.39912">
        <ele>215.8</ele>
        <time>2021-02-20T12:08:06.000Z</time>
      </trkpt>
      <trkpt lat="45.85342" lon="5.39918">
        <ele>215.8</ele>
        <time>2021-02-20T12:08:08.000Z</time>
      </trkpt>
      <trkpt lat="45.85344" lon="5.39921">
        <ele>216.4</ele>
        <time>2021-02-20T12:08:09.000Z</time>
      </trkpt>
      <trkpt lat="45.85346" lon="5.39923">
        <ele>216.6</ele>
        <time>2021-02-20T12:08:10.000Z</time>
      </trkpt>
      <trkpt lat="45.85349" lon="5.39925">
        <ele>217</ele>
        <time>2021-02-20T12:08:11.000Z</time>
      </trkpt>
      <trkpt lat="45.85352" lon="5.39928">
        <ele>217</ele>
        <time>2021-02-20T12:08:12.000Z</time>
      </trkpt>
      <trkpt lat="45.85355" lon="5.3993">
        <ele>217.4</ele>
        <time>2021-02-20T12:08:13.000Z</time>
      </trkpt>
      <trkpt lat="45.85358" lon="5.39934">
        <ele>217.8</ele>
        <time>2021-02-20T12:08:14.000Z</time>
      </trkpt>
      <trkpt lat="45.85361" lon="5.39937">
        <ele>218</ele>
        <time>2021-02-20T12:08:15.000Z</time>
      </trkpt>
      <trkpt lat="45.85363" lon="5.39939">
        <ele>218.4</ele>
        <time>2021-02-20T12:08:16.000Z</time>
      </trkpt>
      <trkpt lat="45.85366" lon="5.39941">
        <ele>218.4</ele>
        <time>2021-02-20T12:08:17.000Z</time>
      </trkpt>
      <trkpt lat="45.85368" lon="5.39945">
        <ele>218.8</ele>
        <time>2021-02-20T12:08:18.000Z</time>
      </trkpt>
      <trkpt lat="45.85371" lon="5.39948">
        <ele>218.8</ele>
        <time>2021-02-20T12:08:19.000Z</time>
      </trkpt>
      <trkpt lat="45.85374" lon="5.39952">
        <ele>219</ele>
        <time>2021-02-20T12:08:20.000Z</time>
      </trkpt>
      <trkpt lat="45.85377" lon="5.39955">
        <ele>219</ele>
        <time>2021-02-20T12:08:21.000Z</time>
      </trkpt>
      <trkpt lat="45.85381" lon="5.39958">
        <ele>219</ele>
        <time>2021-02-20T12:08:22.000Z</time>
      </trkpt>
      <trkpt lat="45.85385" lon="5.39961">
        <ele>219</ele>
        <time>2021-02-20T12:08:23.000Z</time>
      </trkpt>
      <trkpt lat="45.8539" lon="5.39964">
        <ele>219.2</ele>
        <time>2021-02-20T12:08:24.000Z</time>
      </trkpt>
      <trkpt lat="45.85396" lon="5.39968">
        <ele>219.2</ele>
        <time>2021-02-20T12:08:25.000Z</time>
      </trkpt>
      <trkpt lat="45.85409" lon="5.39976">
        <ele>219.2</ele>
        <time>2021-02-20T12:08:27.000Z</time>
      </trkpt>
      <trkpt lat="45.85424" lon="5.39986">
        <ele>219</ele>
        <time>2021-02-20T12:08:29.000Z</time>
      </trkpt>
      <trkpt lat="45.85433" lon="5.3999">
        <ele>219</ele>
        <time>2021-02-20T12:08:30.000Z</time>
      </trkpt>
      <trkpt lat="45.85443" lon="5.39992">
        <ele>218.8</ele>
        <time>2021-02-20T12:08:31.000Z</time>
      </trkpt>
      <trkpt lat="45.85453" lon="5.39994">
        <ele>218.2</ele>
        <time>2021-02-20T12:08:32.000Z</time>
      </trkpt>
      <trkpt lat="45.85462" lon="5.39998">
        <ele>217.2</ele>
        <time>2021-02-20T12:08:33.000Z</time>
      </trkpt>
      <trkpt lat="45.8548" lon="5.40004">
        <ele>215.2</ele>
        <time>2021-02-20T12:08:35.000Z</time>
      </trkpt>
      <trkpt lat="45.85488" lon="5.40009">
        <ele>214.4</ele>
        <time>2021-02-20T12:08:36.000Z</time>
      </trkpt>
      <trkpt lat="45.85495" lon="5.40015">
        <ele>213.2</ele>
        <time>2021-02-20T12:08:37.000Z</time>
      </trkpt>
      <trkpt lat="45.855" lon="5.40022">
        <ele>211.8</ele>
        <time>2021-02-20T12:08:38.000Z</time>
      </trkpt>
      <trkpt lat="45.85503" lon="5.4003">
        <ele>211</ele>
        <time>2021-02-20T12:08:39.000Z</time>
      </trkpt>
      <trkpt lat="45.85504" lon="5.40037">
        <ele>209.6</ele>
        <time>2021-02-20T12:08:40.000Z</time>
      </trkpt>
      <trkpt lat="45.85504" lon="5.40045">
        <ele>208.6</ele>
        <time>2021-02-20T12:08:41.000Z</time>
      </trkpt>
      <trkpt lat="45.85503" lon="5.40053">
        <ele>207.2</ele>
        <time>2021-02-20T12:08:42.000Z</time>
      </trkpt>
      <trkpt lat="45.85501" lon="5.40062">
        <ele>206.6</ele>
        <time>2021-02-20T12:08:43.000Z</time>
      </trkpt>
      <trkpt lat="45.855" lon="5.40071">
        <ele>206.4</ele>
        <time>2021-02-20T12:08:44.000Z</time>
      </trkpt>
      <trkpt lat="45.85487" lon="5.40124">
        <ele>205</ele>
        <time>2021-02-20T12:08:50.000Z</time>
      </trkpt>
      <trkpt lat="45.85485" lon="5.40133">
        <ele>205</ele>
        <time>2021-02-20T12:08:51.000Z</time>
      </trkpt>
      <trkpt lat="45.85483" lon="5.40141">
        <ele>204.6</ele>
        <time>2021-02-20T12:08:52.000Z</time>
      </trkpt>
      <trkpt lat="45.85479" lon="5.40158">
        <ele>204.2</ele>
        <time>2021-02-20T12:08:54.000Z</time>
      </trkpt>
      <trkpt lat="45.85477" lon="5.40166">
        <ele>204.2</ele>
        <time>2021-02-20T12:08:55.000Z</time>
      </trkpt>
      <trkpt lat="45.85475" lon="5.40174">
        <ele>204.2</ele>
        <time>2021-02-20T12:08:56.000Z</time>
      </trkpt>
      <trkpt lat="45.85473" lon="5.40181">
        <ele>203.6</ele>
        <time>2021-02-20T12:08:57.000Z</time>
      </trkpt>
      <trkpt lat="45.85471" lon="5.40189">
        <ele>203.4</ele>
        <time>2021-02-20T12:08:58.000Z</time>
      </trkpt>
      <trkpt lat="45.8547" lon="5.40196">
        <ele>203</ele>
        <time>2021-02-20T12:08:59.000Z</time>
      </trkpt>
      <trkpt lat="45.85465" lon="5.40218">
        <ele>201.8</ele>
        <time>2021-02-20T12:09:02.000Z</time>
      </trkpt>
      <trkpt lat="45.85464" lon="5.40225">
        <ele>201.6</ele>
        <time>2021-02-20T12:09:03.000Z</time>
      </trkpt>
      <trkpt lat="45.85463" lon="5.40232">
        <ele>201.4</ele>
        <time>2021-02-20T12:09:04.000Z</time>
      </trkpt>
      <trkpt lat="45.85461" lon="5.40239">
        <ele>201.4</ele>
        <time>2021-02-20T12:09:05.000Z</time>
      </trkpt>
      <trkpt lat="45.85459" lon="5.40246">
        <ele>201.2</ele>
        <time>2021-02-20T12:09:06.000Z</time>
      </trkpt>
      <trkpt lat="45.85457" lon="5.40253">
        <ele>201</ele>
        <time>2021-02-20T12:09:07.000Z</time>
      </trkpt>
      <trkpt lat="45.85456" lon="5.4026">
        <ele>201</ele>
        <time>2021-02-20T12:09:08.000Z</time>
      </trkpt>
      <trkpt lat="45.85454" lon="5.40267">
        <ele>201</ele>
        <time>2021-02-20T12:09:09.000Z</time>
      </trkpt>
      <trkpt lat="45.85453" lon="5.40273">
        <ele>201</ele>
        <time>2021-02-20T12:09:10.000Z</time>
      </trkpt>
      <trkpt lat="45.85451" lon="5.40279">
        <ele>200.8</ele>
        <time>2021-02-20T12:09:11.000Z</time>
      </trkpt>
      <trkpt lat="45.85449" lon="5.40285">
        <ele>200.6</ele>
        <time>2021-02-20T12:09:12.000Z</time>
      </trkpt>
      <trkpt lat="45.85448" lon="5.4029">
        <ele>200.6</ele>
        <time>2021-02-20T12:09:13.000Z</time>
      </trkpt>
      <trkpt lat="45.85446" lon="5.40296">
        <ele>200.4</ele>
        <time>2021-02-20T12:09:14.000Z</time>
      </trkpt>
      <trkpt lat="45.85443" lon="5.40306">
        <ele>200.2</ele>
        <time>2021-02-20T12:09:16.000Z</time>
      </trkpt>
      <trkpt lat="45.85442" lon="5.40312">
        <ele>200.4</ele>
        <time>2021-02-20T12:09:17.000Z</time>
      </trkpt>
      <trkpt lat="45.85441" lon="5.40316">
        <ele>200.2</ele>
        <time>2021-02-20T12:09:18.000Z</time>
      </trkpt>
      <trkpt lat="45.85441" lon="5.4032">
        <ele>200.2</ele>
        <time>2021-02-20T12:09:19.000Z</time>
      </trkpt>
      <trkpt lat="45.85442" lon="5.40323">
        <ele>200.2</ele>
        <time>2021-02-20T12:09:20.000Z</time>
      </trkpt>
      <trkpt lat="45.85442" lon="5.40326">
        <ele>200.2</ele>
        <time>2021-02-20T12:09:21.000Z</time>
      </trkpt>
      <trkpt lat="45.85443" lon="5.40327">
        <ele>200.2</ele>
        <time>2021-02-20T12:09:22.000Z</time>
      </trkpt>
      <trkpt lat="45.85444" lon="5.4033">
        <ele>200.2</ele>
        <time>2021-02-20T12:09:23.000Z</time>
      </trkpt>
      <trkpt lat="45.85453" lon="5.40347">
        <ele>200.4</ele>
        <time>2021-02-20T12:09:28.000Z</time>
      </trkpt>
      <trkpt lat="45.85462" lon="5.40369">
        <ele>200.4</ele>
        <time>2021-02-20T12:09:33.000Z</time>
      </trkpt>
      <trkpt lat="45.85462" lon="5.40374">
        <ele>200.4</ele>
        <time>2021-02-20T12:09:34.000Z</time>
      </trkpt>
      <trkpt lat="45.85462" lon="5.40379">
        <ele>200.2</ele>
        <time>2021-02-20T12:09:35.000Z</time>
      </trkpt>
      <trkpt lat="45.8546" lon="5.40384">
        <ele>200.2</ele>
        <time>2021-02-20T12:09:36.000Z</time>
      </trkpt>
      <trkpt lat="45.85457" lon="5.40387">
        <ele>200.2</ele>
        <time>2021-02-20T12:09:37.000Z</time>
      </trkpt>
      <trkpt lat="45.85455" lon="5.4039">
        <ele>200.2</ele>
        <time>2021-02-20T12:09:38.000Z</time>
      </trkpt>
      <trkpt lat="45.85452" lon="5.40392">
        <ele>200.2</ele>
        <time>2021-02-20T12:09:39.000Z</time>
      </trkpt>
      <trkpt lat="45.85449" lon="5.40394">
        <ele>200.2</ele>
        <time>2021-02-20T12:09:40.000Z</time>
      </trkpt>
      <trkpt lat="45.85446" lon="5.40396">
        <ele>200.2</ele>
        <time>2021-02-20T12:09:41.000Z</time>
      </trkpt>
      <trkpt lat="45.85439" lon="5.404">
        <ele>200</ele>
        <time>2021-02-20T12:09:43.000Z</time>
      </trkpt>
      <trkpt lat="45.85432" lon="5.40403">
        <ele>200</ele>
        <time>2021-02-20T12:09:45.000Z</time>
      </trkpt>
      <trkpt lat="45.85425" lon="5.4041">
        <ele>200.2</ele>
        <time>2021-02-20T12:09:47.000Z</time>
      </trkpt>
      <trkpt lat="45.85422" lon="5.40414">
        <ele>200</ele>
        <time>2021-02-20T12:09:48.000Z</time>
      </trkpt>
      <trkpt lat="45.85418" lon="5.40419">
        <ele>200</ele>
        <time>2021-02-20T12:09:49.000Z</time>
      </trkpt>
      <trkpt lat="45.85411" lon="5.40426">
        <ele>200</ele>
        <time>2021-02-20T12:09:51.000Z</time>
      </trkpt>
      <trkpt lat="45.85407" lon="5.40429">
        <ele>200</ele>
        <time>2021-02-20T12:09:52.000Z</time>
      </trkpt>
      <trkpt lat="45.85403" lon="5.40432">
        <ele>200</ele>
        <time>2021-02-20T12:09:53.000Z</time>
      </trkpt>
      <trkpt lat="45.85399" lon="5.40435">
        <ele>200</ele>
        <time>2021-02-20T12:09:54.000Z</time>
      </trkpt>
      <trkpt lat="45.85376" lon="5.40452">
        <ele>200.2</ele>
        <time>2021-02-20T12:10:00.000Z</time>
      </trkpt>
      <trkpt lat="45.85373" lon="5.40455">
        <ele>200.2</ele>
        <time>2021-02-20T12:10:01.000Z</time>
      </trkpt>
      <trkpt lat="45.85369" lon="5.40458">
        <ele>200.2</ele>
        <time>2021-02-20T12:10:02.000Z</time>
      </trkpt>
      <trkpt lat="45.85365" lon="5.40461">
        <ele>200.2</ele>
        <time>2021-02-20T12:10:03.000Z</time>
      </trkpt>
      <trkpt lat="45.85362" lon="5.40464">
        <ele>200.2</ele>
        <time>2021-02-20T12:10:04.000Z</time>
      </trkpt>
      <trkpt lat="45.85358" lon="5.40468">
        <ele>200.2</ele>
        <time>2021-02-20T12:10:05.000Z</time>
      </trkpt>
      <trkpt lat="45.85355" lon="5.40471">
        <ele>200.2</ele>
        <time>2021-02-20T12:10:06.000Z</time>
      </trkpt>
      <trkpt lat="45.85352" lon="5.40474">
        <ele>200.2</ele>
        <time>2021-02-20T12:10:07.000Z</time>
      </trkpt>
      <trkpt lat="45.8535" lon="5.40477">
        <ele>200.2</ele>
        <time>2021-02-20T12:10:08.000Z</time>
      </trkpt>
      <trkpt lat="45.85347" lon="5.4048">
        <ele>200.2</ele>
        <time>2021-02-20T12:10:09.000Z</time>
      </trkpt>
      <trkpt lat="45.85345" lon="5.40484">
        <ele>200.6</ele>
        <time>2021-02-20T12:10:10.000Z</time>
      </trkpt>
      <trkpt lat="45.85337" lon="5.40494">
        <ele>200.8</ele>
        <time>2021-02-20T12:10:13.000Z</time>
      </trkpt>
      <trkpt lat="45.85333" lon="5.40497">
        <ele>201</ele>
        <time>2021-02-20T12:10:14.000Z</time>
      </trkpt>
      <trkpt lat="45.85328" lon="5.40499">
        <ele>200.8</ele>
        <time>2021-02-20T12:10:15.000Z</time>
      </trkpt>
      <trkpt lat="45.85323" lon="5.40501">
        <ele>201</ele>
        <time>2021-02-20T12:10:16.000Z</time>
      </trkpt>
      <trkpt lat="45.85319" lon="5.40503">
        <ele>201</ele>
        <time>2021-02-20T12:10:17.000Z</time>
      </trkpt>
      <trkpt lat="45.85315" lon="5.40505">
        <ele>201.2</ele>
        <time>2021-02-20T12:10:18.000Z</time>
      </trkpt>
      <trkpt lat="45.85311" lon="5.40507">
        <ele>201.2</ele>
        <time>2021-02-20T12:10:19.000Z</time>
      </trkpt>
      <trkpt lat="45.85308" lon="5.4051">
        <ele>201</ele>
        <time>2021-02-20T12:10:20.000Z</time>
      </trkpt>
      <trkpt lat="45.85306" lon="5.40513">
        <ele>201.2</ele>
        <time>2021-02-20T12:10:21.000Z</time>
      </trkpt>
      <trkpt lat="45.85304" lon="5.40516">
        <ele>201.2</ele>
        <time>2021-02-20T12:10:22.000Z</time>
      </trkpt>
      <trkpt lat="45.85302" lon="5.40519">
        <ele>201.4</ele>
        <time>2021-02-20T12:10:23.000Z</time>
      </trkpt>
      <trkpt lat="45.853" lon="5.40522">
        <ele>201.4</ele>
        <time>2021-02-20T12:10:24.000Z</time>
      </trkpt>
      <trkpt lat="45.85299" lon="5.40525">
        <ele>201.6</ele>
        <time>2021-02-20T12:10:25.000Z</time>
      </trkpt>
      <trkpt lat="45.853" lon="5.40527">
        <ele>202</ele>
        <time>2021-02-20T12:10:26.000Z</time>
      </trkpt>
      <trkpt lat="45.853" lon="5.40529">
        <ele>202.6</ele>
        <time>2021-02-20T12:10:27.000Z</time>
      </trkpt>
      <trkpt lat="45.85301" lon="5.40533">
        <ele>202.6</ele>
        <time>2021-02-20T12:10:28.000Z</time>
      </trkpt>
      <trkpt lat="45.85302" lon="5.40536">
        <ele>203.2</ele>
        <time>2021-02-20T12:10:29.000Z</time>
      </trkpt>
      <trkpt lat="45.85302" lon="5.40541">
        <ele>203.6</ele>
        <time>2021-02-20T12:10:30.000Z</time>
      </trkpt>
      <trkpt lat="45.85302" lon="5.40547">
        <ele>203.8</ele>
        <time>2021-02-20T12:10:31.000Z</time>
      </trkpt>
      <trkpt lat="45.85302" lon="5.40553">
        <ele>204.2</ele>
        <time>2021-02-20T12:10:32.000Z</time>
      </trkpt>
      <trkpt lat="45.85304" lon="5.40559">
        <ele>204</ele>
        <time>2021-02-20T12:10:33.000Z</time>
      </trkpt>
      <trkpt lat="45.85306" lon="5.40565">
        <ele>204.2</ele>
        <time>2021-02-20T12:10:34.000Z</time>
      </trkpt>
      <trkpt lat="45.85308" lon="5.40571">
        <ele>204.2</ele>
        <time>2021-02-20T12:10:35.000Z</time>
      </trkpt>
      <trkpt lat="45.8531" lon="5.40577">
        <ele>204.4</ele>
        <time>2021-02-20T12:10:36.000Z</time>
      </trkpt>
      <trkpt lat="45.85313" lon="5.40583">
        <ele>204.4</ele>
        <time>2021-02-20T12:10:37.000Z</time>
      </trkpt>
      <trkpt lat="45.85315" lon="5.40589">
        <ele>204.6</ele>
        <time>2021-02-20T12:10:38.000Z</time>
      </trkpt>
      <trkpt lat="45.85318" lon="5.40595">
        <ele>204.8</ele>
        <time>2021-02-20T12:10:39.000Z</time>
      </trkpt>
      <trkpt lat="45.8532" lon="5.40601">
        <ele>204.8</ele>
        <time>2021-02-20T12:10:40.000Z</time>
      </trkpt>
      <trkpt lat="45.85322" lon="5.40607">
        <ele>204.8</ele>
        <time>2021-02-20T12:10:41.000Z</time>
      </trkpt>
      <trkpt lat="45.85325" lon="5.40614">
        <ele>205</ele>
        <time>2021-02-20T12:10:42.000Z</time>
      </trkpt>
      <trkpt lat="45.85327" lon="5.4062">
        <ele>205.2</ele>
        <time>2021-02-20T12:10:43.000Z</time>
      </trkpt>
      <trkpt lat="45.85329" lon="5.40626">
        <ele>205</ele>
        <time>2021-02-20T12:10:44.000Z</time>
      </trkpt>
      <trkpt lat="45.85332" lon="5.40633">
        <ele>205.2</ele>
        <time>2021-02-20T12:10:45.000Z</time>
      </trkpt>
      <trkpt lat="45.85334" lon="5.40639">
        <ele>205.4</ele>
        <time>2021-02-20T12:10:46.000Z</time>
      </trkpt>
      <trkpt lat="45.85337" lon="5.40645">
        <ele>205.4</ele>
        <time>2021-02-20T12:10:47.000Z</time>
      </trkpt>
      <trkpt lat="45.8534" lon="5.40651">
        <ele>205.4</ele>
        <time>2021-02-20T12:10:48.000Z</time>
      </trkpt>
      <trkpt lat="45.85358" lon="5.40686">
        <ele>205.2</ele>
        <time>2021-02-20T12:10:54.000Z</time>
      </trkpt>
      <trkpt lat="45.8536" lon="5.40692">
        <ele>205.2</ele>
        <time>2021-02-20T12:10:55.000Z</time>
      </trkpt>
      <trkpt lat="45.85363" lon="5.40697">
        <ele>205.2</ele>
        <time>2021-02-20T12:10:56.000Z</time>
      </trkpt>
      <trkpt lat="45.85366" lon="5.40702">
        <ele>205</ele>
        <time>2021-02-20T12:10:57.000Z</time>
      </trkpt>
      <trkpt lat="45.85369" lon="5.40707">
        <ele>205</ele>
        <time>2021-02-20T12:10:58.000Z</time>
      </trkpt>
      <trkpt lat="45.85371" lon="5.40712">
        <ele>205</ele>
        <time>2021-02-20T12:10:59.000Z</time>
      </trkpt>
      <trkpt lat="45.8538" lon="5.40726">
        <ele>205</ele>
        <time>2021-02-20T12:11:02.000Z</time>
      </trkpt>
      <trkpt lat="45.85383" lon="5.40731">
        <ele>205</ele>
        <time>2021-02-20T12:11:03.000Z</time>
      </trkpt>
      <trkpt lat="45.85391" lon="5.40747">
        <ele>205.2</ele>
        <time>2021-02-20T12:11:06.000Z</time>
      </trkpt>
      <trkpt lat="45.85393" lon="5.40752">
        <ele>205.4</ele>
        <time>2021-02-20T12:11:07.000Z</time>
      </trkpt>
      <trkpt lat="45.854" lon="5.40768">
        <ele>205.6</ele>
        <time>2021-02-20T12:11:10.000Z</time>
      </trkpt>
      <trkpt lat="45.85402" lon="5.40774">
        <ele>205.6</ele>
        <time>2021-02-20T12:11:11.000Z</time>
      </trkpt>
      <trkpt lat="45.85407" lon="5.40784">
        <ele>205.6</ele>
        <time>2021-02-20T12:11:13.000Z</time>
      </trkpt>
      <trkpt lat="45.85412" lon="5.40794">
        <ele>205.8</ele>
        <time>2021-02-20T12:11:15.000Z</time>
      </trkpt>
      <trkpt lat="45.85414" lon="5.40799">
        <ele>206</ele>
        <time>2021-02-20T12:11:16.000Z</time>
      </trkpt>
      <trkpt lat="45.85416" lon="5.40804">
        <ele>206.4</ele>
        <time>2021-02-20T12:11:17.000Z</time>
      </trkpt>
      <trkpt lat="45.85418" lon="5.40809">
        <ele>206.8</ele>
        <time>2021-02-20T12:11:18.000Z</time>
      </trkpt>
      <trkpt lat="45.85421" lon="5.40814">
        <ele>206.8</ele>
        <time>2021-02-20T12:11:19.000Z</time>
      </trkpt>
      <trkpt lat="45.85423" lon="5.40819">
        <ele>207</ele>
        <time>2021-02-20T12:11:20.000Z</time>
      </trkpt>
      <trkpt lat="45.85426" lon="5.40824">
        <ele>207.2</ele>
        <time>2021-02-20T12:11:21.000Z</time>
      </trkpt>
      <trkpt lat="45.85428" lon="5.4083">
        <ele>207.2</ele>
        <time>2021-02-20T12:11:22.000Z</time>
      </trkpt>
      <trkpt lat="45.8543" lon="5.40835">
        <ele>207.4</ele>
        <time>2021-02-20T12:11:23.000Z</time>
      </trkpt>
      <trkpt lat="45.85433" lon="5.4084">
        <ele>207.6</ele>
        <time>2021-02-20T12:11:24.000Z</time>
      </trkpt>
      <trkpt lat="45.85435" lon="5.40846">
        <ele>207.6</ele>
        <time>2021-02-20T12:11:25.000Z</time>
      </trkpt>
      <trkpt lat="45.85438" lon="5.40852">
        <ele>207.6</ele>
        <time>2021-02-20T12:11:26.000Z</time>
      </trkpt>
      <trkpt lat="45.85441" lon="5.40859">
        <ele>207.6</ele>
        <time>2021-02-20T12:11:27.000Z</time>
      </trkpt>
      <trkpt lat="45.85449" lon="5.40877">
        <ele>207.8</ele>
        <time>2021-02-20T12:11:30.000Z</time>
      </trkpt>
      <trkpt lat="45.85452" lon="5.40883">
        <ele>207.6</ele>
        <time>2021-02-20T12:11:31.000Z</time>
      </trkpt>
      <trkpt lat="45.85458" lon="5.40895">
        <ele>207.4</ele>
        <time>2021-02-20T12:11:33.000Z</time>
      </trkpt>
      <trkpt lat="45.85461" lon="5.40901">
        <ele>207.4</ele>
        <time>2021-02-20T12:11:34.000Z</time>
      </trkpt>
      <trkpt lat="45.85463" lon="5.40907">
        <ele>207.4</ele>
        <time>2021-02-20T12:11:35.000Z</time>
      </trkpt>
      <trkpt lat="45.85466" lon="5.40913">
        <ele>207.2</ele>
        <time>2021-02-20T12:11:36.000Z</time>
      </trkpt>
      <trkpt lat="45.85468" lon="5.40918">
        <ele>207.2</ele>
        <time>2021-02-20T12:11:37.000Z</time>
      </trkpt>
      <trkpt lat="45.85469" lon="5.40924">
        <ele>206.8</ele>
        <time>2021-02-20T12:11:38.000Z</time>
      </trkpt>
      <trkpt lat="45.8547" lon="5.4093">
        <ele>206</ele>
        <time>2021-02-20T12:11:39.000Z</time>
      </trkpt>
      <trkpt lat="45.85474" lon="5.40942">
        <ele>205.2</ele>
        <time>2021-02-20T12:11:41.000Z</time>
      </trkpt>
      <trkpt lat="45.8548" lon="5.40952">
        <ele>204.8</ele>
        <time>2021-02-20T12:11:43.000Z</time>
      </trkpt>
      <trkpt lat="45.85483" lon="5.40957">
        <ele>204.4</ele>
        <time>2021-02-20T12:11:44.000Z</time>
      </trkpt>
      <trkpt lat="45.85487" lon="5.40961">
        <ele>204.4</ele>
        <time>2021-02-20T12:11:45.000Z</time>
      </trkpt>
      <trkpt lat="45.8549" lon="5.40966">
        <ele>204.2</ele>
        <time>2021-02-20T12:11:46.000Z</time>
      </trkpt>
      <trkpt lat="45.85493" lon="5.4097">
        <ele>204.2</ele>
        <time>2021-02-20T12:11:47.000Z</time>
      </trkpt>
      <trkpt lat="45.85496" lon="5.40974">
        <ele>204.2</ele>
        <time>2021-02-20T12:11:48.000Z</time>
      </trkpt>
      <trkpt lat="45.85499" lon="5.40978">
        <ele>204.4</ele>
        <time>2021-02-20T12:11:49.000Z</time>
      </trkpt>
      <trkpt lat="45.85502" lon="5.40982">
        <ele>204.2</ele>
        <time>2021-02-20T12:11:50.000Z</time>
      </trkpt>
      <trkpt lat="45.85505" lon="5.40985">
        <ele>204.2</ele>
        <time>2021-02-20T12:11:51.000Z</time>
      </trkpt>
      <trkpt lat="45.85508" lon="5.40988">
        <ele>204.4</ele>
        <time>2021-02-20T12:11:52.000Z</time>
      </trkpt>
      <trkpt lat="45.85514" lon="5.40994">
        <ele>204.2</ele>
        <time>2021-02-20T12:11:54.000Z</time>
      </trkpt>
      <trkpt lat="45.85518" lon="5.40996">
        <ele>204.4</ele>
        <time>2021-02-20T12:11:55.000Z</time>
      </trkpt>
      <trkpt lat="45.85523" lon="5.40999">
        <ele>204.2</ele>
        <time>2021-02-20T12:11:57.000Z</time>
      </trkpt>
      <trkpt lat="45.85527" lon="5.41005">
        <ele>204.4</ele>
        <time>2021-02-20T12:11:59.000Z</time>
      </trkpt>
      <trkpt lat="45.8553" lon="5.4101">
        <ele>204.4</ele>
        <time>2021-02-20T12:12:00.000Z</time>
      </trkpt>
      <trkpt lat="45.85535" lon="5.41013">
        <ele>204.4</ele>
        <time>2021-02-20T12:12:01.000Z</time>
      </trkpt>
      <trkpt lat="45.85539" lon="5.41015">
        <ele>204.8</ele>
        <time>2021-02-20T12:12:02.000Z</time>
      </trkpt>
      <trkpt lat="45.85542" lon="5.41019">
        <ele>205</ele>
        <time>2021-02-20T12:12:03.000Z</time>
      </trkpt>
      <trkpt lat="45.85545" lon="5.41022">
        <ele>205.2</ele>
        <time>2021-02-20T12:12:04.000Z</time>
      </trkpt>
      <trkpt lat="45.85549" lon="5.41026">
        <ele>205.2</ele>
        <time>2021-02-20T12:12:05.000Z</time>
      </trkpt>
      <trkpt lat="45.85552" lon="5.41029">
        <ele>205.2</ele>
        <time>2021-02-20T12:12:06.000Z</time>
      </trkpt>
      <trkpt lat="45.85556" lon="5.41032">
        <ele>205.4</ele>
        <time>2021-02-20T12:12:07.000Z</time>
      </trkpt>
      <trkpt lat="45.85559" lon="5.41035">
        <ele>205.4</ele>
        <time>2021-02-20T12:12:08.000Z</time>
      </trkpt>
      <trkpt lat="45.85563" lon="5.41038">
        <ele>205.6</ele>
        <time>2021-02-20T12:12:09.000Z</time>
      </trkpt>
      <trkpt lat="45.85566" lon="5.41041">
        <ele>205.6</ele>
        <time>2021-02-20T12:12:10.000Z</time>
      </trkpt>
      <trkpt lat="45.85569" lon="5.41043">
        <ele>205.8</ele>
        <time>2021-02-20T12:12:11.000Z</time>
      </trkpt>
      <trkpt lat="45.85572" lon="5.41045">
        <ele>205.8</ele>
        <time>2021-02-20T12:12:12.000Z</time>
      </trkpt>
      <trkpt lat="45.85574" lon="5.41047">
        <ele>205.8</ele>
        <time>2021-02-20T12:12:13.000Z</time>
      </trkpt>
      <trkpt lat="45.85576" lon="5.41049">
        <ele>206</ele>
        <time>2021-02-20T12:12:14.000Z</time>
      </trkpt>
      <trkpt lat="45.85578" lon="5.41051">
        <ele>206</ele>
        <time>2021-02-20T12:12:15.000Z</time>
      </trkpt>
      <trkpt lat="45.85581" lon="5.41053">
        <ele>206.2</ele>
        <time>2021-02-20T12:12:16.000Z</time>
      </trkpt>
      <trkpt lat="45.85582" lon="5.41057">
        <ele>206.4</ele>
        <time>2021-02-20T12:12:17.000Z</time>
      </trkpt>
      <trkpt lat="45.85583" lon="5.41061">
        <ele>206.8</ele>
        <time>2021-02-20T12:12:18.000Z</time>
      </trkpt>
      <trkpt lat="45.85584" lon="5.41065">
        <ele>206.8</ele>
        <time>2021-02-20T12:12:19.000Z</time>
      </trkpt>
      <trkpt lat="45.85584" lon="5.41069">
        <ele>207.4</ele>
        <time>2021-02-20T12:12:20.000Z</time>
      </trkpt>
      <trkpt lat="45.85583" lon="5.41074">
        <ele>207.6</ele>
        <time>2021-02-20T12:12:21.000Z</time>
      </trkpt>
      <trkpt lat="45.85581" lon="5.41078">
        <ele>207.6</ele>
        <time>2021-02-20T12:12:22.000Z</time>
      </trkpt>
      <trkpt lat="45.85579" lon="5.41083">
        <ele>208</ele>
        <time>2021-02-20T12:12:23.000Z</time>
      </trkpt>
      <trkpt lat="45.85578" lon="5.41087">
        <ele>208</ele>
        <time>2021-02-20T12:12:24.000Z</time>
      </trkpt>
      <trkpt lat="45.85576" lon="5.41092">
        <ele>208</ele>
        <time>2021-02-20T12:12:25.000Z</time>
      </trkpt>
      <trkpt lat="45.85574" lon="5.41096">
        <ele>208.2</ele>
        <time>2021-02-20T12:12:26.000Z</time>
      </trkpt>
      <trkpt lat="45.85571" lon="5.41101">
        <ele>208.4</ele>
        <time>2021-02-20T12:12:27.000Z</time>
      </trkpt>
      <trkpt lat="45.85569" lon="5.41105">
        <ele>208.4</ele>
        <time>2021-02-20T12:12:28.000Z</time>
      </trkpt>
      <trkpt lat="45.85567" lon="5.41109">
        <ele>208.6</ele>
        <time>2021-02-20T12:12:29.000Z</time>
      </trkpt>
      <trkpt lat="45.85565" lon="5.41114">
        <ele>208.8</ele>
        <time>2021-02-20T12:12:30.000Z</time>
      </trkpt>
      <trkpt lat="45.85563" lon="5.41118">
        <ele>208.8</ele>
        <time>2021-02-20T12:12:31.000Z</time>
      </trkpt>
      <trkpt lat="45.85561" lon="5.41122">
        <ele>208.8</ele>
        <time>2021-02-20T12:12:32.000Z</time>
      </trkpt>
      <trkpt lat="45.85559" lon="5.41126">
        <ele>208.8</ele>
        <time>2021-02-20T12:12:33.000Z</time>
      </trkpt>
      <trkpt lat="45.85557" lon="5.41131">
        <ele>209</ele>
        <time>2021-02-20T12:12:34.000Z</time>
      </trkpt>
      <trkpt lat="45.85555" lon="5.41135">
        <ele>209.2</ele>
        <time>2021-02-20T12:12:35.000Z</time>
      </trkpt>
      <trkpt lat="45.85553" lon="5.41139">
        <ele>209</ele>
        <time>2021-02-20T12:12:36.000Z</time>
      </trkpt>
      <trkpt lat="45.85551" lon="5.41143">
        <ele>209.4</ele>
        <time>2021-02-20T12:12:37.000Z</time>
      </trkpt>
      <trkpt lat="45.85549" lon="5.41147">
        <ele>209.4</ele>
        <time>2021-02-20T12:12:38.000Z</time>
      </trkpt>
      <trkpt lat="45.85547" lon="5.41151">
        <ele>209.4</ele>
        <time>2021-02-20T12:12:39.000Z</time>
      </trkpt>
      <trkpt lat="45.85545" lon="5.41155">
        <ele>209.4</ele>
        <time>2021-02-20T12:12:40.000Z</time>
      </trkpt>
      <trkpt lat="45.85543" lon="5.41159">
        <ele>209.6</ele>
        <time>2021-02-20T12:12:41.000Z</time>
      </trkpt>
      <trkpt lat="45.85541" lon="5.41163">
        <ele>209.6</ele>
        <time>2021-02-20T12:12:42.000Z</time>
      </trkpt>
      <trkpt lat="45.85539" lon="5.41167">
        <ele>209.8</ele>
        <time>2021-02-20T12:12:43.000Z</time>
      </trkpt>
      <trkpt lat="45.85537" lon="5.41171">
        <ele>210</ele>
        <time>2021-02-20T12:12:44.000Z</time>
      </trkpt>
      <trkpt lat="45.85536" lon="5.41176">
        <ele>210</ele>
        <time>2021-02-20T12:12:45.000Z</time>
      </trkpt>
      <trkpt lat="45.85534" lon="5.4118">
        <ele>209.8</ele>
        <time>2021-02-20T12:12:46.000Z</time>
      </trkpt>
      <trkpt lat="45.85533" lon="5.41184">
        <ele>210.2</ele>
        <time>2021-02-20T12:12:47.000Z</time>
      </trkpt>
      <trkpt lat="45.85525" lon="5.41207">
        <ele>210.6</ele>
        <time>2021-02-20T12:12:52.000Z</time>
      </trkpt>
      <trkpt lat="45.85523" lon="5.41212">
        <ele>210.6</ele>
        <time>2021-02-20T12:12:53.000Z</time>
      </trkpt>
      <trkpt lat="45.85522" lon="5.41216">
        <ele>210.6</ele>
        <time>2021-02-20T12:12:54.000Z</time>
      </trkpt>
      <trkpt lat="45.8552" lon="5.41221">
        <ele>210.8</ele>
        <time>2021-02-20T12:12:55.000Z</time>
      </trkpt>
      <trkpt lat="45.85516" lon="5.4123">
        <ele>211</ele>
        <time>2021-02-20T12:12:57.000Z</time>
      </trkpt>
      <trkpt lat="45.85513" lon="5.4124">
        <ele>211.4</ele>
        <time>2021-02-20T12:12:59.000Z</time>
      </trkpt>
      <trkpt lat="45.85504" lon="5.41279">
        <ele>211.8</ele>
        <time>2021-02-20T12:13:07.000Z</time>
      </trkpt>
      <trkpt lat="45.85503" lon="5.4129">
        <ele>211.8</ele>
        <time>2021-02-20T12:13:09.000Z</time>
      </trkpt>
      <trkpt lat="45.85502" lon="5.41295">
        <ele>212</ele>
        <time>2021-02-20T12:13:10.000Z</time>
      </trkpt>
      <trkpt lat="45.85502" lon="5.413">
        <ele>212</ele>
        <time>2021-02-20T12:13:11.000Z</time>
      </trkpt>
      <trkpt lat="45.85501" lon="5.41305">
        <ele>212</ele>
        <time>2021-02-20T12:13:12.000Z</time>
      </trkpt>
      <trkpt lat="45.85501" lon="5.41309">
        <ele>212</ele>
        <time>2021-02-20T12:13:13.000Z</time>
      </trkpt>
      <trkpt lat="45.85501" lon="5.41313">
        <ele>212</ele>
        <time>2021-02-20T12:13:14.000Z</time>
      </trkpt>
      <trkpt lat="45.85501" lon="5.41317">
        <ele>212.2</ele>
        <time>2021-02-20T12:13:15.000Z</time>
      </trkpt>
      <trkpt lat="45.85501" lon="5.41321">
        <ele>212.2</ele>
        <time>2021-02-20T12:13:16.000Z</time>
      </trkpt>
      <trkpt lat="45.85502" lon="5.41324">
        <ele>212.2</ele>
        <time>2021-02-20T12:13:17.000Z</time>
      </trkpt>
      <trkpt lat="45.85502" lon="5.41328">
        <ele>212.2</ele>
        <time>2021-02-20T12:13:18.000Z</time>
      </trkpt>
      <trkpt lat="45.85503" lon="5.41331">
        <ele>212.4</ele>
        <time>2021-02-20T12:13:19.000Z</time>
      </trkpt>
      <trkpt lat="45.85504" lon="5.41334">
        <ele>212.4</ele>
        <time>2021-02-20T12:13:20.000Z</time>
      </trkpt>
      <trkpt lat="45.85505" lon="5.41336">
        <ele>212.4</ele>
        <time>2021-02-20T12:13:21.000Z</time>
      </trkpt>
      <trkpt lat="45.85506" lon="5.41338">
        <ele>212.8</ele>
        <time>2021-02-20T12:13:22.000Z</time>
      </trkpt>
      <trkpt lat="45.85508" lon="5.41341">
        <ele>212.8</ele>
        <time>2021-02-20T12:13:23.000Z</time>
      </trkpt>
      <trkpt lat="45.85509" lon="5.41343">
        <ele>212.8</ele>
        <time>2021-02-20T12:13:24.000Z</time>
      </trkpt>
      <trkpt lat="45.8551" lon="5.41345">
        <ele>213</ele>
        <time>2021-02-20T12:13:25.000Z</time>
      </trkpt>
      <trkpt lat="45.85512" lon="5.41347">
        <ele>213.4</ele>
        <time>2021-02-20T12:13:26.000Z</time>
      </trkpt>
      <trkpt lat="45.85513" lon="5.41349">
        <ele>213.6</ele>
        <time>2021-02-20T12:13:27.000Z</time>
      </trkpt>
      <trkpt lat="45.85514" lon="5.41351">
        <ele>214</ele>
        <time>2021-02-20T12:13:28.000Z</time>
      </trkpt>
      <trkpt lat="45.85516" lon="5.41353">
        <ele>214.4</ele>
        <time>2021-02-20T12:13:29.000Z</time>
      </trkpt>
      <trkpt lat="45.85517" lon="5.41355">
        <ele>215</ele>
        <time>2021-02-20T12:13:30.000Z</time>
      </trkpt>
      <trkpt lat="45.85519" lon="5.41357">
        <ele>215.2</ele>
        <time>2021-02-20T12:13:31.000Z</time>
      </trkpt>
      <trkpt lat="45.8552" lon="5.41358">
        <ele>215.6</ele>
        <time>2021-02-20T12:13:32.000Z</time>
      </trkpt>
      <trkpt lat="45.85521" lon="5.4136">
        <ele>216</ele>
        <time>2021-02-20T12:13:33.000Z</time>
      </trkpt>
      <trkpt lat="45.85523" lon="5.41361">
        <ele>216.4</ele>
        <time>2021-02-20T12:13:34.000Z</time>
      </trkpt>
      <trkpt lat="45.85524" lon="5.41363">
        <ele>216.6</ele>
        <time>2021-02-20T12:13:35.000Z</time>
      </trkpt>
      <trkpt lat="45.85526" lon="5.41365">
        <ele>217</ele>
        <time>2021-02-20T12:13:36.000Z</time>
      </trkpt>
      <trkpt lat="45.85527" lon="5.41366">
        <ele>217.2</ele>
        <time>2021-02-20T12:13:37.000Z</time>
      </trkpt>
      <trkpt lat="45.85528" lon="5.41368">
        <ele>217.6</ele>
        <time>2021-02-20T12:13:38.000Z</time>
      </trkpt>
      <trkpt lat="45.8553" lon="5.4137">
        <ele>217.8</ele>
        <time>2021-02-20T12:13:39.000Z</time>
      </trkpt>
      <trkpt lat="45.85531" lon="5.41371">
        <ele>218.2</ele>
        <time>2021-02-20T12:13:40.000Z</time>
      </trkpt>
      <trkpt lat="45.85532" lon="5.41373">
        <ele>218.4</ele>
        <time>2021-02-20T12:13:41.000Z</time>
      </trkpt>
      <trkpt lat="45.85533" lon="5.41374">
        <ele>218.8</ele>
        <time>2021-02-20T12:13:42.000Z</time>
      </trkpt>
      <trkpt lat="45.85534" lon="5.41376">
        <ele>219</ele>
        <time>2021-02-20T12:13:43.000Z</time>
      </trkpt>
      <trkpt lat="45.85536" lon="5.41378">
        <ele>219.4</ele>
        <time>2021-02-20T12:13:44.000Z</time>
      </trkpt>
      <trkpt lat="45.85537" lon="5.41379">
        <ele>219.6</ele>
        <time>2021-02-20T12:13:45.000Z</time>
      </trkpt>
      <trkpt lat="45.85538" lon="5.41381">
        <ele>219.6</ele>
        <time>2021-02-20T12:13:46.000Z</time>
      </trkpt>
      <trkpt lat="45.8554" lon="5.41382">
        <ele>219.6</ele>
        <time>2021-02-20T12:13:47.000Z</time>
      </trkpt>
      <trkpt lat="45.85541" lon="5.41384">
        <ele>220</ele>
        <time>2021-02-20T12:13:48.000Z</time>
      </trkpt>
      <trkpt lat="45.85543" lon="5.41385">
        <ele>220.4</ele>
        <time>2021-02-20T12:13:49.000Z</time>
      </trkpt>
      <trkpt lat="45.85544" lon="5.41386">
        <ele>220.6</ele>
        <time>2021-02-20T12:13:50.000Z</time>
      </trkpt>
      <trkpt lat="45.85546" lon="5.41388">
        <ele>220.6</ele>
        <time>2021-02-20T12:13:51.000Z</time>
      </trkpt>
      <trkpt lat="45.85547" lon="5.41389">
        <ele>221.2</ele>
        <time>2021-02-20T12:13:52.000Z</time>
      </trkpt>
      <trkpt lat="45.85549" lon="5.4139">
        <ele>221.4</ele>
        <time>2021-02-20T12:13:53.000Z</time>
      </trkpt>
      <trkpt lat="45.8555" lon="5.41391">
        <ele>221.8</ele>
        <time>2021-02-20T12:13:54.000Z</time>
      </trkpt>
      <trkpt lat="45.85551" lon="5.41392">
        <ele>222</ele>
        <time>2021-02-20T12:13:55.000Z</time>
      </trkpt>
      <trkpt lat="45.85553" lon="5.41393">
        <ele>222.4</ele>
        <time>2021-02-20T12:13:56.000Z</time>
      </trkpt>
      <trkpt lat="45.85555" lon="5.41394">
        <ele>222.6</ele>
        <time>2021-02-20T12:13:57.000Z</time>
      </trkpt>
      <trkpt lat="45.85556" lon="5.41395">
        <ele>223</ele>
        <time>2021-02-20T12:13:58.000Z</time>
      </trkpt>
      <trkpt lat="45.85558" lon="5.41396">
        <ele>223.4</ele>
        <time>2021-02-20T12:13:59.000Z</time>
      </trkpt>
      <trkpt lat="45.85559" lon="5.41397">
        <ele>224</ele>
        <time>2021-02-20T12:14:00.000Z</time>
      </trkpt>
      <trkpt lat="45.85561" lon="5.41397">
        <ele>224.4</ele>
        <time>2021-02-20T12:14:01.000Z</time>
      </trkpt>
      <trkpt lat="45.85562" lon="5.41398">
        <ele>224.8</ele>
        <time>2021-02-20T12:14:02.000Z</time>
      </trkpt>
      <trkpt lat="45.85564" lon="5.41399">
        <ele>225.2</ele>
        <time>2021-02-20T12:14:03.000Z</time>
      </trkpt>
      <trkpt lat="45.85565" lon="5.414">
        <ele>225.4</ele>
        <time>2021-02-20T12:14:04.000Z</time>
      </trkpt>
      <trkpt lat="45.85566" lon="5.41401">
        <ele>225.8</ele>
        <time>2021-02-20T12:14:05.000Z</time>
      </trkpt>
      <trkpt lat="45.85568" lon="5.41401">
        <ele>225.8</ele>
        <time>2021-02-20T12:14:06.000Z</time>
      </trkpt>
      <trkpt lat="45.8557" lon="5.41402">
        <ele>226.2</ele>
        <time>2021-02-20T12:14:07.000Z</time>
      </trkpt>
      <trkpt lat="45.85571" lon="5.41402">
        <ele>226.6</ele>
        <time>2021-02-20T12:14:08.000Z</time>
      </trkpt>
      <trkpt lat="45.85573" lon="5.41403">
        <ele>227</ele>
        <time>2021-02-20T12:14:09.000Z</time>
      </trkpt>
      <trkpt lat="45.85574" lon="5.41403">
        <ele>227.2</ele>
        <time>2021-02-20T12:14:10.000Z</time>
      </trkpt>
      <trkpt lat="45.85576" lon="5.41403">
        <ele>227.2</ele>
        <time>2021-02-20T12:14:11.000Z</time>
      </trkpt>
      <trkpt lat="45.85578" lon="5.41403">
        <ele>227.8</ele>
        <time>2021-02-20T12:14:12.000Z</time>
      </trkpt>
      <trkpt lat="45.85579" lon="5.41403">
        <ele>228</ele>
        <time>2021-02-20T12:14:13.000Z</time>
      </trkpt>
      <trkpt lat="45.85581" lon="5.41403">
        <ele>228.4</ele>
        <time>2021-02-20T12:14:14.000Z</time>
      </trkpt>
      <trkpt lat="45.85582" lon="5.41403">
        <ele>228.8</ele>
        <time>2021-02-20T12:14:15.000Z</time>
      </trkpt>
      <trkpt lat="45.85583" lon="5.41403">
        <ele>229.2</ele>
        <time>2021-02-20T12:14:16.000Z</time>
      </trkpt>
      <trkpt lat="45.85584" lon="5.41403">
        <ele>229.6</ele>
        <time>2021-02-20T12:14:17.000Z</time>
      </trkpt>
      <trkpt lat="45.85586" lon="5.41403">
        <ele>230</ele>
        <time>2021-02-20T12:14:18.000Z</time>
      </trkpt>
      <trkpt lat="45.85587" lon="5.41403">
        <ele>230.4</ele>
        <time>2021-02-20T12:14:19.000Z</time>
      </trkpt>
      <trkpt lat="45.85589" lon="5.41403">
        <ele>231</ele>
        <time>2021-02-20T12:14:20.000Z</time>
      </trkpt>
      <trkpt lat="45.85591" lon="5.41402">
        <ele>231.2</ele>
        <time>2021-02-20T12:14:21.000Z</time>
      </trkpt>
      <trkpt lat="45.85592" lon="5.41401">
        <ele>231.6</ele>
        <time>2021-02-20T12:14:22.000Z</time>
      </trkpt>
      <trkpt lat="45.85593" lon="5.414">
        <ele>232</ele>
        <time>2021-02-20T12:14:23.000Z</time>
      </trkpt>
      <trkpt lat="45.85595" lon="5.414">
        <ele>232.2</ele>
        <time>2021-02-20T12:14:24.000Z</time>
      </trkpt>
      <trkpt lat="45.85597" lon="5.414">
        <ele>232.4</ele>
        <time>2021-02-20T12:14:25.000Z</time>
      </trkpt>
      <trkpt lat="45.85598" lon="5.41399">
        <ele>232.4</ele>
        <time>2021-02-20T12:14:26.000Z</time>
      </trkpt>
      <trkpt lat="45.856" lon="5.41399">
        <ele>232.6</ele>
        <time>2021-02-20T12:14:27.000Z</time>
      </trkpt>
      <trkpt lat="45.85602" lon="5.41398">
        <ele>232.8</ele>
        <time>2021-02-20T12:14:28.000Z</time>
      </trkpt>
      <trkpt lat="45.85604" lon="5.41398">
        <ele>233.2</ele>
        <time>2021-02-20T12:14:29.000Z</time>
      </trkpt>
      <trkpt lat="45.85606" lon="5.41397">
        <ele>233.4</ele>
        <time>2021-02-20T12:14:30.000Z</time>
      </trkpt>
      <trkpt lat="45.85608" lon="5.41397">
        <ele>233.6</ele>
        <time>2021-02-20T12:14:31.000Z</time>
      </trkpt>
      <trkpt lat="45.85609" lon="5.41397">
        <ele>234</ele>
        <time>2021-02-20T12:14:32.000Z</time>
      </trkpt>
      <trkpt lat="45.8561" lon="5.41396">
        <ele>234.2</ele>
        <time>2021-02-20T12:14:33.000Z</time>
      </trkpt>
      <trkpt lat="45.85612" lon="5.41395">
        <ele>234.4</ele>
        <time>2021-02-20T12:14:34.000Z</time>
      </trkpt>
      <trkpt lat="45.85613" lon="5.41394">
        <ele>234.6</ele>
        <time>2021-02-20T12:14:35.000Z</time>
      </trkpt>
      <trkpt lat="45.85614" lon="5.41394">
        <ele>235</ele>
        <time>2021-02-20T12:14:36.000Z</time>
      </trkpt>
      <trkpt lat="45.85616" lon="5.41395">
        <ele>235</ele>
        <time>2021-02-20T12:14:37.000Z</time>
      </trkpt>
      <trkpt lat="45.85617" lon="5.41395">
        <ele>235.4</ele>
        <time>2021-02-20T12:14:38.000Z</time>
      </trkpt>
      <trkpt lat="45.85618" lon="5.41394">
        <ele>235.6</ele>
        <time>2021-02-20T12:14:39.000Z</time>
      </trkpt>
      <trkpt lat="45.8562" lon="5.41393">
        <ele>236</ele>
        <time>2021-02-20T12:14:40.000Z</time>
      </trkpt>
      <trkpt lat="45.85621" lon="5.41392">
        <ele>236</ele>
        <time>2021-02-20T12:14:41.000Z</time>
      </trkpt>
      <trkpt lat="45.85623" lon="5.41391">
        <ele>236.2</ele>
        <time>2021-02-20T12:14:42.000Z</time>
      </trkpt>
      <trkpt lat="45.85624" lon="5.4139">
        <ele>236.4</ele>
        <time>2021-02-20T12:14:43.000Z</time>
      </trkpt>
      <trkpt lat="45.85626" lon="5.41389">
        <ele>236.6</ele>
        <time>2021-02-20T12:14:44.000Z</time>
      </trkpt>
      <trkpt lat="45.85627" lon="5.41388">
        <ele>236.6</ele>
        <time>2021-02-20T12:14:45.000Z</time>
      </trkpt>
      <trkpt lat="45.85629" lon="5.41387">
        <ele>237</ele>
        <time>2021-02-20T12:14:46.000Z</time>
      </trkpt>
      <trkpt lat="45.8563" lon="5.41387">
        <ele>237.2</ele>
        <time>2021-02-20T12:14:47.000Z</time>
      </trkpt>
      <trkpt lat="45.85632" lon="5.41386">
        <ele>237.4</ele>
        <time>2021-02-20T12:14:48.000Z</time>
      </trkpt>
      <trkpt lat="45.85634" lon="5.41385">
        <ele>237.6</ele>
        <time>2021-02-20T12:14:49.000Z</time>
      </trkpt>
      <trkpt lat="45.85635" lon="5.41384">
        <ele>237.6</ele>
        <time>2021-02-20T12:14:50.000Z</time>
      </trkpt>
      <trkpt lat="45.85637" lon="5.41383">
        <ele>237.8</ele>
        <time>2021-02-20T12:14:51.000Z</time>
      </trkpt>
      <trkpt lat="45.85638" lon="5.41382">
        <ele>238</ele>
        <time>2021-02-20T12:14:52.000Z</time>
      </trkpt>
      <trkpt lat="45.8564" lon="5.41381">
        <ele>238.2</ele>
        <time>2021-02-20T12:14:53.000Z</time>
      </trkpt>
      <trkpt lat="45.85641" lon="5.41379">
        <ele>238.2</ele>
        <time>2021-02-20T12:14:54.000Z</time>
      </trkpt>
      <trkpt lat="45.85642" lon="5.41379">
        <ele>238.4</ele>
        <time>2021-02-20T12:14:55.000Z</time>
      </trkpt>
      <trkpt lat="45.85644" lon="5.41377">
        <ele>238.6</ele>
        <time>2021-02-20T12:14:56.000Z</time>
      </trkpt>
      <trkpt lat="45.85645" lon="5.41376">
        <ele>238.8</ele>
        <time>2021-02-20T12:14:57.000Z</time>
      </trkpt>
      <trkpt lat="45.85646" lon="5.41374">
        <ele>239</ele>
        <time>2021-02-20T12:14:58.000Z</time>
      </trkpt>
      <trkpt lat="45.85647" lon="5.41373">
        <ele>239.4</ele>
        <time>2021-02-20T12:14:59.000Z</time>
      </trkpt>
      <trkpt lat="45.85649" lon="5.41371">
        <ele>239.6</ele>
        <time>2021-02-20T12:15:00.000Z</time>
      </trkpt>
      <trkpt lat="45.85651" lon="5.41369">
        <ele>239.6</ele>
        <time>2021-02-20T12:15:01.000Z</time>
      </trkpt>
      <trkpt lat="45.85652" lon="5.41367">
        <ele>240</ele>
        <time>2021-02-20T12:15:02.000Z</time>
      </trkpt>
      <trkpt lat="45.85653" lon="5.41365">
        <ele>240.2</ele>
        <time>2021-02-20T12:15:03.000Z</time>
      </trkpt>
      <trkpt lat="45.85655" lon="5.41364">
        <ele>240.2</ele>
        <time>2021-02-20T12:15:04.000Z</time>
      </trkpt>
      <trkpt lat="45.85656" lon="5.41362">
        <ele>240.6</ele>
        <time>2021-02-20T12:15:05.000Z</time>
      </trkpt>
      <trkpt lat="45.85657" lon="5.41361">
        <ele>241</ele>
        <time>2021-02-20T12:15:06.000Z</time>
      </trkpt>
      <trkpt lat="45.85659" lon="5.41359">
        <ele>241.2</ele>
        <time>2021-02-20T12:15:07.000Z</time>
      </trkpt>
      <trkpt lat="45.8566" lon="5.41357">
        <ele>241.6</ele>
        <time>2021-02-20T12:15:08.000Z</time>
      </trkpt>
      <trkpt lat="45.85661" lon="5.41356">
        <ele>241.8</ele>
        <time>2021-02-20T12:15:09.000Z</time>
      </trkpt>
      <trkpt lat="45.85662" lon="5.41354">
        <ele>242.2</ele>
        <time>2021-02-20T12:15:10.000Z</time>
      </trkpt>
      <trkpt lat="45.85663" lon="5.41353">
        <ele>242.6</ele>
        <time>2021-02-20T12:15:11.000Z</time>
      </trkpt>
      <trkpt lat="45.85665" lon="5.41351">
        <ele>242.8</ele>
        <time>2021-02-20T12:15:12.000Z</time>
      </trkpt>
      <trkpt lat="45.85666" lon="5.41349">
        <ele>242.8</ele>
        <time>2021-02-20T12:15:13.000Z</time>
      </trkpt>
      <trkpt lat="45.85667" lon="5.41348">
        <ele>243</ele>
        <time>2021-02-20T12:15:14.000Z</time>
      </trkpt>
      <trkpt lat="45.85669" lon="5.41347">
        <ele>243.2</ele>
        <time>2021-02-20T12:15:15.000Z</time>
      </trkpt>
      <trkpt lat="45.85671" lon="5.41345">
        <ele>243.4</ele>
        <time>2021-02-20T12:15:16.000Z</time>
      </trkpt>
      <trkpt lat="45.85672" lon="5.41344">
        <ele>243.6</ele>
        <time>2021-02-20T12:15:17.000Z</time>
      </trkpt>
      <trkpt lat="45.85674" lon="5.41344">
        <ele>244</ele>
        <time>2021-02-20T12:15:18.000Z</time>
      </trkpt>
      <trkpt lat="45.85675" lon="5.41343">
        <ele>244.4</ele>
        <time>2021-02-20T12:15:19.000Z</time>
      </trkpt>
      <trkpt lat="45.85677" lon="5.41342">
        <ele>244.8</ele>
        <time>2021-02-20T12:15:20.000Z</time>
      </trkpt>
      <trkpt lat="45.85678" lon="5.41341">
        <ele>245.2</ele>
        <time>2021-02-20T12:15:21.000Z</time>
      </trkpt>
      <trkpt lat="45.85679" lon="5.4134">
        <ele>245.4</ele>
        <time>2021-02-20T12:15:22.000Z</time>
      </trkpt>
      <trkpt lat="45.85681" lon="5.4134">
        <ele>245.8</ele>
        <time>2021-02-20T12:15:23.000Z</time>
      </trkpt>
      <trkpt lat="45.85682" lon="5.41339">
        <ele>246.2</ele>
        <time>2021-02-20T12:15:24.000Z</time>
      </trkpt>
      <trkpt lat="45.85683" lon="5.41338">
        <ele>246.6</ele>
        <time>2021-02-20T12:15:25.000Z</time>
      </trkpt>
      <trkpt lat="45.85685" lon="5.41337">
        <ele>246.6</ele>
        <time>2021-02-20T12:15:26.000Z</time>
      </trkpt>
      <trkpt lat="45.85686" lon="5.41336">
        <ele>246.8</ele>
        <time>2021-02-20T12:15:27.000Z</time>
      </trkpt>
      <trkpt lat="45.85688" lon="5.41336">
        <ele>247</ele>
        <time>2021-02-20T12:15:28.000Z</time>
      </trkpt>
      <trkpt lat="45.85689" lon="5.41335">
        <ele>247</ele>
        <time>2021-02-20T12:15:29.000Z</time>
      </trkpt>
      <trkpt lat="45.85691" lon="5.41335">
        <ele>247.4</ele>
        <time>2021-02-20T12:15:30.000Z</time>
      </trkpt>
      <trkpt lat="45.85692" lon="5.41335">
        <ele>247.8</ele>
        <time>2021-02-20T12:15:31.000Z</time>
      </trkpt>
      <trkpt lat="45.85694" lon="5.41335">
        <ele>248</ele>
        <time>2021-02-20T12:15:32.000Z</time>
      </trkpt>
      <trkpt lat="45.85695" lon="5.41337">
        <ele>248.2</ele>
        <time>2021-02-20T12:15:33.000Z</time>
      </trkpt>
      <trkpt lat="45.85696" lon="5.41338">
        <ele>248.6</ele>
        <time>2021-02-20T12:15:34.000Z</time>
      </trkpt>
      <trkpt lat="45.85696" lon="5.4134">
        <ele>249</ele>
        <time>2021-02-20T12:15:35.000Z</time>
      </trkpt>
      <trkpt lat="45.85695" lon="5.41343">
        <ele>249.2</ele>
        <time>2021-02-20T12:15:36.000Z</time>
      </trkpt>
      <trkpt lat="45.85694" lon="5.41345">
        <ele>249.6</ele>
        <time>2021-02-20T12:15:37.000Z</time>
      </trkpt>
      <trkpt lat="45.85692" lon="5.41347">
        <ele>250.2</ele>
        <time>2021-02-20T12:15:38.000Z</time>
      </trkpt>
      <trkpt lat="45.85691" lon="5.41349">
        <ele>250.6</ele>
        <time>2021-02-20T12:15:39.000Z</time>
      </trkpt>
      <trkpt lat="45.85689" lon="5.41351">
        <ele>250.8</ele>
        <time>2021-02-20T12:15:40.000Z</time>
      </trkpt>
      <trkpt lat="45.85687" lon="5.41354">
        <ele>251</ele>
        <time>2021-02-20T12:15:41.000Z</time>
      </trkpt>
      <trkpt lat="45.85686" lon="5.41356">
        <ele>251.2</ele>
        <time>2021-02-20T12:15:42.000Z</time>
      </trkpt>
      <trkpt lat="45.85684" lon="5.41358">
        <ele>251.4</ele>
        <time>2021-02-20T12:15:43.000Z</time>
      </trkpt>
      <trkpt lat="45.85683" lon="5.41359">
        <ele>251.6</ele>
        <time>2021-02-20T12:15:44.000Z</time>
      </trkpt>
      <trkpt lat="45.85682" lon="5.41361">
        <ele>251.6</ele>
        <time>2021-02-20T12:15:45.000Z</time>
      </trkpt>
      <trkpt lat="45.8568" lon="5.41363">
        <ele>251.8</ele>
        <time>2021-02-20T12:15:46.000Z</time>
      </trkpt>
      <trkpt lat="45.85678" lon="5.41365">
        <ele>251.8</ele>
        <time>2021-02-20T12:15:47.000Z</time>
      </trkpt>
      <trkpt lat="45.85677" lon="5.41367">
        <ele>252.2</ele>
        <time>2021-02-20T12:15:48.000Z</time>
      </trkpt>
      <trkpt lat="45.85676" lon="5.41369">
        <ele>252.4</ele>
        <time>2021-02-20T12:15:49.000Z</time>
      </trkpt>
      <trkpt lat="45.85675" lon="5.41372">
        <ele>252.4</ele>
        <time>2021-02-20T12:15:50.000Z</time>
      </trkpt>
      <trkpt lat="45.85674" lon="5.41374">
        <ele>252.6</ele>
        <time>2021-02-20T12:15:51.000Z</time>
      </trkpt>
      <trkpt lat="45.85673" lon="5.41376">
        <ele>252.6</ele>
        <time>2021-02-20T12:15:52.000Z</time>
      </trkpt>
      <trkpt lat="45.85672" lon="5.41377">
        <ele>252.6</ele>
        <time>2021-02-20T12:15:53.000Z</time>
      </trkpt>
      <trkpt lat="45.8567" lon="5.4138">
        <ele>252.6</ele>
        <time>2021-02-20T12:15:54.000Z</time>
      </trkpt>
      <trkpt lat="45.85669" lon="5.41382">
        <ele>252.8</ele>
        <time>2021-02-20T12:15:55.000Z</time>
      </trkpt>
      <trkpt lat="45.85668" lon="5.41384">
        <ele>252.8</ele>
        <time>2021-02-20T12:15:56.000Z</time>
      </trkpt>
      <trkpt lat="45.85667" lon="5.41386">
        <ele>253</ele>
        <time>2021-02-20T12:15:57.000Z</time>
      </trkpt>
      <trkpt lat="45.85665" lon="5.41388">
        <ele>253</ele>
        <time>2021-02-20T12:15:58.000Z</time>
      </trkpt>
      <trkpt lat="45.85663" lon="5.41391">
        <ele>253.2</ele>
        <time>2021-02-20T12:15:59.000Z</time>
      </trkpt>
      <trkpt lat="45.85662" lon="5.41393">
        <ele>253.2</ele>
        <time>2021-02-20T12:16:00.000Z</time>
      </trkpt>
      <trkpt lat="45.85653" lon="5.41406">
        <ele>253.2</ele>
        <time>2021-02-20T12:16:05.000Z</time>
      </trkpt>
      <trkpt lat="45.85646" lon="5.41418">
        <ele>253.2</ele>
        <time>2021-02-20T12:16:09.000Z</time>
      </trkpt>
      <trkpt lat="45.85638" lon="5.41431">
        <ele>253.4</ele>
        <time>2021-02-20T12:16:13.000Z</time>
      </trkpt>
      <trkpt lat="45.85633" lon="5.41442">
        <ele>253.8</ele>
        <time>2021-02-20T12:16:16.000Z</time>
      </trkpt>
      <trkpt lat="45.85631" lon="5.41445">
        <ele>254</ele>
        <time>2021-02-20T12:16:17.000Z</time>
      </trkpt>
      <trkpt lat="45.85629" lon="5.41449">
        <ele>254.4</ele>
        <time>2021-02-20T12:16:18.000Z</time>
      </trkpt>
      <trkpt lat="45.85627" lon="5.41452">
        <ele>254.4</ele>
        <time>2021-02-20T12:16:19.000Z</time>
      </trkpt>
      <trkpt lat="45.85625" lon="5.41456">
        <ele>254.8</ele>
        <time>2021-02-20T12:16:20.000Z</time>
      </trkpt>
      <trkpt lat="45.85623" lon="5.41459">
        <ele>255</ele>
        <time>2021-02-20T12:16:21.000Z</time>
      </trkpt>
      <trkpt lat="45.85621" lon="5.41462">
        <ele>255</ele>
        <time>2021-02-20T12:16:22.000Z</time>
      </trkpt>
      <trkpt lat="45.8562" lon="5.41465">
        <ele>255.2</ele>
        <time>2021-02-20T12:16:23.000Z</time>
      </trkpt>
      <trkpt lat="45.85619" lon="5.41467">
        <ele>255.2</ele>
        <time>2021-02-20T12:16:24.000Z</time>
      </trkpt>
      <trkpt lat="45.85618" lon="5.41469">
        <ele>255.4</ele>
        <time>2021-02-20T12:16:25.000Z</time>
      </trkpt>
      <trkpt lat="45.85616" lon="5.41472">
        <ele>255.6</ele>
        <time>2021-02-20T12:16:26.000Z</time>
      </trkpt>
      <trkpt lat="45.85615" lon="5.41474">
        <ele>256</ele>
        <time>2021-02-20T12:16:27.000Z</time>
      </trkpt>
      <trkpt lat="45.85614" lon="5.41476">
        <ele>256.2</ele>
        <time>2021-02-20T12:16:28.000Z</time>
      </trkpt>
      <trkpt lat="45.85613" lon="5.41479">
        <ele>256.6</ele>
        <time>2021-02-20T12:16:29.000Z</time>
      </trkpt>
      <trkpt lat="45.85611" lon="5.41482">
        <ele>256.8</ele>
        <time>2021-02-20T12:16:30.000Z</time>
      </trkpt>
      <trkpt lat="45.8561" lon="5.41485">
        <ele>257</ele>
        <time>2021-02-20T12:16:31.000Z</time>
      </trkpt>
      <trkpt lat="45.85609" lon="5.41487">
        <ele>257</ele>
        <time>2021-02-20T12:16:32.000Z</time>
      </trkpt>
      <trkpt lat="45.85608" lon="5.4149">
        <ele>257.2</ele>
        <time>2021-02-20T12:16:33.000Z</time>
      </trkpt>
      <trkpt lat="45.85606" lon="5.41493">
        <ele>257.4</ele>
        <time>2021-02-20T12:16:34.000Z</time>
      </trkpt>
      <trkpt lat="45.85606" lon="5.41495">
        <ele>257.6</ele>
        <time>2021-02-20T12:16:35.000Z</time>
      </trkpt>
      <trkpt lat="45.85605" lon="5.41498">
        <ele>257.8</ele>
        <time>2021-02-20T12:16:36.000Z</time>
      </trkpt>
      <trkpt lat="45.85605" lon="5.41501">
        <ele>258.2</ele>
        <time>2021-02-20T12:16:37.000Z</time>
      </trkpt>
      <trkpt lat="45.85604" lon="5.41504">
        <ele>258.6</ele>
        <time>2021-02-20T12:16:38.000Z</time>
      </trkpt>
      <trkpt lat="45.85604" lon="5.41507">
        <ele>258.8</ele>
        <time>2021-02-20T12:16:39.000Z</time>
      </trkpt>
      <trkpt lat="45.85604" lon="5.4151">
        <ele>258.8</ele>
        <time>2021-02-20T12:16:40.000Z</time>
      </trkpt>
      <trkpt lat="45.85604" lon="5.41512">
        <ele>259</ele>
        <time>2021-02-20T12:16:41.000Z</time>
      </trkpt>
      <trkpt lat="45.85605" lon="5.41515">
        <ele>259.2</ele>
        <time>2021-02-20T12:16:42.000Z</time>
      </trkpt>
      <trkpt lat="45.85605" lon="5.41518">
        <ele>259.6</ele>
        <time>2021-02-20T12:16:43.000Z</time>
      </trkpt>
      <trkpt lat="45.85606" lon="5.41521">
        <ele>260</ele>
        <time>2021-02-20T12:16:44.000Z</time>
      </trkpt>
      <trkpt lat="45.85606" lon="5.41523">
        <ele>260</ele>
        <time>2021-02-20T12:16:45.000Z</time>
      </trkpt>
      <trkpt lat="45.85608" lon="5.41525">
        <ele>260.4</ele>
        <time>2021-02-20T12:16:46.000Z</time>
      </trkpt>
      <trkpt lat="45.85609" lon="5.41527">
        <ele>260.6</ele>
        <time>2021-02-20T12:16:47.000Z</time>
      </trkpt>
      <trkpt lat="45.8561" lon="5.4153">
        <ele>261</ele>
        <time>2021-02-20T12:16:48.000Z</time>
      </trkpt>
      <trkpt lat="45.85611" lon="5.41532">
        <ele>261.4</ele>
        <time>2021-02-20T12:16:49.000Z</time>
      </trkpt>
      <trkpt lat="45.85612" lon="5.41535">
        <ele>261.6</ele>
        <time>2021-02-20T12:16:50.000Z</time>
      </trkpt>
      <trkpt lat="45.85612" lon="5.41538">
        <ele>261.8</ele>
        <time>2021-02-20T12:16:51.000Z</time>
      </trkpt>
      <trkpt lat="45.85613" lon="5.41541">
        <ele>262.4</ele>
        <time>2021-02-20T12:16:52.000Z</time>
      </trkpt>
      <trkpt lat="45.85614" lon="5.41543">
        <ele>262.6</ele>
        <time>2021-02-20T12:16:53.000Z</time>
      </trkpt>
      <trkpt lat="45.85615" lon="5.41545">
        <ele>262.8</ele>
        <time>2021-02-20T12:16:54.000Z</time>
      </trkpt>
      <trkpt lat="45.85615" lon="5.41548">
        <ele>263.2</ele>
        <time>2021-02-20T12:16:55.000Z</time>
      </trkpt>
      <trkpt lat="45.85616" lon="5.41551">
        <ele>263.4</ele>
        <time>2021-02-20T12:16:56.000Z</time>
      </trkpt>
      <trkpt lat="45.85617" lon="5.41553">
        <ele>263.6</ele>
        <time>2021-02-20T12:16:57.000Z</time>
      </trkpt>
      <trkpt lat="45.85617" lon="5.41555">
        <ele>263.8</ele>
        <time>2021-02-20T12:16:58.000Z</time>
      </trkpt>
      <trkpt lat="45.85618" lon="5.41558">
        <ele>264.4</ele>
        <time>2021-02-20T12:16:59.000Z</time>
      </trkpt>
      <trkpt lat="45.85619" lon="5.4156">
        <ele>265</ele>
        <time>2021-02-20T12:17:00.000Z</time>
      </trkpt>
      <trkpt lat="45.85621" lon="5.41563">
        <ele>265.2</ele>
        <time>2021-02-20T12:17:01.000Z</time>
      </trkpt>
      <trkpt lat="45.85622" lon="5.41565">
        <ele>265.2</ele>
        <time>2021-02-20T12:17:02.000Z</time>
      </trkpt>
      <trkpt lat="45.85623" lon="5.41568">
        <ele>265.4</ele>
        <time>2021-02-20T12:17:03.000Z</time>
      </trkpt>
      <trkpt lat="45.85624" lon="5.41571">
        <ele>265.6</ele>
        <time>2021-02-20T12:17:04.000Z</time>
      </trkpt>
      <trkpt lat="45.85624" lon="5.41573">
        <ele>265.6</ele>
        <time>2021-02-20T12:17:05.000Z</time>
      </trkpt>
      <trkpt lat="45.85625" lon="5.41576">
        <ele>265.8</ele>
        <time>2021-02-20T12:17:06.000Z</time>
      </trkpt>
      <trkpt lat="45.85626" lon="5.41579">
        <ele>266.2</ele>
        <time>2021-02-20T12:17:07.000Z</time>
      </trkpt>
      <trkpt lat="45.85627" lon="5.41582">
        <ele>266.2</ele>
        <time>2021-02-20T12:17:08.000Z</time>
      </trkpt>
      <trkpt lat="45.85628" lon="5.41585">
        <ele>266.8</ele>
        <time>2021-02-20T12:17:09.000Z</time>
      </trkpt>
      <trkpt lat="45.85629" lon="5.41588">
        <ele>267</ele>
        <time>2021-02-20T12:17:10.000Z</time>
      </trkpt>
      <trkpt lat="45.8563" lon="5.41591">
        <ele>267.4</ele>
        <time>2021-02-20T12:17:11.000Z</time>
      </trkpt>
      <trkpt lat="45.8563" lon="5.41593">
        <ele>267.8</ele>
        <time>2021-02-20T12:17:12.000Z</time>
      </trkpt>
      <trkpt lat="45.85631" lon="5.41595">
        <ele>268.2</ele>
        <time>2021-02-20T12:17:13.000Z</time>
      </trkpt>
      <trkpt lat="45.85632" lon="5.41598">
        <ele>268.4</ele>
        <time>2021-02-20T12:17:14.000Z</time>
      </trkpt>
      <trkpt lat="45.85632" lon="5.416">
        <ele>269</ele>
        <time>2021-02-20T12:17:15.000Z</time>
      </trkpt>
      <trkpt lat="45.85633" lon="5.41603">
        <ele>269.2</ele>
        <time>2021-02-20T12:17:16.000Z</time>
      </trkpt>
      <trkpt lat="45.85634" lon="5.41605">
        <ele>269.6</ele>
        <time>2021-02-20T12:17:17.000Z</time>
      </trkpt>
      <trkpt lat="45.85635" lon="5.41607">
        <ele>270.2</ele>
        <time>2021-02-20T12:17:18.000Z</time>
      </trkpt>
      <trkpt lat="45.85636" lon="5.4161">
        <ele>270.8</ele>
        <time>2021-02-20T12:17:19.000Z</time>
      </trkpt>
      <trkpt lat="45.85637" lon="5.41613">
        <ele>271.2</ele>
        <time>2021-02-20T12:17:20.000Z</time>
      </trkpt>
      <trkpt lat="45.85638" lon="5.41616">
        <ele>271.4</ele>
        <time>2021-02-20T12:17:21.000Z</time>
      </trkpt>
      <trkpt lat="45.85639" lon="5.41618">
        <ele>271.8</ele>
        <time>2021-02-20T12:17:22.000Z</time>
      </trkpt>
      <trkpt lat="45.85641" lon="5.41621">
        <ele>272</ele>
        <time>2021-02-20T12:17:23.000Z</time>
      </trkpt>
      <trkpt lat="45.85642" lon="5.41624">
        <ele>272</ele>
        <time>2021-02-20T12:17:24.000Z</time>
      </trkpt>
      <trkpt lat="45.85643" lon="5.41627">
        <ele>272.2</ele>
        <time>2021-02-20T12:17:25.000Z</time>
      </trkpt>
      <trkpt lat="45.85644" lon="5.4163">
        <ele>272.4</ele>
        <time>2021-02-20T12:17:26.000Z</time>
      </trkpt>
      <trkpt lat="45.85645" lon="5.41634">
        <ele>272.4</ele>
        <time>2021-02-20T12:17:27.000Z</time>
      </trkpt>
      <trkpt lat="45.85646" lon="5.41637">
        <ele>272.2</ele>
        <time>2021-02-20T12:17:28.000Z</time>
      </trkpt>
      <trkpt lat="45.85647" lon="5.41641">
        <ele>272.4</ele>
        <time>2021-02-20T12:17:29.000Z</time>
      </trkpt>
      <trkpt lat="45.85649" lon="5.41644">
        <ele>272.4</ele>
        <time>2021-02-20T12:17:30.000Z</time>
      </trkpt>
      <trkpt lat="45.8565" lon="5.41647">
        <ele>272.4</ele>
        <time>2021-02-20T12:17:31.000Z</time>
      </trkpt>
      <trkpt lat="45.85651" lon="5.4165">
        <ele>272.4</ele>
        <time>2021-02-20T12:17:32.000Z</time>
      </trkpt>
      <trkpt lat="45.85653" lon="5.41653">
        <ele>272.4</ele>
        <time>2021-02-20T12:17:33.000Z</time>
      </trkpt>
      <trkpt lat="45.85654" lon="5.41656">
        <ele>272.4</ele>
        <time>2021-02-20T12:17:34.000Z</time>
      </trkpt>
      <trkpt lat="45.85655" lon="5.41659">
        <ele>272.6</ele>
        <time>2021-02-20T12:17:35.000Z</time>
      </trkpt>
      <trkpt lat="45.85657" lon="5.41662">
        <ele>272.6</ele>
        <time>2021-02-20T12:17:36.000Z</time>
      </trkpt>
      <trkpt lat="45.85658" lon="5.41665">
        <ele>272.6</ele>
        <time>2021-02-20T12:17:37.000Z</time>
      </trkpt>
      <trkpt lat="45.85658" lon="5.41667">
        <ele>272.8</ele>
        <time>2021-02-20T12:17:38.000Z</time>
      </trkpt>
      <trkpt lat="45.85659" lon="5.4167">
        <ele>273</ele>
        <time>2021-02-20T12:17:39.000Z</time>
      </trkpt>
      <trkpt lat="45.8566" lon="5.41673">
        <ele>273.2</ele>
        <time>2021-02-20T12:17:40.000Z</time>
      </trkpt>
      <trkpt lat="45.85661" lon="5.41676">
        <ele>273.4</ele>
        <time>2021-02-20T12:17:41.000Z</time>
      </trkpt>
      <trkpt lat="45.85662" lon="5.4168">
        <ele>273.6</ele>
        <time>2021-02-20T12:17:42.000Z</time>
      </trkpt>
      <trkpt lat="45.85663" lon="5.41683">
        <ele>273.6</ele>
        <time>2021-02-20T12:17:43.000Z</time>
      </trkpt>
      <trkpt lat="45.85664" lon="5.41686">
        <ele>273.6</ele>
        <time>2021-02-20T12:17:44.000Z</time>
      </trkpt>
      <trkpt lat="45.85666" lon="5.4169">
        <ele>273.6</ele>
        <time>2021-02-20T12:17:45.000Z</time>
      </trkpt>
      <trkpt lat="45.85667" lon="5.41693">
        <ele>273.8</ele>
        <time>2021-02-20T12:17:46.000Z</time>
      </trkpt>
      <trkpt lat="45.85668" lon="5.41696">
        <ele>273.8</ele>
        <time>2021-02-20T12:17:47.000Z</time>
      </trkpt>
      <trkpt lat="45.85669" lon="5.41699">
        <ele>273.8</ele>
        <time>2021-02-20T12:17:48.000Z</time>
      </trkpt>
      <trkpt lat="45.85671" lon="5.41702">
        <ele>274</ele>
        <time>2021-02-20T12:17:49.000Z</time>
      </trkpt>
      <trkpt lat="45.85678" lon="5.41712">
        <ele>274.4</ele>
        <time>2021-02-20T12:17:53.000Z</time>
      </trkpt>
      <trkpt lat="45.8568" lon="5.41715">
        <ele>274.4</ele>
        <time>2021-02-20T12:17:54.000Z</time>
      </trkpt>
      <trkpt lat="45.85682" lon="5.41716">
        <ele>274.6</ele>
        <time>2021-02-20T12:17:55.000Z</time>
      </trkpt>
      <trkpt lat="45.85684" lon="5.41718">
        <ele>274.6</ele>
        <time>2021-02-20T12:17:56.000Z</time>
      </trkpt>
      <trkpt lat="45.85685" lon="5.4172">
        <ele>274.8</ele>
        <time>2021-02-20T12:17:57.000Z</time>
      </trkpt>
      <trkpt lat="45.85687" lon="5.41722">
        <ele>274.8</ele>
        <time>2021-02-20T12:17:58.000Z</time>
      </trkpt>
      <trkpt lat="45.85688" lon="5.41724">
        <ele>275</ele>
        <time>2021-02-20T12:17:59.000Z</time>
      </trkpt>
      <trkpt lat="45.8569" lon="5.41726">
        <ele>275.2</ele>
        <time>2021-02-20T12:18:00.000Z</time>
      </trkpt>
      <trkpt lat="45.85691" lon="5.41728">
        <ele>275.6</ele>
        <time>2021-02-20T12:18:01.000Z</time>
      </trkpt>
      <trkpt lat="45.85693" lon="5.41731">
        <ele>275.8</ele>
        <time>2021-02-20T12:18:02.000Z</time>
      </trkpt>
      <trkpt lat="45.85695" lon="5.41735">
        <ele>276</ele>
        <time>2021-02-20T12:18:03.000Z</time>
      </trkpt>
      <trkpt lat="45.85696" lon="5.41739">
        <ele>276</ele>
        <time>2021-02-20T12:18:04.000Z</time>
      </trkpt>
      <trkpt lat="45.85698" lon="5.41743">
        <ele>276.2</ele>
        <time>2021-02-20T12:18:05.000Z</time>
      </trkpt>
      <trkpt lat="45.85699" lon="5.41747">
        <ele>276.2</ele>
        <time>2021-02-20T12:18:06.000Z</time>
      </trkpt>
      <trkpt lat="45.857" lon="5.41752">
        <ele>276.2</ele>
        <time>2021-02-20T12:18:07.000Z</time>
      </trkpt>
      <trkpt lat="45.85701" lon="5.41757">
        <ele>276.4</ele>
        <time>2021-02-20T12:18:08.000Z</time>
      </trkpt>
      <trkpt lat="45.85702" lon="5.41762">
        <ele>276.4</ele>
        <time>2021-02-20T12:18:09.000Z</time>
      </trkpt>
      <trkpt lat="45.85702" lon="5.41774">
        <ele>276.4</ele>
        <time>2021-02-20T12:18:11.000Z</time>
      </trkpt>
      <trkpt lat="45.85701" lon="5.41779">
        <ele>276.4</ele>
        <time>2021-02-20T12:18:12.000Z</time>
      </trkpt>
      <trkpt lat="45.857" lon="5.41784">
        <ele>276.6</ele>
        <time>2021-02-20T12:18:13.000Z</time>
      </trkpt>
      <trkpt lat="45.85699" lon="5.41789">
        <ele>276.8</ele>
        <time>2021-02-20T12:18:14.000Z</time>
      </trkpt>
      <trkpt lat="45.85697" lon="5.41794">
        <ele>276.6</ele>
        <time>2021-02-20T12:18:15.000Z</time>
      </trkpt>
      <trkpt lat="45.85696" lon="5.41798">
        <ele>276.6</ele>
        <time>2021-02-20T12:18:16.000Z</time>
      </trkpt>
      <trkpt lat="45.85696" lon="5.41803">
        <ele>276.8</ele>
        <time>2021-02-20T12:18:17.000Z</time>
      </trkpt>
      <trkpt lat="45.85695" lon="5.41807">
        <ele>276.8</ele>
        <time>2021-02-20T12:18:18.000Z</time>
      </trkpt>
      <trkpt lat="45.85695" lon="5.41812">
        <ele>277</ele>
        <time>2021-02-20T12:18:19.000Z</time>
      </trkpt>
      <trkpt lat="45.85695" lon="5.41845">
        <ele>277</ele>
        <time>2021-02-20T12:18:26.000Z</time>
      </trkpt>
      <trkpt lat="45.85697" lon="5.41855">
        <ele>277.2</ele>
        <time>2021-02-20T12:18:28.000Z</time>
      </trkpt>
      <trkpt lat="45.85697" lon="5.41859">
        <ele>277.4</ele>
        <time>2021-02-20T12:18:29.000Z</time>
      </trkpt>
      <trkpt lat="45.85699" lon="5.41873">
        <ele>277.4</ele>
        <time>2021-02-20T12:18:32.000Z</time>
      </trkpt>
      <trkpt lat="45.857" lon="5.41878">
        <ele>277.4</ele>
        <time>2021-02-20T12:18:33.000Z</time>
      </trkpt>
      <trkpt lat="45.857" lon="5.41883">
        <ele>277.4</ele>
        <time>2021-02-20T12:18:34.000Z</time>
      </trkpt>
      <trkpt lat="45.85702" lon="5.41897">
        <ele>277.6</ele>
        <time>2021-02-20T12:18:37.000Z</time>
      </trkpt>
      <trkpt lat="45.85704" lon="5.41906">
        <ele>277.4</ele>
        <time>2021-02-20T12:18:39.000Z</time>
      </trkpt>
      <trkpt lat="45.85704" lon="5.4191">
        <ele>277.4</ele>
        <time>2021-02-20T12:18:40.000Z</time>
      </trkpt>
      <trkpt lat="45.85705" lon="5.41914">
        <ele>277.6</ele>
        <time>2021-02-20T12:18:41.000Z</time>
      </trkpt>
      <trkpt lat="45.85707" lon="5.41924">
        <ele>277.6</ele>
        <time>2021-02-20T12:18:43.000Z</time>
      </trkpt>
      <trkpt lat="45.85709" lon="5.41938">
        <ele>277.8</ele>
        <time>2021-02-20T12:18:46.000Z</time>
      </trkpt>
      <trkpt lat="45.8571" lon="5.41942">
        <ele>277.8</ele>
        <time>2021-02-20T12:18:47.000Z</time>
      </trkpt>
      <trkpt lat="45.8571" lon="5.41946">
        <ele>277.8</ele>
        <time>2021-02-20T12:18:48.000Z</time>
      </trkpt>
      <trkpt lat="45.8571" lon="5.41951">
        <ele>277.8</ele>
        <time>2021-02-20T12:18:49.000Z</time>
      </trkpt>
      <trkpt lat="45.8571" lon="5.41955">
        <ele>277.8</ele>
        <time>2021-02-20T12:18:50.000Z</time>
      </trkpt>
      <trkpt lat="45.85709" lon="5.41971">
        <ele>278</ele>
        <time>2021-02-20T12:18:53.000Z</time>
      </trkpt>
      <trkpt lat="45.85708" lon="5.41975">
        <ele>278</ele>
        <time>2021-02-20T12:18:54.000Z</time>
      </trkpt>
      <trkpt lat="45.85708" lon="5.41979">
        <ele>278.2</ele>
        <time>2021-02-20T12:18:55.000Z</time>
      </trkpt>
      <trkpt lat="45.85708" lon="5.41983">
        <ele>278.2</ele>
        <time>2021-02-20T12:18:56.000Z</time>
      </trkpt>
      <trkpt lat="45.85708" lon="5.41992">
        <ele>278.4</ele>
        <time>2021-02-20T12:18:58.000Z</time>
      </trkpt>
      <trkpt lat="45.85707" lon="5.41996">
        <ele>278.4</ele>
        <time>2021-02-20T12:18:59.000Z</time>
      </trkpt>
      <trkpt lat="45.85707" lon="5.42">
        <ele>278.6</ele>
        <time>2021-02-20T12:19:00.000Z</time>
      </trkpt>
      <trkpt lat="45.85707" lon="5.42004">
        <ele>278.6</ele>
        <time>2021-02-20T12:19:01.000Z</time>
      </trkpt>
      <trkpt lat="45.85707" lon="5.42008">
        <ele>278.8</ele>
        <time>2021-02-20T12:19:02.000Z</time>
      </trkpt>
      <trkpt lat="45.85707" lon="5.42016">
        <ele>279.2</ele>
        <time>2021-02-20T12:19:04.000Z</time>
      </trkpt>
      <trkpt lat="45.85706" lon="5.4202">
        <ele>279.4</ele>
        <time>2021-02-20T12:19:05.000Z</time>
      </trkpt>
      <trkpt lat="45.85706" lon="5.42024">
        <ele>279.8</ele>
        <time>2021-02-20T12:19:06.000Z</time>
      </trkpt>
      <trkpt lat="45.85705" lon="5.42028">
        <ele>279.8</ele>
        <time>2021-02-20T12:19:07.000Z</time>
      </trkpt>
      <trkpt lat="45.85705" lon="5.42032">
        <ele>280.2</ele>
        <time>2021-02-20T12:19:08.000Z</time>
      </trkpt>
      <trkpt lat="45.85705" lon="5.42036">
        <ele>280.2</ele>
        <time>2021-02-20T12:19:09.000Z</time>
      </trkpt>
      <trkpt lat="45.85705" lon="5.4204">
        <ele>280.4</ele>
        <time>2021-02-20T12:19:10.000Z</time>
      </trkpt>
      <trkpt lat="45.85705" lon="5.42044">
        <ele>280.4</ele>
        <time>2021-02-20T12:19:11.000Z</time>
      </trkpt>
      <trkpt lat="45.85705" lon="5.42048">
        <ele>280.6</ele>
        <time>2021-02-20T12:19:12.000Z</time>
      </trkpt>
      <trkpt lat="45.85705" lon="5.42051">
        <ele>280.6</ele>
        <time>2021-02-20T12:19:13.000Z</time>
      </trkpt>
      <trkpt lat="45.85706" lon="5.42055">
        <ele>280.6</ele>
        <time>2021-02-20T12:19:14.000Z</time>
      </trkpt>
      <trkpt lat="45.85706" lon="5.42059">
        <ele>280.8</ele>
        <time>2021-02-20T12:19:15.000Z</time>
      </trkpt>
      <trkpt lat="45.85706" lon="5.42063">
        <ele>281</ele>
        <time>2021-02-20T12:19:16.000Z</time>
      </trkpt>
      <trkpt lat="45.85707" lon="5.42067">
        <ele>281</ele>
        <time>2021-02-20T12:19:17.000Z</time>
      </trkpt>
      <trkpt lat="45.85708" lon="5.4207">
        <ele>281.2</ele>
        <time>2021-02-20T12:19:18.000Z</time>
      </trkpt>
      <trkpt lat="45.85709" lon="5.42074">
        <ele>281.4</ele>
        <time>2021-02-20T12:19:19.000Z</time>
      </trkpt>
      <trkpt lat="45.85711" lon="5.42078">
        <ele>281.6</ele>
        <time>2021-02-20T12:19:20.000Z</time>
      </trkpt>
      <trkpt lat="45.85712" lon="5.42082">
        <ele>282</ele>
        <time>2021-02-20T12:19:21.000Z</time>
      </trkpt>
      <trkpt lat="45.85713" lon="5.42087">
        <ele>282.2</ele>
        <time>2021-02-20T12:19:22.000Z</time>
      </trkpt>
      <trkpt lat="45.85714" lon="5.42091">
        <ele>282.2</ele>
        <time>2021-02-20T12:19:23.000Z</time>
      </trkpt>
      <trkpt lat="45.85715" lon="5.42095">
        <ele>282.6</ele>
        <time>2021-02-20T12:19:24.000Z</time>
      </trkpt>
      <trkpt lat="45.85715" lon="5.42099">
        <ele>282.6</ele>
        <time>2021-02-20T12:19:25.000Z</time>
      </trkpt>
      <trkpt lat="45.85716" lon="5.42103">
        <ele>282.6</ele>
        <time>2021-02-20T12:19:26.000Z</time>
      </trkpt>
      <trkpt lat="45.85716" lon="5.42108">
        <ele>283</ele>
        <time>2021-02-20T12:19:27.000Z</time>
      </trkpt>
      <trkpt lat="45.85717" lon="5.42112">
        <ele>283.2</ele>
        <time>2021-02-20T12:19:28.000Z</time>
      </trkpt>
      <trkpt lat="45.85717" lon="5.42117">
        <ele>283.4</ele>
        <time>2021-02-20T12:19:29.000Z</time>
      </trkpt>
      <trkpt lat="45.85718" lon="5.42121">
        <ele>283.4</ele>
        <time>2021-02-20T12:19:30.000Z</time>
      </trkpt>
      <trkpt lat="45.85718" lon="5.42126">
        <ele>283.4</ele>
        <time>2021-02-20T12:19:31.000Z</time>
      </trkpt>
      <trkpt lat="45.85718" lon="5.42131">
        <ele>283.4</ele>
        <time>2021-02-20T12:19:32.000Z</time>
      </trkpt>
      <trkpt lat="45.85719" lon="5.42137">
        <ele>283.6</ele>
        <time>2021-02-20T12:19:33.000Z</time>
      </trkpt>
      <trkpt lat="45.85719" lon="5.42142">
        <ele>283.6</ele>
        <time>2021-02-20T12:19:34.000Z</time>
      </trkpt>
      <trkpt lat="45.85719" lon="5.42148">
        <ele>283.8</ele>
        <time>2021-02-20T12:19:35.000Z</time>
      </trkpt>
      <trkpt lat="45.85719" lon="5.42153">
        <ele>283.8</ele>
        <time>2021-02-20T12:19:36.000Z</time>
      </trkpt>
      <trkpt lat="45.85719" lon="5.42159">
        <ele>283.8</ele>
        <time>2021-02-20T12:19:37.000Z</time>
      </trkpt>
      <trkpt lat="45.85719" lon="5.42164">
        <ele>283.8</ele>
        <time>2021-02-20T12:19:38.000Z</time>
      </trkpt>
      <trkpt lat="45.85718" lon="5.42169">
        <ele>283.8</ele>
        <time>2021-02-20T12:19:39.000Z</time>
      </trkpt>
      <trkpt lat="45.85718" lon="5.42174">
        <ele>283.8</ele>
        <time>2021-02-20T12:19:40.000Z</time>
      </trkpt>
      <trkpt lat="45.85718" lon="5.42179">
        <ele>283.8</ele>
        <time>2021-02-20T12:19:41.000Z</time>
      </trkpt>
      <trkpt lat="45.85717" lon="5.42189">
        <ele>283.8</ele>
        <time>2021-02-20T12:19:43.000Z</time>
      </trkpt>
      <trkpt lat="45.85717" lon="5.42194">
        <ele>284</ele>
        <time>2021-02-20T12:19:44.000Z</time>
      </trkpt>
      <trkpt lat="45.85716" lon="5.42199">
        <ele>284</ele>
        <time>2021-02-20T12:19:45.000Z</time>
      </trkpt>
      <trkpt lat="45.85716" lon="5.42204">
        <ele>284</ele>
        <time>2021-02-20T12:19:46.000Z</time>
      </trkpt>
      <trkpt lat="45.85716" lon="5.42209">
        <ele>284</ele>
        <time>2021-02-20T12:19:47.000Z</time>
      </trkpt>
      <trkpt lat="45.85715" lon="5.42235">
        <ele>284.2</ele>
        <time>2021-02-20T12:19:52.000Z</time>
      </trkpt>
      <trkpt lat="45.85716" lon="5.4224">
        <ele>284.2</ele>
        <time>2021-02-20T12:19:53.000Z</time>
      </trkpt>
      <trkpt lat="45.85716" lon="5.42245">
        <ele>284.2</ele>
        <time>2021-02-20T12:19:54.000Z</time>
      </trkpt>
      <trkpt lat="45.85717" lon="5.4225">
        <ele>284.4</ele>
        <time>2021-02-20T12:19:55.000Z</time>
      </trkpt>
      <trkpt lat="45.85722" lon="5.42263">
        <ele>284.6</ele>
        <time>2021-02-20T12:19:58.000Z</time>
      </trkpt>
      <trkpt lat="45.85724" lon="5.42267">
        <ele>284.6</ele>
        <time>2021-02-20T12:19:59.000Z</time>
      </trkpt>
      <trkpt lat="45.85726" lon="5.42271">
        <ele>284.6</ele>
        <time>2021-02-20T12:20:00.000Z</time>
      </trkpt>
      <trkpt lat="45.85733" lon="5.42283">
        <ele>284.8</ele>
        <time>2021-02-20T12:20:03.000Z</time>
      </trkpt>
      <trkpt lat="45.85734" lon="5.42287">
        <ele>284.8</ele>
        <time>2021-02-20T12:20:04.000Z</time>
      </trkpt>
      <trkpt lat="45.85736" lon="5.42291">
        <ele>285</ele>
        <time>2021-02-20T12:20:05.000Z</time>
      </trkpt>
      <trkpt lat="45.85737" lon="5.42294">
        <ele>285</ele>
        <time>2021-02-20T12:20:06.000Z</time>
      </trkpt>
      <trkpt lat="45.85739" lon="5.42299">
        <ele>285.2</ele>
        <time>2021-02-20T12:20:07.000Z</time>
      </trkpt>
      <trkpt lat="45.85741" lon="5.42307">
        <ele>285.2</ele>
        <time>2021-02-20T12:20:09.000Z</time>
      </trkpt>
      <trkpt lat="45.85742" lon="5.42311">
        <ele>285.4</ele>
        <time>2021-02-20T12:20:10.000Z</time>
      </trkpt>
      <trkpt lat="45.85744" lon="5.4232">
        <ele>285.8</ele>
        <time>2021-02-20T12:20:12.000Z</time>
      </trkpt>
      <trkpt lat="45.85744" lon="5.42324">
        <ele>286</ele>
        <time>2021-02-20T12:20:13.000Z</time>
      </trkpt>
      <trkpt lat="45.85744" lon="5.42328">
        <ele>286</ele>
        <time>2021-02-20T12:20:14.000Z</time>
      </trkpt>
      <trkpt lat="45.85744" lon="5.42332">
        <ele>286.2</ele>
        <time>2021-02-20T12:20:15.000Z</time>
      </trkpt>
      <trkpt lat="45.85744" lon="5.42336">
        <ele>286.4</ele>
        <time>2021-02-20T12:20:16.000Z</time>
      </trkpt>
      <trkpt lat="45.85744" lon="5.42341">
        <ele>286.6</ele>
        <time>2021-02-20T12:20:17.000Z</time>
      </trkpt>
      <trkpt lat="45.85743" lon="5.42345">
        <ele>286.6</ele>
        <time>2021-02-20T12:20:18.000Z</time>
      </trkpt>
      <trkpt lat="45.85743" lon="5.4235">
        <ele>286.8</ele>
        <time>2021-02-20T12:20:19.000Z</time>
      </trkpt>
      <trkpt lat="45.85742" lon="5.42354">
        <ele>286.8</ele>
        <time>2021-02-20T12:20:20.000Z</time>
      </trkpt>
      <trkpt lat="45.85739" lon="5.42363">
        <ele>287</ele>
        <time>2021-02-20T12:20:22.000Z</time>
      </trkpt>
      <trkpt lat="45.85736" lon="5.42372">
        <ele>287.2</ele>
        <time>2021-02-20T12:20:24.000Z</time>
      </trkpt>
      <trkpt lat="45.85728" lon="5.42389">
        <ele>287.4</ele>
        <time>2021-02-20T12:20:28.000Z</time>
      </trkpt>
      <trkpt lat="45.85726" lon="5.42394">
        <ele>287.4</ele>
        <time>2021-02-20T12:20:29.000Z</time>
      </trkpt>
      <trkpt lat="45.85725" lon="5.42398">
        <ele>287.6</ele>
        <time>2021-02-20T12:20:30.000Z</time>
      </trkpt>
      <trkpt lat="45.85724" lon="5.42402">
        <ele>287.6</ele>
        <time>2021-02-20T12:20:31.000Z</time>
      </trkpt>
      <trkpt lat="45.85723" lon="5.42407">
        <ele>287.8</ele>
        <time>2021-02-20T12:20:32.000Z</time>
      </trkpt>
      <trkpt lat="45.85722" lon="5.42411">
        <ele>288</ele>
        <time>2021-02-20T12:20:33.000Z</time>
      </trkpt>
      <trkpt lat="45.85722" lon="5.42416">
        <ele>288.4</ele>
        <time>2021-02-20T12:20:34.000Z</time>
      </trkpt>
      <trkpt lat="45.85721" lon="5.42421">
        <ele>288.2</ele>
        <time>2021-02-20T12:20:35.000Z</time>
      </trkpt>
      <trkpt lat="45.8572" lon="5.42426">
        <ele>288.4</ele>
        <time>2021-02-20T12:20:36.000Z</time>
      </trkpt>
      <trkpt lat="45.8572" lon="5.4243">
        <ele>288.4</ele>
        <time>2021-02-20T12:20:37.000Z</time>
      </trkpt>
      <trkpt lat="45.85719" lon="5.42435">
        <ele>288.8</ele>
        <time>2021-02-20T12:20:38.000Z</time>
      </trkpt>
      <trkpt lat="45.85719" lon="5.4244">
        <ele>288.8</ele>
        <time>2021-02-20T12:20:39.000Z</time>
      </trkpt>
      <trkpt lat="45.85719" lon="5.42445">
        <ele>289</ele>
        <time>2021-02-20T12:20:40.000Z</time>
      </trkpt>
      <trkpt lat="45.85719" lon="5.42449">
        <ele>289.2</ele>
        <time>2021-02-20T12:20:41.000Z</time>
      </trkpt>
      <trkpt lat="45.85718" lon="5.42454">
        <ele>289.4</ele>
        <time>2021-02-20T12:20:42.000Z</time>
      </trkpt>
      <trkpt lat="45.85718" lon="5.42459">
        <ele>289.6</ele>
        <time>2021-02-20T12:20:43.000Z</time>
      </trkpt>
      <trkpt lat="45.85719" lon="5.42463">
        <ele>289.8</ele>
        <time>2021-02-20T12:20:44.000Z</time>
      </trkpt>
      <trkpt lat="45.85718" lon="5.42468">
        <ele>290</ele>
        <time>2021-02-20T12:20:45.000Z</time>
      </trkpt>
      <trkpt lat="45.85718" lon="5.42473">
        <ele>290.2</ele>
        <time>2021-02-20T12:20:46.000Z</time>
      </trkpt>
      <trkpt lat="45.85718" lon="5.42478">
        <ele>290.2</ele>
        <time>2021-02-20T12:20:47.000Z</time>
      </trkpt>
      <trkpt lat="45.85719" lon="5.42483">
        <ele>290.2</ele>
        <time>2021-02-20T12:20:48.000Z</time>
      </trkpt>
      <trkpt lat="45.85719" lon="5.42487">
        <ele>290.2</ele>
        <time>2021-02-20T12:20:49.000Z</time>
      </trkpt>
      <trkpt lat="45.85719" lon="5.42492">
        <ele>290.4</ele>
        <time>2021-02-20T12:20:50.000Z</time>
      </trkpt>
      <trkpt lat="45.85719" lon="5.42497">
        <ele>290.4</ele>
        <time>2021-02-20T12:20:51.000Z</time>
      </trkpt>
      <trkpt lat="45.85719" lon="5.42502">
        <ele>290.6</ele>
        <time>2021-02-20T12:20:52.000Z</time>
      </trkpt>
      <trkpt lat="45.85719" lon="5.42507">
        <ele>290.6</ele>
        <time>2021-02-20T12:20:53.000Z</time>
      </trkpt>
      <trkpt lat="45.85719" lon="5.42512">
        <ele>290.6</ele>
        <time>2021-02-20T12:20:54.000Z</time>
      </trkpt>
      <trkpt lat="45.85719" lon="5.42517">
        <ele>290.8</ele>
        <time>2021-02-20T12:20:55.000Z</time>
      </trkpt>
      <trkpt lat="45.85719" lon="5.42522">
        <ele>290.6</ele>
        <time>2021-02-20T12:20:56.000Z</time>
      </trkpt>
      <trkpt lat="45.85719" lon="5.42527">
        <ele>291</ele>
        <time>2021-02-20T12:20:57.000Z</time>
      </trkpt>
      <trkpt lat="45.85718" lon="5.42536">
        <ele>290.8</ele>
        <time>2021-02-20T12:20:59.000Z</time>
      </trkpt>
      <trkpt lat="45.85719" lon="5.42549">
        <ele>291</ele>
        <time>2021-02-20T12:21:02.000Z</time>
      </trkpt>
      <trkpt lat="45.85719" lon="5.42554">
        <ele>291.2</ele>
        <time>2021-02-20T12:21:03.000Z</time>
      </trkpt>
      <trkpt lat="45.85719" lon="5.42558">
        <ele>291</ele>
        <time>2021-02-20T12:21:04.000Z</time>
      </trkpt>
      <trkpt lat="45.85719" lon="5.42572">
        <ele>291.2</ele>
        <time>2021-02-20T12:21:07.000Z</time>
      </trkpt>
      <trkpt lat="45.85719" lon="5.42576">
        <ele>291.2</ele>
        <time>2021-02-20T12:21:08.000Z</time>
      </trkpt>
      <trkpt lat="45.85719" lon="5.4258">
        <ele>291.2</ele>
        <time>2021-02-20T12:21:09.000Z</time>
      </trkpt>
      <trkpt lat="45.85719" lon="5.42589">
        <ele>291.2</ele>
        <time>2021-02-20T12:21:11.000Z</time>
      </trkpt>
      <trkpt lat="45.8572" lon="5.42598">
        <ele>291.4</ele>
        <time>2021-02-20T12:21:13.000Z</time>
      </trkpt>
      <trkpt lat="45.85722" lon="5.42613">
        <ele>291.8</ele>
        <time>2021-02-20T12:21:16.000Z</time>
      </trkpt>
      <trkpt lat="45.85722" lon="5.42617">
        <ele>291.6</ele>
        <time>2021-02-20T12:21:17.000Z</time>
      </trkpt>
      <trkpt lat="45.85723" lon="5.42621">
        <ele>291.8</ele>
        <time>2021-02-20T12:21:18.000Z</time>
      </trkpt>
      <trkpt lat="45.85724" lon="5.42625">
        <ele>291.8</ele>
        <time>2021-02-20T12:21:19.000Z</time>
      </trkpt>
      <trkpt lat="45.85726" lon="5.42645">
        <ele>292.6</ele>
        <time>2021-02-20T12:21:23.000Z</time>
      </trkpt>
      <trkpt lat="45.85727" lon="5.42654">
        <ele>292.8</ele>
        <time>2021-02-20T12:21:25.000Z</time>
      </trkpt>
      <trkpt lat="45.85727" lon="5.42658">
        <ele>293</ele>
        <time>2021-02-20T12:21:26.000Z</time>
      </trkpt>
      <trkpt lat="45.85728" lon="5.42662">
        <ele>293</ele>
        <time>2021-02-20T12:21:27.000Z</time>
      </trkpt>
      <trkpt lat="45.85729" lon="5.42667">
        <ele>293</ele>
        <time>2021-02-20T12:21:28.000Z</time>
      </trkpt>
      <trkpt lat="45.8573" lon="5.42671">
        <ele>293.2</ele>
        <time>2021-02-20T12:21:29.000Z</time>
      </trkpt>
      <trkpt lat="45.85731" lon="5.42676">
        <ele>293.2</ele>
        <time>2021-02-20T12:21:30.000Z</time>
      </trkpt>
      <trkpt lat="45.85732" lon="5.4268">
        <ele>293.2</ele>
        <time>2021-02-20T12:21:31.000Z</time>
      </trkpt>
      <trkpt lat="45.85732" lon="5.42685">
        <ele>293.6</ele>
        <time>2021-02-20T12:21:32.000Z</time>
      </trkpt>
      <trkpt lat="45.85733" lon="5.4269">
        <ele>293.8</ele>
        <time>2021-02-20T12:21:33.000Z</time>
      </trkpt>
      <trkpt lat="45.85734" lon="5.42694">
        <ele>294</ele>
        <time>2021-02-20T12:21:34.000Z</time>
      </trkpt>
      <trkpt lat="45.85735" lon="5.42699">
        <ele>294.6</ele>
        <time>2021-02-20T12:21:35.000Z</time>
      </trkpt>
      <trkpt lat="45.85736" lon="5.42703">
        <ele>295.2</ele>
        <time>2021-02-20T12:21:36.000Z</time>
      </trkpt>
      <trkpt lat="45.85736" lon="5.42708">
        <ele>295.2</ele>
        <time>2021-02-20T12:21:37.000Z</time>
      </trkpt>
      <trkpt lat="45.85737" lon="5.42712">
        <ele>295.6</ele>
        <time>2021-02-20T12:21:38.000Z</time>
      </trkpt>
      <trkpt lat="45.85738" lon="5.42716">
        <ele>295.8</ele>
        <time>2021-02-20T12:21:39.000Z</time>
      </trkpt>
      <trkpt lat="45.85739" lon="5.42721">
        <ele>296.2</ele>
        <time>2021-02-20T12:21:40.000Z</time>
      </trkpt>
      <trkpt lat="45.8574" lon="5.42725">
        <ele>296.6</ele>
        <time>2021-02-20T12:21:41.000Z</time>
      </trkpt>
      <trkpt lat="45.85742" lon="5.4273">
        <ele>296.6</ele>
        <time>2021-02-20T12:21:42.000Z</time>
      </trkpt>
      <trkpt lat="45.85743" lon="5.42734">
        <ele>296.8</ele>
        <time>2021-02-20T12:21:43.000Z</time>
      </trkpt>
      <trkpt lat="45.85744" lon="5.42739">
        <ele>296.8</ele>
        <time>2021-02-20T12:21:44.000Z</time>
      </trkpt>
      <trkpt lat="45.85745" lon="5.42744">
        <ele>296.8</ele>
        <time>2021-02-20T12:21:45.000Z</time>
      </trkpt>
      <trkpt lat="45.85745" lon="5.42749">
        <ele>297</ele>
        <time>2021-02-20T12:21:46.000Z</time>
      </trkpt>
      <trkpt lat="45.85746" lon="5.42753">
        <ele>297</ele>
        <time>2021-02-20T12:21:47.000Z</time>
      </trkpt>
      <trkpt lat="45.85747" lon="5.42758">
        <ele>297</ele>
        <time>2021-02-20T12:21:48.000Z</time>
      </trkpt>
      <trkpt lat="45.85748" lon="5.42763">
        <ele>297.2</ele>
        <time>2021-02-20T12:21:49.000Z</time>
      </trkpt>
      <trkpt lat="45.85748" lon="5.42768">
        <ele>297.2</ele>
        <time>2021-02-20T12:21:50.000Z</time>
      </trkpt>
      <trkpt lat="45.85749" lon="5.42773">
        <ele>297.4</ele>
        <time>2021-02-20T12:21:51.000Z</time>
      </trkpt>
      <trkpt lat="45.8575" lon="5.42778">
        <ele>297.2</ele>
        <time>2021-02-20T12:21:52.000Z</time>
      </trkpt>
      <trkpt lat="45.8575" lon="5.42783">
        <ele>297.2</ele>
        <time>2021-02-20T12:21:53.000Z</time>
      </trkpt>
      <trkpt lat="45.85752" lon="5.42788">
        <ele>297.2</ele>
        <time>2021-02-20T12:21:54.000Z</time>
      </trkpt>
      <trkpt lat="45.85753" lon="5.42792">
        <ele>297.4</ele>
        <time>2021-02-20T12:21:55.000Z</time>
      </trkpt>
      <trkpt lat="45.85753" lon="5.42798">
        <ele>297.6</ele>
        <time>2021-02-20T12:21:56.000Z</time>
      </trkpt>
      <trkpt lat="45.85755" lon="5.42802">
        <ele>297.4</ele>
        <time>2021-02-20T12:21:57.000Z</time>
      </trkpt>
      <trkpt lat="45.85762" lon="5.42835">
        <ele>298</ele>
        <time>2021-02-20T12:22:04.000Z</time>
      </trkpt>
      <trkpt lat="45.85763" lon="5.4284">
        <ele>298</ele>
        <time>2021-02-20T12:22:05.000Z</time>
      </trkpt>
      <trkpt lat="45.85765" lon="5.4285">
        <ele>298.2</ele>
        <time>2021-02-20T12:22:07.000Z</time>
      </trkpt>
      <trkpt lat="45.85766" lon="5.42855">
        <ele>298.4</ele>
        <time>2021-02-20T12:22:08.000Z</time>
      </trkpt>
      <trkpt lat="45.85767" lon="5.42859">
        <ele>298.4</ele>
        <time>2021-02-20T12:22:09.000Z</time>
      </trkpt>
      <trkpt lat="45.85767" lon="5.42864">
        <ele>298.4</ele>
        <time>2021-02-20T12:22:10.000Z</time>
      </trkpt>
      <trkpt lat="45.85768" lon="5.42868">
        <ele>298.6</ele>
        <time>2021-02-20T12:22:11.000Z</time>
      </trkpt>
      <trkpt lat="45.85769" lon="5.42872">
        <ele>298.6</ele>
        <time>2021-02-20T12:22:12.000Z</time>
      </trkpt>
      <trkpt lat="45.8577" lon="5.42875">
        <ele>298.6</ele>
        <time>2021-02-20T12:22:13.000Z</time>
      </trkpt>
      <trkpt lat="45.8577" lon="5.42878">
        <ele>298.6</ele>
        <time>2021-02-20T12:22:14.000Z</time>
      </trkpt>
      <trkpt lat="45.85771" lon="5.42881">
        <ele>298.6</ele>
        <time>2021-02-20T12:22:15.000Z</time>
      </trkpt>
      <trkpt lat="45.85771" lon="5.42884">
        <ele>299</ele>
        <time>2021-02-20T12:22:16.000Z</time>
      </trkpt>
      <trkpt lat="45.85772" lon="5.42887">
        <ele>299</ele>
        <time>2021-02-20T12:22:17.000Z</time>
      </trkpt>
      <trkpt lat="45.85772" lon="5.4289">
        <ele>299</ele>
        <time>2021-02-20T12:22:18.000Z</time>
      </trkpt>
      <trkpt lat="45.85772" lon="5.42893">
        <ele>299.2</ele>
        <time>2021-02-20T12:22:19.000Z</time>
      </trkpt>
      <trkpt lat="45.85771" lon="5.42903">
        <ele>299.4</ele>
        <time>2021-02-20T12:22:22.000Z</time>
      </trkpt>
      <trkpt lat="45.8577" lon="5.42907">
        <ele>299.4</ele>
        <time>2021-02-20T12:22:23.000Z</time>
      </trkpt>
      <trkpt lat="45.85768" lon="5.4291">
        <ele>299.4</ele>
        <time>2021-02-20T12:22:24.000Z</time>
      </trkpt>
      <trkpt lat="45.85767" lon="5.42914">
        <ele>299.4</ele>
        <time>2021-02-20T12:22:25.000Z</time>
      </trkpt>
      <trkpt lat="45.85765" lon="5.42917">
        <ele>299.4</ele>
        <time>2021-02-20T12:22:26.000Z</time>
      </trkpt>
      <trkpt lat="45.85763" lon="5.42921">
        <ele>299.4</ele>
        <time>2021-02-20T12:22:27.000Z</time>
      </trkpt>
      <trkpt lat="45.85754" lon="5.42937">
        <ele>299.4</ele>
        <time>2021-02-20T12:22:32.000Z</time>
      </trkpt>
      <trkpt lat="45.85752" lon="5.42941">
        <ele>299.2</ele>
        <time>2021-02-20T12:22:33.000Z</time>
      </trkpt>
      <trkpt lat="45.85741" lon="5.42964">
        <ele>298.2</ele>
        <time>2021-02-20T12:22:39.000Z</time>
      </trkpt>
      <trkpt lat="45.8574" lon="5.42969">
        <ele>298.2</ele>
        <time>2021-02-20T12:22:40.000Z</time>
      </trkpt>
      <trkpt lat="45.8574" lon="5.42974">
        <ele>298.2</ele>
        <time>2021-02-20T12:22:41.000Z</time>
      </trkpt>
      <trkpt lat="45.85739" lon="5.4298">
        <ele>298</ele>
        <time>2021-02-20T12:22:42.000Z</time>
      </trkpt>
      <trkpt lat="45.85738" lon="5.42985">
        <ele>298</ele>
        <time>2021-02-20T12:22:43.000Z</time>
      </trkpt>
      <trkpt lat="45.85737" lon="5.4299">
        <ele>297.8</ele>
        <time>2021-02-20T12:22:44.000Z</time>
      </trkpt>
      <trkpt lat="45.85736" lon="5.42996">
        <ele>297.6</ele>
        <time>2021-02-20T12:22:45.000Z</time>
      </trkpt>
      <trkpt lat="45.85735" lon="5.43002">
        <ele>297.6</ele>
        <time>2021-02-20T12:22:46.000Z</time>
      </trkpt>
      <trkpt lat="45.85733" lon="5.43014">
        <ele>297.2</ele>
        <time>2021-02-20T12:22:48.000Z</time>
      </trkpt>
      <trkpt lat="45.85731" lon="5.43028">
        <ele>297.2</ele>
        <time>2021-02-20T12:22:50.000Z</time>
      </trkpt>
      <trkpt lat="45.8573" lon="5.43035">
        <ele>297</ele>
        <time>2021-02-20T12:22:51.000Z</time>
      </trkpt>
      <trkpt lat="45.85727" lon="5.43047">
        <ele>297</ele>
        <time>2021-02-20T12:22:53.000Z</time>
      </trkpt>
      <trkpt lat="45.85725" lon="5.43054">
        <ele>296.8</ele>
        <time>2021-02-20T12:22:54.000Z</time>
      </trkpt>
      <trkpt lat="45.85722" lon="5.4306">
        <ele>296.8</ele>
        <time>2021-02-20T12:22:55.000Z</time>
      </trkpt>
      <trkpt lat="45.85719" lon="5.43065">
        <ele>296.4</ele>
        <time>2021-02-20T12:22:56.000Z</time>
      </trkpt>
      <trkpt lat="45.85714" lon="5.43076">
        <ele>295.4</ele>
        <time>2021-02-20T12:22:58.000Z</time>
      </trkpt>
      <trkpt lat="45.85702" lon="5.43094">
        <ele>294.2</ele>
        <time>2021-02-20T12:23:01.000Z</time>
      </trkpt>
      <trkpt lat="45.85699" lon="5.43101">
        <ele>294.2</ele>
        <time>2021-02-20T12:23:02.000Z</time>
      </trkpt>
      <trkpt lat="45.8569" lon="5.43115">
        <ele>293.4</ele>
        <time>2021-02-20T12:23:04.000Z</time>
      </trkpt>
      <trkpt lat="45.85679" lon="5.43127">
        <ele>293.2</ele>
        <time>2021-02-20T12:23:06.000Z</time>
      </trkpt>
      <trkpt lat="45.85667" lon="5.43138">
        <ele>292.4</ele>
        <time>2021-02-20T12:23:08.000Z</time>
      </trkpt>
      <trkpt lat="45.85661" lon="5.43143">
        <ele>291.8</ele>
        <time>2021-02-20T12:23:09.000Z</time>
      </trkpt>
      <trkpt lat="45.85655" lon="5.43147">
        <ele>291.6</ele>
        <time>2021-02-20T12:23:10.000Z</time>
      </trkpt>
      <trkpt lat="45.85648" lon="5.43152">
        <ele>291.2</ele>
        <time>2021-02-20T12:23:11.000Z</time>
      </trkpt>
      <trkpt lat="45.85642" lon="5.43157">
        <ele>290.8</ele>
        <time>2021-02-20T12:23:12.000Z</time>
      </trkpt>
      <trkpt lat="45.85637" lon="5.43163">
        <ele>290.6</ele>
        <time>2021-02-20T12:23:13.000Z</time>
      </trkpt>
      <trkpt lat="45.8563" lon="5.43179">
        <ele>290.4</ele>
        <time>2021-02-20T12:23:15.000Z</time>
      </trkpt>
      <trkpt lat="45.85628" lon="5.43189">
        <ele>290.2</ele>
        <time>2021-02-20T12:23:16.000Z</time>
      </trkpt>
      <trkpt lat="45.85626" lon="5.43198">
        <ele>289.2</ele>
        <time>2021-02-20T12:23:17.000Z</time>
      </trkpt>
      <trkpt lat="45.85625" lon="5.43209">
        <ele>288.2</ele>
        <time>2021-02-20T12:23:18.000Z</time>
      </trkpt>
      <trkpt lat="45.85625" lon="5.43219">
        <ele>287.4</ele>
        <time>2021-02-20T12:23:19.000Z</time>
      </trkpt>
      <trkpt lat="45.85623" lon="5.43229">
        <ele>287</ele>
        <time>2021-02-20T12:23:20.000Z</time>
      </trkpt>
      <trkpt lat="45.85622" lon="5.43239">
        <ele>286.6</ele>
        <time>2021-02-20T12:23:21.000Z</time>
      </trkpt>
      <trkpt lat="45.85621" lon="5.43248">
        <ele>286.4</ele>
        <time>2021-02-20T12:23:22.000Z</time>
      </trkpt>
      <trkpt lat="45.85619" lon="5.43257">
        <ele>286.4</ele>
        <time>2021-02-20T12:23:23.000Z</time>
      </trkpt>
      <trkpt lat="45.85617" lon="5.43264">
        <ele>286.2</ele>
        <time>2021-02-20T12:23:24.000Z</time>
      </trkpt>
      <trkpt lat="45.85616" lon="5.43272">
        <ele>286.2</ele>
        <time>2021-02-20T12:23:25.000Z</time>
      </trkpt>
      <trkpt lat="45.85615" lon="5.4328">
        <ele>286.2</ele>
        <time>2021-02-20T12:23:26.000Z</time>
      </trkpt>
      <trkpt lat="45.85614" lon="5.43288">
        <ele>286</ele>
        <time>2021-02-20T12:23:27.000Z</time>
      </trkpt>
      <trkpt lat="45.85612" lon="5.43295">
        <ele>286</ele>
        <time>2021-02-20T12:23:28.000Z</time>
      </trkpt>
      <trkpt lat="45.85612" lon="5.43303">
        <ele>285.8</ele>
        <time>2021-02-20T12:23:29.000Z</time>
      </trkpt>
      <trkpt lat="45.85611" lon="5.43309">
        <ele>285.8</ele>
        <time>2021-02-20T12:23:30.000Z</time>
      </trkpt>
      <trkpt lat="45.85609" lon="5.43316">
        <ele>285.8</ele>
        <time>2021-02-20T12:23:31.000Z</time>
      </trkpt>
      <trkpt lat="45.85602" lon="5.43327">
        <ele>285.4</ele>
        <time>2021-02-20T12:23:33.000Z</time>
      </trkpt>
      <trkpt lat="45.85597" lon="5.43332">
        <ele>285.2</ele>
        <time>2021-02-20T12:23:34.000Z</time>
      </trkpt>
      <trkpt lat="45.85593" lon="5.43337">
        <ele>285</ele>
        <time>2021-02-20T12:23:35.000Z</time>
      </trkpt>
      <trkpt lat="45.85588" lon="5.43342">
        <ele>285</ele>
        <time>2021-02-20T12:23:36.000Z</time>
      </trkpt>
      <trkpt lat="45.85584" lon="5.43346">
        <ele>284.8</ele>
        <time>2021-02-20T12:23:37.000Z</time>
      </trkpt>
      <trkpt lat="45.85579" lon="5.4335">
        <ele>284.6</ele>
        <time>2021-02-20T12:23:38.000Z</time>
      </trkpt>
      <trkpt lat="45.85575" lon="5.43354">
        <ele>284.4</ele>
        <time>2021-02-20T12:23:39.000Z</time>
      </trkpt>
      <trkpt lat="45.85572" lon="5.43357">
        <ele>283.4</ele>
        <time>2021-02-20T12:23:40.000Z</time>
      </trkpt>
      <trkpt lat="45.85569" lon="5.43362">
        <ele>283</ele>
        <time>2021-02-20T12:23:41.000Z</time>
      </trkpt>
      <trkpt lat="45.85568" lon="5.43374">
        <ele>282.6</ele>
        <time>2021-02-20T12:23:43.000Z</time>
      </trkpt>
      <trkpt lat="45.85567" lon="5.43389">
        <ele>282.4</ele>
        <time>2021-02-20T12:23:45.000Z</time>
      </trkpt>
      <trkpt lat="45.85567" lon="5.43396">
        <ele>282.2</ele>
        <time>2021-02-20T12:23:46.000Z</time>
      </trkpt>
      <trkpt lat="45.85565" lon="5.43418">
        <ele>280.6</ele>
        <time>2021-02-20T12:23:49.000Z</time>
      </trkpt>
      <trkpt lat="45.8556" lon="5.4343">
        <ele>280.4</ele>
        <time>2021-02-20T12:23:51.000Z</time>
      </trkpt>
      <trkpt lat="45.85556" lon="5.43434">
        <ele>280.4</ele>
        <time>2021-02-20T12:23:52.000Z</time>
      </trkpt>
      <trkpt lat="45.85552" lon="5.43438">
        <ele>280.2</ele>
        <time>2021-02-20T12:23:53.000Z</time>
      </trkpt>
      <trkpt lat="45.85548" lon="5.43441">
        <ele>280</ele>
        <time>2021-02-20T12:23:54.000Z</time>
      </trkpt>
      <trkpt lat="45.85544" lon="5.43443">
        <ele>280</ele>
        <time>2021-02-20T12:23:55.000Z</time>
      </trkpt>
      <trkpt lat="45.8554" lon="5.43446">
        <ele>280</ele>
        <time>2021-02-20T12:23:56.000Z</time>
      </trkpt>
      <trkpt lat="45.85536" lon="5.43448">
        <ele>280</ele>
        <time>2021-02-20T12:23:57.000Z</time>
      </trkpt>
      <trkpt lat="45.85533" lon="5.43451">
        <ele>280</ele>
        <time>2021-02-20T12:23:58.000Z</time>
      </trkpt>
      <trkpt lat="45.8553" lon="5.43454">
        <ele>280</ele>
        <time>2021-02-20T12:23:59.000Z</time>
      </trkpt>
      <trkpt lat="45.85528" lon="5.43457">
        <ele>280</ele>
        <time>2021-02-20T12:24:00.000Z</time>
      </trkpt>
      <trkpt lat="45.85526" lon="5.43459">
        <ele>280.2</ele>
        <time>2021-02-20T12:24:01.000Z</time>
      </trkpt>
      <trkpt lat="45.85523" lon="5.43461">
        <ele>280.2</ele>
        <time>2021-02-20T12:24:02.000Z</time>
      </trkpt>
      <trkpt lat="45.85521" lon="5.43464">
        <ele>280</ele>
        <time>2021-02-20T12:24:03.000Z</time>
      </trkpt>
      <trkpt lat="45.85519" lon="5.43465">
        <ele>280</ele>
        <time>2021-02-20T12:24:04.000Z</time>
      </trkpt>
      <trkpt lat="45.85517" lon="5.43467">
        <ele>280.2</ele>
        <time>2021-02-20T12:24:05.000Z</time>
      </trkpt>
      <trkpt lat="45.85515" lon="5.43468">
        <ele>280.6</ele>
        <time>2021-02-20T12:24:06.000Z</time>
      </trkpt>
      <trkpt lat="45.85512" lon="5.43469">
        <ele>280.8</ele>
        <time>2021-02-20T12:24:07.000Z</time>
      </trkpt>
      <trkpt lat="45.8551" lon="5.4347">
        <ele>281</ele>
        <time>2021-02-20T12:24:08.000Z</time>
      </trkpt>
      <trkpt lat="45.85509" lon="5.43471">
        <ele>281.2</ele>
        <time>2021-02-20T12:24:09.000Z</time>
      </trkpt>
      <trkpt lat="45.85506" lon="5.43472">
        <ele>281.4</ele>
        <time>2021-02-20T12:24:10.000Z</time>
      </trkpt>
      <trkpt lat="45.85504" lon="5.43473">
        <ele>281.4</ele>
        <time>2021-02-20T12:24:11.000Z</time>
      </trkpt>
      <trkpt lat="45.85502" lon="5.43475">
        <ele>281.6</ele>
        <time>2021-02-20T12:24:12.000Z</time>
      </trkpt>
      <trkpt lat="45.85499" lon="5.43476">
        <ele>282.2</ele>
        <time>2021-02-20T12:24:13.000Z</time>
      </trkpt>
      <trkpt lat="45.85497" lon="5.43478">
        <ele>282.6</ele>
        <time>2021-02-20T12:24:14.000Z</time>
      </trkpt>
      <trkpt lat="45.85495" lon="5.43479">
        <ele>283.2</ele>
        <time>2021-02-20T12:24:15.000Z</time>
      </trkpt>
      <trkpt lat="45.85492" lon="5.4348">
        <ele>283.4</ele>
        <time>2021-02-20T12:24:16.000Z</time>
      </trkpt>
      <trkpt lat="45.8549" lon="5.43481">
        <ele>283.6</ele>
        <time>2021-02-20T12:24:17.000Z</time>
      </trkpt>
      <trkpt lat="45.85487" lon="5.43482">
        <ele>283.8</ele>
        <time>2021-02-20T12:24:18.000Z</time>
      </trkpt>
      <trkpt lat="45.85485" lon="5.43483">
        <ele>284</ele>
        <time>2021-02-20T12:24:19.000Z</time>
      </trkpt>
      <trkpt lat="45.85483" lon="5.43483">
        <ele>284</ele>
        <time>2021-02-20T12:24:20.000Z</time>
      </trkpt>
      <trkpt lat="45.8548" lon="5.43484">
        <ele>284.2</ele>
        <time>2021-02-20T12:24:21.000Z</time>
      </trkpt>
      <trkpt lat="45.85478" lon="5.43485">
        <ele>284.4</ele>
        <time>2021-02-20T12:24:22.000Z</time>
      </trkpt>
      <trkpt lat="45.85476" lon="5.43485">
        <ele>284.6</ele>
        <time>2021-02-20T12:24:23.000Z</time>
      </trkpt>
      <trkpt lat="45.85474" lon="5.43485">
        <ele>284.8</ele>
        <time>2021-02-20T12:24:24.000Z</time>
      </trkpt>
      <trkpt lat="45.85472" lon="5.43486">
        <ele>284.8</ele>
        <time>2021-02-20T12:24:25.000Z</time>
      </trkpt>
      <trkpt lat="45.8547" lon="5.43487">
        <ele>284.8</ele>
        <time>2021-02-20T12:24:26.000Z</time>
      </trkpt>
      <trkpt lat="45.85468" lon="5.43487">
        <ele>285.2</ele>
        <time>2021-02-20T12:24:27.000Z</time>
      </trkpt>
      <trkpt lat="45.85466" lon="5.43487">
        <ele>285.4</ele>
        <time>2021-02-20T12:24:28.000Z</time>
      </trkpt>
      <trkpt lat="45.85464" lon="5.43488">
        <ele>285.6</ele>
        <time>2021-02-20T12:24:29.000Z</time>
      </trkpt>
      <trkpt lat="45.85462" lon="5.43489">
        <ele>285.8</ele>
        <time>2021-02-20T12:24:30.000Z</time>
      </trkpt>
      <trkpt lat="45.8546" lon="5.4349">
        <ele>286</ele>
        <time>2021-02-20T12:24:31.000Z</time>
      </trkpt>
      <trkpt lat="45.85458" lon="5.43491">
        <ele>286.4</ele>
        <time>2021-02-20T12:24:32.000Z</time>
      </trkpt>
      <trkpt lat="45.85457" lon="5.43493">
        <ele>286.6</ele>
        <time>2021-02-20T12:24:33.000Z</time>
      </trkpt>
      <trkpt lat="45.85456" lon="5.43494">
        <ele>286.8</ele>
        <time>2021-02-20T12:24:34.000Z</time>
      </trkpt>
      <trkpt lat="45.85455" lon="5.43496">
        <ele>287</ele>
        <time>2021-02-20T12:24:35.000Z</time>
      </trkpt>
      <trkpt lat="45.85455" lon="5.43497">
        <ele>287.2</ele>
        <time>2021-02-20T12:24:36.000Z</time>
      </trkpt>
      <trkpt lat="45.85455" lon="5.43499">
        <ele>287.4</ele>
        <time>2021-02-20T12:24:37.000Z</time>
      </trkpt>
      <trkpt lat="45.85455" lon="5.435">
        <ele>287.4</ele>
        <time>2021-02-20T12:24:38.000Z</time>
      </trkpt>
      <trkpt lat="45.85455" lon="5.43502">
        <ele>287.8</ele>
        <time>2021-02-20T12:24:39.000Z</time>
      </trkpt>
      <trkpt lat="45.85456" lon="5.43503">
        <ele>288</ele>
        <time>2021-02-20T12:24:40.000Z</time>
      </trkpt>
      <trkpt lat="45.85457" lon="5.43504">
        <ele>288.2</ele>
        <time>2021-02-20T12:24:41.000Z</time>
      </trkpt>
      <trkpt lat="45.85458" lon="5.43505">
        <ele>288.6</ele>
        <time>2021-02-20T12:24:42.000Z</time>
      </trkpt>
      <trkpt lat="45.85459" lon="5.43506">
        <ele>288.8</ele>
        <time>2021-02-20T12:24:43.000Z</time>
      </trkpt>
      <trkpt lat="45.8546" lon="5.43508">
        <ele>289.2</ele>
        <time>2021-02-20T12:24:44.000Z</time>
      </trkpt>
      <trkpt lat="45.85461" lon="5.43508">
        <ele>289.4</ele>
        <time>2021-02-20T12:24:45.000Z</time>
      </trkpt>
      <trkpt lat="45.85462" lon="5.43509">
        <ele>289.4</ele>
        <time>2021-02-20T12:24:46.000Z</time>
      </trkpt>
      <trkpt lat="45.85463" lon="5.43509">
        <ele>289.8</ele>
        <time>2021-02-20T12:24:47.000Z</time>
      </trkpt>
      <trkpt lat="45.85465" lon="5.43509">
        <ele>290.4</ele>
        <time>2021-02-20T12:24:48.000Z</time>
      </trkpt>
      <trkpt lat="45.85467" lon="5.43508">
        <ele>290.6</ele>
        <time>2021-02-20T12:24:49.000Z</time>
      </trkpt>
      <trkpt lat="45.85468" lon="5.43508">
        <ele>290.8</ele>
        <time>2021-02-20T12:24:50.000Z</time>
      </trkpt>
      <trkpt lat="45.8547" lon="5.43508">
        <ele>291.2</ele>
        <time>2021-02-20T12:24:51.000Z</time>
      </trkpt>
      <trkpt lat="45.85471" lon="5.43508">
        <ele>291.4</ele>
        <time>2021-02-20T12:24:52.000Z</time>
      </trkpt>
      <trkpt lat="45.85472" lon="5.43508">
        <ele>291.6</ele>
        <time>2021-02-20T12:24:53.000Z</time>
      </trkpt>
      <trkpt lat="45.85473" lon="5.43508">
        <ele>291.8</ele>
        <time>2021-02-20T12:24:54.000Z</time>
      </trkpt>
      <trkpt lat="45.85474" lon="5.43509">
        <ele>292</ele>
        <time>2021-02-20T12:24:55.000Z</time>
      </trkpt>
      <trkpt lat="45.85476" lon="5.43509">
        <ele>292.2</ele>
        <time>2021-02-20T12:24:56.000Z</time>
      </trkpt>
      <trkpt lat="45.85477" lon="5.43509">
        <ele>292.4</ele>
        <time>2021-02-20T12:24:57.000Z</time>
      </trkpt>
      <trkpt lat="45.85478" lon="5.43509">
        <ele>292.6</ele>
        <time>2021-02-20T12:24:58.000Z</time>
      </trkpt>
      <trkpt lat="45.8548" lon="5.43509">
        <ele>292.8</ele>
        <time>2021-02-20T12:24:59.000Z</time>
      </trkpt>
      <trkpt lat="45.85482" lon="5.43509">
        <ele>293.2</ele>
        <time>2021-02-20T12:25:00.000Z</time>
      </trkpt>
      <trkpt lat="45.85484" lon="5.43509">
        <ele>293.6</ele>
        <time>2021-02-20T12:25:01.000Z</time>
      </trkpt>
      <trkpt lat="45.85486" lon="5.43508">
        <ele>293.6</ele>
        <time>2021-02-20T12:25:02.000Z</time>
      </trkpt>
      <trkpt lat="45.85488" lon="5.43508">
        <ele>293.8</ele>
        <time>2021-02-20T12:25:03.000Z</time>
      </trkpt>
      <trkpt lat="45.8549" lon="5.43507">
        <ele>294</ele>
        <time>2021-02-20T12:25:04.000Z</time>
      </trkpt>
      <trkpt lat="45.85492" lon="5.43507">
        <ele>294</ele>
        <time>2021-02-20T12:25:05.000Z</time>
      </trkpt>
      <trkpt lat="45.85494" lon="5.43507">
        <ele>294</ele>
        <time>2021-02-20T12:25:06.000Z</time>
      </trkpt>
      <trkpt lat="45.85495" lon="5.43507">
        <ele>294.4</ele>
        <time>2021-02-20T12:25:07.000Z</time>
      </trkpt>
      <trkpt lat="45.85497" lon="5.43506">
        <ele>294.4</ele>
        <time>2021-02-20T12:25:08.000Z</time>
      </trkpt>
      <trkpt lat="45.85498" lon="5.43505">
        <ele>294.6</ele>
        <time>2021-02-20T12:25:09.000Z</time>
      </trkpt>
      <trkpt lat="45.855" lon="5.43504">
        <ele>294.8</ele>
        <time>2021-02-20T12:25:10.000Z</time>
      </trkpt>
      <trkpt lat="45.85501" lon="5.43504">
        <ele>295</ele>
        <time>2021-02-20T12:25:11.000Z</time>
      </trkpt>
      <trkpt lat="45.85503" lon="5.43504">
        <ele>295.4</ele>
        <time>2021-02-20T12:25:12.000Z</time>
      </trkpt>
      <trkpt lat="45.85505" lon="5.43503">
        <ele>295.6</ele>
        <time>2021-02-20T12:25:13.000Z</time>
      </trkpt>
      <trkpt lat="45.85506" lon="5.43503">
        <ele>295.6</ele>
        <time>2021-02-20T12:25:14.000Z</time>
      </trkpt>
      <trkpt lat="45.85508" lon="5.43502">
        <ele>295.8</ele>
        <time>2021-02-20T12:25:15.000Z</time>
      </trkpt>
      <trkpt lat="45.8551" lon="5.43501">
        <ele>296</ele>
        <time>2021-02-20T12:25:16.000Z</time>
      </trkpt>
      <trkpt lat="45.85512" lon="5.435">
        <ele>296.2</ele>
        <time>2021-02-20T12:25:17.000Z</time>
      </trkpt>
      <trkpt lat="45.85514" lon="5.43499">
        <ele>296.4</ele>
        <time>2021-02-20T12:25:18.000Z</time>
      </trkpt>
      <trkpt lat="45.85516" lon="5.43498">
        <ele>296.6</ele>
        <time>2021-02-20T12:25:19.000Z</time>
      </trkpt>
      <trkpt lat="45.85517" lon="5.43497">
        <ele>296.8</ele>
        <time>2021-02-20T12:25:20.000Z</time>
      </trkpt>
      <trkpt lat="45.85519" lon="5.43495">
        <ele>297.2</ele>
        <time>2021-02-20T12:25:21.000Z</time>
      </trkpt>
      <trkpt lat="45.85521" lon="5.43494">
        <ele>297.4</ele>
        <time>2021-02-20T12:25:22.000Z</time>
      </trkpt>
      <trkpt lat="45.85523" lon="5.43493">
        <ele>297.6</ele>
        <time>2021-02-20T12:25:23.000Z</time>
      </trkpt>
      <trkpt lat="45.85525" lon="5.43491">
        <ele>297.6</ele>
        <time>2021-02-20T12:25:24.000Z</time>
      </trkpt>
      <trkpt lat="45.85527" lon="5.43489">
        <ele>297.8</ele>
        <time>2021-02-20T12:25:25.000Z</time>
      </trkpt>
      <trkpt lat="45.8553" lon="5.43488">
        <ele>297.8</ele>
        <time>2021-02-20T12:25:26.000Z</time>
      </trkpt>
      <trkpt lat="45.85532" lon="5.43488">
        <ele>298</ele>
        <time>2021-02-20T12:25:27.000Z</time>
      </trkpt>
      <trkpt lat="45.85534" lon="5.43487">
        <ele>298.4</ele>
        <time>2021-02-20T12:25:28.000Z</time>
      </trkpt>
      <trkpt lat="45.85536" lon="5.43486">
        <ele>298.6</ele>
        <time>2021-02-20T12:25:29.000Z</time>
      </trkpt>
      <trkpt lat="45.85538" lon="5.43487">
        <ele>298.6</ele>
        <time>2021-02-20T12:25:30.000Z</time>
      </trkpt>
      <trkpt lat="45.85539" lon="5.43488">
        <ele>298.4</ele>
        <time>2021-02-20T12:25:31.000Z</time>
      </trkpt>
      <trkpt lat="45.8554" lon="5.43491">
        <ele>298.8</ele>
        <time>2021-02-20T12:25:32.000Z</time>
      </trkpt>
      <trkpt lat="45.85541" lon="5.43493">
        <ele>298.8</ele>
        <time>2021-02-20T12:25:33.000Z</time>
      </trkpt>
      <trkpt lat="45.85541" lon="5.43496">
        <ele>299.2</ele>
        <time>2021-02-20T12:25:34.000Z</time>
      </trkpt>
      <trkpt lat="45.85541" lon="5.43498">
        <ele>299.2</ele>
        <time>2021-02-20T12:25:35.000Z</time>
      </trkpt>
      <trkpt lat="45.85541" lon="5.435">
        <ele>299.8</ele>
        <time>2021-02-20T12:25:36.000Z</time>
      </trkpt>
      <trkpt lat="45.8554" lon="5.43502">
        <ele>300</ele>
        <time>2021-02-20T12:25:37.000Z</time>
      </trkpt>
      <trkpt lat="45.85539" lon="5.43504">
        <ele>300.2</ele>
        <time>2021-02-20T12:25:38.000Z</time>
      </trkpt>
      <trkpt lat="45.85538" lon="5.43506">
        <ele>300.2</ele>
        <time>2021-02-20T12:25:39.000Z</time>
      </trkpt>
      <trkpt lat="45.85537" lon="5.43507">
        <ele>300.4</ele>
        <time>2021-02-20T12:25:40.000Z</time>
      </trkpt>
      <trkpt lat="45.85535" lon="5.43508">
        <ele>300.6</ele>
        <time>2021-02-20T12:25:41.000Z</time>
      </trkpt>
      <trkpt lat="45.85533" lon="5.43508">
        <ele>300.6</ele>
        <time>2021-02-20T12:25:42.000Z</time>
      </trkpt>
      <trkpt lat="45.85531" lon="5.43509">
        <ele>300.8</ele>
        <time>2021-02-20T12:25:43.000Z</time>
      </trkpt>
      <trkpt lat="45.85531" lon="5.4351">
        <ele>301.2</ele>
        <time>2021-02-20T12:25:44.000Z</time>
      </trkpt>
      <trkpt lat="45.8553" lon="5.43511">
        <ele>301</ele>
        <time>2021-02-20T12:25:45.000Z</time>
      </trkpt>
      <trkpt lat="45.85529" lon="5.43513">
        <ele>301</ele>
        <time>2021-02-20T12:25:46.000Z</time>
      </trkpt>
      <trkpt lat="45.85528" lon="5.43515">
        <ele>301.2</ele>
        <time>2021-02-20T12:25:47.000Z</time>
      </trkpt>
      <trkpt lat="45.85526" lon="5.43516">
        <ele>301.4</ele>
        <time>2021-02-20T12:25:48.000Z</time>
      </trkpt>
      <trkpt lat="45.85525" lon="5.43518">
        <ele>301.4</ele>
        <time>2021-02-20T12:25:49.000Z</time>
      </trkpt>
      <trkpt lat="45.85525" lon="5.4352">
        <ele>301.4</ele>
        <time>2021-02-20T12:25:50.000Z</time>
      </trkpt>
      <trkpt lat="45.85524" lon="5.43521">
        <ele>301.6</ele>
        <time>2021-02-20T12:25:51.000Z</time>
      </trkpt>
      <trkpt lat="45.85522" lon="5.43523">
        <ele>302</ele>
        <time>2021-02-20T12:25:52.000Z</time>
      </trkpt>
      <trkpt lat="45.85521" lon="5.43525">
        <ele>302.4</ele>
        <time>2021-02-20T12:25:53.000Z</time>
      </trkpt>
      <trkpt lat="45.8552" lon="5.43527">
        <ele>302.6</ele>
        <time>2021-02-20T12:25:54.000Z</time>
      </trkpt>
      <trkpt lat="45.85519" lon="5.43529">
        <ele>302.6</ele>
        <time>2021-02-20T12:25:55.000Z</time>
      </trkpt>
      <trkpt lat="45.85518" lon="5.43531">
        <ele>302.8</ele>
        <time>2021-02-20T12:25:56.000Z</time>
      </trkpt>
      <trkpt lat="45.85516" lon="5.43533">
        <ele>303</ele>
        <time>2021-02-20T12:25:57.000Z</time>
      </trkpt>
      <trkpt lat="45.85514" lon="5.43535">
        <ele>303.4</ele>
        <time>2021-02-20T12:25:58.000Z</time>
      </trkpt>
      <trkpt lat="45.85511" lon="5.43537">
        <ele>303.8</ele>
        <time>2021-02-20T12:25:59.000Z</time>
      </trkpt>
      <trkpt lat="45.85509" lon="5.43539">
        <ele>304</ele>
        <time>2021-02-20T12:26:00.000Z</time>
      </trkpt>
      <trkpt lat="45.85507" lon="5.43541">
        <ele>304.2</ele>
        <time>2021-02-20T12:26:01.000Z</time>
      </trkpt>
      <trkpt lat="45.85505" lon="5.43542">
        <ele>304.4</ele>
        <time>2021-02-20T12:26:02.000Z</time>
      </trkpt>
      <trkpt lat="45.85503" lon="5.43543">
        <ele>304.6</ele>
        <time>2021-02-20T12:26:03.000Z</time>
      </trkpt>
      <trkpt lat="45.85501" lon="5.43545">
        <ele>304.8</ele>
        <time>2021-02-20T12:26:04.000Z</time>
      </trkpt>
      <trkpt lat="45.85498" lon="5.43546">
        <ele>304.8</ele>
        <time>2021-02-20T12:26:05.000Z</time>
      </trkpt>
      <trkpt lat="45.85496" lon="5.43547">
        <ele>305</ele>
        <time>2021-02-20T12:26:06.000Z</time>
      </trkpt>
      <trkpt lat="45.85494" lon="5.43548">
        <ele>305.2</ele>
        <time>2021-02-20T12:26:07.000Z</time>
      </trkpt>
      <trkpt lat="45.85492" lon="5.43548">
        <ele>305.2</ele>
        <time>2021-02-20T12:26:08.000Z</time>
      </trkpt>
      <trkpt lat="45.8549" lon="5.43549">
        <ele>305.4</ele>
        <time>2021-02-20T12:26:09.000Z</time>
      </trkpt>
      <trkpt lat="45.85488" lon="5.43549">
        <ele>305.4</ele>
        <time>2021-02-20T12:26:10.000Z</time>
      </trkpt>
      <trkpt lat="45.85486" lon="5.43549">
        <ele>305.6</ele>
        <time>2021-02-20T12:26:11.000Z</time>
      </trkpt>
      <trkpt lat="45.85484" lon="5.4355">
        <ele>305.8</ele>
        <time>2021-02-20T12:26:12.000Z</time>
      </trkpt>
      <trkpt lat="45.85483" lon="5.4355">
        <ele>306.2</ele>
        <time>2021-02-20T12:26:13.000Z</time>
      </trkpt>
      <trkpt lat="45.8548" lon="5.43551">
        <ele>306.6</ele>
        <time>2021-02-20T12:26:14.000Z</time>
      </trkpt>
      <trkpt lat="45.85478" lon="5.43551">
        <ele>306.8</ele>
        <time>2021-02-20T12:26:15.000Z</time>
      </trkpt>
      <trkpt lat="45.85476" lon="5.43551">
        <ele>307</ele>
        <time>2021-02-20T12:26:16.000Z</time>
      </trkpt>
      <trkpt lat="45.85475" lon="5.43551">
        <ele>307.2</ele>
        <time>2021-02-20T12:26:17.000Z</time>
      </trkpt>
      <trkpt lat="45.85473" lon="5.43551">
        <ele>307.2</ele>
        <time>2021-02-20T12:26:18.000Z</time>
      </trkpt>
      <trkpt lat="45.85471" lon="5.43552">
        <ele>307.2</ele>
        <time>2021-02-20T12:26:19.000Z</time>
      </trkpt>
      <trkpt lat="45.8547" lon="5.43552">
        <ele>307.4</ele>
        <time>2021-02-20T12:26:20.000Z</time>
      </trkpt>
      <trkpt lat="45.85468" lon="5.43551">
        <ele>307.8</ele>
        <time>2021-02-20T12:26:21.000Z</time>
      </trkpt>
      <trkpt lat="45.85466" lon="5.43551">
        <ele>307.8</ele>
        <time>2021-02-20T12:26:22.000Z</time>
      </trkpt>
      <trkpt lat="45.85464" lon="5.43551">
        <ele>307.8</ele>
        <time>2021-02-20T12:26:23.000Z</time>
      </trkpt>
      <trkpt lat="45.85463" lon="5.43551">
        <ele>307.8</ele>
        <time>2021-02-20T12:26:24.000Z</time>
      </trkpt>
      <trkpt lat="45.85461" lon="5.43551">
        <ele>308</ele>
        <time>2021-02-20T12:26:25.000Z</time>
      </trkpt>
      <trkpt lat="45.85459" lon="5.43551">
        <ele>308</ele>
        <time>2021-02-20T12:26:26.000Z</time>
      </trkpt>
      <trkpt lat="45.85457" lon="5.43551">
        <ele>308.2</ele>
        <time>2021-02-20T12:26:27.000Z</time>
      </trkpt>
      <trkpt lat="45.85455" lon="5.4355">
        <ele>308.2</ele>
        <time>2021-02-20T12:26:28.000Z</time>
      </trkpt>
      <trkpt lat="45.85453" lon="5.4355">
        <ele>308.4</ele>
        <time>2021-02-20T12:26:29.000Z</time>
      </trkpt>
      <trkpt lat="45.85451" lon="5.43551">
        <ele>308.6</ele>
        <time>2021-02-20T12:26:30.000Z</time>
      </trkpt>
      <trkpt lat="45.85449" lon="5.43551">
        <ele>308.8</ele>
        <time>2021-02-20T12:26:31.000Z</time>
      </trkpt>
      <trkpt lat="45.85447" lon="5.43551">
        <ele>308.8</ele>
        <time>2021-02-20T12:26:32.000Z</time>
      </trkpt>
      <trkpt lat="45.85445" lon="5.43551">
        <ele>309.2</ele>
        <time>2021-02-20T12:26:33.000Z</time>
      </trkpt>
      <trkpt lat="45.85443" lon="5.43551">
        <ele>309.4</ele>
        <time>2021-02-20T12:26:34.000Z</time>
      </trkpt>
      <trkpt lat="45.8544" lon="5.43551">
        <ele>309.4</ele>
        <time>2021-02-20T12:26:35.000Z</time>
      </trkpt>
      <trkpt lat="45.85438" lon="5.43552">
        <ele>309.6</ele>
        <time>2021-02-20T12:26:36.000Z</time>
      </trkpt>
      <trkpt lat="45.85436" lon="5.43552">
        <ele>310</ele>
        <time>2021-02-20T12:26:37.000Z</time>
      </trkpt>
      <trkpt lat="45.85434" lon="5.43552">
        <ele>310.4</ele>
        <time>2021-02-20T12:26:38.000Z</time>
      </trkpt>
      <trkpt lat="45.85432" lon="5.43552">
        <ele>310.4</ele>
        <time>2021-02-20T12:26:39.000Z</time>
      </trkpt>
      <trkpt lat="45.8543" lon="5.43553">
        <ele>310.4</ele>
        <time>2021-02-20T12:26:40.000Z</time>
      </trkpt>
      <trkpt lat="45.85428" lon="5.43553">
        <ele>310.8</ele>
        <time>2021-02-20T12:26:41.000Z</time>
      </trkpt>
      <trkpt lat="45.85425" lon="5.43553">
        <ele>310.8</ele>
        <time>2021-02-20T12:26:42.000Z</time>
      </trkpt>
      <trkpt lat="45.85423" lon="5.43554">
        <ele>310.8</ele>
        <time>2021-02-20T12:26:43.000Z</time>
      </trkpt>
      <trkpt lat="45.85421" lon="5.43555">
        <ele>310.8</ele>
        <time>2021-02-20T12:26:44.000Z</time>
      </trkpt>
      <trkpt lat="45.85419" lon="5.43556">
        <ele>310.8</ele>
        <time>2021-02-20T12:26:45.000Z</time>
      </trkpt>
      <trkpt lat="45.85417" lon="5.43557">
        <ele>310.8</ele>
        <time>2021-02-20T12:26:46.000Z</time>
      </trkpt>
      <trkpt lat="45.85415" lon="5.43558">
        <ele>311</ele>
        <time>2021-02-20T12:26:47.000Z</time>
      </trkpt>
      <trkpt lat="45.85413" lon="5.43558">
        <ele>311</ele>
        <time>2021-02-20T12:26:48.000Z</time>
      </trkpt>
      <trkpt lat="45.85411" lon="5.43558">
        <ele>311.2</ele>
        <time>2021-02-20T12:26:49.000Z</time>
      </trkpt>
      <trkpt lat="45.85409" lon="5.43559">
        <ele>311.2</ele>
        <time>2021-02-20T12:26:50.000Z</time>
      </trkpt>
      <trkpt lat="45.85408" lon="5.43559">
        <ele>311.6</ele>
        <time>2021-02-20T12:26:51.000Z</time>
      </trkpt>
      <trkpt lat="45.85406" lon="5.4356">
        <ele>311.8</ele>
        <time>2021-02-20T12:26:52.000Z</time>
      </trkpt>
      <trkpt lat="45.85404" lon="5.43561">
        <ele>311.8</ele>
        <time>2021-02-20T12:26:53.000Z</time>
      </trkpt>
      <trkpt lat="45.85402" lon="5.43562">
        <ele>312</ele>
        <time>2021-02-20T12:26:54.000Z</time>
      </trkpt>
      <trkpt lat="45.854" lon="5.43563">
        <ele>312.2</ele>
        <time>2021-02-20T12:26:55.000Z</time>
      </trkpt>
      <trkpt lat="45.85398" lon="5.43563">
        <ele>312.2</ele>
        <time>2021-02-20T12:26:56.000Z</time>
      </trkpt>
      <trkpt lat="45.85396" lon="5.43565">
        <ele>312.4</ele>
        <time>2021-02-20T12:26:57.000Z</time>
      </trkpt>
      <trkpt lat="45.85394" lon="5.43565">
        <ele>312.8</ele>
        <time>2021-02-20T12:26:58.000Z</time>
      </trkpt>
      <trkpt lat="45.85392" lon="5.43566">
        <ele>313.2</ele>
        <time>2021-02-20T12:26:59.000Z</time>
      </trkpt>
      <trkpt lat="45.8539" lon="5.43567">
        <ele>313.4</ele>
        <time>2021-02-20T12:27:00.000Z</time>
      </trkpt>
      <trkpt lat="45.85388" lon="5.43567">
        <ele>313.6</ele>
        <time>2021-02-20T12:27:01.000Z</time>
      </trkpt>
      <trkpt lat="45.85386" lon="5.43568">
        <ele>313.6</ele>
        <time>2021-02-20T12:27:02.000Z</time>
      </trkpt>
      <trkpt lat="45.85384" lon="5.43569">
        <ele>313.6</ele>
        <time>2021-02-20T12:27:03.000Z</time>
      </trkpt>
      <trkpt lat="45.85382" lon="5.43569">
        <ele>313.8</ele>
        <time>2021-02-20T12:27:04.000Z</time>
      </trkpt>
      <trkpt lat="45.8538" lon="5.4357">
        <ele>313.8</ele>
        <time>2021-02-20T12:27:05.000Z</time>
      </trkpt>
      <trkpt lat="45.85379" lon="5.4357">
        <ele>314</ele>
        <time>2021-02-20T12:27:06.000Z</time>
      </trkpt>
      <trkpt lat="45.85377" lon="5.4357">
        <ele>314.4</ele>
        <time>2021-02-20T12:27:07.000Z</time>
      </trkpt>
      <trkpt lat="45.85375" lon="5.43571">
        <ele>314.8</ele>
        <time>2021-02-20T12:27:08.000Z</time>
      </trkpt>
      <trkpt lat="45.85373" lon="5.43571">
        <ele>315</ele>
        <time>2021-02-20T12:27:09.000Z</time>
      </trkpt>
      <trkpt lat="45.85371" lon="5.43572">
        <ele>315</ele>
        <time>2021-02-20T12:27:10.000Z</time>
      </trkpt>
      <trkpt lat="45.8537" lon="5.43572">
        <ele>315.2</ele>
        <time>2021-02-20T12:27:11.000Z</time>
      </trkpt>
      <trkpt lat="45.85368" lon="5.43572">
        <ele>315.2</ele>
        <time>2021-02-20T12:27:12.000Z</time>
      </trkpt>
      <trkpt lat="45.85366" lon="5.43572">
        <ele>315.4</ele>
        <time>2021-02-20T12:27:13.000Z</time>
      </trkpt>
      <trkpt lat="45.85364" lon="5.43572">
        <ele>315.6</ele>
        <time>2021-02-20T12:27:14.000Z</time>
      </trkpt>
      <trkpt lat="45.85362" lon="5.43572">
        <ele>315.6</ele>
        <time>2021-02-20T12:27:15.000Z</time>
      </trkpt>
      <trkpt lat="45.85361" lon="5.43572">
        <ele>315.8</ele>
        <time>2021-02-20T12:27:16.000Z</time>
      </trkpt>
      <trkpt lat="45.85359" lon="5.43573">
        <ele>316.2</ele>
        <time>2021-02-20T12:27:17.000Z</time>
      </trkpt>
      <trkpt lat="45.85357" lon="5.43574">
        <ele>316.2</ele>
        <time>2021-02-20T12:27:18.000Z</time>
      </trkpt>
      <trkpt lat="45.85356" lon="5.43575">
        <ele>316.4</ele>
        <time>2021-02-20T12:27:19.000Z</time>
      </trkpt>
      <trkpt lat="45.85354" lon="5.43576">
        <ele>316.6</ele>
        <time>2021-02-20T12:27:20.000Z</time>
      </trkpt>
      <trkpt lat="45.85353" lon="5.43576">
        <ele>316.6</ele>
        <time>2021-02-20T12:27:21.000Z</time>
      </trkpt>
      <trkpt lat="45.8535" lon="5.43577">
        <ele>316.8</ele>
        <time>2021-02-20T12:27:22.000Z</time>
      </trkpt>
      <trkpt lat="45.85348" lon="5.43578">
        <ele>316.8</ele>
        <time>2021-02-20T12:27:23.000Z</time>
      </trkpt>
      <trkpt lat="45.85346" lon="5.43579">
        <ele>316.8</ele>
        <time>2021-02-20T12:27:24.000Z</time>
      </trkpt>
      <trkpt lat="45.85344" lon="5.43581">
        <ele>316.8</ele>
        <time>2021-02-20T12:27:25.000Z</time>
      </trkpt>
      <trkpt lat="45.85342" lon="5.43582">
        <ele>317</ele>
        <time>2021-02-20T12:27:26.000Z</time>
      </trkpt>
      <trkpt lat="45.8534" lon="5.43583">
        <ele>317</ele>
        <time>2021-02-20T12:27:27.000Z</time>
      </trkpt>
      <trkpt lat="45.85338" lon="5.43584">
        <ele>317.2</ele>
        <time>2021-02-20T12:27:28.000Z</time>
      </trkpt>
      <trkpt lat="45.85337" lon="5.43585">
        <ele>317.2</ele>
        <time>2021-02-20T12:27:29.000Z</time>
      </trkpt>
      <trkpt lat="45.85335" lon="5.43586">
        <ele>317.6</ele>
        <time>2021-02-20T12:27:30.000Z</time>
      </trkpt>
      <trkpt lat="45.85333" lon="5.43587">
        <ele>318</ele>
        <time>2021-02-20T12:27:31.000Z</time>
      </trkpt>
      <trkpt lat="45.85332" lon="5.43588">
        <ele>318.4</ele>
        <time>2021-02-20T12:27:32.000Z</time>
      </trkpt>
      <trkpt lat="45.8533" lon="5.4359">
        <ele>318.8</ele>
        <time>2021-02-20T12:27:33.000Z</time>
      </trkpt>
      <trkpt lat="45.85328" lon="5.4359">
        <ele>318.8</ele>
        <time>2021-02-20T12:27:34.000Z</time>
      </trkpt>
      <trkpt lat="45.85326" lon="5.43591">
        <ele>319.2</ele>
        <time>2021-02-20T12:27:35.000Z</time>
      </trkpt>
      <trkpt lat="45.85325" lon="5.43592">
        <ele>319</ele>
        <time>2021-02-20T12:27:36.000Z</time>
      </trkpt>
      <trkpt lat="45.85323" lon="5.43592">
        <ele>319.4</ele>
        <time>2021-02-20T12:27:37.000Z</time>
      </trkpt>
      <trkpt lat="45.85322" lon="5.43593">
        <ele>319.6</ele>
        <time>2021-02-20T12:27:38.000Z</time>
      </trkpt>
      <trkpt lat="45.8532" lon="5.43593">
        <ele>319.4</ele>
        <time>2021-02-20T12:27:39.000Z</time>
      </trkpt>
      <trkpt lat="45.85318" lon="5.43593">
        <ele>319.6</ele>
        <time>2021-02-20T12:27:40.000Z</time>
      </trkpt>
      <trkpt lat="45.85317" lon="5.43593">
        <ele>319.6</ele>
        <time>2021-02-20T12:27:41.000Z</time>
      </trkpt>
      <trkpt lat="45.85315" lon="5.43594">
        <ele>320</ele>
        <time>2021-02-20T12:27:42.000Z</time>
      </trkpt>
      <trkpt lat="45.85313" lon="5.43595">
        <ele>320.2</ele>
        <time>2021-02-20T12:27:43.000Z</time>
      </trkpt>
      <trkpt lat="45.85311" lon="5.43595">
        <ele>320.2</ele>
        <time>2021-02-20T12:27:44.000Z</time>
      </trkpt>
      <trkpt lat="45.8531" lon="5.43596">
        <ele>320.2</ele>
        <time>2021-02-20T12:27:45.000Z</time>
      </trkpt>
      <trkpt lat="45.85308" lon="5.43598">
        <ele>320.4</ele>
        <time>2021-02-20T12:27:46.000Z</time>
      </trkpt>
      <trkpt lat="45.85307" lon="5.43599">
        <ele>320.4</ele>
        <time>2021-02-20T12:27:47.000Z</time>
      </trkpt>
      <trkpt lat="45.85305" lon="5.43601">
        <ele>320.6</ele>
        <time>2021-02-20T12:27:48.000Z</time>
      </trkpt>
      <trkpt lat="45.85304" lon="5.43603">
        <ele>320.8</ele>
        <time>2021-02-20T12:27:49.000Z</time>
      </trkpt>
      <trkpt lat="45.85302" lon="5.43605">
        <ele>320.6</ele>
        <time>2021-02-20T12:27:50.000Z</time>
      </trkpt>
      <trkpt lat="45.853" lon="5.43607">
        <ele>320.8</ele>
        <time>2021-02-20T12:27:51.000Z</time>
      </trkpt>
      <trkpt lat="45.85298" lon="5.43607">
        <ele>321</ele>
        <time>2021-02-20T12:27:52.000Z</time>
      </trkpt>
      <trkpt lat="45.85296" lon="5.43608">
        <ele>321.2</ele>
        <time>2021-02-20T12:27:53.000Z</time>
      </trkpt>
      <trkpt lat="45.85294" lon="5.4361">
        <ele>321.4</ele>
        <time>2021-02-20T12:27:54.000Z</time>
      </trkpt>
      <trkpt lat="45.85293" lon="5.43611">
        <ele>321.6</ele>
        <time>2021-02-20T12:27:55.000Z</time>
      </trkpt>
      <trkpt lat="45.85291" lon="5.43612">
        <ele>321.6</ele>
        <time>2021-02-20T12:27:56.000Z</time>
      </trkpt>
      <trkpt lat="45.8529" lon="5.43612">
        <ele>321.8</ele>
        <time>2021-02-20T12:27:57.000Z</time>
      </trkpt>
      <trkpt lat="45.85288" lon="5.43613">
        <ele>322.2</ele>
        <time>2021-02-20T12:27:58.000Z</time>
      </trkpt>
      <trkpt lat="45.85287" lon="5.43614">
        <ele>322.4</ele>
        <time>2021-02-20T12:27:59.000Z</time>
      </trkpt>
      <trkpt lat="45.85285" lon="5.43615">
        <ele>322.4</ele>
        <time>2021-02-20T12:28:00.000Z</time>
      </trkpt>
      <trkpt lat="45.85284" lon="5.43616">
        <ele>322.8</ele>
        <time>2021-02-20T12:28:01.000Z</time>
      </trkpt>
      <trkpt lat="45.85282" lon="5.43617">
        <ele>322.8</ele>
        <time>2021-02-20T12:28:02.000Z</time>
      </trkpt>
      <trkpt lat="45.8528" lon="5.43618">
        <ele>323</ele>
        <time>2021-02-20T12:28:03.000Z</time>
      </trkpt>
      <trkpt lat="45.85279" lon="5.43619">
        <ele>323.2</ele>
        <time>2021-02-20T12:28:04.000Z</time>
      </trkpt>
      <trkpt lat="45.85277" lon="5.4362">
        <ele>323.2</ele>
        <time>2021-02-20T12:28:05.000Z</time>
      </trkpt>
      <trkpt lat="45.85276" lon="5.43621">
        <ele>323.6</ele>
        <time>2021-02-20T12:28:06.000Z</time>
      </trkpt>
      <trkpt lat="45.85274" lon="5.43623">
        <ele>323.8</ele>
        <time>2021-02-20T12:28:07.000Z</time>
      </trkpt>
      <trkpt lat="45.85272" lon="5.43624">
        <ele>324</ele>
        <time>2021-02-20T12:28:08.000Z</time>
      </trkpt>
      <trkpt lat="45.85271" lon="5.43625">
        <ele>324</ele>
        <time>2021-02-20T12:28:09.000Z</time>
      </trkpt>
      <trkpt lat="45.85269" lon="5.43626">
        <ele>324.2</ele>
        <time>2021-02-20T12:28:10.000Z</time>
      </trkpt>
      <trkpt lat="45.85267" lon="5.43627">
        <ele>324.4</ele>
        <time>2021-02-20T12:28:11.000Z</time>
      </trkpt>
      <trkpt lat="45.85266" lon="5.43628">
        <ele>324.8</ele>
        <time>2021-02-20T12:28:12.000Z</time>
      </trkpt>
      <trkpt lat="45.85264" lon="5.4363">
        <ele>325</ele>
        <time>2021-02-20T12:28:13.000Z</time>
      </trkpt>
      <trkpt lat="45.85262" lon="5.43631">
        <ele>325.4</ele>
        <time>2021-02-20T12:28:14.000Z</time>
      </trkpt>
      <trkpt lat="45.8526" lon="5.43631">
        <ele>325.8</ele>
        <time>2021-02-20T12:28:15.000Z</time>
      </trkpt>
      <trkpt lat="45.85258" lon="5.43633">
        <ele>325.8</ele>
        <time>2021-02-20T12:28:16.000Z</time>
      </trkpt>
      <trkpt lat="45.85255" lon="5.43634">
        <ele>326.2</ele>
        <time>2021-02-20T12:28:17.000Z</time>
      </trkpt>
      <trkpt lat="45.85253" lon="5.43635">
        <ele>326</ele>
        <time>2021-02-20T12:28:18.000Z</time>
      </trkpt>
      <trkpt lat="45.85251" lon="5.43637">
        <ele>326.2</ele>
        <time>2021-02-20T12:28:19.000Z</time>
      </trkpt>
      <trkpt lat="45.85249" lon="5.43639">
        <ele>326.4</ele>
        <time>2021-02-20T12:28:20.000Z</time>
      </trkpt>
      <trkpt lat="45.85247" lon="5.4364">
        <ele>326.4</ele>
        <time>2021-02-20T12:28:21.000Z</time>
      </trkpt>
      <trkpt lat="45.85245" lon="5.43641">
        <ele>326.6</ele>
        <time>2021-02-20T12:28:22.000Z</time>
      </trkpt>
      <trkpt lat="45.85242" lon="5.43642">
        <ele>327</ele>
        <time>2021-02-20T12:28:23.000Z</time>
      </trkpt>
      <trkpt lat="45.8524" lon="5.43642">
        <ele>327</ele>
        <time>2021-02-20T12:28:24.000Z</time>
      </trkpt>
      <trkpt lat="45.85238" lon="5.43643">
        <ele>327.2</ele>
        <time>2021-02-20T12:28:25.000Z</time>
      </trkpt>
      <trkpt lat="45.85236" lon="5.43644">
        <ele>327.2</ele>
        <time>2021-02-20T12:28:26.000Z</time>
      </trkpt>
      <trkpt lat="45.85234" lon="5.43645">
        <ele>327.6</ele>
        <time>2021-02-20T12:28:27.000Z</time>
      </trkpt>
      <trkpt lat="45.85233" lon="5.43646">
        <ele>327.8</ele>
        <time>2021-02-20T12:28:28.000Z</time>
      </trkpt>
      <trkpt lat="45.85231" lon="5.43647">
        <ele>327.6</ele>
        <time>2021-02-20T12:28:29.000Z</time>
      </trkpt>
      <trkpt lat="45.8523" lon="5.43648">
        <ele>327.8</ele>
        <time>2021-02-20T12:28:30.000Z</time>
      </trkpt>
      <trkpt lat="45.85228" lon="5.4365">
        <ele>328.2</ele>
        <time>2021-02-20T12:28:31.000Z</time>
      </trkpt>
      <trkpt lat="45.85227" lon="5.43651">
        <ele>328.4</ele>
        <time>2021-02-20T12:28:32.000Z</time>
      </trkpt>
      <trkpt lat="45.85226" lon="5.43652">
        <ele>328.6</ele>
        <time>2021-02-20T12:28:33.000Z</time>
      </trkpt>
      <trkpt lat="45.85224" lon="5.43653">
        <ele>328.8</ele>
        <time>2021-02-20T12:28:34.000Z</time>
      </trkpt>
      <trkpt lat="45.85223" lon="5.43654">
        <ele>329</ele>
        <time>2021-02-20T12:28:35.000Z</time>
      </trkpt>
      <trkpt lat="45.85221" lon="5.43655">
        <ele>329.4</ele>
        <time>2021-02-20T12:28:36.000Z</time>
      </trkpt>
      <trkpt lat="45.8522" lon="5.43657">
        <ele>329.6</ele>
        <time>2021-02-20T12:28:37.000Z</time>
      </trkpt>
      <trkpt lat="45.85219" lon="5.43659">
        <ele>329.6</ele>
        <time>2021-02-20T12:28:38.000Z</time>
      </trkpt>
      <trkpt lat="45.85218" lon="5.43661">
        <ele>329.6</ele>
        <time>2021-02-20T12:28:39.000Z</time>
      </trkpt>
      <trkpt lat="45.85217" lon="5.43662">
        <ele>330</ele>
        <time>2021-02-20T12:28:40.000Z</time>
      </trkpt>
      <trkpt lat="45.85216" lon="5.43664">
        <ele>330</ele>
        <time>2021-02-20T12:28:41.000Z</time>
      </trkpt>
      <trkpt lat="45.85216" lon="5.43666">
        <ele>330</ele>
        <time>2021-02-20T12:28:42.000Z</time>
      </trkpt>
      <trkpt lat="45.85215" lon="5.43669">
        <ele>330.2</ele>
        <time>2021-02-20T12:28:43.000Z</time>
      </trkpt>
      <trkpt lat="45.85214" lon="5.43671">
        <ele>330.2</ele>
        <time>2021-02-20T12:28:44.000Z</time>
      </trkpt>
      <trkpt lat="45.85213" lon="5.43673">
        <ele>330.4</ele>
        <time>2021-02-20T12:28:45.000Z</time>
      </trkpt>
      <trkpt lat="45.85212" lon="5.43675">
        <ele>330.6</ele>
        <time>2021-02-20T12:28:46.000Z</time>
      </trkpt>
      <trkpt lat="45.85211" lon="5.43677">
        <ele>330.8</ele>
        <time>2021-02-20T12:28:47.000Z</time>
      </trkpt>
      <trkpt lat="45.8521" lon="5.4368">
        <ele>331</ele>
        <time>2021-02-20T12:28:48.000Z</time>
      </trkpt>
      <trkpt lat="45.85209" lon="5.43682">
        <ele>331.2</ele>
        <time>2021-02-20T12:28:49.000Z</time>
      </trkpt>
      <trkpt lat="45.85208" lon="5.43683">
        <ele>331.4</ele>
        <time>2021-02-20T12:28:50.000Z</time>
      </trkpt>
      <trkpt lat="45.85207" lon="5.43685">
        <ele>331.4</ele>
        <time>2021-02-20T12:28:51.000Z</time>
      </trkpt>
      <trkpt lat="45.85205" lon="5.43686">
        <ele>331.6</ele>
        <time>2021-02-20T12:28:52.000Z</time>
      </trkpt>
      <trkpt lat="45.85203" lon="5.43688">
        <ele>331.8</ele>
        <time>2021-02-20T12:28:53.000Z</time>
      </trkpt>
      <trkpt lat="45.85201" lon="5.43689">
        <ele>332.2</ele>
        <time>2021-02-20T12:28:54.000Z</time>
      </trkpt>
      <trkpt lat="45.85198" lon="5.43691">
        <ele>332.4</ele>
        <time>2021-02-20T12:28:55.000Z</time>
      </trkpt>
      <trkpt lat="45.85195" lon="5.43692">
        <ele>332.6</ele>
        <time>2021-02-20T12:28:56.000Z</time>
      </trkpt>
      <trkpt lat="45.85192" lon="5.43693">
        <ele>332.6</ele>
        <time>2021-02-20T12:28:57.000Z</time>
      </trkpt>
      <trkpt lat="45.85188" lon="5.43694">
        <ele>332.8</ele>
        <time>2021-02-20T12:28:58.000Z</time>
      </trkpt>
      <trkpt lat="45.85185" lon="5.43694">
        <ele>333</ele>
        <time>2021-02-20T12:28:59.000Z</time>
      </trkpt>
      <trkpt lat="45.85182" lon="5.43695">
        <ele>333</ele>
        <time>2021-02-20T12:29:00.000Z</time>
      </trkpt>
      <trkpt lat="45.8518" lon="5.43696">
        <ele>333.4</ele>
        <time>2021-02-20T12:29:01.000Z</time>
      </trkpt>
      <trkpt lat="45.85178" lon="5.43697">
        <ele>333.8</ele>
        <time>2021-02-20T12:29:02.000Z</time>
      </trkpt>
      <trkpt lat="45.85176" lon="5.43699">
        <ele>333.8</ele>
        <time>2021-02-20T12:29:03.000Z</time>
      </trkpt>
      <trkpt lat="45.85174" lon="5.437">
        <ele>334</ele>
        <time>2021-02-20T12:29:04.000Z</time>
      </trkpt>
      <trkpt lat="45.85172" lon="5.43701">
        <ele>334.2</ele>
        <time>2021-02-20T12:29:05.000Z</time>
      </trkpt>
      <trkpt lat="45.8517" lon="5.43701">
        <ele>334.4</ele>
        <time>2021-02-20T12:29:06.000Z</time>
      </trkpt>
      <trkpt lat="45.85168" lon="5.43702">
        <ele>334.4</ele>
        <time>2021-02-20T12:29:07.000Z</time>
      </trkpt>
      <trkpt lat="45.85166" lon="5.43703">
        <ele>334.6</ele>
        <time>2021-02-20T12:29:08.000Z</time>
      </trkpt>
      <trkpt lat="45.85164" lon="5.43704">
        <ele>335</ele>
        <time>2021-02-20T12:29:09.000Z</time>
      </trkpt>
      <trkpt lat="45.85162" lon="5.43705">
        <ele>335</ele>
        <time>2021-02-20T12:29:10.000Z</time>
      </trkpt>
      <trkpt lat="45.8516" lon="5.43706">
        <ele>335</ele>
        <time>2021-02-20T12:29:11.000Z</time>
      </trkpt>
      <trkpt lat="45.85158" lon="5.43707">
        <ele>335.2</ele>
        <time>2021-02-20T12:29:12.000Z</time>
      </trkpt>
      <trkpt lat="45.85156" lon="5.43708">
        <ele>335.4</ele>
        <time>2021-02-20T12:29:13.000Z</time>
      </trkpt>
      <trkpt lat="45.85155" lon="5.43708">
        <ele>335.4</ele>
        <time>2021-02-20T12:29:14.000Z</time>
      </trkpt>
      <trkpt lat="45.85154" lon="5.43709">
        <ele>335.6</ele>
        <time>2021-02-20T12:29:15.000Z</time>
      </trkpt>
      <trkpt lat="45.85152" lon="5.4371">
        <ele>335.6</ele>
        <time>2021-02-20T12:29:16.000Z</time>
      </trkpt>
      <trkpt lat="45.8515" lon="5.43711">
        <ele>335.6</ele>
        <time>2021-02-20T12:29:17.000Z</time>
      </trkpt>
      <trkpt lat="45.85149" lon="5.43712">
        <ele>336</ele>
        <time>2021-02-20T12:29:18.000Z</time>
      </trkpt>
      <trkpt lat="45.85147" lon="5.43713">
        <ele>336.2</ele>
        <time>2021-02-20T12:29:19.000Z</time>
      </trkpt>
      <trkpt lat="45.85145" lon="5.43715">
        <ele>336.2</ele>
        <time>2021-02-20T12:29:20.000Z</time>
      </trkpt>
      <trkpt lat="45.85143" lon="5.43716">
        <ele>336.4</ele>
        <time>2021-02-20T12:29:21.000Z</time>
      </trkpt>
      <trkpt lat="45.85141" lon="5.43717">
        <ele>336.4</ele>
        <time>2021-02-20T12:29:22.000Z</time>
      </trkpt>
      <trkpt lat="45.85139" lon="5.43718">
        <ele>336.6</ele>
        <time>2021-02-20T12:29:23.000Z</time>
      </trkpt>
      <trkpt lat="45.85137" lon="5.43719">
        <ele>337</ele>
        <time>2021-02-20T12:29:24.000Z</time>
      </trkpt>
      <trkpt lat="45.85136" lon="5.43721">
        <ele>337</ele>
        <time>2021-02-20T12:29:25.000Z</time>
      </trkpt>
      <trkpt lat="45.85134" lon="5.43723">
        <ele>337.2</ele>
        <time>2021-02-20T12:29:26.000Z</time>
      </trkpt>
      <trkpt lat="45.85131" lon="5.43725">
        <ele>337.8</ele>
        <time>2021-02-20T12:29:27.000Z</time>
      </trkpt>
      <trkpt lat="45.85129" lon="5.43726">
        <ele>338</ele>
        <time>2021-02-20T12:29:28.000Z</time>
      </trkpt>
      <trkpt lat="45.85127" lon="5.43728">
        <ele>338.2</ele>
        <time>2021-02-20T12:29:29.000Z</time>
      </trkpt>
      <trkpt lat="45.85125" lon="5.4373">
        <ele>338.4</ele>
        <time>2021-02-20T12:29:30.000Z</time>
      </trkpt>
      <trkpt lat="45.85123" lon="5.43732">
        <ele>338.4</ele>
        <time>2021-02-20T12:29:31.000Z</time>
      </trkpt>
      <trkpt lat="45.8512" lon="5.43733">
        <ele>338.6</ele>
        <time>2021-02-20T12:29:32.000Z</time>
      </trkpt>
      <trkpt lat="45.85118" lon="5.43734">
        <ele>338.8</ele>
        <time>2021-02-20T12:29:33.000Z</time>
      </trkpt>
      <trkpt lat="45.85116" lon="5.43735">
        <ele>339.2</ele>
        <time>2021-02-20T12:29:34.000Z</time>
      </trkpt>
      <trkpt lat="45.85113" lon="5.43737">
        <ele>339.4</ele>
        <time>2021-02-20T12:29:35.000Z</time>
      </trkpt>
      <trkpt lat="45.8511" lon="5.43738">
        <ele>339.6</ele>
        <time>2021-02-20T12:29:36.000Z</time>
      </trkpt>
      <trkpt lat="45.85108" lon="5.4374">
        <ele>339.6</ele>
        <time>2021-02-20T12:29:37.000Z</time>
      </trkpt>
      <trkpt lat="45.85105" lon="5.43741">
        <ele>339.6</ele>
        <time>2021-02-20T12:29:38.000Z</time>
      </trkpt>
      <trkpt lat="45.85102" lon="5.43743">
        <ele>339.6</ele>
        <time>2021-02-20T12:29:39.000Z</time>
      </trkpt>
      <trkpt lat="45.851" lon="5.43745">
        <ele>339.8</ele>
        <time>2021-02-20T12:29:40.000Z</time>
      </trkpt>
      <trkpt lat="45.85097" lon="5.43746">
        <ele>339.8</ele>
        <time>2021-02-20T12:29:41.000Z</time>
      </trkpt>
      <trkpt lat="45.85095" lon="5.43747">
        <ele>339.8</ele>
        <time>2021-02-20T12:29:42.000Z</time>
      </trkpt>
      <trkpt lat="45.85093" lon="5.43749">
        <ele>339.8</ele>
        <time>2021-02-20T12:29:43.000Z</time>
      </trkpt>
      <trkpt lat="45.85091" lon="5.43751">
        <ele>340</ele>
        <time>2021-02-20T12:29:44.000Z</time>
      </trkpt>
      <trkpt lat="45.85088" lon="5.43752">
        <ele>340</ele>
        <time>2021-02-20T12:29:45.000Z</time>
      </trkpt>
      <trkpt lat="45.85086" lon="5.43753">
        <ele>340</ele>
        <time>2021-02-20T12:29:46.000Z</time>
      </trkpt>
      <trkpt lat="45.85083" lon="5.43754">
        <ele>340.4</ele>
        <time>2021-02-20T12:29:47.000Z</time>
      </trkpt>
      <trkpt lat="45.85077" lon="5.43759">
        <ele>340.4</ele>
        <time>2021-02-20T12:29:50.000Z</time>
      </trkpt>
      <trkpt lat="45.85076" lon="5.43761">
        <ele>340.4</ele>
        <time>2021-02-20T12:29:51.000Z</time>
      </trkpt>
      <trkpt lat="45.85074" lon="5.43762">
        <ele>340.4</ele>
        <time>2021-02-20T12:29:52.000Z</time>
      </trkpt>
      <trkpt lat="45.85064" lon="5.43772">
        <ele>341</ele>
        <time>2021-02-20T12:29:58.000Z</time>
      </trkpt>
      <trkpt lat="45.85063" lon="5.43774">
        <ele>341.2</ele>
        <time>2021-02-20T12:29:59.000Z</time>
      </trkpt>
      <trkpt lat="45.85061" lon="5.43776">
        <ele>341.2</ele>
        <time>2021-02-20T12:30:00.000Z</time>
      </trkpt>
      <trkpt lat="45.8506" lon="5.43778">
        <ele>341.4</ele>
        <time>2021-02-20T12:30:01.000Z</time>
      </trkpt>
      <trkpt lat="45.85058" lon="5.4378">
        <ele>341.6</ele>
        <time>2021-02-20T12:30:02.000Z</time>
      </trkpt>
      <trkpt lat="45.85056" lon="5.43782">
        <ele>341.8</ele>
        <time>2021-02-20T12:30:03.000Z</time>
      </trkpt>
      <trkpt lat="45.85053" lon="5.43784">
        <ele>341.8</ele>
        <time>2021-02-20T12:30:04.000Z</time>
      </trkpt>
      <trkpt lat="45.85051" lon="5.43787">
        <ele>342</ele>
        <time>2021-02-20T12:30:05.000Z</time>
      </trkpt>
      <trkpt lat="45.85049" lon="5.43789">
        <ele>342</ele>
        <time>2021-02-20T12:30:06.000Z</time>
      </trkpt>
      <trkpt lat="45.85047" lon="5.4379">
        <ele>342.6</ele>
        <time>2021-02-20T12:30:07.000Z</time>
      </trkpt>
      <trkpt lat="45.85045" lon="5.43793">
        <ele>342.8</ele>
        <time>2021-02-20T12:30:08.000Z</time>
      </trkpt>
      <trkpt lat="45.85043" lon="5.43795">
        <ele>343</ele>
        <time>2021-02-20T12:30:09.000Z</time>
      </trkpt>
      <trkpt lat="45.8504" lon="5.43797">
        <ele>343.2</ele>
        <time>2021-02-20T12:30:10.000Z</time>
      </trkpt>
      <trkpt lat="45.85038" lon="5.43799">
        <ele>343.4</ele>
        <time>2021-02-20T12:30:11.000Z</time>
      </trkpt>
      <trkpt lat="45.85035" lon="5.43801">
        <ele>343.6</ele>
        <time>2021-02-20T12:30:12.000Z</time>
      </trkpt>
      <trkpt lat="45.85032" lon="5.43803">
        <ele>343.8</ele>
        <time>2021-02-20T12:30:13.000Z</time>
      </trkpt>
      <trkpt lat="45.8503" lon="5.43804">
        <ele>344</ele>
        <time>2021-02-20T12:30:14.000Z</time>
      </trkpt>
      <trkpt lat="45.85028" lon="5.43807">
        <ele>344.2</ele>
        <time>2021-02-20T12:30:15.000Z</time>
      </trkpt>
      <trkpt lat="45.85026" lon="5.43809">
        <ele>344.4</ele>
        <time>2021-02-20T12:30:16.000Z</time>
      </trkpt>
      <trkpt lat="45.85024" lon="5.43811">
        <ele>344.4</ele>
        <time>2021-02-20T12:30:17.000Z</time>
      </trkpt>
      <trkpt lat="45.85023" lon="5.43813">
        <ele>344.2</ele>
        <time>2021-02-20T12:30:18.000Z</time>
      </trkpt>
      <trkpt lat="45.85021" lon="5.43815">
        <ele>344.4</ele>
        <time>2021-02-20T12:30:19.000Z</time>
      </trkpt>
      <trkpt lat="45.8502" lon="5.43817">
        <ele>344.6</ele>
        <time>2021-02-20T12:30:20.000Z</time>
      </trkpt>
      <trkpt lat="45.8502" lon="5.4382">
        <ele>344.8</ele>
        <time>2021-02-20T12:30:21.000Z</time>
      </trkpt>
      <trkpt lat="45.85021" lon="5.43822">
        <ele>344.8</ele>
        <time>2021-02-20T12:30:22.000Z</time>
      </trkpt>
      <trkpt lat="45.85022" lon="5.43823">
        <ele>345.2</ele>
        <time>2021-02-20T12:30:23.000Z</time>
      </trkpt>
      <trkpt lat="45.85023" lon="5.43823">
        <ele>345.4</ele>
        <time>2021-02-20T12:30:24.000Z</time>
      </trkpt>
      <trkpt lat="45.85024" lon="5.43823">
        <ele>345.6</ele>
        <time>2021-02-20T12:30:25.000Z</time>
      </trkpt>
      <trkpt lat="45.85025" lon="5.43823">
        <ele>345.8</ele>
        <time>2021-02-20T12:30:26.000Z</time>
      </trkpt>
      <trkpt lat="45.85026" lon="5.43822">
        <ele>346.2</ele>
        <time>2021-02-20T12:30:27.000Z</time>
      </trkpt>
      <trkpt lat="45.85027" lon="5.43821">
        <ele>346.4</ele>
        <time>2021-02-20T12:30:28.000Z</time>
      </trkpt>
      <trkpt lat="45.85029" lon="5.4382">
        <ele>346.8</ele>
        <time>2021-02-20T12:30:29.000Z</time>
      </trkpt>
      <trkpt lat="45.85031" lon="5.43819">
        <ele>347</ele>
        <time>2021-02-20T12:30:30.000Z</time>
      </trkpt>
      <trkpt lat="45.85033" lon="5.43818">
        <ele>347</ele>
        <time>2021-02-20T12:30:31.000Z</time>
      </trkpt>
      <trkpt lat="45.85035" lon="5.43817">
        <ele>347.4</ele>
        <time>2021-02-20T12:30:32.000Z</time>
      </trkpt>
      <trkpt lat="45.85038" lon="5.43816">
        <ele>347.6</ele>
        <time>2021-02-20T12:30:33.000Z</time>
      </trkpt>
      <trkpt lat="45.8504" lon="5.43816">
        <ele>348</ele>
        <time>2021-02-20T12:30:34.000Z</time>
      </trkpt>
      <trkpt lat="45.85042" lon="5.43816">
        <ele>348.2</ele>
        <time>2021-02-20T12:30:35.000Z</time>
      </trkpt>
      <trkpt lat="45.85044" lon="5.43815">
        <ele>348.2</ele>
        <time>2021-02-20T12:30:36.000Z</time>
      </trkpt>
      <trkpt lat="45.85046" lon="5.43814">
        <ele>348.4</ele>
        <time>2021-02-20T12:30:37.000Z</time>
      </trkpt>
      <trkpt lat="45.85048" lon="5.43814">
        <ele>348.4</ele>
        <time>2021-02-20T12:30:38.000Z</time>
      </trkpt>
      <trkpt lat="45.8505" lon="5.43814">
        <ele>348.4</ele>
        <time>2021-02-20T12:30:39.000Z</time>
      </trkpt>
      <trkpt lat="45.85052" lon="5.43814">
        <ele>349</ele>
        <time>2021-02-20T12:30:40.000Z</time>
      </trkpt>
      <trkpt lat="45.85054" lon="5.43814">
        <ele>349.2</ele>
        <time>2021-02-20T12:30:41.000Z</time>
      </trkpt>
      <trkpt lat="45.85056" lon="5.43813">
        <ele>349.6</ele>
        <time>2021-02-20T12:30:42.000Z</time>
      </trkpt>
      <trkpt lat="45.85058" lon="5.43812">
        <ele>349.6</ele>
        <time>2021-02-20T12:30:43.000Z</time>
      </trkpt>
      <trkpt lat="45.8506" lon="5.43812">
        <ele>349.8</ele>
        <time>2021-02-20T12:30:44.000Z</time>
      </trkpt>
      <trkpt lat="45.85062" lon="5.43812">
        <ele>350</ele>
        <time>2021-02-20T12:30:45.000Z</time>
      </trkpt>
      <trkpt lat="45.85064" lon="5.43812">
        <ele>350.2</ele>
        <time>2021-02-20T12:30:46.000Z</time>
      </trkpt>
      <trkpt lat="45.85065" lon="5.43811">
        <ele>350.4</ele>
        <time>2021-02-20T12:30:47.000Z</time>
      </trkpt>
      <trkpt lat="45.85068" lon="5.43811">
        <ele>350.8</ele>
        <time>2021-02-20T12:30:48.000Z</time>
      </trkpt>
      <trkpt lat="45.8507" lon="5.4381">
        <ele>351.2</ele>
        <time>2021-02-20T12:30:49.000Z</time>
      </trkpt>
      <trkpt lat="45.85072" lon="5.4381">
        <ele>351.4</ele>
        <time>2021-02-20T12:30:50.000Z</time>
      </trkpt>
      <trkpt lat="45.85074" lon="5.43808">
        <ele>351.4</ele>
        <time>2021-02-20T12:30:51.000Z</time>
      </trkpt>
      <trkpt lat="45.85076" lon="5.43808">
        <ele>351.4</ele>
        <time>2021-02-20T12:30:52.000Z</time>
      </trkpt>
      <trkpt lat="45.85079" lon="5.43808">
        <ele>351.6</ele>
        <time>2021-02-20T12:30:53.000Z</time>
      </trkpt>
      <trkpt lat="45.85081" lon="5.43808">
        <ele>351.8</ele>
        <time>2021-02-20T12:30:54.000Z</time>
      </trkpt>
      <trkpt lat="45.85084" lon="5.43808">
        <ele>352</ele>
        <time>2021-02-20T12:30:55.000Z</time>
      </trkpt>
      <trkpt lat="45.85086" lon="5.43809">
        <ele>352.4</ele>
        <time>2021-02-20T12:30:56.000Z</time>
      </trkpt>
      <trkpt lat="45.85088" lon="5.43809">
        <ele>352.6</ele>
        <time>2021-02-20T12:30:57.000Z</time>
      </trkpt>
      <trkpt lat="45.8509" lon="5.43809">
        <ele>352.6</ele>
        <time>2021-02-20T12:30:58.000Z</time>
      </trkpt>
      <trkpt lat="45.85092" lon="5.43808">
        <ele>352.8</ele>
        <time>2021-02-20T12:30:59.000Z</time>
      </trkpt>
      <trkpt lat="45.85094" lon="5.43808">
        <ele>353</ele>
        <time>2021-02-20T12:31:00.000Z</time>
      </trkpt>
      <trkpt lat="45.85096" lon="5.43807">
        <ele>353.4</ele>
        <time>2021-02-20T12:31:01.000Z</time>
      </trkpt>
      <trkpt lat="45.85098" lon="5.43807">
        <ele>353.4</ele>
        <time>2021-02-20T12:31:02.000Z</time>
      </trkpt>
      <trkpt lat="45.851" lon="5.43806">
        <ele>353.8</ele>
        <time>2021-02-20T12:31:03.000Z</time>
      </trkpt>
      <trkpt lat="45.85102" lon="5.43806">
        <ele>353.8</ele>
        <time>2021-02-20T12:31:04.000Z</time>
      </trkpt>
      <trkpt lat="45.85103" lon="5.43805">
        <ele>353.8</ele>
        <time>2021-02-20T12:31:05.000Z</time>
      </trkpt>
      <trkpt lat="45.85104" lon="5.43804">
        <ele>353.8</ele>
        <time>2021-02-20T12:31:06.000Z</time>
      </trkpt>
      <trkpt lat="45.85107" lon="5.43803">
        <ele>354.2</ele>
        <time>2021-02-20T12:31:07.000Z</time>
      </trkpt>
      <trkpt lat="45.85108" lon="5.43801">
        <ele>354.2</ele>
        <time>2021-02-20T12:31:08.000Z</time>
      </trkpt>
      <trkpt lat="45.8511" lon="5.438">
        <ele>354.4</ele>
        <time>2021-02-20T12:31:09.000Z</time>
      </trkpt>
      <trkpt lat="45.85112" lon="5.43799">
        <ele>354.6</ele>
        <time>2021-02-20T12:31:10.000Z</time>
      </trkpt>
      <trkpt lat="45.85114" lon="5.43797">
        <ele>354.8</ele>
        <time>2021-02-20T12:31:11.000Z</time>
      </trkpt>
      <trkpt lat="45.85117" lon="5.43796">
        <ele>354.8</ele>
        <time>2021-02-20T12:31:12.000Z</time>
      </trkpt>
      <trkpt lat="45.85118" lon="5.43795">
        <ele>355</ele>
        <time>2021-02-20T12:31:13.000Z</time>
      </trkpt>
      <trkpt lat="45.85121" lon="5.43794">
        <ele>355.2</ele>
        <time>2021-02-20T12:31:14.000Z</time>
      </trkpt>
      <trkpt lat="45.85123" lon="5.43791">
        <ele>355.4</ele>
        <time>2021-02-20T12:31:15.000Z</time>
      </trkpt>
      <trkpt lat="45.85124" lon="5.43788">
        <ele>355.6</ele>
        <time>2021-02-20T12:31:16.000Z</time>
      </trkpt>
      <trkpt lat="45.85126" lon="5.43787">
        <ele>355.6</ele>
        <time>2021-02-20T12:31:17.000Z</time>
      </trkpt>
      <trkpt lat="45.85128" lon="5.43786">
        <ele>356</ele>
        <time>2021-02-20T12:31:18.000Z</time>
      </trkpt>
      <trkpt lat="45.85129" lon="5.43784">
        <ele>356</ele>
        <time>2021-02-20T12:31:19.000Z</time>
      </trkpt>
      <trkpt lat="45.85132" lon="5.43782">
        <ele>356.2</ele>
        <time>2021-02-20T12:31:20.000Z</time>
      </trkpt>
      <trkpt lat="45.85134" lon="5.4378">
        <ele>356.4</ele>
        <time>2021-02-20T12:31:21.000Z</time>
      </trkpt>
      <trkpt lat="45.85137" lon="5.43779">
        <ele>356.4</ele>
        <time>2021-02-20T12:31:22.000Z</time>
      </trkpt>
      <trkpt lat="45.85139" lon="5.43777">
        <ele>356.6</ele>
        <time>2021-02-20T12:31:23.000Z</time>
      </trkpt>
      <trkpt lat="45.85141" lon="5.43776">
        <ele>357</ele>
        <time>2021-02-20T12:31:24.000Z</time>
      </trkpt>
      <trkpt lat="45.85142" lon="5.43774">
        <ele>357.4</ele>
        <time>2021-02-20T12:31:25.000Z</time>
      </trkpt>
      <trkpt lat="45.85144" lon="5.43773">
        <ele>357.6</ele>
        <time>2021-02-20T12:31:26.000Z</time>
      </trkpt>
      <trkpt lat="45.85145" lon="5.43772">
        <ele>358</ele>
        <time>2021-02-20T12:31:27.000Z</time>
      </trkpt>
      <trkpt lat="45.85147" lon="5.43771">
        <ele>358.4</ele>
        <time>2021-02-20T12:31:28.000Z</time>
      </trkpt>
      <trkpt lat="45.85151" lon="5.4377">
        <ele>358.8</ele>
        <time>2021-02-20T12:31:29.000Z</time>
      </trkpt>
      <trkpt lat="45.85154" lon="5.4377">
        <ele>358.8</ele>
        <time>2021-02-20T12:31:30.000Z</time>
      </trkpt>
      <trkpt lat="45.85156" lon="5.43769">
        <ele>359.2</ele>
        <time>2021-02-20T12:31:31.000Z</time>
      </trkpt>
      <trkpt lat="45.85158" lon="5.43768">
        <ele>359.2</ele>
        <time>2021-02-20T12:31:32.000Z</time>
      </trkpt>
      <trkpt lat="45.85161" lon="5.43767">
        <ele>359.4</ele>
        <time>2021-02-20T12:31:33.000Z</time>
      </trkpt>
      <trkpt lat="45.85163" lon="5.43766">
        <ele>359.4</ele>
        <time>2021-02-20T12:31:34.000Z</time>
      </trkpt>
      <trkpt lat="45.85165" lon="5.43765">
        <ele>359.4</ele>
        <time>2021-02-20T12:31:35.000Z</time>
      </trkpt>
      <trkpt lat="45.85166" lon="5.43764">
        <ele>359.4</ele>
        <time>2021-02-20T12:31:36.000Z</time>
      </trkpt>
      <trkpt lat="45.85168" lon="5.43763">
        <ele>359.6</ele>
        <time>2021-02-20T12:31:37.000Z</time>
      </trkpt>
      <trkpt lat="45.85171" lon="5.43763">
        <ele>359.6</ele>
        <time>2021-02-20T12:31:38.000Z</time>
      </trkpt>
      <trkpt lat="45.85173" lon="5.43762">
        <ele>359.6</ele>
        <time>2021-02-20T12:31:39.000Z</time>
      </trkpt>
      <trkpt lat="45.85175" lon="5.43762">
        <ele>359.6</ele>
        <time>2021-02-20T12:31:40.000Z</time>
      </trkpt>
      <trkpt lat="45.85178" lon="5.43762">
        <ele>360</ele>
        <time>2021-02-20T12:31:41.000Z</time>
      </trkpt>
      <trkpt lat="45.8518" lon="5.43762">
        <ele>360.2</ele>
        <time>2021-02-20T12:31:42.000Z</time>
      </trkpt>
      <trkpt lat="45.85183" lon="5.43763">
        <ele>360.4</ele>
        <time>2021-02-20T12:31:43.000Z</time>
      </trkpt>
      <trkpt lat="45.85186" lon="5.43763">
        <ele>360.8</ele>
        <time>2021-02-20T12:31:44.000Z</time>
      </trkpt>
      <trkpt lat="45.85188" lon="5.43763">
        <ele>360.8</ele>
        <time>2021-02-20T12:31:45.000Z</time>
      </trkpt>
      <trkpt lat="45.8519" lon="5.43764">
        <ele>361</ele>
        <time>2021-02-20T12:31:46.000Z</time>
      </trkpt>
      <trkpt lat="45.85192" lon="5.43764">
        <ele>361</ele>
        <time>2021-02-20T12:31:47.000Z</time>
      </trkpt>
      <trkpt lat="45.85194" lon="5.43764">
        <ele>361.2</ele>
        <time>2021-02-20T12:31:48.000Z</time>
      </trkpt>
      <trkpt lat="45.85196" lon="5.43764">
        <ele>361.2</ele>
        <time>2021-02-20T12:31:49.000Z</time>
      </trkpt>
      <trkpt lat="45.85198" lon="5.43765">
        <ele>361.4</ele>
        <time>2021-02-20T12:31:50.000Z</time>
      </trkpt>
      <trkpt lat="45.852" lon="5.43765">
        <ele>361.4</ele>
        <time>2021-02-20T12:31:51.000Z</time>
      </trkpt>
      <trkpt lat="45.85202" lon="5.43764">
        <ele>361.6</ele>
        <time>2021-02-20T12:31:52.000Z</time>
      </trkpt>
      <trkpt lat="45.85205" lon="5.43764">
        <ele>361.6</ele>
        <time>2021-02-20T12:31:53.000Z</time>
      </trkpt>
      <trkpt lat="45.85207" lon="5.43764">
        <ele>361.8</ele>
        <time>2021-02-20T12:31:54.000Z</time>
      </trkpt>
      <trkpt lat="45.8521" lon="5.43764">
        <ele>361.8</ele>
        <time>2021-02-20T12:31:55.000Z</time>
      </trkpt>
      <trkpt lat="45.85214" lon="5.43763">
        <ele>362</ele>
        <time>2021-02-20T12:31:56.000Z</time>
      </trkpt>
      <trkpt lat="45.85217" lon="5.43763">
        <ele>362.2</ele>
        <time>2021-02-20T12:31:57.000Z</time>
      </trkpt>
      <trkpt lat="45.8522" lon="5.43763">
        <ele>362.4</ele>
        <time>2021-02-20T12:31:58.000Z</time>
      </trkpt>
      <trkpt lat="45.85222" lon="5.43762">
        <ele>362.4</ele>
        <time>2021-02-20T12:31:59.000Z</time>
      </trkpt>
      <trkpt lat="45.85224" lon="5.43762">
        <ele>362.4</ele>
        <time>2021-02-20T12:32:00.000Z</time>
      </trkpt>
      <trkpt lat="45.85226" lon="5.43761">
        <ele>362.6</ele>
        <time>2021-02-20T12:32:01.000Z</time>
      </trkpt>
      <trkpt lat="45.85229" lon="5.43761">
        <ele>362.8</ele>
        <time>2021-02-20T12:32:02.000Z</time>
      </trkpt>
      <trkpt lat="45.85231" lon="5.43761">
        <ele>363</ele>
        <time>2021-02-20T12:32:03.000Z</time>
      </trkpt>
      <trkpt lat="45.85233" lon="5.43761">
        <ele>363</ele>
        <time>2021-02-20T12:32:04.000Z</time>
      </trkpt>
      <trkpt lat="45.85235" lon="5.43761">
        <ele>363.2</ele>
        <time>2021-02-20T12:32:05.000Z</time>
      </trkpt>
      <trkpt lat="45.85238" lon="5.43761">
        <ele>363.6</ele>
        <time>2021-02-20T12:32:06.000Z</time>
      </trkpt>
      <trkpt lat="45.8524" lon="5.4376">
        <ele>363.8</ele>
        <time>2021-02-20T12:32:07.000Z</time>
      </trkpt>
      <trkpt lat="45.85242" lon="5.4376">
        <ele>363.8</ele>
        <time>2021-02-20T12:32:08.000Z</time>
      </trkpt>
      <trkpt lat="45.85244" lon="5.4376">
        <ele>364.2</ele>
        <time>2021-02-20T12:32:09.000Z</time>
      </trkpt>
      <trkpt lat="45.85246" lon="5.4376">
        <ele>364.6</ele>
        <time>2021-02-20T12:32:10.000Z</time>
      </trkpt>
      <trkpt lat="45.85249" lon="5.4376">
        <ele>365</ele>
        <time>2021-02-20T12:32:11.000Z</time>
      </trkpt>
      <trkpt lat="45.85251" lon="5.4376">
        <ele>365</ele>
        <time>2021-02-20T12:32:12.000Z</time>
      </trkpt>
      <trkpt lat="45.85253" lon="5.4376">
        <ele>365.4</ele>
        <time>2021-02-20T12:32:13.000Z</time>
      </trkpt>
      <trkpt lat="45.85255" lon="5.43759">
        <ele>365.4</ele>
        <time>2021-02-20T12:32:14.000Z</time>
      </trkpt>
      <trkpt lat="45.85257" lon="5.43758">
        <ele>365.6</ele>
        <time>2021-02-20T12:32:15.000Z</time>
      </trkpt>
      <trkpt lat="45.85259" lon="5.43758">
        <ele>365.8</ele>
        <time>2021-02-20T12:32:16.000Z</time>
      </trkpt>
      <trkpt lat="45.85261" lon="5.43757">
        <ele>366</ele>
        <time>2021-02-20T12:32:17.000Z</time>
      </trkpt>
      <trkpt lat="45.85263" lon="5.43757">
        <ele>366</ele>
        <time>2021-02-20T12:32:18.000Z</time>
      </trkpt>
      <trkpt lat="45.85265" lon="5.43757">
        <ele>366</ele>
        <time>2021-02-20T12:32:19.000Z</time>
      </trkpt>
      <trkpt lat="45.85267" lon="5.43756">
        <ele>366.2</ele>
        <time>2021-02-20T12:32:20.000Z</time>
      </trkpt>
      <trkpt lat="45.85269" lon="5.43754">
        <ele>366.4</ele>
        <time>2021-02-20T12:32:21.000Z</time>
      </trkpt>
      <trkpt lat="45.85271" lon="5.43751">
        <ele>366.6</ele>
        <time>2021-02-20T12:32:22.000Z</time>
      </trkpt>
      <trkpt lat="45.85274" lon="5.4375">
        <ele>367</ele>
        <time>2021-02-20T12:32:23.000Z</time>
      </trkpt>
      <trkpt lat="45.85276" lon="5.43748">
        <ele>367.2</ele>
        <time>2021-02-20T12:32:24.000Z</time>
      </trkpt>
      <trkpt lat="45.85278" lon="5.43747">
        <ele>367.2</ele>
        <time>2021-02-20T12:32:25.000Z</time>
      </trkpt>
      <trkpt lat="45.85281" lon="5.43745">
        <ele>367.4</ele>
        <time>2021-02-20T12:32:26.000Z</time>
      </trkpt>
      <trkpt lat="45.85283" lon="5.43744">
        <ele>367.6</ele>
        <time>2021-02-20T12:32:27.000Z</time>
      </trkpt>
      <trkpt lat="45.85284" lon="5.43742">
        <ele>367.8</ele>
        <time>2021-02-20T12:32:28.000Z</time>
      </trkpt>
      <trkpt lat="45.85286" lon="5.4374">
        <ele>368.2</ele>
        <time>2021-02-20T12:32:29.000Z</time>
      </trkpt>
      <trkpt lat="45.85288" lon="5.43738">
        <ele>368.2</ele>
        <time>2021-02-20T12:32:30.000Z</time>
      </trkpt>
      <trkpt lat="45.85291" lon="5.43737">
        <ele>368.4</ele>
        <time>2021-02-20T12:32:31.000Z</time>
      </trkpt>
      <trkpt lat="45.85293" lon="5.43737">
        <ele>368.6</ele>
        <time>2021-02-20T12:32:32.000Z</time>
      </trkpt>
      <trkpt lat="45.85296" lon="5.43735">
        <ele>368.6</ele>
        <time>2021-02-20T12:32:33.000Z</time>
      </trkpt>
      <trkpt lat="45.85299" lon="5.43734">
        <ele>369</ele>
        <time>2021-02-20T12:32:34.000Z</time>
      </trkpt>
      <trkpt lat="45.85301" lon="5.43732">
        <ele>369</ele>
        <time>2021-02-20T12:32:35.000Z</time>
      </trkpt>
      <trkpt lat="45.85302" lon="5.43732">
        <ele>369.2</ele>
        <time>2021-02-20T12:32:36.000Z</time>
      </trkpt>
      <trkpt lat="45.85304" lon="5.43731">
        <ele>369.4</ele>
        <time>2021-02-20T12:32:37.000Z</time>
      </trkpt>
      <trkpt lat="45.85306" lon="5.4373">
        <ele>369.4</ele>
        <time>2021-02-20T12:32:38.000Z</time>
      </trkpt>
      <trkpt lat="45.85307" lon="5.43729">
        <ele>369.6</ele>
        <time>2021-02-20T12:32:39.000Z</time>
      </trkpt>
      <trkpt lat="45.85309" lon="5.43728">
        <ele>369.8</ele>
        <time>2021-02-20T12:32:40.000Z</time>
      </trkpt>
      <trkpt lat="45.8531" lon="5.43727">
        <ele>369.8</ele>
        <time>2021-02-20T12:32:41.000Z</time>
      </trkpt>
      <trkpt lat="45.85312" lon="5.43725">
        <ele>370</ele>
        <time>2021-02-20T12:32:42.000Z</time>
      </trkpt>
      <trkpt lat="45.85313" lon="5.43725">
        <ele>370.2</ele>
        <time>2021-02-20T12:32:43.000Z</time>
      </trkpt>
      <trkpt lat="45.85315" lon="5.43724">
        <ele>370.4</ele>
        <time>2021-02-20T12:32:44.000Z</time>
      </trkpt>
      <trkpt lat="45.85318" lon="5.43724">
        <ele>370.6</ele>
        <time>2021-02-20T12:32:45.000Z</time>
      </trkpt>
      <trkpt lat="45.8532" lon="5.43724">
        <ele>370.8</ele>
        <time>2021-02-20T12:32:46.000Z</time>
      </trkpt>
      <trkpt lat="45.85322" lon="5.43724">
        <ele>371.2</ele>
        <time>2021-02-20T12:32:47.000Z</time>
      </trkpt>
      <trkpt lat="45.85325" lon="5.43724">
        <ele>371.4</ele>
        <time>2021-02-20T12:32:48.000Z</time>
      </trkpt>
      <trkpt lat="45.85327" lon="5.43723">
        <ele>371.4</ele>
        <time>2021-02-20T12:32:49.000Z</time>
      </trkpt>
      <trkpt lat="45.85329" lon="5.43722">
        <ele>371.6</ele>
        <time>2021-02-20T12:32:50.000Z</time>
      </trkpt>
      <trkpt lat="45.8533" lon="5.43721">
        <ele>371.8</ele>
        <time>2021-02-20T12:32:51.000Z</time>
      </trkpt>
      <trkpt lat="45.85332" lon="5.4372">
        <ele>372.2</ele>
        <time>2021-02-20T12:32:52.000Z</time>
      </trkpt>
      <trkpt lat="45.85334" lon="5.43719">
        <ele>372.4</ele>
        <time>2021-02-20T12:32:53.000Z</time>
      </trkpt>
      <trkpt lat="45.85335" lon="5.43719">
        <ele>372.4</ele>
        <time>2021-02-20T12:32:54.000Z</time>
      </trkpt>
      <trkpt lat="45.85338" lon="5.43719">
        <ele>372.6</ele>
        <time>2021-02-20T12:32:55.000Z</time>
      </trkpt>
      <trkpt lat="45.8534" lon="5.43719">
        <ele>372.8</ele>
        <time>2021-02-20T12:32:56.000Z</time>
      </trkpt>
      <trkpt lat="45.85342" lon="5.43718">
        <ele>373</ele>
        <time>2021-02-20T12:32:57.000Z</time>
      </trkpt>
      <trkpt lat="45.85344" lon="5.43718">
        <ele>373</ele>
        <time>2021-02-20T12:32:58.000Z</time>
      </trkpt>
      <trkpt lat="45.85345" lon="5.43718">
        <ele>373.2</ele>
        <time>2021-02-20T12:32:59.000Z</time>
      </trkpt>
      <trkpt lat="45.85348" lon="5.43717">
        <ele>373.8</ele>
        <time>2021-02-20T12:33:00.000Z</time>
      </trkpt>
      <trkpt lat="45.8535" lon="5.43716">
        <ele>374</ele>
        <time>2021-02-20T12:33:01.000Z</time>
      </trkpt>
      <trkpt lat="45.85353" lon="5.43716">
        <ele>374.2</ele>
        <time>2021-02-20T12:33:02.000Z</time>
      </trkpt>
      <trkpt lat="45.85356" lon="5.43715">
        <ele>374.6</ele>
        <time>2021-02-20T12:33:03.000Z</time>
      </trkpt>
      <trkpt lat="45.85359" lon="5.43715">
        <ele>374.8</ele>
        <time>2021-02-20T12:33:04.000Z</time>
      </trkpt>
      <trkpt lat="45.85361" lon="5.43714">
        <ele>375</ele>
        <time>2021-02-20T12:33:05.000Z</time>
      </trkpt>
      <trkpt lat="45.85362" lon="5.43714">
        <ele>375.2</ele>
        <time>2021-02-20T12:33:06.000Z</time>
      </trkpt>
      <trkpt lat="45.85364" lon="5.43714">
        <ele>375.4</ele>
        <time>2021-02-20T12:33:07.000Z</time>
      </trkpt>
      <trkpt lat="45.85367" lon="5.43714">
        <ele>375.6</ele>
        <time>2021-02-20T12:33:08.000Z</time>
      </trkpt>
      <trkpt lat="45.8537" lon="5.43713">
        <ele>375.8</ele>
        <time>2021-02-20T12:33:09.000Z</time>
      </trkpt>
      <trkpt lat="45.85372" lon="5.43713">
        <ele>376</ele>
        <time>2021-02-20T12:33:10.000Z</time>
      </trkpt>
      <trkpt lat="45.85375" lon="5.43712">
        <ele>376</ele>
        <time>2021-02-20T12:33:11.000Z</time>
      </trkpt>
      <trkpt lat="45.85377" lon="5.4371">
        <ele>376</ele>
        <time>2021-02-20T12:33:12.000Z</time>
      </trkpt>
      <trkpt lat="45.85379" lon="5.43709">
        <ele>376.8</ele>
        <time>2021-02-20T12:33:13.000Z</time>
      </trkpt>
      <trkpt lat="45.85382" lon="5.43708">
        <ele>377</ele>
        <time>2021-02-20T12:33:14.000Z</time>
      </trkpt>
      <trkpt lat="45.85384" lon="5.43708">
        <ele>377.2</ele>
        <time>2021-02-20T12:33:15.000Z</time>
      </trkpt>
      <trkpt lat="45.85387" lon="5.43707">
        <ele>377.2</ele>
        <time>2021-02-20T12:33:16.000Z</time>
      </trkpt>
      <trkpt lat="45.8539" lon="5.43708">
        <ele>377.4</ele>
        <time>2021-02-20T12:33:17.000Z</time>
      </trkpt>
      <trkpt lat="45.85393" lon="5.43709">
        <ele>377.4</ele>
        <time>2021-02-20T12:33:18.000Z</time>
      </trkpt>
      <trkpt lat="45.85395" lon="5.43708">
        <ele>377.6</ele>
        <time>2021-02-20T12:33:19.000Z</time>
      </trkpt>
      <trkpt lat="45.85397" lon="5.43708">
        <ele>377.8</ele>
        <time>2021-02-20T12:33:20.000Z</time>
      </trkpt>
      <trkpt lat="45.854" lon="5.43707">
        <ele>378.2</ele>
        <time>2021-02-20T12:33:21.000Z</time>
      </trkpt>
      <trkpt lat="45.85403" lon="5.43708">
        <ele>378.2</ele>
        <time>2021-02-20T12:33:22.000Z</time>
      </trkpt>
      <trkpt lat="45.85405" lon="5.43707">
        <ele>378.4</ele>
        <time>2021-02-20T12:33:23.000Z</time>
      </trkpt>
      <trkpt lat="45.85407" lon="5.43706">
        <ele>378.6</ele>
        <time>2021-02-20T12:33:24.000Z</time>
      </trkpt>
      <trkpt lat="45.85409" lon="5.43705">
        <ele>379</ele>
        <time>2021-02-20T12:33:25.000Z</time>
      </trkpt>
      <trkpt lat="45.85411" lon="5.43704">
        <ele>379.2</ele>
        <time>2021-02-20T12:33:26.000Z</time>
      </trkpt>
      <trkpt lat="45.85413" lon="5.43704">
        <ele>379.4</ele>
        <time>2021-02-20T12:33:27.000Z</time>
      </trkpt>
      <trkpt lat="45.85416" lon="5.43704">
        <ele>379.6</ele>
        <time>2021-02-20T12:33:28.000Z</time>
      </trkpt>
      <trkpt lat="45.85418" lon="5.43704">
        <ele>379.8</ele>
        <time>2021-02-20T12:33:29.000Z</time>
      </trkpt>
      <trkpt lat="45.8542" lon="5.43704">
        <ele>379.8</ele>
        <time>2021-02-20T12:33:30.000Z</time>
      </trkpt>
      <trkpt lat="45.85422" lon="5.43702">
        <ele>380.4</ele>
        <time>2021-02-20T12:33:31.000Z</time>
      </trkpt>
      <trkpt lat="45.85425" lon="5.43701">
        <ele>380.6</ele>
        <time>2021-02-20T12:33:32.000Z</time>
      </trkpt>
      <trkpt lat="45.85427" lon="5.437">
        <ele>380.6</ele>
        <time>2021-02-20T12:33:33.000Z</time>
      </trkpt>
      <trkpt lat="45.85429" lon="5.43699">
        <ele>380.8</ele>
        <time>2021-02-20T12:33:34.000Z</time>
      </trkpt>
      <trkpt lat="45.85431" lon="5.43699">
        <ele>381</ele>
        <time>2021-02-20T12:33:35.000Z</time>
      </trkpt>
      <trkpt lat="45.85434" lon="5.43698">
        <ele>381</ele>
        <time>2021-02-20T12:33:36.000Z</time>
      </trkpt>
      <trkpt lat="45.85436" lon="5.43697">
        <ele>381.2</ele>
        <time>2021-02-20T12:33:37.000Z</time>
      </trkpt>
      <trkpt lat="45.85438" lon="5.43697">
        <ele>381.6</ele>
        <time>2021-02-20T12:33:38.000Z</time>
      </trkpt>
      <trkpt lat="45.85441" lon="5.43696">
        <ele>381.8</ele>
        <time>2021-02-20T12:33:39.000Z</time>
      </trkpt>
      <trkpt lat="45.85443" lon="5.43695">
        <ele>381.8</ele>
        <time>2021-02-20T12:33:40.000Z</time>
      </trkpt>
      <trkpt lat="45.85446" lon="5.43695">
        <ele>382</ele>
        <time>2021-02-20T12:33:41.000Z</time>
      </trkpt>
      <trkpt lat="45.85448" lon="5.43695">
        <ele>382.2</ele>
        <time>2021-02-20T12:33:42.000Z</time>
      </trkpt>
      <trkpt lat="45.8545" lon="5.43694">
        <ele>382.2</ele>
        <time>2021-02-20T12:33:43.000Z</time>
      </trkpt>
      <trkpt lat="45.85452" lon="5.43693">
        <ele>382.2</ele>
        <time>2021-02-20T12:33:44.000Z</time>
      </trkpt>
      <trkpt lat="45.85454" lon="5.43692">
        <ele>382.2</ele>
        <time>2021-02-20T12:33:45.000Z</time>
      </trkpt>
      <trkpt lat="45.85456" lon="5.43692">
        <ele>382.4</ele>
        <time>2021-02-20T12:33:46.000Z</time>
      </trkpt>
      <trkpt lat="45.85458" lon="5.43691">
        <ele>382.6</ele>
        <time>2021-02-20T12:33:47.000Z</time>
      </trkpt>
      <trkpt lat="45.8546" lon="5.43691">
        <ele>382.6</ele>
        <time>2021-02-20T12:33:48.000Z</time>
      </trkpt>
      <trkpt lat="45.85462" lon="5.43691">
        <ele>382.8</ele>
        <time>2021-02-20T12:33:49.000Z</time>
      </trkpt>
      <trkpt lat="45.85464" lon="5.4369">
        <ele>383</ele>
        <time>2021-02-20T12:33:50.000Z</time>
      </trkpt>
      <trkpt lat="45.85466" lon="5.4369">
        <ele>383</ele>
        <time>2021-02-20T12:33:51.000Z</time>
      </trkpt>
      <trkpt lat="45.85468" lon="5.4369">
        <ele>383.4</ele>
        <time>2021-02-20T12:33:52.000Z</time>
      </trkpt>
      <trkpt lat="45.85471" lon="5.4369">
        <ele>383.6</ele>
        <time>2021-02-20T12:33:53.000Z</time>
      </trkpt>
      <trkpt lat="45.85473" lon="5.4369">
        <ele>384</ele>
        <time>2021-02-20T12:33:54.000Z</time>
      </trkpt>
      <trkpt lat="45.85475" lon="5.43689">
        <ele>384</ele>
        <time>2021-02-20T12:33:55.000Z</time>
      </trkpt>
      <trkpt lat="45.85477" lon="5.43689">
        <ele>384</ele>
        <time>2021-02-20T12:33:56.000Z</time>
      </trkpt>
      <trkpt lat="45.85479" lon="5.43689">
        <ele>384.2</ele>
        <time>2021-02-20T12:33:57.000Z</time>
      </trkpt>
      <trkpt lat="45.85481" lon="5.4369">
        <ele>384.2</ele>
        <time>2021-02-20T12:33:58.000Z</time>
      </trkpt>
      <trkpt lat="45.85483" lon="5.4369">
        <ele>384.4</ele>
        <time>2021-02-20T12:33:59.000Z</time>
      </trkpt>
      <trkpt lat="45.85485" lon="5.43691">
        <ele>384.6</ele>
        <time>2021-02-20T12:34:00.000Z</time>
      </trkpt>
      <trkpt lat="45.85488" lon="5.43692">
        <ele>385</ele>
        <time>2021-02-20T12:34:01.000Z</time>
      </trkpt>
      <trkpt lat="45.8549" lon="5.43693">
        <ele>385.2</ele>
        <time>2021-02-20T12:34:02.000Z</time>
      </trkpt>
      <trkpt lat="45.85492" lon="5.43695">
        <ele>385.4</ele>
        <time>2021-02-20T12:34:03.000Z</time>
      </trkpt>
      <trkpt lat="45.85494" lon="5.43696">
        <ele>385.8</ele>
        <time>2021-02-20T12:34:04.000Z</time>
      </trkpt>
      <trkpt lat="45.85496" lon="5.43698">
        <ele>386</ele>
        <time>2021-02-20T12:34:05.000Z</time>
      </trkpt>
      <trkpt lat="45.85498" lon="5.437">
        <ele>386</ele>
        <time>2021-02-20T12:34:06.000Z</time>
      </trkpt>
      <trkpt lat="45.855" lon="5.43702">
        <ele>386.4</ele>
        <time>2021-02-20T12:34:07.000Z</time>
      </trkpt>
      <trkpt lat="45.85503" lon="5.43704">
        <ele>386.6</ele>
        <time>2021-02-20T12:34:08.000Z</time>
      </trkpt>
      <trkpt lat="45.85505" lon="5.43705">
        <ele>386.6</ele>
        <time>2021-02-20T12:34:09.000Z</time>
      </trkpt>
      <trkpt lat="45.85507" lon="5.43707">
        <ele>387.2</ele>
        <time>2021-02-20T12:34:10.000Z</time>
      </trkpt>
      <trkpt lat="45.85509" lon="5.43709">
        <ele>387.2</ele>
        <time>2021-02-20T12:34:11.000Z</time>
      </trkpt>
      <trkpt lat="45.85511" lon="5.4371">
        <ele>387.4</ele>
        <time>2021-02-20T12:34:12.000Z</time>
      </trkpt>
      <trkpt lat="45.85513" lon="5.43712">
        <ele>387.4</ele>
        <time>2021-02-20T12:34:13.000Z</time>
      </trkpt>
      <trkpt lat="45.85515" lon="5.43715">
        <ele>387.6</ele>
        <time>2021-02-20T12:34:14.000Z</time>
      </trkpt>
      <trkpt lat="45.85517" lon="5.43717">
        <ele>387.6</ele>
        <time>2021-02-20T12:34:15.000Z</time>
      </trkpt>
      <trkpt lat="45.85518" lon="5.43719">
        <ele>388</ele>
        <time>2021-02-20T12:34:16.000Z</time>
      </trkpt>
      <trkpt lat="45.8552" lon="5.43721">
        <ele>388.2</ele>
        <time>2021-02-20T12:34:17.000Z</time>
      </trkpt>
      <trkpt lat="45.85522" lon="5.43723">
        <ele>388.4</ele>
        <time>2021-02-20T12:34:18.000Z</time>
      </trkpt>
      <trkpt lat="45.85523" lon="5.43725">
        <ele>388.6</ele>
        <time>2021-02-20T12:34:19.000Z</time>
      </trkpt>
      <trkpt lat="45.85524" lon="5.43727">
        <ele>388.6</ele>
        <time>2021-02-20T12:34:20.000Z</time>
      </trkpt>
      <trkpt lat="45.85526" lon="5.43729">
        <ele>388.8</ele>
        <time>2021-02-20T12:34:21.000Z</time>
      </trkpt>
      <trkpt lat="45.85528" lon="5.43731">
        <ele>389</ele>
        <time>2021-02-20T12:34:22.000Z</time>
      </trkpt>
      <trkpt lat="45.8553" lon="5.43733">
        <ele>389</ele>
        <time>2021-02-20T12:34:23.000Z</time>
      </trkpt>
      <trkpt lat="45.85531" lon="5.43735">
        <ele>389.4</ele>
        <time>2021-02-20T12:34:24.000Z</time>
      </trkpt>
      <trkpt lat="45.85532" lon="5.43737">
        <ele>389.4</ele>
        <time>2021-02-20T12:34:25.000Z</time>
      </trkpt>
      <trkpt lat="45.85533" lon="5.43739">
        <ele>389.6</ele>
        <time>2021-02-20T12:34:26.000Z</time>
      </trkpt>
      <trkpt lat="45.85535" lon="5.43742">
        <ele>390</ele>
        <time>2021-02-20T12:34:27.000Z</time>
      </trkpt>
      <trkpt lat="45.85536" lon="5.43744">
        <ele>390.2</ele>
        <time>2021-02-20T12:34:28.000Z</time>
      </trkpt>
      <trkpt lat="45.85537" lon="5.43747">
        <ele>390.4</ele>
        <time>2021-02-20T12:34:29.000Z</time>
      </trkpt>
      <trkpt lat="45.85538" lon="5.43749">
        <ele>390.6</ele>
        <time>2021-02-20T12:34:30.000Z</time>
      </trkpt>
      <trkpt lat="45.85539" lon="5.43752">
        <ele>390.8</ele>
        <time>2021-02-20T12:34:31.000Z</time>
      </trkpt>
      <trkpt lat="45.8554" lon="5.43754">
        <ele>391</ele>
        <time>2021-02-20T12:34:32.000Z</time>
      </trkpt>
      <trkpt lat="45.85542" lon="5.43757">
        <ele>391</ele>
        <time>2021-02-20T12:34:33.000Z</time>
      </trkpt>
      <trkpt lat="45.85543" lon="5.43759">
        <ele>391.2</ele>
        <time>2021-02-20T12:34:34.000Z</time>
      </trkpt>
      <trkpt lat="45.85544" lon="5.43762">
        <ele>391.2</ele>
        <time>2021-02-20T12:34:35.000Z</time>
      </trkpt>
      <trkpt lat="45.85545" lon="5.43765">
        <ele>391.2</ele>
        <time>2021-02-20T12:34:36.000Z</time>
      </trkpt>
      <trkpt lat="45.85546" lon="5.43768">
        <ele>391.2</ele>
        <time>2021-02-20T12:34:37.000Z</time>
      </trkpt>
      <trkpt lat="45.85547" lon="5.43771">
        <ele>391.4</ele>
        <time>2021-02-20T12:34:38.000Z</time>
      </trkpt>
      <trkpt lat="45.85547" lon="5.43774">
        <ele>391.6</ele>
        <time>2021-02-20T12:34:39.000Z</time>
      </trkpt>
      <trkpt lat="45.85548" lon="5.43777">
        <ele>391.6</ele>
        <time>2021-02-20T12:34:40.000Z</time>
      </trkpt>
      <trkpt lat="45.85548" lon="5.4378">
        <ele>392</ele>
        <time>2021-02-20T12:34:41.000Z</time>
      </trkpt>
      <trkpt lat="45.85549" lon="5.43783">
        <ele>392.2</ele>
        <time>2021-02-20T12:34:42.000Z</time>
      </trkpt>
      <trkpt lat="45.85549" lon="5.43786">
        <ele>392.6</ele>
        <time>2021-02-20T12:34:43.000Z</time>
      </trkpt>
      <trkpt lat="45.85549" lon="5.43789">
        <ele>392.6</ele>
        <time>2021-02-20T12:34:44.000Z</time>
      </trkpt>
      <trkpt lat="45.8555" lon="5.43791">
        <ele>393</ele>
        <time>2021-02-20T12:34:45.000Z</time>
      </trkpt>
      <trkpt lat="45.8555" lon="5.43794">
        <ele>393.2</ele>
        <time>2021-02-20T12:34:46.000Z</time>
      </trkpt>
      <trkpt lat="45.8555" lon="5.43797">
        <ele>393.4</ele>
        <time>2021-02-20T12:34:47.000Z</time>
      </trkpt>
      <trkpt lat="45.8555" lon="5.438">
        <ele>393.6</ele>
        <time>2021-02-20T12:34:48.000Z</time>
      </trkpt>
      <trkpt lat="45.8555" lon="5.43804">
        <ele>394</ele>
        <time>2021-02-20T12:34:49.000Z</time>
      </trkpt>
      <trkpt lat="45.85551" lon="5.43807">
        <ele>394</ele>
        <time>2021-02-20T12:34:50.000Z</time>
      </trkpt>
      <trkpt lat="45.85551" lon="5.4381">
        <ele>394.2</ele>
        <time>2021-02-20T12:34:51.000Z</time>
      </trkpt>
      <trkpt lat="45.85551" lon="5.43813">
        <ele>394.4</ele>
        <time>2021-02-20T12:34:52.000Z</time>
      </trkpt>
      <trkpt lat="45.85551" lon="5.43816">
        <ele>394.6</ele>
        <time>2021-02-20T12:34:53.000Z</time>
      </trkpt>
      <trkpt lat="45.85551" lon="5.43819">
        <ele>394.8</ele>
        <time>2021-02-20T12:34:54.000Z</time>
      </trkpt>
      <trkpt lat="45.8555" lon="5.43822">
        <ele>394.8</ele>
        <time>2021-02-20T12:34:55.000Z</time>
      </trkpt>
      <trkpt lat="45.8555" lon="5.43825">
        <ele>395</ele>
        <time>2021-02-20T12:34:56.000Z</time>
      </trkpt>
      <trkpt lat="45.8555" lon="5.43828">
        <ele>395.2</ele>
        <time>2021-02-20T12:34:57.000Z</time>
      </trkpt>
      <trkpt lat="45.8555" lon="5.4383">
        <ele>395.4</ele>
        <time>2021-02-20T12:34:58.000Z</time>
      </trkpt>
      <trkpt lat="45.8555" lon="5.43832">
        <ele>395.4</ele>
        <time>2021-02-20T12:34:59.000Z</time>
      </trkpt>
      <trkpt lat="45.8555" lon="5.43835">
        <ele>395.8</ele>
        <time>2021-02-20T12:35:00.000Z</time>
      </trkpt>
      <trkpt lat="45.8555" lon="5.43837">
        <ele>396.2</ele>
        <time>2021-02-20T12:35:01.000Z</time>
      </trkpt>
      <trkpt lat="45.85549" lon="5.4384">
        <ele>396.4</ele>
        <time>2021-02-20T12:35:02.000Z</time>
      </trkpt>
      <trkpt lat="45.85549" lon="5.43842">
        <ele>396.8</ele>
        <time>2021-02-20T12:35:03.000Z</time>
      </trkpt>
      <trkpt lat="45.85548" lon="5.43845">
        <ele>397.2</ele>
        <time>2021-02-20T12:35:04.000Z</time>
      </trkpt>
      <trkpt lat="45.85547" lon="5.43847">
        <ele>397.4</ele>
        <time>2021-02-20T12:35:05.000Z</time>
      </trkpt>
      <trkpt lat="45.85547" lon="5.4385">
        <ele>397.4</ele>
        <time>2021-02-20T12:35:06.000Z</time>
      </trkpt>
      <trkpt lat="45.85547" lon="5.43853">
        <ele>397.6</ele>
        <time>2021-02-20T12:35:07.000Z</time>
      </trkpt>
      <trkpt lat="45.85547" lon="5.43856">
        <ele>397.8</ele>
        <time>2021-02-20T12:35:08.000Z</time>
      </trkpt>
      <trkpt lat="45.85546" lon="5.43859">
        <ele>398</ele>
        <time>2021-02-20T12:35:09.000Z</time>
      </trkpt>
      <trkpt lat="45.85546" lon="5.43862">
        <ele>398.2</ele>
        <time>2021-02-20T12:35:10.000Z</time>
      </trkpt>
      <trkpt lat="45.85546" lon="5.43865">
        <ele>398.4</ele>
        <time>2021-02-20T12:35:11.000Z</time>
      </trkpt>
      <trkpt lat="45.85545" lon="5.43868">
        <ele>398.6</ele>
        <time>2021-02-20T12:35:12.000Z</time>
      </trkpt>
      <trkpt lat="45.85546" lon="5.43871">
        <ele>398.8</ele>
        <time>2021-02-20T12:35:13.000Z</time>
      </trkpt>
      <trkpt lat="45.85546" lon="5.43874">
        <ele>398.8</ele>
        <time>2021-02-20T12:35:14.000Z</time>
      </trkpt>
      <trkpt lat="45.85546" lon="5.43876">
        <ele>399</ele>
        <time>2021-02-20T12:35:15.000Z</time>
      </trkpt>
      <trkpt lat="45.85546" lon="5.4388">
        <ele>399</ele>
        <time>2021-02-20T12:35:16.000Z</time>
      </trkpt>
      <trkpt lat="45.85546" lon="5.43882">
        <ele>399</ele>
        <time>2021-02-20T12:35:17.000Z</time>
      </trkpt>
      <trkpt lat="45.85547" lon="5.43885">
        <ele>399.4</ele>
        <time>2021-02-20T12:35:18.000Z</time>
      </trkpt>
      <trkpt lat="45.85547" lon="5.43888">
        <ele>399.2</ele>
        <time>2021-02-20T12:35:19.000Z</time>
      </trkpt>
      <trkpt lat="45.85547" lon="5.43891">
        <ele>399.4</ele>
        <time>2021-02-20T12:35:20.000Z</time>
      </trkpt>
      <trkpt lat="45.85547" lon="5.43895">
        <ele>399.6</ele>
        <time>2021-02-20T12:35:21.000Z</time>
      </trkpt>
      <trkpt lat="45.85546" lon="5.43898">
        <ele>399.8</ele>
        <time>2021-02-20T12:35:22.000Z</time>
      </trkpt>
      <trkpt lat="45.85546" lon="5.43902">
        <ele>399.8</ele>
        <time>2021-02-20T12:35:23.000Z</time>
      </trkpt>
      <trkpt lat="45.85545" lon="5.43905">
        <ele>400</ele>
        <time>2021-02-20T12:35:24.000Z</time>
      </trkpt>
      <trkpt lat="45.85545" lon="5.43908">
        <ele>400.2</ele>
        <time>2021-02-20T12:35:25.000Z</time>
      </trkpt>
      <trkpt lat="45.85545" lon="5.43911">
        <ele>400.6</ele>
        <time>2021-02-20T12:35:26.000Z</time>
      </trkpt>
      <trkpt lat="45.85544" lon="5.43915">
        <ele>400.6</ele>
        <time>2021-02-20T12:35:27.000Z</time>
      </trkpt>
      <trkpt lat="45.85544" lon="5.43917">
        <ele>400.8</ele>
        <time>2021-02-20T12:35:28.000Z</time>
      </trkpt>
      <trkpt lat="45.85543" lon="5.4392">
        <ele>401.2</ele>
        <time>2021-02-20T12:35:29.000Z</time>
      </trkpt>
      <trkpt lat="45.85542" lon="5.43923">
        <ele>401.2</ele>
        <time>2021-02-20T12:35:30.000Z</time>
      </trkpt>
      <trkpt lat="45.85542" lon="5.43926">
        <ele>401.4</ele>
        <time>2021-02-20T12:35:31.000Z</time>
      </trkpt>
      <trkpt lat="45.85541" lon="5.43928">
        <ele>401.4</ele>
        <time>2021-02-20T12:35:32.000Z</time>
      </trkpt>
      <trkpt lat="45.8554" lon="5.43931">
        <ele>401.6</ele>
        <time>2021-02-20T12:35:33.000Z</time>
      </trkpt>
      <trkpt lat="45.8554" lon="5.43933">
        <ele>401.4</ele>
        <time>2021-02-20T12:35:34.000Z</time>
      </trkpt>
      <trkpt lat="45.85539" lon="5.43935">
        <ele>401.8</ele>
        <time>2021-02-20T12:35:35.000Z</time>
      </trkpt>
      <trkpt lat="45.85538" lon="5.43938">
        <ele>401.8</ele>
        <time>2021-02-20T12:35:36.000Z</time>
      </trkpt>
      <trkpt lat="45.85538" lon="5.4394">
        <ele>402</ele>
        <time>2021-02-20T12:35:37.000Z</time>
      </trkpt>
      <trkpt lat="45.85537" lon="5.43943">
        <ele>402</ele>
        <time>2021-02-20T12:35:38.000Z</time>
      </trkpt>
      <trkpt lat="45.85536" lon="5.43946">
        <ele>402.2</ele>
        <time>2021-02-20T12:35:39.000Z</time>
      </trkpt>
      <trkpt lat="45.85535" lon="5.43949">
        <ele>402.6</ele>
        <time>2021-02-20T12:35:40.000Z</time>
      </trkpt>
      <trkpt lat="45.85534" lon="5.43951">
        <ele>402.8</ele>
        <time>2021-02-20T12:35:41.000Z</time>
      </trkpt>
      <trkpt lat="45.85534" lon="5.43953">
        <ele>403.2</ele>
        <time>2021-02-20T12:35:42.000Z</time>
      </trkpt>
      <trkpt lat="45.85533" lon="5.43955">
        <ele>403.4</ele>
        <time>2021-02-20T12:35:43.000Z</time>
      </trkpt>
      <trkpt lat="45.85532" lon="5.43957">
        <ele>403.4</ele>
        <time>2021-02-20T12:35:44.000Z</time>
      </trkpt>
      <trkpt lat="45.85531" lon="5.4396">
        <ele>403.6</ele>
        <time>2021-02-20T12:35:45.000Z</time>
      </trkpt>
      <trkpt lat="45.8553" lon="5.43963">
        <ele>403.6</ele>
        <time>2021-02-20T12:35:46.000Z</time>
      </trkpt>
      <trkpt lat="45.85528" lon="5.43966">
        <ele>403.8</ele>
        <time>2021-02-20T12:35:47.000Z</time>
      </trkpt>
      <trkpt lat="45.85527" lon="5.4397">
        <ele>404</ele>
        <time>2021-02-20T12:35:48.000Z</time>
      </trkpt>
      <trkpt lat="45.85527" lon="5.43973">
        <ele>403.8</ele>
        <time>2021-02-20T12:35:49.000Z</time>
      </trkpt>
      <trkpt lat="45.85525" lon="5.43976">
        <ele>404</ele>
        <time>2021-02-20T12:35:50.000Z</time>
      </trkpt>
      <trkpt lat="45.85525" lon="5.43979">
        <ele>404.2</ele>
        <time>2021-02-20T12:35:51.000Z</time>
      </trkpt>
      <trkpt lat="45.85524" lon="5.43983">
        <ele>404.4</ele>
        <time>2021-02-20T12:35:52.000Z</time>
      </trkpt>
      <trkpt lat="45.85523" lon="5.43986">
        <ele>404.4</ele>
        <time>2021-02-20T12:35:53.000Z</time>
      </trkpt>
      <trkpt lat="45.85523" lon="5.43989">
        <ele>404.4</ele>
        <time>2021-02-20T12:35:54.000Z</time>
      </trkpt>
      <trkpt lat="45.85522" lon="5.43992">
        <ele>404.4</ele>
        <time>2021-02-20T12:35:55.000Z</time>
      </trkpt>
      <trkpt lat="45.85521" lon="5.43995">
        <ele>404.6</ele>
        <time>2021-02-20T12:35:56.000Z</time>
      </trkpt>
      <trkpt lat="45.8552" lon="5.43998">
        <ele>404.6</ele>
        <time>2021-02-20T12:35:57.000Z</time>
      </trkpt>
      <trkpt lat="45.85519" lon="5.44001">
        <ele>404.8</ele>
        <time>2021-02-20T12:35:58.000Z</time>
      </trkpt>
      <trkpt lat="45.85519" lon="5.44004">
        <ele>405</ele>
        <time>2021-02-20T12:35:59.000Z</time>
      </trkpt>
      <trkpt lat="45.85518" lon="5.44007">
        <ele>405.4</ele>
        <time>2021-02-20T12:36:00.000Z</time>
      </trkpt>
      <trkpt lat="45.85518" lon="5.44009">
        <ele>405.6</ele>
        <time>2021-02-20T12:36:01.000Z</time>
      </trkpt>
      <trkpt lat="45.85518" lon="5.44012">
        <ele>405.8</ele>
        <time>2021-02-20T12:36:02.000Z</time>
      </trkpt>
      <trkpt lat="45.85518" lon="5.44015">
        <ele>405.8</ele>
        <time>2021-02-20T12:36:03.000Z</time>
      </trkpt>
      <trkpt lat="45.85519" lon="5.44017">
        <ele>406</ele>
        <time>2021-02-20T12:36:04.000Z</time>
      </trkpt>
      <trkpt lat="45.85518" lon="5.4402">
        <ele>406.2</ele>
        <time>2021-02-20T12:36:05.000Z</time>
      </trkpt>
      <trkpt lat="45.85518" lon="5.44022">
        <ele>406.4</ele>
        <time>2021-02-20T12:36:06.000Z</time>
      </trkpt>
      <trkpt lat="45.85518" lon="5.44024">
        <ele>406.8</ele>
        <time>2021-02-20T12:36:07.000Z</time>
      </trkpt>
      <trkpt lat="45.85519" lon="5.44027">
        <ele>406.6</ele>
        <time>2021-02-20T12:36:08.000Z</time>
      </trkpt>
      <trkpt lat="45.8552" lon="5.44029">
        <ele>406.6</ele>
        <time>2021-02-20T12:36:09.000Z</time>
      </trkpt>
      <trkpt lat="45.85521" lon="5.44032">
        <ele>407</ele>
        <time>2021-02-20T12:36:10.000Z</time>
      </trkpt>
      <trkpt lat="45.85523" lon="5.44035">
        <ele>407.2</ele>
        <time>2021-02-20T12:36:11.000Z</time>
      </trkpt>
      <trkpt lat="45.85525" lon="5.44038">
        <ele>407.2</ele>
        <time>2021-02-20T12:36:12.000Z</time>
      </trkpt>
      <trkpt lat="45.85526" lon="5.4404">
        <ele>407.6</ele>
        <time>2021-02-20T12:36:13.000Z</time>
      </trkpt>
      <trkpt lat="45.85526" lon="5.44043">
        <ele>407.8</ele>
        <time>2021-02-20T12:36:14.000Z</time>
      </trkpt>
      <trkpt lat="45.85526" lon="5.44046">
        <ele>407.8</ele>
        <time>2021-02-20T12:36:15.000Z</time>
      </trkpt>
      <trkpt lat="45.85526" lon="5.44048">
        <ele>407.8</ele>
        <time>2021-02-20T12:36:16.000Z</time>
      </trkpt>
      <trkpt lat="45.85526" lon="5.44051">
        <ele>407.8</ele>
        <time>2021-02-20T12:36:17.000Z</time>
      </trkpt>
      <trkpt lat="45.85528" lon="5.44053">
        <ele>408.2</ele>
        <time>2021-02-20T12:36:18.000Z</time>
      </trkpt>
      <trkpt lat="45.85528" lon="5.44055">
        <ele>408.4</ele>
        <time>2021-02-20T12:36:19.000Z</time>
      </trkpt>
      <trkpt lat="45.85531" lon="5.44058">
        <ele>408.4</ele>
        <time>2021-02-20T12:36:20.000Z</time>
      </trkpt>
      <trkpt lat="45.85532" lon="5.4406">
        <ele>408.6</ele>
        <time>2021-02-20T12:36:21.000Z</time>
      </trkpt>
      <trkpt lat="45.85533" lon="5.44062">
        <ele>408.8</ele>
        <time>2021-02-20T12:36:22.000Z</time>
      </trkpt>
      <trkpt lat="45.85533" lon="5.44064">
        <ele>409</ele>
        <time>2021-02-20T12:36:23.000Z</time>
      </trkpt>
      <trkpt lat="45.85531" lon="5.44067">
        <ele>409.2</ele>
        <time>2021-02-20T12:36:24.000Z</time>
      </trkpt>
      <trkpt lat="45.85533" lon="5.44069">
        <ele>409.4</ele>
        <time>2021-02-20T12:36:25.000Z</time>
      </trkpt>
      <trkpt lat="45.85533" lon="5.44071">
        <ele>409.6</ele>
        <time>2021-02-20T12:36:26.000Z</time>
      </trkpt>
      <trkpt lat="45.85534" lon="5.44072">
        <ele>409.8</ele>
        <time>2021-02-20T12:36:27.000Z</time>
      </trkpt>
      <trkpt lat="45.85534" lon="5.44074">
        <ele>410.2</ele>
        <time>2021-02-20T12:36:28.000Z</time>
      </trkpt>
      <trkpt lat="45.85533" lon="5.44075">
        <ele>410.4</ele>
        <time>2021-02-20T12:36:29.000Z</time>
      </trkpt>
      <trkpt lat="45.85533" lon="5.44077">
        <ele>410.6</ele>
        <time>2021-02-20T12:36:30.000Z</time>
      </trkpt>
      <trkpt lat="45.85533" lon="5.44079">
        <ele>411</ele>
        <time>2021-02-20T12:36:31.000Z</time>
      </trkpt>
      <trkpt lat="45.85532" lon="5.4408">
        <ele>411.2</ele>
        <time>2021-02-20T12:36:32.000Z</time>
      </trkpt>
      <trkpt lat="45.85531" lon="5.44082">
        <ele>411.6</ele>
        <time>2021-02-20T12:36:33.000Z</time>
      </trkpt>
      <trkpt lat="45.8553" lon="5.44084">
        <ele>411.6</ele>
        <time>2021-02-20T12:36:34.000Z</time>
      </trkpt>
      <trkpt lat="45.85529" lon="5.44086">
        <ele>412</ele>
        <time>2021-02-20T12:36:35.000Z</time>
      </trkpt>
      <trkpt lat="45.85528" lon="5.44088">
        <ele>412</ele>
        <time>2021-02-20T12:36:36.000Z</time>
      </trkpt>
      <trkpt lat="45.85527" lon="5.4409">
        <ele>412</ele>
        <time>2021-02-20T12:36:37.000Z</time>
      </trkpt>
      <trkpt lat="45.85526" lon="5.44093">
        <ele>412.2</ele>
        <time>2021-02-20T12:36:38.000Z</time>
      </trkpt>
      <trkpt lat="45.85525" lon="5.44095">
        <ele>412.2</ele>
        <time>2021-02-20T12:36:39.000Z</time>
      </trkpt>
      <trkpt lat="45.85524" lon="5.44097">
        <ele>412.6</ele>
        <time>2021-02-20T12:36:40.000Z</time>
      </trkpt>
      <trkpt lat="45.85524" lon="5.44099">
        <ele>412.8</ele>
        <time>2021-02-20T12:36:41.000Z</time>
      </trkpt>
      <trkpt lat="45.85522" lon="5.44101">
        <ele>413</ele>
        <time>2021-02-20T12:36:42.000Z</time>
      </trkpt>
      <trkpt lat="45.85521" lon="5.44104">
        <ele>413</ele>
        <time>2021-02-20T12:36:43.000Z</time>
      </trkpt>
      <trkpt lat="45.8552" lon="5.44106">
        <ele>413</ele>
        <time>2021-02-20T12:36:44.000Z</time>
      </trkpt>
      <trkpt lat="45.8552" lon="5.44108">
        <ele>413.4</ele>
        <time>2021-02-20T12:36:45.000Z</time>
      </trkpt>
      <trkpt lat="45.8552" lon="5.44111">
        <ele>413.6</ele>
        <time>2021-02-20T12:36:46.000Z</time>
      </trkpt>
      <trkpt lat="45.85519" lon="5.44113">
        <ele>413.8</ele>
        <time>2021-02-20T12:36:47.000Z</time>
      </trkpt>
      <trkpt lat="45.85518" lon="5.44116">
        <ele>414</ele>
        <time>2021-02-20T12:36:48.000Z</time>
      </trkpt>
      <trkpt lat="45.85517" lon="5.44118">
        <ele>414.2</ele>
        <time>2021-02-20T12:36:49.000Z</time>
      </trkpt>
      <trkpt lat="45.85517" lon="5.44121">
        <ele>414.4</ele>
        <time>2021-02-20T12:36:50.000Z</time>
      </trkpt>
      <trkpt lat="45.85517" lon="5.44123">
        <ele>414.8</ele>
        <time>2021-02-20T12:36:51.000Z</time>
      </trkpt>
      <trkpt lat="45.85516" lon="5.44125">
        <ele>414.8</ele>
        <time>2021-02-20T12:36:52.000Z</time>
      </trkpt>
      <trkpt lat="45.85516" lon="5.44128">
        <ele>414.8</ele>
        <time>2021-02-20T12:36:53.000Z</time>
      </trkpt>
      <trkpt lat="45.85515" lon="5.4413">
        <ele>415</ele>
        <time>2021-02-20T12:36:54.000Z</time>
      </trkpt>
      <trkpt lat="45.85514" lon="5.44132">
        <ele>415.2</ele>
        <time>2021-02-20T12:36:55.000Z</time>
      </trkpt>
      <trkpt lat="45.85514" lon="5.44135">
        <ele>415.4</ele>
        <time>2021-02-20T12:36:56.000Z</time>
      </trkpt>
      <trkpt lat="45.85513" lon="5.44137">
        <ele>415.4</ele>
        <time>2021-02-20T12:36:57.000Z</time>
      </trkpt>
      <trkpt lat="45.85512" lon="5.44139">
        <ele>415.6</ele>
        <time>2021-02-20T12:36:58.000Z</time>
      </trkpt>
      <trkpt lat="45.85511" lon="5.44142">
        <ele>415.8</ele>
        <time>2021-02-20T12:36:59.000Z</time>
      </trkpt>
      <trkpt lat="45.8551" lon="5.44145">
        <ele>416.4</ele>
        <time>2021-02-20T12:37:00.000Z</time>
      </trkpt>
      <trkpt lat="45.85509" lon="5.44147">
        <ele>416.6</ele>
        <time>2021-02-20T12:37:01.000Z</time>
      </trkpt>
      <trkpt lat="45.85507" lon="5.44151">
        <ele>417</ele>
        <time>2021-02-20T12:37:02.000Z</time>
      </trkpt>
      <trkpt lat="45.85506" lon="5.44153">
        <ele>417.2</ele>
        <time>2021-02-20T12:37:03.000Z</time>
      </trkpt>
      <trkpt lat="45.85506" lon="5.44156">
        <ele>417.6</ele>
        <time>2021-02-20T12:37:04.000Z</time>
      </trkpt>
      <trkpt lat="45.85506" lon="5.44159">
        <ele>418</ele>
        <time>2021-02-20T12:37:05.000Z</time>
      </trkpt>
      <trkpt lat="45.85505" lon="5.44162">
        <ele>418.2</ele>
        <time>2021-02-20T12:37:06.000Z</time>
      </trkpt>
      <trkpt lat="45.85504" lon="5.44164">
        <ele>418.4</ele>
        <time>2021-02-20T12:37:07.000Z</time>
      </trkpt>
      <trkpt lat="45.85504" lon="5.44166">
        <ele>418.6</ele>
        <time>2021-02-20T12:37:08.000Z</time>
      </trkpt>
      <trkpt lat="45.85504" lon="5.44169">
        <ele>418.6</ele>
        <time>2021-02-20T12:37:09.000Z</time>
      </trkpt>
      <trkpt lat="45.85502" lon="5.44172">
        <ele>418.6</ele>
        <time>2021-02-20T12:37:10.000Z</time>
      </trkpt>
      <trkpt lat="45.85502" lon="5.44175">
        <ele>418.8</ele>
        <time>2021-02-20T12:37:11.000Z</time>
      </trkpt>
      <trkpt lat="45.85502" lon="5.44177">
        <ele>418.8</ele>
        <time>2021-02-20T12:37:12.000Z</time>
      </trkpt>
      <trkpt lat="45.85501" lon="5.4418">
        <ele>419</ele>
        <time>2021-02-20T12:37:13.000Z</time>
      </trkpt>
      <trkpt lat="45.85501" lon="5.44183">
        <ele>419.4</ele>
        <time>2021-02-20T12:37:14.000Z</time>
      </trkpt>
      <trkpt lat="45.855" lon="5.44185">
        <ele>419.6</ele>
        <time>2021-02-20T12:37:15.000Z</time>
      </trkpt>
      <trkpt lat="45.85499" lon="5.44188">
        <ele>419.8</ele>
        <time>2021-02-20T12:37:16.000Z</time>
      </trkpt>
      <trkpt lat="45.85497" lon="5.44191">
        <ele>420</ele>
        <time>2021-02-20T12:37:17.000Z</time>
      </trkpt>
      <trkpt lat="45.85497" lon="5.44194">
        <ele>420</ele>
        <time>2021-02-20T12:37:18.000Z</time>
      </trkpt>
      <trkpt lat="45.85495" lon="5.44198">
        <ele>420.4</ele>
        <time>2021-02-20T12:37:19.000Z</time>
      </trkpt>
      <trkpt lat="45.85494" lon="5.44201">
        <ele>420.4</ele>
        <time>2021-02-20T12:37:20.000Z</time>
      </trkpt>
      <trkpt lat="45.85492" lon="5.44205">
        <ele>420.8</ele>
        <time>2021-02-20T12:37:21.000Z</time>
      </trkpt>
      <trkpt lat="45.8549" lon="5.44208">
        <ele>421</ele>
        <time>2021-02-20T12:37:22.000Z</time>
      </trkpt>
      <trkpt lat="45.8549" lon="5.44211">
        <ele>421</ele>
        <time>2021-02-20T12:37:23.000Z</time>
      </trkpt>
      <trkpt lat="45.85489" lon="5.44214">
        <ele>421</ele>
        <time>2021-02-20T12:37:24.000Z</time>
      </trkpt>
      <trkpt lat="45.85489" lon="5.44217">
        <ele>421.2</ele>
        <time>2021-02-20T12:37:25.000Z</time>
      </trkpt>
      <trkpt lat="45.85488" lon="5.4422">
        <ele>421.4</ele>
        <time>2021-02-20T12:37:26.000Z</time>
      </trkpt>
      <trkpt lat="45.85487" lon="5.44223">
        <ele>421.4</ele>
        <time>2021-02-20T12:37:27.000Z</time>
      </trkpt>
      <trkpt lat="45.85487" lon="5.44226">
        <ele>421.6</ele>
        <time>2021-02-20T12:37:28.000Z</time>
      </trkpt>
      <trkpt lat="45.85486" lon="5.44229">
        <ele>421.8</ele>
        <time>2021-02-20T12:37:29.000Z</time>
      </trkpt>
      <trkpt lat="45.85486" lon="5.44232">
        <ele>422</ele>
        <time>2021-02-20T12:37:30.000Z</time>
      </trkpt>
      <trkpt lat="45.85487" lon="5.44234">
        <ele>422.2</ele>
        <time>2021-02-20T12:37:31.000Z</time>
      </trkpt>
      <trkpt lat="45.85488" lon="5.44236">
        <ele>422.2</ele>
        <time>2021-02-20T12:37:32.000Z</time>
      </trkpt>
      <trkpt lat="45.85489" lon="5.44238">
        <ele>422.4</ele>
        <time>2021-02-20T12:37:33.000Z</time>
      </trkpt>
      <trkpt lat="45.8549" lon="5.4424">
        <ele>422.4</ele>
        <time>2021-02-20T12:37:34.000Z</time>
      </trkpt>
      <trkpt lat="45.85491" lon="5.44241">
        <ele>422.6</ele>
        <time>2021-02-20T12:37:35.000Z</time>
      </trkpt>
      <trkpt lat="45.85492" lon="5.44243">
        <ele>422.8</ele>
        <time>2021-02-20T12:37:36.000Z</time>
      </trkpt>
      <trkpt lat="45.85494" lon="5.44245">
        <ele>422.8</ele>
        <time>2021-02-20T12:37:37.000Z</time>
      </trkpt>
      <trkpt lat="45.85496" lon="5.44246">
        <ele>422.6</ele>
        <time>2021-02-20T12:37:38.000Z</time>
      </trkpt>
      <trkpt lat="45.85499" lon="5.44247">
        <ele>422.6</ele>
        <time>2021-02-20T12:37:39.000Z</time>
      </trkpt>
      <trkpt lat="45.85501" lon="5.44248">
        <ele>422.8</ele>
        <time>2021-02-20T12:37:40.000Z</time>
      </trkpt>
      <trkpt lat="45.85503" lon="5.44249">
        <ele>423</ele>
        <time>2021-02-20T12:37:41.000Z</time>
      </trkpt>
      <trkpt lat="45.85504" lon="5.4425">
        <ele>423</ele>
        <time>2021-02-20T12:37:42.000Z</time>
      </trkpt>
      <trkpt lat="45.85506" lon="5.44251">
        <ele>423.2</ele>
        <time>2021-02-20T12:37:43.000Z</time>
      </trkpt>
      <trkpt lat="45.85508" lon="5.44252">
        <ele>423.4</ele>
        <time>2021-02-20T12:37:44.000Z</time>
      </trkpt>
      <trkpt lat="45.85509" lon="5.44253">
        <ele>423.6</ele>
        <time>2021-02-20T12:37:45.000Z</time>
      </trkpt>
      <trkpt lat="45.85511" lon="5.44255">
        <ele>423.8</ele>
        <time>2021-02-20T12:37:46.000Z</time>
      </trkpt>
      <trkpt lat="45.85513" lon="5.44256">
        <ele>423.8</ele>
        <time>2021-02-20T12:37:47.000Z</time>
      </trkpt>
      <trkpt lat="45.85515" lon="5.44258">
        <ele>424.2</ele>
        <time>2021-02-20T12:37:48.000Z</time>
      </trkpt>
      <trkpt lat="45.85517" lon="5.4426">
        <ele>424.4</ele>
        <time>2021-02-20T12:37:49.000Z</time>
      </trkpt>
      <trkpt lat="45.8552" lon="5.44261">
        <ele>424.4</ele>
        <time>2021-02-20T12:37:50.000Z</time>
      </trkpt>
      <trkpt lat="45.85522" lon="5.44262">
        <ele>424.6</ele>
        <time>2021-02-20T12:37:51.000Z</time>
      </trkpt>
      <trkpt lat="45.85524" lon="5.44263">
        <ele>425</ele>
        <time>2021-02-20T12:37:52.000Z</time>
      </trkpt>
      <trkpt lat="45.85526" lon="5.44265">
        <ele>425</ele>
        <time>2021-02-20T12:37:53.000Z</time>
      </trkpt>
      <trkpt lat="45.85528" lon="5.44268">
        <ele>425.6</ele>
        <time>2021-02-20T12:37:54.000Z</time>
      </trkpt>
      <trkpt lat="45.8553" lon="5.4427">
        <ele>425.6</ele>
        <time>2021-02-20T12:37:55.000Z</time>
      </trkpt>
      <trkpt lat="45.85532" lon="5.44272">
        <ele>426</ele>
        <time>2021-02-20T12:37:56.000Z</time>
      </trkpt>
      <trkpt lat="45.85533" lon="5.44274">
        <ele>426</ele>
        <time>2021-02-20T12:37:57.000Z</time>
      </trkpt>
      <trkpt lat="45.85534" lon="5.44276">
        <ele>426</ele>
        <time>2021-02-20T12:37:58.000Z</time>
      </trkpt>
      <trkpt lat="45.85535" lon="5.44279">
        <ele>426.2</ele>
        <time>2021-02-20T12:37:59.000Z</time>
      </trkpt>
      <trkpt lat="45.85535" lon="5.44282">
        <ele>426.4</ele>
        <time>2021-02-20T12:38:00.000Z</time>
      </trkpt>
      <trkpt lat="45.85536" lon="5.44286">
        <ele>426.6</ele>
        <time>2021-02-20T12:38:01.000Z</time>
      </trkpt>
      <trkpt lat="45.85537" lon="5.44289">
        <ele>426.6</ele>
        <time>2021-02-20T12:38:02.000Z</time>
      </trkpt>
      <trkpt lat="45.85537" lon="5.44292">
        <ele>426.8</ele>
        <time>2021-02-20T12:38:03.000Z</time>
      </trkpt>
      <trkpt lat="45.85537" lon="5.44296">
        <ele>426.8</ele>
        <time>2021-02-20T12:38:04.000Z</time>
      </trkpt>
      <trkpt lat="45.85537" lon="5.44299">
        <ele>427</ele>
        <time>2021-02-20T12:38:05.000Z</time>
      </trkpt>
      <trkpt lat="45.85537" lon="5.44301">
        <ele>427.4</ele>
        <time>2021-02-20T12:38:06.000Z</time>
      </trkpt>
      <trkpt lat="45.85536" lon="5.44304">
        <ele>427.4</ele>
        <time>2021-02-20T12:38:07.000Z</time>
      </trkpt>
      <trkpt lat="45.85536" lon="5.44306">
        <ele>427.8</ele>
        <time>2021-02-20T12:38:08.000Z</time>
      </trkpt>
      <trkpt lat="45.85534" lon="5.44308">
        <ele>427.8</ele>
        <time>2021-02-20T12:38:09.000Z</time>
      </trkpt>
      <trkpt lat="45.85533" lon="5.4431">
        <ele>428</ele>
        <time>2021-02-20T12:38:10.000Z</time>
      </trkpt>
      <trkpt lat="45.85532" lon="5.44312">
        <ele>428.2</ele>
        <time>2021-02-20T12:38:11.000Z</time>
      </trkpt>
      <trkpt lat="45.8553" lon="5.44314">
        <ele>428.4</ele>
        <time>2021-02-20T12:38:12.000Z</time>
      </trkpt>
      <trkpt lat="45.85528" lon="5.44316">
        <ele>428.4</ele>
        <time>2021-02-20T12:38:13.000Z</time>
      </trkpt>
      <trkpt lat="45.85527" lon="5.44318">
        <ele>428.6</ele>
        <time>2021-02-20T12:38:14.000Z</time>
      </trkpt>
      <trkpt lat="45.85526" lon="5.4432">
        <ele>428.8</ele>
        <time>2021-02-20T12:38:15.000Z</time>
      </trkpt>
      <trkpt lat="45.85525" lon="5.44322">
        <ele>429</ele>
        <time>2021-02-20T12:38:16.000Z</time>
      </trkpt>
      <trkpt lat="45.85524" lon="5.44325">
        <ele>429</ele>
        <time>2021-02-20T12:38:17.000Z</time>
      </trkpt>
      <trkpt lat="45.85522" lon="5.44327">
        <ele>429.4</ele>
        <time>2021-02-20T12:38:18.000Z</time>
      </trkpt>
      <trkpt lat="45.85521" lon="5.4433">
        <ele>429.4</ele>
        <time>2021-02-20T12:38:19.000Z</time>
      </trkpt>
      <trkpt lat="45.8552" lon="5.44332">
        <ele>429.6</ele>
        <time>2021-02-20T12:38:20.000Z</time>
      </trkpt>
      <trkpt lat="45.85519" lon="5.44334">
        <ele>429.6</ele>
        <time>2021-02-20T12:38:21.000Z</time>
      </trkpt>
      <trkpt lat="45.85517" lon="5.44337">
        <ele>430.2</ele>
        <time>2021-02-20T12:38:22.000Z</time>
      </trkpt>
      <trkpt lat="45.85516" lon="5.44339">
        <ele>430.2</ele>
        <time>2021-02-20T12:38:23.000Z</time>
      </trkpt>
      <trkpt lat="45.85514" lon="5.44342">
        <ele>430.2</ele>
        <time>2021-02-20T12:38:24.000Z</time>
      </trkpt>
      <trkpt lat="45.85512" lon="5.44344">
        <ele>430.6</ele>
        <time>2021-02-20T12:38:25.000Z</time>
      </trkpt>
      <trkpt lat="45.8551" lon="5.44346">
        <ele>430.4</ele>
        <time>2021-02-20T12:38:26.000Z</time>
      </trkpt>
      <trkpt lat="45.85509" lon="5.44348">
        <ele>430.6</ele>
        <time>2021-02-20T12:38:27.000Z</time>
      </trkpt>
      <trkpt lat="45.85507" lon="5.44349">
        <ele>430.8</ele>
        <time>2021-02-20T12:38:28.000Z</time>
      </trkpt>
      <trkpt lat="45.85506" lon="5.4435">
        <ele>431</ele>
        <time>2021-02-20T12:38:29.000Z</time>
      </trkpt>
      <trkpt lat="45.85504" lon="5.44351">
        <ele>431.2</ele>
        <time>2021-02-20T12:38:30.000Z</time>
      </trkpt>
      <trkpt lat="45.85502" lon="5.44351">
        <ele>431.4</ele>
        <time>2021-02-20T12:38:31.000Z</time>
      </trkpt>
      <trkpt lat="45.85501" lon="5.44351">
        <ele>431.6</ele>
        <time>2021-02-20T12:38:32.000Z</time>
      </trkpt>
      <trkpt lat="45.855" lon="5.4435">
        <ele>431.8</ele>
        <time>2021-02-20T12:38:33.000Z</time>
      </trkpt>
      <trkpt lat="45.85499" lon="5.44348">
        <ele>432.2</ele>
        <time>2021-02-20T12:38:34.000Z</time>
      </trkpt>
      <trkpt lat="45.85498" lon="5.44346">
        <ele>432.4</ele>
        <time>2021-02-20T12:38:35.000Z</time>
      </trkpt>
      <trkpt lat="45.85498" lon="5.44343">
        <ele>432.4</ele>
        <time>2021-02-20T12:38:36.000Z</time>
      </trkpt>
      <trkpt lat="45.85498" lon="5.4434">
        <ele>432.4</ele>
        <time>2021-02-20T12:38:37.000Z</time>
      </trkpt>
      <trkpt lat="45.85498" lon="5.44337">
        <ele>432.6</ele>
        <time>2021-02-20T12:38:38.000Z</time>
      </trkpt>
      <trkpt lat="45.85499" lon="5.44334">
        <ele>432.6</ele>
        <time>2021-02-20T12:38:39.000Z</time>
      </trkpt>
      <trkpt lat="45.855" lon="5.44331">
        <ele>433</ele>
        <time>2021-02-20T12:38:40.000Z</time>
      </trkpt>
      <trkpt lat="45.85501" lon="5.44329">
        <ele>433.2</ele>
        <time>2021-02-20T12:38:41.000Z</time>
      </trkpt>
      <trkpt lat="45.85502" lon="5.44328">
        <ele>433.4</ele>
        <time>2021-02-20T12:38:42.000Z</time>
      </trkpt>
      <trkpt lat="45.85503" lon="5.44326">
        <ele>433.6</ele>
        <time>2021-02-20T12:38:43.000Z</time>
      </trkpt>
      <trkpt lat="45.85505" lon="5.44324">
        <ele>433.8</ele>
        <time>2021-02-20T12:38:44.000Z</time>
      </trkpt>
      <trkpt lat="45.85506" lon="5.44323">
        <ele>434</ele>
        <time>2021-02-20T12:38:45.000Z</time>
      </trkpt>
      <trkpt lat="45.85507" lon="5.4432">
        <ele>434.2</ele>
        <time>2021-02-20T12:38:46.000Z</time>
      </trkpt>
      <trkpt lat="45.85507" lon="5.44318">
        <ele>434.6</ele>
        <time>2021-02-20T12:38:47.000Z</time>
      </trkpt>
      <trkpt lat="45.85507" lon="5.44315">
        <ele>434.6</ele>
        <time>2021-02-20T12:38:48.000Z</time>
      </trkpt>
      <trkpt lat="45.85507" lon="5.44312">
        <ele>434.8</ele>
        <time>2021-02-20T12:38:49.000Z</time>
      </trkpt>
      <trkpt lat="45.85506" lon="5.4431">
        <ele>434.8</ele>
        <time>2021-02-20T12:38:50.000Z</time>
      </trkpt>
      <trkpt lat="45.85505" lon="5.44308">
        <ele>434.8</ele>
        <time>2021-02-20T12:38:51.000Z</time>
      </trkpt>
      <trkpt lat="45.85504" lon="5.44307">
        <ele>435</ele>
        <time>2021-02-20T12:38:52.000Z</time>
      </trkpt>
      <trkpt lat="45.85503" lon="5.44306">
        <ele>435.2</ele>
        <time>2021-02-20T12:38:53.000Z</time>
      </trkpt>
      <trkpt lat="45.85502" lon="5.44305">
        <ele>435.4</ele>
        <time>2021-02-20T12:38:54.000Z</time>
      </trkpt>
      <trkpt lat="45.855" lon="5.44304">
        <ele>435.4</ele>
        <time>2021-02-20T12:38:55.000Z</time>
      </trkpt>
      <trkpt lat="45.85499" lon="5.44303">
        <ele>435.4</ele>
        <time>2021-02-20T12:38:56.000Z</time>
      </trkpt>
      <trkpt lat="45.85498" lon="5.44302">
        <ele>435.6</ele>
        <time>2021-02-20T12:38:57.000Z</time>
      </trkpt>
      <trkpt lat="45.85497" lon="5.44301">
        <ele>435.6</ele>
        <time>2021-02-20T12:38:58.000Z</time>
      </trkpt>
      <trkpt lat="45.85495" lon="5.443">
        <ele>435.6</ele>
        <time>2021-02-20T12:38:59.000Z</time>
      </trkpt>
      <trkpt lat="45.85493" lon="5.443">
        <ele>435.8</ele>
        <time>2021-02-20T12:39:00.000Z</time>
      </trkpt>
      <trkpt lat="45.85492" lon="5.443">
        <ele>436</ele>
        <time>2021-02-20T12:39:01.000Z</time>
      </trkpt>
      <trkpt lat="45.8549" lon="5.443">
        <ele>436</ele>
        <time>2021-02-20T12:39:02.000Z</time>
      </trkpt>
      <trkpt lat="45.85488" lon="5.44299">
        <ele>436.2</ele>
        <time>2021-02-20T12:39:03.000Z</time>
      </trkpt>
      <trkpt lat="45.85487" lon="5.44299">
        <ele>436.4</ele>
        <time>2021-02-20T12:39:04.000Z</time>
      </trkpt>
      <trkpt lat="45.85485" lon="5.44298">
        <ele>436.4</ele>
        <time>2021-02-20T12:39:05.000Z</time>
      </trkpt>
      <trkpt lat="45.85484" lon="5.44298">
        <ele>436.6</ele>
        <time>2021-02-20T12:39:06.000Z</time>
      </trkpt>
      <trkpt lat="45.85482" lon="5.44297">
        <ele>436.8</ele>
        <time>2021-02-20T12:39:07.000Z</time>
      </trkpt>
      <trkpt lat="45.85481" lon="5.44297">
        <ele>436.8</ele>
        <time>2021-02-20T12:39:08.000Z</time>
      </trkpt>
      <trkpt lat="45.8548" lon="5.44296">
        <ele>437.2</ele>
        <time>2021-02-20T12:39:09.000Z</time>
      </trkpt>
      <trkpt lat="45.85479" lon="5.44295">
        <ele>437.2</ele>
        <time>2021-02-20T12:39:10.000Z</time>
      </trkpt>
      <trkpt lat="45.85478" lon="5.44293">
        <ele>437.4</ele>
        <time>2021-02-20T12:39:11.000Z</time>
      </trkpt>
      <trkpt lat="45.85477" lon="5.44292">
        <ele>437.6</ele>
        <time>2021-02-20T12:39:12.000Z</time>
      </trkpt>
      <trkpt lat="45.85476" lon="5.44291">
        <ele>437.8</ele>
        <time>2021-02-20T12:39:13.000Z</time>
      </trkpt>
      <trkpt lat="45.85474" lon="5.4429">
        <ele>438</ele>
        <time>2021-02-20T12:39:14.000Z</time>
      </trkpt>
      <trkpt lat="45.85473" lon="5.44289">
        <ele>438.2</ele>
        <time>2021-02-20T12:39:15.000Z</time>
      </trkpt>
      <trkpt lat="45.85472" lon="5.44288">
        <ele>438.2</ele>
        <time>2021-02-20T12:39:16.000Z</time>
      </trkpt>
      <trkpt lat="45.85471" lon="5.44287">
        <ele>438.4</ele>
        <time>2021-02-20T12:39:17.000Z</time>
      </trkpt>
      <trkpt lat="45.8547" lon="5.44285">
        <ele>438.8</ele>
        <time>2021-02-20T12:39:18.000Z</time>
      </trkpt>
      <trkpt lat="45.85469" lon="5.44283">
        <ele>439</ele>
        <time>2021-02-20T12:39:19.000Z</time>
      </trkpt>
      <trkpt lat="45.85468" lon="5.44281">
        <ele>439</ele>
        <time>2021-02-20T12:39:20.000Z</time>
      </trkpt>
      <trkpt lat="45.85467" lon="5.44279">
        <ele>439</ele>
        <time>2021-02-20T12:39:21.000Z</time>
      </trkpt>
      <trkpt lat="45.85467" lon="5.44278">
        <ele>439.2</ele>
        <time>2021-02-20T12:39:22.000Z</time>
      </trkpt>
      <trkpt lat="45.85466" lon="5.44275">
        <ele>439.4</ele>
        <time>2021-02-20T12:39:23.000Z</time>
      </trkpt>
      <trkpt lat="45.85466" lon="5.44273">
        <ele>439.4</ele>
        <time>2021-02-20T12:39:24.000Z</time>
      </trkpt>
      <trkpt lat="45.85465" lon="5.44271">
        <ele>439.4</ele>
        <time>2021-02-20T12:39:25.000Z</time>
      </trkpt>
      <trkpt lat="45.85464" lon="5.44268">
        <ele>439.8</ele>
        <time>2021-02-20T12:39:26.000Z</time>
      </trkpt>
      <trkpt lat="45.85463" lon="5.44267">
        <ele>439.8</ele>
        <time>2021-02-20T12:39:27.000Z</time>
      </trkpt>
      <trkpt lat="45.85463" lon="5.44265">
        <ele>440</ele>
        <time>2021-02-20T12:39:28.000Z</time>
      </trkpt>
      <trkpt lat="45.85463" lon="5.44263">
        <ele>440.2</ele>
        <time>2021-02-20T12:39:29.000Z</time>
      </trkpt>
      <trkpt lat="45.85463" lon="5.44261">
        <ele>440.6</ele>
        <time>2021-02-20T12:39:30.000Z</time>
      </trkpt>
      <trkpt lat="45.85462" lon="5.44258">
        <ele>440.8</ele>
        <time>2021-02-20T12:39:31.000Z</time>
      </trkpt>
      <trkpt lat="45.85461" lon="5.44255">
        <ele>440.8</ele>
        <time>2021-02-20T12:39:32.000Z</time>
      </trkpt>
      <trkpt lat="45.8546" lon="5.44252">
        <ele>441</ele>
        <time>2021-02-20T12:39:33.000Z</time>
      </trkpt>
      <trkpt lat="45.85459" lon="5.44249">
        <ele>441.2</ele>
        <time>2021-02-20T12:39:34.000Z</time>
      </trkpt>
      <trkpt lat="45.85459" lon="5.44246">
        <ele>441.2</ele>
        <time>2021-02-20T12:39:35.000Z</time>
      </trkpt>
      <trkpt lat="45.85459" lon="5.44243">
        <ele>441.4</ele>
        <time>2021-02-20T12:39:36.000Z</time>
      </trkpt>
      <trkpt lat="45.8546" lon="5.44241">
        <ele>441.4</ele>
        <time>2021-02-20T12:39:37.000Z</time>
      </trkpt>
      <trkpt lat="45.8546" lon="5.44238">
        <ele>441.6</ele>
        <time>2021-02-20T12:39:38.000Z</time>
      </trkpt>
      <trkpt lat="45.8546" lon="5.44235">
        <ele>441.6</ele>
        <time>2021-02-20T12:39:39.000Z</time>
      </trkpt>
      <trkpt lat="45.8546" lon="5.44232">
        <ele>441.8</ele>
        <time>2021-02-20T12:39:40.000Z</time>
      </trkpt>
      <trkpt lat="45.85461" lon="5.4423">
        <ele>442</ele>
        <time>2021-02-20T12:39:41.000Z</time>
      </trkpt>
      <trkpt lat="45.85461" lon="5.44227">
        <ele>442.2</ele>
        <time>2021-02-20T12:39:42.000Z</time>
      </trkpt>
      <trkpt lat="45.85462" lon="5.44224">
        <ele>442.4</ele>
        <time>2021-02-20T12:39:43.000Z</time>
      </trkpt>
      <trkpt lat="45.85462" lon="5.44222">
        <ele>442.6</ele>
        <time>2021-02-20T12:39:44.000Z</time>
      </trkpt>
      <trkpt lat="45.85463" lon="5.44219">
        <ele>442.6</ele>
        <time>2021-02-20T12:39:45.000Z</time>
      </trkpt>
      <trkpt lat="45.85462" lon="5.44217">
        <ele>442.6</ele>
        <time>2021-02-20T12:39:46.000Z</time>
      </trkpt>
      <trkpt lat="45.85461" lon="5.44214">
        <ele>442.8</ele>
        <time>2021-02-20T12:39:47.000Z</time>
      </trkpt>
      <trkpt lat="45.85462" lon="5.44212">
        <ele>442.8</ele>
        <time>2021-02-20T12:39:48.000Z</time>
      </trkpt>
      <trkpt lat="45.85462" lon="5.4421">
        <ele>442.8</ele>
        <time>2021-02-20T12:39:49.000Z</time>
      </trkpt>
      <trkpt lat="45.85462" lon="5.44208">
        <ele>442.8</ele>
        <time>2021-02-20T12:39:50.000Z</time>
      </trkpt>
      <trkpt lat="45.85461" lon="5.44205">
        <ele>443</ele>
        <time>2021-02-20T12:39:51.000Z</time>
      </trkpt>
      <trkpt lat="45.8546" lon="5.44201">
        <ele>443.4</ele>
        <time>2021-02-20T12:39:52.000Z</time>
      </trkpt>
      <trkpt lat="45.8546" lon="5.44199">
        <ele>443.6</ele>
        <time>2021-02-20T12:39:53.000Z</time>
      </trkpt>
      <trkpt lat="45.85459" lon="5.44195">
        <ele>443.8</ele>
        <time>2021-02-20T12:39:54.000Z</time>
      </trkpt>
      <trkpt lat="45.85459" lon="5.44193">
        <ele>444</ele>
        <time>2021-02-20T12:39:55.000Z</time>
      </trkpt>
      <trkpt lat="45.85458" lon="5.4419">
        <ele>444</ele>
        <time>2021-02-20T12:39:56.000Z</time>
      </trkpt>
      <trkpt lat="45.85458" lon="5.44188">
        <ele>444</ele>
        <time>2021-02-20T12:39:57.000Z</time>
      </trkpt>
      <trkpt lat="45.85458" lon="5.44185">
        <ele>444</ele>
        <time>2021-02-20T12:39:58.000Z</time>
      </trkpt>
      <trkpt lat="45.85457" lon="5.44183">
        <ele>444.2</ele>
        <time>2021-02-20T12:39:59.000Z</time>
      </trkpt>
      <trkpt lat="45.85457" lon="5.4418">
        <ele>444.4</ele>
        <time>2021-02-20T12:40:00.000Z</time>
      </trkpt>
      <trkpt lat="45.85456" lon="5.44177">
        <ele>444.6</ele>
        <time>2021-02-20T12:40:01.000Z</time>
      </trkpt>
      <trkpt lat="45.85456" lon="5.44174">
        <ele>444.8</ele>
        <time>2021-02-20T12:40:02.000Z</time>
      </trkpt>
      <trkpt lat="45.85457" lon="5.44171">
        <ele>444.8</ele>
        <time>2021-02-20T12:40:03.000Z</time>
      </trkpt>
      <trkpt lat="45.85458" lon="5.44169">
        <ele>445.2</ele>
        <time>2021-02-20T12:40:04.000Z</time>
      </trkpt>
      <trkpt lat="45.85458" lon="5.44166">
        <ele>445.4</ele>
        <time>2021-02-20T12:40:05.000Z</time>
      </trkpt>
      <trkpt lat="45.85457" lon="5.44163">
        <ele>445.8</ele>
        <time>2021-02-20T12:40:06.000Z</time>
      </trkpt>
      <trkpt lat="45.85457" lon="5.44161">
        <ele>445.8</ele>
        <time>2021-02-20T12:40:07.000Z</time>
      </trkpt>
      <trkpt lat="45.85456" lon="5.44158">
        <ele>446</ele>
        <time>2021-02-20T12:40:08.000Z</time>
      </trkpt>
      <trkpt lat="45.85456" lon="5.44155">
        <ele>446.4</ele>
        <time>2021-02-20T12:40:09.000Z</time>
      </trkpt>
      <trkpt lat="45.85456" lon="5.44153">
        <ele>446.8</ele>
        <time>2021-02-20T12:40:10.000Z</time>
      </trkpt>
      <trkpt lat="45.85456" lon="5.4415">
        <ele>447.2</ele>
        <time>2021-02-20T12:40:11.000Z</time>
      </trkpt>
      <trkpt lat="45.85456" lon="5.44148">
        <ele>447.2</ele>
        <time>2021-02-20T12:40:12.000Z</time>
      </trkpt>
      <trkpt lat="45.85456" lon="5.44145">
        <ele>447.4</ele>
        <time>2021-02-20T12:40:13.000Z</time>
      </trkpt>
      <trkpt lat="45.85456" lon="5.44143">
        <ele>447.6</ele>
        <time>2021-02-20T12:40:14.000Z</time>
      </trkpt>
      <trkpt lat="45.85456" lon="5.4414">
        <ele>448</ele>
        <time>2021-02-20T12:40:15.000Z</time>
      </trkpt>
      <trkpt lat="45.85455" lon="5.44137">
        <ele>448</ele>
        <time>2021-02-20T12:40:16.000Z</time>
      </trkpt>
      <trkpt lat="45.85455" lon="5.44135">
        <ele>448.2</ele>
        <time>2021-02-20T12:40:17.000Z</time>
      </trkpt>
      <trkpt lat="45.85455" lon="5.44132">
        <ele>448.2</ele>
        <time>2021-02-20T12:40:18.000Z</time>
      </trkpt>
      <trkpt lat="45.85454" lon="5.44129">
        <ele>448.4</ele>
        <time>2021-02-20T12:40:19.000Z</time>
      </trkpt>
      <trkpt lat="45.85454" lon="5.44127">
        <ele>448.4</ele>
        <time>2021-02-20T12:40:20.000Z</time>
      </trkpt>
      <trkpt lat="45.85454" lon="5.44124">
        <ele>448.6</ele>
        <time>2021-02-20T12:40:21.000Z</time>
      </trkpt>
      <trkpt lat="45.85453" lon="5.44121">
        <ele>448.8</ele>
        <time>2021-02-20T12:40:22.000Z</time>
      </trkpt>
      <trkpt lat="45.85453" lon="5.44119">
        <ele>448.8</ele>
        <time>2021-02-20T12:40:23.000Z</time>
      </trkpt>
      <trkpt lat="45.85453" lon="5.44116">
        <ele>449</ele>
        <time>2021-02-20T12:40:24.000Z</time>
      </trkpt>
      <trkpt lat="45.85454" lon="5.44113">
        <ele>449.2</ele>
        <time>2021-02-20T12:40:25.000Z</time>
      </trkpt>
      <trkpt lat="45.85454" lon="5.4411">
        <ele>449.4</ele>
        <time>2021-02-20T12:40:26.000Z</time>
      </trkpt>
      <trkpt lat="45.85453" lon="5.44107">
        <ele>449.6</ele>
        <time>2021-02-20T12:40:27.000Z</time>
      </trkpt>
      <trkpt lat="45.85453" lon="5.44104">
        <ele>449.6</ele>
        <time>2021-02-20T12:40:28.000Z</time>
      </trkpt>
      <trkpt lat="45.85453" lon="5.44102">
        <ele>449.8</ele>
        <time>2021-02-20T12:40:29.000Z</time>
      </trkpt>
      <trkpt lat="45.85452" lon="5.44099">
        <ele>450</ele>
        <time>2021-02-20T12:40:30.000Z</time>
      </trkpt>
      <trkpt lat="45.85452" lon="5.44096">
        <ele>450</ele>
        <time>2021-02-20T12:40:31.000Z</time>
      </trkpt>
      <trkpt lat="45.85452" lon="5.44094">
        <ele>450.4</ele>
        <time>2021-02-20T12:40:32.000Z</time>
      </trkpt>
      <trkpt lat="45.85451" lon="5.44091">
        <ele>450.4</ele>
        <time>2021-02-20T12:40:33.000Z</time>
      </trkpt>
      <trkpt lat="45.85451" lon="5.44088">
        <ele>450.6</ele>
        <time>2021-02-20T12:40:34.000Z</time>
      </trkpt>
      <trkpt lat="45.8545" lon="5.44085">
        <ele>450.6</ele>
        <time>2021-02-20T12:40:35.000Z</time>
      </trkpt>
      <trkpt lat="45.85448" lon="5.44082">
        <ele>450.6</ele>
        <time>2021-02-20T12:40:36.000Z</time>
      </trkpt>
      <trkpt lat="45.85448" lon="5.44079">
        <ele>451</ele>
        <time>2021-02-20T12:40:37.000Z</time>
      </trkpt>
      <trkpt lat="45.85447" lon="5.44077">
        <ele>451</ele>
        <time>2021-02-20T12:40:38.000Z</time>
      </trkpt>
      <trkpt lat="45.85446" lon="5.44074">
        <ele>451.2</ele>
        <time>2021-02-20T12:40:39.000Z</time>
      </trkpt>
      <trkpt lat="45.85445" lon="5.44072">
        <ele>451.4</ele>
        <time>2021-02-20T12:40:40.000Z</time>
      </trkpt>
      <trkpt lat="45.85445" lon="5.44069">
        <ele>451.4</ele>
        <time>2021-02-20T12:40:41.000Z</time>
      </trkpt>
      <trkpt lat="45.85444" lon="5.44067">
        <ele>451.8</ele>
        <time>2021-02-20T12:40:42.000Z</time>
      </trkpt>
      <trkpt lat="45.85445" lon="5.44064">
        <ele>451.6</ele>
        <time>2021-02-20T12:40:43.000Z</time>
      </trkpt>
      <trkpt lat="45.85444" lon="5.44062">
        <ele>452</ele>
        <time>2021-02-20T12:40:44.000Z</time>
      </trkpt>
      <trkpt lat="45.85443" lon="5.4406">
        <ele>452</ele>
        <time>2021-02-20T12:40:45.000Z</time>
      </trkpt>
      <trkpt lat="45.85443" lon="5.44057">
        <ele>452.2</ele>
        <time>2021-02-20T12:40:46.000Z</time>
      </trkpt>
      <trkpt lat="45.85442" lon="5.44055">
        <ele>452.2</ele>
        <time>2021-02-20T12:40:47.000Z</time>
      </trkpt>
      <trkpt lat="45.85441" lon="5.44054">
        <ele>452.4</ele>
        <time>2021-02-20T12:40:48.000Z</time>
      </trkpt>
      <trkpt lat="45.85441" lon="5.44052">
        <ele>452.6</ele>
        <time>2021-02-20T12:40:49.000Z</time>
      </trkpt>
      <trkpt lat="45.8544" lon="5.44049">
        <ele>452.8</ele>
        <time>2021-02-20T12:40:50.000Z</time>
      </trkpt>
      <trkpt lat="45.8544" lon="5.44047">
        <ele>452.8</ele>
        <time>2021-02-20T12:40:51.000Z</time>
      </trkpt>
      <trkpt lat="45.8544" lon="5.44044">
        <ele>453</ele>
        <time>2021-02-20T12:40:52.000Z</time>
      </trkpt>
      <trkpt lat="45.8544" lon="5.44041">
        <ele>453</ele>
        <time>2021-02-20T12:40:53.000Z</time>
      </trkpt>
      <trkpt lat="45.8544" lon="5.44038">
        <ele>453.2</ele>
        <time>2021-02-20T12:40:54.000Z</time>
      </trkpt>
      <trkpt lat="45.85441" lon="5.44035">
        <ele>453.6</ele>
        <time>2021-02-20T12:40:55.000Z</time>
      </trkpt>
      <trkpt lat="45.85441" lon="5.44032">
        <ele>453.6</ele>
        <time>2021-02-20T12:40:56.000Z</time>
      </trkpt>
      <trkpt lat="45.85442" lon="5.44029">
        <ele>453.6</ele>
        <time>2021-02-20T12:40:57.000Z</time>
      </trkpt>
      <trkpt lat="45.85443" lon="5.44026">
        <ele>453.8</ele>
        <time>2021-02-20T12:40:58.000Z</time>
      </trkpt>
      <trkpt lat="45.85443" lon="5.44023">
        <ele>454</ele>
        <time>2021-02-20T12:40:59.000Z</time>
      </trkpt>
      <trkpt lat="45.85444" lon="5.4402">
        <ele>454.2</ele>
        <time>2021-02-20T12:41:00.000Z</time>
      </trkpt>
      <trkpt lat="45.85445" lon="5.44017">
        <ele>454.4</ele>
        <time>2021-02-20T12:41:01.000Z</time>
      </trkpt>
      <trkpt lat="45.85445" lon="5.44015">
        <ele>454.6</ele>
        <time>2021-02-20T12:41:02.000Z</time>
      </trkpt>
      <trkpt lat="45.85447" lon="5.44013">
        <ele>454.6</ele>
        <time>2021-02-20T12:41:03.000Z</time>
      </trkpt>
      <trkpt lat="45.85448" lon="5.4401">
        <ele>454.8</ele>
        <time>2021-02-20T12:41:04.000Z</time>
      </trkpt>
      <trkpt lat="45.85449" lon="5.44007">
        <ele>454.8</ele>
        <time>2021-02-20T12:41:05.000Z</time>
      </trkpt>
      <trkpt lat="45.8545" lon="5.44004">
        <ele>455.2</ele>
        <time>2021-02-20T12:41:06.000Z</time>
      </trkpt>
      <trkpt lat="45.85451" lon="5.44002">
        <ele>455</ele>
        <time>2021-02-20T12:41:07.000Z</time>
      </trkpt>
      <trkpt lat="45.85451" lon="5.43999">
        <ele>455.4</ele>
        <time>2021-02-20T12:41:08.000Z</time>
      </trkpt>
      <trkpt lat="45.85452" lon="5.43997">
        <ele>455.2</ele>
        <time>2021-02-20T12:41:09.000Z</time>
      </trkpt>
      <trkpt lat="45.85452" lon="5.43994">
        <ele>455.4</ele>
        <time>2021-02-20T12:41:10.000Z</time>
      </trkpt>
      <trkpt lat="45.85454" lon="5.43991">
        <ele>455.6</ele>
        <time>2021-02-20T12:41:11.000Z</time>
      </trkpt>
      <trkpt lat="45.85455" lon="5.43988">
        <ele>456</ele>
        <time>2021-02-20T12:41:12.000Z</time>
      </trkpt>
      <trkpt lat="45.85456" lon="5.43986">
        <ele>456</ele>
        <time>2021-02-20T12:41:13.000Z</time>
      </trkpt>
      <trkpt lat="45.85456" lon="5.43983">
        <ele>456.4</ele>
        <time>2021-02-20T12:41:14.000Z</time>
      </trkpt>
      <trkpt lat="45.85457" lon="5.4398">
        <ele>456.6</ele>
        <time>2021-02-20T12:41:15.000Z</time>
      </trkpt>
      <trkpt lat="45.85458" lon="5.43978">
        <ele>456.6</ele>
        <time>2021-02-20T12:41:16.000Z</time>
      </trkpt>
      <trkpt lat="45.8546" lon="5.43975">
        <ele>456.8</ele>
        <time>2021-02-20T12:41:17.000Z</time>
      </trkpt>
      <trkpt lat="45.85461" lon="5.43972">
        <ele>457</ele>
        <time>2021-02-20T12:41:18.000Z</time>
      </trkpt>
      <trkpt lat="45.85462" lon="5.4397">
        <ele>457</ele>
        <time>2021-02-20T12:41:19.000Z</time>
      </trkpt>
      <trkpt lat="45.85464" lon="5.43966">
        <ele>457.2</ele>
        <time>2021-02-20T12:41:20.000Z</time>
      </trkpt>
      <trkpt lat="45.85465" lon="5.43964">
        <ele>457.2</ele>
        <time>2021-02-20T12:41:21.000Z</time>
      </trkpt>
      <trkpt lat="45.85466" lon="5.43961">
        <ele>457.6</ele>
        <time>2021-02-20T12:41:22.000Z</time>
      </trkpt>
      <trkpt lat="45.85467" lon="5.43959">
        <ele>457.6</ele>
        <time>2021-02-20T12:41:23.000Z</time>
      </trkpt>
      <trkpt lat="45.85468" lon="5.43956">
        <ele>457.6</ele>
        <time>2021-02-20T12:41:24.000Z</time>
      </trkpt>
      <trkpt lat="45.85469" lon="5.43954">
        <ele>457.8</ele>
        <time>2021-02-20T12:41:25.000Z</time>
      </trkpt>
      <trkpt lat="45.85471" lon="5.43951">
        <ele>458</ele>
        <time>2021-02-20T12:41:26.000Z</time>
      </trkpt>
      <trkpt lat="45.85472" lon="5.43948">
        <ele>458</ele>
        <time>2021-02-20T12:41:27.000Z</time>
      </trkpt>
      <trkpt lat="45.85473" lon="5.43945">
        <ele>458.2</ele>
        <time>2021-02-20T12:41:28.000Z</time>
      </trkpt>
      <trkpt lat="45.85475" lon="5.43942">
        <ele>458.6</ele>
        <time>2021-02-20T12:41:29.000Z</time>
      </trkpt>
      <trkpt lat="45.85477" lon="5.4394">
        <ele>458.6</ele>
        <time>2021-02-20T12:41:30.000Z</time>
      </trkpt>
      <trkpt lat="45.85479" lon="5.43937">
        <ele>458.6</ele>
        <time>2021-02-20T12:41:31.000Z</time>
      </trkpt>
      <trkpt lat="45.85481" lon="5.43935">
        <ele>458.8</ele>
        <time>2021-02-20T12:41:32.000Z</time>
      </trkpt>
      <trkpt lat="45.85483" lon="5.43933">
        <ele>459.2</ele>
        <time>2021-02-20T12:41:33.000Z</time>
      </trkpt>
      <trkpt lat="45.85486" lon="5.43931">
        <ele>459.4</ele>
        <time>2021-02-20T12:41:34.000Z</time>
      </trkpt>
      <trkpt lat="45.85488" lon="5.43928">
        <ele>459.6</ele>
        <time>2021-02-20T12:41:35.000Z</time>
      </trkpt>
      <trkpt lat="45.85491" lon="5.43925">
        <ele>459.6</ele>
        <time>2021-02-20T12:41:36.000Z</time>
      </trkpt>
      <trkpt lat="45.85493" lon="5.43922">
        <ele>459.8</ele>
        <time>2021-02-20T12:41:37.000Z</time>
      </trkpt>
      <trkpt lat="45.85495" lon="5.43918">
        <ele>459.8</ele>
        <time>2021-02-20T12:41:38.000Z</time>
      </trkpt>
      <trkpt lat="45.85496" lon="5.43915">
        <ele>460</ele>
        <time>2021-02-20T12:41:39.000Z</time>
      </trkpt>
      <trkpt lat="45.85496" lon="5.43912">
        <ele>460</ele>
        <time>2021-02-20T12:41:40.000Z</time>
      </trkpt>
      <trkpt lat="45.85496" lon="5.43909">
        <ele>460.2</ele>
        <time>2021-02-20T12:41:41.000Z</time>
      </trkpt>
      <trkpt lat="45.85496" lon="5.43907">
        <ele>460.4</ele>
        <time>2021-02-20T12:41:42.000Z</time>
      </trkpt>
      <trkpt lat="45.85496" lon="5.43905">
        <ele>460.6</ele>
        <time>2021-02-20T12:41:43.000Z</time>
      </trkpt>
      <trkpt lat="45.85496" lon="5.43904">
        <ele>460.8</ele>
        <time>2021-02-20T12:41:44.000Z</time>
      </trkpt>
      <trkpt lat="45.85495" lon="5.43903">
        <ele>460.6</ele>
        <time>2021-02-20T12:41:45.000Z</time>
      </trkpt>
      <trkpt lat="45.85494" lon="5.43903">
        <ele>460.8</ele>
        <time>2021-02-20T12:41:46.000Z</time>
      </trkpt>
      <trkpt lat="45.85492" lon="5.43902">
        <ele>461</ele>
        <time>2021-02-20T12:41:47.000Z</time>
      </trkpt>
      <trkpt lat="45.8549" lon="5.43902">
        <ele>461</ele>
        <time>2021-02-20T12:41:48.000Z</time>
      </trkpt>
      <trkpt lat="45.85488" lon="5.43903">
        <ele>461.2</ele>
        <time>2021-02-20T12:41:49.000Z</time>
      </trkpt>
      <trkpt lat="45.85486" lon="5.43905">
        <ele>461.2</ele>
        <time>2021-02-20T12:41:50.000Z</time>
      </trkpt>
      <trkpt lat="45.85485" lon="5.43906">
        <ele>461.4</ele>
        <time>2021-02-20T12:41:51.000Z</time>
      </trkpt>
      <trkpt lat="45.85485" lon="5.43908">
        <ele>461.6</ele>
        <time>2021-02-20T12:41:52.000Z</time>
      </trkpt>
      <trkpt lat="45.85484" lon="5.43909">
        <ele>462</ele>
        <time>2021-02-20T12:41:53.000Z</time>
      </trkpt>
      <trkpt lat="45.85483" lon="5.43911">
        <ele>462.2</ele>
        <time>2021-02-20T12:41:54.000Z</time>
      </trkpt>
      <trkpt lat="45.85482" lon="5.43913">
        <ele>462.4</ele>
        <time>2021-02-20T12:41:55.000Z</time>
      </trkpt>
      <trkpt lat="45.85481" lon="5.43916">
        <ele>462.4</ele>
        <time>2021-02-20T12:41:56.000Z</time>
      </trkpt>
      <trkpt lat="45.85479" lon="5.43919">
        <ele>462.4</ele>
        <time>2021-02-20T12:41:57.000Z</time>
      </trkpt>
      <trkpt lat="45.85478" lon="5.43921">
        <ele>462.8</ele>
        <time>2021-02-20T12:41:58.000Z</time>
      </trkpt>
      <trkpt lat="45.85477" lon="5.43923">
        <ele>463</ele>
        <time>2021-02-20T12:41:59.000Z</time>
      </trkpt>
      <trkpt lat="45.85476" lon="5.43926">
        <ele>463.2</ele>
        <time>2021-02-20T12:42:00.000Z</time>
      </trkpt>
      <trkpt lat="45.85474" lon="5.43928">
        <ele>463.4</ele>
        <time>2021-02-20T12:42:01.000Z</time>
      </trkpt>
      <trkpt lat="45.85472" lon="5.4393">
        <ele>463.4</ele>
        <time>2021-02-20T12:42:02.000Z</time>
      </trkpt>
      <trkpt lat="45.8547" lon="5.43933">
        <ele>463.8</ele>
        <time>2021-02-20T12:42:03.000Z</time>
      </trkpt>
      <trkpt lat="45.85468" lon="5.43935">
        <ele>463.8</ele>
        <time>2021-02-20T12:42:04.000Z</time>
      </trkpt>
      <trkpt lat="45.85466" lon="5.43937">
        <ele>464</ele>
        <time>2021-02-20T12:42:05.000Z</time>
      </trkpt>
      <trkpt lat="45.85464" lon="5.43939">
        <ele>464</ele>
        <time>2021-02-20T12:42:06.000Z</time>
      </trkpt>
      <trkpt lat="45.85463" lon="5.43942">
        <ele>464.2</ele>
        <time>2021-02-20T12:42:07.000Z</time>
      </trkpt>
      <trkpt lat="45.85461" lon="5.43944">
        <ele>464.4</ele>
        <time>2021-02-20T12:42:08.000Z</time>
      </trkpt>
      <trkpt lat="45.85458" lon="5.43946">
        <ele>464.2</ele>
        <time>2021-02-20T12:42:09.000Z</time>
      </trkpt>
      <trkpt lat="45.85456" lon="5.43948">
        <ele>464.4</ele>
        <time>2021-02-20T12:42:10.000Z</time>
      </trkpt>
      <trkpt lat="45.85454" lon="5.4395">
        <ele>464.4</ele>
        <time>2021-02-20T12:42:11.000Z</time>
      </trkpt>
      <trkpt lat="45.85452" lon="5.43952">
        <ele>464.6</ele>
        <time>2021-02-20T12:42:12.000Z</time>
      </trkpt>
      <trkpt lat="45.8545" lon="5.43954">
        <ele>464.8</ele>
        <time>2021-02-20T12:42:13.000Z</time>
      </trkpt>
      <trkpt lat="45.85448" lon="5.43956">
        <ele>465</ele>
        <time>2021-02-20T12:42:14.000Z</time>
      </trkpt>
      <trkpt lat="45.85446" lon="5.43958">
        <ele>465.2</ele>
        <time>2021-02-20T12:42:15.000Z</time>
      </trkpt>
      <trkpt lat="45.85444" lon="5.4396">
        <ele>465.2</ele>
        <time>2021-02-20T12:42:16.000Z</time>
      </trkpt>
      <trkpt lat="45.85442" lon="5.43962">
        <ele>465.2</ele>
        <time>2021-02-20T12:42:17.000Z</time>
      </trkpt>
      <trkpt lat="45.85442" lon="5.43964">
        <ele>465.6</ele>
        <time>2021-02-20T12:42:18.000Z</time>
      </trkpt>
      <trkpt lat="45.8544" lon="5.43966">
        <ele>465.6</ele>
        <time>2021-02-20T12:42:19.000Z</time>
      </trkpt>
      <trkpt lat="45.85439" lon="5.43968">
        <ele>466</ele>
        <time>2021-02-20T12:42:20.000Z</time>
      </trkpt>
      <trkpt lat="45.85438" lon="5.43969">
        <ele>466.2</ele>
        <time>2021-02-20T12:42:21.000Z</time>
      </trkpt>
      <trkpt lat="45.85437" lon="5.43971">
        <ele>466.6</ele>
        <time>2021-02-20T12:42:22.000Z</time>
      </trkpt>
      <trkpt lat="45.85436" lon="5.43972">
        <ele>466.8</ele>
        <time>2021-02-20T12:42:23.000Z</time>
      </trkpt>
      <trkpt lat="45.85434" lon="5.43973">
        <ele>467</ele>
        <time>2021-02-20T12:42:24.000Z</time>
      </trkpt>
      <trkpt lat="45.85433" lon="5.43974">
        <ele>467.4</ele>
        <time>2021-02-20T12:42:25.000Z</time>
      </trkpt>
      <trkpt lat="45.85431" lon="5.43976">
        <ele>467.6</ele>
        <time>2021-02-20T12:42:26.000Z</time>
      </trkpt>
      <trkpt lat="45.8543" lon="5.43977">
        <ele>467.6</ele>
        <time>2021-02-20T12:42:27.000Z</time>
      </trkpt>
      <trkpt lat="45.85429" lon="5.43979">
        <ele>468.2</ele>
        <time>2021-02-20T12:42:28.000Z</time>
      </trkpt>
      <trkpt lat="45.85427" lon="5.4398">
        <ele>468.4</ele>
        <time>2021-02-20T12:42:29.000Z</time>
      </trkpt>
      <trkpt lat="45.85425" lon="5.43982">
        <ele>468.8</ele>
        <time>2021-02-20T12:42:30.000Z</time>
      </trkpt>
      <trkpt lat="45.85424" lon="5.43984">
        <ele>469</ele>
        <time>2021-02-20T12:42:31.000Z</time>
      </trkpt>
      <trkpt lat="45.85421" lon="5.43987">
        <ele>469</ele>
        <time>2021-02-20T12:42:32.000Z</time>
      </trkpt>
      <trkpt lat="45.85419" lon="5.43989">
        <ele>469</ele>
        <time>2021-02-20T12:42:33.000Z</time>
      </trkpt>
      <trkpt lat="45.85418" lon="5.43991">
        <ele>469.4</ele>
        <time>2021-02-20T12:42:34.000Z</time>
      </trkpt>
      <trkpt lat="45.85415" lon="5.43993">
        <ele>469.4</ele>
        <time>2021-02-20T12:42:35.000Z</time>
      </trkpt>
      <trkpt lat="45.85413" lon="5.43995">
        <ele>469.4</ele>
        <time>2021-02-20T12:42:36.000Z</time>
      </trkpt>
      <trkpt lat="45.85411" lon="5.43996">
        <ele>469.4</ele>
        <time>2021-02-20T12:42:37.000Z</time>
      </trkpt>
      <trkpt lat="45.8541" lon="5.43998">
        <ele>469.8</ele>
        <time>2021-02-20T12:42:38.000Z</time>
      </trkpt>
      <trkpt lat="45.85408" lon="5.44">
        <ele>469.8</ele>
        <time>2021-02-20T12:42:39.000Z</time>
      </trkpt>
      <trkpt lat="45.85406" lon="5.44002">
        <ele>470</ele>
        <time>2021-02-20T12:42:40.000Z</time>
      </trkpt>
      <trkpt lat="45.85404" lon="5.44003">
        <ele>470</ele>
        <time>2021-02-20T12:42:41.000Z</time>
      </trkpt>
      <trkpt lat="45.85402" lon="5.44005">
        <ele>470.2</ele>
        <time>2021-02-20T12:42:42.000Z</time>
      </trkpt>
      <trkpt lat="45.85401" lon="5.44007">
        <ele>470.6</ele>
        <time>2021-02-20T12:42:43.000Z</time>
      </trkpt>
      <trkpt lat="45.85399" lon="5.44008">
        <ele>470.4</ele>
        <time>2021-02-20T12:42:44.000Z</time>
      </trkpt>
      <trkpt lat="45.85398" lon="5.44009">
        <ele>470.6</ele>
        <time>2021-02-20T12:42:45.000Z</time>
      </trkpt>
      <trkpt lat="45.85396" lon="5.44011">
        <ele>470.6</ele>
        <time>2021-02-20T12:42:46.000Z</time>
      </trkpt>
      <trkpt lat="45.85395" lon="5.44012">
        <ele>470.8</ele>
        <time>2021-02-20T12:42:47.000Z</time>
      </trkpt>
      <trkpt lat="45.85393" lon="5.44014">
        <ele>470.8</ele>
        <time>2021-02-20T12:42:48.000Z</time>
      </trkpt>
      <trkpt lat="45.85392" lon="5.44015">
        <ele>471</ele>
        <time>2021-02-20T12:42:49.000Z</time>
      </trkpt>
      <trkpt lat="45.8539" lon="5.44017">
        <ele>471</ele>
        <time>2021-02-20T12:42:50.000Z</time>
      </trkpt>
      <trkpt lat="45.85388" lon="5.44019">
        <ele>471.4</ele>
        <time>2021-02-20T12:42:51.000Z</time>
      </trkpt>
      <trkpt lat="45.85387" lon="5.44021">
        <ele>471.4</ele>
        <time>2021-02-20T12:42:52.000Z</time>
      </trkpt>
      <trkpt lat="45.85386" lon="5.44024">
        <ele>471.2</ele>
        <time>2021-02-20T12:42:53.000Z</time>
      </trkpt>
      <trkpt lat="45.85384" lon="5.44027">
        <ele>471.4</ele>
        <time>2021-02-20T12:42:54.000Z</time>
      </trkpt>
      <trkpt lat="45.85382" lon="5.4403">
        <ele>471.6</ele>
        <time>2021-02-20T12:42:55.000Z</time>
      </trkpt>
      <trkpt lat="45.85382" lon="5.44033">
        <ele>471.8</ele>
        <time>2021-02-20T12:42:56.000Z</time>
      </trkpt>
      <trkpt lat="45.85381" lon="5.44036">
        <ele>471.8</ele>
        <time>2021-02-20T12:42:57.000Z</time>
      </trkpt>
      <trkpt lat="45.85381" lon="5.44038">
        <ele>472</ele>
        <time>2021-02-20T12:42:58.000Z</time>
      </trkpt>
      <trkpt lat="45.85381" lon="5.44041">
        <ele>472.2</ele>
        <time>2021-02-20T12:42:59.000Z</time>
      </trkpt>
      <trkpt lat="45.85381" lon="5.44043">
        <ele>472.4</ele>
        <time>2021-02-20T12:43:00.000Z</time>
      </trkpt>
      <trkpt lat="45.85381" lon="5.44045">
        <ele>472.6</ele>
        <time>2021-02-20T12:43:01.000Z</time>
      </trkpt>
      <trkpt lat="45.85381" lon="5.44047">
        <ele>472.8</ele>
        <time>2021-02-20T12:43:02.000Z</time>
      </trkpt>
      <trkpt lat="45.8538" lon="5.44049">
        <ele>473</ele>
        <time>2021-02-20T12:43:03.000Z</time>
      </trkpt>
      <trkpt lat="45.8538" lon="5.44051">
        <ele>473.2</ele>
        <time>2021-02-20T12:43:04.000Z</time>
      </trkpt>
      <trkpt lat="45.8538" lon="5.44052">
        <ele>473.4</ele>
        <time>2021-02-20T12:43:05.000Z</time>
      </trkpt>
      <trkpt lat="45.8538" lon="5.44054">
        <ele>473.4</ele>
        <time>2021-02-20T12:43:06.000Z</time>
      </trkpt>
      <trkpt lat="45.8538" lon="5.44056">
        <ele>473.6</ele>
        <time>2021-02-20T12:43:07.000Z</time>
      </trkpt>
      <trkpt lat="45.8538" lon="5.44059">
        <ele>474</ele>
        <time>2021-02-20T12:43:08.000Z</time>
      </trkpt>
      <trkpt lat="45.85381" lon="5.44061">
        <ele>474.4</ele>
        <time>2021-02-20T12:43:09.000Z</time>
      </trkpt>
      <trkpt lat="45.85381" lon="5.44064">
        <ele>474.4</ele>
        <time>2021-02-20T12:43:10.000Z</time>
      </trkpt>
      <trkpt lat="45.85381" lon="5.44067">
        <ele>474.8</ele>
        <time>2021-02-20T12:43:11.000Z</time>
      </trkpt>
      <trkpt lat="45.85382" lon="5.44069">
        <ele>475</ele>
        <time>2021-02-20T12:43:12.000Z</time>
      </trkpt>
      <trkpt lat="45.85382" lon="5.44072">
        <ele>475.2</ele>
        <time>2021-02-20T12:43:13.000Z</time>
      </trkpt>
      <trkpt lat="45.85382" lon="5.44075">
        <ele>475.4</ele>
        <time>2021-02-20T12:43:14.000Z</time>
      </trkpt>
      <trkpt lat="45.85382" lon="5.44078">
        <ele>475.6</ele>
        <time>2021-02-20T12:43:15.000Z</time>
      </trkpt>
      <trkpt lat="45.85383" lon="5.4408">
        <ele>475.6</ele>
        <time>2021-02-20T12:43:16.000Z</time>
      </trkpt>
      <trkpt lat="45.85383" lon="5.44084">
        <ele>476</ele>
        <time>2021-02-20T12:43:17.000Z</time>
      </trkpt>
      <trkpt lat="45.85383" lon="5.44087">
        <ele>476.4</ele>
        <time>2021-02-20T12:43:18.000Z</time>
      </trkpt>
      <trkpt lat="45.85384" lon="5.4409">
        <ele>476.4</ele>
        <time>2021-02-20T12:43:19.000Z</time>
      </trkpt>
      <trkpt lat="45.85384" lon="5.44093">
        <ele>476.6</ele>
        <time>2021-02-20T12:43:20.000Z</time>
      </trkpt>
      <trkpt lat="45.85384" lon="5.44096">
        <ele>476.8</ele>
        <time>2021-02-20T12:43:21.000Z</time>
      </trkpt>
      <trkpt lat="45.85384" lon="5.441">
        <ele>477</ele>
        <time>2021-02-20T12:43:22.000Z</time>
      </trkpt>
      <trkpt lat="45.85384" lon="5.44103">
        <ele>477.2</ele>
        <time>2021-02-20T12:43:23.000Z</time>
      </trkpt>
      <trkpt lat="45.85383" lon="5.44106">
        <ele>477.2</ele>
        <time>2021-02-20T12:43:24.000Z</time>
      </trkpt>
      <trkpt lat="45.85383" lon="5.44109">
        <ele>477.4</ele>
        <time>2021-02-20T12:43:25.000Z</time>
      </trkpt>
      <trkpt lat="45.85382" lon="5.44112">
        <ele>477.8</ele>
        <time>2021-02-20T12:43:26.000Z</time>
      </trkpt>
      <trkpt lat="45.85382" lon="5.44115">
        <ele>478</ele>
        <time>2021-02-20T12:43:27.000Z</time>
      </trkpt>
      <trkpt lat="45.85382" lon="5.44118">
        <ele>478.2</ele>
        <time>2021-02-20T12:43:28.000Z</time>
      </trkpt>
      <trkpt lat="45.85382" lon="5.44122">
        <ele>478.2</ele>
        <time>2021-02-20T12:43:29.000Z</time>
      </trkpt>
      <trkpt lat="45.85382" lon="5.44125">
        <ele>478.6</ele>
        <time>2021-02-20T12:43:30.000Z</time>
      </trkpt>
      <trkpt lat="45.85381" lon="5.44127">
        <ele>478.8</ele>
        <time>2021-02-20T12:43:31.000Z</time>
      </trkpt>
      <trkpt lat="45.85381" lon="5.4413">
        <ele>479</ele>
        <time>2021-02-20T12:43:32.000Z</time>
      </trkpt>
      <trkpt lat="45.85381" lon="5.44134">
        <ele>479</ele>
        <time>2021-02-20T12:43:33.000Z</time>
      </trkpt>
      <trkpt lat="45.8538" lon="5.44137">
        <ele>479.4</ele>
        <time>2021-02-20T12:43:34.000Z</time>
      </trkpt>
      <trkpt lat="45.8538" lon="5.4414">
        <ele>479.6</ele>
        <time>2021-02-20T12:43:35.000Z</time>
      </trkpt>
      <trkpt lat="45.8538" lon="5.44143">
        <ele>479.6</ele>
        <time>2021-02-20T12:43:36.000Z</time>
      </trkpt>
      <trkpt lat="45.8538" lon="5.44146">
        <ele>479.6</ele>
        <time>2021-02-20T12:43:37.000Z</time>
      </trkpt>
      <trkpt lat="45.8538" lon="5.44148">
        <ele>479.8</ele>
        <time>2021-02-20T12:43:38.000Z</time>
      </trkpt>
      <trkpt lat="45.8538" lon="5.44151">
        <ele>479.8</ele>
        <time>2021-02-20T12:43:39.000Z</time>
      </trkpt>
      <trkpt lat="45.8538" lon="5.44154">
        <ele>480</ele>
        <time>2021-02-20T12:43:40.000Z</time>
      </trkpt>
      <trkpt lat="45.8538" lon="5.44156">
        <ele>480.2</ele>
        <time>2021-02-20T12:43:41.000Z</time>
      </trkpt>
      <trkpt lat="45.8538" lon="5.44159">
        <ele>480.4</ele>
        <time>2021-02-20T12:43:42.000Z</time>
      </trkpt>
      <trkpt lat="45.8538" lon="5.44161">
        <ele>480.4</ele>
        <time>2021-02-20T12:43:43.000Z</time>
      </trkpt>
      <trkpt lat="45.8538" lon="5.44164">
        <ele>480.4</ele>
        <time>2021-02-20T12:43:44.000Z</time>
      </trkpt>
      <trkpt lat="45.85379" lon="5.44167">
        <ele>480.6</ele>
        <time>2021-02-20T12:43:45.000Z</time>
      </trkpt>
      <trkpt lat="45.85379" lon="5.4417">
        <ele>480.8</ele>
        <time>2021-02-20T12:43:46.000Z</time>
      </trkpt>
      <trkpt lat="45.85379" lon="5.44172">
        <ele>481</ele>
        <time>2021-02-20T12:43:47.000Z</time>
      </trkpt>
      <trkpt lat="45.85379" lon="5.44175">
        <ele>481.2</ele>
        <time>2021-02-20T12:43:48.000Z</time>
      </trkpt>
      <trkpt lat="45.85378" lon="5.44178">
        <ele>481.2</ele>
        <time>2021-02-20T12:43:49.000Z</time>
      </trkpt>
      <trkpt lat="45.85378" lon="5.4418">
        <ele>481.6</ele>
        <time>2021-02-20T12:43:50.000Z</time>
      </trkpt>
      <trkpt lat="45.85377" lon="5.44182">
        <ele>481.8</ele>
        <time>2021-02-20T12:43:51.000Z</time>
      </trkpt>
      <trkpt lat="45.85377" lon="5.44185">
        <ele>481.8</ele>
        <time>2021-02-20T12:43:52.000Z</time>
      </trkpt>
      <trkpt lat="45.85376" lon="5.44187">
        <ele>481.8</ele>
        <time>2021-02-20T12:43:53.000Z</time>
      </trkpt>
      <trkpt lat="45.85376" lon="5.4419">
        <ele>482</ele>
        <time>2021-02-20T12:43:54.000Z</time>
      </trkpt>
      <trkpt lat="45.85375" lon="5.44192">
        <ele>482</ele>
        <time>2021-02-20T12:43:55.000Z</time>
      </trkpt>
      <trkpt lat="45.85375" lon="5.44195">
        <ele>482</ele>
        <time>2021-02-20T12:43:56.000Z</time>
      </trkpt>
      <trkpt lat="45.85374" lon="5.44197">
        <ele>482.2</ele>
        <time>2021-02-20T12:43:57.000Z</time>
      </trkpt>
      <trkpt lat="45.85373" lon="5.442">
        <ele>482.2</ele>
        <time>2021-02-20T12:43:58.000Z</time>
      </trkpt>
      <trkpt lat="45.85373" lon="5.44202">
        <ele>482.2</ele>
        <time>2021-02-20T12:43:59.000Z</time>
      </trkpt>
      <trkpt lat="45.85372" lon="5.44205">
        <ele>482.6</ele>
        <time>2021-02-20T12:44:00.000Z</time>
      </trkpt>
      <trkpt lat="45.85371" lon="5.44207">
        <ele>482.8</ele>
        <time>2021-02-20T12:44:01.000Z</time>
      </trkpt>
      <trkpt lat="45.85371" lon="5.4421">
        <ele>483</ele>
        <time>2021-02-20T12:44:02.000Z</time>
      </trkpt>
      <trkpt lat="45.8537" lon="5.44212">
        <ele>483</ele>
        <time>2021-02-20T12:44:03.000Z</time>
      </trkpt>
      <trkpt lat="45.8537" lon="5.44215">
        <ele>483.2</ele>
        <time>2021-02-20T12:44:04.000Z</time>
      </trkpt>
      <trkpt lat="45.85369" lon="5.44218">
        <ele>483.4</ele>
        <time>2021-02-20T12:44:05.000Z</time>
      </trkpt>
      <trkpt lat="45.85369" lon="5.4422">
        <ele>483.4</ele>
        <time>2021-02-20T12:44:06.000Z</time>
      </trkpt>
      <trkpt lat="45.85368" lon="5.44223">
        <ele>483.6</ele>
        <time>2021-02-20T12:44:07.000Z</time>
      </trkpt>
      <trkpt lat="45.85368" lon="5.44226">
        <ele>483.6</ele>
        <time>2021-02-20T12:44:08.000Z</time>
      </trkpt>
      <trkpt lat="45.85367" lon="5.44228">
        <ele>483.4</ele>
        <time>2021-02-20T12:44:09.000Z</time>
      </trkpt>
      <trkpt lat="45.85367" lon="5.44231">
        <ele>483.6</ele>
        <time>2021-02-20T12:44:10.000Z</time>
      </trkpt>
      <trkpt lat="45.85367" lon="5.44234">
        <ele>483.8</ele>
        <time>2021-02-20T12:44:11.000Z</time>
      </trkpt>
      <trkpt lat="45.85366" lon="5.44237">
        <ele>484.2</ele>
        <time>2021-02-20T12:44:12.000Z</time>
      </trkpt>
      <trkpt lat="45.85366" lon="5.44241">
        <ele>484</ele>
        <time>2021-02-20T12:44:13.000Z</time>
      </trkpt>
      <trkpt lat="45.85365" lon="5.44244">
        <ele>484.4</ele>
        <time>2021-02-20T12:44:14.000Z</time>
      </trkpt>
      <trkpt lat="45.85365" lon="5.44247">
        <ele>484.4</ele>
        <time>2021-02-20T12:44:15.000Z</time>
      </trkpt>
      <trkpt lat="45.85365" lon="5.44249">
        <ele>484.4</ele>
        <time>2021-02-20T12:44:16.000Z</time>
      </trkpt>
      <trkpt lat="45.85365" lon="5.44252">
        <ele>484.8</ele>
        <time>2021-02-20T12:44:17.000Z</time>
      </trkpt>
      <trkpt lat="45.85364" lon="5.44255">
        <ele>484.8</ele>
        <time>2021-02-20T12:44:18.000Z</time>
      </trkpt>
      <trkpt lat="45.85365" lon="5.44258">
        <ele>484.8</ele>
        <time>2021-02-20T12:44:19.000Z</time>
      </trkpt>
      <trkpt lat="45.85365" lon="5.44261">
        <ele>485.2</ele>
        <time>2021-02-20T12:44:20.000Z</time>
      </trkpt>
      <trkpt lat="45.85365" lon="5.44264">
        <ele>485.6</ele>
        <time>2021-02-20T12:44:21.000Z</time>
      </trkpt>
      <trkpt lat="45.85365" lon="5.44267">
        <ele>485.6</ele>
        <time>2021-02-20T12:44:22.000Z</time>
      </trkpt>
      <trkpt lat="45.85364" lon="5.44271">
        <ele>485.8</ele>
        <time>2021-02-20T12:44:23.000Z</time>
      </trkpt>
      <trkpt lat="45.85364" lon="5.44274">
        <ele>486</ele>
        <time>2021-02-20T12:44:24.000Z</time>
      </trkpt>
      <trkpt lat="45.85363" lon="5.44277">
        <ele>486</ele>
        <time>2021-02-20T12:44:25.000Z</time>
      </trkpt>
      <trkpt lat="45.85362" lon="5.4428">
        <ele>486.2</ele>
        <time>2021-02-20T12:44:26.000Z</time>
      </trkpt>
      <trkpt lat="45.85362" lon="5.44283">
        <ele>486.4</ele>
        <time>2021-02-20T12:44:27.000Z</time>
      </trkpt>
      <trkpt lat="45.8536" lon="5.44286">
        <ele>486.6</ele>
        <time>2021-02-20T12:44:28.000Z</time>
      </trkpt>
      <trkpt lat="45.85358" lon="5.44289">
        <ele>486.8</ele>
        <time>2021-02-20T12:44:29.000Z</time>
      </trkpt>
      <trkpt lat="45.85356" lon="5.44292">
        <ele>487</ele>
        <time>2021-02-20T12:44:30.000Z</time>
      </trkpt>
      <trkpt lat="45.85354" lon="5.44294">
        <ele>487.4</ele>
        <time>2021-02-20T12:44:31.000Z</time>
      </trkpt>
      <trkpt lat="45.85352" lon="5.44297">
        <ele>487.6</ele>
        <time>2021-02-20T12:44:32.000Z</time>
      </trkpt>
      <trkpt lat="45.8535" lon="5.44299">
        <ele>487.8</ele>
        <time>2021-02-20T12:44:33.000Z</time>
      </trkpt>
      <trkpt lat="45.85347" lon="5.44301">
        <ele>488</ele>
        <time>2021-02-20T12:44:34.000Z</time>
      </trkpt>
      <trkpt lat="45.85345" lon="5.44302">
        <ele>488.4</ele>
        <time>2021-02-20T12:44:35.000Z</time>
      </trkpt>
      <trkpt lat="45.85342" lon="5.44303">
        <ele>488.4</ele>
        <time>2021-02-20T12:44:36.000Z</time>
      </trkpt>
      <trkpt lat="45.85341" lon="5.44305">
        <ele>488.8</ele>
        <time>2021-02-20T12:44:37.000Z</time>
      </trkpt>
      <trkpt lat="45.85338" lon="5.44306">
        <ele>488.8</ele>
        <time>2021-02-20T12:44:38.000Z</time>
      </trkpt>
      <trkpt lat="45.85336" lon="5.44308">
        <ele>488.8</ele>
        <time>2021-02-20T12:44:39.000Z</time>
      </trkpt>
      <trkpt lat="45.85334" lon="5.44309">
        <ele>489</ele>
        <time>2021-02-20T12:44:40.000Z</time>
      </trkpt>
      <trkpt lat="45.85333" lon="5.44311">
        <ele>489.2</ele>
        <time>2021-02-20T12:44:41.000Z</time>
      </trkpt>
      <trkpt lat="45.85331" lon="5.44313">
        <ele>489.4</ele>
        <time>2021-02-20T12:44:42.000Z</time>
      </trkpt>
      <trkpt lat="45.85329" lon="5.44314">
        <ele>489.6</ele>
        <time>2021-02-20T12:44:43.000Z</time>
      </trkpt>
      <trkpt lat="45.85328" lon="5.44316">
        <ele>489.8</ele>
        <time>2021-02-20T12:44:44.000Z</time>
      </trkpt>
      <trkpt lat="45.85326" lon="5.44317">
        <ele>490</ele>
        <time>2021-02-20T12:44:45.000Z</time>
      </trkpt>
      <trkpt lat="45.85325" lon="5.44319">
        <ele>490.6</ele>
        <time>2021-02-20T12:44:46.000Z</time>
      </trkpt>
      <trkpt lat="45.85323" lon="5.4432">
        <ele>490.8</ele>
        <time>2021-02-20T12:44:47.000Z</time>
      </trkpt>
      <trkpt lat="45.85322" lon="5.44322">
        <ele>491.2</ele>
        <time>2021-02-20T12:44:48.000Z</time>
      </trkpt>
      <trkpt lat="45.85321" lon="5.44323">
        <ele>491.4</ele>
        <time>2021-02-20T12:44:49.000Z</time>
      </trkpt>
      <trkpt lat="45.8532" lon="5.44325">
        <ele>491.4</ele>
        <time>2021-02-20T12:44:50.000Z</time>
      </trkpt>
      <trkpt lat="45.85319" lon="5.44327">
        <ele>491.8</ele>
        <time>2021-02-20T12:44:51.000Z</time>
      </trkpt>
      <trkpt lat="45.85317" lon="5.44329">
        <ele>491.8</ele>
        <time>2021-02-20T12:44:52.000Z</time>
      </trkpt>
      <trkpt lat="45.85316" lon="5.44331">
        <ele>492.2</ele>
        <time>2021-02-20T12:44:53.000Z</time>
      </trkpt>
      <trkpt lat="45.85315" lon="5.44333">
        <ele>492.2</ele>
        <time>2021-02-20T12:44:54.000Z</time>
      </trkpt>
      <trkpt lat="45.85314" lon="5.44334">
        <ele>492.4</ele>
        <time>2021-02-20T12:44:55.000Z</time>
      </trkpt>
      <trkpt lat="45.85313" lon="5.44336">
        <ele>492.6</ele>
        <time>2021-02-20T12:44:56.000Z</time>
      </trkpt>
      <trkpt lat="45.85311" lon="5.44338">
        <ele>492.8</ele>
        <time>2021-02-20T12:44:57.000Z</time>
      </trkpt>
      <trkpt lat="45.8531" lon="5.4434">
        <ele>492.8</ele>
        <time>2021-02-20T12:44:58.000Z</time>
      </trkpt>
      <trkpt lat="45.85308" lon="5.44342">
        <ele>493</ele>
        <time>2021-02-20T12:44:59.000Z</time>
      </trkpt>
      <trkpt lat="45.85306" lon="5.44345">
        <ele>493.2</ele>
        <time>2021-02-20T12:45:00.000Z</time>
      </trkpt>
      <trkpt lat="45.85304" lon="5.44347">
        <ele>493.2</ele>
        <time>2021-02-20T12:45:01.000Z</time>
      </trkpt>
      <trkpt lat="45.85302" lon="5.44349">
        <ele>493.4</ele>
        <time>2021-02-20T12:45:02.000Z</time>
      </trkpt>
      <trkpt lat="45.853" lon="5.44351">
        <ele>493.4</ele>
        <time>2021-02-20T12:45:03.000Z</time>
      </trkpt>
      <trkpt lat="45.85299" lon="5.44353">
        <ele>493.6</ele>
        <time>2021-02-20T12:45:04.000Z</time>
      </trkpt>
      <trkpt lat="45.85297" lon="5.44355">
        <ele>493.6</ele>
        <time>2021-02-20T12:45:05.000Z</time>
      </trkpt>
      <trkpt lat="45.85296" lon="5.44356">
        <ele>493.8</ele>
        <time>2021-02-20T12:45:06.000Z</time>
      </trkpt>
      <trkpt lat="45.85295" lon="5.44358">
        <ele>494</ele>
        <time>2021-02-20T12:45:07.000Z</time>
      </trkpt>
      <trkpt lat="45.85293" lon="5.4436">
        <ele>494.2</ele>
        <time>2021-02-20T12:45:08.000Z</time>
      </trkpt>
      <trkpt lat="45.85292" lon="5.44362">
        <ele>494.4</ele>
        <time>2021-02-20T12:45:09.000Z</time>
      </trkpt>
      <trkpt lat="45.8529" lon="5.44364">
        <ele>494.6</ele>
        <time>2021-02-20T12:45:10.000Z</time>
      </trkpt>
      <trkpt lat="45.85288" lon="5.44366">
        <ele>494.6</ele>
        <time>2021-02-20T12:45:11.000Z</time>
      </trkpt>
      <trkpt lat="45.85286" lon="5.44368">
        <ele>495.2</ele>
        <time>2021-02-20T12:45:12.000Z</time>
      </trkpt>
      <trkpt lat="45.85285" lon="5.4437">
        <ele>495.4</ele>
        <time>2021-02-20T12:45:13.000Z</time>
      </trkpt>
      <trkpt lat="45.85283" lon="5.44371">
        <ele>495.4</ele>
        <time>2021-02-20T12:45:14.000Z</time>
      </trkpt>
      <trkpt lat="45.85282" lon="5.44373">
        <ele>495.6</ele>
        <time>2021-02-20T12:45:15.000Z</time>
      </trkpt>
      <trkpt lat="45.8528" lon="5.44375">
        <ele>495.6</ele>
        <time>2021-02-20T12:45:16.000Z</time>
      </trkpt>
      <trkpt lat="45.85279" lon="5.44377">
        <ele>495.8</ele>
        <time>2021-02-20T12:45:17.000Z</time>
      </trkpt>
      <trkpt lat="45.85277" lon="5.44379">
        <ele>495.8</ele>
        <time>2021-02-20T12:45:18.000Z</time>
      </trkpt>
      <trkpt lat="45.85276" lon="5.44381">
        <ele>495.8</ele>
        <time>2021-02-20T12:45:19.000Z</time>
      </trkpt>
      <trkpt lat="45.85274" lon="5.44383">
        <ele>496.2</ele>
        <time>2021-02-20T12:45:20.000Z</time>
      </trkpt>
      <trkpt lat="45.85273" lon="5.44385">
        <ele>496.2</ele>
        <time>2021-02-20T12:45:21.000Z</time>
      </trkpt>
      <trkpt lat="45.85271" lon="5.44387">
        <ele>496.6</ele>
        <time>2021-02-20T12:45:22.000Z</time>
      </trkpt>
      <trkpt lat="45.8527" lon="5.44389">
        <ele>496.8</ele>
        <time>2021-02-20T12:45:23.000Z</time>
      </trkpt>
      <trkpt lat="45.85268" lon="5.44392">
        <ele>497</ele>
        <time>2021-02-20T12:45:24.000Z</time>
      </trkpt>
      <trkpt lat="45.85267" lon="5.44394">
        <ele>497.2</ele>
        <time>2021-02-20T12:45:25.000Z</time>
      </trkpt>
      <trkpt lat="45.85266" lon="5.44396">
        <ele>497.2</ele>
        <time>2021-02-20T12:45:26.000Z</time>
      </trkpt>
      <trkpt lat="45.85265" lon="5.44399">
        <ele>497.2</ele>
        <time>2021-02-20T12:45:27.000Z</time>
      </trkpt>
      <trkpt lat="45.85264" lon="5.44401">
        <ele>497.4</ele>
        <time>2021-02-20T12:45:28.000Z</time>
      </trkpt>
      <trkpt lat="45.85263" lon="5.44404">
        <ele>497.6</ele>
        <time>2021-02-20T12:45:29.000Z</time>
      </trkpt>
      <trkpt lat="45.85262" lon="5.44407">
        <ele>497.6</ele>
        <time>2021-02-20T12:45:30.000Z</time>
      </trkpt>
      <trkpt lat="45.85261" lon="5.44409">
        <ele>497.8</ele>
        <time>2021-02-20T12:45:31.000Z</time>
      </trkpt>
      <trkpt lat="45.8526" lon="5.44412">
        <ele>498</ele>
        <time>2021-02-20T12:45:32.000Z</time>
      </trkpt>
      <trkpt lat="45.85259" lon="5.44414">
        <ele>498.2</ele>
        <time>2021-02-20T12:45:33.000Z</time>
      </trkpt>
      <trkpt lat="45.85259" lon="5.44417">
        <ele>498.4</ele>
        <time>2021-02-20T12:45:34.000Z</time>
      </trkpt>
      <trkpt lat="45.85258" lon="5.44419">
        <ele>498.6</ele>
        <time>2021-02-20T12:45:35.000Z</time>
      </trkpt>
      <trkpt lat="45.85257" lon="5.44421">
        <ele>498.6</ele>
        <time>2021-02-20T12:45:36.000Z</time>
      </trkpt>
      <trkpt lat="45.85256" lon="5.44424">
        <ele>498.8</ele>
        <time>2021-02-20T12:45:37.000Z</time>
      </trkpt>
      <trkpt lat="45.85256" lon="5.44426">
        <ele>499</ele>
        <time>2021-02-20T12:45:38.000Z</time>
      </trkpt>
      <trkpt lat="45.85255" lon="5.44429">
        <ele>499</ele>
        <time>2021-02-20T12:45:39.000Z</time>
      </trkpt>
      <trkpt lat="45.85254" lon="5.44432">
        <ele>499.2</ele>
        <time>2021-02-20T12:45:40.000Z</time>
      </trkpt>
      <trkpt lat="45.85254" lon="5.44434">
        <ele>499.4</ele>
        <time>2021-02-20T12:45:41.000Z</time>
      </trkpt>
      <trkpt lat="45.85253" lon="5.44437">
        <ele>499.6</ele>
        <time>2021-02-20T12:45:42.000Z</time>
      </trkpt>
      <trkpt lat="45.85252" lon="5.44439">
        <ele>499.8</ele>
        <time>2021-02-20T12:45:43.000Z</time>
      </trkpt>
      <trkpt lat="45.85251" lon="5.44441">
        <ele>500.2</ele>
        <time>2021-02-20T12:45:44.000Z</time>
      </trkpt>
      <trkpt lat="45.8525" lon="5.44443">
        <ele>500.2</ele>
        <time>2021-02-20T12:45:45.000Z</time>
      </trkpt>
      <trkpt lat="45.8525" lon="5.44445">
        <ele>500.6</ele>
        <time>2021-02-20T12:45:46.000Z</time>
      </trkpt>
      <trkpt lat="45.85249" lon="5.44447">
        <ele>500.8</ele>
        <time>2021-02-20T12:45:47.000Z</time>
      </trkpt>
      <trkpt lat="45.85248" lon="5.44449">
        <ele>500.6</ele>
        <time>2021-02-20T12:45:48.000Z</time>
      </trkpt>
      <trkpt lat="45.85248" lon="5.44451">
        <ele>500.8</ele>
        <time>2021-02-20T12:45:49.000Z</time>
      </trkpt>
      <trkpt lat="45.85246" lon="5.44453">
        <ele>501.2</ele>
        <time>2021-02-20T12:45:50.000Z</time>
      </trkpt>
      <trkpt lat="45.85246" lon="5.44455">
        <ele>501.4</ele>
        <time>2021-02-20T12:45:51.000Z</time>
      </trkpt>
      <trkpt lat="45.85245" lon="5.44457">
        <ele>501.4</ele>
        <time>2021-02-20T12:45:52.000Z</time>
      </trkpt>
      <trkpt lat="45.85244" lon="5.44459">
        <ele>501.8</ele>
        <time>2021-02-20T12:45:53.000Z</time>
      </trkpt>
      <trkpt lat="45.85242" lon="5.44462">
        <ele>501.8</ele>
        <time>2021-02-20T12:45:54.000Z</time>
      </trkpt>
      <trkpt lat="45.85241" lon="5.44464">
        <ele>502</ele>
        <time>2021-02-20T12:45:55.000Z</time>
      </trkpt>
      <trkpt lat="45.8524" lon="5.44466">
        <ele>502</ele>
        <time>2021-02-20T12:45:56.000Z</time>
      </trkpt>
      <trkpt lat="45.85239" lon="5.44468">
        <ele>502.2</ele>
        <time>2021-02-20T12:45:57.000Z</time>
      </trkpt>
      <trkpt lat="45.85238" lon="5.4447">
        <ele>502.4</ele>
        <time>2021-02-20T12:45:58.000Z</time>
      </trkpt>
      <trkpt lat="45.85237" lon="5.44472">
        <ele>502.4</ele>
        <time>2021-02-20T12:45:59.000Z</time>
      </trkpt>
      <trkpt lat="45.85236" lon="5.44474">
        <ele>502.4</ele>
        <time>2021-02-20T12:46:00.000Z</time>
      </trkpt>
      <trkpt lat="45.85234" lon="5.44476">
        <ele>502.6</ele>
        <time>2021-02-20T12:46:01.000Z</time>
      </trkpt>
      <trkpt lat="45.85233" lon="5.44479">
        <ele>502.6</ele>
        <time>2021-02-20T12:46:02.000Z</time>
      </trkpt>
      <trkpt lat="45.85231" lon="5.44481">
        <ele>503</ele>
        <time>2021-02-20T12:46:03.000Z</time>
      </trkpt>
      <trkpt lat="45.8523" lon="5.44483">
        <ele>503</ele>
        <time>2021-02-20T12:46:04.000Z</time>
      </trkpt>
      <trkpt lat="45.85229" lon="5.44485">
        <ele>503.2</ele>
        <time>2021-02-20T12:46:05.000Z</time>
      </trkpt>
      <trkpt lat="45.85228" lon="5.44487">
        <ele>503.2</ele>
        <time>2021-02-20T12:46:06.000Z</time>
      </trkpt>
      <trkpt lat="45.85227" lon="5.44489">
        <ele>503.4</ele>
        <time>2021-02-20T12:46:07.000Z</time>
      </trkpt>
      <trkpt lat="45.85225" lon="5.44491">
        <ele>503.6</ele>
        <time>2021-02-20T12:46:08.000Z</time>
      </trkpt>
      <trkpt lat="45.85223" lon="5.44493">
        <ele>503.6</ele>
        <time>2021-02-20T12:46:09.000Z</time>
      </trkpt>
      <trkpt lat="45.85221" lon="5.44495">
        <ele>503.8</ele>
        <time>2021-02-20T12:46:10.000Z</time>
      </trkpt>
      <trkpt lat="45.8522" lon="5.44497">
        <ele>503.8</ele>
        <time>2021-02-20T12:46:11.000Z</time>
      </trkpt>
      <trkpt lat="45.85218" lon="5.44499">
        <ele>504</ele>
        <time>2021-02-20T12:46:12.000Z</time>
      </trkpt>
      <trkpt lat="45.85217" lon="5.44501">
        <ele>504.2</ele>
        <time>2021-02-20T12:46:13.000Z</time>
      </trkpt>
      <trkpt lat="45.85216" lon="5.44502">
        <ele>504.2</ele>
        <time>2021-02-20T12:46:14.000Z</time>
      </trkpt>
      <trkpt lat="45.85214" lon="5.44504">
        <ele>504.4</ele>
        <time>2021-02-20T12:46:15.000Z</time>
      </trkpt>
      <trkpt lat="45.85211" lon="5.44506">
        <ele>504.6</ele>
        <time>2021-02-20T12:46:16.000Z</time>
      </trkpt>
      <trkpt lat="45.85209" lon="5.44508">
        <ele>505</ele>
        <time>2021-02-20T12:46:17.000Z</time>
      </trkpt>
      <trkpt lat="45.85208" lon="5.44509">
        <ele>505</ele>
        <time>2021-02-20T12:46:18.000Z</time>
      </trkpt>
      <trkpt lat="45.85207" lon="5.44511">
        <ele>505.2</ele>
        <time>2021-02-20T12:46:19.000Z</time>
      </trkpt>
      <trkpt lat="45.85205" lon="5.44512">
        <ele>505.2</ele>
        <time>2021-02-20T12:46:20.000Z</time>
      </trkpt>
      <trkpt lat="45.85204" lon="5.44514">
        <ele>505.4</ele>
        <time>2021-02-20T12:46:21.000Z</time>
      </trkpt>
      <trkpt lat="45.85203" lon="5.44515">
        <ele>506</ele>
        <time>2021-02-20T12:46:22.000Z</time>
      </trkpt>
      <trkpt lat="45.85202" lon="5.44517">
        <ele>506.2</ele>
        <time>2021-02-20T12:46:23.000Z</time>
      </trkpt>
      <trkpt lat="45.852" lon="5.44519">
        <ele>506.4</ele>
        <time>2021-02-20T12:46:24.000Z</time>
      </trkpt>
      <trkpt lat="45.85199" lon="5.44521">
        <ele>506.6</ele>
        <time>2021-02-20T12:46:25.000Z</time>
      </trkpt>
      <trkpt lat="45.85197" lon="5.44523">
        <ele>506.6</ele>
        <time>2021-02-20T12:46:26.000Z</time>
      </trkpt>
      <trkpt lat="45.85196" lon="5.44525">
        <ele>506.8</ele>
        <time>2021-02-20T12:46:27.000Z</time>
      </trkpt>
      <trkpt lat="45.85195" lon="5.44528">
        <ele>507.2</ele>
        <time>2021-02-20T12:46:28.000Z</time>
      </trkpt>
      <trkpt lat="45.85194" lon="5.4453">
        <ele>507.6</ele>
        <time>2021-02-20T12:46:29.000Z</time>
      </trkpt>
      <trkpt lat="45.85194" lon="5.44531">
        <ele>507.8</ele>
        <time>2021-02-20T12:46:30.000Z</time>
      </trkpt>
      <trkpt lat="45.85193" lon="5.44533">
        <ele>508.2</ele>
        <time>2021-02-20T12:46:31.000Z</time>
      </trkpt>
      <trkpt lat="45.85192" lon="5.44536">
        <ele>508.4</ele>
        <time>2021-02-20T12:46:32.000Z</time>
      </trkpt>
      <trkpt lat="45.85192" lon="5.44538">
        <ele>508.4</ele>
        <time>2021-02-20T12:46:33.000Z</time>
      </trkpt>
      <trkpt lat="45.85191" lon="5.4454">
        <ele>508.6</ele>
        <time>2021-02-20T12:46:34.000Z</time>
      </trkpt>
      <trkpt lat="45.8519" lon="5.44542">
        <ele>509</ele>
        <time>2021-02-20T12:46:35.000Z</time>
      </trkpt>
      <trkpt lat="45.85189" lon="5.44544">
        <ele>509.2</ele>
        <time>2021-02-20T12:46:36.000Z</time>
      </trkpt>
      <trkpt lat="45.85188" lon="5.44547">
        <ele>509.2</ele>
        <time>2021-02-20T12:46:37.000Z</time>
      </trkpt>
      <trkpt lat="45.85188" lon="5.44549">
        <ele>509.2</ele>
        <time>2021-02-20T12:46:38.000Z</time>
      </trkpt>
      <trkpt lat="45.85187" lon="5.44552">
        <ele>509.4</ele>
        <time>2021-02-20T12:46:39.000Z</time>
      </trkpt>
      <trkpt lat="45.85186" lon="5.44555">
        <ele>509.4</ele>
        <time>2021-02-20T12:46:40.000Z</time>
      </trkpt>
      <trkpt lat="45.85185" lon="5.44558">
        <ele>509.4</ele>
        <time>2021-02-20T12:46:41.000Z</time>
      </trkpt>
      <trkpt lat="45.85184" lon="5.44562">
        <ele>509.6</ele>
        <time>2021-02-20T12:46:42.000Z</time>
      </trkpt>
      <trkpt lat="45.85183" lon="5.44565">
        <ele>509.8</ele>
        <time>2021-02-20T12:46:43.000Z</time>
      </trkpt>
      <trkpt lat="45.85183" lon="5.44567">
        <ele>509.8</ele>
        <time>2021-02-20T12:46:44.000Z</time>
      </trkpt>
      <trkpt lat="45.85182" lon="5.4457">
        <ele>509.8</ele>
        <time>2021-02-20T12:46:45.000Z</time>
      </trkpt>
      <trkpt lat="45.85182" lon="5.44573">
        <ele>510</ele>
        <time>2021-02-20T12:46:46.000Z</time>
      </trkpt>
      <trkpt lat="45.85181" lon="5.44576">
        <ele>510</ele>
        <time>2021-02-20T12:46:47.000Z</time>
      </trkpt>
      <trkpt lat="45.8518" lon="5.44578">
        <ele>510.2</ele>
        <time>2021-02-20T12:46:48.000Z</time>
      </trkpt>
      <trkpt lat="45.85179" lon="5.44581">
        <ele>510.2</ele>
        <time>2021-02-20T12:46:49.000Z</time>
      </trkpt>
      <trkpt lat="45.85179" lon="5.44584">
        <ele>510.6</ele>
        <time>2021-02-20T12:46:50.000Z</time>
      </trkpt>
      <trkpt lat="45.85178" lon="5.44587">
        <ele>510.8</ele>
        <time>2021-02-20T12:46:51.000Z</time>
      </trkpt>
      <trkpt lat="45.85177" lon="5.44589">
        <ele>511</ele>
        <time>2021-02-20T12:46:52.000Z</time>
      </trkpt>
      <trkpt lat="45.85176" lon="5.44591">
        <ele>511</ele>
        <time>2021-02-20T12:46:53.000Z</time>
      </trkpt>
      <trkpt lat="45.85176" lon="5.44594">
        <ele>511.2</ele>
        <time>2021-02-20T12:46:54.000Z</time>
      </trkpt>
      <trkpt lat="45.85176" lon="5.44596">
        <ele>511.4</ele>
        <time>2021-02-20T12:46:55.000Z</time>
      </trkpt>
      <trkpt lat="45.85175" lon="5.44598">
        <ele>511.6</ele>
        <time>2021-02-20T12:46:56.000Z</time>
      </trkpt>
      <trkpt lat="45.85175" lon="5.44601">
        <ele>511.8</ele>
        <time>2021-02-20T12:46:57.000Z</time>
      </trkpt>
      <trkpt lat="45.85175" lon="5.44604">
        <ele>511.8</ele>
        <time>2021-02-20T12:46:58.000Z</time>
      </trkpt>
      <trkpt lat="45.85175" lon="5.44606">
        <ele>512</ele>
        <time>2021-02-20T12:46:59.000Z</time>
      </trkpt>
      <trkpt lat="45.85175" lon="5.44609">
        <ele>512.2</ele>
        <time>2021-02-20T12:47:00.000Z</time>
      </trkpt>
      <trkpt lat="45.85174" lon="5.44612">
        <ele>512.4</ele>
        <time>2021-02-20T12:47:01.000Z</time>
      </trkpt>
      <trkpt lat="45.85174" lon="5.44615">
        <ele>512.4</ele>
        <time>2021-02-20T12:47:02.000Z</time>
      </trkpt>
      <trkpt lat="45.85173" lon="5.44618">
        <ele>512.6</ele>
        <time>2021-02-20T12:47:03.000Z</time>
      </trkpt>
      <trkpt lat="45.85173" lon="5.44621">
        <ele>512.8</ele>
        <time>2021-02-20T12:47:04.000Z</time>
      </trkpt>
      <trkpt lat="45.85173" lon="5.44623">
        <ele>513</ele>
        <time>2021-02-20T12:47:05.000Z</time>
      </trkpt>
      <trkpt lat="45.85173" lon="5.44626">
        <ele>513.2</ele>
        <time>2021-02-20T12:47:06.000Z</time>
      </trkpt>
      <trkpt lat="45.85173" lon="5.44628">
        <ele>513.4</ele>
        <time>2021-02-20T12:47:07.000Z</time>
      </trkpt>
      <trkpt lat="45.85173" lon="5.44631">
        <ele>513.6</ele>
        <time>2021-02-20T12:47:08.000Z</time>
      </trkpt>
      <trkpt lat="45.85174" lon="5.44634">
        <ele>513.8</ele>
        <time>2021-02-20T12:47:09.000Z</time>
      </trkpt>
      <trkpt lat="45.85174" lon="5.44636">
        <ele>514.2</ele>
        <time>2021-02-20T12:47:10.000Z</time>
      </trkpt>
      <trkpt lat="45.85175" lon="5.44638">
        <ele>514.2</ele>
        <time>2021-02-20T12:47:11.000Z</time>
      </trkpt>
      <trkpt lat="45.85175" lon="5.44641">
        <ele>514.4</ele>
        <time>2021-02-20T12:47:12.000Z</time>
      </trkpt>
      <trkpt lat="45.85175" lon="5.44643">
        <ele>514.8</ele>
        <time>2021-02-20T12:47:13.000Z</time>
      </trkpt>
      <trkpt lat="45.85175" lon="5.44646">
        <ele>515</ele>
        <time>2021-02-20T12:47:14.000Z</time>
      </trkpt>
      <trkpt lat="45.85174" lon="5.44649">
        <ele>515.2</ele>
        <time>2021-02-20T12:47:15.000Z</time>
      </trkpt>
      <trkpt lat="45.85175" lon="5.44652">
        <ele>515.4</ele>
        <time>2021-02-20T12:47:16.000Z</time>
      </trkpt>
      <trkpt lat="45.85175" lon="5.44654">
        <ele>515.4</ele>
        <time>2021-02-20T12:47:17.000Z</time>
      </trkpt>
      <trkpt lat="45.85174" lon="5.44657">
        <ele>515.6</ele>
        <time>2021-02-20T12:47:18.000Z</time>
      </trkpt>
      <trkpt lat="45.85174" lon="5.4466">
        <ele>515.6</ele>
        <time>2021-02-20T12:47:19.000Z</time>
      </trkpt>
      <trkpt lat="45.85173" lon="5.44662">
        <ele>515.8</ele>
        <time>2021-02-20T12:47:20.000Z</time>
      </trkpt>
      <trkpt lat="45.85173" lon="5.44665">
        <ele>516</ele>
        <time>2021-02-20T12:47:21.000Z</time>
      </trkpt>
      <trkpt lat="45.85173" lon="5.44668">
        <ele>516.2</ele>
        <time>2021-02-20T12:47:22.000Z</time>
      </trkpt>
      <trkpt lat="45.85173" lon="5.4467">
        <ele>516.4</ele>
        <time>2021-02-20T12:47:23.000Z</time>
      </trkpt>
      <trkpt lat="45.85172" lon="5.44672">
        <ele>516.4</ele>
        <time>2021-02-20T12:47:24.000Z</time>
      </trkpt>
      <trkpt lat="45.85173" lon="5.44675">
        <ele>516.8</ele>
        <time>2021-02-20T12:47:25.000Z</time>
      </trkpt>
      <trkpt lat="45.85173" lon="5.44677">
        <ele>516.8</ele>
        <time>2021-02-20T12:47:26.000Z</time>
      </trkpt>
      <trkpt lat="45.85173" lon="5.4468">
        <ele>517</ele>
        <time>2021-02-20T12:47:27.000Z</time>
      </trkpt>
      <trkpt lat="45.85173" lon="5.44682">
        <ele>517.2</ele>
        <time>2021-02-20T12:47:28.000Z</time>
      </trkpt>
      <trkpt lat="45.85173" lon="5.44685">
        <ele>517.4</ele>
        <time>2021-02-20T12:47:29.000Z</time>
      </trkpt>
      <trkpt lat="45.85172" lon="5.44688">
        <ele>517.2</ele>
        <time>2021-02-20T12:47:30.000Z</time>
      </trkpt>
      <trkpt lat="45.85172" lon="5.44691">
        <ele>517.6</ele>
        <time>2021-02-20T12:47:31.000Z</time>
      </trkpt>
      <trkpt lat="45.85172" lon="5.44693">
        <ele>517.6</ele>
        <time>2021-02-20T12:47:32.000Z</time>
      </trkpt>
      <trkpt lat="45.85172" lon="5.44696">
        <ele>517.6</ele>
        <time>2021-02-20T12:47:33.000Z</time>
      </trkpt>
      <trkpt lat="45.85172" lon="5.44699">
        <ele>517.8</ele>
        <time>2021-02-20T12:47:34.000Z</time>
      </trkpt>
      <trkpt lat="45.85172" lon="5.44701">
        <ele>518</ele>
        <time>2021-02-20T12:47:35.000Z</time>
      </trkpt>
      <trkpt lat="45.85171" lon="5.44705">
        <ele>518.2</ele>
        <time>2021-02-20T12:47:36.000Z</time>
      </trkpt>
      <trkpt lat="45.8517" lon="5.44708">
        <ele>518.2</ele>
        <time>2021-02-20T12:47:37.000Z</time>
      </trkpt>
      <trkpt lat="45.8517" lon="5.44711">
        <ele>518.2</ele>
        <time>2021-02-20T12:47:38.000Z</time>
      </trkpt>
      <trkpt lat="45.8517" lon="5.44715">
        <ele>518.4</ele>
        <time>2021-02-20T12:47:39.000Z</time>
      </trkpt>
      <trkpt lat="45.8517" lon="5.44718">
        <ele>518.6</ele>
        <time>2021-02-20T12:47:40.000Z</time>
      </trkpt>
      <trkpt lat="45.8517" lon="5.44721">
        <ele>518.6</ele>
        <time>2021-02-20T12:47:41.000Z</time>
      </trkpt>
      <trkpt lat="45.8517" lon="5.44724">
        <ele>518.8</ele>
        <time>2021-02-20T12:47:42.000Z</time>
      </trkpt>
      <trkpt lat="45.8517" lon="5.44727">
        <ele>519</ele>
        <time>2021-02-20T12:47:43.000Z</time>
      </trkpt>
      <trkpt lat="45.85169" lon="5.44729">
        <ele>519.2</ele>
        <time>2021-02-20T12:47:44.000Z</time>
      </trkpt>
      <trkpt lat="45.85169" lon="5.44732">
        <ele>519.6</ele>
        <time>2021-02-20T12:47:45.000Z</time>
      </trkpt>
      <trkpt lat="45.85167" lon="5.44736">
        <ele>519.8</ele>
        <time>2021-02-20T12:47:46.000Z</time>
      </trkpt>
      <trkpt lat="45.85166" lon="5.44738">
        <ele>520</ele>
        <time>2021-02-20T12:47:47.000Z</time>
      </trkpt>
      <trkpt lat="45.85165" lon="5.44741">
        <ele>520.2</ele>
        <time>2021-02-20T12:47:48.000Z</time>
      </trkpt>
      <trkpt lat="45.85165" lon="5.44744">
        <ele>520.4</ele>
        <time>2021-02-20T12:47:49.000Z</time>
      </trkpt>
      <trkpt lat="45.85164" lon="5.44748">
        <ele>520.4</ele>
        <time>2021-02-20T12:47:50.000Z</time>
      </trkpt>
      <trkpt lat="45.85164" lon="5.44751">
        <ele>520.6</ele>
        <time>2021-02-20T12:47:51.000Z</time>
      </trkpt>
      <trkpt lat="45.85163" lon="5.44754">
        <ele>520.8</ele>
        <time>2021-02-20T12:47:52.000Z</time>
      </trkpt>
      <trkpt lat="45.85162" lon="5.44757">
        <ele>520.8</ele>
        <time>2021-02-20T12:47:53.000Z</time>
      </trkpt>
      <trkpt lat="45.85162" lon="5.44759">
        <ele>521</ele>
        <time>2021-02-20T12:47:54.000Z</time>
      </trkpt>
      <trkpt lat="45.85161" lon="5.44762">
        <ele>520.8</ele>
        <time>2021-02-20T12:47:55.000Z</time>
      </trkpt>
      <trkpt lat="45.8516" lon="5.44764">
        <ele>521.2</ele>
        <time>2021-02-20T12:47:56.000Z</time>
      </trkpt>
      <trkpt lat="45.8516" lon="5.44767">
        <ele>521.2</ele>
        <time>2021-02-20T12:47:57.000Z</time>
      </trkpt>
      <trkpt lat="45.85159" lon="5.44769">
        <ele>521.2</ele>
        <time>2021-02-20T12:47:58.000Z</time>
      </trkpt>
      <trkpt lat="45.85159" lon="5.44772">
        <ele>521.4</ele>
        <time>2021-02-20T12:47:59.000Z</time>
      </trkpt>
      <trkpt lat="45.85158" lon="5.44775">
        <ele>521.4</ele>
        <time>2021-02-20T12:48:00.000Z</time>
      </trkpt>
      <trkpt lat="45.85156" lon="5.44778">
        <ele>521.6</ele>
        <time>2021-02-20T12:48:01.000Z</time>
      </trkpt>
      <trkpt lat="45.85156" lon="5.44781">
        <ele>521.8</ele>
        <time>2021-02-20T12:48:02.000Z</time>
      </trkpt>
      <trkpt lat="45.85155" lon="5.44784">
        <ele>521.8</ele>
        <time>2021-02-20T12:48:03.000Z</time>
      </trkpt>
      <trkpt lat="45.85154" lon="5.44787">
        <ele>522</ele>
        <time>2021-02-20T12:48:04.000Z</time>
      </trkpt>
      <trkpt lat="45.85154" lon="5.44789">
        <ele>522.2</ele>
        <time>2021-02-20T12:48:05.000Z</time>
      </trkpt>
      <trkpt lat="45.85153" lon="5.44792">
        <ele>522.4</ele>
        <time>2021-02-20T12:48:06.000Z</time>
      </trkpt>
      <trkpt lat="45.85152" lon="5.44794">
        <ele>522.6</ele>
        <time>2021-02-20T12:48:07.000Z</time>
      </trkpt>
      <trkpt lat="45.85152" lon="5.44797">
        <ele>522.8</ele>
        <time>2021-02-20T12:48:08.000Z</time>
      </trkpt>
      <trkpt lat="45.85151" lon="5.448">
        <ele>523</ele>
        <time>2021-02-20T12:48:09.000Z</time>
      </trkpt>
      <trkpt lat="45.85151" lon="5.44802">
        <ele>523.4</ele>
        <time>2021-02-20T12:48:10.000Z</time>
      </trkpt>
      <trkpt lat="45.8515" lon="5.44805">
        <ele>523.6</ele>
        <time>2021-02-20T12:48:11.000Z</time>
      </trkpt>
      <trkpt lat="45.8515" lon="5.44807">
        <ele>523.8</ele>
        <time>2021-02-20T12:48:12.000Z</time>
      </trkpt>
      <trkpt lat="45.8515" lon="5.4481">
        <ele>523.8</ele>
        <time>2021-02-20T12:48:13.000Z</time>
      </trkpt>
      <trkpt lat="45.8515" lon="5.44812">
        <ele>524</ele>
        <time>2021-02-20T12:48:14.000Z</time>
      </trkpt>
      <trkpt lat="45.85149" lon="5.44815">
        <ele>524</ele>
        <time>2021-02-20T12:48:15.000Z</time>
      </trkpt>
      <trkpt lat="45.85149" lon="5.44817">
        <ele>524.2</ele>
        <time>2021-02-20T12:48:16.000Z</time>
      </trkpt>
      <trkpt lat="45.85149" lon="5.44819">
        <ele>524.2</ele>
        <time>2021-02-20T12:48:17.000Z</time>
      </trkpt>
      <trkpt lat="45.85148" lon="5.44822">
        <ele>524.2</ele>
        <time>2021-02-20T12:48:18.000Z</time>
      </trkpt>
      <trkpt lat="45.85148" lon="5.44824">
        <ele>524.6</ele>
        <time>2021-02-20T12:48:19.000Z</time>
      </trkpt>
      <trkpt lat="45.85147" lon="5.44827">
        <ele>524.6</ele>
        <time>2021-02-20T12:48:20.000Z</time>
      </trkpt>
      <trkpt lat="45.85147" lon="5.4483">
        <ele>524.8</ele>
        <time>2021-02-20T12:48:21.000Z</time>
      </trkpt>
      <trkpt lat="45.85146" lon="5.44833">
        <ele>524.8</ele>
        <time>2021-02-20T12:48:22.000Z</time>
      </trkpt>
      <trkpt lat="45.85146" lon="5.44836">
        <ele>525.2</ele>
        <time>2021-02-20T12:48:23.000Z</time>
      </trkpt>
      <trkpt lat="45.85146" lon="5.44838">
        <ele>525.2</ele>
        <time>2021-02-20T12:48:24.000Z</time>
      </trkpt>
      <trkpt lat="45.85145" lon="5.44841">
        <ele>525.6</ele>
        <time>2021-02-20T12:48:25.000Z</time>
      </trkpt>
      <trkpt lat="45.85145" lon="5.44844">
        <ele>525.6</ele>
        <time>2021-02-20T12:48:26.000Z</time>
      </trkpt>
      <trkpt lat="45.85144" lon="5.44847">
        <ele>525.6</ele>
        <time>2021-02-20T12:48:27.000Z</time>
      </trkpt>
      <trkpt lat="45.85144" lon="5.44849">
        <ele>525.8</ele>
        <time>2021-02-20T12:48:28.000Z</time>
      </trkpt>
      <trkpt lat="45.85143" lon="5.44852">
        <ele>526</ele>
        <time>2021-02-20T12:48:29.000Z</time>
      </trkpt>
      <trkpt lat="45.85143" lon="5.44854">
        <ele>526.2</ele>
        <time>2021-02-20T12:48:30.000Z</time>
      </trkpt>
      <trkpt lat="45.85142" lon="5.44856">
        <ele>526.6</ele>
        <time>2021-02-20T12:48:31.000Z</time>
      </trkpt>
      <trkpt lat="45.85142" lon="5.44859">
        <ele>527</ele>
        <time>2021-02-20T12:48:32.000Z</time>
      </trkpt>
      <trkpt lat="45.85141" lon="5.44861">
        <ele>527</ele>
        <time>2021-02-20T12:48:33.000Z</time>
      </trkpt>
      <trkpt lat="45.85141" lon="5.44864">
        <ele>527</ele>
        <time>2021-02-20T12:48:34.000Z</time>
      </trkpt>
      <trkpt lat="45.8514" lon="5.44866">
        <ele>527.2</ele>
        <time>2021-02-20T12:48:35.000Z</time>
      </trkpt>
      <trkpt lat="45.85139" lon="5.44869">
        <ele>527.4</ele>
        <time>2021-02-20T12:48:36.000Z</time>
      </trkpt>
      <trkpt lat="45.85138" lon="5.44871">
        <ele>527.4</ele>
        <time>2021-02-20T12:48:37.000Z</time>
      </trkpt>
      <trkpt lat="45.85137" lon="5.44874">
        <ele>527.6</ele>
        <time>2021-02-20T12:48:38.000Z</time>
      </trkpt>
      <trkpt lat="45.85136" lon="5.44876">
        <ele>527.6</ele>
        <time>2021-02-20T12:48:39.000Z</time>
      </trkpt>
      <trkpt lat="45.85134" lon="5.44879">
        <ele>527.8</ele>
        <time>2021-02-20T12:48:40.000Z</time>
      </trkpt>
      <trkpt lat="45.85133" lon="5.44881">
        <ele>528</ele>
        <time>2021-02-20T12:48:41.000Z</time>
      </trkpt>
      <trkpt lat="45.85132" lon="5.44884">
        <ele>528.4</ele>
        <time>2021-02-20T12:48:42.000Z</time>
      </trkpt>
      <trkpt lat="45.8513" lon="5.44886">
        <ele>528.4</ele>
        <time>2021-02-20T12:48:43.000Z</time>
      </trkpt>
      <trkpt lat="45.85129" lon="5.44888">
        <ele>528.6</ele>
        <time>2021-02-20T12:48:44.000Z</time>
      </trkpt>
      <trkpt lat="45.85128" lon="5.44891">
        <ele>528.6</ele>
        <time>2021-02-20T12:48:45.000Z</time>
      </trkpt>
      <trkpt lat="45.85127" lon="5.44893">
        <ele>528.8</ele>
        <time>2021-02-20T12:48:46.000Z</time>
      </trkpt>
      <trkpt lat="45.85126" lon="5.44895">
        <ele>528.8</ele>
        <time>2021-02-20T12:48:47.000Z</time>
      </trkpt>
      <trkpt lat="45.85125" lon="5.44897">
        <ele>529</ele>
        <time>2021-02-20T12:48:48.000Z</time>
      </trkpt>
      <trkpt lat="45.85124" lon="5.44899">
        <ele>529.2</ele>
        <time>2021-02-20T12:48:49.000Z</time>
      </trkpt>
      <trkpt lat="45.85122" lon="5.44902">
        <ele>529.2</ele>
        <time>2021-02-20T12:48:50.000Z</time>
      </trkpt>
      <trkpt lat="45.85121" lon="5.44904">
        <ele>529.4</ele>
        <time>2021-02-20T12:48:51.000Z</time>
      </trkpt>
      <trkpt lat="45.8512" lon="5.44906">
        <ele>529.4</ele>
        <time>2021-02-20T12:48:52.000Z</time>
      </trkpt>
      <trkpt lat="45.85119" lon="5.44908">
        <ele>529.6</ele>
        <time>2021-02-20T12:48:53.000Z</time>
      </trkpt>
      <trkpt lat="45.85117" lon="5.44911">
        <ele>530</ele>
        <time>2021-02-20T12:48:54.000Z</time>
      </trkpt>
      <trkpt lat="45.85116" lon="5.44914">
        <ele>530.4</ele>
        <time>2021-02-20T12:48:55.000Z</time>
      </trkpt>
      <trkpt lat="45.85114" lon="5.44917">
        <ele>530.4</ele>
        <time>2021-02-20T12:48:56.000Z</time>
      </trkpt>
      <trkpt lat="45.85112" lon="5.4492">
        <ele>530.4</ele>
        <time>2021-02-20T12:48:57.000Z</time>
      </trkpt>
      <trkpt lat="45.8511" lon="5.44922">
        <ele>530.8</ele>
        <time>2021-02-20T12:48:58.000Z</time>
      </trkpt>
      <trkpt lat="45.85109" lon="5.44924">
        <ele>531.4</ele>
        <time>2021-02-20T12:48:59.000Z</time>
      </trkpt>
      <trkpt lat="45.85107" lon="5.44926">
        <ele>531.6</ele>
        <time>2021-02-20T12:49:00.000Z</time>
      </trkpt>
      <trkpt lat="45.85105" lon="5.44928">
        <ele>531.6</ele>
        <time>2021-02-20T12:49:01.000Z</time>
      </trkpt>
      <trkpt lat="45.85103" lon="5.44931">
        <ele>531.8</ele>
        <time>2021-02-20T12:49:02.000Z</time>
      </trkpt>
      <trkpt lat="45.85101" lon="5.44933">
        <ele>531.8</ele>
        <time>2021-02-20T12:49:03.000Z</time>
      </trkpt>
      <trkpt lat="45.851" lon="5.44935">
        <ele>532.2</ele>
        <time>2021-02-20T12:49:04.000Z</time>
      </trkpt>
      <trkpt lat="45.85099" lon="5.44937">
        <ele>532.6</ele>
        <time>2021-02-20T12:49:05.000Z</time>
      </trkpt>
      <trkpt lat="45.85098" lon="5.44938">
        <ele>532.6</ele>
        <time>2021-02-20T12:49:06.000Z</time>
      </trkpt>
      <trkpt lat="45.85097" lon="5.44939">
        <ele>533</ele>
        <time>2021-02-20T12:49:07.000Z</time>
      </trkpt>
      <trkpt lat="45.85097" lon="5.44941">
        <ele>533.2</ele>
        <time>2021-02-20T12:49:08.000Z</time>
      </trkpt>
      <trkpt lat="45.85096" lon="5.44943">
        <ele>533.4</ele>
        <time>2021-02-20T12:49:09.000Z</time>
      </trkpt>
      <trkpt lat="45.85095" lon="5.44946">
        <ele>533.6</ele>
        <time>2021-02-20T12:49:10.000Z</time>
      </trkpt>
      <trkpt lat="45.85094" lon="5.44948">
        <ele>533.6</ele>
        <time>2021-02-20T12:49:11.000Z</time>
      </trkpt>
      <trkpt lat="45.85093" lon="5.4495">
        <ele>533.8</ele>
        <time>2021-02-20T12:49:12.000Z</time>
      </trkpt>
      <trkpt lat="45.85093" lon="5.44951">
        <ele>533.8</ele>
        <time>2021-02-20T12:49:13.000Z</time>
      </trkpt>
      <trkpt lat="45.85092" lon="5.44953">
        <ele>534.2</ele>
        <time>2021-02-20T12:49:14.000Z</time>
      </trkpt>
      <trkpt lat="45.85092" lon="5.44956">
        <ele>534.4</ele>
        <time>2021-02-20T12:49:15.000Z</time>
      </trkpt>
      <trkpt lat="45.85091" lon="5.44959">
        <ele>534.4</ele>
        <time>2021-02-20T12:49:16.000Z</time>
      </trkpt>
      <trkpt lat="45.8509" lon="5.44961">
        <ele>534.4</ele>
        <time>2021-02-20T12:49:17.000Z</time>
      </trkpt>
      <trkpt lat="45.85089" lon="5.44963">
        <ele>534.6</ele>
        <time>2021-02-20T12:49:18.000Z</time>
      </trkpt>
      <trkpt lat="45.85087" lon="5.44965">
        <ele>534.8</ele>
        <time>2021-02-20T12:49:19.000Z</time>
      </trkpt>
      <trkpt lat="45.85086" lon="5.44968">
        <ele>534.8</ele>
        <time>2021-02-20T12:49:20.000Z</time>
      </trkpt>
      <trkpt lat="45.85085" lon="5.44971">
        <ele>535</ele>
        <time>2021-02-20T12:49:21.000Z</time>
      </trkpt>
      <trkpt lat="45.85084" lon="5.44973">
        <ele>535.4</ele>
        <time>2021-02-20T12:49:22.000Z</time>
      </trkpt>
      <trkpt lat="45.85083" lon="5.44976">
        <ele>535.4</ele>
        <time>2021-02-20T12:49:23.000Z</time>
      </trkpt>
      <trkpt lat="45.85082" lon="5.44978">
        <ele>535.6</ele>
        <time>2021-02-20T12:49:24.000Z</time>
      </trkpt>
      <trkpt lat="45.85081" lon="5.44981">
        <ele>535.6</ele>
        <time>2021-02-20T12:49:25.000Z</time>
      </trkpt>
      <trkpt lat="45.85081" lon="5.44983">
        <ele>536</ele>
        <time>2021-02-20T12:49:26.000Z</time>
      </trkpt>
      <trkpt lat="45.85081" lon="5.44985">
        <ele>536</ele>
        <time>2021-02-20T12:49:27.000Z</time>
      </trkpt>
      <trkpt lat="45.8508" lon="5.44988">
        <ele>536</ele>
        <time>2021-02-20T12:49:28.000Z</time>
      </trkpt>
      <trkpt lat="45.85079" lon="5.44991">
        <ele>536.2</ele>
        <time>2021-02-20T12:49:29.000Z</time>
      </trkpt>
      <trkpt lat="45.85079" lon="5.44994">
        <ele>536.6</ele>
        <time>2021-02-20T12:49:30.000Z</time>
      </trkpt>
      <trkpt lat="45.85077" lon="5.44998">
        <ele>536.8</ele>
        <time>2021-02-20T12:49:31.000Z</time>
      </trkpt>
      <trkpt lat="45.85076" lon="5.45001">
        <ele>537</ele>
        <time>2021-02-20T12:49:32.000Z</time>
      </trkpt>
      <trkpt lat="45.85076" lon="5.45004">
        <ele>537.4</ele>
        <time>2021-02-20T12:49:33.000Z</time>
      </trkpt>
      <trkpt lat="45.85075" lon="5.45007">
        <ele>537.6</ele>
        <time>2021-02-20T12:49:34.000Z</time>
      </trkpt>
      <trkpt lat="45.85075" lon="5.4501">
        <ele>537.6</ele>
        <time>2021-02-20T12:49:35.000Z</time>
      </trkpt>
      <trkpt lat="45.85074" lon="5.45012">
        <ele>537.6</ele>
        <time>2021-02-20T12:49:36.000Z</time>
      </trkpt>
      <trkpt lat="45.85074" lon="5.45015">
        <ele>537.8</ele>
        <time>2021-02-20T12:49:37.000Z</time>
      </trkpt>
      <trkpt lat="45.85075" lon="5.45017">
        <ele>538</ele>
        <time>2021-02-20T12:49:38.000Z</time>
      </trkpt>
      <trkpt lat="45.85076" lon="5.4502">
        <ele>538.2</ele>
        <time>2021-02-20T12:49:39.000Z</time>
      </trkpt>
      <trkpt lat="45.85076" lon="5.45021">
        <ele>538.2</ele>
        <time>2021-02-20T12:49:40.000Z</time>
      </trkpt>
      <trkpt lat="45.85077" lon="5.45024">
        <ele>538.4</ele>
        <time>2021-02-20T12:49:41.000Z</time>
      </trkpt>
      <trkpt lat="45.85076" lon="5.45026">
        <ele>538.4</ele>
        <time>2021-02-20T12:49:42.000Z</time>
      </trkpt>
      <trkpt lat="45.85076" lon="5.45029">
        <ele>538.6</ele>
        <time>2021-02-20T12:49:43.000Z</time>
      </trkpt>
      <trkpt lat="45.85076" lon="5.45032">
        <ele>538.8</ele>
        <time>2021-02-20T12:49:44.000Z</time>
      </trkpt>
      <trkpt lat="45.85075" lon="5.45036">
        <ele>539</ele>
        <time>2021-02-20T12:49:45.000Z</time>
      </trkpt>
      <trkpt lat="45.85074" lon="5.45039">
        <ele>539.4</ele>
        <time>2021-02-20T12:49:46.000Z</time>
      </trkpt>
      <trkpt lat="45.85074" lon="5.45042">
        <ele>539.6</ele>
        <time>2021-02-20T12:49:47.000Z</time>
      </trkpt>
      <trkpt lat="45.85074" lon="5.45044">
        <ele>539.8</ele>
        <time>2021-02-20T12:49:48.000Z</time>
      </trkpt>
      <trkpt lat="45.85074" lon="5.45047">
        <ele>539.8</ele>
        <time>2021-02-20T12:49:49.000Z</time>
      </trkpt>
      <trkpt lat="45.85074" lon="5.45049">
        <ele>539.8</ele>
        <time>2021-02-20T12:49:50.000Z</time>
      </trkpt>
      <trkpt lat="45.85074" lon="5.45052">
        <ele>540.2</ele>
        <time>2021-02-20T12:49:51.000Z</time>
      </trkpt>
      <trkpt lat="45.85074" lon="5.45054">
        <ele>540.2</ele>
        <time>2021-02-20T12:49:52.000Z</time>
      </trkpt>
      <trkpt lat="45.85075" lon="5.45057">
        <ele>540.4</ele>
        <time>2021-02-20T12:49:53.000Z</time>
      </trkpt>
      <trkpt lat="45.85075" lon="5.4506">
        <ele>540.8</ele>
        <time>2021-02-20T12:49:54.000Z</time>
      </trkpt>
      <trkpt lat="45.85075" lon="5.45062">
        <ele>540.8</ele>
        <time>2021-02-20T12:49:55.000Z</time>
      </trkpt>
      <trkpt lat="45.85076" lon="5.45065">
        <ele>540.8</ele>
        <time>2021-02-20T12:49:56.000Z</time>
      </trkpt>
      <trkpt lat="45.85076" lon="5.45068">
        <ele>541</ele>
        <time>2021-02-20T12:49:57.000Z</time>
      </trkpt>
      <trkpt lat="45.85075" lon="5.4507">
        <ele>541.2</ele>
        <time>2021-02-20T12:49:58.000Z</time>
      </trkpt>
      <trkpt lat="45.85075" lon="5.45073">
        <ele>541.4</ele>
        <time>2021-02-20T12:49:59.000Z</time>
      </trkpt>
      <trkpt lat="45.85075" lon="5.45075">
        <ele>541.6</ele>
        <time>2021-02-20T12:50:00.000Z</time>
      </trkpt>
      <trkpt lat="45.85076" lon="5.45077">
        <ele>541.8</ele>
        <time>2021-02-20T12:50:01.000Z</time>
      </trkpt>
      <trkpt lat="45.85076" lon="5.45078">
        <ele>542</ele>
        <time>2021-02-20T12:50:02.000Z</time>
      </trkpt>
      <trkpt lat="45.85077" lon="5.45079">
        <ele>542.2</ele>
        <time>2021-02-20T12:50:03.000Z</time>
      </trkpt>
      <trkpt lat="45.85078" lon="5.45081">
        <ele>542.2</ele>
        <time>2021-02-20T12:50:04.000Z</time>
      </trkpt>
      <trkpt lat="45.85079" lon="5.45082">
        <ele>542.2</ele>
        <time>2021-02-20T12:50:05.000Z</time>
      </trkpt>
      <trkpt lat="45.8508" lon="5.45083">
        <ele>542.2</ele>
        <time>2021-02-20T12:50:06.000Z</time>
      </trkpt>
      <trkpt lat="45.85081" lon="5.45084">
        <ele>542.6</ele>
        <time>2021-02-20T12:50:07.000Z</time>
      </trkpt>
      <trkpt lat="45.85083" lon="5.45086">
        <ele>542.6</ele>
        <time>2021-02-20T12:50:08.000Z</time>
      </trkpt>
      <trkpt lat="45.85085" lon="5.45086">
        <ele>542.8</ele>
        <time>2021-02-20T12:50:09.000Z</time>
      </trkpt>
      <trkpt lat="45.85086" lon="5.45087">
        <ele>542.8</ele>
        <time>2021-02-20T12:50:10.000Z</time>
      </trkpt>
      <trkpt lat="45.85088" lon="5.45088">
        <ele>542.8</ele>
        <time>2021-02-20T12:50:11.000Z</time>
      </trkpt>
      <trkpt lat="45.8509" lon="5.45089">
        <ele>543</ele>
        <time>2021-02-20T12:50:12.000Z</time>
      </trkpt>
      <trkpt lat="45.85091" lon="5.45089">
        <ele>543.2</ele>
        <time>2021-02-20T12:50:13.000Z</time>
      </trkpt>
      <trkpt lat="45.85092" lon="5.4509">
        <ele>543.2</ele>
        <time>2021-02-20T12:50:14.000Z</time>
      </trkpt>
      <trkpt lat="45.85093" lon="5.4509">
        <ele>543.4</ele>
        <time>2021-02-20T12:50:15.000Z</time>
      </trkpt>
      <trkpt lat="45.85095" lon="5.4509">
        <ele>543.6</ele>
        <time>2021-02-20T12:50:16.000Z</time>
      </trkpt>
      <trkpt lat="45.85096" lon="5.45092">
        <ele>543.4</ele>
        <time>2021-02-20T12:50:17.000Z</time>
      </trkpt>
      <trkpt lat="45.85098" lon="5.45093">
        <ele>543.6</ele>
        <time>2021-02-20T12:50:18.000Z</time>
      </trkpt>
      <trkpt lat="45.851" lon="5.45095">
        <ele>543.8</ele>
        <time>2021-02-20T12:50:19.000Z</time>
      </trkpt>
      <trkpt lat="45.85101" lon="5.45098">
        <ele>544</ele>
        <time>2021-02-20T12:50:20.000Z</time>
      </trkpt>
      <trkpt lat="45.85102" lon="5.45099">
        <ele>544</ele>
        <time>2021-02-20T12:50:21.000Z</time>
      </trkpt>
      <trkpt lat="45.85103" lon="5.45102">
        <ele>544.2</ele>
        <time>2021-02-20T12:50:22.000Z</time>
      </trkpt>
      <trkpt lat="45.85104" lon="5.45104">
        <ele>544.6</ele>
        <time>2021-02-20T12:50:23.000Z</time>
      </trkpt>
      <trkpt lat="45.85105" lon="5.45106">
        <ele>544.8</ele>
        <time>2021-02-20T12:50:24.000Z</time>
      </trkpt>
      <trkpt lat="45.85106" lon="5.45109">
        <ele>545</ele>
        <time>2021-02-20T12:50:25.000Z</time>
      </trkpt>
      <trkpt lat="45.85106" lon="5.45112">
        <ele>545.2</ele>
        <time>2021-02-20T12:50:26.000Z</time>
      </trkpt>
      <trkpt lat="45.85107" lon="5.45115">
        <ele>545.4</ele>
        <time>2021-02-20T12:50:27.000Z</time>
      </trkpt>
      <trkpt lat="45.85107" lon="5.45117">
        <ele>545.6</ele>
        <time>2021-02-20T12:50:28.000Z</time>
      </trkpt>
      <trkpt lat="45.85108" lon="5.4512">
        <ele>545.6</ele>
        <time>2021-02-20T12:50:29.000Z</time>
      </trkpt>
      <trkpt lat="45.85109" lon="5.45123">
        <ele>545.8</ele>
        <time>2021-02-20T12:50:30.000Z</time>
      </trkpt>
      <trkpt lat="45.85109" lon="5.45125">
        <ele>545.8</ele>
        <time>2021-02-20T12:50:31.000Z</time>
      </trkpt>
      <trkpt lat="45.8511" lon="5.45128">
        <ele>545.8</ele>
        <time>2021-02-20T12:50:32.000Z</time>
      </trkpt>
      <trkpt lat="45.85111" lon="5.45132">
        <ele>546</ele>
        <time>2021-02-20T12:50:33.000Z</time>
      </trkpt>
      <trkpt lat="45.85111" lon="5.45135">
        <ele>546</ele>
        <time>2021-02-20T12:50:34.000Z</time>
      </trkpt>
      <trkpt lat="45.85112" lon="5.45138">
        <ele>546.4</ele>
        <time>2021-02-20T12:50:35.000Z</time>
      </trkpt>
      <trkpt lat="45.85113" lon="5.45141">
        <ele>546.8</ele>
        <time>2021-02-20T12:50:36.000Z</time>
      </trkpt>
      <trkpt lat="45.85114" lon="5.45144">
        <ele>547</ele>
        <time>2021-02-20T12:50:37.000Z</time>
      </trkpt>
      <trkpt lat="45.85114" lon="5.45147">
        <ele>547</ele>
        <time>2021-02-20T12:50:38.000Z</time>
      </trkpt>
      <trkpt lat="45.85115" lon="5.45149">
        <ele>547.2</ele>
        <time>2021-02-20T12:50:39.000Z</time>
      </trkpt>
      <trkpt lat="45.85116" lon="5.45152">
        <ele>547.4</ele>
        <time>2021-02-20T12:50:40.000Z</time>
      </trkpt>
      <trkpt lat="45.85117" lon="5.45154">
        <ele>547.4</ele>
        <time>2021-02-20T12:50:41.000Z</time>
      </trkpt>
      <trkpt lat="45.85118" lon="5.45156">
        <ele>547.8</ele>
        <time>2021-02-20T12:50:42.000Z</time>
      </trkpt>
      <trkpt lat="45.85119" lon="5.45159">
        <ele>547.8</ele>
        <time>2021-02-20T12:50:43.000Z</time>
      </trkpt>
      <trkpt lat="45.85119" lon="5.45162">
        <ele>547.8</ele>
        <time>2021-02-20T12:50:44.000Z</time>
      </trkpt>
      <trkpt lat="45.8512" lon="5.45165">
        <ele>548</ele>
        <time>2021-02-20T12:50:45.000Z</time>
      </trkpt>
      <trkpt lat="45.8512" lon="5.45168">
        <ele>548.2</ele>
        <time>2021-02-20T12:50:46.000Z</time>
      </trkpt>
      <trkpt lat="45.8512" lon="5.45171">
        <ele>548.4</ele>
        <time>2021-02-20T12:50:47.000Z</time>
      </trkpt>
      <trkpt lat="45.8512" lon="5.45175">
        <ele>548.8</ele>
        <time>2021-02-20T12:50:48.000Z</time>
      </trkpt>
      <trkpt lat="45.8512" lon="5.45177">
        <ele>548.6</ele>
        <time>2021-02-20T12:50:49.000Z</time>
      </trkpt>
      <trkpt lat="45.85119" lon="5.4518">
        <ele>549.2</ele>
        <time>2021-02-20T12:50:50.000Z</time>
      </trkpt>
      <trkpt lat="45.85119" lon="5.45182">
        <ele>549.4</ele>
        <time>2021-02-20T12:50:51.000Z</time>
      </trkpt>
      <trkpt lat="45.85118" lon="5.45185">
        <ele>549.6</ele>
        <time>2021-02-20T12:50:52.000Z</time>
      </trkpt>
      <trkpt lat="45.85118" lon="5.45186">
        <ele>549.6</ele>
        <time>2021-02-20T12:50:53.000Z</time>
      </trkpt>
      <trkpt lat="45.85117" lon="5.45188">
        <ele>550</ele>
        <time>2021-02-20T12:50:54.000Z</time>
      </trkpt>
      <trkpt lat="45.85116" lon="5.4519">
        <ele>550.4</ele>
        <time>2021-02-20T12:50:55.000Z</time>
      </trkpt>
      <trkpt lat="45.85115" lon="5.45192">
        <ele>550.6</ele>
        <time>2021-02-20T12:50:56.000Z</time>
      </trkpt>
      <trkpt lat="45.85113" lon="5.45195">
        <ele>550.8</ele>
        <time>2021-02-20T12:50:57.000Z</time>
      </trkpt>
      <trkpt lat="45.85112" lon="5.45196">
        <ele>551</ele>
        <time>2021-02-20T12:50:58.000Z</time>
      </trkpt>
      <trkpt lat="45.85111" lon="5.45199">
        <ele>551.2</ele>
        <time>2021-02-20T12:50:59.000Z</time>
      </trkpt>
      <trkpt lat="45.85111" lon="5.45201">
        <ele>551.4</ele>
        <time>2021-02-20T12:51:00.000Z</time>
      </trkpt>
      <trkpt lat="45.8511" lon="5.45204">
        <ele>551.8</ele>
        <time>2021-02-20T12:51:01.000Z</time>
      </trkpt>
      <trkpt lat="45.8511" lon="5.45206">
        <ele>552</ele>
        <time>2021-02-20T12:51:02.000Z</time>
      </trkpt>
      <trkpt lat="45.85109" lon="5.45209">
        <ele>552</ele>
        <time>2021-02-20T12:51:03.000Z</time>
      </trkpt>
      <trkpt lat="45.85109" lon="5.45211">
        <ele>552.2</ele>
        <time>2021-02-20T12:51:04.000Z</time>
      </trkpt>
      <trkpt lat="45.85108" lon="5.45213">
        <ele>552.4</ele>
        <time>2021-02-20T12:51:05.000Z</time>
      </trkpt>
      <trkpt lat="45.85108" lon="5.45216">
        <ele>552.6</ele>
        <time>2021-02-20T12:51:06.000Z</time>
      </trkpt>
      <trkpt lat="45.85108" lon="5.45219">
        <ele>552.8</ele>
        <time>2021-02-20T12:51:07.000Z</time>
      </trkpt>
      <trkpt lat="45.85108" lon="5.45221">
        <ele>552.8</ele>
        <time>2021-02-20T12:51:08.000Z</time>
      </trkpt>
      <trkpt lat="45.85108" lon="5.45224">
        <ele>553</ele>
        <time>2021-02-20T12:51:09.000Z</time>
      </trkpt>
      <trkpt lat="45.85108" lon="5.45226">
        <ele>553</ele>
        <time>2021-02-20T12:51:10.000Z</time>
      </trkpt>
      <trkpt lat="45.85108" lon="5.45229">
        <ele>553.2</ele>
        <time>2021-02-20T12:51:11.000Z</time>
      </trkpt>
      <trkpt lat="45.85108" lon="5.45231">
        <ele>553.4</ele>
        <time>2021-02-20T12:51:12.000Z</time>
      </trkpt>
      <trkpt lat="45.85108" lon="5.45234">
        <ele>553.4</ele>
        <time>2021-02-20T12:51:13.000Z</time>
      </trkpt>
      <trkpt lat="45.85108" lon="5.45237">
        <ele>553.6</ele>
        <time>2021-02-20T12:51:14.000Z</time>
      </trkpt>
      <trkpt lat="45.85108" lon="5.45239">
        <ele>554</ele>
        <time>2021-02-20T12:51:15.000Z</time>
      </trkpt>
      <trkpt lat="45.85109" lon="5.45241">
        <ele>554.2</ele>
        <time>2021-02-20T12:51:16.000Z</time>
      </trkpt>
      <trkpt lat="45.85109" lon="5.45244">
        <ele>554.2</ele>
        <time>2021-02-20T12:51:17.000Z</time>
      </trkpt>
      <trkpt lat="45.8511" lon="5.45246">
        <ele>554.4</ele>
        <time>2021-02-20T12:51:18.000Z</time>
      </trkpt>
      <trkpt lat="45.85109" lon="5.45249">
        <ele>554.6</ele>
        <time>2021-02-20T12:51:19.000Z</time>
      </trkpt>
      <trkpt lat="45.8511" lon="5.45252">
        <ele>554.6</ele>
        <time>2021-02-20T12:51:20.000Z</time>
      </trkpt>
      <trkpt lat="45.85111" lon="5.45254">
        <ele>554.8</ele>
        <time>2021-02-20T12:51:21.000Z</time>
      </trkpt>
      <trkpt lat="45.85111" lon="5.45257">
        <ele>555</ele>
        <time>2021-02-20T12:51:22.000Z</time>
      </trkpt>
      <trkpt lat="45.85112" lon="5.4526">
        <ele>555.2</ele>
        <time>2021-02-20T12:51:23.000Z</time>
      </trkpt>
      <trkpt lat="45.85114" lon="5.45263">
        <ele>555.4</ele>
        <time>2021-02-20T12:51:24.000Z</time>
      </trkpt>
      <trkpt lat="45.85115" lon="5.45266">
        <ele>555.4</ele>
        <time>2021-02-20T12:51:25.000Z</time>
      </trkpt>
      <trkpt lat="45.85115" lon="5.45269">
        <ele>555.4</ele>
        <time>2021-02-20T12:51:26.000Z</time>
      </trkpt>
      <trkpt lat="45.85115" lon="5.45271">
        <ele>555.4</ele>
        <time>2021-02-20T12:51:27.000Z</time>
      </trkpt>
      <trkpt lat="45.85115" lon="5.45274">
        <ele>555.6</ele>
        <time>2021-02-20T12:51:28.000Z</time>
      </trkpt>
      <trkpt lat="45.85115" lon="5.45277">
        <ele>556</ele>
        <time>2021-02-20T12:51:29.000Z</time>
      </trkpt>
      <trkpt lat="45.85116" lon="5.45279">
        <ele>556.2</ele>
        <time>2021-02-20T12:51:30.000Z</time>
      </trkpt>
      <trkpt lat="45.85117" lon="5.45282">
        <ele>556.4</ele>
        <time>2021-02-20T12:51:31.000Z</time>
      </trkpt>
      <trkpt lat="45.85118" lon="5.45284">
        <ele>556.6</ele>
        <time>2021-02-20T12:51:32.000Z</time>
      </trkpt>
      <trkpt lat="45.85119" lon="5.45286">
        <ele>556.6</ele>
        <time>2021-02-20T12:51:33.000Z</time>
      </trkpt>
      <trkpt lat="45.85119" lon="5.45288">
        <ele>556.8</ele>
        <time>2021-02-20T12:51:34.000Z</time>
      </trkpt>
      <trkpt lat="45.8512" lon="5.4529">
        <ele>556.8</ele>
        <time>2021-02-20T12:51:35.000Z</time>
      </trkpt>
      <trkpt lat="45.85121" lon="5.45292">
        <ele>557</ele>
        <time>2021-02-20T12:51:36.000Z</time>
      </trkpt>
      <trkpt lat="45.85122" lon="5.45294">
        <ele>557.2</ele>
        <time>2021-02-20T12:51:37.000Z</time>
      </trkpt>
      <trkpt lat="45.85122" lon="5.45295">
        <ele>557.6</ele>
        <time>2021-02-20T12:51:38.000Z</time>
      </trkpt>
      <trkpt lat="45.85123" lon="5.45297">
        <ele>557.6</ele>
        <time>2021-02-20T12:51:39.000Z</time>
      </trkpt>
      <trkpt lat="45.85123" lon="5.45298">
        <ele>557.6</ele>
        <time>2021-02-20T12:51:40.000Z</time>
      </trkpt>
      <trkpt lat="45.85123" lon="5.45299">
        <ele>557.8</ele>
        <time>2021-02-20T12:51:41.000Z</time>
      </trkpt>
      <trkpt lat="45.85124" lon="5.453">
        <ele>558</ele>
        <time>2021-02-20T12:51:42.000Z</time>
      </trkpt>
      <trkpt lat="45.85125" lon="5.45301">
        <ele>558.2</ele>
        <time>2021-02-20T12:51:43.000Z</time>
      </trkpt>
      <trkpt lat="45.85126" lon="5.45302">
        <ele>558.6</ele>
        <time>2021-02-20T12:51:44.000Z</time>
      </trkpt>
      <trkpt lat="45.85127" lon="5.45303">
        <ele>559</ele>
        <time>2021-02-20T12:51:45.000Z</time>
      </trkpt>
      <trkpt lat="45.85129" lon="5.45304">
        <ele>559</ele>
        <time>2021-02-20T12:51:46.000Z</time>
      </trkpt>
      <trkpt lat="45.85131" lon="5.45305">
        <ele>559.2</ele>
        <time>2021-02-20T12:51:47.000Z</time>
      </trkpt>
      <trkpt lat="45.85133" lon="5.45306">
        <ele>559.6</ele>
        <time>2021-02-20T12:51:48.000Z</time>
      </trkpt>
      <trkpt lat="45.85134" lon="5.45307">
        <ele>559.8</ele>
        <time>2021-02-20T12:51:49.000Z</time>
      </trkpt>
      <trkpt lat="45.85136" lon="5.45307">
        <ele>560</ele>
        <time>2021-02-20T12:51:50.000Z</time>
      </trkpt>
      <trkpt lat="45.85138" lon="5.45307">
        <ele>559.8</ele>
        <time>2021-02-20T12:51:51.000Z</time>
      </trkpt>
      <trkpt lat="45.8514" lon="5.45308">
        <ele>560.2</ele>
        <time>2021-02-20T12:51:52.000Z</time>
      </trkpt>
      <trkpt lat="45.85142" lon="5.45308">
        <ele>560.2</ele>
        <time>2021-02-20T12:51:53.000Z</time>
      </trkpt>
      <trkpt lat="45.85144" lon="5.45309">
        <ele>560.2</ele>
        <time>2021-02-20T12:51:54.000Z</time>
      </trkpt>
      <trkpt lat="45.85145" lon="5.4531">
        <ele>560.2</ele>
        <time>2021-02-20T12:51:55.000Z</time>
      </trkpt>
      <trkpt lat="45.85147" lon="5.4531">
        <ele>560.6</ele>
        <time>2021-02-20T12:51:56.000Z</time>
      </trkpt>
      <trkpt lat="45.85148" lon="5.4531">
        <ele>561</ele>
        <time>2021-02-20T12:51:57.000Z</time>
      </trkpt>
      <trkpt lat="45.8515" lon="5.45311">
        <ele>561</ele>
        <time>2021-02-20T12:51:58.000Z</time>
      </trkpt>
      <trkpt lat="45.85153" lon="5.45312">
        <ele>561.4</ele>
        <time>2021-02-20T12:51:59.000Z</time>
      </trkpt>
      <trkpt lat="45.85154" lon="5.45313">
        <ele>561.4</ele>
        <time>2021-02-20T12:52:00.000Z</time>
      </trkpt>
      <trkpt lat="45.85157" lon="5.45315">
        <ele>561.8</ele>
        <time>2021-02-20T12:52:01.000Z</time>
      </trkpt>
      <trkpt lat="45.85159" lon="5.45316">
        <ele>562</ele>
        <time>2021-02-20T12:52:02.000Z</time>
      </trkpt>
      <trkpt lat="45.85161" lon="5.45318">
        <ele>562</ele>
        <time>2021-02-20T12:52:03.000Z</time>
      </trkpt>
      <trkpt lat="45.85163" lon="5.4532">
        <ele>562.2</ele>
        <time>2021-02-20T12:52:04.000Z</time>
      </trkpt>
      <trkpt lat="45.85165" lon="5.45322">
        <ele>562.6</ele>
        <time>2021-02-20T12:52:05.000Z</time>
      </trkpt>
      <trkpt lat="45.85167" lon="5.45323">
        <ele>562.8</ele>
        <time>2021-02-20T12:52:06.000Z</time>
      </trkpt>
      <trkpt lat="45.85169" lon="5.45324">
        <ele>563</ele>
        <time>2021-02-20T12:52:07.000Z</time>
      </trkpt>
      <trkpt lat="45.85171" lon="5.45324">
        <ele>563.2</ele>
        <time>2021-02-20T12:52:08.000Z</time>
      </trkpt>
      <trkpt lat="45.85174" lon="5.45326">
        <ele>563.4</ele>
        <time>2021-02-20T12:52:09.000Z</time>
      </trkpt>
      <trkpt lat="45.85176" lon="5.45327">
        <ele>563.6</ele>
        <time>2021-02-20T12:52:10.000Z</time>
      </trkpt>
      <trkpt lat="45.85179" lon="5.45327">
        <ele>563.8</ele>
        <time>2021-02-20T12:52:11.000Z</time>
      </trkpt>
      <trkpt lat="45.85181" lon="5.45328">
        <ele>564</ele>
        <time>2021-02-20T12:52:12.000Z</time>
      </trkpt>
      <trkpt lat="45.85183" lon="5.45328">
        <ele>564</ele>
        <time>2021-02-20T12:52:13.000Z</time>
      </trkpt>
      <trkpt lat="45.85184" lon="5.45328">
        <ele>564.2</ele>
        <time>2021-02-20T12:52:14.000Z</time>
      </trkpt>
      <trkpt lat="45.85186" lon="5.45329">
        <ele>564.2</ele>
        <time>2021-02-20T12:52:15.000Z</time>
      </trkpt>
      <trkpt lat="45.85189" lon="5.45331">
        <ele>564.4</ele>
        <time>2021-02-20T12:52:16.000Z</time>
      </trkpt>
      <trkpt lat="45.85191" lon="5.45332">
        <ele>564.8</ele>
        <time>2021-02-20T12:52:17.000Z</time>
      </trkpt>
      <trkpt lat="45.85192" lon="5.45333">
        <ele>564.8</ele>
        <time>2021-02-20T12:52:18.000Z</time>
      </trkpt>
      <trkpt lat="45.85194" lon="5.45334">
        <ele>565.2</ele>
        <time>2021-02-20T12:52:19.000Z</time>
      </trkpt>
      <trkpt lat="45.85197" lon="5.45335">
        <ele>565.4</ele>
        <time>2021-02-20T12:52:20.000Z</time>
      </trkpt>
      <trkpt lat="45.85199" lon="5.45336">
        <ele>565.6</ele>
        <time>2021-02-20T12:52:21.000Z</time>
      </trkpt>
      <trkpt lat="45.852" lon="5.45338">
        <ele>565.8</ele>
        <time>2021-02-20T12:52:22.000Z</time>
      </trkpt>
      <trkpt lat="45.85203" lon="5.4534">
        <ele>566</ele>
        <time>2021-02-20T12:52:23.000Z</time>
      </trkpt>
      <trkpt lat="45.85204" lon="5.45341">
        <ele>566</ele>
        <time>2021-02-20T12:52:24.000Z</time>
      </trkpt>
      <trkpt lat="45.85206" lon="5.45343">
        <ele>566.2</ele>
        <time>2021-02-20T12:52:25.000Z</time>
      </trkpt>
      <trkpt lat="45.85208" lon="5.45344">
        <ele>566.4</ele>
        <time>2021-02-20T12:52:26.000Z</time>
      </trkpt>
      <trkpt lat="45.85209" lon="5.45346">
        <ele>566.8</ele>
        <time>2021-02-20T12:52:27.000Z</time>
      </trkpt>
      <trkpt lat="45.85211" lon="5.45348">
        <ele>567.2</ele>
        <time>2021-02-20T12:52:28.000Z</time>
      </trkpt>
      <trkpt lat="45.85213" lon="5.45348">
        <ele>567.2</ele>
        <time>2021-02-20T12:52:29.000Z</time>
      </trkpt>
      <trkpt lat="45.85216" lon="5.45349">
        <ele>567.2</ele>
        <time>2021-02-20T12:52:30.000Z</time>
      </trkpt>
      <trkpt lat="45.85218" lon="5.4535">
        <ele>567.2</ele>
        <time>2021-02-20T12:52:31.000Z</time>
      </trkpt>
      <trkpt lat="45.8522" lon="5.45352">
        <ele>567.2</ele>
        <time>2021-02-20T12:52:32.000Z</time>
      </trkpt>
      <trkpt lat="45.85221" lon="5.45355">
        <ele>567.4</ele>
        <time>2021-02-20T12:52:33.000Z</time>
      </trkpt>
      <trkpt lat="45.85222" lon="5.45357">
        <ele>567.6</ele>
        <time>2021-02-20T12:52:34.000Z</time>
      </trkpt>
      <trkpt lat="45.85223" lon="5.4536">
        <ele>568.2</ele>
        <time>2021-02-20T12:52:35.000Z</time>
      </trkpt>
      <trkpt lat="45.85223" lon="5.45364">
        <ele>568.4</ele>
        <time>2021-02-20T12:52:36.000Z</time>
      </trkpt>
      <trkpt lat="45.85224" lon="5.45367">
        <ele>568.6</ele>
        <time>2021-02-20T12:52:37.000Z</time>
      </trkpt>
      <trkpt lat="45.85224" lon="5.4537">
        <ele>568.8</ele>
        <time>2021-02-20T12:52:38.000Z</time>
      </trkpt>
      <trkpt lat="45.85223" lon="5.45373">
        <ele>568.8</ele>
        <time>2021-02-20T12:52:39.000Z</time>
      </trkpt>
      <trkpt lat="45.85222" lon="5.45375">
        <ele>569.2</ele>
        <time>2021-02-20T12:52:40.000Z</time>
      </trkpt>
      <trkpt lat="45.85221" lon="5.45377">
        <ele>569.4</ele>
        <time>2021-02-20T12:52:41.000Z</time>
      </trkpt>
      <trkpt lat="45.85219" lon="5.45379">
        <ele>569.4</ele>
        <time>2021-02-20T12:52:42.000Z</time>
      </trkpt>
      <trkpt lat="45.85218" lon="5.4538">
        <ele>569.6</ele>
        <time>2021-02-20T12:52:43.000Z</time>
      </trkpt>
      <trkpt lat="45.85217" lon="5.45381">
        <ele>569.8</ele>
        <time>2021-02-20T12:52:44.000Z</time>
      </trkpt>
      <trkpt lat="45.85216" lon="5.45382">
        <ele>570.4</ele>
        <time>2021-02-20T12:52:45.000Z</time>
      </trkpt>
      <trkpt lat="45.85215" lon="5.45384">
        <ele>570.6</ele>
        <time>2021-02-20T12:52:46.000Z</time>
      </trkpt>
      <trkpt lat="45.85214" lon="5.45386">
        <ele>570.6</ele>
        <time>2021-02-20T12:52:47.000Z</time>
      </trkpt>
      <trkpt lat="45.85214" lon="5.45388">
        <ele>570.6</ele>
        <time>2021-02-20T12:52:48.000Z</time>
      </trkpt>
      <trkpt lat="45.85213" lon="5.45389">
        <ele>570.8</ele>
        <time>2021-02-20T12:52:49.000Z</time>
      </trkpt>
      <trkpt lat="45.85212" lon="5.45391">
        <ele>570.8</ele>
        <time>2021-02-20T12:52:50.000Z</time>
      </trkpt>
      <trkpt lat="45.8521" lon="5.45394">
        <ele>571.4</ele>
        <time>2021-02-20T12:52:51.000Z</time>
      </trkpt>
      <trkpt lat="45.85209" lon="5.45396">
        <ele>571.4</ele>
        <time>2021-02-20T12:52:52.000Z</time>
      </trkpt>
      <trkpt lat="45.85208" lon="5.45398">
        <ele>571.6</ele>
        <time>2021-02-20T12:52:53.000Z</time>
      </trkpt>
      <trkpt lat="45.85206" lon="5.454">
        <ele>571.8</ele>
        <time>2021-02-20T12:52:54.000Z</time>
      </trkpt>
      <trkpt lat="45.85205" lon="5.45402">
        <ele>571.8</ele>
        <time>2021-02-20T12:52:55.000Z</time>
      </trkpt>
      <trkpt lat="45.85203" lon="5.45404">
        <ele>572</ele>
        <time>2021-02-20T12:52:56.000Z</time>
      </trkpt>
      <trkpt lat="45.85202" lon="5.45405">
        <ele>572.4</ele>
        <time>2021-02-20T12:52:57.000Z</time>
      </trkpt>
      <trkpt lat="45.852" lon="5.45407">
        <ele>572.6</ele>
        <time>2021-02-20T12:52:58.000Z</time>
      </trkpt>
      <trkpt lat="45.85199" lon="5.45408">
        <ele>573</ele>
        <time>2021-02-20T12:52:59.000Z</time>
      </trkpt>
      <trkpt lat="45.85197" lon="5.45409">
        <ele>573.2</ele>
        <time>2021-02-20T12:53:00.000Z</time>
      </trkpt>
      <trkpt lat="45.85195" lon="5.4541">
        <ele>573.4</ele>
        <time>2021-02-20T12:53:01.000Z</time>
      </trkpt>
      <trkpt lat="45.85194" lon="5.45412">
        <ele>573.4</ele>
        <time>2021-02-20T12:53:02.000Z</time>
      </trkpt>
      <trkpt lat="45.85192" lon="5.45413">
        <ele>573.8</ele>
        <time>2021-02-20T12:53:03.000Z</time>
      </trkpt>
      <trkpt lat="45.85191" lon="5.45415">
        <ele>574</ele>
        <time>2021-02-20T12:53:04.000Z</time>
      </trkpt>
      <trkpt lat="45.8519" lon="5.45417">
        <ele>574</ele>
        <time>2021-02-20T12:53:05.000Z</time>
      </trkpt>
      <trkpt lat="45.8519" lon="5.45419">
        <ele>574.2</ele>
        <time>2021-02-20T12:53:06.000Z</time>
      </trkpt>
      <trkpt lat="45.85189" lon="5.45421">
        <ele>574.4</ele>
        <time>2021-02-20T12:53:07.000Z</time>
      </trkpt>
      <trkpt lat="45.85188" lon="5.45423">
        <ele>574.6</ele>
        <time>2021-02-20T12:53:08.000Z</time>
      </trkpt>
      <trkpt lat="45.85187" lon="5.45426">
        <ele>575</ele>
        <time>2021-02-20T12:53:09.000Z</time>
      </trkpt>
      <trkpt lat="45.85186" lon="5.45429">
        <ele>575</ele>
        <time>2021-02-20T12:53:10.000Z</time>
      </trkpt>
      <trkpt lat="45.85184" lon="5.45432">
        <ele>575</ele>
        <time>2021-02-20T12:53:11.000Z</time>
      </trkpt>
      <trkpt lat="45.85183" lon="5.45434">
        <ele>575.2</ele>
        <time>2021-02-20T12:53:12.000Z</time>
      </trkpt>
      <trkpt lat="45.85181" lon="5.45437">
        <ele>575.4</ele>
        <time>2021-02-20T12:53:13.000Z</time>
      </trkpt>
      <trkpt lat="45.85179" lon="5.45439">
        <ele>575.6</ele>
        <time>2021-02-20T12:53:14.000Z</time>
      </trkpt>
      <trkpt lat="45.85177" lon="5.45441">
        <ele>576</ele>
        <time>2021-02-20T12:53:15.000Z</time>
      </trkpt>
      <trkpt lat="45.85175" lon="5.45443">
        <ele>576.6</ele>
        <time>2021-02-20T12:53:16.000Z</time>
      </trkpt>
      <trkpt lat="45.85173" lon="5.45444">
        <ele>576.8</ele>
        <time>2021-02-20T12:53:17.000Z</time>
      </trkpt>
      <trkpt lat="45.85171" lon="5.45445">
        <ele>577</ele>
        <time>2021-02-20T12:53:18.000Z</time>
      </trkpt>
      <trkpt lat="45.85169" lon="5.45447">
        <ele>577.2</ele>
        <time>2021-02-20T12:53:19.000Z</time>
      </trkpt>
      <trkpt lat="45.85167" lon="5.45448">
        <ele>577.2</ele>
        <time>2021-02-20T12:53:20.000Z</time>
      </trkpt>
      <trkpt lat="45.85166" lon="5.45449">
        <ele>577.4</ele>
        <time>2021-02-20T12:53:21.000Z</time>
      </trkpt>
      <trkpt lat="45.85164" lon="5.45449">
        <ele>577.2</ele>
        <time>2021-02-20T12:53:22.000Z</time>
      </trkpt>
      <trkpt lat="45.85162" lon="5.4545">
        <ele>577.4</ele>
        <time>2021-02-20T12:53:23.000Z</time>
      </trkpt>
      <trkpt lat="45.85161" lon="5.45451">
        <ele>577.6</ele>
        <time>2021-02-20T12:53:24.000Z</time>
      </trkpt>
      <trkpt lat="45.85159" lon="5.45452">
        <ele>577.8</ele>
        <time>2021-02-20T12:53:25.000Z</time>
      </trkpt>
      <trkpt lat="45.85157" lon="5.45452">
        <ele>578</ele>
        <time>2021-02-20T12:53:26.000Z</time>
      </trkpt>
      <trkpt lat="45.85155" lon="5.45452">
        <ele>577.8</ele>
        <time>2021-02-20T12:53:27.000Z</time>
      </trkpt>
      <trkpt lat="45.85153" lon="5.45453">
        <ele>578.4</ele>
        <time>2021-02-20T12:53:28.000Z</time>
      </trkpt>
      <trkpt lat="45.8515" lon="5.45453">
        <ele>578.6</ele>
        <time>2021-02-20T12:53:29.000Z</time>
      </trkpt>
      <trkpt lat="45.85148" lon="5.45452">
        <ele>578.8</ele>
        <time>2021-02-20T12:53:30.000Z</time>
      </trkpt>
      <trkpt lat="45.85145" lon="5.45452">
        <ele>578.8</ele>
        <time>2021-02-20T12:53:31.000Z</time>
      </trkpt>
      <trkpt lat="45.85143" lon="5.45452">
        <ele>578.8</ele>
        <time>2021-02-20T12:53:32.000Z</time>
      </trkpt>
      <trkpt lat="45.85141" lon="5.45452">
        <ele>579</ele>
        <time>2021-02-20T12:53:33.000Z</time>
      </trkpt>
      <trkpt lat="45.85139" lon="5.45452">
        <ele>579.4</ele>
        <time>2021-02-20T12:53:34.000Z</time>
      </trkpt>
      <trkpt lat="45.85138" lon="5.45452">
        <ele>579.8</ele>
        <time>2021-02-20T12:53:35.000Z</time>
      </trkpt>
      <trkpt lat="45.85136" lon="5.45452">
        <ele>580</ele>
        <time>2021-02-20T12:53:36.000Z</time>
      </trkpt>
      <trkpt lat="45.85135" lon="5.45453">
        <ele>580</ele>
        <time>2021-02-20T12:53:37.000Z</time>
      </trkpt>
      <trkpt lat="45.85133" lon="5.45453">
        <ele>580.2</ele>
        <time>2021-02-20T12:53:38.000Z</time>
      </trkpt>
      <trkpt lat="45.85132" lon="5.45454">
        <ele>580.2</ele>
        <time>2021-02-20T12:53:39.000Z</time>
      </trkpt>
      <trkpt lat="45.8513" lon="5.45455">
        <ele>580.4</ele>
        <time>2021-02-20T12:53:40.000Z</time>
      </trkpt>
      <trkpt lat="45.85129" lon="5.45456">
        <ele>580.8</ele>
        <time>2021-02-20T12:53:41.000Z</time>
      </trkpt>
      <trkpt lat="45.85128" lon="5.45457">
        <ele>581</ele>
        <time>2021-02-20T12:53:42.000Z</time>
      </trkpt>
      <trkpt lat="45.85127" lon="5.45459">
        <ele>581.2</ele>
        <time>2021-02-20T12:53:43.000Z</time>
      </trkpt>
      <trkpt lat="45.85126" lon="5.4546">
        <ele>581.4</ele>
        <time>2021-02-20T12:53:44.000Z</time>
      </trkpt>
      <trkpt lat="45.85124" lon="5.45462">
        <ele>581.4</ele>
        <time>2021-02-20T12:53:45.000Z</time>
      </trkpt>
      <trkpt lat="45.85123" lon="5.45463">
        <ele>581.6</ele>
        <time>2021-02-20T12:53:46.000Z</time>
      </trkpt>
      <trkpt lat="45.85121" lon="5.45465">
        <ele>582</ele>
        <time>2021-02-20T12:53:47.000Z</time>
      </trkpt>
      <trkpt lat="45.85119" lon="5.45466">
        <ele>582.2</ele>
        <time>2021-02-20T12:53:48.000Z</time>
      </trkpt>
      <trkpt lat="45.85117" lon="5.45467">
        <ele>582.4</ele>
        <time>2021-02-20T12:53:49.000Z</time>
      </trkpt>
      <trkpt lat="45.85115" lon="5.45468">
        <ele>582.6</ele>
        <time>2021-02-20T12:53:50.000Z</time>
      </trkpt>
      <trkpt lat="45.85113" lon="5.45469">
        <ele>582.6</ele>
        <time>2021-02-20T12:53:51.000Z</time>
      </trkpt>
      <trkpt lat="45.85111" lon="5.45471">
        <ele>582.6</ele>
        <time>2021-02-20T12:53:52.000Z</time>
      </trkpt>
      <trkpt lat="45.85109" lon="5.45472">
        <ele>583</ele>
        <time>2021-02-20T12:53:53.000Z</time>
      </trkpt>
      <trkpt lat="45.85108" lon="5.45473">
        <ele>583.2</ele>
        <time>2021-02-20T12:53:54.000Z</time>
      </trkpt>
      <trkpt lat="45.85106" lon="5.45475">
        <ele>583.4</ele>
        <time>2021-02-20T12:53:55.000Z</time>
      </trkpt>
      <trkpt lat="45.85105" lon="5.45476">
        <ele>583.8</ele>
        <time>2021-02-20T12:53:56.000Z</time>
      </trkpt>
      <trkpt lat="45.85103" lon="5.45477">
        <ele>583.8</ele>
        <time>2021-02-20T12:53:57.000Z</time>
      </trkpt>
      <trkpt lat="45.85102" lon="5.45478">
        <ele>584</ele>
        <time>2021-02-20T12:53:58.000Z</time>
      </trkpt>
      <trkpt lat="45.85101" lon="5.4548">
        <ele>584.2</ele>
        <time>2021-02-20T12:53:59.000Z</time>
      </trkpt>
      <trkpt lat="45.851" lon="5.4548">
        <ele>584.2</ele>
        <time>2021-02-20T12:54:00.000Z</time>
      </trkpt>
      <trkpt lat="45.85099" lon="5.45481">
        <ele>584.6</ele>
        <time>2021-02-20T12:54:01.000Z</time>
      </trkpt>
      <trkpt lat="45.85098" lon="5.45483">
        <ele>584.6</ele>
        <time>2021-02-20T12:54:02.000Z</time>
      </trkpt>
      <trkpt lat="45.85097" lon="5.45484">
        <ele>584.8</ele>
        <time>2021-02-20T12:54:03.000Z</time>
      </trkpt>
      <trkpt lat="45.85096" lon="5.45486">
        <ele>585</ele>
        <time>2021-02-20T12:54:04.000Z</time>
      </trkpt>
      <trkpt lat="45.85095" lon="5.45487">
        <ele>585</ele>
        <time>2021-02-20T12:54:05.000Z</time>
      </trkpt>
      <trkpt lat="45.85094" lon="5.45489">
        <ele>585.2</ele>
        <time>2021-02-20T12:54:06.000Z</time>
      </trkpt>
      <trkpt lat="45.85093" lon="5.4549">
        <ele>585.6</ele>
        <time>2021-02-20T12:54:07.000Z</time>
      </trkpt>
      <trkpt lat="45.85092" lon="5.45492">
        <ele>585.6</ele>
        <time>2021-02-20T12:54:08.000Z</time>
      </trkpt>
      <trkpt lat="45.85091" lon="5.45493">
        <ele>585.8</ele>
        <time>2021-02-20T12:54:09.000Z</time>
      </trkpt>
      <trkpt lat="45.8509" lon="5.45495">
        <ele>585.8</ele>
        <time>2021-02-20T12:54:10.000Z</time>
      </trkpt>
      <trkpt lat="45.85089" lon="5.45497">
        <ele>586</ele>
        <time>2021-02-20T12:54:11.000Z</time>
      </trkpt>
      <trkpt lat="45.85089" lon="5.45499">
        <ele>586.2</ele>
        <time>2021-02-20T12:54:12.000Z</time>
      </trkpt>
      <trkpt lat="45.85088" lon="5.455">
        <ele>586.4</ele>
        <time>2021-02-20T12:54:13.000Z</time>
      </trkpt>
      <trkpt lat="45.85087" lon="5.45502">
        <ele>586.6</ele>
        <time>2021-02-20T12:54:14.000Z</time>
      </trkpt>
      <trkpt lat="45.85086" lon="5.45504">
        <ele>586.8</ele>
        <time>2021-02-20T12:54:15.000Z</time>
      </trkpt>
      <trkpt lat="45.85085" lon="5.45506">
        <ele>586.8</ele>
        <time>2021-02-20T12:54:16.000Z</time>
      </trkpt>
      <trkpt lat="45.85084" lon="5.45508">
        <ele>587</ele>
        <time>2021-02-20T12:54:17.000Z</time>
      </trkpt>
      <trkpt lat="45.85083" lon="5.4551">
        <ele>587.2</ele>
        <time>2021-02-20T12:54:18.000Z</time>
      </trkpt>
      <trkpt lat="45.85081" lon="5.45512">
        <ele>587.8</ele>
        <time>2021-02-20T12:54:19.000Z</time>
      </trkpt>
      <trkpt lat="45.8508" lon="5.45514">
        <ele>587.8</ele>
        <time>2021-02-20T12:54:20.000Z</time>
      </trkpt>
      <trkpt lat="45.85078" lon="5.45516">
        <ele>588.2</ele>
        <time>2021-02-20T12:54:21.000Z</time>
      </trkpt>
      <trkpt lat="45.85076" lon="5.45517">
        <ele>588.6</ele>
        <time>2021-02-20T12:54:22.000Z</time>
      </trkpt>
      <trkpt lat="45.85074" lon="5.45519">
        <ele>588.6</ele>
        <time>2021-02-20T12:54:23.000Z</time>
      </trkpt>
      <trkpt lat="45.85072" lon="5.45521">
        <ele>588.8</ele>
        <time>2021-02-20T12:54:24.000Z</time>
      </trkpt>
      <trkpt lat="45.8507" lon="5.45522">
        <ele>589</ele>
        <time>2021-02-20T12:54:25.000Z</time>
      </trkpt>
      <trkpt lat="45.85069" lon="5.45523">
        <ele>589.2</ele>
        <time>2021-02-20T12:54:26.000Z</time>
      </trkpt>
      <trkpt lat="45.85067" lon="5.45525">
        <ele>589.4</ele>
        <time>2021-02-20T12:54:27.000Z</time>
      </trkpt>
      <trkpt lat="45.85065" lon="5.45526">
        <ele>589.6</ele>
        <time>2021-02-20T12:54:28.000Z</time>
      </trkpt>
      <trkpt lat="45.85063" lon="5.45526">
        <ele>589.8</ele>
        <time>2021-02-20T12:54:29.000Z</time>
      </trkpt>
      <trkpt lat="45.85061" lon="5.45527">
        <ele>590</ele>
        <time>2021-02-20T12:54:30.000Z</time>
      </trkpt>
      <trkpt lat="45.8506" lon="5.45528">
        <ele>590</ele>
        <time>2021-02-20T12:54:31.000Z</time>
      </trkpt>
      <trkpt lat="45.85059" lon="5.45528">
        <ele>590</ele>
        <time>2021-02-20T12:54:33.000Z</time>
      </trkpt>
      <trkpt lat="45.85057" lon="5.45528">
        <ele>590.2</ele>
        <time>2021-02-20T12:54:34.000Z</time>
      </trkpt>
      <trkpt lat="45.85056" lon="5.45528">
        <ele>590.8</ele>
        <time>2021-02-20T12:54:35.000Z</time>
      </trkpt>
      <trkpt lat="45.85055" lon="5.45529">
        <ele>591.2</ele>
        <time>2021-02-20T12:54:36.000Z</time>
      </trkpt>
      <trkpt lat="45.85055" lon="5.4553">
        <ele>591.4</ele>
        <time>2021-02-20T12:54:37.000Z</time>
      </trkpt>
      <trkpt lat="45.85054" lon="5.45531">
        <ele>591.6</ele>
        <time>2021-02-20T12:54:38.000Z</time>
      </trkpt>
      <trkpt lat="45.85053" lon="5.45532">
        <ele>591.8</ele>
        <time>2021-02-20T12:54:39.000Z</time>
      </trkpt>
      <trkpt lat="45.85052" lon="5.45533">
        <ele>592</ele>
        <time>2021-02-20T12:54:40.000Z</time>
      </trkpt>
      <trkpt lat="45.85051" lon="5.45534">
        <ele>592.2</ele>
        <time>2021-02-20T12:54:41.000Z</time>
      </trkpt>
      <trkpt lat="45.8505" lon="5.45535">
        <ele>592.4</ele>
        <time>2021-02-20T12:54:42.000Z</time>
      </trkpt>
      <trkpt lat="45.85049" lon="5.45535">
        <ele>592.6</ele>
        <time>2021-02-20T12:54:43.000Z</time>
      </trkpt>
      <trkpt lat="45.85048" lon="5.45535">
        <ele>592.8</ele>
        <time>2021-02-20T12:54:44.000Z</time>
      </trkpt>
      <trkpt lat="45.85047" lon="5.45535">
        <ele>592.6</ele>
        <time>2021-02-20T12:54:45.000Z</time>
      </trkpt>
      <trkpt lat="45.85048" lon="5.45536">
        <ele>592.8</ele>
        <time>2021-02-20T12:54:46.000Z</time>
      </trkpt>
      <trkpt lat="45.85057" lon="5.45536">
        <ele>594</ele>
        <time>2021-02-20T12:55:52.000Z</time>
      </trkpt>
      <trkpt lat="45.85057" lon="5.45537">
        <ele>594</ele>
        <time>2021-02-20T12:55:53.000Z</time>
      </trkpt>
      <trkpt lat="45.85056" lon="5.4554">
        <ele>594</ele>
        <time>2021-02-20T12:55:55.000Z</time>
      </trkpt>
      <trkpt lat="45.85056" lon="5.45541">
        <ele>594</ele>
        <time>2021-02-20T12:55:56.000Z</time>
      </trkpt>
      <trkpt lat="45.85056" lon="5.45544">
        <ele>594.2</ele>
        <time>2021-02-20T12:55:58.000Z</time>
      </trkpt>
      <trkpt lat="45.85057" lon="5.45545">
        <ele>594.2</ele>
        <time>2021-02-20T12:55:59.000Z</time>
      </trkpt>
      <trkpt lat="45.85057" lon="5.45546">
        <ele>594.4</ele>
        <time>2021-02-20T12:56:00.000Z</time>
      </trkpt>
      <trkpt lat="45.85057" lon="5.45547">
        <ele>594.4</ele>
        <time>2021-02-20T12:56:01.000Z</time>
      </trkpt>
      <trkpt lat="45.85058" lon="5.45548">
        <ele>594.4</ele>
        <time>2021-02-20T12:56:03.000Z</time>
      </trkpt>
      <trkpt lat="45.85059" lon="5.45549">
        <ele>594.8</ele>
        <time>2021-02-20T12:56:04.000Z</time>
      </trkpt>
      <trkpt lat="45.8506" lon="5.4555">
        <ele>594.8</ele>
        <time>2021-02-20T12:56:05.000Z</time>
      </trkpt>
      <trkpt lat="45.8506" lon="5.45551">
        <ele>595</ele>
        <time>2021-02-20T12:56:06.000Z</time>
      </trkpt>
      <trkpt lat="45.8506" lon="5.45552">
        <ele>595.2</ele>
        <time>2021-02-20T12:56:07.000Z</time>
      </trkpt>
      <trkpt lat="45.85061" lon="5.45552">
        <ele>595.2</ele>
        <time>2021-02-20T12:56:08.000Z</time>
      </trkpt>
      <trkpt lat="45.85062" lon="5.45553">
        <ele>595.4</ele>
        <time>2021-02-20T12:56:09.000Z</time>
      </trkpt>
      <trkpt lat="45.85063" lon="5.45553">
        <ele>596</ele>
        <time>2021-02-20T12:56:11.000Z</time>
      </trkpt>
      <trkpt lat="45.85064" lon="5.45554">
        <ele>596.4</ele>
        <time>2021-02-20T12:56:12.000Z</time>
      </trkpt>
      <trkpt lat="45.85065" lon="5.45555">
        <ele>596.8</ele>
        <time>2021-02-20T12:56:13.000Z</time>
      </trkpt>
      <trkpt lat="45.85066" lon="5.45555">
        <ele>597</ele>
        <time>2021-02-20T12:56:14.000Z</time>
      </trkpt>
      <trkpt lat="45.85067" lon="5.45556">
        <ele>597</ele>
        <time>2021-02-20T12:56:15.000Z</time>
      </trkpt>
      <trkpt lat="45.85068" lon="5.45556">
        <ele>597.4</ele>
        <time>2021-02-20T12:56:16.000Z</time>
      </trkpt>
      <trkpt lat="45.8507" lon="5.45556">
        <ele>597.4</ele>
        <time>2021-02-20T12:56:17.000Z</time>
      </trkpt>
      <trkpt lat="45.85071" lon="5.45556">
        <ele>598</ele>
        <time>2021-02-20T12:56:19.000Z</time>
      </trkpt>
      <trkpt lat="45.85072" lon="5.45556">
        <ele>598</ele>
        <time>2021-02-20T12:56:20.000Z</time>
      </trkpt>
      <trkpt lat="45.85073" lon="5.45556">
        <ele>598.4</ele>
        <time>2021-02-20T12:56:21.000Z</time>
      </trkpt>
      <trkpt lat="45.85074" lon="5.45556">
        <ele>598.4</ele>
        <time>2021-02-20T12:56:22.000Z</time>
      </trkpt>
      <trkpt lat="45.85075" lon="5.45556">
        <ele>598.6</ele>
        <time>2021-02-20T12:56:23.000Z</time>
      </trkpt>
      <trkpt lat="45.85076" lon="5.45557">
        <ele>598.8</ele>
        <time>2021-02-20T12:56:24.000Z</time>
      </trkpt>
      <trkpt lat="45.85077" lon="5.45557">
        <ele>598.8</ele>
        <time>2021-02-20T12:56:25.000Z</time>
      </trkpt>
      <trkpt lat="45.85078" lon="5.45558">
        <ele>599</ele>
        <time>2021-02-20T12:56:26.000Z</time>
      </trkpt>
      <trkpt lat="45.85079" lon="5.45558">
        <ele>599</ele>
        <time>2021-02-20T12:56:27.000Z</time>
      </trkpt>
      <trkpt lat="45.8508" lon="5.45558">
        <ele>599.6</ele>
        <time>2021-02-20T12:56:29.000Z</time>
      </trkpt>
      <trkpt lat="45.85081" lon="5.45557">
        <ele>599.8</ele>
        <time>2021-02-20T12:56:30.000Z</time>
      </trkpt>
      <trkpt lat="45.85082" lon="5.45557">
        <ele>600</ele>
        <time>2021-02-20T12:56:31.000Z</time>
      </trkpt>
      <trkpt lat="45.85083" lon="5.45557">
        <ele>600.2</ele>
        <time>2021-02-20T12:56:32.000Z</time>
      </trkpt>
      <trkpt lat="45.85084" lon="5.45558">
        <ele>600.4</ele>
        <time>2021-02-20T12:56:33.000Z</time>
      </trkpt>
      <trkpt lat="45.85085" lon="5.45558">
        <ele>600.8</ele>
        <time>2021-02-20T12:56:34.000Z</time>
      </trkpt>
      <trkpt lat="45.85085" lon="5.45559">
        <ele>600.8</ele>
        <time>2021-02-20T12:56:35.000Z</time>
      </trkpt>
      <trkpt lat="45.85086" lon="5.45559">
        <ele>601.2</ele>
        <time>2021-02-20T12:56:36.000Z</time>
      </trkpt>
      <trkpt lat="45.85087" lon="5.45559">
        <ele>601.4</ele>
        <time>2021-02-20T12:56:37.000Z</time>
      </trkpt>
      <trkpt lat="45.85087" lon="5.4556">
        <ele>601.4</ele>
        <time>2021-02-20T12:56:38.000Z</time>
      </trkpt>
      <trkpt lat="45.85089" lon="5.45561">
        <ele>601.6</ele>
        <time>2021-02-20T12:56:39.000Z</time>
      </trkpt>
      <trkpt lat="45.8509" lon="5.45562">
        <ele>601.8</ele>
        <time>2021-02-20T12:56:40.000Z</time>
      </trkpt>
      <trkpt lat="45.85091" lon="5.45562">
        <ele>601.8</ele>
        <time>2021-02-20T12:56:41.000Z</time>
      </trkpt>
      <trkpt lat="45.85092" lon="5.45562">
        <ele>602.2</ele>
        <time>2021-02-20T12:56:42.000Z</time>
      </trkpt>
      <trkpt lat="45.85094" lon="5.45563">
        <ele>602.6</ele>
        <time>2021-02-20T12:56:43.000Z</time>
      </trkpt>
      <trkpt lat="45.85095" lon="5.45564">
        <ele>602.6</ele>
        <time>2021-02-20T12:56:44.000Z</time>
      </trkpt>
      <trkpt lat="45.85096" lon="5.45565">
        <ele>602.8</ele>
        <time>2021-02-20T12:56:45.000Z</time>
      </trkpt>
      <trkpt lat="45.85097" lon="5.45566">
        <ele>603</ele>
        <time>2021-02-20T12:56:46.000Z</time>
      </trkpt>
      <trkpt lat="45.85098" lon="5.45567">
        <ele>603.2</ele>
        <time>2021-02-20T12:56:47.000Z</time>
      </trkpt>
      <trkpt lat="45.85099" lon="5.45567">
        <ele>603.4</ele>
        <time>2021-02-20T12:56:48.000Z</time>
      </trkpt>
      <trkpt lat="45.851" lon="5.45568">
        <ele>603.8</ele>
        <time>2021-02-20T12:56:49.000Z</time>
      </trkpt>
      <trkpt lat="45.85112" lon="5.45589">
        <ele>610.2</ele>
        <time>2021-02-20T12:57:32.000Z</time>
      </trkpt>
      <trkpt lat="45.85112" lon="5.4559">
        <ele>610.2</ele>
        <time>2021-02-20T12:57:33.000Z</time>
      </trkpt>
      <trkpt lat="45.85112" lon="5.45591">
        <ele>610.2</ele>
        <time>2021-02-20T12:57:34.000Z</time>
      </trkpt>
      <trkpt lat="45.85111" lon="5.45595">
        <ele>610.6</ele>
        <time>2021-02-20T12:57:37.000Z</time>
      </trkpt>
      <trkpt lat="45.85111" lon="5.45597">
        <ele>610.4</ele>
        <time>2021-02-20T12:57:38.000Z</time>
      </trkpt>
      <trkpt lat="45.8511" lon="5.45598">
        <ele>610.6</ele>
        <time>2021-02-20T12:57:39.000Z</time>
      </trkpt>
      <trkpt lat="45.8511" lon="5.456">
        <ele>610.8</ele>
        <time>2021-02-20T12:57:40.000Z</time>
      </trkpt>
      <trkpt lat="45.8511" lon="5.45601">
        <ele>611</ele>
        <time>2021-02-20T12:57:41.000Z</time>
      </trkpt>
      <trkpt lat="45.8511" lon="5.45603">
        <ele>611.2</ele>
        <time>2021-02-20T12:57:42.000Z</time>
      </trkpt>
      <trkpt lat="45.8511" lon="5.45605">
        <ele>611.2</ele>
        <time>2021-02-20T12:57:43.000Z</time>
      </trkpt>
      <trkpt lat="45.85111" lon="5.45607">
        <ele>611.6</ele>
        <time>2021-02-20T12:57:44.000Z</time>
      </trkpt>
      <trkpt lat="45.85111" lon="5.45608">
        <ele>611.8</ele>
        <time>2021-02-20T12:57:45.000Z</time>
      </trkpt>
      <trkpt lat="45.85111" lon="5.4561">
        <ele>612</ele>
        <time>2021-02-20T12:57:46.000Z</time>
      </trkpt>
      <trkpt lat="45.85111" lon="5.45612">
        <ele>612</ele>
        <time>2021-02-20T12:57:47.000Z</time>
      </trkpt>
      <trkpt lat="45.8511" lon="5.45615">
        <ele>612.2</ele>
        <time>2021-02-20T12:57:48.000Z</time>
      </trkpt>
      <trkpt lat="45.8511" lon="5.45616">
        <ele>612.4</ele>
        <time>2021-02-20T12:57:49.000Z</time>
      </trkpt>
      <trkpt lat="45.85111" lon="5.45618">
        <ele>612.6</ele>
        <time>2021-02-20T12:57:50.000Z</time>
      </trkpt>
      <trkpt lat="45.85111" lon="5.45619">
        <ele>613</ele>
        <time>2021-02-20T12:57:51.000Z</time>
      </trkpt>
      <trkpt lat="45.85111" lon="5.45621">
        <ele>613.2</ele>
        <time>2021-02-20T12:57:52.000Z</time>
      </trkpt>
      <trkpt lat="45.85111" lon="5.45623">
        <ele>613.6</ele>
        <time>2021-02-20T12:57:53.000Z</time>
      </trkpt>
      <trkpt lat="45.85112" lon="5.45625">
        <ele>614.2</ele>
        <time>2021-02-20T12:57:54.000Z</time>
      </trkpt>
      <trkpt lat="45.85113" lon="5.45627">
        <ele>614.6</ele>
        <time>2021-02-20T12:57:55.000Z</time>
      </trkpt>
      <trkpt lat="45.85113" lon="5.45629">
        <ele>614.8</ele>
        <time>2021-02-20T12:57:56.000Z</time>
      </trkpt>
      <trkpt lat="45.85114" lon="5.45631">
        <ele>615</ele>
        <time>2021-02-20T12:57:57.000Z</time>
      </trkpt>
      <trkpt lat="45.85115" lon="5.45633">
        <ele>615.2</ele>
        <time>2021-02-20T12:57:58.000Z</time>
      </trkpt>
      <trkpt lat="45.85115" lon="5.45635">
        <ele>615.6</ele>
        <time>2021-02-20T12:57:59.000Z</time>
      </trkpt>
      <trkpt lat="45.85115" lon="5.45637">
        <ele>616.2</ele>
        <time>2021-02-20T12:58:00.000Z</time>
      </trkpt>
      <trkpt lat="45.85116" lon="5.45638">
        <ele>616.4</ele>
        <time>2021-02-20T12:58:01.000Z</time>
      </trkpt>
      <trkpt lat="45.85116" lon="5.4564">
        <ele>616.6</ele>
        <time>2021-02-20T12:58:02.000Z</time>
      </trkpt>
      <trkpt lat="45.85117" lon="5.45641">
        <ele>617</ele>
        <time>2021-02-20T12:58:03.000Z</time>
      </trkpt>
      <trkpt lat="45.85117" lon="5.45642">
        <ele>617.6</ele>
        <time>2021-02-20T12:58:04.000Z</time>
      </trkpt>
      <trkpt lat="45.85118" lon="5.45644">
        <ele>617.8</ele>
        <time>2021-02-20T12:58:05.000Z</time>
      </trkpt>
      <trkpt lat="45.85119" lon="5.45645">
        <ele>617.8</ele>
        <time>2021-02-20T12:58:06.000Z</time>
      </trkpt>
      <trkpt lat="45.85119" lon="5.45646">
        <ele>618.2</ele>
        <time>2021-02-20T12:58:07.000Z</time>
      </trkpt>
      <trkpt lat="45.8512" lon="5.45647">
        <ele>618.4</ele>
        <time>2021-02-20T12:58:08.000Z</time>
      </trkpt>
      <trkpt lat="45.8512" lon="5.45649">
        <ele>619</ele>
        <time>2021-02-20T12:58:10.000Z</time>
      </trkpt>
      <trkpt lat="45.8512" lon="5.4565">
        <ele>619.4</ele>
        <time>2021-02-20T12:58:11.000Z</time>
      </trkpt>
      <trkpt lat="45.85121" lon="5.45652">
        <ele>619.8</ele>
        <time>2021-02-20T12:58:13.000Z</time>
      </trkpt>
      <trkpt lat="45.85122" lon="5.45653">
        <ele>619.8</ele>
        <time>2021-02-20T12:58:14.000Z</time>
      </trkpt>
      <trkpt lat="45.85122" lon="5.45655">
        <ele>620</ele>
        <time>2021-02-20T12:58:15.000Z</time>
      </trkpt>
      <trkpt lat="45.85123" lon="5.45656">
        <ele>620.2</ele>
        <time>2021-02-20T12:58:16.000Z</time>
      </trkpt>
      <trkpt lat="45.85124" lon="5.45658">
        <ele>620.4</ele>
        <time>2021-02-20T12:58:17.000Z</time>
      </trkpt>
      <trkpt lat="45.85124" lon="5.4566">
        <ele>620.6</ele>
        <time>2021-02-20T12:58:18.000Z</time>
      </trkpt>
      <trkpt lat="45.85124" lon="5.45662">
        <ele>620.6</ele>
        <time>2021-02-20T12:58:19.000Z</time>
      </trkpt>
      <trkpt lat="45.85125" lon="5.45664">
        <ele>620.8</ele>
        <time>2021-02-20T12:58:20.000Z</time>
      </trkpt>
      <trkpt lat="45.85125" lon="5.45666">
        <ele>621</ele>
        <time>2021-02-20T12:58:21.000Z</time>
      </trkpt>
      <trkpt lat="45.85126" lon="5.45668">
        <ele>621.4</ele>
        <time>2021-02-20T12:58:22.000Z</time>
      </trkpt>
      <trkpt lat="45.85127" lon="5.4567">
        <ele>621.4</ele>
        <time>2021-02-20T12:58:23.000Z</time>
      </trkpt>
      <trkpt lat="45.85127" lon="5.45672">
        <ele>621.6</ele>
        <time>2021-02-20T12:58:24.000Z</time>
      </trkpt>
      <trkpt lat="45.85128" lon="5.45674">
        <ele>621.6</ele>
        <time>2021-02-20T12:58:25.000Z</time>
      </trkpt>
      <trkpt lat="45.85129" lon="5.45675">
        <ele>621.8</ele>
        <time>2021-02-20T12:58:26.000Z</time>
      </trkpt>
      <trkpt lat="45.85129" lon="5.45677">
        <ele>621.8</ele>
        <time>2021-02-20T12:58:27.000Z</time>
      </trkpt>
      <trkpt lat="45.8513" lon="5.45679">
        <ele>622</ele>
        <time>2021-02-20T12:58:28.000Z</time>
      </trkpt>
      <trkpt lat="45.85131" lon="5.4568">
        <ele>622</ele>
        <time>2021-02-20T12:58:29.000Z</time>
      </trkpt>
      <trkpt lat="45.85131" lon="5.45682">
        <ele>622.4</ele>
        <time>2021-02-20T12:58:30.000Z</time>
      </trkpt>
      <trkpt lat="45.85131" lon="5.45684">
        <ele>622.4</ele>
        <time>2021-02-20T12:58:31.000Z</time>
      </trkpt>
      <trkpt lat="45.85131" lon="5.45687">
        <ele>622.4</ele>
        <time>2021-02-20T12:58:32.000Z</time>
      </trkpt>
      <trkpt lat="45.85131" lon="5.45688">
        <ele>622.4</ele>
        <time>2021-02-20T12:58:33.000Z</time>
      </trkpt>
      <trkpt lat="45.85131" lon="5.4569">
        <ele>622.6</ele>
        <time>2021-02-20T12:58:34.000Z</time>
      </trkpt>
      <trkpt lat="45.85131" lon="5.45692">
        <ele>623</ele>
        <time>2021-02-20T12:58:35.000Z</time>
      </trkpt>
      <trkpt lat="45.85131" lon="5.45693">
        <ele>623</ele>
        <time>2021-02-20T12:58:36.000Z</time>
      </trkpt>
      <trkpt lat="45.85131" lon="5.45694">
        <ele>623.2</ele>
        <time>2021-02-20T12:58:37.000Z</time>
      </trkpt>
      <trkpt lat="45.85131" lon="5.45696">
        <ele>623.6</ele>
        <time>2021-02-20T12:58:38.000Z</time>
      </trkpt>
      <trkpt lat="45.85131" lon="5.45698">
        <ele>623.6</ele>
        <time>2021-02-20T12:58:39.000Z</time>
      </trkpt>
      <trkpt lat="45.85131" lon="5.45699">
        <ele>623.6</ele>
        <time>2021-02-20T12:58:40.000Z</time>
      </trkpt>
      <trkpt lat="45.85132" lon="5.45701">
        <ele>623.8</ele>
        <time>2021-02-20T12:58:41.000Z</time>
      </trkpt>
      <trkpt lat="45.85132" lon="5.45704">
        <ele>624</ele>
        <time>2021-02-20T12:58:42.000Z</time>
      </trkpt>
      <trkpt lat="45.85133" lon="5.45705">
        <ele>624.2</ele>
        <time>2021-02-20T12:58:43.000Z</time>
      </trkpt>
      <trkpt lat="45.85134" lon="5.45708">
        <ele>624.2</ele>
        <time>2021-02-20T12:58:44.000Z</time>
      </trkpt>
      <trkpt lat="45.85135" lon="5.45709">
        <ele>624.4</ele>
        <time>2021-02-20T12:58:45.000Z</time>
      </trkpt>
      <trkpt lat="45.85135" lon="5.45712">
        <ele>624.6</ele>
        <time>2021-02-20T12:58:46.000Z</time>
      </trkpt>
      <trkpt lat="45.85135" lon="5.45714">
        <ele>624.8</ele>
        <time>2021-02-20T12:58:47.000Z</time>
      </trkpt>
      <trkpt lat="45.85136" lon="5.45716">
        <ele>624.8</ele>
        <time>2021-02-20T12:58:48.000Z</time>
      </trkpt>
      <trkpt lat="45.85137" lon="5.45718">
        <ele>625.2</ele>
        <time>2021-02-20T12:58:49.000Z</time>
      </trkpt>
      <trkpt lat="45.85137" lon="5.4572">
        <ele>625.6</ele>
        <time>2021-02-20T12:58:50.000Z</time>
      </trkpt>
      <trkpt lat="45.85138" lon="5.45722">
        <ele>626.2</ele>
        <time>2021-02-20T12:58:51.000Z</time>
      </trkpt>
      <trkpt lat="45.85138" lon="5.45724">
        <ele>626.4</ele>
        <time>2021-02-20T12:58:52.000Z</time>
      </trkpt>
      <trkpt lat="45.85138" lon="5.45726">
        <ele>627.2</ele>
        <time>2021-02-20T12:58:53.000Z</time>
      </trkpt>
      <trkpt lat="45.85138" lon="5.45728">
        <ele>627.4</ele>
        <time>2021-02-20T12:58:54.000Z</time>
      </trkpt>
      <trkpt lat="45.85138" lon="5.45729">
        <ele>627.6</ele>
        <time>2021-02-20T12:58:55.000Z</time>
      </trkpt>
      <trkpt lat="45.85137" lon="5.45731">
        <ele>628</ele>
        <time>2021-02-20T12:58:56.000Z</time>
      </trkpt>
      <trkpt lat="45.85137" lon="5.45733">
        <ele>628.2</ele>
        <time>2021-02-20T12:58:57.000Z</time>
      </trkpt>
      <trkpt lat="45.85137" lon="5.45735">
        <ele>628.8</ele>
        <time>2021-02-20T12:58:58.000Z</time>
      </trkpt>
      <trkpt lat="45.85136" lon="5.45736">
        <ele>629</ele>
        <time>2021-02-20T12:58:59.000Z</time>
      </trkpt>
      <trkpt lat="45.85135" lon="5.45738">
        <ele>629</ele>
        <time>2021-02-20T12:59:00.000Z</time>
      </trkpt>
      <trkpt lat="45.85134" lon="5.45739">
        <ele>629</ele>
        <time>2021-02-20T12:59:01.000Z</time>
      </trkpt>
      <trkpt lat="45.85134" lon="5.45741">
        <ele>629.2</ele>
        <time>2021-02-20T12:59:02.000Z</time>
      </trkpt>
      <trkpt lat="45.85133" lon="5.45742">
        <ele>629.6</ele>
        <time>2021-02-20T12:59:03.000Z</time>
      </trkpt>
      <trkpt lat="45.85132" lon="5.45744">
        <ele>629.6</ele>
        <time>2021-02-20T12:59:04.000Z</time>
      </trkpt>
      <trkpt lat="45.85132" lon="5.45745">
        <ele>629.6</ele>
        <time>2021-02-20T12:59:05.000Z</time>
      </trkpt>
      <trkpt lat="45.85131" lon="5.45747">
        <ele>629.8</ele>
        <time>2021-02-20T12:59:06.000Z</time>
      </trkpt>
      <trkpt lat="45.85131" lon="5.45748">
        <ele>629.8</ele>
        <time>2021-02-20T12:59:07.000Z</time>
      </trkpt>
      <trkpt lat="45.85131" lon="5.4575">
        <ele>630</ele>
        <time>2021-02-20T12:59:08.000Z</time>
      </trkpt>
      <trkpt lat="45.8513" lon="5.45751">
        <ele>630.4</ele>
        <time>2021-02-20T12:59:09.000Z</time>
      </trkpt>
      <trkpt lat="45.8513" lon="5.45752">
        <ele>630.6</ele>
        <time>2021-02-20T12:59:10.000Z</time>
      </trkpt>
      <trkpt lat="45.85129" lon="5.45754">
        <ele>630.8</ele>
        <time>2021-02-20T12:59:11.000Z</time>
      </trkpt>
      <trkpt lat="45.85128" lon="5.45756">
        <ele>631</ele>
        <time>2021-02-20T12:59:12.000Z</time>
      </trkpt>
      <trkpt lat="45.85128" lon="5.45757">
        <ele>631</ele>
        <time>2021-02-20T12:59:13.000Z</time>
      </trkpt>
      <trkpt lat="45.85128" lon="5.45759">
        <ele>631.4</ele>
        <time>2021-02-20T12:59:14.000Z</time>
      </trkpt>
      <trkpt lat="45.85128" lon="5.45761">
        <ele>631.4</ele>
        <time>2021-02-20T12:59:15.000Z</time>
      </trkpt>
      <trkpt lat="45.85127" lon="5.45762">
        <ele>631.6</ele>
        <time>2021-02-20T12:59:16.000Z</time>
      </trkpt>
      <trkpt lat="45.85127" lon="5.45764">
        <ele>631.8</ele>
        <time>2021-02-20T12:59:17.000Z</time>
      </trkpt>
      <trkpt lat="45.85127" lon="5.45766">
        <ele>631.8</ele>
        <time>2021-02-20T12:59:18.000Z</time>
      </trkpt>
      <trkpt lat="45.85127" lon="5.45767">
        <ele>632</ele>
        <time>2021-02-20T12:59:19.000Z</time>
      </trkpt>
      <trkpt lat="45.85127" lon="5.45768">
        <ele>632.2</ele>
        <time>2021-02-20T12:59:20.000Z</time>
      </trkpt>
      <trkpt lat="45.85127" lon="5.4577">
        <ele>632.2</ele>
        <time>2021-02-20T12:59:21.000Z</time>
      </trkpt>
      <trkpt lat="45.85127" lon="5.45771">
        <ele>632.4</ele>
        <time>2021-02-20T12:59:22.000Z</time>
      </trkpt>
      <trkpt lat="45.85127" lon="5.45773">
        <ele>632.6</ele>
        <time>2021-02-20T12:59:23.000Z</time>
      </trkpt>
      <trkpt lat="45.85128" lon="5.45774">
        <ele>632.6</ele>
        <time>2021-02-20T12:59:24.000Z</time>
      </trkpt>
      <trkpt lat="45.85128" lon="5.45775">
        <ele>632.6</ele>
        <time>2021-02-20T12:59:25.000Z</time>
      </trkpt>
      <trkpt lat="45.85129" lon="5.45776">
        <ele>632.8</ele>
        <time>2021-02-20T12:59:26.000Z</time>
      </trkpt>
      <trkpt lat="45.8513" lon="5.45779">
        <ele>632.8</ele>
        <time>2021-02-20T12:59:27.000Z</time>
      </trkpt>
      <trkpt lat="45.85131" lon="5.45781">
        <ele>633</ele>
        <time>2021-02-20T12:59:28.000Z</time>
      </trkpt>
      <trkpt lat="45.85131" lon="5.45782">
        <ele>633</ele>
        <time>2021-02-20T12:59:29.000Z</time>
      </trkpt>
      <trkpt lat="45.85131" lon="5.45783">
        <ele>633.4</ele>
        <time>2021-02-20T12:59:30.000Z</time>
      </trkpt>
      <trkpt lat="45.85131" lon="5.45785">
        <ele>633.6</ele>
        <time>2021-02-20T12:59:31.000Z</time>
      </trkpt>
      <trkpt lat="45.85132" lon="5.45786">
        <ele>634</ele>
        <time>2021-02-20T12:59:32.000Z</time>
      </trkpt>
      <trkpt lat="45.85132" lon="5.45787">
        <ele>634.2</ele>
        <time>2021-02-20T12:59:33.000Z</time>
      </trkpt>
      <trkpt lat="45.85133" lon="5.45788">
        <ele>634.6</ele>
        <time>2021-02-20T12:59:34.000Z</time>
      </trkpt>
      <trkpt lat="45.85133" lon="5.4579">
        <ele>634.8</ele>
        <time>2021-02-20T12:59:35.000Z</time>
      </trkpt>
      <trkpt lat="45.85133" lon="5.45792">
        <ele>635</ele>
        <time>2021-02-20T12:59:36.000Z</time>
      </trkpt>
      <trkpt lat="45.85134" lon="5.45793">
        <ele>635</ele>
        <time>2021-02-20T12:59:37.000Z</time>
      </trkpt>
      <trkpt lat="45.85134" lon="5.45795">
        <ele>635.4</ele>
        <time>2021-02-20T12:59:38.000Z</time>
      </trkpt>
      <trkpt lat="45.85133" lon="5.45798">
        <ele>635.6</ele>
        <time>2021-02-20T12:59:39.000Z</time>
      </trkpt>
      <trkpt lat="45.85134" lon="5.458">
        <ele>635.6</ele>
        <time>2021-02-20T12:59:40.000Z</time>
      </trkpt>
      <trkpt lat="45.85134" lon="5.45802">
        <ele>636</ele>
        <time>2021-02-20T12:59:41.000Z</time>
      </trkpt>
      <trkpt lat="45.85135" lon="5.45803">
        <ele>636</ele>
        <time>2021-02-20T12:59:42.000Z</time>
      </trkpt>
      <trkpt lat="45.85135" lon="5.45804">
        <ele>636.2</ele>
        <time>2021-02-20T12:59:43.000Z</time>
      </trkpt>
      <trkpt lat="45.85136" lon="5.45806">
        <ele>636.4</ele>
        <time>2021-02-20T12:59:44.000Z</time>
      </trkpt>
      <trkpt lat="45.85137" lon="5.45808">
        <ele>636.6</ele>
        <time>2021-02-20T12:59:45.000Z</time>
      </trkpt>
      <trkpt lat="45.85137" lon="5.45809">
        <ele>636.6</ele>
        <time>2021-02-20T12:59:46.000Z</time>
      </trkpt>
      <trkpt lat="45.85137" lon="5.45811">
        <ele>637</ele>
        <time>2021-02-20T12:59:47.000Z</time>
      </trkpt>
      <trkpt lat="45.85137" lon="5.45813">
        <ele>637</ele>
        <time>2021-02-20T12:59:48.000Z</time>
      </trkpt>
      <trkpt lat="45.85137" lon="5.45814">
        <ele>637</ele>
        <time>2021-02-20T12:59:49.000Z</time>
      </trkpt>
      <trkpt lat="45.85137" lon="5.45816">
        <ele>637</ele>
        <time>2021-02-20T12:59:50.000Z</time>
      </trkpt>
      <trkpt lat="45.85137" lon="5.45818">
        <ele>637.4</ele>
        <time>2021-02-20T12:59:52.000Z</time>
      </trkpt>
      <trkpt lat="45.85137" lon="5.45819">
        <ele>637.6</ele>
        <time>2021-02-20T12:59:53.000Z</time>
      </trkpt>
      <trkpt lat="45.85137" lon="5.4582">
        <ele>637.8</ele>
        <time>2021-02-20T12:59:54.000Z</time>
      </trkpt>
      <trkpt lat="45.85137" lon="5.45822">
        <ele>638.2</ele>
        <time>2021-02-20T12:59:55.000Z</time>
      </trkpt>
      <trkpt lat="45.85137" lon="5.45824">
        <ele>638.4</ele>
        <time>2021-02-20T12:59:56.000Z</time>
      </trkpt>
      <trkpt lat="45.85138" lon="5.45825">
        <ele>638.4</ele>
        <time>2021-02-20T12:59:57.000Z</time>
      </trkpt>
      <trkpt lat="45.85138" lon="5.45827">
        <ele>638.8</ele>
        <time>2021-02-20T12:59:58.000Z</time>
      </trkpt>
      <trkpt lat="45.85137" lon="5.45829">
        <ele>639</ele>
        <time>2021-02-20T12:59:59.000Z</time>
      </trkpt>
      <trkpt lat="45.85137" lon="5.45831">
        <ele>639.2</ele>
        <time>2021-02-20T13:00:00.000Z</time>
      </trkpt>
      <trkpt lat="45.85138" lon="5.45832">
        <ele>639.4</ele>
        <time>2021-02-20T13:00:01.000Z</time>
      </trkpt>
      <trkpt lat="45.85139" lon="5.45834">
        <ele>639.4</ele>
        <time>2021-02-20T13:00:02.000Z</time>
      </trkpt>
      <trkpt lat="45.8514" lon="5.45837">
        <ele>639.8</ele>
        <time>2021-02-20T13:00:03.000Z</time>
      </trkpt>
      <trkpt lat="45.85141" lon="5.45838">
        <ele>639.8</ele>
        <time>2021-02-20T13:00:04.000Z</time>
      </trkpt>
      <trkpt lat="45.85142" lon="5.4584">
        <ele>640</ele>
        <time>2021-02-20T13:00:05.000Z</time>
      </trkpt>
      <trkpt lat="45.85141" lon="5.45842">
        <ele>640.2</ele>
        <time>2021-02-20T13:00:06.000Z</time>
      </trkpt>
      <trkpt lat="45.85142" lon="5.45844">
        <ele>640.2</ele>
        <time>2021-02-20T13:00:07.000Z</time>
      </trkpt>
      <trkpt lat="45.85142" lon="5.45846">
        <ele>640.2</ele>
        <time>2021-02-20T13:00:08.000Z</time>
      </trkpt>
      <trkpt lat="45.85144" lon="5.45848">
        <ele>640.6</ele>
        <time>2021-02-20T13:00:09.000Z</time>
      </trkpt>
      <trkpt lat="45.85145" lon="5.4585">
        <ele>640.6</ele>
        <time>2021-02-20T13:00:10.000Z</time>
      </trkpt>
      <trkpt lat="45.85146" lon="5.45851">
        <ele>640.6</ele>
        <time>2021-02-20T13:00:11.000Z</time>
      </trkpt>
      <trkpt lat="45.85147" lon="5.45853">
        <ele>640.6</ele>
        <time>2021-02-20T13:00:12.000Z</time>
      </trkpt>
      <trkpt lat="45.85147" lon="5.45855">
        <ele>640.8</ele>
        <time>2021-02-20T13:00:13.000Z</time>
      </trkpt>
      <trkpt lat="45.85148" lon="5.45856">
        <ele>641</ele>
        <time>2021-02-20T13:00:14.000Z</time>
      </trkpt>
      <trkpt lat="45.85149" lon="5.45858">
        <ele>640.8</ele>
        <time>2021-02-20T13:00:15.000Z</time>
      </trkpt>
      <trkpt lat="45.8515" lon="5.45859">
        <ele>641</ele>
        <time>2021-02-20T13:00:16.000Z</time>
      </trkpt>
      <trkpt lat="45.8515" lon="5.45861">
        <ele>641</ele>
        <time>2021-02-20T13:00:17.000Z</time>
      </trkpt>
      <trkpt lat="45.85151" lon="5.45862">
        <ele>641.2</ele>
        <time>2021-02-20T13:00:18.000Z</time>
      </trkpt>
      <trkpt lat="45.85153" lon="5.45868">
        <ele>641</ele>
        <time>2021-02-20T13:00:22.000Z</time>
      </trkpt>
      <trkpt lat="45.85153" lon="5.4587">
        <ele>641.2</ele>
        <time>2021-02-20T13:00:23.000Z</time>
      </trkpt>
      <trkpt lat="45.85155" lon="5.45874">
        <ele>641.2</ele>
        <time>2021-02-20T13:00:26.000Z</time>
      </trkpt>
      <trkpt lat="45.85159" lon="5.45881">
        <ele>641.4</ele>
        <time>2021-02-20T13:00:31.000Z</time>
      </trkpt>
      <trkpt lat="45.8517" lon="5.45893">
        <ele>643.4</ele>
        <time>2021-02-20T13:00:40.000Z</time>
      </trkpt>
      <trkpt lat="45.85171" lon="5.45895">
        <ele>643.6</ele>
        <time>2021-02-20T13:00:41.000Z</time>
      </trkpt>
      <trkpt lat="45.85172" lon="5.45896">
        <ele>643.8</ele>
        <time>2021-02-20T13:00:42.000Z</time>
      </trkpt>
      <trkpt lat="45.85174" lon="5.45897">
        <ele>643.8</ele>
        <time>2021-02-20T13:00:43.000Z</time>
      </trkpt>
      <trkpt lat="45.85175" lon="5.45899">
        <ele>643.8</ele>
        <time>2021-02-20T13:00:44.000Z</time>
      </trkpt>
      <trkpt lat="45.85176" lon="5.459">
        <ele>643.8</ele>
        <time>2021-02-20T13:00:45.000Z</time>
      </trkpt>
      <trkpt lat="45.85177" lon="5.45902">
        <ele>644</ele>
        <time>2021-02-20T13:00:46.000Z</time>
      </trkpt>
      <trkpt lat="45.85177" lon="5.45903">
        <ele>644.2</ele>
        <time>2021-02-20T13:00:47.000Z</time>
      </trkpt>
      <trkpt lat="45.85178" lon="5.45904">
        <ele>644.2</ele>
        <time>2021-02-20T13:00:48.000Z</time>
      </trkpt>
      <trkpt lat="45.85179" lon="5.45906">
        <ele>644.2</ele>
        <time>2021-02-20T13:00:49.000Z</time>
      </trkpt>
      <trkpt lat="45.8518" lon="5.45907">
        <ele>644.2</ele>
        <time>2021-02-20T13:00:50.000Z</time>
      </trkpt>
      <trkpt lat="45.8518" lon="5.45909">
        <ele>644.8</ele>
        <time>2021-02-20T13:00:51.000Z</time>
      </trkpt>
      <trkpt lat="45.85181" lon="5.4591">
        <ele>644.8</ele>
        <time>2021-02-20T13:00:52.000Z</time>
      </trkpt>
      <trkpt lat="45.85181" lon="5.45912">
        <ele>645.2</ele>
        <time>2021-02-20T13:00:53.000Z</time>
      </trkpt>
      <trkpt lat="45.85181" lon="5.45913">
        <ele>645.4</ele>
        <time>2021-02-20T13:00:54.000Z</time>
      </trkpt>
      <trkpt lat="45.85182" lon="5.45915">
        <ele>645.8</ele>
        <time>2021-02-20T13:00:55.000Z</time>
      </trkpt>
      <trkpt lat="45.85182" lon="5.45916">
        <ele>646.2</ele>
        <time>2021-02-20T13:00:56.000Z</time>
      </trkpt>
      <trkpt lat="45.85183" lon="5.45917">
        <ele>646.8</ele>
        <time>2021-02-20T13:00:57.000Z</time>
      </trkpt>
      <trkpt lat="45.85183" lon="5.45918">
        <ele>647.2</ele>
        <time>2021-02-20T13:00:58.000Z</time>
      </trkpt>
      <trkpt lat="45.85182" lon="5.4592">
        <ele>647.2</ele>
        <time>2021-02-20T13:00:59.000Z</time>
      </trkpt>
      <trkpt lat="45.85183" lon="5.45922">
        <ele>647.6</ele>
        <time>2021-02-20T13:01:00.000Z</time>
      </trkpt>
      <trkpt lat="45.85182" lon="5.45924">
        <ele>648</ele>
        <time>2021-02-20T13:01:01.000Z</time>
      </trkpt>
      <trkpt lat="45.85182" lon="5.45926">
        <ele>648</ele>
        <time>2021-02-20T13:01:02.000Z</time>
      </trkpt>
      <trkpt lat="45.85183" lon="5.45929">
        <ele>648.4</ele>
        <time>2021-02-20T13:01:03.000Z</time>
      </trkpt>
      <trkpt lat="45.85182" lon="5.45931">
        <ele>648.8</ele>
        <time>2021-02-20T13:01:04.000Z</time>
      </trkpt>
      <trkpt lat="45.85182" lon="5.45933">
        <ele>649.4</ele>
        <time>2021-02-20T13:01:05.000Z</time>
      </trkpt>
      <trkpt lat="45.85181" lon="5.45936">
        <ele>649.8</ele>
        <time>2021-02-20T13:01:06.000Z</time>
      </trkpt>
      <trkpt lat="45.85181" lon="5.45938">
        <ele>650</ele>
        <time>2021-02-20T13:01:07.000Z</time>
      </trkpt>
      <trkpt lat="45.8518" lon="5.45941">
        <ele>650.2</ele>
        <time>2021-02-20T13:01:08.000Z</time>
      </trkpt>
      <trkpt lat="45.85179" lon="5.45944">
        <ele>650.4</ele>
        <time>2021-02-20T13:01:09.000Z</time>
      </trkpt>
      <trkpt lat="45.85178" lon="5.45946">
        <ele>650.6</ele>
        <time>2021-02-20T13:01:10.000Z</time>
      </trkpt>
      <trkpt lat="45.85177" lon="5.45949">
        <ele>651</ele>
        <time>2021-02-20T13:01:11.000Z</time>
      </trkpt>
      <trkpt lat="45.85176" lon="5.45952">
        <ele>651</ele>
        <time>2021-02-20T13:01:12.000Z</time>
      </trkpt>
      <trkpt lat="45.85175" lon="5.45954">
        <ele>651.2</ele>
        <time>2021-02-20T13:01:13.000Z</time>
      </trkpt>
      <trkpt lat="45.85174" lon="5.45956">
        <ele>651.2</ele>
        <time>2021-02-20T13:01:14.000Z</time>
      </trkpt>
      <trkpt lat="45.85174" lon="5.45958">
        <ele>651.4</ele>
        <time>2021-02-20T13:01:15.000Z</time>
      </trkpt>
      <trkpt lat="45.85173" lon="5.4596">
        <ele>651.6</ele>
        <time>2021-02-20T13:01:16.000Z</time>
      </trkpt>
      <trkpt lat="45.85172" lon="5.45962">
        <ele>651.8</ele>
        <time>2021-02-20T13:01:17.000Z</time>
      </trkpt>
      <trkpt lat="45.85172" lon="5.45963">
        <ele>652</ele>
        <time>2021-02-20T13:01:18.000Z</time>
      </trkpt>
      <trkpt lat="45.85171" lon="5.45965">
        <ele>652.2</ele>
        <time>2021-02-20T13:01:19.000Z</time>
      </trkpt>
      <trkpt lat="45.85171" lon="5.45966">
        <ele>652.2</ele>
        <time>2021-02-20T13:01:20.000Z</time>
      </trkpt>
      <trkpt lat="45.85171" lon="5.45969">
        <ele>652.4</ele>
        <time>2021-02-20T13:01:21.000Z</time>
      </trkpt>
      <trkpt lat="45.85171" lon="5.45971">
        <ele>652.4</ele>
        <time>2021-02-20T13:01:22.000Z</time>
      </trkpt>
      <trkpt lat="45.85171" lon="5.45972">
        <ele>652.6</ele>
        <time>2021-02-20T13:01:23.000Z</time>
      </trkpt>
      <trkpt lat="45.85171" lon="5.45974">
        <ele>652.8</ele>
        <time>2021-02-20T13:01:24.000Z</time>
      </trkpt>
      <trkpt lat="45.85171" lon="5.45975">
        <ele>652.8</ele>
        <time>2021-02-20T13:01:25.000Z</time>
      </trkpt>
      <trkpt lat="45.85172" lon="5.45977">
        <ele>652.8</ele>
        <time>2021-02-20T13:01:26.000Z</time>
      </trkpt>
      <trkpt lat="45.85174" lon="5.45979">
        <ele>653.2</ele>
        <time>2021-02-20T13:01:27.000Z</time>
      </trkpt>
      <trkpt lat="45.85175" lon="5.45981">
        <ele>653.4</ele>
        <time>2021-02-20T13:01:28.000Z</time>
      </trkpt>
      <trkpt lat="45.85177" lon="5.45983">
        <ele>653.4</ele>
        <time>2021-02-20T13:01:29.000Z</time>
      </trkpt>
      <trkpt lat="45.85179" lon="5.45986">
        <ele>653.6</ele>
        <time>2021-02-20T13:01:30.000Z</time>
      </trkpt>
      <trkpt lat="45.8518" lon="5.45988">
        <ele>654</ele>
        <time>2021-02-20T13:01:31.000Z</time>
      </trkpt>
      <trkpt lat="45.85181" lon="5.45991">
        <ele>654.2</ele>
        <time>2021-02-20T13:01:32.000Z</time>
      </trkpt>
      <trkpt lat="45.85182" lon="5.45994">
        <ele>654.2</ele>
        <time>2021-02-20T13:01:33.000Z</time>
      </trkpt>
      <trkpt lat="45.85183" lon="5.45996">
        <ele>654.2</ele>
        <time>2021-02-20T13:01:34.000Z</time>
      </trkpt>
      <trkpt lat="45.85184" lon="5.45999">
        <ele>654.4</ele>
        <time>2021-02-20T13:01:35.000Z</time>
      </trkpt>
      <trkpt lat="45.85184" lon="5.46001">
        <ele>654.4</ele>
        <time>2021-02-20T13:01:36.000Z</time>
      </trkpt>
      <trkpt lat="45.85184" lon="5.46002">
        <ele>654.2</ele>
        <time>2021-02-20T13:01:37.000Z</time>
      </trkpt>
      <trkpt lat="45.85185" lon="5.46004">
        <ele>654.4</ele>
        <time>2021-02-20T13:01:38.000Z</time>
      </trkpt>
      <trkpt lat="45.85186" lon="5.46006">
        <ele>654.4</ele>
        <time>2021-02-20T13:01:39.000Z</time>
      </trkpt>
      <trkpt lat="45.85187" lon="5.46007">
        <ele>654.4</ele>
        <time>2021-02-20T13:01:40.000Z</time>
      </trkpt>
      <trkpt lat="45.85188" lon="5.4601">
        <ele>654.4</ele>
        <time>2021-02-20T13:01:41.000Z</time>
      </trkpt>
      <trkpt lat="45.85189" lon="5.46011">
        <ele>654.6</ele>
        <time>2021-02-20T13:01:42.000Z</time>
      </trkpt>
      <trkpt lat="45.8519" lon="5.46013">
        <ele>654.4</ele>
        <time>2021-02-20T13:01:43.000Z</time>
      </trkpt>
      <trkpt lat="45.85192" lon="5.46017">
        <ele>654.6</ele>
        <time>2021-02-20T13:01:46.000Z</time>
      </trkpt>
      <trkpt lat="45.85192" lon="5.46019">
        <ele>654.6</ele>
        <time>2021-02-20T13:01:47.000Z</time>
      </trkpt>
      <trkpt lat="45.85193" lon="5.4602">
        <ele>654.8</ele>
        <time>2021-02-20T13:01:48.000Z</time>
      </trkpt>
      <trkpt lat="45.85194" lon="5.46022">
        <ele>655</ele>
        <time>2021-02-20T13:01:49.000Z</time>
      </trkpt>
      <trkpt lat="45.85194" lon="5.46024">
        <ele>655</ele>
        <time>2021-02-20T13:01:50.000Z</time>
      </trkpt>
      <trkpt lat="45.85195" lon="5.46025">
        <ele>655.2</ele>
        <time>2021-02-20T13:01:51.000Z</time>
      </trkpt>
      <trkpt lat="45.85196" lon="5.46027">
        <ele>655.4</ele>
        <time>2021-02-20T13:01:52.000Z</time>
      </trkpt>
      <trkpt lat="45.85196" lon="5.46029">
        <ele>655.4</ele>
        <time>2021-02-20T13:01:53.000Z</time>
      </trkpt>
      <trkpt lat="45.85196" lon="5.4603">
        <ele>655.4</ele>
        <time>2021-02-20T13:01:54.000Z</time>
      </trkpt>
      <trkpt lat="45.85197" lon="5.46031">
        <ele>655.8</ele>
        <time>2021-02-20T13:01:55.000Z</time>
      </trkpt>
      <trkpt lat="45.85198" lon="5.46032">
        <ele>656.2</ele>
        <time>2021-02-20T13:01:56.000Z</time>
      </trkpt>
      <trkpt lat="45.85198" lon="5.46034">
        <ele>656.6</ele>
        <time>2021-02-20T13:01:57.000Z</time>
      </trkpt>
      <trkpt lat="45.85199" lon="5.46035">
        <ele>656.8</ele>
        <time>2021-02-20T13:01:58.000Z</time>
      </trkpt>
      <trkpt lat="45.85199" lon="5.46036">
        <ele>657.2</ele>
        <time>2021-02-20T13:01:59.000Z</time>
      </trkpt>
      <trkpt lat="45.85201" lon="5.46055">
        <ele>660.4</ele>
        <time>2021-02-20T13:02:13.000Z</time>
      </trkpt>
      <trkpt lat="45.85201" lon="5.46056">
        <ele>660.6</ele>
        <time>2021-02-20T13:02:14.000Z</time>
      </trkpt>
      <trkpt lat="45.85201" lon="5.46058">
        <ele>660.6</ele>
        <time>2021-02-20T13:02:15.000Z</time>
      </trkpt>
      <trkpt lat="45.85201" lon="5.46059">
        <ele>660.4</ele>
        <time>2021-02-20T13:02:16.000Z</time>
      </trkpt>
      <trkpt lat="45.85201" lon="5.46061">
        <ele>660.8</ele>
        <time>2021-02-20T13:02:17.000Z</time>
      </trkpt>
      <trkpt lat="45.85201" lon="5.46063">
        <ele>660.8</ele>
        <time>2021-02-20T13:02:18.000Z</time>
      </trkpt>
      <trkpt lat="45.85199" lon="5.46065">
        <ele>660.8</ele>
        <time>2021-02-20T13:02:19.000Z</time>
      </trkpt>
      <trkpt lat="45.85199" lon="5.46067">
        <ele>660.8</ele>
        <time>2021-02-20T13:02:20.000Z</time>
      </trkpt>
      <trkpt lat="45.85199" lon="5.46069">
        <ele>661</ele>
        <time>2021-02-20T13:02:21.000Z</time>
      </trkpt>
      <trkpt lat="45.85198" lon="5.46071">
        <ele>661</ele>
        <time>2021-02-20T13:02:22.000Z</time>
      </trkpt>
      <trkpt lat="45.85198" lon="5.46072">
        <ele>661</ele>
        <time>2021-02-20T13:02:23.000Z</time>
      </trkpt>
      <trkpt lat="45.85198" lon="5.46074">
        <ele>661</ele>
        <time>2021-02-20T13:02:24.000Z</time>
      </trkpt>
      <trkpt lat="45.85198" lon="5.46076">
        <ele>661.2</ele>
        <time>2021-02-20T13:02:25.000Z</time>
      </trkpt>
      <trkpt lat="45.85198" lon="5.46077">
        <ele>661.2</ele>
        <time>2021-02-20T13:02:26.000Z</time>
      </trkpt>
      <trkpt lat="45.85197" lon="5.4608">
        <ele>661.4</ele>
        <time>2021-02-20T13:02:27.000Z</time>
      </trkpt>
      <trkpt lat="45.85197" lon="5.46081">
        <ele>661.4</ele>
        <time>2021-02-20T13:02:28.000Z</time>
      </trkpt>
      <trkpt lat="45.85197" lon="5.46084">
        <ele>661.4</ele>
        <time>2021-02-20T13:02:29.000Z</time>
      </trkpt>
      <trkpt lat="45.85197" lon="5.46087">
        <ele>661.6</ele>
        <time>2021-02-20T13:02:30.000Z</time>
      </trkpt>
      <trkpt lat="45.85197" lon="5.46089">
        <ele>661.8</ele>
        <time>2021-02-20T13:02:31.000Z</time>
      </trkpt>
      <trkpt lat="45.85197" lon="5.46092">
        <ele>662</ele>
        <time>2021-02-20T13:02:32.000Z</time>
      </trkpt>
      <trkpt lat="45.85197" lon="5.46094">
        <ele>662.2</ele>
        <time>2021-02-20T13:02:33.000Z</time>
      </trkpt>
      <trkpt lat="45.85197" lon="5.46095">
        <ele>662.4</ele>
        <time>2021-02-20T13:02:34.000Z</time>
      </trkpt>
      <trkpt lat="45.85197" lon="5.46097">
        <ele>662.4</ele>
        <time>2021-02-20T13:02:35.000Z</time>
      </trkpt>
      <trkpt lat="45.85198" lon="5.46099">
        <ele>662.6</ele>
        <time>2021-02-20T13:02:36.000Z</time>
      </trkpt>
      <trkpt lat="45.85199" lon="5.461">
        <ele>662.8</ele>
        <time>2021-02-20T13:02:37.000Z</time>
      </trkpt>
      <trkpt lat="45.85208" lon="5.46116">
        <ele>665.4</ele>
        <time>2021-02-20T13:02:56.000Z</time>
      </trkpt>
      <trkpt lat="45.85208" lon="5.46117">
        <ele>665.4</ele>
        <time>2021-02-20T13:02:58.000Z</time>
      </trkpt>
      <trkpt lat="45.85208" lon="5.4612">
        <ele>665.6</ele>
        <time>2021-02-20T13:02:59.000Z</time>
      </trkpt>
      <trkpt lat="45.85209" lon="5.46122">
        <ele>665.6</ele>
        <time>2021-02-20T13:03:00.000Z</time>
      </trkpt>
      <trkpt lat="45.8521" lon="5.46124">
        <ele>665.6</ele>
        <time>2021-02-20T13:03:01.000Z</time>
      </trkpt>
      <trkpt lat="45.85211" lon="5.46125">
        <ele>665.6</ele>
        <time>2021-02-20T13:03:02.000Z</time>
      </trkpt>
      <trkpt lat="45.85211" lon="5.46127">
        <ele>665.8</ele>
        <time>2021-02-20T13:03:03.000Z</time>
      </trkpt>
      <trkpt lat="45.85211" lon="5.46128">
        <ele>665.8</ele>
        <time>2021-02-20T13:03:04.000Z</time>
      </trkpt>
      <trkpt lat="45.85211" lon="5.46129">
        <ele>666</ele>
        <time>2021-02-20T13:03:05.000Z</time>
      </trkpt>
      <trkpt lat="45.85211" lon="5.46131">
        <ele>666</ele>
        <time>2021-02-20T13:03:06.000Z</time>
      </trkpt>
      <trkpt lat="45.85211" lon="5.46132">
        <ele>666.2</ele>
        <time>2021-02-20T13:03:07.000Z</time>
      </trkpt>
      <trkpt lat="45.85211" lon="5.46134">
        <ele>666.6</ele>
        <time>2021-02-20T13:03:08.000Z</time>
      </trkpt>
      <trkpt lat="45.85212" lon="5.46135">
        <ele>666.6</ele>
        <time>2021-02-20T13:03:09.000Z</time>
      </trkpt>
      <trkpt lat="45.85212" lon="5.46137">
        <ele>667</ele>
        <time>2021-02-20T13:03:10.000Z</time>
      </trkpt>
      <trkpt lat="45.85212" lon="5.46139">
        <ele>667</ele>
        <time>2021-02-20T13:03:11.000Z</time>
      </trkpt>
      <trkpt lat="45.85212" lon="5.46141">
        <ele>667.4</ele>
        <time>2021-02-20T13:03:12.000Z</time>
      </trkpt>
      <trkpt lat="45.85212" lon="5.46143">
        <ele>667.6</ele>
        <time>2021-02-20T13:03:13.000Z</time>
      </trkpt>
      <trkpt lat="45.85212" lon="5.46144">
        <ele>667.8</ele>
        <time>2021-02-20T13:03:14.000Z</time>
      </trkpt>
      <trkpt lat="45.85212" lon="5.46146">
        <ele>668.2</ele>
        <time>2021-02-20T13:03:15.000Z</time>
      </trkpt>
      <trkpt lat="45.85212" lon="5.46147">
        <ele>668.4</ele>
        <time>2021-02-20T13:03:16.000Z</time>
      </trkpt>
      <trkpt lat="45.85211" lon="5.46148">
        <ele>668.6</ele>
        <time>2021-02-20T13:03:17.000Z</time>
      </trkpt>
      <trkpt lat="45.85211" lon="5.46149">
        <ele>669</ele>
        <time>2021-02-20T13:03:18.000Z</time>
      </trkpt>
      <trkpt lat="45.8521" lon="5.4615">
        <ele>669.4</ele>
        <time>2021-02-20T13:03:19.000Z</time>
      </trkpt>
      <trkpt lat="45.8521" lon="5.46151">
        <ele>669.8</ele>
        <time>2021-02-20T13:03:20.000Z</time>
      </trkpt>
      <trkpt lat="45.85209" lon="5.46153">
        <ele>670</ele>
        <time>2021-02-20T13:03:21.000Z</time>
      </trkpt>
      <trkpt lat="45.85209" lon="5.46154">
        <ele>670.2</ele>
        <time>2021-02-20T13:03:22.000Z</time>
      </trkpt>
      <trkpt lat="45.85208" lon="5.46156">
        <ele>670.4</ele>
        <time>2021-02-20T13:03:23.000Z</time>
      </trkpt>
      <trkpt lat="45.85208" lon="5.46158">
        <ele>670.8</ele>
        <time>2021-02-20T13:03:24.000Z</time>
      </trkpt>
      <trkpt lat="45.85208" lon="5.46159">
        <ele>670.8</ele>
        <time>2021-02-20T13:03:25.000Z</time>
      </trkpt>
      <trkpt lat="45.85207" lon="5.46161">
        <ele>671</ele>
        <time>2021-02-20T13:03:26.000Z</time>
      </trkpt>
      <trkpt lat="45.85207" lon="5.46163">
        <ele>671.6</ele>
        <time>2021-02-20T13:03:27.000Z</time>
      </trkpt>
      <trkpt lat="45.85206" lon="5.46165">
        <ele>671.8</ele>
        <time>2021-02-20T13:03:28.000Z</time>
      </trkpt>
      <trkpt lat="45.85206" lon="5.46167">
        <ele>671.8</ele>
        <time>2021-02-20T13:03:29.000Z</time>
      </trkpt>
      <trkpt lat="45.85206" lon="5.46169">
        <ele>672.2</ele>
        <time>2021-02-20T13:03:30.000Z</time>
      </trkpt>
      <trkpt lat="45.85205" lon="5.46171">
        <ele>672.4</ele>
        <time>2021-02-20T13:03:31.000Z</time>
      </trkpt>
      <trkpt lat="45.85203" lon="5.46173">
        <ele>672.6</ele>
        <time>2021-02-20T13:03:32.000Z</time>
      </trkpt>
      <trkpt lat="45.85202" lon="5.46176">
        <ele>673</ele>
        <time>2021-02-20T13:03:33.000Z</time>
      </trkpt>
      <trkpt lat="45.85201" lon="5.46179">
        <ele>673.2</ele>
        <time>2021-02-20T13:03:34.000Z</time>
      </trkpt>
      <trkpt lat="45.852" lon="5.46181">
        <ele>673.4</ele>
        <time>2021-02-20T13:03:35.000Z</time>
      </trkpt>
      <trkpt lat="45.85199" lon="5.46184">
        <ele>673.6</ele>
        <time>2021-02-20T13:03:36.000Z</time>
      </trkpt>
      <trkpt lat="45.85198" lon="5.46188">
        <ele>673.8</ele>
        <time>2021-02-20T13:03:37.000Z</time>
      </trkpt>
      <trkpt lat="45.85198" lon="5.4619">
        <ele>674</ele>
        <time>2021-02-20T13:03:38.000Z</time>
      </trkpt>
      <trkpt lat="45.85197" lon="5.46193">
        <ele>674.2</ele>
        <time>2021-02-20T13:03:39.000Z</time>
      </trkpt>
      <trkpt lat="45.85196" lon="5.46197">
        <ele>674.4</ele>
        <time>2021-02-20T13:03:40.000Z</time>
      </trkpt>
      <trkpt lat="45.85195" lon="5.462">
        <ele>674.8</ele>
        <time>2021-02-20T13:03:41.000Z</time>
      </trkpt>
      <trkpt lat="45.85194" lon="5.46204">
        <ele>674.8</ele>
        <time>2021-02-20T13:03:42.000Z</time>
      </trkpt>
      <trkpt lat="45.85192" lon="5.46208">
        <ele>674.8</ele>
        <time>2021-02-20T13:03:43.000Z</time>
      </trkpt>
      <trkpt lat="45.8519" lon="5.46211">
        <ele>674.8</ele>
        <time>2021-02-20T13:03:44.000Z</time>
      </trkpt>
      <trkpt lat="45.85189" lon="5.46214">
        <ele>675</ele>
        <time>2021-02-20T13:03:45.000Z</time>
      </trkpt>
      <trkpt lat="45.85188" lon="5.46218">
        <ele>675</ele>
        <time>2021-02-20T13:03:46.000Z</time>
      </trkpt>
      <trkpt lat="45.85188" lon="5.46222">
        <ele>675.2</ele>
        <time>2021-02-20T13:03:47.000Z</time>
      </trkpt>
      <trkpt lat="45.85187" lon="5.46226">
        <ele>675.2</ele>
        <time>2021-02-20T13:03:48.000Z</time>
      </trkpt>
      <trkpt lat="45.85186" lon="5.4623">
        <ele>675.4</ele>
        <time>2021-02-20T13:03:49.000Z</time>
      </trkpt>
      <trkpt lat="45.85186" lon="5.46233">
        <ele>675.4</ele>
        <time>2021-02-20T13:03:50.000Z</time>
      </trkpt>
      <trkpt lat="45.85186" lon="5.46235">
        <ele>675.2</ele>
        <time>2021-02-20T13:03:51.000Z</time>
      </trkpt>
      <trkpt lat="45.85186" lon="5.46239">
        <ele>675.6</ele>
        <time>2021-02-20T13:03:52.000Z</time>
      </trkpt>
      <trkpt lat="45.85186" lon="5.46242">
        <ele>675.4</ele>
        <time>2021-02-20T13:03:53.000Z</time>
      </trkpt>
      <trkpt lat="45.85186" lon="5.46246">
        <ele>675.6</ele>
        <time>2021-02-20T13:03:54.000Z</time>
      </trkpt>
      <trkpt lat="45.85188" lon="5.46254">
        <ele>675.4</ele>
        <time>2021-02-20T13:03:56.000Z</time>
      </trkpt>
      <trkpt lat="45.85189" lon="5.46258">
        <ele>675.4</ele>
        <time>2021-02-20T13:03:57.000Z</time>
      </trkpt>
      <trkpt lat="45.85191" lon="5.46261">
        <ele>675.4</ele>
        <time>2021-02-20T13:03:58.000Z</time>
      </trkpt>
      <trkpt lat="45.85192" lon="5.46264">
        <ele>675.4</ele>
        <time>2021-02-20T13:03:59.000Z</time>
      </trkpt>
      <trkpt lat="45.85193" lon="5.46267">
        <ele>675.2</ele>
        <time>2021-02-20T13:04:00.000Z</time>
      </trkpt>
      <trkpt lat="45.85193" lon="5.46269">
        <ele>675.4</ele>
        <time>2021-02-20T13:04:01.000Z</time>
      </trkpt>
      <trkpt lat="45.85194" lon="5.46271">
        <ele>675.4</ele>
        <time>2021-02-20T13:04:02.000Z</time>
      </trkpt>
      <trkpt lat="45.85195" lon="5.46273">
        <ele>675.4</ele>
        <time>2021-02-20T13:04:03.000Z</time>
      </trkpt>
      <trkpt lat="45.85196" lon="5.46278">
        <ele>675.6</ele>
        <time>2021-02-20T13:04:04.000Z</time>
      </trkpt>
      <trkpt lat="45.85198" lon="5.46281">
        <ele>675.6</ele>
        <time>2021-02-20T13:04:05.000Z</time>
      </trkpt>
      <trkpt lat="45.85198" lon="5.46282">
        <ele>675.8</ele>
        <time>2021-02-20T13:04:06.000Z</time>
      </trkpt>
      <trkpt lat="45.85199" lon="5.46285">
        <ele>675.8</ele>
        <time>2021-02-20T13:04:07.000Z</time>
      </trkpt>
      <trkpt lat="45.85201" lon="5.46287">
        <ele>675.8</ele>
        <time>2021-02-20T13:04:08.000Z</time>
      </trkpt>
      <trkpt lat="45.85202" lon="5.46289">
        <ele>675.8</ele>
        <time>2021-02-20T13:04:09.000Z</time>
      </trkpt>
      <trkpt lat="45.85205" lon="5.46295">
        <ele>676</ele>
        <time>2021-02-20T13:04:11.000Z</time>
      </trkpt>
      <trkpt lat="45.85208" lon="5.46297">
        <ele>676.2</ele>
        <time>2021-02-20T13:04:13.000Z</time>
      </trkpt>
      <trkpt lat="45.85209" lon="5.46298">
        <ele>676.2</ele>
        <time>2021-02-20T13:04:14.000Z</time>
      </trkpt>
      <trkpt lat="45.85211" lon="5.463">
        <ele>676.4</ele>
        <time>2021-02-20T13:04:15.000Z</time>
      </trkpt>
      <trkpt lat="45.85214" lon="5.46301">
        <ele>676.6</ele>
        <time>2021-02-20T13:04:16.000Z</time>
      </trkpt>
      <trkpt lat="45.85216" lon="5.46303">
        <ele>676.6</ele>
        <time>2021-02-20T13:04:18.000Z</time>
      </trkpt>
      <trkpt lat="45.85217" lon="5.46304">
        <ele>676.6</ele>
        <time>2021-02-20T13:04:19.000Z</time>
      </trkpt>
      <trkpt lat="45.85218" lon="5.46305">
        <ele>676.8</ele>
        <time>2021-02-20T13:04:20.000Z</time>
      </trkpt>
      <trkpt lat="45.85219" lon="5.46307">
        <ele>677</ele>
        <time>2021-02-20T13:04:21.000Z</time>
      </trkpt>
      <trkpt lat="45.8522" lon="5.46308">
        <ele>677</ele>
        <time>2021-02-20T13:04:22.000Z</time>
      </trkpt>
      <trkpt lat="45.85221" lon="5.46309">
        <ele>677.4</ele>
        <time>2021-02-20T13:04:23.000Z</time>
      </trkpt>
      <trkpt lat="45.85221" lon="5.46311">
        <ele>677.6</ele>
        <time>2021-02-20T13:04:24.000Z</time>
      </trkpt>
      <trkpt lat="45.85222" lon="5.46311">
        <ele>677.8</ele>
        <time>2021-02-20T13:04:25.000Z</time>
      </trkpt>
      <trkpt lat="45.85222" lon="5.46312">
        <ele>678</ele>
        <time>2021-02-20T13:04:26.000Z</time>
      </trkpt>
      <trkpt lat="45.85222" lon="5.46314">
        <ele>678</ele>
        <time>2021-02-20T13:04:27.000Z</time>
      </trkpt>
      <trkpt lat="45.85222" lon="5.46316">
        <ele>678</ele>
        <time>2021-02-20T13:04:28.000Z</time>
      </trkpt>
      <trkpt lat="45.85223" lon="5.46317">
        <ele>678.2</ele>
        <time>2021-02-20T13:04:29.000Z</time>
      </trkpt>
      <trkpt lat="45.85224" lon="5.46318">
        <ele>678.4</ele>
        <time>2021-02-20T13:04:32.000Z</time>
      </trkpt>
      <trkpt lat="45.85224" lon="5.46319">
        <ele>678.6</ele>
        <time>2021-02-20T13:04:33.000Z</time>
      </trkpt>
      <trkpt lat="45.85225" lon="5.4632">
        <ele>678.6</ele>
        <time>2021-02-20T13:04:34.000Z</time>
      </trkpt>
      <trkpt lat="45.85227" lon="5.46321">
        <ele>678.8</ele>
        <time>2021-02-20T13:04:35.000Z</time>
      </trkpt>
      <trkpt lat="45.85229" lon="5.46323">
        <ele>679</ele>
        <time>2021-02-20T13:04:36.000Z</time>
      </trkpt>
      <trkpt lat="45.8523" lon="5.46323">
        <ele>679</ele>
        <time>2021-02-20T13:04:37.000Z</time>
      </trkpt>
      <trkpt lat="45.85231" lon="5.46325">
        <ele>679</ele>
        <time>2021-02-20T13:04:38.000Z</time>
      </trkpt>
      <trkpt lat="45.85232" lon="5.46326">
        <ele>679</ele>
        <time>2021-02-20T13:04:39.000Z</time>
      </trkpt>
      <trkpt lat="45.85234" lon="5.46329">
        <ele>679.4</ele>
        <time>2021-02-20T13:04:41.000Z</time>
      </trkpt>
      <trkpt lat="45.85235" lon="5.4633">
        <ele>679.4</ele>
        <time>2021-02-20T13:04:42.000Z</time>
      </trkpt>
      <trkpt lat="45.85236" lon="5.46332">
        <ele>679.4</ele>
        <time>2021-02-20T13:04:43.000Z</time>
      </trkpt>
      <trkpt lat="45.85238" lon="5.46334">
        <ele>679.6</ele>
        <time>2021-02-20T13:04:44.000Z</time>
      </trkpt>
      <trkpt lat="45.85239" lon="5.46335">
        <ele>679.6</ele>
        <time>2021-02-20T13:04:45.000Z</time>
      </trkpt>
      <trkpt lat="45.8524" lon="5.46336">
        <ele>679.8</ele>
        <time>2021-02-20T13:04:46.000Z</time>
      </trkpt>
      <trkpt lat="45.8524" lon="5.46337">
        <ele>679.8</ele>
        <time>2021-02-20T13:04:47.000Z</time>
      </trkpt>
      <trkpt lat="45.85241" lon="5.46338">
        <ele>679.8</ele>
        <time>2021-02-20T13:04:48.000Z</time>
      </trkpt>
      <trkpt lat="45.85242" lon="5.4634">
        <ele>679.8</ele>
        <time>2021-02-20T13:04:49.000Z</time>
      </trkpt>
      <trkpt lat="45.85242" lon="5.46342">
        <ele>679.8</ele>
        <time>2021-02-20T13:04:50.000Z</time>
      </trkpt>
      <trkpt lat="45.85243" lon="5.46343">
        <ele>680.2</ele>
        <time>2021-02-20T13:04:51.000Z</time>
      </trkpt>
      <trkpt lat="45.85247" lon="5.46346">
        <ele>680.4</ele>
        <time>2021-02-20T13:04:53.000Z</time>
      </trkpt>
      <trkpt lat="45.85248" lon="5.46347">
        <ele>680.4</ele>
        <time>2021-02-20T13:04:54.000Z</time>
      </trkpt>
      <trkpt lat="45.8525" lon="5.46349">
        <ele>680.4</ele>
        <time>2021-02-20T13:04:55.000Z</time>
      </trkpt>
      <trkpt lat="45.85252" lon="5.4635">
        <ele>680.6</ele>
        <time>2021-02-20T13:04:56.000Z</time>
      </trkpt>
      <trkpt lat="45.85253" lon="5.46352">
        <ele>680.8</ele>
        <time>2021-02-20T13:04:57.000Z</time>
      </trkpt>
      <trkpt lat="45.85257" lon="5.46355">
        <ele>681.2</ele>
        <time>2021-02-20T13:04:59.000Z</time>
      </trkpt>
      <trkpt lat="45.8526" lon="5.46357">
        <ele>681.2</ele>
        <time>2021-02-20T13:05:01.000Z</time>
      </trkpt>
      <trkpt lat="45.85261" lon="5.46358">
        <ele>681.2</ele>
        <time>2021-02-20T13:05:02.000Z</time>
      </trkpt>
      <trkpt lat="45.85263" lon="5.46359">
        <ele>681.4</ele>
        <time>2021-02-20T13:05:03.000Z</time>
      </trkpt>
      <trkpt lat="45.85264" lon="5.4636">
        <ele>681.6</ele>
        <time>2021-02-20T13:05:04.000Z</time>
      </trkpt>
      <trkpt lat="45.85265" lon="5.46361">
        <ele>681.6</ele>
        <time>2021-02-20T13:05:05.000Z</time>
      </trkpt>
      <trkpt lat="45.8527" lon="5.46365">
        <ele>681.8</ele>
        <time>2021-02-20T13:05:08.000Z</time>
      </trkpt>
      <trkpt lat="45.85273" lon="5.46367">
        <ele>682</ele>
        <time>2021-02-20T13:05:09.000Z</time>
      </trkpt>
      <trkpt lat="45.85274" lon="5.46368">
        <ele>682</ele>
        <time>2021-02-20T13:05:10.000Z</time>
      </trkpt>
      <trkpt lat="45.85275" lon="5.46368">
        <ele>682.2</ele>
        <time>2021-02-20T13:05:11.000Z</time>
      </trkpt>
      <trkpt lat="45.85278" lon="5.46371">
        <ele>682.6</ele>
        <time>2021-02-20T13:05:13.000Z</time>
      </trkpt>
      <trkpt lat="45.85279" lon="5.46372">
        <ele>682.8</ele>
        <time>2021-02-20T13:05:14.000Z</time>
      </trkpt>
      <trkpt lat="45.85279" lon="5.46373">
        <ele>682.8</ele>
        <time>2021-02-20T13:05:15.000Z</time>
      </trkpt>
      <trkpt lat="45.85281" lon="5.46374">
        <ele>683</ele>
        <time>2021-02-20T13:05:16.000Z</time>
      </trkpt>
      <trkpt lat="45.85282" lon="5.46374">
        <ele>683.2</ele>
        <time>2021-02-20T13:05:17.000Z</time>
      </trkpt>
      <trkpt lat="45.85283" lon="5.46376">
        <ele>683.4</ele>
        <time>2021-02-20T13:05:18.000Z</time>
      </trkpt>
      <trkpt lat="45.85285" lon="5.46378">
        <ele>683.6</ele>
        <time>2021-02-20T13:05:19.000Z</time>
      </trkpt>
      <trkpt lat="45.85286" lon="5.46378">
        <ele>684</ele>
        <time>2021-02-20T13:05:20.000Z</time>
      </trkpt>
      <trkpt lat="45.85288" lon="5.4638">
        <ele>684</ele>
        <time>2021-02-20T13:05:21.000Z</time>
      </trkpt>
      <trkpt lat="45.8529" lon="5.46382">
        <ele>684.2</ele>
        <time>2021-02-20T13:05:22.000Z</time>
      </trkpt>
      <trkpt lat="45.85291" lon="5.46384">
        <ele>684.4</ele>
        <time>2021-02-20T13:05:23.000Z</time>
      </trkpt>
      <trkpt lat="45.85293" lon="5.46386">
        <ele>684.6</ele>
        <time>2021-02-20T13:05:24.000Z</time>
      </trkpt>
      <trkpt lat="45.85295" lon="5.46388">
        <ele>684.8</ele>
        <time>2021-02-20T13:05:25.000Z</time>
      </trkpt>
      <trkpt lat="45.85297" lon="5.46388">
        <ele>684.8</ele>
        <time>2021-02-20T13:05:26.000Z</time>
      </trkpt>
      <trkpt lat="45.85298" lon="5.46389">
        <ele>685</ele>
        <time>2021-02-20T13:05:27.000Z</time>
      </trkpt>
      <trkpt lat="45.85298" lon="5.4639">
        <ele>685</ele>
        <time>2021-02-20T13:05:28.000Z</time>
      </trkpt>
      <trkpt lat="45.853" lon="5.46392">
        <ele>685.4</ele>
        <time>2021-02-20T13:05:29.000Z</time>
      </trkpt>
      <trkpt lat="45.85301" lon="5.46393">
        <ele>685.6</ele>
        <time>2021-02-20T13:05:30.000Z</time>
      </trkpt>
      <trkpt lat="45.85303" lon="5.46394">
        <ele>685.6</ele>
        <time>2021-02-20T13:05:31.000Z</time>
      </trkpt>
      <trkpt lat="45.85304" lon="5.46394">
        <ele>685.6</ele>
        <time>2021-02-20T13:05:33.000Z</time>
      </trkpt>
      <trkpt lat="45.85307" lon="5.46396">
        <ele>686</ele>
        <time>2021-02-20T13:05:34.000Z</time>
      </trkpt>
      <trkpt lat="45.8531" lon="5.46398">
        <ele>686.2</ele>
        <time>2021-02-20T13:05:35.000Z</time>
      </trkpt>
      <trkpt lat="45.85313" lon="5.464">
        <ele>686.6</ele>
        <time>2021-02-20T13:05:36.000Z</time>
      </trkpt>
      <trkpt lat="45.85315" lon="5.46402">
        <ele>686.8</ele>
        <time>2021-02-20T13:05:37.000Z</time>
      </trkpt>
      <trkpt lat="45.85317" lon="5.46404">
        <ele>687</ele>
        <time>2021-02-20T13:05:38.000Z</time>
      </trkpt>
      <trkpt lat="45.8532" lon="5.46406">
        <ele>687.4</ele>
        <time>2021-02-20T13:05:39.000Z</time>
      </trkpt>
      <trkpt lat="45.85322" lon="5.46407">
        <ele>687.4</ele>
        <time>2021-02-20T13:05:40.000Z</time>
      </trkpt>
      <trkpt lat="45.85324" lon="5.4641">
        <ele>687.8</ele>
        <time>2021-02-20T13:05:41.000Z</time>
      </trkpt>
      <trkpt lat="45.85325" lon="5.46411">
        <ele>687.8</ele>
        <time>2021-02-20T13:05:42.000Z</time>
      </trkpt>
      <trkpt lat="45.85327" lon="5.46412">
        <ele>688.2</ele>
        <time>2021-02-20T13:05:43.000Z</time>
      </trkpt>
      <trkpt lat="45.85329" lon="5.46414">
        <ele>688.2</ele>
        <time>2021-02-20T13:05:44.000Z</time>
      </trkpt>
      <trkpt lat="45.8533" lon="5.46415">
        <ele>688.6</ele>
        <time>2021-02-20T13:05:45.000Z</time>
      </trkpt>
      <trkpt lat="45.85332" lon="5.46416">
        <ele>688.6</ele>
        <time>2021-02-20T13:05:46.000Z</time>
      </trkpt>
      <trkpt lat="45.85333" lon="5.46418">
        <ele>688.6</ele>
        <time>2021-02-20T13:05:47.000Z</time>
      </trkpt>
      <trkpt lat="45.85334" lon="5.4642">
        <ele>688.6</ele>
        <time>2021-02-20T13:05:48.000Z</time>
      </trkpt>
      <trkpt lat="45.85336" lon="5.46422">
        <ele>688.8</ele>
        <time>2021-02-20T13:05:49.000Z</time>
      </trkpt>
      <trkpt lat="45.85337" lon="5.46424">
        <ele>689</ele>
        <time>2021-02-20T13:05:50.000Z</time>
      </trkpt>
      <trkpt lat="45.8534" lon="5.46427">
        <ele>689.2</ele>
        <time>2021-02-20T13:05:51.000Z</time>
      </trkpt>
      <trkpt lat="45.85342" lon="5.46428">
        <ele>689.4</ele>
        <time>2021-02-20T13:05:52.000Z</time>
      </trkpt>
      <trkpt lat="45.85343" lon="5.4643">
        <ele>689.6</ele>
        <time>2021-02-20T13:05:53.000Z</time>
      </trkpt>
      <trkpt lat="45.85345" lon="5.46432">
        <ele>689.6</ele>
        <time>2021-02-20T13:05:54.000Z</time>
      </trkpt>
      <trkpt lat="45.85346" lon="5.46434">
        <ele>689.8</ele>
        <time>2021-02-20T13:05:55.000Z</time>
      </trkpt>
      <trkpt lat="45.85347" lon="5.46435">
        <ele>690</ele>
        <time>2021-02-20T13:05:56.000Z</time>
      </trkpt>
      <trkpt lat="45.85348" lon="5.46437">
        <ele>690</ele>
        <time>2021-02-20T13:05:57.000Z</time>
      </trkpt>
      <trkpt lat="45.85349" lon="5.46437">
        <ele>690</ele>
        <time>2021-02-20T13:05:58.000Z</time>
      </trkpt>
      <trkpt lat="45.8535" lon="5.46438">
        <ele>690.2</ele>
        <time>2021-02-20T13:05:59.000Z</time>
      </trkpt>
      <trkpt lat="45.85352" lon="5.46439">
        <ele>690.4</ele>
        <time>2021-02-20T13:06:00.000Z</time>
      </trkpt>
      <trkpt lat="45.85353" lon="5.4644">
        <ele>690.6</ele>
        <time>2021-02-20T13:06:01.000Z</time>
      </trkpt>
      <trkpt lat="45.85354" lon="5.46441">
        <ele>690.8</ele>
        <time>2021-02-20T13:06:02.000Z</time>
      </trkpt>
      <trkpt lat="45.85356" lon="5.46441">
        <ele>690.8</ele>
        <time>2021-02-20T13:06:03.000Z</time>
      </trkpt>
      <trkpt lat="45.85357" lon="5.46441">
        <ele>690.8</ele>
        <time>2021-02-20T13:06:04.000Z</time>
      </trkpt>
      <trkpt lat="45.85359" lon="5.46442">
        <ele>691</ele>
        <time>2021-02-20T13:06:05.000Z</time>
      </trkpt>
      <trkpt lat="45.8536" lon="5.46443">
        <ele>691.2</ele>
        <time>2021-02-20T13:06:06.000Z</time>
      </trkpt>
      <trkpt lat="45.85361" lon="5.46444">
        <ele>691.2</ele>
        <time>2021-02-20T13:06:07.000Z</time>
      </trkpt>
      <trkpt lat="45.85362" lon="5.46444">
        <ele>691.4</ele>
        <time>2021-02-20T13:06:08.000Z</time>
      </trkpt>
      <trkpt lat="45.85363" lon="5.46445">
        <ele>691.6</ele>
        <time>2021-02-20T13:06:09.000Z</time>
      </trkpt>
      <trkpt lat="45.85364" lon="5.46446">
        <ele>691.6</ele>
        <time>2021-02-20T13:06:10.000Z</time>
      </trkpt>
      <trkpt lat="45.85366" lon="5.46448">
        <ele>691.8</ele>
        <time>2021-02-20T13:06:11.000Z</time>
      </trkpt>
      <trkpt lat="45.85368" lon="5.4645">
        <ele>692</ele>
        <time>2021-02-20T13:06:12.000Z</time>
      </trkpt>
      <trkpt lat="45.85369" lon="5.46451">
        <ele>692.6</ele>
        <time>2021-02-20T13:06:13.000Z</time>
      </trkpt>
      <trkpt lat="45.8537" lon="5.46452">
        <ele>692.8</ele>
        <time>2021-02-20T13:06:14.000Z</time>
      </trkpt>
      <trkpt lat="45.85371" lon="5.46453">
        <ele>693</ele>
        <time>2021-02-20T13:06:15.000Z</time>
      </trkpt>
      <trkpt lat="45.85372" lon="5.46453">
        <ele>693.2</ele>
        <time>2021-02-20T13:06:16.000Z</time>
      </trkpt>
      <trkpt lat="45.85373" lon="5.46454">
        <ele>693.6</ele>
        <time>2021-02-20T13:06:17.000Z</time>
      </trkpt>
      <trkpt lat="45.85375" lon="5.46455">
        <ele>694</ele>
        <time>2021-02-20T13:06:19.000Z</time>
      </trkpt>
      <trkpt lat="45.85376" lon="5.46456">
        <ele>694.4</ele>
        <time>2021-02-20T13:06:20.000Z</time>
      </trkpt>
      <trkpt lat="45.85377" lon="5.46457">
        <ele>694.8</ele>
        <time>2021-02-20T13:06:21.000Z</time>
      </trkpt>
      <trkpt lat="45.85378" lon="5.46458">
        <ele>695</ele>
        <time>2021-02-20T13:06:22.000Z</time>
      </trkpt>
      <trkpt lat="45.85379" lon="5.4646">
        <ele>695.4</ele>
        <time>2021-02-20T13:06:23.000Z</time>
      </trkpt>
      <trkpt lat="45.8538" lon="5.46462">
        <ele>696.2</ele>
        <time>2021-02-20T13:06:24.000Z</time>
      </trkpt>
      <trkpt lat="45.85403" lon="5.46474">
        <ele>700.2</ele>
        <time>2021-02-20T13:06:49.000Z</time>
      </trkpt>
      <trkpt lat="45.85404" lon="5.46475">
        <ele>700.6</ele>
        <time>2021-02-20T13:06:50.000Z</time>
      </trkpt>
      <trkpt lat="45.85405" lon="5.46475">
        <ele>700.4</ele>
        <time>2021-02-20T13:06:51.000Z</time>
      </trkpt>
      <trkpt lat="45.85406" lon="5.46475">
        <ele>700.8</ele>
        <time>2021-02-20T13:06:53.000Z</time>
      </trkpt>
      <trkpt lat="45.85408" lon="5.46476">
        <ele>700.8</ele>
        <time>2021-02-20T13:06:54.000Z</time>
      </trkpt>
      <trkpt lat="45.8541" lon="5.46477">
        <ele>700.8</ele>
        <time>2021-02-20T13:06:55.000Z</time>
      </trkpt>
      <trkpt lat="45.85411" lon="5.46478">
        <ele>701</ele>
        <time>2021-02-20T13:06:56.000Z</time>
      </trkpt>
      <trkpt lat="45.85413" lon="5.46479">
        <ele>701</ele>
        <time>2021-02-20T13:06:57.000Z</time>
      </trkpt>
      <trkpt lat="45.85414" lon="5.4648">
        <ele>701</ele>
        <time>2021-02-20T13:06:58.000Z</time>
      </trkpt>
      <trkpt lat="45.85416" lon="5.4648">
        <ele>701.2</ele>
        <time>2021-02-20T13:06:59.000Z</time>
      </trkpt>
      <trkpt lat="45.85417" lon="5.46481">
        <ele>701.2</ele>
        <time>2021-02-20T13:07:00.000Z</time>
      </trkpt>
      <trkpt lat="45.85419" lon="5.46482">
        <ele>701.4</ele>
        <time>2021-02-20T13:07:01.000Z</time>
      </trkpt>
      <trkpt lat="45.85421" lon="5.46482">
        <ele>701.6</ele>
        <time>2021-02-20T13:07:02.000Z</time>
      </trkpt>
      <trkpt lat="45.85422" lon="5.46482">
        <ele>701.8</ele>
        <time>2021-02-20T13:07:03.000Z</time>
      </trkpt>
      <trkpt lat="45.85423" lon="5.46483">
        <ele>702</ele>
        <time>2021-02-20T13:07:04.000Z</time>
      </trkpt>
      <trkpt lat="45.85424" lon="5.46483">
        <ele>702.2</ele>
        <time>2021-02-20T13:07:05.000Z</time>
      </trkpt>
      <trkpt lat="45.85425" lon="5.46483">
        <ele>702.4</ele>
        <time>2021-02-20T13:07:06.000Z</time>
      </trkpt>
      <trkpt lat="45.85426" lon="5.46483">
        <ele>702.4</ele>
        <time>2021-02-20T13:07:07.000Z</time>
      </trkpt>
      <trkpt lat="45.85428" lon="5.46483">
        <ele>702.6</ele>
        <time>2021-02-20T13:07:08.000Z</time>
      </trkpt>
      <trkpt lat="45.85429" lon="5.46483">
        <ele>702.8</ele>
        <time>2021-02-20T13:07:09.000Z</time>
      </trkpt>
      <trkpt lat="45.8543" lon="5.46483">
        <ele>703</ele>
        <time>2021-02-20T13:07:10.000Z</time>
      </trkpt>
      <trkpt lat="45.85431" lon="5.46484">
        <ele>703.2</ele>
        <time>2021-02-20T13:07:11.000Z</time>
      </trkpt>
      <trkpt lat="45.85432" lon="5.46485">
        <ele>703.4</ele>
        <time>2021-02-20T13:07:12.000Z</time>
      </trkpt>
      <trkpt lat="45.85433" lon="5.46486">
        <ele>703.6</ele>
        <time>2021-02-20T13:07:13.000Z</time>
      </trkpt>
      <trkpt lat="45.85435" lon="5.46487">
        <ele>703.8</ele>
        <time>2021-02-20T13:07:14.000Z</time>
      </trkpt>
      <trkpt lat="45.85436" lon="5.46488">
        <ele>704</ele>
        <time>2021-02-20T13:07:15.000Z</time>
      </trkpt>
      <trkpt lat="45.85438" lon="5.4649">
        <ele>704.2</ele>
        <time>2021-02-20T13:07:16.000Z</time>
      </trkpt>
      <trkpt lat="45.85439" lon="5.4649">
        <ele>704.2</ele>
        <time>2021-02-20T13:07:17.000Z</time>
      </trkpt>
      <trkpt lat="45.8544" lon="5.46491">
        <ele>704.4</ele>
        <time>2021-02-20T13:07:18.000Z</time>
      </trkpt>
      <trkpt lat="45.85441" lon="5.46493">
        <ele>704.4</ele>
        <time>2021-02-20T13:07:19.000Z</time>
      </trkpt>
      <trkpt lat="45.85442" lon="5.46495">
        <ele>704.8</ele>
        <time>2021-02-20T13:07:20.000Z</time>
      </trkpt>
      <trkpt lat="45.85443" lon="5.46496">
        <ele>705</ele>
        <time>2021-02-20T13:07:21.000Z</time>
      </trkpt>
      <trkpt lat="45.85444" lon="5.46498">
        <ele>705.2</ele>
        <time>2021-02-20T13:07:22.000Z</time>
      </trkpt>
      <trkpt lat="45.85446" lon="5.46499">
        <ele>705.6</ele>
        <time>2021-02-20T13:07:23.000Z</time>
      </trkpt>
      <trkpt lat="45.85447" lon="5.46501">
        <ele>706</ele>
        <time>2021-02-20T13:07:24.000Z</time>
      </trkpt>
      <trkpt lat="45.85448" lon="5.46503">
        <ele>706.2</ele>
        <time>2021-02-20T13:07:25.000Z</time>
      </trkpt>
      <trkpt lat="45.8545" lon="5.46505">
        <ele>706.4</ele>
        <time>2021-02-20T13:07:26.000Z</time>
      </trkpt>
      <trkpt lat="45.85451" lon="5.46507">
        <ele>706.6</ele>
        <time>2021-02-20T13:07:27.000Z</time>
      </trkpt>
      <trkpt lat="45.85452" lon="5.46509">
        <ele>707</ele>
        <time>2021-02-20T13:07:28.000Z</time>
      </trkpt>
      <trkpt lat="45.85454" lon="5.46511">
        <ele>707.2</ele>
        <time>2021-02-20T13:07:29.000Z</time>
      </trkpt>
      <trkpt lat="45.85455" lon="5.46514">
        <ele>707.2</ele>
        <time>2021-02-20T13:07:30.000Z</time>
      </trkpt>
      <trkpt lat="45.85456" lon="5.46516">
        <ele>707.4</ele>
        <time>2021-02-20T13:07:31.000Z</time>
      </trkpt>
      <trkpt lat="45.85457" lon="5.46519">
        <ele>707.4</ele>
        <time>2021-02-20T13:07:32.000Z</time>
      </trkpt>
      <trkpt lat="45.85457" lon="5.46521">
        <ele>707.8</ele>
        <time>2021-02-20T13:07:33.000Z</time>
      </trkpt>
      <trkpt lat="45.85458" lon="5.46524">
        <ele>707.8</ele>
        <time>2021-02-20T13:07:34.000Z</time>
      </trkpt>
      <trkpt lat="45.85459" lon="5.46527">
        <ele>707.8</ele>
        <time>2021-02-20T13:07:35.000Z</time>
      </trkpt>
      <trkpt lat="45.85459" lon="5.4653">
        <ele>708</ele>
        <time>2021-02-20T13:07:36.000Z</time>
      </trkpt>
      <trkpt lat="45.85459" lon="5.46534">
        <ele>708.2</ele>
        <time>2021-02-20T13:07:37.000Z</time>
      </trkpt>
      <trkpt lat="45.85458" lon="5.46537">
        <ele>708.2</ele>
        <time>2021-02-20T13:07:38.000Z</time>
      </trkpt>
      <trkpt lat="45.85457" lon="5.4654">
        <ele>708.2</ele>
        <time>2021-02-20T13:07:39.000Z</time>
      </trkpt>
      <trkpt lat="45.85457" lon="5.46543">
        <ele>708.4</ele>
        <time>2021-02-20T13:07:40.000Z</time>
      </trkpt>
      <trkpt lat="45.85457" lon="5.46545">
        <ele>708.4</ele>
        <time>2021-02-20T13:07:41.000Z</time>
      </trkpt>
      <trkpt lat="45.85457" lon="5.46547">
        <ele>708.6</ele>
        <time>2021-02-20T13:07:42.000Z</time>
      </trkpt>
      <trkpt lat="45.85457" lon="5.4655">
        <ele>708.8</ele>
        <time>2021-02-20T13:07:43.000Z</time>
      </trkpt>
      <trkpt lat="45.85458" lon="5.46553">
        <ele>708.8</ele>
        <time>2021-02-20T13:07:44.000Z</time>
      </trkpt>
      <trkpt lat="45.85458" lon="5.46556">
        <ele>708.8</ele>
        <time>2021-02-20T13:07:45.000Z</time>
      </trkpt>
      <trkpt lat="45.85458" lon="5.46558">
        <ele>708.8</ele>
        <time>2021-02-20T13:07:46.000Z</time>
      </trkpt>
      <trkpt lat="45.85458" lon="5.4656">
        <ele>709</ele>
        <time>2021-02-20T13:07:47.000Z</time>
      </trkpt>
      <trkpt lat="45.85458" lon="5.46562">
        <ele>709</ele>
        <time>2021-02-20T13:07:48.000Z</time>
      </trkpt>
      <trkpt lat="45.85458" lon="5.46564">
        <ele>709.2</ele>
        <time>2021-02-20T13:07:49.000Z</time>
      </trkpt>
      <trkpt lat="45.85458" lon="5.46565">
        <ele>709.6</ele>
        <time>2021-02-20T13:07:50.000Z</time>
      </trkpt>
      <trkpt lat="45.85458" lon="5.46568">
        <ele>709.8</ele>
        <time>2021-02-20T13:07:51.000Z</time>
      </trkpt>
      <trkpt lat="45.85458" lon="5.4657">
        <ele>710</ele>
        <time>2021-02-20T13:07:52.000Z</time>
      </trkpt>
      <trkpt lat="45.85458" lon="5.46572">
        <ele>710.2</ele>
        <time>2021-02-20T13:07:53.000Z</time>
      </trkpt>
      <trkpt lat="45.85458" lon="5.46573">
        <ele>710.6</ele>
        <time>2021-02-20T13:07:54.000Z</time>
      </trkpt>
      <trkpt lat="45.85458" lon="5.46579">
        <ele>710.6</ele>
        <time>2021-02-20T13:07:57.000Z</time>
      </trkpt>
      <trkpt lat="45.85457" lon="5.46581">
        <ele>711</ele>
        <time>2021-02-20T13:07:58.000Z</time>
      </trkpt>
      <trkpt lat="45.85457" lon="5.46583">
        <ele>711</ele>
        <time>2021-02-20T13:07:59.000Z</time>
      </trkpt>
      <trkpt lat="45.85457" lon="5.46585">
        <ele>711.2</ele>
        <time>2021-02-20T13:08:00.000Z</time>
      </trkpt>
      <trkpt lat="45.85457" lon="5.46586">
        <ele>711.4</ele>
        <time>2021-02-20T13:08:01.000Z</time>
      </trkpt>
      <trkpt lat="45.85456" lon="5.4659">
        <ele>711.8</ele>
        <time>2021-02-20T13:08:04.000Z</time>
      </trkpt>
      <trkpt lat="45.85457" lon="5.46591">
        <ele>712</ele>
        <time>2021-02-20T13:08:05.000Z</time>
      </trkpt>
      <trkpt lat="45.85456" lon="5.46594">
        <ele>712</ele>
        <time>2021-02-20T13:08:06.000Z</time>
      </trkpt>
      <trkpt lat="45.85452" lon="5.46618">
        <ele>714.6</ele>
        <time>2021-02-20T13:08:22.000Z</time>
      </trkpt>
      <trkpt lat="45.85451" lon="5.4662">
        <ele>715</ele>
        <time>2021-02-20T13:08:23.000Z</time>
      </trkpt>
      <trkpt lat="45.85451" lon="5.46621">
        <ele>715</ele>
        <time>2021-02-20T13:08:24.000Z</time>
      </trkpt>
      <trkpt lat="45.8545" lon="5.46622">
        <ele>715.2</ele>
        <time>2021-02-20T13:08:25.000Z</time>
      </trkpt>
      <trkpt lat="45.85451" lon="5.46635">
        <ele>717</ele>
        <time>2021-02-20T13:08:39.000Z</time>
      </trkpt>
      <trkpt lat="45.85451" lon="5.46636">
        <ele>717.2</ele>
        <time>2021-02-20T13:08:40.000Z</time>
      </trkpt>
      <trkpt lat="45.85451" lon="5.46638">
        <ele>717.4</ele>
        <time>2021-02-20T13:08:41.000Z</time>
      </trkpt>
      <trkpt lat="45.85451" lon="5.46639">
        <ele>717.4</ele>
        <time>2021-02-20T13:08:42.000Z</time>
      </trkpt>
      <trkpt lat="45.85452" lon="5.4664">
        <ele>717.4</ele>
        <time>2021-02-20T13:08:43.000Z</time>
      </trkpt>
      <trkpt lat="45.85452" lon="5.46642">
        <ele>717.4</ele>
        <time>2021-02-20T13:08:44.000Z</time>
      </trkpt>
      <trkpt lat="45.85452" lon="5.46644">
        <ele>717.2</ele>
        <time>2021-02-20T13:08:45.000Z</time>
      </trkpt>
      <trkpt lat="45.85452" lon="5.46646">
        <ele>717.4</ele>
        <time>2021-02-20T13:08:46.000Z</time>
      </trkpt>
      <trkpt lat="45.85452" lon="5.46647">
        <ele>717.6</ele>
        <time>2021-02-20T13:08:47.000Z</time>
      </trkpt>
      <trkpt lat="45.85451" lon="5.46647">
        <ele>717.6</ele>
        <time>2021-02-20T13:08:48.000Z</time>
      </trkpt>
      <trkpt lat="45.8545" lon="5.46654">
        <ele>718.4</ele>
        <time>2021-02-20T13:08:55.000Z</time>
      </trkpt>
      <trkpt lat="45.8545" lon="5.46657">
        <ele>718.4</ele>
        <time>2021-02-20T13:08:57.000Z</time>
      </trkpt>
      <trkpt lat="45.8545" lon="5.46658">
        <ele>718.4</ele>
        <time>2021-02-20T13:08:58.000Z</time>
      </trkpt>
      <trkpt lat="45.8545" lon="5.4666">
        <ele>718.6</ele>
        <time>2021-02-20T13:08:59.000Z</time>
      </trkpt>
      <trkpt lat="45.8545" lon="5.46662">
        <ele>718.4</ele>
        <time>2021-02-20T13:09:00.000Z</time>
      </trkpt>
      <trkpt lat="45.8545" lon="5.46664">
        <ele>718.6</ele>
        <time>2021-02-20T13:09:01.000Z</time>
      </trkpt>
      <trkpt lat="45.8545" lon="5.46665">
        <ele>718.4</ele>
        <time>2021-02-20T13:09:02.000Z</time>
      </trkpt>
      <trkpt lat="45.85449" lon="5.46668">
        <ele>718.6</ele>
        <time>2021-02-20T13:09:03.000Z</time>
      </trkpt>
      <trkpt lat="45.85449" lon="5.46669">
        <ele>718.6</ele>
        <time>2021-02-20T13:09:04.000Z</time>
      </trkpt>
      <trkpt lat="45.85449" lon="5.46671">
        <ele>718.8</ele>
        <time>2021-02-20T13:09:05.000Z</time>
      </trkpt>
      <trkpt lat="45.85447" lon="5.46676">
        <ele>719</ele>
        <time>2021-02-20T13:09:08.000Z</time>
      </trkpt>
      <trkpt lat="45.85447" lon="5.46678">
        <ele>719</ele>
        <time>2021-02-20T13:09:09.000Z</time>
      </trkpt>
      <trkpt lat="45.85446" lon="5.4668">
        <ele>719.4</ele>
        <time>2021-02-20T13:09:10.000Z</time>
      </trkpt>
      <trkpt lat="45.85445" lon="5.46683">
        <ele>719.6</ele>
        <time>2021-02-20T13:09:12.000Z</time>
      </trkpt>
      <trkpt lat="45.85445" lon="5.46685">
        <ele>719.6</ele>
        <time>2021-02-20T13:09:13.000Z</time>
      </trkpt>
      <trkpt lat="45.85444" lon="5.46686">
        <ele>719.8</ele>
        <time>2021-02-20T13:09:14.000Z</time>
      </trkpt>
      <trkpt lat="45.85442" lon="5.46689">
        <ele>720</ele>
        <time>2021-02-20T13:09:15.000Z</time>
      </trkpt>
      <trkpt lat="45.85441" lon="5.4669">
        <ele>720</ele>
        <time>2021-02-20T13:09:16.000Z</time>
      </trkpt>
      <trkpt lat="45.85441" lon="5.46692">
        <ele>720.4</ele>
        <time>2021-02-20T13:09:17.000Z</time>
      </trkpt>
      <trkpt lat="45.8544" lon="5.46694">
        <ele>720.6</ele>
        <time>2021-02-20T13:09:18.000Z</time>
      </trkpt>
      <trkpt lat="45.85439" lon="5.46696">
        <ele>720.6</ele>
        <time>2021-02-20T13:09:19.000Z</time>
      </trkpt>
      <trkpt lat="45.85437" lon="5.46698">
        <ele>721</ele>
        <time>2021-02-20T13:09:20.000Z</time>
      </trkpt>
      <trkpt lat="45.85436" lon="5.46699">
        <ele>721</ele>
        <time>2021-02-20T13:09:21.000Z</time>
      </trkpt>
      <trkpt lat="45.85435" lon="5.467">
        <ele>721</ele>
        <time>2021-02-20T13:09:22.000Z</time>
      </trkpt>
      <trkpt lat="45.85433" lon="5.46702">
        <ele>721.2</ele>
        <time>2021-02-20T13:09:23.000Z</time>
      </trkpt>
      <trkpt lat="45.85432" lon="5.46704">
        <ele>721.2</ele>
        <time>2021-02-20T13:09:24.000Z</time>
      </trkpt>
      <trkpt lat="45.85431" lon="5.46705">
        <ele>721.4</ele>
        <time>2021-02-20T13:09:25.000Z</time>
      </trkpt>
      <trkpt lat="45.8543" lon="5.46707">
        <ele>721.4</ele>
        <time>2021-02-20T13:09:26.000Z</time>
      </trkpt>
      <trkpt lat="45.85429" lon="5.46708">
        <ele>721.8</ele>
        <time>2021-02-20T13:09:27.000Z</time>
      </trkpt>
      <trkpt lat="45.85428" lon="5.46709">
        <ele>722</ele>
        <time>2021-02-20T13:09:28.000Z</time>
      </trkpt>
      <trkpt lat="45.85428" lon="5.4671">
        <ele>722</ele>
        <time>2021-02-20T13:09:29.000Z</time>
      </trkpt>
      <trkpt lat="45.8542" lon="5.46721">
        <ele>723.6</ele>
        <time>2021-02-20T13:10:56.000Z</time>
      </trkpt>
      <trkpt lat="45.8542" lon="5.46722">
        <ele>723.8</ele>
        <time>2021-02-20T13:10:57.000Z</time>
      </trkpt>
      <trkpt lat="45.85419" lon="5.46725">
        <ele>723.6</ele>
        <time>2021-02-20T13:10:59.000Z</time>
      </trkpt>
      <trkpt lat="45.85418" lon="5.46726">
        <ele>723.8</ele>
        <time>2021-02-20T13:11:00.000Z</time>
      </trkpt>
      <trkpt lat="45.85417" lon="5.46727">
        <ele>723.8</ele>
        <time>2021-02-20T13:11:01.000Z</time>
      </trkpt>
      <trkpt lat="45.85416" lon="5.46729">
        <ele>724</ele>
        <time>2021-02-20T13:11:02.000Z</time>
      </trkpt>
      <trkpt lat="45.85415" lon="5.46731">
        <ele>724.2</ele>
        <time>2021-02-20T13:11:03.000Z</time>
      </trkpt>
      <trkpt lat="45.85412" lon="5.46735">
        <ele>725</ele>
        <time>2021-02-20T13:11:06.000Z</time>
      </trkpt>
      <trkpt lat="45.85412" lon="5.46736">
        <ele>725</ele>
        <time>2021-02-20T13:11:07.000Z</time>
      </trkpt>
      <trkpt lat="45.85413" lon="5.46737">
        <ele>725.4</ele>
        <time>2021-02-20T13:11:08.000Z</time>
      </trkpt>
      <trkpt lat="45.85412" lon="5.46739">
        <ele>725.2</ele>
        <time>2021-02-20T13:11:09.000Z</time>
      </trkpt>
      <trkpt lat="45.85412" lon="5.4674">
        <ele>725.2</ele>
        <time>2021-02-20T13:11:10.000Z</time>
      </trkpt>
      <trkpt lat="45.85411" lon="5.46741">
        <ele>725.6</ele>
        <time>2021-02-20T13:11:11.000Z</time>
      </trkpt>
      <trkpt lat="45.85412" lon="5.46743">
        <ele>725.6</ele>
        <time>2021-02-20T13:11:12.000Z</time>
      </trkpt>
      <trkpt lat="45.85411" lon="5.46744">
        <ele>726</ele>
        <time>2021-02-20T13:11:13.000Z</time>
      </trkpt>
      <trkpt lat="45.85411" lon="5.46745">
        <ele>726.4</ele>
        <time>2021-02-20T13:11:14.000Z</time>
      </trkpt>
      <trkpt lat="45.85411" lon="5.46748">
        <ele>726.4</ele>
        <time>2021-02-20T13:11:15.000Z</time>
      </trkpt>
      <trkpt lat="45.8541" lon="5.4675">
        <ele>726.8</ele>
        <time>2021-02-20T13:11:16.000Z</time>
      </trkpt>
      <trkpt lat="45.85409" lon="5.46753">
        <ele>727</ele>
        <time>2021-02-20T13:11:17.000Z</time>
      </trkpt>
      <trkpt lat="45.85408" lon="5.46755">
        <ele>727.4</ele>
        <time>2021-02-20T13:11:18.000Z</time>
      </trkpt>
      <trkpt lat="45.85407" lon="5.46757">
        <ele>727.6</ele>
        <time>2021-02-20T13:11:19.000Z</time>
      </trkpt>
      <trkpt lat="45.85406" lon="5.46758">
        <ele>728</ele>
        <time>2021-02-20T13:11:20.000Z</time>
      </trkpt>
      <trkpt lat="45.85406" lon="5.4676">
        <ele>728.2</ele>
        <time>2021-02-20T13:11:21.000Z</time>
      </trkpt>
      <trkpt lat="45.85405" lon="5.46761">
        <ele>728.4</ele>
        <time>2021-02-20T13:11:22.000Z</time>
      </trkpt>
      <trkpt lat="45.85404" lon="5.46762">
        <ele>728.6</ele>
        <time>2021-02-20T13:11:23.000Z</time>
      </trkpt>
      <trkpt lat="45.85403" lon="5.46763">
        <ele>729</ele>
        <time>2021-02-20T13:11:24.000Z</time>
      </trkpt>
      <trkpt lat="45.85403" lon="5.46764">
        <ele>729.2</ele>
        <time>2021-02-20T13:11:25.000Z</time>
      </trkpt>
      <trkpt lat="45.85402" lon="5.46765">
        <ele>729.4</ele>
        <time>2021-02-20T13:11:26.000Z</time>
      </trkpt>
      <trkpt lat="45.85401" lon="5.46765">
        <ele>729.6</ele>
        <time>2021-02-20T13:11:27.000Z</time>
      </trkpt>
      <trkpt lat="45.854" lon="5.46767">
        <ele>729.8</ele>
        <time>2021-02-20T13:11:28.000Z</time>
      </trkpt>
      <trkpt lat="45.854" lon="5.46769">
        <ele>729.8</ele>
        <time>2021-02-20T13:11:29.000Z</time>
      </trkpt>
      <trkpt lat="45.85399" lon="5.4677">
        <ele>730.2</ele>
        <time>2021-02-20T13:11:30.000Z</time>
      </trkpt>
      <trkpt lat="45.854" lon="5.46773">
        <ele>730.6</ele>
        <time>2021-02-20T13:11:31.000Z</time>
      </trkpt>
      <trkpt lat="45.85399" lon="5.46775">
        <ele>730.8</ele>
        <time>2021-02-20T13:11:32.000Z</time>
      </trkpt>
      <trkpt lat="45.85398" lon="5.46778">
        <ele>731</ele>
        <time>2021-02-20T13:11:33.000Z</time>
      </trkpt>
      <trkpt lat="45.85398" lon="5.46779">
        <ele>731.4</ele>
        <time>2021-02-20T13:11:34.000Z</time>
      </trkpt>
      <trkpt lat="45.85398" lon="5.46782">
        <ele>731.8</ele>
        <time>2021-02-20T13:11:35.000Z</time>
      </trkpt>
      <trkpt lat="45.85397" lon="5.46785">
        <ele>731.8</ele>
        <time>2021-02-20T13:11:36.000Z</time>
      </trkpt>
      <trkpt lat="45.85397" lon="5.46787">
        <ele>731.8</ele>
        <time>2021-02-20T13:11:37.000Z</time>
      </trkpt>
      <trkpt lat="45.85396" lon="5.46789">
        <ele>732</ele>
        <time>2021-02-20T13:11:38.000Z</time>
      </trkpt>
      <trkpt lat="45.85397" lon="5.46792">
        <ele>732</ele>
        <time>2021-02-20T13:11:39.000Z</time>
      </trkpt>
      <trkpt lat="45.85398" lon="5.46794">
        <ele>732</ele>
        <time>2021-02-20T13:11:40.000Z</time>
      </trkpt>
      <trkpt lat="45.85398" lon="5.46796">
        <ele>732</ele>
        <time>2021-02-20T13:11:41.000Z</time>
      </trkpt>
      <trkpt lat="45.85399" lon="5.46798">
        <ele>732</ele>
        <time>2021-02-20T13:11:42.000Z</time>
      </trkpt>
      <trkpt lat="45.854" lon="5.46799">
        <ele>732</ele>
        <time>2021-02-20T13:11:43.000Z</time>
      </trkpt>
      <trkpt lat="45.85403" lon="5.46802">
        <ele>732.2</ele>
        <time>2021-02-20T13:11:44.000Z</time>
      </trkpt>
      <trkpt lat="45.85404" lon="5.46802">
        <ele>732.2</ele>
        <time>2021-02-20T13:11:45.000Z</time>
      </trkpt>
      <trkpt lat="45.85405" lon="5.46802">
        <ele>732.2</ele>
        <time>2021-02-20T13:11:46.000Z</time>
      </trkpt>
      <trkpt lat="45.85406" lon="5.46801">
        <ele>732.2</ele>
        <time>2021-02-20T13:11:47.000Z</time>
      </trkpt>
      <trkpt lat="45.85408" lon="5.46801">
        <ele>732.2</ele>
        <time>2021-02-20T13:11:48.000Z</time>
      </trkpt>
      <trkpt lat="45.85409" lon="5.468">
        <ele>732.2</ele>
        <time>2021-02-20T13:11:49.000Z</time>
      </trkpt>
      <trkpt lat="45.8541" lon="5.46799">
        <ele>732.2</ele>
        <time>2021-02-20T13:11:50.000Z</time>
      </trkpt>
      <trkpt lat="45.85411" lon="5.46798">
        <ele>732.6</ele>
        <time>2021-02-20T13:11:52.000Z</time>
      </trkpt>
      <trkpt lat="45.85412" lon="5.46797">
        <ele>732.6</ele>
        <time>2021-02-20T13:11:53.000Z</time>
      </trkpt>
      <trkpt lat="45.85412" lon="5.46796">
        <ele>732.8</ele>
        <time>2021-02-20T13:11:54.000Z</time>
      </trkpt>
      <trkpt lat="45.85413" lon="5.46795">
        <ele>733</ele>
        <time>2021-02-20T13:11:55.000Z</time>
      </trkpt>
      <trkpt lat="45.85415" lon="5.46795">
        <ele>733</ele>
        <time>2021-02-20T13:11:56.000Z</time>
      </trkpt>
      <trkpt lat="45.85416" lon="5.46794">
        <ele>733.2</ele>
        <time>2021-02-20T13:11:57.000Z</time>
      </trkpt>
      <trkpt lat="45.85417" lon="5.46794">
        <ele>733.4</ele>
        <time>2021-02-20T13:11:59.000Z</time>
      </trkpt>
      <trkpt lat="45.85418" lon="5.46793">
        <ele>733.6</ele>
        <time>2021-02-20T13:12:00.000Z</time>
      </trkpt>
      <trkpt lat="45.85419" lon="5.46793">
        <ele>734</ele>
        <time>2021-02-20T13:12:01.000Z</time>
      </trkpt>
      <trkpt lat="45.85421" lon="5.46793">
        <ele>734</ele>
        <time>2021-02-20T13:12:02.000Z</time>
      </trkpt>
      <trkpt lat="45.85423" lon="5.46792">
        <ele>734.4</ele>
        <time>2021-02-20T13:12:03.000Z</time>
      </trkpt>
      <trkpt lat="45.85424" lon="5.46791">
        <ele>734.4</ele>
        <time>2021-02-20T13:12:04.000Z</time>
      </trkpt>
      <trkpt lat="45.85426" lon="5.4679">
        <ele>734.8</ele>
        <time>2021-02-20T13:12:05.000Z</time>
      </trkpt>
      <trkpt lat="45.85428" lon="5.4679">
        <ele>735</ele>
        <time>2021-02-20T13:12:06.000Z</time>
      </trkpt>
      <trkpt lat="45.85429" lon="5.46789">
        <ele>735.2</ele>
        <time>2021-02-20T13:12:08.000Z</time>
      </trkpt>
      <trkpt lat="45.8543" lon="5.46789">
        <ele>735.2</ele>
        <time>2021-02-20T13:12:09.000Z</time>
      </trkpt>
      <trkpt lat="45.85432" lon="5.46788">
        <ele>735.4</ele>
        <time>2021-02-20T13:12:10.000Z</time>
      </trkpt>
      <trkpt lat="45.85433" lon="5.46788">
        <ele>735.8</ele>
        <time>2021-02-20T13:12:11.000Z</time>
      </trkpt>
      <trkpt lat="45.85435" lon="5.46788">
        <ele>735.8</ele>
        <time>2021-02-20T13:12:12.000Z</time>
      </trkpt>
      <trkpt lat="45.85436" lon="5.46788">
        <ele>736.2</ele>
        <time>2021-02-20T13:12:13.000Z</time>
      </trkpt>
      <trkpt lat="45.85438" lon="5.46788">
        <ele>736.2</ele>
        <time>2021-02-20T13:12:14.000Z</time>
      </trkpt>
      <trkpt lat="45.85466" lon="5.468">
        <ele>741.6</ele>
        <time>2021-02-20T13:12:51.000Z</time>
      </trkpt>
      <trkpt lat="45.85467" lon="5.468">
        <ele>741.6</ele>
        <time>2021-02-20T13:12:52.000Z</time>
      </trkpt>
      <trkpt lat="45.85468" lon="5.468">
        <ele>742</ele>
        <time>2021-02-20T13:12:53.000Z</time>
      </trkpt>
      <trkpt lat="45.85469" lon="5.468">
        <ele>741.8</ele>
        <time>2021-02-20T13:12:54.000Z</time>
      </trkpt>
      <trkpt lat="45.8547" lon="5.468">
        <ele>742</ele>
        <time>2021-02-20T13:12:56.000Z</time>
      </trkpt>
      <trkpt lat="45.85471" lon="5.46799">
        <ele>742.2</ele>
        <time>2021-02-20T13:12:57.000Z</time>
      </trkpt>
      <trkpt lat="45.85473" lon="5.468">
        <ele>742.4</ele>
        <time>2021-02-20T13:12:59.000Z</time>
      </trkpt>
      <trkpt lat="45.85477" lon="5.46801">
        <ele>742.6</ele>
        <time>2021-02-20T13:13:03.000Z</time>
      </trkpt>
      <trkpt lat="45.8548" lon="5.46802">
        <ele>742.8</ele>
        <time>2021-02-20T13:13:05.000Z</time>
      </trkpt>
      <trkpt lat="45.85481" lon="5.46803">
        <ele>742.8</ele>
        <time>2021-02-20T13:13:06.000Z</time>
      </trkpt>
      <trkpt lat="45.85486" lon="5.46805">
        <ele>743.2</ele>
        <time>2021-02-20T13:13:09.000Z</time>
      </trkpt>
      <trkpt lat="45.85487" lon="5.46806">
        <ele>743.2</ele>
        <time>2021-02-20T13:13:10.000Z</time>
      </trkpt>
      <trkpt lat="45.85488" lon="5.46807">
        <ele>743.4</ele>
        <time>2021-02-20T13:13:11.000Z</time>
      </trkpt>
      <trkpt lat="45.8549" lon="5.46807">
        <ele>743.4</ele>
        <time>2021-02-20T13:13:12.000Z</time>
      </trkpt>
      <trkpt lat="45.85491" lon="5.46808">
        <ele>743.6</ele>
        <time>2021-02-20T13:13:13.000Z</time>
      </trkpt>
      <trkpt lat="45.85492" lon="5.46809">
        <ele>743.8</ele>
        <time>2021-02-20T13:13:14.000Z</time>
      </trkpt>
      <trkpt lat="45.85493" lon="5.4681">
        <ele>744.2</ele>
        <time>2021-02-20T13:13:15.000Z</time>
      </trkpt>
      <trkpt lat="45.85494" lon="5.46811">
        <ele>744.2</ele>
        <time>2021-02-20T13:13:16.000Z</time>
      </trkpt>
      <trkpt lat="45.85495" lon="5.46813">
        <ele>744.4</ele>
        <time>2021-02-20T13:13:17.000Z</time>
      </trkpt>
      <trkpt lat="45.85496" lon="5.46815">
        <ele>744.6</ele>
        <time>2021-02-20T13:13:18.000Z</time>
      </trkpt>
      <trkpt lat="45.85497" lon="5.46816">
        <ele>744.8</ele>
        <time>2021-02-20T13:13:19.000Z</time>
      </trkpt>
      <trkpt lat="45.85498" lon="5.46817">
        <ele>745</ele>
        <time>2021-02-20T13:13:20.000Z</time>
      </trkpt>
      <trkpt lat="45.85499" lon="5.46819">
        <ele>745.4</ele>
        <time>2021-02-20T13:13:21.000Z</time>
      </trkpt>
      <trkpt lat="45.85501" lon="5.46821">
        <ele>745.8</ele>
        <time>2021-02-20T13:13:22.000Z</time>
      </trkpt>
      <trkpt lat="45.85502" lon="5.46822">
        <ele>746</ele>
        <time>2021-02-20T13:13:23.000Z</time>
      </trkpt>
      <trkpt lat="45.85504" lon="5.46823">
        <ele>746</ele>
        <time>2021-02-20T13:13:24.000Z</time>
      </trkpt>
      <trkpt lat="45.85505" lon="5.46825">
        <ele>746</ele>
        <time>2021-02-20T13:13:25.000Z</time>
      </trkpt>
      <trkpt lat="45.85507" lon="5.46827">
        <ele>746.2</ele>
        <time>2021-02-20T13:13:26.000Z</time>
      </trkpt>
      <trkpt lat="45.85509" lon="5.46827">
        <ele>746.4</ele>
        <time>2021-02-20T13:13:27.000Z</time>
      </trkpt>
      <trkpt lat="45.8551" lon="5.46827">
        <ele>746.4</ele>
        <time>2021-02-20T13:13:28.000Z</time>
      </trkpt>
      <trkpt lat="45.85512" lon="5.46827">
        <ele>746.4</ele>
        <time>2021-02-20T13:13:29.000Z</time>
      </trkpt>
      <trkpt lat="45.85513" lon="5.46827">
        <ele>746.6</ele>
        <time>2021-02-20T13:13:30.000Z</time>
      </trkpt>
      <trkpt lat="45.85515" lon="5.46827">
        <ele>746.8</ele>
        <time>2021-02-20T13:13:31.000Z</time>
      </trkpt>
      <trkpt lat="45.85516" lon="5.46827">
        <ele>746.8</ele>
        <time>2021-02-20T13:13:32.000Z</time>
      </trkpt>
      <trkpt lat="45.85517" lon="5.46827">
        <ele>747</ele>
        <time>2021-02-20T13:13:34.000Z</time>
      </trkpt>
      <trkpt lat="45.85518" lon="5.46827">
        <ele>747</ele>
        <time>2021-02-20T13:13:35.000Z</time>
      </trkpt>
      <trkpt lat="45.85542" lon="5.4683">
        <ele>753.4</ele>
        <time>2021-02-20T13:14:27.000Z</time>
      </trkpt>
      <trkpt lat="45.85544" lon="5.4683">
        <ele>753.6</ele>
        <time>2021-02-20T13:14:29.000Z</time>
      </trkpt>
      <trkpt lat="45.85552" lon="5.46831">
        <ele>755.2</ele>
        <time>2021-02-20T13:14:43.000Z</time>
      </trkpt>
      <trkpt lat="45.85558" lon="5.46831">
        <ele>755.6</ele>
        <time>2021-02-20T13:14:48.000Z</time>
      </trkpt>
      <trkpt lat="45.8556" lon="5.46831">
        <ele>755.4</ele>
        <time>2021-02-20T13:14:49.000Z</time>
      </trkpt>
      <trkpt lat="45.85561" lon="5.46831">
        <ele>755.6</ele>
        <time>2021-02-20T13:14:50.000Z</time>
      </trkpt>
      <trkpt lat="45.85562" lon="5.46831">
        <ele>755.6</ele>
        <time>2021-02-20T13:14:51.000Z</time>
      </trkpt>
      <trkpt lat="45.85563" lon="5.46832">
        <ele>755.6</ele>
        <time>2021-02-20T13:14:52.000Z</time>
      </trkpt>
      <trkpt lat="45.85565" lon="5.46832">
        <ele>756</ele>
        <time>2021-02-20T13:14:53.000Z</time>
      </trkpt>
      <trkpt lat="45.85566" lon="5.46833">
        <ele>756.2</ele>
        <time>2021-02-20T13:14:54.000Z</time>
      </trkpt>
      <trkpt lat="45.85567" lon="5.46833">
        <ele>756.2</ele>
        <time>2021-02-20T13:14:55.000Z</time>
      </trkpt>
      <trkpt lat="45.85569" lon="5.46833">
        <ele>756.6</ele>
        <time>2021-02-20T13:14:56.000Z</time>
      </trkpt>
      <trkpt lat="45.8557" lon="5.46833">
        <ele>757</ele>
        <time>2021-02-20T13:14:57.000Z</time>
      </trkpt>
      <trkpt lat="45.85571" lon="5.46833">
        <ele>757.2</ele>
        <time>2021-02-20T13:14:58.000Z</time>
      </trkpt>
      <trkpt lat="45.85572" lon="5.46834">
        <ele>757.4</ele>
        <time>2021-02-20T13:14:59.000Z</time>
      </trkpt>
      <trkpt lat="45.85573" lon="5.46834">
        <ele>757.6</ele>
        <time>2021-02-20T13:15:00.000Z</time>
      </trkpt>
      <trkpt lat="45.85575" lon="5.46834">
        <ele>757.8</ele>
        <time>2021-02-20T13:15:01.000Z</time>
      </trkpt>
      <trkpt lat="45.85576" lon="5.46835">
        <ele>758</ele>
        <time>2021-02-20T13:15:02.000Z</time>
      </trkpt>
      <trkpt lat="45.85577" lon="5.46835">
        <ele>758.2</ele>
        <time>2021-02-20T13:15:03.000Z</time>
      </trkpt>
      <trkpt lat="45.85579" lon="5.46836">
        <ele>758.2</ele>
        <time>2021-02-20T13:15:04.000Z</time>
      </trkpt>
      <trkpt lat="45.8558" lon="5.46837">
        <ele>758.6</ele>
        <time>2021-02-20T13:15:06.000Z</time>
      </trkpt>
      <trkpt lat="45.85581" lon="5.46839">
        <ele>758.6</ele>
        <time>2021-02-20T13:15:07.000Z</time>
      </trkpt>
      <trkpt lat="45.85582" lon="5.46839">
        <ele>759</ele>
        <time>2021-02-20T13:15:08.000Z</time>
      </trkpt>
      <trkpt lat="45.85583" lon="5.4684">
        <ele>759.2</ele>
        <time>2021-02-20T13:15:09.000Z</time>
      </trkpt>
      <trkpt lat="45.85584" lon="5.46841">
        <ele>759.2</ele>
        <time>2021-02-20T13:15:10.000Z</time>
      </trkpt>
      <trkpt lat="45.85589" lon="5.46851">
        <ele>762.8</ele>
        <time>2021-02-20T13:15:43.000Z</time>
      </trkpt>
      <trkpt lat="45.8559" lon="5.46852">
        <ele>762.8</ele>
        <time>2021-02-20T13:15:44.000Z</time>
      </trkpt>
      <trkpt lat="45.8559" lon="5.46853">
        <ele>762.8</ele>
        <time>2021-02-20T13:15:45.000Z</time>
      </trkpt>
      <trkpt lat="45.85591" lon="5.46854">
        <ele>762.8</ele>
        <time>2021-02-20T13:15:46.000Z</time>
      </trkpt>
      <trkpt lat="45.85592" lon="5.46856">
        <ele>763.2</ele>
        <time>2021-02-20T13:15:48.000Z</time>
      </trkpt>
      <trkpt lat="45.856" lon="5.46861">
        <ele>765.4</ele>
        <time>2021-02-20T13:15:59.000Z</time>
      </trkpt>
      <trkpt lat="45.85601" lon="5.46861">
        <ele>765.4</ele>
        <time>2021-02-20T13:16:00.000Z</time>
      </trkpt>
      <trkpt lat="45.85602" lon="5.46861">
        <ele>766.2</ele>
        <time>2021-02-20T13:16:02.000Z</time>
      </trkpt>
      <trkpt lat="45.85603" lon="5.46862">
        <ele>766.2</ele>
        <time>2021-02-20T13:16:03.000Z</time>
      </trkpt>
      <trkpt lat="45.85604" lon="5.46863">
        <ele>766.6</ele>
        <time>2021-02-20T13:16:05.000Z</time>
      </trkpt>
      <trkpt lat="45.85604" lon="5.46864">
        <ele>766.8</ele>
        <time>2021-02-20T13:16:06.000Z</time>
      </trkpt>
      <trkpt lat="45.85605" lon="5.46864">
        <ele>767</ele>
        <time>2021-02-20T13:16:07.000Z</time>
      </trkpt>
      <trkpt lat="45.85606" lon="5.46863">
        <ele>767.2</ele>
        <time>2021-02-20T13:16:08.000Z</time>
      </trkpt>
      <trkpt lat="45.85608" lon="5.46863">
        <ele>767.6</ele>
        <time>2021-02-20T13:16:12.000Z</time>
      </trkpt>
      <trkpt lat="45.85609" lon="5.46863">
        <ele>767.6</ele>
        <time>2021-02-20T13:16:13.000Z</time>
      </trkpt>
      <trkpt lat="45.8561" lon="5.46863">
        <ele>768.2</ele>
        <time>2021-02-20T13:16:15.000Z</time>
      </trkpt>
      <trkpt lat="45.85611" lon="5.46863">
        <ele>768.6</ele>
        <time>2021-02-20T13:16:16.000Z</time>
      </trkpt>
      <trkpt lat="45.85615" lon="5.46871">
        <ele>770.8</ele>
        <time>2021-02-20T13:16:29.000Z</time>
      </trkpt>
      <trkpt lat="45.85615" lon="5.46872">
        <ele>770.8</ele>
        <time>2021-02-20T13:16:30.000Z</time>
      </trkpt>
      <trkpt lat="45.85616" lon="5.46873">
        <ele>770.8</ele>
        <time>2021-02-20T13:16:31.000Z</time>
      </trkpt>
      <trkpt lat="45.85616" lon="5.46874">
        <ele>771</ele>
        <time>2021-02-20T13:16:32.000Z</time>
      </trkpt>
      <trkpt lat="45.85617" lon="5.46875">
        <ele>771</ele>
        <time>2021-02-20T13:16:33.000Z</time>
      </trkpt>
      <trkpt lat="45.85617" lon="5.46877">
        <ele>771</ele>
        <time>2021-02-20T13:16:34.000Z</time>
      </trkpt>
      <trkpt lat="45.85618" lon="5.46878">
        <ele>771.2</ele>
        <time>2021-02-20T13:16:35.000Z</time>
      </trkpt>
      <trkpt lat="45.85619" lon="5.4688">
        <ele>771.2</ele>
        <time>2021-02-20T13:16:36.000Z</time>
      </trkpt>
      <trkpt lat="45.8562" lon="5.46882">
        <ele>771.4</ele>
        <time>2021-02-20T13:16:37.000Z</time>
      </trkpt>
      <trkpt lat="45.85621" lon="5.46883">
        <ele>771.6</ele>
        <time>2021-02-20T13:16:38.000Z</time>
      </trkpt>
      <trkpt lat="45.85622" lon="5.46884">
        <ele>772</ele>
        <time>2021-02-20T13:16:39.000Z</time>
      </trkpt>
      <trkpt lat="45.85622" lon="5.46886">
        <ele>772</ele>
        <time>2021-02-20T13:16:40.000Z</time>
      </trkpt>
      <trkpt lat="45.85623" lon="5.46887">
        <ele>772</ele>
        <time>2021-02-20T13:16:41.000Z</time>
      </trkpt>
      <trkpt lat="45.85624" lon="5.46888">
        <ele>772</ele>
        <time>2021-02-20T13:16:42.000Z</time>
      </trkpt>
      <trkpt lat="45.85625" lon="5.46889">
        <ele>772.4</ele>
        <time>2021-02-20T13:16:43.000Z</time>
      </trkpt>
      <trkpt lat="45.85626" lon="5.46891">
        <ele>772.6</ele>
        <time>2021-02-20T13:16:44.000Z</time>
      </trkpt>
      <trkpt lat="45.85627" lon="5.46892">
        <ele>773.2</ele>
        <time>2021-02-20T13:16:45.000Z</time>
      </trkpt>
      <trkpt lat="45.85628" lon="5.46893">
        <ele>773.4</ele>
        <time>2021-02-20T13:16:46.000Z</time>
      </trkpt>
      <trkpt lat="45.85629" lon="5.46895">
        <ele>773.8</ele>
        <time>2021-02-20T13:16:47.000Z</time>
      </trkpt>
      <trkpt lat="45.8563" lon="5.46897">
        <ele>774</ele>
        <time>2021-02-20T13:16:48.000Z</time>
      </trkpt>
      <trkpt lat="45.85632" lon="5.46898">
        <ele>774</ele>
        <time>2021-02-20T13:16:49.000Z</time>
      </trkpt>
      <trkpt lat="45.85632" lon="5.46899">
        <ele>774.6</ele>
        <time>2021-02-20T13:16:50.000Z</time>
      </trkpt>
      <trkpt lat="45.85633" lon="5.469">
        <ele>775</ele>
        <time>2021-02-20T13:16:51.000Z</time>
      </trkpt>
      <trkpt lat="45.85634" lon="5.46901">
        <ele>775.6</ele>
        <time>2021-02-20T13:16:52.000Z</time>
      </trkpt>
      <trkpt lat="45.85635" lon="5.46901">
        <ele>775.8</ele>
        <time>2021-02-20T13:16:53.000Z</time>
      </trkpt>
      <trkpt lat="45.85636" lon="5.46902">
        <ele>776</ele>
        <time>2021-02-20T13:16:54.000Z</time>
      </trkpt>
      <trkpt lat="45.85637" lon="5.46903">
        <ele>776.4</ele>
        <time>2021-02-20T13:16:55.000Z</time>
      </trkpt>
      <trkpt lat="45.85638" lon="5.46903">
        <ele>776.6</ele>
        <time>2021-02-20T13:16:56.000Z</time>
      </trkpt>
      <trkpt lat="45.8564" lon="5.46904">
        <ele>777.2</ele>
        <time>2021-02-20T13:16:57.000Z</time>
      </trkpt>
      <trkpt lat="45.8565" lon="5.46913">
        <ele>779</ele>
        <time>2021-02-20T13:17:46.000Z</time>
      </trkpt>
      <trkpt lat="45.85651" lon="5.46913">
        <ele>778.8</ele>
        <time>2021-02-20T13:17:47.000Z</time>
      </trkpt>
      <trkpt lat="45.85653" lon="5.46915">
        <ele>778.8</ele>
        <time>2021-02-20T13:17:48.000Z</time>
      </trkpt>
      <trkpt lat="45.85659" lon="5.46918">
        <ele>779</ele>
        <time>2021-02-20T13:17:50.000Z</time>
      </trkpt>
      <trkpt lat="45.85666" lon="5.46922">
        <ele>778.8</ele>
        <time>2021-02-20T13:17:52.000Z</time>
      </trkpt>
      <trkpt lat="45.85679" lon="5.46926">
        <ele>778.6</ele>
        <time>2021-02-20T13:17:55.000Z</time>
      </trkpt>
      <trkpt lat="45.85683" lon="5.46926">
        <ele>778.4</ele>
        <time>2021-02-20T13:17:56.000Z</time>
      </trkpt>
      <trkpt lat="45.85686" lon="5.46926">
        <ele>778.4</ele>
        <time>2021-02-20T13:17:57.000Z</time>
      </trkpt>
      <trkpt lat="45.85688" lon="5.46925">
        <ele>778.2</ele>
        <time>2021-02-20T13:17:58.000Z</time>
      </trkpt>
      <trkpt lat="45.8569" lon="5.46923">
        <ele>778</ele>
        <time>2021-02-20T13:17:59.000Z</time>
      </trkpt>
      <trkpt lat="45.85692" lon="5.4692">
        <ele>778</ele>
        <time>2021-02-20T13:18:00.000Z</time>
      </trkpt>
      <trkpt lat="45.85694" lon="5.46917">
        <ele>777.8</ele>
        <time>2021-02-20T13:18:01.000Z</time>
      </trkpt>
      <trkpt lat="45.85696" lon="5.46915">
        <ele>777.8</ele>
        <time>2021-02-20T13:18:02.000Z</time>
      </trkpt>
      <trkpt lat="45.85697" lon="5.46907">
        <ele>777.6</ele>
        <time>2021-02-20T13:18:04.000Z</time>
      </trkpt>
      <trkpt lat="45.85699" lon="5.46903">
        <ele>777.6</ele>
        <time>2021-02-20T13:18:05.000Z</time>
      </trkpt>
      <trkpt lat="45.857" lon="5.469">
        <ele>777.8</ele>
        <time>2021-02-20T13:18:06.000Z</time>
      </trkpt>
      <trkpt lat="45.85701" lon="5.46897">
        <ele>777.8</ele>
        <time>2021-02-20T13:18:07.000Z</time>
      </trkpt>
      <trkpt lat="45.85703" lon="5.46894">
        <ele>777.6</ele>
        <time>2021-02-20T13:18:08.000Z</time>
      </trkpt>
      <trkpt lat="45.85704" lon="5.46892">
        <ele>777.6</ele>
        <time>2021-02-20T13:18:09.000Z</time>
      </trkpt>
      <trkpt lat="45.85706" lon="5.4689">
        <ele>777.8</ele>
        <time>2021-02-20T13:18:10.000Z</time>
      </trkpt>
      <trkpt lat="45.85708" lon="5.46887">
        <ele>777.8</ele>
        <time>2021-02-20T13:18:11.000Z</time>
      </trkpt>
      <trkpt lat="45.85714" lon="5.46881">
        <ele>778</ele>
        <time>2021-02-20T13:18:14.000Z</time>
      </trkpt>
      <trkpt lat="45.85716" lon="5.4688">
        <ele>778.6</ele>
        <time>2021-02-20T13:18:15.000Z</time>
      </trkpt>
      <trkpt lat="45.85718" lon="5.46878">
        <ele>779</ele>
        <time>2021-02-20T13:18:16.000Z</time>
      </trkpt>
      <trkpt lat="45.85719" lon="5.46877">
        <ele>779.4</ele>
        <time>2021-02-20T13:18:17.000Z</time>
      </trkpt>
      <trkpt lat="45.85722" lon="5.46875">
        <ele>779.6</ele>
        <time>2021-02-20T13:18:18.000Z</time>
      </trkpt>
      <trkpt lat="45.85724" lon="5.46873">
        <ele>780.2</ele>
        <time>2021-02-20T13:18:19.000Z</time>
      </trkpt>
      <trkpt lat="45.85726" lon="5.46872">
        <ele>780.6</ele>
        <time>2021-02-20T13:18:20.000Z</time>
      </trkpt>
      <trkpt lat="45.85728" lon="5.4687">
        <ele>780.8</ele>
        <time>2021-02-20T13:18:21.000Z</time>
      </trkpt>
      <trkpt lat="45.8573" lon="5.46869">
        <ele>781</ele>
        <time>2021-02-20T13:18:22.000Z</time>
      </trkpt>
      <trkpt lat="45.85732" lon="5.46867">
        <ele>781.2</ele>
        <time>2021-02-20T13:18:23.000Z</time>
      </trkpt>
      <trkpt lat="45.85733" lon="5.46865">
        <ele>781.6</ele>
        <time>2021-02-20T13:18:24.000Z</time>
      </trkpt>
      <trkpt lat="45.85735" lon="5.46863">
        <ele>781.8</ele>
        <time>2021-02-20T13:18:25.000Z</time>
      </trkpt>
      <trkpt lat="45.85737" lon="5.46861">
        <ele>782.2</ele>
        <time>2021-02-20T13:18:26.000Z</time>
      </trkpt>
      <trkpt lat="45.85739" lon="5.46859">
        <ele>782.4</ele>
        <time>2021-02-20T13:18:27.000Z</time>
      </trkpt>
      <trkpt lat="45.85741" lon="5.46856">
        <ele>782.6</ele>
        <time>2021-02-20T13:18:28.000Z</time>
      </trkpt>
      <trkpt lat="45.85743" lon="5.46854">
        <ele>782.8</ele>
        <time>2021-02-20T13:18:29.000Z</time>
      </trkpt>
      <trkpt lat="45.85746" lon="5.46851">
        <ele>783</ele>
        <time>2021-02-20T13:18:30.000Z</time>
      </trkpt>
      <trkpt lat="45.85748" lon="5.46849">
        <ele>783</ele>
        <time>2021-02-20T13:18:31.000Z</time>
      </trkpt>
      <trkpt lat="45.85752" lon="5.46847">
        <ele>783</ele>
        <time>2021-02-20T13:18:32.000Z</time>
      </trkpt>
      <trkpt lat="45.85755" lon="5.46845">
        <ele>783</ele>
        <time>2021-02-20T13:18:33.000Z</time>
      </trkpt>
      <trkpt lat="45.85757" lon="5.46845">
        <ele>783.2</ele>
        <time>2021-02-20T13:18:34.000Z</time>
      </trkpt>
      <trkpt lat="45.8576" lon="5.46844">
        <ele>783.4</ele>
        <time>2021-02-20T13:18:35.000Z</time>
      </trkpt>
      <trkpt lat="45.85762" lon="5.46843">
        <ele>783.4</ele>
        <time>2021-02-20T13:18:36.000Z</time>
      </trkpt>
      <trkpt lat="45.85764" lon="5.46842">
        <ele>783.6</ele>
        <time>2021-02-20T13:18:37.000Z</time>
      </trkpt>
      <trkpt lat="45.85765" lon="5.46841">
        <ele>783.4</ele>
        <time>2021-02-20T13:18:38.000Z</time>
      </trkpt>
      <trkpt lat="45.85767" lon="5.46839">
        <ele>783.6</ele>
        <time>2021-02-20T13:18:39.000Z</time>
      </trkpt>
      <trkpt lat="45.85769" lon="5.46838">
        <ele>783.6</ele>
        <time>2021-02-20T13:18:40.000Z</time>
      </trkpt>
      <trkpt lat="45.85771" lon="5.46837">
        <ele>783.6</ele>
        <time>2021-02-20T13:18:41.000Z</time>
      </trkpt>
      <trkpt lat="45.85773" lon="5.46836">
        <ele>783.8</ele>
        <time>2021-02-20T13:18:42.000Z</time>
      </trkpt>
      <trkpt lat="45.85774" lon="5.46835">
        <ele>783.8</ele>
        <time>2021-02-20T13:18:43.000Z</time>
      </trkpt>
      <trkpt lat="45.85776" lon="5.46834">
        <ele>784.2</ele>
        <time>2021-02-20T13:18:44.000Z</time>
      </trkpt>
      <trkpt lat="45.85777" lon="5.46832">
        <ele>784.6</ele>
        <time>2021-02-20T13:18:45.000Z</time>
      </trkpt>
      <trkpt lat="45.85779" lon="5.46831">
        <ele>785</ele>
        <time>2021-02-20T13:18:46.000Z</time>
      </trkpt>
      <trkpt lat="45.8578" lon="5.4683">
        <ele>785.2</ele>
        <time>2021-02-20T13:18:47.000Z</time>
      </trkpt>
      <trkpt lat="45.85782" lon="5.46829">
        <ele>785.8</ele>
        <time>2021-02-20T13:18:48.000Z</time>
      </trkpt>
      <trkpt lat="45.85784" lon="5.46829">
        <ele>786</ele>
        <time>2021-02-20T13:18:49.000Z</time>
      </trkpt>
      <trkpt lat="45.85786" lon="5.46828">
        <ele>786</ele>
        <time>2021-02-20T13:18:50.000Z</time>
      </trkpt>
      <trkpt lat="45.85788" lon="5.46827">
        <ele>786</ele>
        <time>2021-02-20T13:18:51.000Z</time>
      </trkpt>
      <trkpt lat="45.8579" lon="5.46827">
        <ele>786</ele>
        <time>2021-02-20T13:18:52.000Z</time>
      </trkpt>
      <trkpt lat="45.85792" lon="5.46826">
        <ele>786.2</ele>
        <time>2021-02-20T13:18:53.000Z</time>
      </trkpt>
      <trkpt lat="45.85794" lon="5.46825">
        <ele>786.6</ele>
        <time>2021-02-20T13:18:54.000Z</time>
      </trkpt>
      <trkpt lat="45.85796" lon="5.46824">
        <ele>786.8</ele>
        <time>2021-02-20T13:18:55.000Z</time>
      </trkpt>
      <trkpt lat="45.85797" lon="5.46824">
        <ele>787.2</ele>
        <time>2021-02-20T13:18:56.000Z</time>
      </trkpt>
      <trkpt lat="45.85799" lon="5.46823">
        <ele>787.4</ele>
        <time>2021-02-20T13:18:57.000Z</time>
      </trkpt>
      <trkpt lat="45.858" lon="5.46822">
        <ele>787.6</ele>
        <time>2021-02-20T13:18:58.000Z</time>
      </trkpt>
      <trkpt lat="45.85802" lon="5.46822">
        <ele>787.8</ele>
        <time>2021-02-20T13:18:59.000Z</time>
      </trkpt>
      <trkpt lat="45.85803" lon="5.46821">
        <ele>788</ele>
        <time>2021-02-20T13:19:00.000Z</time>
      </trkpt>
      <trkpt lat="45.85805" lon="5.4682">
        <ele>788.2</ele>
        <time>2021-02-20T13:19:01.000Z</time>
      </trkpt>
      <trkpt lat="45.85807" lon="5.4682">
        <ele>788.4</ele>
        <time>2021-02-20T13:19:02.000Z</time>
      </trkpt>
      <trkpt lat="45.85808" lon="5.4682">
        <ele>788.4</ele>
        <time>2021-02-20T13:19:03.000Z</time>
      </trkpt>
      <trkpt lat="45.85809" lon="5.46821">
        <ele>788.8</ele>
        <time>2021-02-20T13:19:04.000Z</time>
      </trkpt>
      <trkpt lat="45.85811" lon="5.46821">
        <ele>789</ele>
        <time>2021-02-20T13:19:05.000Z</time>
      </trkpt>
      <trkpt lat="45.85813" lon="5.46821">
        <ele>789.2</ele>
        <time>2021-02-20T13:19:06.000Z</time>
      </trkpt>
      <trkpt lat="45.85814" lon="5.4682">
        <ele>789.4</ele>
        <time>2021-02-20T13:19:07.000Z</time>
      </trkpt>
      <trkpt lat="45.85815" lon="5.4682">
        <ele>789.6</ele>
        <time>2021-02-20T13:19:08.000Z</time>
      </trkpt>
      <trkpt lat="45.85817" lon="5.46819">
        <ele>789.8</ele>
        <time>2021-02-20T13:19:09.000Z</time>
      </trkpt>
      <trkpt lat="45.85818" lon="5.46818">
        <ele>790</ele>
        <time>2021-02-20T13:19:10.000Z</time>
      </trkpt>
      <trkpt lat="45.85819" lon="5.46817">
        <ele>790</ele>
        <time>2021-02-20T13:19:11.000Z</time>
      </trkpt>
      <trkpt lat="45.85821" lon="5.46817">
        <ele>790.2</ele>
        <time>2021-02-20T13:19:13.000Z</time>
      </trkpt>
      <trkpt lat="45.85822" lon="5.46817">
        <ele>790.4</ele>
        <time>2021-02-20T13:19:14.000Z</time>
      </trkpt>
      <trkpt lat="45.85824" lon="5.46816">
        <ele>790.6</ele>
        <time>2021-02-20T13:19:15.000Z</time>
      </trkpt>
      <trkpt lat="45.85825" lon="5.46816">
        <ele>790.8</ele>
        <time>2021-02-20T13:19:16.000Z</time>
      </trkpt>
      <trkpt lat="45.85826" lon="5.46816">
        <ele>791</ele>
        <time>2021-02-20T13:19:17.000Z</time>
      </trkpt>
      <trkpt lat="45.85828" lon="5.46817">
        <ele>791.4</ele>
        <time>2021-02-20T13:19:18.000Z</time>
      </trkpt>
      <trkpt lat="45.85829" lon="5.46816">
        <ele>791.6</ele>
        <time>2021-02-20T13:19:19.000Z</time>
      </trkpt>
      <trkpt lat="45.85831" lon="5.46816">
        <ele>791.8</ele>
        <time>2021-02-20T13:19:20.000Z</time>
      </trkpt>
      <trkpt lat="45.85832" lon="5.46816">
        <ele>791.8</ele>
        <time>2021-02-20T13:19:21.000Z</time>
      </trkpt>
      <trkpt lat="45.85833" lon="5.46816">
        <ele>792.2</ele>
        <time>2021-02-20T13:19:22.000Z</time>
      </trkpt>
      <trkpt lat="45.85835" lon="5.46815">
        <ele>792.2</ele>
        <time>2021-02-20T13:19:23.000Z</time>
      </trkpt>
      <trkpt lat="45.85837" lon="5.46815">
        <ele>792.4</ele>
        <time>2021-02-20T13:19:24.000Z</time>
      </trkpt>
      <trkpt lat="45.85838" lon="5.46814">
        <ele>792.6</ele>
        <time>2021-02-20T13:19:25.000Z</time>
      </trkpt>
      <trkpt lat="45.8584" lon="5.46814">
        <ele>792.8</ele>
        <time>2021-02-20T13:19:26.000Z</time>
      </trkpt>
      <trkpt lat="45.85842" lon="5.46814">
        <ele>792.8</ele>
        <time>2021-02-20T13:19:27.000Z</time>
      </trkpt>
      <trkpt lat="45.85844" lon="5.46814">
        <ele>793.2</ele>
        <time>2021-02-20T13:19:28.000Z</time>
      </trkpt>
      <trkpt lat="45.85846" lon="5.46814">
        <ele>793.4</ele>
        <time>2021-02-20T13:19:29.000Z</time>
      </trkpt>
      <trkpt lat="45.85848" lon="5.46814">
        <ele>793.4</ele>
        <time>2021-02-20T13:19:30.000Z</time>
      </trkpt>
      <trkpt lat="45.8585" lon="5.46815">
        <ele>793.4</ele>
        <time>2021-02-20T13:19:31.000Z</time>
      </trkpt>
      <trkpt lat="45.85851" lon="5.46815">
        <ele>793.8</ele>
        <time>2021-02-20T13:19:32.000Z</time>
      </trkpt>
      <trkpt lat="45.85853" lon="5.46815">
        <ele>794</ele>
        <time>2021-02-20T13:19:33.000Z</time>
      </trkpt>
      <trkpt lat="45.85855" lon="5.46815">
        <ele>794.2</ele>
        <time>2021-02-20T13:19:34.000Z</time>
      </trkpt>
      <trkpt lat="45.85856" lon="5.46815">
        <ele>794.4</ele>
        <time>2021-02-20T13:19:35.000Z</time>
      </trkpt>
      <trkpt lat="45.85858" lon="5.46814">
        <ele>794.4</ele>
        <time>2021-02-20T13:19:36.000Z</time>
      </trkpt>
      <trkpt lat="45.85861" lon="5.46814">
        <ele>794.6</ele>
        <time>2021-02-20T13:19:37.000Z</time>
      </trkpt>
      <trkpt lat="45.85862" lon="5.46814">
        <ele>794.8</ele>
        <time>2021-02-20T13:19:38.000Z</time>
      </trkpt>
      <trkpt lat="45.85864" lon="5.46814">
        <ele>795.2</ele>
        <time>2021-02-20T13:19:39.000Z</time>
      </trkpt>
      <trkpt lat="45.85866" lon="5.46813">
        <ele>795.4</ele>
        <time>2021-02-20T13:19:40.000Z</time>
      </trkpt>
      <trkpt lat="45.85867" lon="5.46812">
        <ele>795.6</ele>
        <time>2021-02-20T13:19:41.000Z</time>
      </trkpt>
      <trkpt lat="45.85869" lon="5.46812">
        <ele>795.8</ele>
        <time>2021-02-20T13:19:42.000Z</time>
      </trkpt>
      <trkpt lat="45.85871" lon="5.46812">
        <ele>796</ele>
        <time>2021-02-20T13:19:43.000Z</time>
      </trkpt>
      <trkpt lat="45.85873" lon="5.46812">
        <ele>796.2</ele>
        <time>2021-02-20T13:19:44.000Z</time>
      </trkpt>
      <trkpt lat="45.85875" lon="5.46812">
        <ele>796.4</ele>
        <time>2021-02-20T13:19:45.000Z</time>
      </trkpt>
      <trkpt lat="45.85876" lon="5.46812">
        <ele>796.4</ele>
        <time>2021-02-20T13:19:46.000Z</time>
      </trkpt>
      <trkpt lat="45.85878" lon="5.46812">
        <ele>796.6</ele>
        <time>2021-02-20T13:19:47.000Z</time>
      </trkpt>
      <trkpt lat="45.8588" lon="5.46812">
        <ele>796.8</ele>
        <time>2021-02-20T13:19:48.000Z</time>
      </trkpt>
      <trkpt lat="45.85882" lon="5.46812">
        <ele>797.2</ele>
        <time>2021-02-20T13:19:49.000Z</time>
      </trkpt>
      <trkpt lat="45.85884" lon="5.46812">
        <ele>797.2</ele>
        <time>2021-02-20T13:19:50.000Z</time>
      </trkpt>
      <trkpt lat="45.85885" lon="5.46812">
        <ele>797.2</ele>
        <time>2021-02-20T13:19:51.000Z</time>
      </trkpt>
      <trkpt lat="45.85886" lon="5.46812">
        <ele>797.2</ele>
        <time>2021-02-20T13:19:52.000Z</time>
      </trkpt>
      <trkpt lat="45.85888" lon="5.46811">
        <ele>797.4</ele>
        <time>2021-02-20T13:19:53.000Z</time>
      </trkpt>
      <trkpt lat="45.8589" lon="5.46811">
        <ele>797.6</ele>
        <time>2021-02-20T13:19:54.000Z</time>
      </trkpt>
      <trkpt lat="45.85893" lon="5.4681">
        <ele>797.6</ele>
        <time>2021-02-20T13:19:55.000Z</time>
      </trkpt>
      <trkpt lat="45.85895" lon="5.4681">
        <ele>797.6</ele>
        <time>2021-02-20T13:19:56.000Z</time>
      </trkpt>
      <trkpt lat="45.85897" lon="5.46809">
        <ele>797.6</ele>
        <time>2021-02-20T13:19:57.000Z</time>
      </trkpt>
      <trkpt lat="45.85899" lon="5.46808">
        <ele>797.6</ele>
        <time>2021-02-20T13:19:58.000Z</time>
      </trkpt>
      <trkpt lat="45.85909" lon="5.4681">
        <ele>797.4</ele>
        <time>2021-02-20T13:20:01.000Z</time>
      </trkpt>
      <trkpt lat="45.85912" lon="5.46812">
        <ele>797.6</ele>
        <time>2021-02-20T13:20:02.000Z</time>
      </trkpt>
      <trkpt lat="45.85916" lon="5.46817">
        <ele>797.6</ele>
        <time>2021-02-20T13:20:03.000Z</time>
      </trkpt>
      <trkpt lat="45.85919" lon="5.46823">
        <ele>797.6</ele>
        <time>2021-02-20T13:20:04.000Z</time>
      </trkpt>
      <trkpt lat="45.85921" lon="5.46829">
        <ele>797.6</ele>
        <time>2021-02-20T13:20:05.000Z</time>
      </trkpt>
      <trkpt lat="45.85923" lon="5.46836">
        <ele>797.6</ele>
        <time>2021-02-20T13:20:06.000Z</time>
      </trkpt>
      <trkpt lat="45.85925" lon="5.46842">
        <ele>797.2</ele>
        <time>2021-02-20T13:20:07.000Z</time>
      </trkpt>
      <trkpt lat="45.85927" lon="5.46847">
        <ele>797</ele>
        <time>2021-02-20T13:20:08.000Z</time>
      </trkpt>
      <trkpt lat="45.8593" lon="5.4685">
        <ele>796.8</ele>
        <time>2021-02-20T13:20:09.000Z</time>
      </trkpt>
      <trkpt lat="45.85933" lon="5.46853">
        <ele>796.4</ele>
        <time>2021-02-20T13:20:10.000Z</time>
      </trkpt>
      <trkpt lat="45.85936" lon="5.46854">
        <ele>796.4</ele>
        <time>2021-02-20T13:20:11.000Z</time>
      </trkpt>
      <trkpt lat="45.85941" lon="5.46855">
        <ele>795.6</ele>
        <time>2021-02-20T13:20:12.000Z</time>
      </trkpt>
      <trkpt lat="45.85945" lon="5.46856">
        <ele>795.2</ele>
        <time>2021-02-20T13:20:13.000Z</time>
      </trkpt>
      <trkpt lat="45.85949" lon="5.46856">
        <ele>794.8</ele>
        <time>2021-02-20T13:20:14.000Z</time>
      </trkpt>
      <trkpt lat="45.85953" lon="5.46856">
        <ele>794.8</ele>
        <time>2021-02-20T13:20:15.000Z</time>
      </trkpt>
      <trkpt lat="45.85957" lon="5.46857">
        <ele>794.8</ele>
        <time>2021-02-20T13:20:16.000Z</time>
      </trkpt>
      <trkpt lat="45.8596" lon="5.46857">
        <ele>794.8</ele>
        <time>2021-02-20T13:20:17.000Z</time>
      </trkpt>
      <trkpt lat="45.85963" lon="5.46857">
        <ele>794.8</ele>
        <time>2021-02-20T13:20:18.000Z</time>
      </trkpt>
      <trkpt lat="45.85965" lon="5.46857">
        <ele>794.6</ele>
        <time>2021-02-20T13:20:19.000Z</time>
      </trkpt>
      <trkpt lat="45.85967" lon="5.46858">
        <ele>794.6</ele>
        <time>2021-02-20T13:20:20.000Z</time>
      </trkpt>
      <trkpt lat="45.85969" lon="5.46858">
        <ele>794.8</ele>
        <time>2021-02-20T13:20:21.000Z</time>
      </trkpt>
      <trkpt lat="45.85971" lon="5.46859">
        <ele>794.6</ele>
        <time>2021-02-20T13:20:22.000Z</time>
      </trkpt>
      <trkpt lat="45.85972" lon="5.4686">
        <ele>794.8</ele>
        <time>2021-02-20T13:20:23.000Z</time>
      </trkpt>
      <trkpt lat="45.85989" lon="5.46869">
        <ele>798.2</ele>
        <time>2021-02-20T13:21:24.000Z</time>
      </trkpt>
      <trkpt lat="45.85992" lon="5.46872">
        <ele>798.2</ele>
        <time>2021-02-20T13:21:26.000Z</time>
      </trkpt>
      <trkpt lat="45.85993" lon="5.46873">
        <ele>798.4</ele>
        <time>2021-02-20T13:21:27.000Z</time>
      </trkpt>
      <trkpt lat="45.85995" lon="5.46874">
        <ele>798.2</ele>
        <time>2021-02-20T13:21:28.000Z</time>
      </trkpt>
      <trkpt lat="45.86" lon="5.46878">
        <ele>798.2</ele>
        <time>2021-02-20T13:21:31.000Z</time>
      </trkpt>
      <trkpt lat="45.86001" lon="5.4688">
        <ele>798.2</ele>
        <time>2021-02-20T13:21:32.000Z</time>
      </trkpt>
      <trkpt lat="45.86003" lon="5.46882">
        <ele>798.4</ele>
        <time>2021-02-20T13:21:33.000Z</time>
      </trkpt>
      <trkpt lat="45.86004" lon="5.46884">
        <ele>798.4</ele>
        <time>2021-02-20T13:21:34.000Z</time>
      </trkpt>
      <trkpt lat="45.86006" lon="5.46887">
        <ele>798.6</ele>
        <time>2021-02-20T13:21:35.000Z</time>
      </trkpt>
      <trkpt lat="45.86007" lon="5.46889">
        <ele>798.8</ele>
        <time>2021-02-20T13:21:36.000Z</time>
      </trkpt>
      <trkpt lat="45.86008" lon="5.46891">
        <ele>799.2</ele>
        <time>2021-02-20T13:21:37.000Z</time>
      </trkpt>
      <trkpt lat="45.86009" lon="5.46893">
        <ele>799.6</ele>
        <time>2021-02-20T13:21:38.000Z</time>
      </trkpt>
      <trkpt lat="45.8601" lon="5.46895">
        <ele>800</ele>
        <time>2021-02-20T13:21:39.000Z</time>
      </trkpt>
      <trkpt lat="45.8601" lon="5.46897">
        <ele>800.2</ele>
        <time>2021-02-20T13:21:40.000Z</time>
      </trkpt>
      <trkpt lat="45.86011" lon="5.46899">
        <ele>800.8</ele>
        <time>2021-02-20T13:21:41.000Z</time>
      </trkpt>
      <trkpt lat="45.86011" lon="5.46902">
        <ele>801.2</ele>
        <time>2021-02-20T13:21:42.000Z</time>
      </trkpt>
      <trkpt lat="45.86012" lon="5.46904">
        <ele>801.4</ele>
        <time>2021-02-20T13:21:43.000Z</time>
      </trkpt>
      <trkpt lat="45.86013" lon="5.46906">
        <ele>801.6</ele>
        <time>2021-02-20T13:21:44.000Z</time>
      </trkpt>
      <trkpt lat="45.86017" lon="5.46914">
        <ele>804.6</ele>
        <time>2021-02-20T13:22:07.000Z</time>
      </trkpt>
      <trkpt lat="45.86018" lon="5.46916">
        <ele>804.4</ele>
        <time>2021-02-20T13:22:08.000Z</time>
      </trkpt>
      <trkpt lat="45.86021" lon="5.4692">
        <ele>804.6</ele>
        <time>2021-02-20T13:22:10.000Z</time>
      </trkpt>
      <trkpt lat="45.86021" lon="5.46922">
        <ele>804.6</ele>
        <time>2021-02-20T13:22:11.000Z</time>
      </trkpt>
      <trkpt lat="45.86022" lon="5.46925">
        <ele>804.6</ele>
        <time>2021-02-20T13:22:12.000Z</time>
      </trkpt>
      <trkpt lat="45.86023" lon="5.46927">
        <ele>804.4</ele>
        <time>2021-02-20T13:22:13.000Z</time>
      </trkpt>
      <trkpt lat="45.86024" lon="5.46929">
        <ele>804.6</ele>
        <time>2021-02-20T13:22:14.000Z</time>
      </trkpt>
      <trkpt lat="45.86025" lon="5.46931">
        <ele>804.4</ele>
        <time>2021-02-20T13:22:15.000Z</time>
      </trkpt>
      <trkpt lat="45.86028" lon="5.46935">
        <ele>804.4</ele>
        <time>2021-02-20T13:22:17.000Z</time>
      </trkpt>
      <trkpt lat="45.86029" lon="5.46937">
        <ele>804.4</ele>
        <time>2021-02-20T13:22:18.000Z</time>
      </trkpt>
      <trkpt lat="45.8603" lon="5.46939">
        <ele>804</ele>
        <time>2021-02-20T13:22:19.000Z</time>
      </trkpt>
      <trkpt lat="45.86031" lon="5.46942">
        <ele>804</ele>
        <time>2021-02-20T13:22:20.000Z</time>
      </trkpt>
      <trkpt lat="45.86032" lon="5.46944">
        <ele>804.2</ele>
        <time>2021-02-20T13:22:21.000Z</time>
      </trkpt>
      <trkpt lat="45.86033" lon="5.46945">
        <ele>804</ele>
        <time>2021-02-20T13:22:22.000Z</time>
      </trkpt>
      <trkpt lat="45.86036" lon="5.4695">
        <ele>804.2</ele>
        <time>2021-02-20T13:22:24.000Z</time>
      </trkpt>
      <trkpt lat="45.86039" lon="5.46954">
        <ele>804.2</ele>
        <time>2021-02-20T13:22:26.000Z</time>
      </trkpt>
      <trkpt lat="45.86041" lon="5.46956">
        <ele>804</ele>
        <time>2021-02-20T13:22:27.000Z</time>
      </trkpt>
      <trkpt lat="45.86043" lon="5.46958">
        <ele>804.2</ele>
        <time>2021-02-20T13:22:28.000Z</time>
      </trkpt>
      <trkpt lat="45.86046" lon="5.4696">
        <ele>804.2</ele>
        <time>2021-02-20T13:22:30.000Z</time>
      </trkpt>
      <trkpt lat="45.86048" lon="5.46961">
        <ele>804.2</ele>
        <time>2021-02-20T13:22:31.000Z</time>
      </trkpt>
      <trkpt lat="45.8605" lon="5.46962">
        <ele>804.4</ele>
        <time>2021-02-20T13:22:32.000Z</time>
      </trkpt>
      <trkpt lat="45.86051" lon="5.46963">
        <ele>804.6</ele>
        <time>2021-02-20T13:22:33.000Z</time>
      </trkpt>
      <trkpt lat="45.86053" lon="5.46964">
        <ele>804.6</ele>
        <time>2021-02-20T13:22:34.000Z</time>
      </trkpt>
      <trkpt lat="45.86054" lon="5.46964">
        <ele>804.4</ele>
        <time>2021-02-20T13:22:35.000Z</time>
      </trkpt>
      <trkpt lat="45.86055" lon="5.46965">
        <ele>804.8</ele>
        <time>2021-02-20T13:22:36.000Z</time>
      </trkpt>
      <trkpt lat="45.86057" lon="5.46965">
        <ele>804.8</ele>
        <time>2021-02-20T13:22:37.000Z</time>
      </trkpt>
      <trkpt lat="45.86058" lon="5.46965">
        <ele>805</ele>
        <time>2021-02-20T13:22:38.000Z</time>
      </trkpt>
      <trkpt lat="45.86059" lon="5.46966">
        <ele>805</ele>
        <time>2021-02-20T13:22:39.000Z</time>
      </trkpt>
      <trkpt lat="45.86064" lon="5.46967">
        <ele>805.6</ele>
        <time>2021-02-20T13:23:01.000Z</time>
      </trkpt>
      <trkpt lat="45.86066" lon="5.46966">
        <ele>805.8</ele>
        <time>2021-02-20T13:23:02.000Z</time>
      </trkpt>
      <trkpt lat="45.86067" lon="5.46966">
        <ele>805.8</ele>
        <time>2021-02-20T13:23:03.000Z</time>
      </trkpt>
      <trkpt lat="45.86069" lon="5.46966">
        <ele>805.8</ele>
        <time>2021-02-20T13:23:04.000Z</time>
      </trkpt>
      <trkpt lat="45.86071" lon="5.46965">
        <ele>805.8</ele>
        <time>2021-02-20T13:23:05.000Z</time>
      </trkpt>
      <trkpt lat="45.86074" lon="5.46964">
        <ele>805.8</ele>
        <time>2021-02-20T13:23:06.000Z</time>
      </trkpt>
      <trkpt lat="45.86077" lon="5.46962">
        <ele>806</ele>
        <time>2021-02-20T13:23:08.000Z</time>
      </trkpt>
      <trkpt lat="45.86079" lon="5.46961">
        <ele>806</ele>
        <time>2021-02-20T13:23:09.000Z</time>
      </trkpt>
      <trkpt lat="45.86083" lon="5.4696">
        <ele>806.2</ele>
        <time>2021-02-20T13:23:11.000Z</time>
      </trkpt>
      <trkpt lat="45.86084" lon="5.46959">
        <ele>806.4</ele>
        <time>2021-02-20T13:23:12.000Z</time>
      </trkpt>
      <trkpt lat="45.86086" lon="5.46958">
        <ele>806.6</ele>
        <time>2021-02-20T13:23:13.000Z</time>
      </trkpt>
      <trkpt lat="45.86088" lon="5.46957">
        <ele>807</ele>
        <time>2021-02-20T13:23:14.000Z</time>
      </trkpt>
      <trkpt lat="45.86089" lon="5.46956">
        <ele>807.4</ele>
        <time>2021-02-20T13:23:15.000Z</time>
      </trkpt>
      <trkpt lat="45.86091" lon="5.46955">
        <ele>807.6</ele>
        <time>2021-02-20T13:23:16.000Z</time>
      </trkpt>
      <trkpt lat="45.86093" lon="5.46954">
        <ele>808</ele>
        <time>2021-02-20T13:23:17.000Z</time>
      </trkpt>
      <trkpt lat="45.86095" lon="5.46952">
        <ele>808.2</ele>
        <time>2021-02-20T13:23:18.000Z</time>
      </trkpt>
      <trkpt lat="45.86097" lon="5.46951">
        <ele>808.2</ele>
        <time>2021-02-20T13:23:19.000Z</time>
      </trkpt>
      <trkpt lat="45.86098" lon="5.4695">
        <ele>808.4</ele>
        <time>2021-02-20T13:23:20.000Z</time>
      </trkpt>
      <trkpt lat="45.86101" lon="5.46949">
        <ele>808.6</ele>
        <time>2021-02-20T13:23:21.000Z</time>
      </trkpt>
      <trkpt lat="45.86103" lon="5.46948">
        <ele>809</ele>
        <time>2021-02-20T13:23:22.000Z</time>
      </trkpt>
      <trkpt lat="45.86105" lon="5.46948">
        <ele>809.6</ele>
        <time>2021-02-20T13:23:23.000Z</time>
      </trkpt>
      <trkpt lat="45.86107" lon="5.46947">
        <ele>809.8</ele>
        <time>2021-02-20T13:23:24.000Z</time>
      </trkpt>
      <trkpt lat="45.86109" lon="5.46946">
        <ele>810.2</ele>
        <time>2021-02-20T13:23:25.000Z</time>
      </trkpt>
      <trkpt lat="45.86111" lon="5.46946">
        <ele>810.4</ele>
        <time>2021-02-20T13:23:26.000Z</time>
      </trkpt>
      <trkpt lat="45.86112" lon="5.46946">
        <ele>810.6</ele>
        <time>2021-02-20T13:23:27.000Z</time>
      </trkpt>
      <trkpt lat="45.86115" lon="5.46945">
        <ele>811</ele>
        <time>2021-02-20T13:23:28.000Z</time>
      </trkpt>
      <trkpt lat="45.86117" lon="5.46945">
        <ele>811.4</ele>
        <time>2021-02-20T13:23:29.000Z</time>
      </trkpt>
      <trkpt lat="45.86119" lon="5.46945">
        <ele>811.8</ele>
        <time>2021-02-20T13:23:30.000Z</time>
      </trkpt>
      <trkpt lat="45.86122" lon="5.46945">
        <ele>812</ele>
        <time>2021-02-20T13:23:31.000Z</time>
      </trkpt>
      <trkpt lat="45.86124" lon="5.46944">
        <ele>812</ele>
        <time>2021-02-20T13:23:32.000Z</time>
      </trkpt>
      <trkpt lat="45.86126" lon="5.46944">
        <ele>812.4</ele>
        <time>2021-02-20T13:23:33.000Z</time>
      </trkpt>
      <trkpt lat="45.86129" lon="5.46944">
        <ele>812.6</ele>
        <time>2021-02-20T13:23:34.000Z</time>
      </trkpt>
      <trkpt lat="45.86131" lon="5.46943">
        <ele>812.8</ele>
        <time>2021-02-20T13:23:35.000Z</time>
      </trkpt>
      <trkpt lat="45.86133" lon="5.46943">
        <ele>812.8</ele>
        <time>2021-02-20T13:23:36.000Z</time>
      </trkpt>
      <trkpt lat="45.86135" lon="5.46943">
        <ele>813</ele>
        <time>2021-02-20T13:23:37.000Z</time>
      </trkpt>
      <trkpt lat="45.86137" lon="5.46943">
        <ele>813.2</ele>
        <time>2021-02-20T13:23:38.000Z</time>
      </trkpt>
      <trkpt lat="45.86139" lon="5.46943">
        <ele>813.2</ele>
        <time>2021-02-20T13:23:39.000Z</time>
      </trkpt>
      <trkpt lat="45.86141" lon="5.46944">
        <ele>813.2</ele>
        <time>2021-02-20T13:23:40.000Z</time>
      </trkpt>
      <trkpt lat="45.86144" lon="5.46945">
        <ele>813.2</ele>
        <time>2021-02-20T13:23:41.000Z</time>
      </trkpt>
      <trkpt lat="45.86146" lon="5.46946">
        <ele>813.2</ele>
        <time>2021-02-20T13:23:42.000Z</time>
      </trkpt>
      <trkpt lat="45.86149" lon="5.46946">
        <ele>813.4</ele>
        <time>2021-02-20T13:23:43.000Z</time>
      </trkpt>
      <trkpt lat="45.86151" lon="5.46946">
        <ele>813.2</ele>
        <time>2021-02-20T13:23:44.000Z</time>
      </trkpt>
      <trkpt lat="45.86159" lon="5.4695">
        <ele>813.2</ele>
        <time>2021-02-20T13:23:47.000Z</time>
      </trkpt>
      <trkpt lat="45.86161" lon="5.46951">
        <ele>813</ele>
        <time>2021-02-20T13:23:48.000Z</time>
      </trkpt>
      <trkpt lat="45.86167" lon="5.46956">
        <ele>813</ele>
        <time>2021-02-20T13:23:51.000Z</time>
      </trkpt>
      <trkpt lat="45.86176" lon="5.46962">
        <ele>813.2</ele>
        <time>2021-02-20T13:23:55.000Z</time>
      </trkpt>
      <trkpt lat="45.86178" lon="5.46964">
        <ele>813</ele>
        <time>2021-02-20T13:23:56.000Z</time>
      </trkpt>
      <trkpt lat="45.86192" lon="5.46974">
        <ele>813.2</ele>
        <time>2021-02-20T13:24:02.000Z</time>
      </trkpt>
      <trkpt lat="45.86194" lon="5.46977">
        <ele>813.2</ele>
        <time>2021-02-20T13:24:03.000Z</time>
      </trkpt>
      <trkpt lat="45.86197" lon="5.46979">
        <ele>813.2</ele>
        <time>2021-02-20T13:24:04.000Z</time>
      </trkpt>
      <trkpt lat="45.86199" lon="5.46982">
        <ele>813.2</ele>
        <time>2021-02-20T13:24:05.000Z</time>
      </trkpt>
      <trkpt lat="45.86201" lon="5.46984">
        <ele>813.2</ele>
        <time>2021-02-20T13:24:06.000Z</time>
      </trkpt>
      <trkpt lat="45.86207" lon="5.46991">
        <ele>813.2</ele>
        <time>2021-02-20T13:24:08.000Z</time>
      </trkpt>
      <trkpt lat="45.86215" lon="5.47005">
        <ele>813.6</ele>
        <time>2021-02-20T13:24:12.000Z</time>
      </trkpt>
      <trkpt lat="45.86219" lon="5.47013">
        <ele>813.6</ele>
        <time>2021-02-20T13:24:14.000Z</time>
      </trkpt>
      <trkpt lat="45.86228" lon="5.4703">
        <ele>813.8</ele>
        <time>2021-02-20T13:24:17.000Z</time>
      </trkpt>
      <trkpt lat="45.86231" lon="5.47037">
        <ele>813.6</ele>
        <time>2021-02-20T13:24:18.000Z</time>
      </trkpt>
      <trkpt lat="45.86237" lon="5.47049">
        <ele>813.6</ele>
        <time>2021-02-20T13:24:20.000Z</time>
      </trkpt>
      <trkpt lat="45.8624" lon="5.47054">
        <ele>813.6</ele>
        <time>2021-02-20T13:24:21.000Z</time>
      </trkpt>
      <trkpt lat="45.86243" lon="5.47059">
        <ele>813.6</ele>
        <time>2021-02-20T13:24:22.000Z</time>
      </trkpt>
      <trkpt lat="45.86246" lon="5.47065">
        <ele>813.4</ele>
        <time>2021-02-20T13:24:23.000Z</time>
      </trkpt>
      <trkpt lat="45.86248" lon="5.47072">
        <ele>812.8</ele>
        <time>2021-02-20T13:24:24.000Z</time>
      </trkpt>
      <trkpt lat="45.86249" lon="5.47079">
        <ele>812.2</ele>
        <time>2021-02-20T13:24:25.000Z</time>
      </trkpt>
      <trkpt lat="45.86249" lon="5.47086">
        <ele>812</ele>
        <time>2021-02-20T13:24:26.000Z</time>
      </trkpt>
      <trkpt lat="45.86249" lon="5.47091">
        <ele>811.6</ele>
        <time>2021-02-20T13:24:27.000Z</time>
      </trkpt>
      <trkpt lat="45.86247" lon="5.47096">
        <ele>811.2</ele>
        <time>2021-02-20T13:24:28.000Z</time>
      </trkpt>
      <trkpt lat="45.86246" lon="5.471">
        <ele>811</ele>
        <time>2021-02-20T13:24:29.000Z</time>
      </trkpt>
      <trkpt lat="45.86244" lon="5.47104">
        <ele>810.8</ele>
        <time>2021-02-20T13:24:30.000Z</time>
      </trkpt>
      <trkpt lat="45.86243" lon="5.47107">
        <ele>810.8</ele>
        <time>2021-02-20T13:24:31.000Z</time>
      </trkpt>
      <trkpt lat="45.86241" lon="5.4711">
        <ele>810.6</ele>
        <time>2021-02-20T13:24:32.000Z</time>
      </trkpt>
      <trkpt lat="45.86239" lon="5.47112">
        <ele>810.6</ele>
        <time>2021-02-20T13:24:33.000Z</time>
      </trkpt>
      <trkpt lat="45.86234" lon="5.47118">
        <ele>810.4</ele>
        <time>2021-02-20T13:24:35.000Z</time>
      </trkpt>
      <trkpt lat="45.86228" lon="5.47123">
        <ele>810.4</ele>
        <time>2021-02-20T13:24:37.000Z</time>
      </trkpt>
      <trkpt lat="45.86224" lon="5.47125">
        <ele>810.2</ele>
        <time>2021-02-20T13:24:38.000Z</time>
      </trkpt>
      <trkpt lat="45.86221" lon="5.47127">
        <ele>810.2</ele>
        <time>2021-02-20T13:24:39.000Z</time>
      </trkpt>
      <trkpt lat="45.86218" lon="5.47127">
        <ele>810.2</ele>
        <time>2021-02-20T13:24:40.000Z</time>
      </trkpt>
      <trkpt lat="45.86215" lon="5.47128">
        <ele>810.2</ele>
        <time>2021-02-20T13:24:41.000Z</time>
      </trkpt>
      <trkpt lat="45.86212" lon="5.47128">
        <ele>810.2</ele>
        <time>2021-02-20T13:24:42.000Z</time>
      </trkpt>
      <trkpt lat="45.8621" lon="5.47128">
        <ele>810.2</ele>
        <time>2021-02-20T13:24:43.000Z</time>
      </trkpt>
      <trkpt lat="45.86207" lon="5.47128">
        <ele>810.2</ele>
        <time>2021-02-20T13:24:44.000Z</time>
      </trkpt>
      <trkpt lat="45.86204" lon="5.47128">
        <ele>810.4</ele>
        <time>2021-02-20T13:24:45.000Z</time>
      </trkpt>
      <trkpt lat="45.86201" lon="5.47129">
        <ele>810.4</ele>
        <time>2021-02-20T13:24:46.000Z</time>
      </trkpt>
      <trkpt lat="45.86199" lon="5.47129">
        <ele>810.4</ele>
        <time>2021-02-20T13:24:47.000Z</time>
      </trkpt>
      <trkpt lat="45.86196" lon="5.4713">
        <ele>810.6</ele>
        <time>2021-02-20T13:24:48.000Z</time>
      </trkpt>
      <trkpt lat="45.86193" lon="5.47129">
        <ele>810.8</ele>
        <time>2021-02-20T13:24:49.000Z</time>
      </trkpt>
      <trkpt lat="45.86191" lon="5.47129">
        <ele>811.2</ele>
        <time>2021-02-20T13:24:50.000Z</time>
      </trkpt>
      <trkpt lat="45.86188" lon="5.47128">
        <ele>811.6</ele>
        <time>2021-02-20T13:24:51.000Z</time>
      </trkpt>
      <trkpt lat="45.86172" lon="5.47124">
        <ele>812</ele>
        <time>2021-02-20T13:24:56.000Z</time>
      </trkpt>
      <trkpt lat="45.86165" lon="5.47123">
        <ele>812</ele>
        <time>2021-02-20T13:24:58.000Z</time>
      </trkpt>
      <trkpt lat="45.86161" lon="5.47122">
        <ele>812</ele>
        <time>2021-02-20T13:24:59.000Z</time>
      </trkpt>
      <trkpt lat="45.86154" lon="5.47122">
        <ele>812.2</ele>
        <time>2021-02-20T13:25:01.000Z</time>
      </trkpt>
      <trkpt lat="45.86151" lon="5.47122">
        <ele>812.2</ele>
        <time>2021-02-20T13:25:02.000Z</time>
      </trkpt>
      <trkpt lat="45.86148" lon="5.47122">
        <ele>812</ele>
        <time>2021-02-20T13:25:03.000Z</time>
      </trkpt>
      <trkpt lat="45.86145" lon="5.47122">
        <ele>812</ele>
        <time>2021-02-20T13:25:04.000Z</time>
      </trkpt>
      <trkpt lat="45.86142" lon="5.47123">
        <ele>812</ele>
        <time>2021-02-20T13:25:05.000Z</time>
      </trkpt>
      <trkpt lat="45.86137" lon="5.47124">
        <ele>812</ele>
        <time>2021-02-20T13:25:07.000Z</time>
      </trkpt>
      <trkpt lat="45.86134" lon="5.47125">
        <ele>811.8</ele>
        <time>2021-02-20T13:25:08.000Z</time>
      </trkpt>
      <trkpt lat="45.86131" lon="5.47125">
        <ele>812</ele>
        <time>2021-02-20T13:25:09.000Z</time>
      </trkpt>
      <trkpt lat="45.86129" lon="5.47126">
        <ele>811.8</ele>
        <time>2021-02-20T13:25:10.000Z</time>
      </trkpt>
      <trkpt lat="45.86127" lon="5.47127">
        <ele>811.8</ele>
        <time>2021-02-20T13:25:11.000Z</time>
      </trkpt>
      <trkpt lat="45.86125" lon="5.47127">
        <ele>812</ele>
        <time>2021-02-20T13:25:12.000Z</time>
      </trkpt>
      <trkpt lat="45.86123" lon="5.47127">
        <ele>812</ele>
        <time>2021-02-20T13:25:13.000Z</time>
      </trkpt>
      <trkpt lat="45.86121" lon="5.47128">
        <ele>811.8</ele>
        <time>2021-02-20T13:25:14.000Z</time>
      </trkpt>
      <trkpt lat="45.8612" lon="5.47129">
        <ele>812</ele>
        <time>2021-02-20T13:25:15.000Z</time>
      </trkpt>
      <trkpt lat="45.86118" lon="5.47131">
        <ele>812</ele>
        <time>2021-02-20T13:25:16.000Z</time>
      </trkpt>
      <trkpt lat="45.86118" lon="5.47133">
        <ele>812.2</ele>
        <time>2021-02-20T13:25:17.000Z</time>
      </trkpt>
      <trkpt lat="45.86117" lon="5.47136">
        <ele>812.8</ele>
        <time>2021-02-20T13:25:18.000Z</time>
      </trkpt>
      <trkpt lat="45.86116" lon="5.47138">
        <ele>812.8</ele>
        <time>2021-02-20T13:25:19.000Z</time>
      </trkpt>
      <trkpt lat="45.86115" lon="5.4714">
        <ele>813.2</ele>
        <time>2021-02-20T13:25:20.000Z</time>
      </trkpt>
      <trkpt lat="45.86114" lon="5.47143">
        <ele>813.2</ele>
        <time>2021-02-20T13:25:21.000Z</time>
      </trkpt>
      <trkpt lat="45.86113" lon="5.47146">
        <ele>813.8</ele>
        <time>2021-02-20T13:25:22.000Z</time>
      </trkpt>
      <trkpt lat="45.86112" lon="5.47148">
        <ele>814</ele>
        <time>2021-02-20T13:25:23.000Z</time>
      </trkpt>
      <trkpt lat="45.86111" lon="5.4715">
        <ele>814.4</ele>
        <time>2021-02-20T13:25:24.000Z</time>
      </trkpt>
      <trkpt lat="45.8611" lon="5.47153">
        <ele>814.6</ele>
        <time>2021-02-20T13:25:25.000Z</time>
      </trkpt>
      <trkpt lat="45.8611" lon="5.47155">
        <ele>815</ele>
        <time>2021-02-20T13:25:26.000Z</time>
      </trkpt>
      <trkpt lat="45.86109" lon="5.47158">
        <ele>815.6</ele>
        <time>2021-02-20T13:25:27.000Z</time>
      </trkpt>
      <trkpt lat="45.86108" lon="5.47161">
        <ele>815.8</ele>
        <time>2021-02-20T13:25:28.000Z</time>
      </trkpt>
      <trkpt lat="45.86108" lon="5.47164">
        <ele>816.2</ele>
        <time>2021-02-20T13:25:29.000Z</time>
      </trkpt>
      <trkpt lat="45.86108" lon="5.47167">
        <ele>816.4</ele>
        <time>2021-02-20T13:25:30.000Z</time>
      </trkpt>
      <trkpt lat="45.86108" lon="5.4717">
        <ele>816.6</ele>
        <time>2021-02-20T13:25:31.000Z</time>
      </trkpt>
      <trkpt lat="45.86108" lon="5.47172">
        <ele>817</ele>
        <time>2021-02-20T13:25:32.000Z</time>
      </trkpt>
      <trkpt lat="45.86109" lon="5.47175">
        <ele>817</ele>
        <time>2021-02-20T13:25:33.000Z</time>
      </trkpt>
      <trkpt lat="45.8611" lon="5.47178">
        <ele>817.4</ele>
        <time>2021-02-20T13:25:34.000Z</time>
      </trkpt>
      <trkpt lat="45.8611" lon="5.47181">
        <ele>817.8</ele>
        <time>2021-02-20T13:25:35.000Z</time>
      </trkpt>
      <trkpt lat="45.86111" lon="5.47185">
        <ele>818</ele>
        <time>2021-02-20T13:25:36.000Z</time>
      </trkpt>
      <trkpt lat="45.86112" lon="5.47187">
        <ele>818.4</ele>
        <time>2021-02-20T13:25:37.000Z</time>
      </trkpt>
      <trkpt lat="45.86112" lon="5.4719">
        <ele>818.6</ele>
        <time>2021-02-20T13:25:38.000Z</time>
      </trkpt>
      <trkpt lat="45.86113" lon="5.47193">
        <ele>818.8</ele>
        <time>2021-02-20T13:25:39.000Z</time>
      </trkpt>
      <trkpt lat="45.86114" lon="5.47195">
        <ele>819</ele>
        <time>2021-02-20T13:25:40.000Z</time>
      </trkpt>
      <trkpt lat="45.86115" lon="5.47197">
        <ele>819</ele>
        <time>2021-02-20T13:25:41.000Z</time>
      </trkpt>
      <trkpt lat="45.86115" lon="5.472">
        <ele>819</ele>
        <time>2021-02-20T13:25:42.000Z</time>
      </trkpt>
      <trkpt lat="45.86116" lon="5.47202">
        <ele>819</ele>
        <time>2021-02-20T13:25:43.000Z</time>
      </trkpt>
      <trkpt lat="45.86118" lon="5.47205">
        <ele>819.2</ele>
        <time>2021-02-20T13:25:44.000Z</time>
      </trkpt>
      <trkpt lat="45.86118" lon="5.47208">
        <ele>819.2</ele>
        <time>2021-02-20T13:25:45.000Z</time>
      </trkpt>
      <trkpt lat="45.86119" lon="5.4721">
        <ele>819.2</ele>
        <time>2021-02-20T13:25:46.000Z</time>
      </trkpt>
      <trkpt lat="45.8612" lon="5.47213">
        <ele>819.6</ele>
        <time>2021-02-20T13:25:47.000Z</time>
      </trkpt>
      <trkpt lat="45.86121" lon="5.47216">
        <ele>819.8</ele>
        <time>2021-02-20T13:25:48.000Z</time>
      </trkpt>
      <trkpt lat="45.86122" lon="5.4722">
        <ele>820</ele>
        <time>2021-02-20T13:25:49.000Z</time>
      </trkpt>
      <trkpt lat="45.86122" lon="5.47223">
        <ele>820.2</ele>
        <time>2021-02-20T13:25:50.000Z</time>
      </trkpt>
      <trkpt lat="45.86123" lon="5.47226">
        <ele>820.2</ele>
        <time>2021-02-20T13:25:51.000Z</time>
      </trkpt>
      <trkpt lat="45.86124" lon="5.47229">
        <ele>820.4</ele>
        <time>2021-02-20T13:25:52.000Z</time>
      </trkpt>
      <trkpt lat="45.86124" lon="5.47233">
        <ele>820.8</ele>
        <time>2021-02-20T13:25:53.000Z</time>
      </trkpt>
      <trkpt lat="45.86124" lon="5.47236">
        <ele>821.2</ele>
        <time>2021-02-20T13:25:54.000Z</time>
      </trkpt>
      <trkpt lat="45.86124" lon="5.4724">
        <ele>821.2</ele>
        <time>2021-02-20T13:25:55.000Z</time>
      </trkpt>
      <trkpt lat="45.86125" lon="5.47244">
        <ele>821.4</ele>
        <time>2021-02-20T13:25:56.000Z</time>
      </trkpt>
      <trkpt lat="45.86125" lon="5.47247">
        <ele>821.8</ele>
        <time>2021-02-20T13:25:57.000Z</time>
      </trkpt>
      <trkpt lat="45.86125" lon="5.4725">
        <ele>822</ele>
        <time>2021-02-20T13:25:58.000Z</time>
      </trkpt>
      <trkpt lat="45.86126" lon="5.47253">
        <ele>822.2</ele>
        <time>2021-02-20T13:25:59.000Z</time>
      </trkpt>
      <trkpt lat="45.86126" lon="5.47255">
        <ele>822.4</ele>
        <time>2021-02-20T13:26:00.000Z</time>
      </trkpt>
      <trkpt lat="45.86126" lon="5.47257">
        <ele>822.4</ele>
        <time>2021-02-20T13:26:01.000Z</time>
      </trkpt>
      <trkpt lat="45.86126" lon="5.4726">
        <ele>822.6</ele>
        <time>2021-02-20T13:26:02.000Z</time>
      </trkpt>
      <trkpt lat="45.86126" lon="5.47263">
        <ele>822.6</ele>
        <time>2021-02-20T13:26:03.000Z</time>
      </trkpt>
      <trkpt lat="45.86126" lon="5.47266">
        <ele>822.8</ele>
        <time>2021-02-20T13:26:04.000Z</time>
      </trkpt>
      <trkpt lat="45.86125" lon="5.4727">
        <ele>823</ele>
        <time>2021-02-20T13:26:05.000Z</time>
      </trkpt>
      <trkpt lat="45.86124" lon="5.47273">
        <ele>823.2</ele>
        <time>2021-02-20T13:26:06.000Z</time>
      </trkpt>
      <trkpt lat="45.86123" lon="5.47275">
        <ele>823.4</ele>
        <time>2021-02-20T13:26:07.000Z</time>
      </trkpt>
      <trkpt lat="45.86123" lon="5.47278">
        <ele>823.6</ele>
        <time>2021-02-20T13:26:08.000Z</time>
      </trkpt>
      <trkpt lat="45.86122" lon="5.47282">
        <ele>823.8</ele>
        <time>2021-02-20T13:26:09.000Z</time>
      </trkpt>
      <trkpt lat="45.8612" lon="5.47284">
        <ele>824.2</ele>
        <time>2021-02-20T13:26:10.000Z</time>
      </trkpt>
      <trkpt lat="45.86119" lon="5.47288">
        <ele>824.2</ele>
        <time>2021-02-20T13:26:11.000Z</time>
      </trkpt>
      <trkpt lat="45.86117" lon="5.47291">
        <ele>824.6</ele>
        <time>2021-02-20T13:26:12.000Z</time>
      </trkpt>
      <trkpt lat="45.86113" lon="5.47294">
        <ele>824.8</ele>
        <time>2021-02-20T13:26:13.000Z</time>
      </trkpt>
      <trkpt lat="45.86111" lon="5.47297">
        <ele>825</ele>
        <time>2021-02-20T13:26:14.000Z</time>
      </trkpt>
      <trkpt lat="45.86106" lon="5.47301">
        <ele>825.2</ele>
        <time>2021-02-20T13:26:15.000Z</time>
      </trkpt>
      <trkpt lat="45.86103" lon="5.47304">
        <ele>825.6</ele>
        <time>2021-02-20T13:26:16.000Z</time>
      </trkpt>
      <trkpt lat="45.861" lon="5.47307">
        <ele>825.8</ele>
        <time>2021-02-20T13:26:17.000Z</time>
      </trkpt>
      <trkpt lat="45.86098" lon="5.4731">
        <ele>826</ele>
        <time>2021-02-20T13:26:18.000Z</time>
      </trkpt>
      <trkpt lat="45.86096" lon="5.47313">
        <ele>826.2</ele>
        <time>2021-02-20T13:26:19.000Z</time>
      </trkpt>
      <trkpt lat="45.86094" lon="5.47316">
        <ele>826.2</ele>
        <time>2021-02-20T13:26:20.000Z</time>
      </trkpt>
      <trkpt lat="45.86093" lon="5.4732">
        <ele>826.2</ele>
        <time>2021-02-20T13:26:21.000Z</time>
      </trkpt>
      <trkpt lat="45.86091" lon="5.47323">
        <ele>826.2</ele>
        <time>2021-02-20T13:26:22.000Z</time>
      </trkpt>
      <trkpt lat="45.8609" lon="5.47326">
        <ele>826.6</ele>
        <time>2021-02-20T13:26:23.000Z</time>
      </trkpt>
      <trkpt lat="45.8609" lon="5.4733">
        <ele>826.8</ele>
        <time>2021-02-20T13:26:24.000Z</time>
      </trkpt>
      <trkpt lat="45.8609" lon="5.47334">
        <ele>826.8</ele>
        <time>2021-02-20T13:26:25.000Z</time>
      </trkpt>
      <trkpt lat="45.86092" lon="5.47338">
        <ele>827</ele>
        <time>2021-02-20T13:26:26.000Z</time>
      </trkpt>
      <trkpt lat="45.86093" lon="5.47341">
        <ele>827.2</ele>
        <time>2021-02-20T13:26:27.000Z</time>
      </trkpt>
      <trkpt lat="45.86093" lon="5.47342">
        <ele>827.2</ele>
        <time>2021-02-20T13:26:28.000Z</time>
      </trkpt>
      <trkpt lat="45.86093" lon="5.47344">
        <ele>827.4</ele>
        <time>2021-02-20T13:26:29.000Z</time>
      </trkpt>
      <trkpt lat="45.86093" lon="5.47346">
        <ele>827.6</ele>
        <time>2021-02-20T13:26:30.000Z</time>
      </trkpt>
      <trkpt lat="45.86093" lon="5.47348">
        <ele>827.6</ele>
        <time>2021-02-20T13:26:31.000Z</time>
      </trkpt>
      <trkpt lat="45.86092" lon="5.4735">
        <ele>827.6</ele>
        <time>2021-02-20T13:26:32.000Z</time>
      </trkpt>
      <trkpt lat="45.86093" lon="5.47352">
        <ele>827.8</ele>
        <time>2021-02-20T13:26:33.000Z</time>
      </trkpt>
      <trkpt lat="45.86095" lon="5.47355">
        <ele>828.2</ele>
        <time>2021-02-20T13:26:34.000Z</time>
      </trkpt>
      <trkpt lat="45.86097" lon="5.47358">
        <ele>828.2</ele>
        <time>2021-02-20T13:26:35.000Z</time>
      </trkpt>
      <trkpt lat="45.86097" lon="5.47359">
        <ele>828.4</ele>
        <time>2021-02-20T13:26:36.000Z</time>
      </trkpt>
      <trkpt lat="45.861" lon="5.47362">
        <ele>828.4</ele>
        <time>2021-02-20T13:26:37.000Z</time>
      </trkpt>
      <trkpt lat="45.86104" lon="5.47366">
        <ele>828.6</ele>
        <time>2021-02-20T13:26:38.000Z</time>
      </trkpt>
      <trkpt lat="45.86109" lon="5.4737">
        <ele>828.8</ele>
        <time>2021-02-20T13:26:39.000Z</time>
      </trkpt>
      <trkpt lat="45.86113" lon="5.47373">
        <ele>829</ele>
        <time>2021-02-20T13:26:40.000Z</time>
      </trkpt>
      <trkpt lat="45.86117" lon="5.47375">
        <ele>829</ele>
        <time>2021-02-20T13:26:41.000Z</time>
      </trkpt>
      <trkpt lat="45.8612" lon="5.47376">
        <ele>829</ele>
        <time>2021-02-20T13:26:42.000Z</time>
      </trkpt>
      <trkpt lat="45.86123" lon="5.47377">
        <ele>829.2</ele>
        <time>2021-02-20T13:26:43.000Z</time>
      </trkpt>
      <trkpt lat="45.86126" lon="5.47377">
        <ele>829.4</ele>
        <time>2021-02-20T13:26:44.000Z</time>
      </trkpt>
      <trkpt lat="45.86128" lon="5.47377">
        <ele>829.6</ele>
        <time>2021-02-20T13:26:45.000Z</time>
      </trkpt>
      <trkpt lat="45.86131" lon="5.47378">
        <ele>829.8</ele>
        <time>2021-02-20T13:26:46.000Z</time>
      </trkpt>
      <trkpt lat="45.86133" lon="5.47378">
        <ele>829.8</ele>
        <time>2021-02-20T13:26:47.000Z</time>
      </trkpt>
      <trkpt lat="45.86136" lon="5.47378">
        <ele>830</ele>
        <time>2021-02-20T13:26:48.000Z</time>
      </trkpt>
      <trkpt lat="45.86139" lon="5.47378">
        <ele>830.2</ele>
        <time>2021-02-20T13:26:49.000Z</time>
      </trkpt>
      <trkpt lat="45.86142" lon="5.47377">
        <ele>830.2</ele>
        <time>2021-02-20T13:26:50.000Z</time>
      </trkpt>
      <trkpt lat="45.86145" lon="5.47376">
        <ele>830.4</ele>
        <time>2021-02-20T13:26:51.000Z</time>
      </trkpt>
      <trkpt lat="45.86148" lon="5.47375">
        <ele>830.8</ele>
        <time>2021-02-20T13:26:52.000Z</time>
      </trkpt>
      <trkpt lat="45.86151" lon="5.47374">
        <ele>830.8</ele>
        <time>2021-02-20T13:26:53.000Z</time>
      </trkpt>
      <trkpt lat="45.86153" lon="5.47373">
        <ele>831</ele>
        <time>2021-02-20T13:26:54.000Z</time>
      </trkpt>
      <trkpt lat="45.86156" lon="5.47371">
        <ele>831.2</ele>
        <time>2021-02-20T13:26:55.000Z</time>
      </trkpt>
      <trkpt lat="45.86159" lon="5.47371">
        <ele>831.2</ele>
        <time>2021-02-20T13:26:56.000Z</time>
      </trkpt>
      <trkpt lat="45.86162" lon="5.4737">
        <ele>831.2</ele>
        <time>2021-02-20T13:26:57.000Z</time>
      </trkpt>
      <trkpt lat="45.86164" lon="5.47369">
        <ele>831.6</ele>
        <time>2021-02-20T13:26:58.000Z</time>
      </trkpt>
      <trkpt lat="45.86167" lon="5.47369">
        <ele>831.6</ele>
        <time>2021-02-20T13:26:59.000Z</time>
      </trkpt>
      <trkpt lat="45.86169" lon="5.47368">
        <ele>831.6</ele>
        <time>2021-02-20T13:27:00.000Z</time>
      </trkpt>
      <trkpt lat="45.86172" lon="5.47368">
        <ele>831.8</ele>
        <time>2021-02-20T13:27:01.000Z</time>
      </trkpt>
      <trkpt lat="45.86174" lon="5.47367">
        <ele>832.2</ele>
        <time>2021-02-20T13:27:02.000Z</time>
      </trkpt>
      <trkpt lat="45.86176" lon="5.47367">
        <ele>832.4</ele>
        <time>2021-02-20T13:27:03.000Z</time>
      </trkpt>
      <trkpt lat="45.86179" lon="5.47367">
        <ele>832.4</ele>
        <time>2021-02-20T13:27:04.000Z</time>
      </trkpt>
      <trkpt lat="45.86181" lon="5.47367">
        <ele>832.6</ele>
        <time>2021-02-20T13:27:05.000Z</time>
      </trkpt>
      <trkpt lat="45.86184" lon="5.47367">
        <ele>832.6</ele>
        <time>2021-02-20T13:27:06.000Z</time>
      </trkpt>
      <trkpt lat="45.86187" lon="5.47366">
        <ele>832.8</ele>
        <time>2021-02-20T13:27:07.000Z</time>
      </trkpt>
      <trkpt lat="45.8619" lon="5.47367">
        <ele>833</ele>
        <time>2021-02-20T13:27:08.000Z</time>
      </trkpt>
      <trkpt lat="45.86193" lon="5.47366">
        <ele>833.2</ele>
        <time>2021-02-20T13:27:09.000Z</time>
      </trkpt>
      <trkpt lat="45.86196" lon="5.47367">
        <ele>833.4</ele>
        <time>2021-02-20T13:27:10.000Z</time>
      </trkpt>
      <trkpt lat="45.86198" lon="5.47367">
        <ele>833.6</ele>
        <time>2021-02-20T13:27:11.000Z</time>
      </trkpt>
      <trkpt lat="45.86201" lon="5.47367">
        <ele>833.6</ele>
        <time>2021-02-20T13:27:12.000Z</time>
      </trkpt>
      <trkpt lat="45.86204" lon="5.47367">
        <ele>833.8</ele>
        <time>2021-02-20T13:27:13.000Z</time>
      </trkpt>
      <trkpt lat="45.86206" lon="5.47367">
        <ele>834.2</ele>
        <time>2021-02-20T13:27:14.000Z</time>
      </trkpt>
      <trkpt lat="45.86209" lon="5.47367">
        <ele>834.2</ele>
        <time>2021-02-20T13:27:15.000Z</time>
      </trkpt>
      <trkpt lat="45.86212" lon="5.47368">
        <ele>834.4</ele>
        <time>2021-02-20T13:27:16.000Z</time>
      </trkpt>
      <trkpt lat="45.86214" lon="5.47368">
        <ele>834.4</ele>
        <time>2021-02-20T13:27:17.000Z</time>
      </trkpt>
      <trkpt lat="45.86216" lon="5.47368">
        <ele>834.6</ele>
        <time>2021-02-20T13:27:18.000Z</time>
      </trkpt>
      <trkpt lat="45.86217" lon="5.47367">
        <ele>834.8</ele>
        <time>2021-02-20T13:27:19.000Z</time>
      </trkpt>
      <trkpt lat="45.8622" lon="5.47367">
        <ele>834.8</ele>
        <time>2021-02-20T13:27:20.000Z</time>
      </trkpt>
      <trkpt lat="45.86222" lon="5.47367">
        <ele>834.8</ele>
        <time>2021-02-20T13:27:21.000Z</time>
      </trkpt>
      <trkpt lat="45.86225" lon="5.47367">
        <ele>835</ele>
        <time>2021-02-20T13:27:22.000Z</time>
      </trkpt>
      <trkpt lat="45.86228" lon="5.47367">
        <ele>835.2</ele>
        <time>2021-02-20T13:27:23.000Z</time>
      </trkpt>
      <trkpt lat="45.86231" lon="5.47367">
        <ele>835</ele>
        <time>2021-02-20T13:27:24.000Z</time>
      </trkpt>
      <trkpt lat="45.86234" lon="5.47367">
        <ele>835.4</ele>
        <time>2021-02-20T13:27:25.000Z</time>
      </trkpt>
      <trkpt lat="45.86236" lon="5.47366">
        <ele>835.6</ele>
        <time>2021-02-20T13:27:26.000Z</time>
      </trkpt>
      <trkpt lat="45.86239" lon="5.47366">
        <ele>836</ele>
        <time>2021-02-20T13:27:27.000Z</time>
      </trkpt>
      <trkpt lat="45.86242" lon="5.47366">
        <ele>836.4</ele>
        <time>2021-02-20T13:27:28.000Z</time>
      </trkpt>
      <trkpt lat="45.86245" lon="5.47366">
        <ele>836.6</ele>
        <time>2021-02-20T13:27:29.000Z</time>
      </trkpt>
      <trkpt lat="45.86248" lon="5.47366">
        <ele>836.8</ele>
        <time>2021-02-20T13:27:30.000Z</time>
      </trkpt>
      <trkpt lat="45.8625" lon="5.47365">
        <ele>836.8</ele>
        <time>2021-02-20T13:27:31.000Z</time>
      </trkpt>
      <trkpt lat="45.86252" lon="5.47365">
        <ele>837</ele>
        <time>2021-02-20T13:27:32.000Z</time>
      </trkpt>
      <trkpt lat="45.86255" lon="5.47364">
        <ele>837.6</ele>
        <time>2021-02-20T13:27:33.000Z</time>
      </trkpt>
      <trkpt lat="45.86257" lon="5.47364">
        <ele>837.8</ele>
        <time>2021-02-20T13:27:34.000Z</time>
      </trkpt>
      <trkpt lat="45.8626" lon="5.47364">
        <ele>838.2</ele>
        <time>2021-02-20T13:27:35.000Z</time>
      </trkpt>
      <trkpt lat="45.86263" lon="5.47364">
        <ele>838.4</ele>
        <time>2021-02-20T13:27:36.000Z</time>
      </trkpt>
      <trkpt lat="45.86265" lon="5.47363">
        <ele>838.4</ele>
        <time>2021-02-20T13:27:37.000Z</time>
      </trkpt>
      <trkpt lat="45.86268" lon="5.47363">
        <ele>838.6</ele>
        <time>2021-02-20T13:27:38.000Z</time>
      </trkpt>
      <trkpt lat="45.8627" lon="5.47362">
        <ele>838.4</ele>
        <time>2021-02-20T13:27:39.000Z</time>
      </trkpt>
      <trkpt lat="45.86273" lon="5.47361">
        <ele>838.6</ele>
        <time>2021-02-20T13:27:40.000Z</time>
      </trkpt>
      <trkpt lat="45.86275" lon="5.47361">
        <ele>838.6</ele>
        <time>2021-02-20T13:27:41.000Z</time>
      </trkpt>
      <trkpt lat="45.86278" lon="5.47361">
        <ele>838.8</ele>
        <time>2021-02-20T13:27:42.000Z</time>
      </trkpt>
      <trkpt lat="45.86281" lon="5.47361">
        <ele>839</ele>
        <time>2021-02-20T13:27:43.000Z</time>
      </trkpt>
      <trkpt lat="45.86283" lon="5.47361">
        <ele>839.4</ele>
        <time>2021-02-20T13:27:44.000Z</time>
      </trkpt>
      <trkpt lat="45.86286" lon="5.47362">
        <ele>839.4</ele>
        <time>2021-02-20T13:27:45.000Z</time>
      </trkpt>
      <trkpt lat="45.86288" lon="5.47362">
        <ele>839.8</ele>
        <time>2021-02-20T13:27:46.000Z</time>
      </trkpt>
      <trkpt lat="45.8629" lon="5.47363">
        <ele>840</ele>
        <time>2021-02-20T13:27:47.000Z</time>
      </trkpt>
      <trkpt lat="45.86293" lon="5.47364">
        <ele>840</ele>
        <time>2021-02-20T13:27:48.000Z</time>
      </trkpt>
      <trkpt lat="45.86295" lon="5.47365">
        <ele>840.2</ele>
        <time>2021-02-20T13:27:49.000Z</time>
      </trkpt>
      <trkpt lat="45.86297" lon="5.47367">
        <ele>840.4</ele>
        <time>2021-02-20T13:27:50.000Z</time>
      </trkpt>
      <trkpt lat="45.86299" lon="5.47369">
        <ele>840.6</ele>
        <time>2021-02-20T13:27:51.000Z</time>
      </trkpt>
      <trkpt lat="45.86302" lon="5.47371">
        <ele>840.8</ele>
        <time>2021-02-20T13:27:52.000Z</time>
      </trkpt>
      <trkpt lat="45.86304" lon="5.47373">
        <ele>841</ele>
        <time>2021-02-20T13:27:53.000Z</time>
      </trkpt>
      <trkpt lat="45.86306" lon="5.47375">
        <ele>841.2</ele>
        <time>2021-02-20T13:27:54.000Z</time>
      </trkpt>
      <trkpt lat="45.86308" lon="5.47378">
        <ele>841.4</ele>
        <time>2021-02-20T13:27:55.000Z</time>
      </trkpt>
      <trkpt lat="45.86309" lon="5.4738">
        <ele>841.4</ele>
        <time>2021-02-20T13:27:56.000Z</time>
      </trkpt>
      <trkpt lat="45.86312" lon="5.47382">
        <ele>841.8</ele>
        <time>2021-02-20T13:27:57.000Z</time>
      </trkpt>
      <trkpt lat="45.86314" lon="5.47385">
        <ele>841.8</ele>
        <time>2021-02-20T13:27:58.000Z</time>
      </trkpt>
      <trkpt lat="45.86316" lon="5.47387">
        <ele>841.8</ele>
        <time>2021-02-20T13:27:59.000Z</time>
      </trkpt>
      <trkpt lat="45.86319" lon="5.4739">
        <ele>842.2</ele>
        <time>2021-02-20T13:28:00.000Z</time>
      </trkpt>
      <trkpt lat="45.86321" lon="5.47392">
        <ele>842.2</ele>
        <time>2021-02-20T13:28:01.000Z</time>
      </trkpt>
      <trkpt lat="45.86323" lon="5.47396">
        <ele>842.2</ele>
        <time>2021-02-20T13:28:02.000Z</time>
      </trkpt>
      <trkpt lat="45.86324" lon="5.474">
        <ele>842.6</ele>
        <time>2021-02-20T13:28:03.000Z</time>
      </trkpt>
      <trkpt lat="45.86326" lon="5.47403">
        <ele>842.6</ele>
        <time>2021-02-20T13:28:04.000Z</time>
      </trkpt>
      <trkpt lat="45.86328" lon="5.47406">
        <ele>843</ele>
        <time>2021-02-20T13:28:05.000Z</time>
      </trkpt>
      <trkpt lat="45.86332" lon="5.47409">
        <ele>843</ele>
        <time>2021-02-20T13:28:06.000Z</time>
      </trkpt>
      <trkpt lat="45.86335" lon="5.47412">
        <ele>843.2</ele>
        <time>2021-02-20T13:28:07.000Z</time>
      </trkpt>
      <trkpt lat="45.86337" lon="5.47413">
        <ele>843.6</ele>
        <time>2021-02-20T13:28:08.000Z</time>
      </trkpt>
      <trkpt lat="45.8634" lon="5.47415">
        <ele>843.8</ele>
        <time>2021-02-20T13:28:09.000Z</time>
      </trkpt>
      <trkpt lat="45.86343" lon="5.47416">
        <ele>843.8</ele>
        <time>2021-02-20T13:28:10.000Z</time>
      </trkpt>
      <trkpt lat="45.86346" lon="5.47416">
        <ele>844</ele>
        <time>2021-02-20T13:28:11.000Z</time>
      </trkpt>
      <trkpt lat="45.86348" lon="5.47416">
        <ele>844.2</ele>
        <time>2021-02-20T13:28:12.000Z</time>
      </trkpt>
      <trkpt lat="45.86351" lon="5.47416">
        <ele>844.2</ele>
        <time>2021-02-20T13:28:13.000Z</time>
      </trkpt>
      <trkpt lat="45.86354" lon="5.47417">
        <ele>844.6</ele>
        <time>2021-02-20T13:28:14.000Z</time>
      </trkpt>
      <trkpt lat="45.86357" lon="5.47417">
        <ele>844.8</ele>
        <time>2021-02-20T13:28:15.000Z</time>
      </trkpt>
      <trkpt lat="45.86359" lon="5.47416">
        <ele>845</ele>
        <time>2021-02-20T13:28:16.000Z</time>
      </trkpt>
      <trkpt lat="45.86362" lon="5.47415">
        <ele>845.2</ele>
        <time>2021-02-20T13:28:17.000Z</time>
      </trkpt>
      <trkpt lat="45.86364" lon="5.47414">
        <ele>845.4</ele>
        <time>2021-02-20T13:28:18.000Z</time>
      </trkpt>
      <trkpt lat="45.86365" lon="5.47412">
        <ele>845.8</ele>
        <time>2021-02-20T13:28:19.000Z</time>
      </trkpt>
      <trkpt lat="45.86367" lon="5.47411">
        <ele>845.8</ele>
        <time>2021-02-20T13:28:20.000Z</time>
      </trkpt>
      <trkpt lat="45.86369" lon="5.4741">
        <ele>845.8</ele>
        <time>2021-02-20T13:28:21.000Z</time>
      </trkpt>
      <trkpt lat="45.86372" lon="5.47408">
        <ele>846</ele>
        <time>2021-02-20T13:28:22.000Z</time>
      </trkpt>
      <trkpt lat="45.86374" lon="5.47407">
        <ele>846.2</ele>
        <time>2021-02-20T13:28:23.000Z</time>
      </trkpt>
      <trkpt lat="45.86376" lon="5.47405">
        <ele>846.2</ele>
        <time>2021-02-20T13:28:24.000Z</time>
      </trkpt>
      <trkpt lat="45.86378" lon="5.47403">
        <ele>846.2</ele>
        <time>2021-02-20T13:28:25.000Z</time>
      </trkpt>
      <trkpt lat="45.8638" lon="5.47402">
        <ele>846.6</ele>
        <time>2021-02-20T13:28:26.000Z</time>
      </trkpt>
      <trkpt lat="45.86382" lon="5.47401">
        <ele>846.6</ele>
        <time>2021-02-20T13:28:27.000Z</time>
      </trkpt>
      <trkpt lat="45.86384" lon="5.474">
        <ele>846.6</ele>
        <time>2021-02-20T13:28:28.000Z</time>
      </trkpt>
      <trkpt lat="45.86386" lon="5.474">
        <ele>846.8</ele>
        <time>2021-02-20T13:28:29.000Z</time>
      </trkpt>
      <trkpt lat="45.86389" lon="5.47399">
        <ele>847</ele>
        <time>2021-02-20T13:28:30.000Z</time>
      </trkpt>
      <trkpt lat="45.86391" lon="5.47398">
        <ele>847</ele>
        <time>2021-02-20T13:28:31.000Z</time>
      </trkpt>
      <trkpt lat="45.86395" lon="5.47398">
        <ele>847.2</ele>
        <time>2021-02-20T13:28:32.000Z</time>
      </trkpt>
      <trkpt lat="45.86398" lon="5.47397">
        <ele>847.4</ele>
        <time>2021-02-20T13:28:33.000Z</time>
      </trkpt>
      <trkpt lat="45.86402" lon="5.47396">
        <ele>847.6</ele>
        <time>2021-02-20T13:28:34.000Z</time>
      </trkpt>
      <trkpt lat="45.86405" lon="5.47395">
        <ele>848</ele>
        <time>2021-02-20T13:28:35.000Z</time>
      </trkpt>
      <trkpt lat="45.86408" lon="5.47394">
        <ele>848.2</ele>
        <time>2021-02-20T13:28:36.000Z</time>
      </trkpt>
      <trkpt lat="45.86411" lon="5.47393">
        <ele>848.4</ele>
        <time>2021-02-20T13:28:37.000Z</time>
      </trkpt>
      <trkpt lat="45.86414" lon="5.47392">
        <ele>848.6</ele>
        <time>2021-02-20T13:28:38.000Z</time>
      </trkpt>
      <trkpt lat="45.86416" lon="5.47391">
        <ele>849</ele>
        <time>2021-02-20T13:28:39.000Z</time>
      </trkpt>
      <trkpt lat="45.86419" lon="5.47391">
        <ele>849.2</ele>
        <time>2021-02-20T13:28:40.000Z</time>
      </trkpt>
      <trkpt lat="45.86421" lon="5.4739">
        <ele>849.2</ele>
        <time>2021-02-20T13:28:41.000Z</time>
      </trkpt>
      <trkpt lat="45.86423" lon="5.47389">
        <ele>849.4</ele>
        <time>2021-02-20T13:28:42.000Z</time>
      </trkpt>
      <trkpt lat="45.86424" lon="5.47388">
        <ele>849.4</ele>
        <time>2021-02-20T13:28:43.000Z</time>
      </trkpt>
      <trkpt lat="45.86426" lon="5.47387">
        <ele>849.6</ele>
        <time>2021-02-20T13:28:44.000Z</time>
      </trkpt>
      <trkpt lat="45.86428" lon="5.47386">
        <ele>850</ele>
        <time>2021-02-20T13:28:45.000Z</time>
      </trkpt>
      <trkpt lat="45.8643" lon="5.47385">
        <ele>850.2</ele>
        <time>2021-02-20T13:28:46.000Z</time>
      </trkpt>
      <trkpt lat="45.86432" lon="5.47384">
        <ele>850.2</ele>
        <time>2021-02-20T13:28:47.000Z</time>
      </trkpt>
      <trkpt lat="45.86436" lon="5.47384">
        <ele>850.4</ele>
        <time>2021-02-20T13:28:48.000Z</time>
      </trkpt>
      <trkpt lat="45.86439" lon="5.47384">
        <ele>850.8</ele>
        <time>2021-02-20T13:28:49.000Z</time>
      </trkpt>
      <trkpt lat="45.86441" lon="5.47383">
        <ele>851</ele>
        <time>2021-02-20T13:28:50.000Z</time>
      </trkpt>
      <trkpt lat="45.86443" lon="5.47382">
        <ele>851.2</ele>
        <time>2021-02-20T13:28:51.000Z</time>
      </trkpt>
      <trkpt lat="45.86446" lon="5.47382">
        <ele>851.2</ele>
        <time>2021-02-20T13:28:52.000Z</time>
      </trkpt>
      <trkpt lat="45.86448" lon="5.47381">
        <ele>851.6</ele>
        <time>2021-02-20T13:28:53.000Z</time>
      </trkpt>
      <trkpt lat="45.86451" lon="5.4738">
        <ele>852</ele>
        <time>2021-02-20T13:28:54.000Z</time>
      </trkpt>
      <trkpt lat="45.86453" lon="5.4738">
        <ele>852.2</ele>
        <time>2021-02-20T13:28:55.000Z</time>
      </trkpt>
      <trkpt lat="45.86455" lon="5.47379">
        <ele>852.4</ele>
        <time>2021-02-20T13:28:56.000Z</time>
      </trkpt>
      <trkpt lat="45.86458" lon="5.47379">
        <ele>852.4</ele>
        <time>2021-02-20T13:28:57.000Z</time>
      </trkpt>
      <trkpt lat="45.8646" lon="5.47379">
        <ele>852.8</ele>
        <time>2021-02-20T13:28:58.000Z</time>
      </trkpt>
      <trkpt lat="45.86462" lon="5.47378">
        <ele>853</ele>
        <time>2021-02-20T13:28:59.000Z</time>
      </trkpt>
      <trkpt lat="45.86465" lon="5.47377">
        <ele>853.4</ele>
        <time>2021-02-20T13:29:00.000Z</time>
      </trkpt>
      <trkpt lat="45.86468" lon="5.47376">
        <ele>853.4</ele>
        <time>2021-02-20T13:29:01.000Z</time>
      </trkpt>
      <trkpt lat="45.8647" lon="5.47376">
        <ele>853.8</ele>
        <time>2021-02-20T13:29:02.000Z</time>
      </trkpt>
      <trkpt lat="45.86473" lon="5.47375">
        <ele>853.8</ele>
        <time>2021-02-20T13:29:03.000Z</time>
      </trkpt>
      <trkpt lat="45.86476" lon="5.47374">
        <ele>854.2</ele>
        <time>2021-02-20T13:29:04.000Z</time>
      </trkpt>
      <trkpt lat="45.86479" lon="5.47374">
        <ele>854.2</ele>
        <time>2021-02-20T13:29:05.000Z</time>
      </trkpt>
      <trkpt lat="45.86482" lon="5.47374">
        <ele>854.6</ele>
        <time>2021-02-20T13:29:06.000Z</time>
      </trkpt>
      <trkpt lat="45.86484" lon="5.47374">
        <ele>854.6</ele>
        <time>2021-02-20T13:29:07.000Z</time>
      </trkpt>
      <trkpt lat="45.86487" lon="5.47374">
        <ele>854.8</ele>
        <time>2021-02-20T13:29:08.000Z</time>
      </trkpt>
      <trkpt lat="45.86489" lon="5.47374">
        <ele>855</ele>
        <time>2021-02-20T13:29:09.000Z</time>
      </trkpt>
      <trkpt lat="45.86491" lon="5.47374">
        <ele>855.6</ele>
        <time>2021-02-20T13:29:10.000Z</time>
      </trkpt>
      <trkpt lat="45.86493" lon="5.47373">
        <ele>855.8</ele>
        <time>2021-02-20T13:29:11.000Z</time>
      </trkpt>
      <trkpt lat="45.86495" lon="5.47374">
        <ele>856</ele>
        <time>2021-02-20T13:29:12.000Z</time>
      </trkpt>
      <trkpt lat="45.86497" lon="5.47373">
        <ele>856</ele>
        <time>2021-02-20T13:29:13.000Z</time>
      </trkpt>
      <trkpt lat="45.86499" lon="5.47372">
        <ele>856</ele>
        <time>2021-02-20T13:29:14.000Z</time>
      </trkpt>
      <trkpt lat="45.86502" lon="5.47371">
        <ele>856.2</ele>
        <time>2021-02-20T13:29:15.000Z</time>
      </trkpt>
      <trkpt lat="45.86504" lon="5.4737">
        <ele>856.8</ele>
        <time>2021-02-20T13:29:16.000Z</time>
      </trkpt>
      <trkpt lat="45.86508" lon="5.47368">
        <ele>857</ele>
        <time>2021-02-20T13:29:17.000Z</time>
      </trkpt>
      <trkpt lat="45.8651" lon="5.47367">
        <ele>857.2</ele>
        <time>2021-02-20T13:29:18.000Z</time>
      </trkpt>
      <trkpt lat="45.86512" lon="5.47365">
        <ele>857.4</ele>
        <time>2021-02-20T13:29:19.000Z</time>
      </trkpt>
      <trkpt lat="45.86515" lon="5.47363">
        <ele>857.6</ele>
        <time>2021-02-20T13:29:20.000Z</time>
      </trkpt>
      <trkpt lat="45.86518" lon="5.4736">
        <ele>857.6</ele>
        <time>2021-02-20T13:29:21.000Z</time>
      </trkpt>
      <trkpt lat="45.86521" lon="5.47356">
        <ele>857.8</ele>
        <time>2021-02-20T13:29:22.000Z</time>
      </trkpt>
      <trkpt lat="45.86524" lon="5.47354">
        <ele>858</ele>
        <time>2021-02-20T13:29:23.000Z</time>
      </trkpt>
      <trkpt lat="45.86526" lon="5.47352">
        <ele>858.2</ele>
        <time>2021-02-20T13:29:24.000Z</time>
      </trkpt>
      <trkpt lat="45.86528" lon="5.4735">
        <ele>858.4</ele>
        <time>2021-02-20T13:29:25.000Z</time>
      </trkpt>
      <trkpt lat="45.8653" lon="5.47347">
        <ele>858.6</ele>
        <time>2021-02-20T13:29:26.000Z</time>
      </trkpt>
      <trkpt lat="45.86532" lon="5.47345">
        <ele>858.6</ele>
        <time>2021-02-20T13:29:27.000Z</time>
      </trkpt>
      <trkpt lat="45.86535" lon="5.47343">
        <ele>858.8</ele>
        <time>2021-02-20T13:29:28.000Z</time>
      </trkpt>
      <trkpt lat="45.86537" lon="5.4734">
        <ele>859</ele>
        <time>2021-02-20T13:29:29.000Z</time>
      </trkpt>
      <trkpt lat="45.8654" lon="5.47339">
        <ele>859</ele>
        <time>2021-02-20T13:29:30.000Z</time>
      </trkpt>
      <trkpt lat="45.86543" lon="5.47336">
        <ele>859</ele>
        <time>2021-02-20T13:29:31.000Z</time>
      </trkpt>
      <trkpt lat="45.86545" lon="5.47333">
        <ele>859.2</ele>
        <time>2021-02-20T13:29:32.000Z</time>
      </trkpt>
      <trkpt lat="45.86547" lon="5.47331">
        <ele>859.4</ele>
        <time>2021-02-20T13:29:33.000Z</time>
      </trkpt>
      <trkpt lat="45.86549" lon="5.47329">
        <ele>859.6</ele>
        <time>2021-02-20T13:29:34.000Z</time>
      </trkpt>
      <trkpt lat="45.86552" lon="5.47327">
        <ele>859.6</ele>
        <time>2021-02-20T13:29:35.000Z</time>
      </trkpt>
      <trkpt lat="45.86554" lon="5.47326">
        <ele>859.6</ele>
        <time>2021-02-20T13:29:36.000Z</time>
      </trkpt>
      <trkpt lat="45.86556" lon="5.47324">
        <ele>859.8</ele>
        <time>2021-02-20T13:29:37.000Z</time>
      </trkpt>
      <trkpt lat="45.86559" lon="5.47322">
        <ele>860</ele>
        <time>2021-02-20T13:29:38.000Z</time>
      </trkpt>
      <trkpt lat="45.86561" lon="5.4732">
        <ele>860</ele>
        <time>2021-02-20T13:29:39.000Z</time>
      </trkpt>
      <trkpt lat="45.86563" lon="5.47319">
        <ele>860.2</ele>
        <time>2021-02-20T13:29:40.000Z</time>
      </trkpt>
      <trkpt lat="45.86565" lon="5.47317">
        <ele>860.2</ele>
        <time>2021-02-20T13:29:41.000Z</time>
      </trkpt>
      <trkpt lat="45.86567" lon="5.47314">
        <ele>860.4</ele>
        <time>2021-02-20T13:29:42.000Z</time>
      </trkpt>
      <trkpt lat="45.86569" lon="5.47312">
        <ele>860.8</ele>
        <time>2021-02-20T13:29:43.000Z</time>
      </trkpt>
      <trkpt lat="45.86571" lon="5.47311">
        <ele>861</ele>
        <time>2021-02-20T13:29:44.000Z</time>
      </trkpt>
      <trkpt lat="45.86573" lon="5.47309">
        <ele>861.2</ele>
        <time>2021-02-20T13:29:45.000Z</time>
      </trkpt>
      <trkpt lat="45.86575" lon="5.47307">
        <ele>861.6</ele>
        <time>2021-02-20T13:29:46.000Z</time>
      </trkpt>
      <trkpt lat="45.86577" lon="5.47305">
        <ele>862</ele>
        <time>2021-02-20T13:29:47.000Z</time>
      </trkpt>
      <trkpt lat="45.8658" lon="5.47303">
        <ele>862.4</ele>
        <time>2021-02-20T13:29:48.000Z</time>
      </trkpt>
      <trkpt lat="45.86583" lon="5.47301">
        <ele>862.8</ele>
        <time>2021-02-20T13:29:49.000Z</time>
      </trkpt>
      <trkpt lat="45.86585" lon="5.47298">
        <ele>863</ele>
        <time>2021-02-20T13:29:50.000Z</time>
      </trkpt>
      <trkpt lat="45.86587" lon="5.47295">
        <ele>863.2</ele>
        <time>2021-02-20T13:29:51.000Z</time>
      </trkpt>
      <trkpt lat="45.8659" lon="5.47293">
        <ele>863.2</ele>
        <time>2021-02-20T13:29:52.000Z</time>
      </trkpt>
      <trkpt lat="45.86592" lon="5.47291">
        <ele>863.2</ele>
        <time>2021-02-20T13:29:53.000Z</time>
      </trkpt>
      <trkpt lat="45.86595" lon="5.47289">
        <ele>863.6</ele>
        <time>2021-02-20T13:29:54.000Z</time>
      </trkpt>
      <trkpt lat="45.86597" lon="5.47286">
        <ele>863.6</ele>
        <time>2021-02-20T13:29:55.000Z</time>
      </trkpt>
      <trkpt lat="45.86599" lon="5.47283">
        <ele>863.8</ele>
        <time>2021-02-20T13:29:56.000Z</time>
      </trkpt>
      <trkpt lat="45.86601" lon="5.4728">
        <ele>864</ele>
        <time>2021-02-20T13:29:57.000Z</time>
      </trkpt>
      <trkpt lat="45.86604" lon="5.47277">
        <ele>864.2</ele>
        <time>2021-02-20T13:29:58.000Z</time>
      </trkpt>
      <trkpt lat="45.86606" lon="5.47275">
        <ele>864.2</ele>
        <time>2021-02-20T13:29:59.000Z</time>
      </trkpt>
      <trkpt lat="45.86608" lon="5.47272">
        <ele>864.6</ele>
        <time>2021-02-20T13:30:00.000Z</time>
      </trkpt>
      <trkpt lat="45.8661" lon="5.47269">
        <ele>864.6</ele>
        <time>2021-02-20T13:30:01.000Z</time>
      </trkpt>
      <trkpt lat="45.86613" lon="5.47266">
        <ele>864.8</ele>
        <time>2021-02-20T13:30:02.000Z</time>
      </trkpt>
      <trkpt lat="45.86615" lon="5.47264">
        <ele>865</ele>
        <time>2021-02-20T13:30:03.000Z</time>
      </trkpt>
      <trkpt lat="45.86618" lon="5.47262">
        <ele>865</ele>
        <time>2021-02-20T13:30:04.000Z</time>
      </trkpt>
      <trkpt lat="45.8662" lon="5.4726">
        <ele>865.4</ele>
        <time>2021-02-20T13:30:05.000Z</time>
      </trkpt>
      <trkpt lat="45.86622" lon="5.47257">
        <ele>865.6</ele>
        <time>2021-02-20T13:30:06.000Z</time>
      </trkpt>
      <trkpt lat="45.86624" lon="5.47255">
        <ele>865.8</ele>
        <time>2021-02-20T13:30:07.000Z</time>
      </trkpt>
      <trkpt lat="45.86626" lon="5.47252">
        <ele>866.2</ele>
        <time>2021-02-20T13:30:08.000Z</time>
      </trkpt>
      <trkpt lat="45.86628" lon="5.4725">
        <ele>866.4</ele>
        <time>2021-02-20T13:30:09.000Z</time>
      </trkpt>
      <trkpt lat="45.8663" lon="5.47248">
        <ele>866.6</ele>
        <time>2021-02-20T13:30:10.000Z</time>
      </trkpt>
      <trkpt lat="45.86632" lon="5.47245">
        <ele>866.8</ele>
        <time>2021-02-20T13:30:11.000Z</time>
      </trkpt>
      <trkpt lat="45.86634" lon="5.47243">
        <ele>867.2</ele>
        <time>2021-02-20T13:30:12.000Z</time>
      </trkpt>
      <trkpt lat="45.86636" lon="5.4724">
        <ele>867.2</ele>
        <time>2021-02-20T13:30:13.000Z</time>
      </trkpt>
      <trkpt lat="45.86638" lon="5.47238">
        <ele>867.4</ele>
        <time>2021-02-20T13:30:14.000Z</time>
      </trkpt>
      <trkpt lat="45.8664" lon="5.47235">
        <ele>867.8</ele>
        <time>2021-02-20T13:30:15.000Z</time>
      </trkpt>
      <trkpt lat="45.86643" lon="5.47233">
        <ele>868</ele>
        <time>2021-02-20T13:30:16.000Z</time>
      </trkpt>
      <trkpt lat="45.86645" lon="5.4723">
        <ele>868.4</ele>
        <time>2021-02-20T13:30:17.000Z</time>
      </trkpt>
      <trkpt lat="45.86647" lon="5.47227">
        <ele>868.6</ele>
        <time>2021-02-20T13:30:18.000Z</time>
      </trkpt>
      <trkpt lat="45.8665" lon="5.47225">
        <ele>869</ele>
        <time>2021-02-20T13:30:19.000Z</time>
      </trkpt>
      <trkpt lat="45.86652" lon="5.47222">
        <ele>869</ele>
        <time>2021-02-20T13:30:20.000Z</time>
      </trkpt>
      <trkpt lat="45.86653" lon="5.47219">
        <ele>869.2</ele>
        <time>2021-02-20T13:30:21.000Z</time>
      </trkpt>
      <trkpt lat="45.86655" lon="5.47217">
        <ele>869.4</ele>
        <time>2021-02-20T13:30:22.000Z</time>
      </trkpt>
      <trkpt lat="45.86657" lon="5.47214">
        <ele>869.6</ele>
        <time>2021-02-20T13:30:23.000Z</time>
      </trkpt>
      <trkpt lat="45.86659" lon="5.47211">
        <ele>869.8</ele>
        <time>2021-02-20T13:30:24.000Z</time>
      </trkpt>
      <trkpt lat="45.8666" lon="5.47208">
        <ele>870</ele>
        <time>2021-02-20T13:30:25.000Z</time>
      </trkpt>
      <trkpt lat="45.86661" lon="5.47205">
        <ele>870.4</ele>
        <time>2021-02-20T13:30:26.000Z</time>
      </trkpt>
      <trkpt lat="45.86663" lon="5.47203">
        <ele>870.6</ele>
        <time>2021-02-20T13:30:27.000Z</time>
      </trkpt>
      <trkpt lat="45.86664" lon="5.47199">
        <ele>870.8</ele>
        <time>2021-02-20T13:30:28.000Z</time>
      </trkpt>
      <trkpt lat="45.86666" lon="5.47197">
        <ele>870.8</ele>
        <time>2021-02-20T13:30:29.000Z</time>
      </trkpt>
      <trkpt lat="45.86669" lon="5.47194">
        <ele>871.2</ele>
        <time>2021-02-20T13:30:30.000Z</time>
      </trkpt>
      <trkpt lat="45.86671" lon="5.47192">
        <ele>871.2</ele>
        <time>2021-02-20T13:30:31.000Z</time>
      </trkpt>
      <trkpt lat="45.86674" lon="5.47189">
        <ele>871.4</ele>
        <time>2021-02-20T13:30:32.000Z</time>
      </trkpt>
      <trkpt lat="45.86676" lon="5.47186">
        <ele>871.8</ele>
        <time>2021-02-20T13:30:33.000Z</time>
      </trkpt>
      <trkpt lat="45.86679" lon="5.47183">
        <ele>872</ele>
        <time>2021-02-20T13:30:34.000Z</time>
      </trkpt>
      <trkpt lat="45.86681" lon="5.4718">
        <ele>872</ele>
        <time>2021-02-20T13:30:35.000Z</time>
      </trkpt>
      <trkpt lat="45.86683" lon="5.47177">
        <ele>872.4</ele>
        <time>2021-02-20T13:30:36.000Z</time>
      </trkpt>
      <trkpt lat="45.86685" lon="5.47174">
        <ele>872.6</ele>
        <time>2021-02-20T13:30:37.000Z</time>
      </trkpt>
      <trkpt lat="45.86688" lon="5.47171">
        <ele>873</ele>
        <time>2021-02-20T13:30:38.000Z</time>
      </trkpt>
      <trkpt lat="45.8669" lon="5.47167">
        <ele>873</ele>
        <time>2021-02-20T13:30:39.000Z</time>
      </trkpt>
      <trkpt lat="45.86692" lon="5.47165">
        <ele>873</ele>
        <time>2021-02-20T13:30:40.000Z</time>
      </trkpt>
      <trkpt lat="45.86695" lon="5.47162">
        <ele>873.4</ele>
        <time>2021-02-20T13:30:41.000Z</time>
      </trkpt>
      <trkpt lat="45.86697" lon="5.47159">
        <ele>873.6</ele>
        <time>2021-02-20T13:30:42.000Z</time>
      </trkpt>
      <trkpt lat="45.86699" lon="5.47157">
        <ele>873.6</ele>
        <time>2021-02-20T13:30:43.000Z</time>
      </trkpt>
      <trkpt lat="45.86701" lon="5.47155">
        <ele>874.2</ele>
        <time>2021-02-20T13:30:44.000Z</time>
      </trkpt>
      <trkpt lat="45.86703" lon="5.47152">
        <ele>874.4</ele>
        <time>2021-02-20T13:30:45.000Z</time>
      </trkpt>
      <trkpt lat="45.86705" lon="5.4715">
        <ele>874.8</ele>
        <time>2021-02-20T13:30:46.000Z</time>
      </trkpt>
      <trkpt lat="45.86708" lon="5.47147">
        <ele>875.2</ele>
        <time>2021-02-20T13:30:47.000Z</time>
      </trkpt>
      <trkpt lat="45.86709" lon="5.47144">
        <ele>875.4</ele>
        <time>2021-02-20T13:30:48.000Z</time>
      </trkpt>
      <trkpt lat="45.86711" lon="5.47141">
        <ele>875.6</ele>
        <time>2021-02-20T13:30:49.000Z</time>
      </trkpt>
      <trkpt lat="45.86713" lon="5.47139">
        <ele>876</ele>
        <time>2021-02-20T13:30:50.000Z</time>
      </trkpt>
      <trkpt lat="45.86715" lon="5.47137">
        <ele>876.2</ele>
        <time>2021-02-20T13:30:51.000Z</time>
      </trkpt>
      <trkpt lat="45.86717" lon="5.47135">
        <ele>876.4</ele>
        <time>2021-02-20T13:30:52.000Z</time>
      </trkpt>
      <trkpt lat="45.8672" lon="5.47132">
        <ele>876.6</ele>
        <time>2021-02-20T13:30:53.000Z</time>
      </trkpt>
      <trkpt lat="45.86722" lon="5.4713">
        <ele>876.6</ele>
        <time>2021-02-20T13:30:54.000Z</time>
      </trkpt>
      <trkpt lat="45.86724" lon="5.47127">
        <ele>876.8</ele>
        <time>2021-02-20T13:30:55.000Z</time>
      </trkpt>
      <trkpt lat="45.86727" lon="5.47125">
        <ele>877</ele>
        <time>2021-02-20T13:30:56.000Z</time>
      </trkpt>
      <trkpt lat="45.8673" lon="5.47123">
        <ele>877.4</ele>
        <time>2021-02-20T13:30:57.000Z</time>
      </trkpt>
      <trkpt lat="45.86733" lon="5.47121">
        <ele>878</ele>
        <time>2021-02-20T13:30:58.000Z</time>
      </trkpt>
      <trkpt lat="45.86734" lon="5.47116">
        <ele>878.2</ele>
        <time>2021-02-20T13:30:59.000Z</time>
      </trkpt>
      <trkpt lat="45.86735" lon="5.47112">
        <ele>878.2</ele>
        <time>2021-02-20T13:31:00.000Z</time>
      </trkpt>
      <trkpt lat="45.86737" lon="5.47109">
        <ele>878.4</ele>
        <time>2021-02-20T13:31:01.000Z</time>
      </trkpt>
      <trkpt lat="45.86739" lon="5.47105">
        <ele>878.6</ele>
        <time>2021-02-20T13:31:02.000Z</time>
      </trkpt>
      <trkpt lat="45.86741" lon="5.47103">
        <ele>878.8</ele>
        <time>2021-02-20T13:31:03.000Z</time>
      </trkpt>
      <trkpt lat="45.86743" lon="5.471">
        <ele>879</ele>
        <time>2021-02-20T13:31:04.000Z</time>
      </trkpt>
      <trkpt lat="45.86744" lon="5.47096">
        <ele>879.4</ele>
        <time>2021-02-20T13:31:05.000Z</time>
      </trkpt>
      <trkpt lat="45.86746" lon="5.47093">
        <ele>880</ele>
        <time>2021-02-20T13:31:06.000Z</time>
      </trkpt>
      <trkpt lat="45.86748" lon="5.47091">
        <ele>880.2</ele>
        <time>2021-02-20T13:31:07.000Z</time>
      </trkpt>
      <trkpt lat="45.8675" lon="5.47088">
        <ele>880.6</ele>
        <time>2021-02-20T13:31:08.000Z</time>
      </trkpt>
      <trkpt lat="45.86752" lon="5.47086">
        <ele>881</ele>
        <time>2021-02-20T13:31:09.000Z</time>
      </trkpt>
      <trkpt lat="45.86754" lon="5.47083">
        <ele>881.8</ele>
        <time>2021-02-20T13:31:10.000Z</time>
      </trkpt>
      <trkpt lat="45.86755" lon="5.47081">
        <ele>882.4</ele>
        <time>2021-02-20T13:31:11.000Z</time>
      </trkpt>
      <trkpt lat="45.86758" lon="5.47078">
        <ele>882.6</ele>
        <time>2021-02-20T13:31:12.000Z</time>
      </trkpt>
      <trkpt lat="45.8676" lon="5.47077">
        <ele>883</ele>
        <time>2021-02-20T13:31:13.000Z</time>
      </trkpt>
      <trkpt lat="45.86761" lon="5.47079">
        <ele>883.6</ele>
        <time>2021-02-20T13:31:14.000Z</time>
      </trkpt>
      <trkpt lat="45.86762" lon="5.47081">
        <ele>884</ele>
        <time>2021-02-20T13:31:15.000Z</time>
      </trkpt>
      <trkpt lat="45.86763" lon="5.47085">
        <ele>884.6</ele>
        <time>2021-02-20T13:31:16.000Z</time>
      </trkpt>
      <trkpt lat="45.86763" lon="5.47089">
        <ele>885</ele>
        <time>2021-02-20T13:31:17.000Z</time>
      </trkpt>
      <trkpt lat="45.86763" lon="5.47093">
        <ele>885</ele>
        <time>2021-02-20T13:31:18.000Z</time>
      </trkpt>
      <trkpt lat="45.86763" lon="5.47098">
        <ele>885</ele>
        <time>2021-02-20T13:31:19.000Z</time>
      </trkpt>
      <trkpt lat="45.86763" lon="5.47103">
        <ele>885.4</ele>
        <time>2021-02-20T13:31:20.000Z</time>
      </trkpt>
      <trkpt lat="45.86764" lon="5.47108">
        <ele>885.4</ele>
        <time>2021-02-20T13:31:21.000Z</time>
      </trkpt>
      <trkpt lat="45.86764" lon="5.47113">
        <ele>885.4</ele>
        <time>2021-02-20T13:31:22.000Z</time>
      </trkpt>
      <trkpt lat="45.86765" lon="5.47117">
        <ele>885.4</ele>
        <time>2021-02-20T13:31:23.000Z</time>
      </trkpt>
      <trkpt lat="45.86765" lon="5.47121">
        <ele>885.6</ele>
        <time>2021-02-20T13:31:24.000Z</time>
      </trkpt>
      <trkpt lat="45.86765" lon="5.47125">
        <ele>885.6</ele>
        <time>2021-02-20T13:31:25.000Z</time>
      </trkpt>
      <trkpt lat="45.86766" lon="5.47128">
        <ele>885.8</ele>
        <time>2021-02-20T13:31:26.000Z</time>
      </trkpt>
      <trkpt lat="45.86767" lon="5.47132">
        <ele>885.8</ele>
        <time>2021-02-20T13:31:27.000Z</time>
      </trkpt>
      <trkpt lat="45.86768" lon="5.47135">
        <ele>885.8</ele>
        <time>2021-02-20T13:31:28.000Z</time>
      </trkpt>
      <trkpt lat="45.86768" lon="5.47139">
        <ele>885.8</ele>
        <time>2021-02-20T13:31:29.000Z</time>
      </trkpt>
      <trkpt lat="45.86769" lon="5.47143">
        <ele>885.8</ele>
        <time>2021-02-20T13:31:30.000Z</time>
      </trkpt>
      <trkpt lat="45.86769" lon="5.47147">
        <ele>885.8</ele>
        <time>2021-02-20T13:31:31.000Z</time>
      </trkpt>
      <trkpt lat="45.8677" lon="5.4715">
        <ele>886</ele>
        <time>2021-02-20T13:31:32.000Z</time>
      </trkpt>
      <trkpt lat="45.8677" lon="5.47153">
        <ele>886.4</ele>
        <time>2021-02-20T13:31:33.000Z</time>
      </trkpt>
      <trkpt lat="45.8677" lon="5.47155">
        <ele>886.4</ele>
        <time>2021-02-20T13:31:34.000Z</time>
      </trkpt>
      <trkpt lat="45.8677" lon="5.47157">
        <ele>886.4</ele>
        <time>2021-02-20T13:31:35.000Z</time>
      </trkpt>
      <trkpt lat="45.8677" lon="5.4716">
        <ele>886.6</ele>
        <time>2021-02-20T13:31:36.000Z</time>
      </trkpt>
      <trkpt lat="45.8677" lon="5.47163">
        <ele>886.6</ele>
        <time>2021-02-20T13:31:37.000Z</time>
      </trkpt>
      <trkpt lat="45.8677" lon="5.47166">
        <ele>886.8</ele>
        <time>2021-02-20T13:31:38.000Z</time>
      </trkpt>
      <trkpt lat="45.8677" lon="5.47169">
        <ele>886.8</ele>
        <time>2021-02-20T13:31:39.000Z</time>
      </trkpt>
      <trkpt lat="45.86771" lon="5.47171">
        <ele>887</ele>
        <time>2021-02-20T13:31:40.000Z</time>
      </trkpt>
      <trkpt lat="45.86772" lon="5.47174">
        <ele>887</ele>
        <time>2021-02-20T13:31:41.000Z</time>
      </trkpt>
      <trkpt lat="45.86773" lon="5.47175">
        <ele>887</ele>
        <time>2021-02-20T13:31:42.000Z</time>
      </trkpt>
      <trkpt lat="45.86774" lon="5.47177">
        <ele>887</ele>
        <time>2021-02-20T13:31:43.000Z</time>
      </trkpt>
      <trkpt lat="45.86776" lon="5.47179">
        <ele>887</ele>
        <time>2021-02-20T13:31:44.000Z</time>
      </trkpt>
      <trkpt lat="45.86777" lon="5.47181">
        <ele>887.4</ele>
        <time>2021-02-20T13:31:45.000Z</time>
      </trkpt>
      <trkpt lat="45.86779" lon="5.47184">
        <ele>887.4</ele>
        <time>2021-02-20T13:31:46.000Z</time>
      </trkpt>
      <trkpt lat="45.8678" lon="5.47186">
        <ele>887.6</ele>
        <time>2021-02-20T13:31:47.000Z</time>
      </trkpt>
      <trkpt lat="45.86781" lon="5.47188">
        <ele>887.6</ele>
        <time>2021-02-20T13:31:48.000Z</time>
      </trkpt>
      <trkpt lat="45.86782" lon="5.47191">
        <ele>887.8</ele>
        <time>2021-02-20T13:31:49.000Z</time>
      </trkpt>
      <trkpt lat="45.86783" lon="5.47194">
        <ele>888.2</ele>
        <time>2021-02-20T13:31:50.000Z</time>
      </trkpt>
      <trkpt lat="45.86784" lon="5.47197">
        <ele>888</ele>
        <time>2021-02-20T13:31:51.000Z</time>
      </trkpt>
      <trkpt lat="45.86784" lon="5.47199">
        <ele>888.2</ele>
        <time>2021-02-20T13:31:52.000Z</time>
      </trkpt>
      <trkpt lat="45.86786" lon="5.47203">
        <ele>888.4</ele>
        <time>2021-02-20T13:31:53.000Z</time>
      </trkpt>
      <trkpt lat="45.86787" lon="5.47206">
        <ele>888.4</ele>
        <time>2021-02-20T13:31:54.000Z</time>
      </trkpt>
      <trkpt lat="45.86788" lon="5.47208">
        <ele>888.6</ele>
        <time>2021-02-20T13:31:55.000Z</time>
      </trkpt>
      <trkpt lat="45.86789" lon="5.4721">
        <ele>888.8</ele>
        <time>2021-02-20T13:31:56.000Z</time>
      </trkpt>
      <trkpt lat="45.8679" lon="5.47213">
        <ele>888.8</ele>
        <time>2021-02-20T13:31:57.000Z</time>
      </trkpt>
      <trkpt lat="45.86791" lon="5.47216">
        <ele>888.8</ele>
        <time>2021-02-20T13:31:58.000Z</time>
      </trkpt>
      <trkpt lat="45.86793" lon="5.47219">
        <ele>888.8</ele>
        <time>2021-02-20T13:31:59.000Z</time>
      </trkpt>
      <trkpt lat="45.868" lon="5.4723">
        <ele>889.4</ele>
        <time>2021-02-20T13:32:03.000Z</time>
      </trkpt>
      <trkpt lat="45.86802" lon="5.47232">
        <ele>889.4</ele>
        <time>2021-02-20T13:32:04.000Z</time>
      </trkpt>
      <trkpt lat="45.86803" lon="5.47235">
        <ele>889.6</ele>
        <time>2021-02-20T13:32:05.000Z</time>
      </trkpt>
      <trkpt lat="45.86805" lon="5.47238">
        <ele>889.6</ele>
        <time>2021-02-20T13:32:06.000Z</time>
      </trkpt>
      <trkpt lat="45.86807" lon="5.47242">
        <ele>889.6</ele>
        <time>2021-02-20T13:32:07.000Z</time>
      </trkpt>
      <trkpt lat="45.86809" lon="5.47245">
        <ele>889.8</ele>
        <time>2021-02-20T13:32:08.000Z</time>
      </trkpt>
      <trkpt lat="45.86811" lon="5.47248">
        <ele>889.8</ele>
        <time>2021-02-20T13:32:09.000Z</time>
      </trkpt>
      <trkpt lat="45.86813" lon="5.47251">
        <ele>889.8</ele>
        <time>2021-02-20T13:32:10.000Z</time>
      </trkpt>
      <trkpt lat="45.86815" lon="5.47254">
        <ele>890</ele>
        <time>2021-02-20T13:32:11.000Z</time>
      </trkpt>
      <trkpt lat="45.86817" lon="5.47257">
        <ele>890.2</ele>
        <time>2021-02-20T13:32:12.000Z</time>
      </trkpt>
      <trkpt lat="45.86819" lon="5.4726">
        <ele>890.6</ele>
        <time>2021-02-20T13:32:13.000Z</time>
      </trkpt>
      <trkpt lat="45.86821" lon="5.47262">
        <ele>891</ele>
        <time>2021-02-20T13:32:14.000Z</time>
      </trkpt>
      <trkpt lat="45.86823" lon="5.47264">
        <ele>891.2</ele>
        <time>2021-02-20T13:32:15.000Z</time>
      </trkpt>
      <trkpt lat="45.86825" lon="5.47267">
        <ele>891.2</ele>
        <time>2021-02-20T13:32:16.000Z</time>
      </trkpt>
      <trkpt lat="45.86827" lon="5.4727">
        <ele>891.4</ele>
        <time>2021-02-20T13:32:17.000Z</time>
      </trkpt>
      <trkpt lat="45.86828" lon="5.47272">
        <ele>891.4</ele>
        <time>2021-02-20T13:32:18.000Z</time>
      </trkpt>
      <trkpt lat="45.86831" lon="5.47275">
        <ele>891.4</ele>
        <time>2021-02-20T13:32:19.000Z</time>
      </trkpt>
      <trkpt lat="45.86833" lon="5.47277">
        <ele>891.4</ele>
        <time>2021-02-20T13:32:20.000Z</time>
      </trkpt>
      <trkpt lat="45.86836" lon="5.47279">
        <ele>891.4</ele>
        <time>2021-02-20T13:32:21.000Z</time>
      </trkpt>
      <trkpt lat="45.86838" lon="5.47282">
        <ele>891.6</ele>
        <time>2021-02-20T13:32:22.000Z</time>
      </trkpt>
      <trkpt lat="45.86841" lon="5.47285">
        <ele>891.8</ele>
        <time>2021-02-20T13:32:23.000Z</time>
      </trkpt>
      <trkpt lat="45.86843" lon="5.47287">
        <ele>891.8</ele>
        <time>2021-02-20T13:32:24.000Z</time>
      </trkpt>
      <trkpt lat="45.86846" lon="5.4729">
        <ele>891.8</ele>
        <time>2021-02-20T13:32:25.000Z</time>
      </trkpt>
      <trkpt lat="45.86848" lon="5.47292">
        <ele>891.8</ele>
        <time>2021-02-20T13:32:26.000Z</time>
      </trkpt>
      <trkpt lat="45.8685" lon="5.47294">
        <ele>892.2</ele>
        <time>2021-02-20T13:32:27.000Z</time>
      </trkpt>
      <trkpt lat="45.86852" lon="5.47296">
        <ele>892.4</ele>
        <time>2021-02-20T13:32:28.000Z</time>
      </trkpt>
      <trkpt lat="45.86854" lon="5.47298">
        <ele>892.8</ele>
        <time>2021-02-20T13:32:29.000Z</time>
      </trkpt>
      <trkpt lat="45.86856" lon="5.473">
        <ele>892.8</ele>
        <time>2021-02-20T13:32:30.000Z</time>
      </trkpt>
      <trkpt lat="45.86858" lon="5.47303">
        <ele>893.2</ele>
        <time>2021-02-20T13:32:31.000Z</time>
      </trkpt>
      <trkpt lat="45.8686" lon="5.47305">
        <ele>893.2</ele>
        <time>2021-02-20T13:32:32.000Z</time>
      </trkpt>
      <trkpt lat="45.86862" lon="5.47308">
        <ele>893.6</ele>
        <time>2021-02-20T13:32:33.000Z</time>
      </trkpt>
      <trkpt lat="45.86865" lon="5.47309">
        <ele>893.8</ele>
        <time>2021-02-20T13:32:34.000Z</time>
      </trkpt>
      <trkpt lat="45.86868" lon="5.47312">
        <ele>893.8</ele>
        <time>2021-02-20T13:32:35.000Z</time>
      </trkpt>
      <trkpt lat="45.86872" lon="5.47315">
        <ele>893.8</ele>
        <time>2021-02-20T13:32:36.000Z</time>
      </trkpt>
      <trkpt lat="45.86875" lon="5.47317">
        <ele>894</ele>
        <time>2021-02-20T13:32:37.000Z</time>
      </trkpt>
      <trkpt lat="45.86877" lon="5.4732">
        <ele>894</ele>
        <time>2021-02-20T13:32:38.000Z</time>
      </trkpt>
      <trkpt lat="45.86879" lon="5.47323">
        <ele>894.4</ele>
        <time>2021-02-20T13:32:39.000Z</time>
      </trkpt>
      <trkpt lat="45.86881" lon="5.47325">
        <ele>894.2</ele>
        <time>2021-02-20T13:32:40.000Z</time>
      </trkpt>
      <trkpt lat="45.86883" lon="5.47327">
        <ele>894.4</ele>
        <time>2021-02-20T13:32:41.000Z</time>
      </trkpt>
      <trkpt lat="45.86885" lon="5.47329">
        <ele>894.8</ele>
        <time>2021-02-20T13:32:42.000Z</time>
      </trkpt>
      <trkpt lat="45.86887" lon="5.47332">
        <ele>895</ele>
        <time>2021-02-20T13:32:43.000Z</time>
      </trkpt>
      <trkpt lat="45.86889" lon="5.47334">
        <ele>895.6</ele>
        <time>2021-02-20T13:32:44.000Z</time>
      </trkpt>
      <trkpt lat="45.86891" lon="5.47337">
        <ele>895.6</ele>
        <time>2021-02-20T13:32:45.000Z</time>
      </trkpt>
      <trkpt lat="45.86893" lon="5.47339">
        <ele>896</ele>
        <time>2021-02-20T13:32:46.000Z</time>
      </trkpt>
      <trkpt lat="45.86895" lon="5.47341">
        <ele>896.4</ele>
        <time>2021-02-20T13:32:47.000Z</time>
      </trkpt>
      <trkpt lat="45.86896" lon="5.47343">
        <ele>896.6</ele>
        <time>2021-02-20T13:32:48.000Z</time>
      </trkpt>
      <trkpt lat="45.86898" lon="5.47346">
        <ele>896.4</ele>
        <time>2021-02-20T13:32:49.000Z</time>
      </trkpt>
      <trkpt lat="45.869" lon="5.47348">
        <ele>896.8</ele>
        <time>2021-02-20T13:32:50.000Z</time>
      </trkpt>
      <trkpt lat="45.86902" lon="5.47352">
        <ele>896.8</ele>
        <time>2021-02-20T13:32:51.000Z</time>
      </trkpt>
      <trkpt lat="45.86904" lon="5.47355">
        <ele>896.8</ele>
        <time>2021-02-20T13:32:52.000Z</time>
      </trkpt>
      <trkpt lat="45.86905" lon="5.47359">
        <ele>897</ele>
        <time>2021-02-20T13:32:53.000Z</time>
      </trkpt>
      <trkpt lat="45.86907" lon="5.47362">
        <ele>896.8</ele>
        <time>2021-02-20T13:32:54.000Z</time>
      </trkpt>
      <trkpt lat="45.86908" lon="5.47365">
        <ele>896.8</ele>
        <time>2021-02-20T13:32:55.000Z</time>
      </trkpt>
      <trkpt lat="45.86909" lon="5.47369">
        <ele>897</ele>
        <time>2021-02-20T13:32:56.000Z</time>
      </trkpt>
      <trkpt lat="45.8691" lon="5.47373">
        <ele>897</ele>
        <time>2021-02-20T13:32:57.000Z</time>
      </trkpt>
      <trkpt lat="45.8691" lon="5.47377">
        <ele>897</ele>
        <time>2021-02-20T13:32:58.000Z</time>
      </trkpt>
      <trkpt lat="45.8691" lon="5.47383">
        <ele>897</ele>
        <time>2021-02-20T13:32:59.000Z</time>
      </trkpt>
      <trkpt lat="45.8691" lon="5.47388">
        <ele>897</ele>
        <time>2021-02-20T13:33:00.000Z</time>
      </trkpt>
      <trkpt lat="45.86908" lon="5.47416">
        <ele>897</ele>
        <time>2021-02-20T13:33:05.000Z</time>
      </trkpt>
      <trkpt lat="45.86908" lon="5.47422">
        <ele>897</ele>
        <time>2021-02-20T13:33:06.000Z</time>
      </trkpt>
      <trkpt lat="45.86907" lon="5.47433">
        <ele>896.8</ele>
        <time>2021-02-20T13:33:08.000Z</time>
      </trkpt>
      <trkpt lat="45.86907" lon="5.47444">
        <ele>896.4</ele>
        <time>2021-02-20T13:33:10.000Z</time>
      </trkpt>
      <trkpt lat="45.86907" lon="5.4745">
        <ele>896.2</ele>
        <time>2021-02-20T13:33:11.000Z</time>
      </trkpt>
      <trkpt lat="45.86908" lon="5.47457">
        <ele>896.2</ele>
        <time>2021-02-20T13:33:12.000Z</time>
      </trkpt>
      <trkpt lat="45.86908" lon="5.47463">
        <ele>896</ele>
        <time>2021-02-20T13:33:13.000Z</time>
      </trkpt>
      <trkpt lat="45.86909" lon="5.47469">
        <ele>896</ele>
        <time>2021-02-20T13:33:14.000Z</time>
      </trkpt>
      <trkpt lat="45.86911" lon="5.47474">
        <ele>895.8</ele>
        <time>2021-02-20T13:33:15.000Z</time>
      </trkpt>
      <trkpt lat="45.86912" lon="5.4748">
        <ele>895.6</ele>
        <time>2021-02-20T13:33:16.000Z</time>
      </trkpt>
      <trkpt lat="45.86913" lon="5.47487">
        <ele>895.4</ele>
        <time>2021-02-20T13:33:17.000Z</time>
      </trkpt>
      <trkpt lat="45.86914" lon="5.47492">
        <ele>895.4</ele>
        <time>2021-02-20T13:33:18.000Z</time>
      </trkpt>
      <trkpt lat="45.86921" lon="5.47523">
        <ele>895</ele>
        <time>2021-02-20T13:33:24.000Z</time>
      </trkpt>
      <trkpt lat="45.86923" lon="5.47528">
        <ele>895.2</ele>
        <time>2021-02-20T13:33:25.000Z</time>
      </trkpt>
      <trkpt lat="45.86924" lon="5.47532">
        <ele>895</ele>
        <time>2021-02-20T13:33:26.000Z</time>
      </trkpt>
      <trkpt lat="45.86925" lon="5.47536">
        <ele>895</ele>
        <time>2021-02-20T13:33:27.000Z</time>
      </trkpt>
      <trkpt lat="45.86927" lon="5.47543">
        <ele>895</ele>
        <time>2021-02-20T13:33:29.000Z</time>
      </trkpt>
      <trkpt lat="45.86928" lon="5.47547">
        <ele>894.8</ele>
        <time>2021-02-20T13:33:30.000Z</time>
      </trkpt>
      <trkpt lat="45.86933" lon="5.4756">
        <ele>894.8</ele>
        <time>2021-02-20T13:33:33.000Z</time>
      </trkpt>
      <trkpt lat="45.86934" lon="5.47565">
        <ele>894.6</ele>
        <time>2021-02-20T13:33:34.000Z</time>
      </trkpt>
      <trkpt lat="45.86934" lon="5.47569">
        <ele>894.6</ele>
        <time>2021-02-20T13:33:35.000Z</time>
      </trkpt>
      <trkpt lat="45.86933" lon="5.47574">
        <ele>894.4</ele>
        <time>2021-02-20T13:33:36.000Z</time>
      </trkpt>
      <trkpt lat="45.86933" lon="5.4758">
        <ele>894.2</ele>
        <time>2021-02-20T13:33:37.000Z</time>
      </trkpt>
      <trkpt lat="45.86931" lon="5.47588">
        <ele>894.2</ele>
        <time>2021-02-20T13:33:38.000Z</time>
      </trkpt>
      <trkpt lat="45.86929" lon="5.47596">
        <ele>894</ele>
        <time>2021-02-20T13:33:39.000Z</time>
      </trkpt>
      <trkpt lat="45.86926" lon="5.47604">
        <ele>894</ele>
        <time>2021-02-20T13:33:40.000Z</time>
      </trkpt>
      <trkpt lat="45.86919" lon="5.4762">
        <ele>894.2</ele>
        <time>2021-02-20T13:33:42.000Z</time>
      </trkpt>
      <trkpt lat="45.86915" lon="5.47629">
        <ele>893.8</ele>
        <time>2021-02-20T13:33:43.000Z</time>
      </trkpt>
      <trkpt lat="45.86907" lon="5.47649">
        <ele>893.2</ele>
        <time>2021-02-20T13:33:45.000Z</time>
      </trkpt>
      <trkpt lat="45.86902" lon="5.47659">
        <ele>892.8</ele>
        <time>2021-02-20T13:33:46.000Z</time>
      </trkpt>
      <trkpt lat="45.86897" lon="5.47668">
        <ele>892.4</ele>
        <time>2021-02-20T13:33:47.000Z</time>
      </trkpt>
      <trkpt lat="45.86893" lon="5.47677">
        <ele>892</ele>
        <time>2021-02-20T13:33:48.000Z</time>
      </trkpt>
      <trkpt lat="45.86889" lon="5.47686">
        <ele>891</ele>
        <time>2021-02-20T13:33:49.000Z</time>
      </trkpt>
      <trkpt lat="45.86887" lon="5.47695">
        <ele>890</ele>
        <time>2021-02-20T13:33:50.000Z</time>
      </trkpt>
      <trkpt lat="45.86887" lon="5.47702">
        <ele>889.4</ele>
        <time>2021-02-20T13:33:51.000Z</time>
      </trkpt>
      <trkpt lat="45.8689" lon="5.47707">
        <ele>887.6</ele>
        <time>2021-02-20T13:33:52.000Z</time>
      </trkpt>
      <trkpt lat="45.86892" lon="5.47709">
        <ele>886.8</ele>
        <time>2021-02-20T13:33:53.000Z</time>
      </trkpt>
      <trkpt lat="45.86895" lon="5.47709">
        <ele>885.2</ele>
        <time>2021-02-20T13:33:54.000Z</time>
      </trkpt>
      <trkpt lat="45.86899" lon="5.4771">
        <ele>884</ele>
        <time>2021-02-20T13:33:55.000Z</time>
      </trkpt>
      <trkpt lat="45.86902" lon="5.4771">
        <ele>883.4</ele>
        <time>2021-02-20T13:33:56.000Z</time>
      </trkpt>
      <trkpt lat="45.86904" lon="5.4771">
        <ele>883</ele>
        <time>2021-02-20T13:33:57.000Z</time>
      </trkpt>
      <trkpt lat="45.86905" lon="5.47709">
        <ele>882.8</ele>
        <time>2021-02-20T13:33:58.000Z</time>
      </trkpt>
      <trkpt lat="45.86907" lon="5.47709">
        <ele>882.6</ele>
        <time>2021-02-20T13:33:59.000Z</time>
      </trkpt>
      <trkpt lat="45.86911" lon="5.47709">
        <ele>882.8</ele>
        <time>2021-02-20T13:34:01.000Z</time>
      </trkpt>
      <trkpt lat="45.86913" lon="5.47708">
        <ele>882.8</ele>
        <time>2021-02-20T13:34:02.000Z</time>
      </trkpt>
      <trkpt lat="45.86915" lon="5.47708">
        <ele>882.6</ele>
        <time>2021-02-20T13:34:03.000Z</time>
      </trkpt>
      <trkpt lat="45.86916" lon="5.47707">
        <ele>882.6</ele>
        <time>2021-02-20T13:34:04.000Z</time>
      </trkpt>
      <trkpt lat="45.86917" lon="5.47707">
        <ele>882.8</ele>
        <time>2021-02-20T13:34:05.000Z</time>
      </trkpt>
      <trkpt lat="45.86918" lon="5.47708">
        <ele>883.4</ele>
        <time>2021-02-20T13:34:07.000Z</time>
      </trkpt>
      <trkpt lat="45.8692" lon="5.47707">
        <ele>883.6</ele>
        <time>2021-02-20T13:34:08.000Z</time>
      </trkpt>
      <trkpt lat="45.86921" lon="5.47707">
        <ele>884</ele>
        <time>2021-02-20T13:34:09.000Z</time>
      </trkpt>
      <trkpt lat="45.86922" lon="5.47706">
        <ele>884.4</ele>
        <time>2021-02-20T13:34:10.000Z</time>
      </trkpt>
      <trkpt lat="45.86925" lon="5.47707">
        <ele>885.4</ele>
        <time>2021-02-20T13:34:12.000Z</time>
      </trkpt>
      <trkpt lat="45.86929" lon="5.47707">
        <ele>886</ele>
        <time>2021-02-20T13:34:14.000Z</time>
      </trkpt>
      <trkpt lat="45.86931" lon="5.47707">
        <ele>886.6</ele>
        <time>2021-02-20T13:34:16.000Z</time>
      </trkpt>
      <trkpt lat="45.86932" lon="5.47707">
        <ele>887</ele>
        <time>2021-02-20T13:34:17.000Z</time>
      </trkpt>
      <trkpt lat="45.86933" lon="5.47707">
        <ele>887.2</ele>
        <time>2021-02-20T13:34:18.000Z</time>
      </trkpt>
      <trkpt lat="45.86935" lon="5.47708">
        <ele>887.6</ele>
        <time>2021-02-20T13:34:19.000Z</time>
      </trkpt>
      <trkpt lat="45.86937" lon="5.47708">
        <ele>887.8</ele>
        <time>2021-02-20T13:34:20.000Z</time>
      </trkpt>
      <trkpt lat="45.86938" lon="5.47709">
        <ele>888</ele>
        <time>2021-02-20T13:34:21.000Z</time>
      </trkpt>
      <trkpt lat="45.8694" lon="5.4771">
        <ele>888</ele>
        <time>2021-02-20T13:34:22.000Z</time>
      </trkpt>
      <trkpt lat="45.86941" lon="5.47711">
        <ele>888.4</ele>
        <time>2021-02-20T13:34:23.000Z</time>
      </trkpt>
      <trkpt lat="45.86942" lon="5.47711">
        <ele>888.6</ele>
        <time>2021-02-20T13:34:24.000Z</time>
      </trkpt>
      <trkpt lat="45.86943" lon="5.47712">
        <ele>889</ele>
        <time>2021-02-20T13:34:25.000Z</time>
      </trkpt>
      <trkpt lat="45.86945" lon="5.47713">
        <ele>889.2</ele>
        <time>2021-02-20T13:34:26.000Z</time>
      </trkpt>
      <trkpt lat="45.86947" lon="5.47714">
        <ele>889.6</ele>
        <time>2021-02-20T13:34:27.000Z</time>
      </trkpt>
      <trkpt lat="45.86948" lon="5.47715">
        <ele>889.8</ele>
        <time>2021-02-20T13:34:28.000Z</time>
      </trkpt>
      <trkpt lat="45.8695" lon="5.47715">
        <ele>890</ele>
        <time>2021-02-20T13:34:29.000Z</time>
      </trkpt>
      <trkpt lat="45.86951" lon="5.47715">
        <ele>890</ele>
        <time>2021-02-20T13:34:30.000Z</time>
      </trkpt>
      <trkpt lat="45.86953" lon="5.47716">
        <ele>890.4</ele>
        <time>2021-02-20T13:34:31.000Z</time>
      </trkpt>
      <trkpt lat="45.86954" lon="5.47716">
        <ele>890.8</ele>
        <time>2021-02-20T13:34:32.000Z</time>
      </trkpt>
      <trkpt lat="45.86956" lon="5.47716">
        <ele>891.2</ele>
        <time>2021-02-20T13:34:33.000Z</time>
      </trkpt>
      <trkpt lat="45.86958" lon="5.47717">
        <ele>891.6</ele>
        <time>2021-02-20T13:34:34.000Z</time>
      </trkpt>
      <trkpt lat="45.86959" lon="5.47717">
        <ele>891.8</ele>
        <time>2021-02-20T13:34:35.000Z</time>
      </trkpt>
      <trkpt lat="45.86961" lon="5.47717">
        <ele>892</ele>
        <time>2021-02-20T13:34:36.000Z</time>
      </trkpt>
      <trkpt lat="45.86963" lon="5.47717">
        <ele>891.8</ele>
        <time>2021-02-20T13:34:37.000Z</time>
      </trkpt>
      <trkpt lat="45.86965" lon="5.47716">
        <ele>892.4</ele>
        <time>2021-02-20T13:34:38.000Z</time>
      </trkpt>
      <trkpt lat="45.86968" lon="5.47716">
        <ele>892.4</ele>
        <time>2021-02-20T13:34:39.000Z</time>
      </trkpt>
      <trkpt lat="45.8697" lon="5.47715">
        <ele>892.4</ele>
        <time>2021-02-20T13:34:40.000Z</time>
      </trkpt>
      <trkpt lat="45.86972" lon="5.47715">
        <ele>892.4</ele>
        <time>2021-02-20T13:34:41.000Z</time>
      </trkpt>
      <trkpt lat="45.86974" lon="5.47714">
        <ele>892.4</ele>
        <time>2021-02-20T13:34:42.000Z</time>
      </trkpt>
      <trkpt lat="45.86977" lon="5.47713">
        <ele>892.6</ele>
        <time>2021-02-20T13:34:43.000Z</time>
      </trkpt>
      <trkpt lat="45.8698" lon="5.47713">
        <ele>892.4</ele>
        <time>2021-02-20T13:34:44.000Z</time>
      </trkpt>
      <trkpt lat="45.86982" lon="5.47712">
        <ele>892.4</ele>
        <time>2021-02-20T13:34:45.000Z</time>
      </trkpt>
      <trkpt lat="45.86985" lon="5.47712">
        <ele>892.4</ele>
        <time>2021-02-20T13:34:46.000Z</time>
      </trkpt>
      <trkpt lat="45.86988" lon="5.47712">
        <ele>892.6</ele>
        <time>2021-02-20T13:34:47.000Z</time>
      </trkpt>
      <trkpt lat="45.8699" lon="5.47711">
        <ele>892.4</ele>
        <time>2021-02-20T13:34:48.000Z</time>
      </trkpt>
      <trkpt lat="45.86993" lon="5.47711">
        <ele>892.4</ele>
        <time>2021-02-20T13:34:49.000Z</time>
      </trkpt>
      <trkpt lat="45.86995" lon="5.4771">
        <ele>892.6</ele>
        <time>2021-02-20T13:34:50.000Z</time>
      </trkpt>
      <trkpt lat="45.87" lon="5.47708">
        <ele>892.6</ele>
        <time>2021-02-20T13:34:52.000Z</time>
      </trkpt>
      <trkpt lat="45.87017" lon="5.477">
        <ele>892.8</ele>
        <time>2021-02-20T13:34:58.000Z</time>
      </trkpt>
      <trkpt lat="45.8702" lon="5.47699">
        <ele>893</ele>
        <time>2021-02-20T13:34:59.000Z</time>
      </trkpt>
      <trkpt lat="45.87023" lon="5.47697">
        <ele>893</ele>
        <time>2021-02-20T13:35:00.000Z</time>
      </trkpt>
      <trkpt lat="45.87025" lon="5.47696">
        <ele>893</ele>
        <time>2021-02-20T13:35:01.000Z</time>
      </trkpt>
      <trkpt lat="45.87027" lon="5.47695">
        <ele>893.2</ele>
        <time>2021-02-20T13:35:02.000Z</time>
      </trkpt>
      <trkpt lat="45.8703" lon="5.47693">
        <ele>893.2</ele>
        <time>2021-02-20T13:35:03.000Z</time>
      </trkpt>
      <trkpt lat="45.87032" lon="5.47691">
        <ele>893.4</ele>
        <time>2021-02-20T13:35:04.000Z</time>
      </trkpt>
      <trkpt lat="45.87035" lon="5.47691">
        <ele>893.4</ele>
        <time>2021-02-20T13:35:05.000Z</time>
      </trkpt>
      <trkpt lat="45.87037" lon="5.47692">
        <ele>893.4</ele>
        <time>2021-02-20T13:35:06.000Z</time>
      </trkpt>
      <trkpt lat="45.87038" lon="5.47692">
        <ele>893.4</ele>
        <time>2021-02-20T13:35:07.000Z</time>
      </trkpt>
      <trkpt lat="45.8704" lon="5.47694">
        <ele>893.4</ele>
        <time>2021-02-20T13:35:08.000Z</time>
      </trkpt>
      <trkpt lat="45.8704" lon="5.47696">
        <ele>893.4</ele>
        <time>2021-02-20T13:35:09.000Z</time>
      </trkpt>
      <trkpt lat="45.8704" lon="5.477">
        <ele>893.4</ele>
        <time>2021-02-20T13:35:11.000Z</time>
      </trkpt>
      <trkpt lat="45.8704" lon="5.47702">
        <ele>893.4</ele>
        <time>2021-02-20T13:35:12.000Z</time>
      </trkpt>
      <trkpt lat="45.87041" lon="5.47705">
        <ele>893.4</ele>
        <time>2021-02-20T13:35:13.000Z</time>
      </trkpt>
      <trkpt lat="45.87041" lon="5.47707">
        <ele>893.4</ele>
        <time>2021-02-20T13:35:14.000Z</time>
      </trkpt>
      <trkpt lat="45.87042" lon="5.4771">
        <ele>893.4</ele>
        <time>2021-02-20T13:35:15.000Z</time>
      </trkpt>
      <trkpt lat="45.87046" lon="5.47716">
        <ele>893.4</ele>
        <time>2021-02-20T13:35:17.000Z</time>
      </trkpt>
      <trkpt lat="45.87048" lon="5.47719">
        <ele>893.4</ele>
        <time>2021-02-20T13:35:18.000Z</time>
      </trkpt>
      <trkpt lat="45.8705" lon="5.4772">
        <ele>893.4</ele>
        <time>2021-02-20T13:35:19.000Z</time>
      </trkpt>
      <trkpt lat="45.87053" lon="5.47723">
        <ele>893.4</ele>
        <time>2021-02-20T13:35:20.000Z</time>
      </trkpt>
      <trkpt lat="45.87057" lon="5.47725">
        <ele>893</ele>
        <time>2021-02-20T13:35:21.000Z</time>
      </trkpt>
      <trkpt lat="45.8706" lon="5.47726">
        <ele>892.8</ele>
        <time>2021-02-20T13:35:22.000Z</time>
      </trkpt>
      <trkpt lat="45.87068" lon="5.47729">
        <ele>892.6</ele>
        <time>2021-02-20T13:35:24.000Z</time>
      </trkpt>
      <trkpt lat="45.87071" lon="5.4773">
        <ele>892.6</ele>
        <time>2021-02-20T13:35:25.000Z</time>
      </trkpt>
      <trkpt lat="45.87088" lon="5.47734">
        <ele>892.2</ele>
        <time>2021-02-20T13:35:29.000Z</time>
      </trkpt>
      <trkpt lat="45.87093" lon="5.47735">
        <ele>892</ele>
        <time>2021-02-20T13:35:30.000Z</time>
      </trkpt>
      <trkpt lat="45.87097" lon="5.47736">
        <ele>891.8</ele>
        <time>2021-02-20T13:35:31.000Z</time>
      </trkpt>
      <trkpt lat="45.87101" lon="5.47737">
        <ele>892</ele>
        <time>2021-02-20T13:35:32.000Z</time>
      </trkpt>
      <trkpt lat="45.87104" lon="5.47738">
        <ele>891.8</ele>
        <time>2021-02-20T13:35:33.000Z</time>
      </trkpt>
      <trkpt lat="45.87108" lon="5.47739">
        <ele>891.6</ele>
        <time>2021-02-20T13:35:34.000Z</time>
      </trkpt>
      <trkpt lat="45.87112" lon="5.47739">
        <ele>891.6</ele>
        <time>2021-02-20T13:35:35.000Z</time>
      </trkpt>
      <trkpt lat="45.87116" lon="5.47739">
        <ele>891.8</ele>
        <time>2021-02-20T13:35:36.000Z</time>
      </trkpt>
      <trkpt lat="45.8712" lon="5.47739">
        <ele>891.8</ele>
        <time>2021-02-20T13:35:37.000Z</time>
      </trkpt>
      <trkpt lat="45.87124" lon="5.47739">
        <ele>891.6</ele>
        <time>2021-02-20T13:35:38.000Z</time>
      </trkpt>
      <trkpt lat="45.87128" lon="5.47741">
        <ele>891.6</ele>
        <time>2021-02-20T13:35:39.000Z</time>
      </trkpt>
      <trkpt lat="45.87137" lon="5.47741">
        <ele>891.6</ele>
        <time>2021-02-20T13:35:41.000Z</time>
      </trkpt>
      <trkpt lat="45.87147" lon="5.47742">
        <ele>891.4</ele>
        <time>2021-02-20T13:35:43.000Z</time>
      </trkpt>
      <trkpt lat="45.87173" lon="5.47745">
        <ele>891</ele>
        <time>2021-02-20T13:35:48.000Z</time>
      </trkpt>
      <trkpt lat="45.87183" lon="5.47745">
        <ele>891</ele>
        <time>2021-02-20T13:35:50.000Z</time>
      </trkpt>
      <trkpt lat="45.87194" lon="5.47745">
        <ele>890.8</ele>
        <time>2021-02-20T13:35:52.000Z</time>
      </trkpt>
      <trkpt lat="45.872" lon="5.47744">
        <ele>890.8</ele>
        <time>2021-02-20T13:35:53.000Z</time>
      </trkpt>
      <trkpt lat="45.87217" lon="5.47743">
        <ele>890.8</ele>
        <time>2021-02-20T13:35:56.000Z</time>
      </trkpt>
      <trkpt lat="45.87223" lon="5.47741">
        <ele>890.8</ele>
        <time>2021-02-20T13:35:57.000Z</time>
      </trkpt>
      <trkpt lat="45.87228" lon="5.47739">
        <ele>890.6</ele>
        <time>2021-02-20T13:35:58.000Z</time>
      </trkpt>
      <trkpt lat="45.87234" lon="5.47738">
        <ele>890.6</ele>
        <time>2021-02-20T13:35:59.000Z</time>
      </trkpt>
      <trkpt lat="45.87238" lon="5.47737">
        <ele>890.6</ele>
        <time>2021-02-20T13:36:00.000Z</time>
      </trkpt>
      <trkpt lat="45.87243" lon="5.47735">
        <ele>890.4</ele>
        <time>2021-02-20T13:36:01.000Z</time>
      </trkpt>
      <trkpt lat="45.87248" lon="5.47734">
        <ele>890.4</ele>
        <time>2021-02-20T13:36:02.000Z</time>
      </trkpt>
      <trkpt lat="45.87253" lon="5.47733">
        <ele>890.4</ele>
        <time>2021-02-20T13:36:03.000Z</time>
      </trkpt>
      <trkpt lat="45.87257" lon="5.47732">
        <ele>890.4</ele>
        <time>2021-02-20T13:36:04.000Z</time>
      </trkpt>
      <trkpt lat="45.87261" lon="5.47732">
        <ele>890.4</ele>
        <time>2021-02-20T13:36:05.000Z</time>
      </trkpt>
      <trkpt lat="45.87265" lon="5.47732">
        <ele>890.6</ele>
        <time>2021-02-20T13:36:06.000Z</time>
      </trkpt>
      <trkpt lat="45.87269" lon="5.47731">
        <ele>890.6</ele>
        <time>2021-02-20T13:36:07.000Z</time>
      </trkpt>
      <trkpt lat="45.87272" lon="5.4773">
        <ele>890.8</ele>
        <time>2021-02-20T13:36:08.000Z</time>
      </trkpt>
      <trkpt lat="45.87275" lon="5.47729">
        <ele>891</ele>
        <time>2021-02-20T13:36:09.000Z</time>
      </trkpt>
      <trkpt lat="45.87278" lon="5.47728">
        <ele>891</ele>
        <time>2021-02-20T13:36:10.000Z</time>
      </trkpt>
      <trkpt lat="45.87281" lon="5.47727">
        <ele>891</ele>
        <time>2021-02-20T13:36:11.000Z</time>
      </trkpt>
      <trkpt lat="45.87302" lon="5.47722">
        <ele>891.4</ele>
        <time>2021-02-20T13:36:16.000Z</time>
      </trkpt>
      <trkpt lat="45.87309" lon="5.47717">
        <ele>891.8</ele>
        <time>2021-02-20T13:36:18.000Z</time>
      </trkpt>
      <trkpt lat="45.87321" lon="5.47712">
        <ele>891.8</ele>
        <time>2021-02-20T13:36:21.000Z</time>
      </trkpt>
      <trkpt lat="45.87324" lon="5.4771">
        <ele>891.6</ele>
        <time>2021-02-20T13:36:22.000Z</time>
      </trkpt>
      <trkpt lat="45.87327" lon="5.47709">
        <ele>891.8</ele>
        <time>2021-02-20T13:36:23.000Z</time>
      </trkpt>
      <trkpt lat="45.8733" lon="5.47708">
        <ele>891.6</ele>
        <time>2021-02-20T13:36:24.000Z</time>
      </trkpt>
      <trkpt lat="45.87334" lon="5.47707">
        <ele>891.8</ele>
        <time>2021-02-20T13:36:25.000Z</time>
      </trkpt>
      <trkpt lat="45.87337" lon="5.47706">
        <ele>891.8</ele>
        <time>2021-02-20T13:36:26.000Z</time>
      </trkpt>
      <trkpt lat="45.87339" lon="5.47705">
        <ele>891.8</ele>
        <time>2021-02-20T13:36:27.000Z</time>
      </trkpt>
      <trkpt lat="45.87341" lon="5.47704">
        <ele>891.8</ele>
        <time>2021-02-20T13:36:28.000Z</time>
      </trkpt>
      <trkpt lat="45.87348" lon="5.47703">
        <ele>891.4</ele>
        <time>2021-02-20T13:36:30.000Z</time>
      </trkpt>
      <trkpt lat="45.87361" lon="5.477">
        <ele>891.4</ele>
        <time>2021-02-20T13:36:34.000Z</time>
      </trkpt>
      <trkpt lat="45.87373" lon="5.47695">
        <ele>891.2</ele>
        <time>2021-02-20T13:36:37.000Z</time>
      </trkpt>
      <trkpt lat="45.87381" lon="5.47694">
        <ele>891.2</ele>
        <time>2021-02-20T13:36:39.000Z</time>
      </trkpt>
      <trkpt lat="45.87384" lon="5.47694">
        <ele>891.2</ele>
        <time>2021-02-20T13:36:40.000Z</time>
      </trkpt>
      <trkpt lat="45.87387" lon="5.47694">
        <ele>891.4</ele>
        <time>2021-02-20T13:36:41.000Z</time>
      </trkpt>
      <trkpt lat="45.8739" lon="5.47694">
        <ele>891.4</ele>
        <time>2021-02-20T13:36:42.000Z</time>
      </trkpt>
      <trkpt lat="45.87394" lon="5.47694">
        <ele>891.4</ele>
        <time>2021-02-20T13:36:43.000Z</time>
      </trkpt>
      <trkpt lat="45.87398" lon="5.47694">
        <ele>891.6</ele>
        <time>2021-02-20T13:36:44.000Z</time>
      </trkpt>
      <trkpt lat="45.87401" lon="5.47694">
        <ele>891.6</ele>
        <time>2021-02-20T13:36:45.000Z</time>
      </trkpt>
      <trkpt lat="45.87406" lon="5.47693">
        <ele>891.4</ele>
        <time>2021-02-20T13:36:46.000Z</time>
      </trkpt>
      <trkpt lat="45.87409" lon="5.47693">
        <ele>891.6</ele>
        <time>2021-02-20T13:36:47.000Z</time>
      </trkpt>
      <trkpt lat="45.87414" lon="5.47692">
        <ele>891.6</ele>
        <time>2021-02-20T13:36:48.000Z</time>
      </trkpt>
      <trkpt lat="45.87419" lon="5.47691">
        <ele>892</ele>
        <time>2021-02-20T13:36:49.000Z</time>
      </trkpt>
      <trkpt lat="45.87427" lon="5.47688">
        <ele>892.2</ele>
        <time>2021-02-20T13:36:51.000Z</time>
      </trkpt>
      <trkpt lat="45.87442" lon="5.47684">
        <ele>892.6</ele>
        <time>2021-02-20T13:36:55.000Z</time>
      </trkpt>
      <trkpt lat="45.87449" lon="5.47682">
        <ele>892.8</ele>
        <time>2021-02-20T13:36:57.000Z</time>
      </trkpt>
      <trkpt lat="45.87451" lon="5.47681">
        <ele>893</ele>
        <time>2021-02-20T13:36:58.000Z</time>
      </trkpt>
      <trkpt lat="45.87454" lon="5.47681">
        <ele>893</ele>
        <time>2021-02-20T13:36:59.000Z</time>
      </trkpt>
      <trkpt lat="45.87456" lon="5.47681">
        <ele>893</ele>
        <time>2021-02-20T13:37:00.000Z</time>
      </trkpt>
      <trkpt lat="45.87459" lon="5.47681">
        <ele>892.8</ele>
        <time>2021-02-20T13:37:01.000Z</time>
      </trkpt>
      <trkpt lat="45.87479" lon="5.47678">
        <ele>893</ele>
        <time>2021-02-20T13:37:06.000Z</time>
      </trkpt>
      <trkpt lat="45.87483" lon="5.47677">
        <ele>893</ele>
        <time>2021-02-20T13:37:07.000Z</time>
      </trkpt>
      <trkpt lat="45.87487" lon="5.47676">
        <ele>893</ele>
        <time>2021-02-20T13:37:08.000Z</time>
      </trkpt>
      <trkpt lat="45.87491" lon="5.47675">
        <ele>893</ele>
        <time>2021-02-20T13:37:09.000Z</time>
      </trkpt>
      <trkpt lat="45.87495" lon="5.47674">
        <ele>893</ele>
        <time>2021-02-20T13:37:10.000Z</time>
      </trkpt>
      <trkpt lat="45.87498" lon="5.47673">
        <ele>893</ele>
        <time>2021-02-20T13:37:11.000Z</time>
      </trkpt>
      <trkpt lat="45.875" lon="5.47673">
        <ele>893</ele>
        <time>2021-02-20T13:37:12.000Z</time>
      </trkpt>
      <trkpt lat="45.87502" lon="5.47672">
        <ele>893.2</ele>
        <time>2021-02-20T13:37:13.000Z</time>
      </trkpt>
      <trkpt lat="45.87505" lon="5.47672">
        <ele>893</ele>
        <time>2021-02-20T13:37:14.000Z</time>
      </trkpt>
      <trkpt lat="45.87507" lon="5.47671">
        <ele>893</ele>
        <time>2021-02-20T13:37:15.000Z</time>
      </trkpt>
      <trkpt lat="45.87509" lon="5.47671">
        <ele>893</ele>
        <time>2021-02-20T13:37:16.000Z</time>
      </trkpt>
      <trkpt lat="45.87511" lon="5.4767">
        <ele>893</ele>
        <time>2021-02-20T13:37:17.000Z</time>
      </trkpt>
      <trkpt lat="45.87516" lon="5.47668">
        <ele>893</ele>
        <time>2021-02-20T13:37:19.000Z</time>
      </trkpt>
      <trkpt lat="45.87523" lon="5.47667">
        <ele>893.2</ele>
        <time>2021-02-20T13:37:22.000Z</time>
      </trkpt>
      <trkpt lat="45.87525" lon="5.47666">
        <ele>893.4</ele>
        <time>2021-02-20T13:37:23.000Z</time>
      </trkpt>
      <trkpt lat="45.87528" lon="5.47665">
        <ele>893.4</ele>
        <time>2021-02-20T13:37:24.000Z</time>
      </trkpt>
      <trkpt lat="45.8753" lon="5.47664">
        <ele>893.4</ele>
        <time>2021-02-20T13:37:25.000Z</time>
      </trkpt>
      <trkpt lat="45.87532" lon="5.47663">
        <ele>893.4</ele>
        <time>2021-02-20T13:37:26.000Z</time>
      </trkpt>
      <trkpt lat="45.87533" lon="5.47661">
        <ele>893.4</ele>
        <time>2021-02-20T13:37:27.000Z</time>
      </trkpt>
      <trkpt lat="45.87534" lon="5.4766">
        <ele>893.4</ele>
        <time>2021-02-20T13:37:28.000Z</time>
      </trkpt>
      <trkpt lat="45.87535" lon="5.4766">
        <ele>893.4</ele>
        <time>2021-02-20T13:37:29.000Z</time>
      </trkpt>
      <trkpt lat="45.87536" lon="5.47659">
        <ele>893.6</ele>
        <time>2021-02-20T13:37:30.000Z</time>
      </trkpt>
      <trkpt lat="45.87537" lon="5.47657">
        <ele>893.6</ele>
        <time>2021-02-20T13:37:31.000Z</time>
      </trkpt>
      <trkpt lat="45.87538" lon="5.47657">
        <ele>893.4</ele>
        <time>2021-02-20T13:37:32.000Z</time>
      </trkpt>
      <trkpt lat="45.87539" lon="5.47656">
        <ele>893.6</ele>
        <time>2021-02-20T13:37:33.000Z</time>
      </trkpt>
      <trkpt lat="45.8754" lon="5.47656">
        <ele>893.6</ele>
        <time>2021-02-20T13:37:34.000Z</time>
      </trkpt>
      <trkpt lat="45.87543" lon="5.47658">
        <ele>893.8</ele>
        <time>2021-02-20T13:37:36.000Z</time>
      </trkpt>
      <trkpt lat="45.87545" lon="5.47659">
        <ele>893.6</ele>
        <time>2021-02-20T13:37:37.000Z</time>
      </trkpt>
      <trkpt lat="45.87546" lon="5.47661">
        <ele>893.8</ele>
        <time>2021-02-20T13:37:38.000Z</time>
      </trkpt>
      <trkpt lat="45.87548" lon="5.47663">
        <ele>893.6</ele>
        <time>2021-02-20T13:37:39.000Z</time>
      </trkpt>
      <trkpt lat="45.8755" lon="5.47665">
        <ele>893.6</ele>
        <time>2021-02-20T13:37:40.000Z</time>
      </trkpt>
      <trkpt lat="45.87552" lon="5.47667">
        <ele>893.6</ele>
        <time>2021-02-20T13:37:41.000Z</time>
      </trkpt>
      <trkpt lat="45.87567" lon="5.47677">
        <ele>893.6</ele>
        <time>2021-02-20T13:37:45.000Z</time>
      </trkpt>
      <trkpt lat="45.87571" lon="5.4768">
        <ele>893.6</ele>
        <time>2021-02-20T13:37:46.000Z</time>
      </trkpt>
      <trkpt lat="45.87575" lon="5.47682">
        <ele>893.2</ele>
        <time>2021-02-20T13:37:47.000Z</time>
      </trkpt>
      <trkpt lat="45.87578" lon="5.47684">
        <ele>892.8</ele>
        <time>2021-02-20T13:37:48.000Z</time>
      </trkpt>
      <trkpt lat="45.87581" lon="5.47684">
        <ele>892.8</ele>
        <time>2021-02-20T13:37:49.000Z</time>
      </trkpt>
      <trkpt lat="45.87582" lon="5.47685">
        <ele>892.6</ele>
        <time>2021-02-20T13:37:50.000Z</time>
      </trkpt>
      <trkpt lat="45.87583" lon="5.47685">
        <ele>892.4</ele>
        <time>2021-02-20T13:37:51.000Z</time>
      </trkpt>
      <trkpt lat="45.87582" lon="5.47689">
        <ele>889.8</ele>
        <time>2021-02-20T13:38:26.000Z</time>
      </trkpt>
      <trkpt lat="45.87584" lon="5.47694">
        <ele>889.8</ele>
        <time>2021-02-20T13:38:28.000Z</time>
      </trkpt>
      <trkpt lat="45.87584" lon="5.47697">
        <ele>889.8</ele>
        <time>2021-02-20T13:38:29.000Z</time>
      </trkpt>
      <trkpt lat="45.87584" lon="5.47703">
        <ele>889.8</ele>
        <time>2021-02-20T13:38:31.000Z</time>
      </trkpt>
      <trkpt lat="45.87584" lon="5.47705">
        <ele>889.8</ele>
        <time>2021-02-20T13:38:32.000Z</time>
      </trkpt>
      <trkpt lat="45.87584" lon="5.47707">
        <ele>889.8</ele>
        <time>2021-02-20T13:38:33.000Z</time>
      </trkpt>
      <trkpt lat="45.87584" lon="5.47709">
        <ele>889.4</ele>
        <time>2021-02-20T13:38:34.000Z</time>
      </trkpt>
      <trkpt lat="45.87584" lon="5.4771">
        <ele>889.2</ele>
        <time>2021-02-20T13:38:35.000Z</time>
      </trkpt>
      <trkpt lat="45.87584" lon="5.47711">
        <ele>888.8</ele>
        <time>2021-02-20T13:38:36.000Z</time>
      </trkpt>
      <trkpt lat="45.87584" lon="5.47712">
        <ele>888</ele>
        <time>2021-02-20T13:38:44.000Z</time>
      </trkpt>
      <trkpt lat="45.87584" lon="5.47712">
        <ele>887.6</ele>
        <time>2021-02-20T13:38:54.000Z</time>
      </trkpt>
      <trkpt lat="45.87585" lon="5.47711">
        <ele>887.6</ele>
        <time>2021-02-20T13:39:04.000Z</time>
      </trkpt>
      <trkpt lat="45.87585" lon="5.47711">
        <ele>887.8</ele>
        <time>2021-02-20T13:39:11.000Z</time>
      </trkpt>
      <trkpt lat="45.87585" lon="5.4771">
        <ele>887.8</ele>
        <time>2021-02-20T13:39:20.000Z</time>
      </trkpt>
      <trkpt lat="45.87585" lon="5.4771">
        <ele>888</ele>
        <time>2021-02-20T13:39:24.000Z</time>
      </trkpt>
      <trkpt lat="45.87585" lon="5.47709">
        <ele>887.8</ele>
        <time>2021-02-20T13:39:35.000Z</time>
      </trkpt>
      <trkpt lat="45.87585" lon="5.47709">
        <ele>888</ele>
        <time>2021-02-20T13:39:40.000Z</time>
      </trkpt>
      <trkpt lat="45.87585" lon="5.47709">
        <ele>888.2</ele>
        <time>2021-02-20T13:39:52.000Z</time>
      </trkpt>
      <trkpt lat="45.87586" lon="5.47709">
        <ele>888.2</ele>
        <time>2021-02-20T13:39:53.000Z</time>
      </trkpt>
      <trkpt lat="45.87586" lon="5.47708">
        <ele>888</ele>
        <time>2021-02-20T13:40:04.000Z</time>
      </trkpt>
      <trkpt lat="45.87585" lon="5.47708">
        <ele>888</ele>
        <time>2021-02-20T13:40:22.000Z</time>
      </trkpt>
      <trkpt lat="45.87585" lon="5.47707">
        <ele>888</ele>
        <time>2021-02-20T13:40:24.000Z</time>
      </trkpt>
      <trkpt lat="45.87586" lon="5.47707">
        <ele>888.2</ele>
        <time>2021-02-20T13:40:34.000Z</time>
      </trkpt>
      <trkpt lat="45.87586" lon="5.47706">
        <ele>889</ele>
        <time>2021-02-20T13:41:16.000Z</time>
      </trkpt>
      <trkpt lat="45.87585" lon="5.47707">
        <ele>889.2</ele>
        <time>2021-02-20T13:41:19.000Z</time>
      </trkpt>
      <trkpt lat="45.87582" lon="5.47712">
        <ele>889.2</ele>
        <time>2021-02-20T13:41:25.000Z</time>
      </trkpt>
      <trkpt lat="45.87581" lon="5.47714">
        <ele>889</ele>
        <time>2021-02-20T13:41:26.000Z</time>
      </trkpt>
      <trkpt lat="45.8758" lon="5.47717">
        <ele>889.2</ele>
        <time>2021-02-20T13:41:27.000Z</time>
      </trkpt>
      <trkpt lat="45.87573" lon="5.47728">
        <ele>889</ele>
        <time>2021-02-20T13:41:31.000Z</time>
      </trkpt>
      <trkpt lat="45.87568" lon="5.47736">
        <ele>889</ele>
        <time>2021-02-20T13:41:34.000Z</time>
      </trkpt>
      <trkpt lat="45.87566" lon="5.47739">
        <ele>888.8</ele>
        <time>2021-02-20T13:41:35.000Z</time>
      </trkpt>
      <trkpt lat="45.87563" lon="5.47745">
        <ele>888.4</ele>
        <time>2021-02-20T13:41:37.000Z</time>
      </trkpt>
      <trkpt lat="45.87557" lon="5.47755">
        <ele>888.2</ele>
        <time>2021-02-20T13:41:40.000Z</time>
      </trkpt>
      <trkpt lat="45.8755" lon="5.47767">
        <ele>887.8</ele>
        <time>2021-02-20T13:41:43.000Z</time>
      </trkpt>
      <trkpt lat="45.87547" lon="5.4777">
        <ele>888</ele>
        <time>2021-02-20T13:41:44.000Z</time>
      </trkpt>
      <trkpt lat="45.87545" lon="5.47774">
        <ele>887.8</ele>
        <time>2021-02-20T13:41:45.000Z</time>
      </trkpt>
      <trkpt lat="45.87543" lon="5.47778">
        <ele>887.6</ele>
        <time>2021-02-20T13:41:46.000Z</time>
      </trkpt>
      <trkpt lat="45.8754" lon="5.47781">
        <ele>887.4</ele>
        <time>2021-02-20T13:41:47.000Z</time>
      </trkpt>
      <trkpt lat="45.87538" lon="5.47784">
        <ele>887.2</ele>
        <time>2021-02-20T13:41:48.000Z</time>
      </trkpt>
      <trkpt lat="45.87536" lon="5.47787">
        <ele>887</ele>
        <time>2021-02-20T13:41:49.000Z</time>
      </trkpt>
      <trkpt lat="45.87532" lon="5.47794">
        <ele>886.8</ele>
        <time>2021-02-20T13:41:51.000Z</time>
      </trkpt>
      <trkpt lat="45.87527" lon="5.47801">
        <ele>886.8</ele>
        <time>2021-02-20T13:41:53.000Z</time>
      </trkpt>
      <trkpt lat="45.87515" lon="5.47814">
        <ele>886</ele>
        <time>2021-02-20T13:41:57.000Z</time>
      </trkpt>
      <trkpt lat="45.87508" lon="5.47822">
        <ele>885.8</ele>
        <time>2021-02-20T13:41:59.000Z</time>
      </trkpt>
      <trkpt lat="45.87495" lon="5.47837">
        <ele>885.4</ele>
        <time>2021-02-20T13:42:03.000Z</time>
      </trkpt>
      <trkpt lat="45.87492" lon="5.47841">
        <ele>885.2</ele>
        <time>2021-02-20T13:42:04.000Z</time>
      </trkpt>
      <trkpt lat="45.87489" lon="5.47844">
        <ele>885.4</ele>
        <time>2021-02-20T13:42:05.000Z</time>
      </trkpt>
      <trkpt lat="45.87486" lon="5.47848">
        <ele>885</ele>
        <time>2021-02-20T13:42:06.000Z</time>
      </trkpt>
      <trkpt lat="45.87479" lon="5.47856">
        <ele>885</ele>
        <time>2021-02-20T13:42:08.000Z</time>
      </trkpt>
      <trkpt lat="45.87476" lon="5.4786">
        <ele>884.6</ele>
        <time>2021-02-20T13:42:09.000Z</time>
      </trkpt>
      <trkpt lat="45.87465" lon="5.47875">
        <ele>883.8</ele>
        <time>2021-02-20T13:42:12.000Z</time>
      </trkpt>
      <trkpt lat="45.87444" lon="5.47909">
        <ele>882.8</ele>
        <time>2021-02-20T13:42:17.000Z</time>
      </trkpt>
      <trkpt lat="45.8744" lon="5.47917">
        <ele>882.2</ele>
        <time>2021-02-20T13:42:18.000Z</time>
      </trkpt>
      <trkpt lat="45.8743" lon="5.47938">
        <ele>881.6</ele>
        <time>2021-02-20T13:42:21.000Z</time>
      </trkpt>
      <trkpt lat="45.87418" lon="5.4796">
        <ele>880.4</ele>
        <time>2021-02-20T13:42:24.000Z</time>
      </trkpt>
      <trkpt lat="45.87413" lon="5.47967">
        <ele>880.2</ele>
        <time>2021-02-20T13:42:25.000Z</time>
      </trkpt>
      <trkpt lat="45.87408" lon="5.47974">
        <ele>880</ele>
        <time>2021-02-20T13:42:26.000Z</time>
      </trkpt>
      <trkpt lat="45.87396" lon="5.47987">
        <ele>879</ele>
        <time>2021-02-20T13:42:28.000Z</time>
      </trkpt>
      <trkpt lat="45.87391" lon="5.47994">
        <ele>878.2</ele>
        <time>2021-02-20T13:42:29.000Z</time>
      </trkpt>
      <trkpt lat="45.87386" lon="5.48001">
        <ele>878</ele>
        <time>2021-02-20T13:42:30.000Z</time>
      </trkpt>
      <trkpt lat="45.87381" lon="5.48007">
        <ele>877.6</ele>
        <time>2021-02-20T13:42:31.000Z</time>
      </trkpt>
      <trkpt lat="45.87376" lon="5.48013">
        <ele>877.4</ele>
        <time>2021-02-20T13:42:32.000Z</time>
      </trkpt>
      <trkpt lat="45.87371" lon="5.48019">
        <ele>877.4</ele>
        <time>2021-02-20T13:42:33.000Z</time>
      </trkpt>
      <trkpt lat="45.87363" lon="5.48031">
        <ele>876.4</ele>
        <time>2021-02-20T13:42:35.000Z</time>
      </trkpt>
      <trkpt lat="45.87354" lon="5.48042">
        <ele>875.8</ele>
        <time>2021-02-20T13:42:37.000Z</time>
      </trkpt>
      <trkpt lat="45.87349" lon="5.48047">
        <ele>875.8</ele>
        <time>2021-02-20T13:42:38.000Z</time>
      </trkpt>
      <trkpt lat="45.87346" lon="5.48053">
        <ele>875.6</ele>
        <time>2021-02-20T13:42:39.000Z</time>
      </trkpt>
      <trkpt lat="45.87342" lon="5.48059">
        <ele>875.6</ele>
        <time>2021-02-20T13:42:40.000Z</time>
      </trkpt>
      <trkpt lat="45.87327" lon="5.48083">
        <ele>874.2</ele>
        <time>2021-02-20T13:42:44.000Z</time>
      </trkpt>
      <trkpt lat="45.87323" lon="5.48089">
        <ele>874</ele>
        <time>2021-02-20T13:42:45.000Z</time>
      </trkpt>
      <trkpt lat="45.8732" lon="5.48095">
        <ele>874</ele>
        <time>2021-02-20T13:42:46.000Z</time>
      </trkpt>
      <trkpt lat="45.87317" lon="5.48102">
        <ele>873.8</ele>
        <time>2021-02-20T13:42:47.000Z</time>
      </trkpt>
      <trkpt lat="45.87314" lon="5.48108">
        <ele>873.8</ele>
        <time>2021-02-20T13:42:48.000Z</time>
      </trkpt>
      <trkpt lat="45.87311" lon="5.48113">
        <ele>873</ele>
        <time>2021-02-20T13:42:49.000Z</time>
      </trkpt>
      <trkpt lat="45.87303" lon="5.48126">
        <ele>872</ele>
        <time>2021-02-20T13:42:51.000Z</time>
      </trkpt>
      <trkpt lat="45.87299" lon="5.48133">
        <ele>871.8</ele>
        <time>2021-02-20T13:42:52.000Z</time>
      </trkpt>
      <trkpt lat="45.87296" lon="5.48139">
        <ele>871.6</ele>
        <time>2021-02-20T13:42:53.000Z</time>
      </trkpt>
      <trkpt lat="45.87292" lon="5.48146">
        <ele>871.4</ele>
        <time>2021-02-20T13:42:54.000Z</time>
      </trkpt>
      <trkpt lat="45.87289" lon="5.48153">
        <ele>871.4</ele>
        <time>2021-02-20T13:42:55.000Z</time>
      </trkpt>
      <trkpt lat="45.87286" lon="5.48159">
        <ele>871.4</ele>
        <time>2021-02-20T13:42:56.000Z</time>
      </trkpt>
      <trkpt lat="45.87277" lon="5.48179">
        <ele>870.6</ele>
        <time>2021-02-20T13:42:59.000Z</time>
      </trkpt>
      <trkpt lat="45.87274" lon="5.48186">
        <ele>870.6</ele>
        <time>2021-02-20T13:43:00.000Z</time>
      </trkpt>
      <trkpt lat="45.87271" lon="5.48193">
        <ele>869.8</ele>
        <time>2021-02-20T13:43:01.000Z</time>
      </trkpt>
      <trkpt lat="45.87268" lon="5.48199">
        <ele>869.4</ele>
        <time>2021-02-20T13:43:02.000Z</time>
      </trkpt>
      <trkpt lat="45.87265" lon="5.48205">
        <ele>869.2</ele>
        <time>2021-02-20T13:43:03.000Z</time>
      </trkpt>
      <trkpt lat="45.87262" lon="5.48211">
        <ele>869</ele>
        <time>2021-02-20T13:43:04.000Z</time>
      </trkpt>
      <trkpt lat="45.87253" lon="5.48231">
        <ele>868.6</ele>
        <time>2021-02-20T13:43:07.000Z</time>
      </trkpt>
      <trkpt lat="45.87248" lon="5.48244">
        <ele>868.2</ele>
        <time>2021-02-20T13:43:09.000Z</time>
      </trkpt>
      <trkpt lat="45.87242" lon="5.48256">
        <ele>867.8</ele>
        <time>2021-02-20T13:43:11.000Z</time>
      </trkpt>
      <trkpt lat="45.87235" lon="5.48267">
        <ele>867.4</ele>
        <time>2021-02-20T13:43:13.000Z</time>
      </trkpt>
      <trkpt lat="45.87231" lon="5.48272">
        <ele>867</ele>
        <time>2021-02-20T13:43:14.000Z</time>
      </trkpt>
      <trkpt lat="45.87222" lon="5.48283">
        <ele>866.8</ele>
        <time>2021-02-20T13:43:16.000Z</time>
      </trkpt>
      <trkpt lat="45.87217" lon="5.48287">
        <ele>866.4</ele>
        <time>2021-02-20T13:43:17.000Z</time>
      </trkpt>
      <trkpt lat="45.87206" lon="5.48298">
        <ele>866</ele>
        <time>2021-02-20T13:43:19.000Z</time>
      </trkpt>
      <trkpt lat="45.87201" lon="5.48303">
        <ele>866</ele>
        <time>2021-02-20T13:43:20.000Z</time>
      </trkpt>
      <trkpt lat="45.87196" lon="5.48307">
        <ele>866</ele>
        <time>2021-02-20T13:43:21.000Z</time>
      </trkpt>
      <trkpt lat="45.87192" lon="5.48312">
        <ele>865.8</ele>
        <time>2021-02-20T13:43:22.000Z</time>
      </trkpt>
      <trkpt lat="45.87188" lon="5.48318">
        <ele>865.8</ele>
        <time>2021-02-20T13:43:23.000Z</time>
      </trkpt>
      <trkpt lat="45.87185" lon="5.48323">
        <ele>865.6</ele>
        <time>2021-02-20T13:43:24.000Z</time>
      </trkpt>
      <trkpt lat="45.87181" lon="5.48327">
        <ele>865.4</ele>
        <time>2021-02-20T13:43:25.000Z</time>
      </trkpt>
      <trkpt lat="45.87177" lon="5.48331">
        <ele>865</ele>
        <time>2021-02-20T13:43:26.000Z</time>
      </trkpt>
      <trkpt lat="45.87175" lon="5.48336">
        <ele>864.4</ele>
        <time>2021-02-20T13:43:27.000Z</time>
      </trkpt>
      <trkpt lat="45.87165" lon="5.4835">
        <ele>863.4</ele>
        <time>2021-02-20T13:43:30.000Z</time>
      </trkpt>
      <trkpt lat="45.8716" lon="5.48355">
        <ele>863.2</ele>
        <time>2021-02-20T13:43:31.000Z</time>
      </trkpt>
      <trkpt lat="45.87143" lon="5.48378">
        <ele>862.4</ele>
        <time>2021-02-20T13:43:35.000Z</time>
      </trkpt>
      <trkpt lat="45.87139" lon="5.48384">
        <ele>862.2</ele>
        <time>2021-02-20T13:43:36.000Z</time>
      </trkpt>
      <trkpt lat="45.87135" lon="5.4839">
        <ele>861.8</ele>
        <time>2021-02-20T13:43:37.000Z</time>
      </trkpt>
      <trkpt lat="45.87132" lon="5.48396">
        <ele>861.6</ele>
        <time>2021-02-20T13:43:38.000Z</time>
      </trkpt>
      <trkpt lat="45.87129" lon="5.48401">
        <ele>861.6</ele>
        <time>2021-02-20T13:43:39.000Z</time>
      </trkpt>
      <trkpt lat="45.87122" lon="5.48411">
        <ele>860.6</ele>
        <time>2021-02-20T13:43:41.000Z</time>
      </trkpt>
      <trkpt lat="45.87112" lon="5.48427">
        <ele>859.6</ele>
        <time>2021-02-20T13:43:44.000Z</time>
      </trkpt>
      <trkpt lat="45.87106" lon="5.48438">
        <ele>859.2</ele>
        <time>2021-02-20T13:43:46.000Z</time>
      </trkpt>
      <trkpt lat="45.87103" lon="5.48443">
        <ele>859</ele>
        <time>2021-02-20T13:43:47.000Z</time>
      </trkpt>
      <trkpt lat="45.87099" lon="5.48448">
        <ele>858.6</ele>
        <time>2021-02-20T13:43:48.000Z</time>
      </trkpt>
      <trkpt lat="45.87096" lon="5.48453">
        <ele>858.6</ele>
        <time>2021-02-20T13:43:49.000Z</time>
      </trkpt>
      <trkpt lat="45.87092" lon="5.48458">
        <ele>858.2</ele>
        <time>2021-02-20T13:43:50.000Z</time>
      </trkpt>
      <trkpt lat="45.87085" lon="5.48467">
        <ele>857.2</ele>
        <time>2021-02-20T13:43:52.000Z</time>
      </trkpt>
      <trkpt lat="45.87081" lon="5.48472">
        <ele>857</ele>
        <time>2021-02-20T13:43:53.000Z</time>
      </trkpt>
      <trkpt lat="45.87078" lon="5.48477">
        <ele>857</ele>
        <time>2021-02-20T13:43:54.000Z</time>
      </trkpt>
      <trkpt lat="45.87075" lon="5.48483">
        <ele>856.8</ele>
        <time>2021-02-20T13:43:55.000Z</time>
      </trkpt>
      <trkpt lat="45.87073" lon="5.48488">
        <ele>856.8</ele>
        <time>2021-02-20T13:43:56.000Z</time>
      </trkpt>
      <trkpt lat="45.87068" lon="5.48498">
        <ele>856</ele>
        <time>2021-02-20T13:43:58.000Z</time>
      </trkpt>
      <trkpt lat="45.87065" lon="5.48511">
        <ele>855.6</ele>
        <time>2021-02-20T13:44:00.000Z</time>
      </trkpt>
      <trkpt lat="45.87064" lon="5.48518">
        <ele>855.6</ele>
        <time>2021-02-20T13:44:01.000Z</time>
      </trkpt>
      <trkpt lat="45.87062" lon="5.48523">
        <ele>855.4</ele>
        <time>2021-02-20T13:44:02.000Z</time>
      </trkpt>
      <trkpt lat="45.87061" lon="5.48526">
        <ele>855</ele>
        <time>2021-02-20T13:44:03.000Z</time>
      </trkpt>
      <trkpt lat="45.87059" lon="5.48528">
        <ele>855</ele>
        <time>2021-02-20T13:44:04.000Z</time>
      </trkpt>
      <trkpt lat="45.87058" lon="5.48529">
        <ele>854.8</ele>
        <time>2021-02-20T13:44:05.000Z</time>
      </trkpt>
      <trkpt lat="45.87057" lon="5.48531">
        <ele>854.8</ele>
        <time>2021-02-20T13:44:06.000Z</time>
      </trkpt>
      <trkpt lat="45.87054" lon="5.48534">
        <ele>854.8</ele>
        <time>2021-02-20T13:44:08.000Z</time>
      </trkpt>
      <trkpt lat="45.87049" lon="5.4854">
        <ele>854.8</ele>
        <time>2021-02-20T13:44:11.000Z</time>
      </trkpt>
      <trkpt lat="45.87045" lon="5.48544">
        <ele>855.2</ele>
        <time>2021-02-20T13:44:13.000Z</time>
      </trkpt>
      <trkpt lat="45.87044" lon="5.48545">
        <ele>855</ele>
        <time>2021-02-20T13:44:14.000Z</time>
      </trkpt>
      <trkpt lat="45.87042" lon="5.48547">
        <ele>855.2</ele>
        <time>2021-02-20T13:44:15.000Z</time>
      </trkpt>
      <trkpt lat="45.87041" lon="5.48548">
        <ele>855.4</ele>
        <time>2021-02-20T13:44:16.000Z</time>
      </trkpt>
      <trkpt lat="45.8704" lon="5.4855">
        <ele>855.8</ele>
        <time>2021-02-20T13:44:17.000Z</time>
      </trkpt>
      <trkpt lat="45.87039" lon="5.48551">
        <ele>856</ele>
        <time>2021-02-20T13:44:18.000Z</time>
      </trkpt>
      <trkpt lat="45.87036" lon="5.48554">
        <ele>856.8</ele>
        <time>2021-02-20T13:44:20.000Z</time>
      </trkpt>
      <trkpt lat="45.87035" lon="5.48556">
        <ele>856.8</ele>
        <time>2021-02-20T13:44:21.000Z</time>
      </trkpt>
      <trkpt lat="45.87034" lon="5.48557">
        <ele>857.2</ele>
        <time>2021-02-20T13:44:22.000Z</time>
      </trkpt>
      <trkpt lat="45.87032" lon="5.48558">
        <ele>857.4</ele>
        <time>2021-02-20T13:44:23.000Z</time>
      </trkpt>
      <trkpt lat="45.87031" lon="5.48559">
        <ele>857.4</ele>
        <time>2021-02-20T13:44:24.000Z</time>
      </trkpt>
      <trkpt lat="45.87029" lon="5.48561">
        <ele>857.8</ele>
        <time>2021-02-20T13:44:25.000Z</time>
      </trkpt>
      <trkpt lat="45.87028" lon="5.48563">
        <ele>857.8</ele>
        <time>2021-02-20T13:44:26.000Z</time>
      </trkpt>
      <trkpt lat="45.87026" lon="5.48564">
        <ele>858.2</ele>
        <time>2021-02-20T13:44:27.000Z</time>
      </trkpt>
      <trkpt lat="45.87024" lon="5.48565">
        <ele>858.4</ele>
        <time>2021-02-20T13:44:28.000Z</time>
      </trkpt>
      <trkpt lat="45.87022" lon="5.48567">
        <ele>858.6</ele>
        <time>2021-02-20T13:44:29.000Z</time>
      </trkpt>
      <trkpt lat="45.8702" lon="5.48568">
        <ele>858.8</ele>
        <time>2021-02-20T13:44:30.000Z</time>
      </trkpt>
      <trkpt lat="45.87019" lon="5.48569">
        <ele>859</ele>
        <time>2021-02-20T13:44:31.000Z</time>
      </trkpt>
      <trkpt lat="45.87017" lon="5.4857">
        <ele>859</ele>
        <time>2021-02-20T13:44:32.000Z</time>
      </trkpt>
      <trkpt lat="45.87016" lon="5.48571">
        <ele>859.4</ele>
        <time>2021-02-20T13:44:33.000Z</time>
      </trkpt>
      <trkpt lat="45.87014" lon="5.48573">
        <ele>859.6</ele>
        <time>2021-02-20T13:44:34.000Z</time>
      </trkpt>
      <trkpt lat="45.87012" lon="5.48574">
        <ele>859.8</ele>
        <time>2021-02-20T13:44:35.000Z</time>
      </trkpt>
      <trkpt lat="45.8701" lon="5.48575">
        <ele>859.8</ele>
        <time>2021-02-20T13:44:36.000Z</time>
      </trkpt>
      <trkpt lat="45.87008" lon="5.48576">
        <ele>860</ele>
        <time>2021-02-20T13:44:37.000Z</time>
      </trkpt>
      <trkpt lat="45.87006" lon="5.48577">
        <ele>860</ele>
        <time>2021-02-20T13:44:38.000Z</time>
      </trkpt>
      <trkpt lat="45.87005" lon="5.48579">
        <ele>860.2</ele>
        <time>2021-02-20T13:44:39.000Z</time>
      </trkpt>
      <trkpt lat="45.87003" lon="5.4858">
        <ele>860.2</ele>
        <time>2021-02-20T13:44:40.000Z</time>
      </trkpt>
      <trkpt lat="45.87001" lon="5.48581">
        <ele>860.8</ele>
        <time>2021-02-20T13:44:41.000Z</time>
      </trkpt>
      <trkpt lat="45.86999" lon="5.48583">
        <ele>860.8</ele>
        <time>2021-02-20T13:44:42.000Z</time>
      </trkpt>
      <trkpt lat="45.86998" lon="5.48584">
        <ele>861.2</ele>
        <time>2021-02-20T13:44:43.000Z</time>
      </trkpt>
      <trkpt lat="45.86996" lon="5.48586">
        <ele>861.4</ele>
        <time>2021-02-20T13:44:44.000Z</time>
      </trkpt>
      <trkpt lat="45.86994" lon="5.48587">
        <ele>861.4</ele>
        <time>2021-02-20T13:44:45.000Z</time>
      </trkpt>
      <trkpt lat="45.86992" lon="5.48588">
        <ele>861.6</ele>
        <time>2021-02-20T13:44:46.000Z</time>
      </trkpt>
      <trkpt lat="45.8699" lon="5.4859">
        <ele>861.6</ele>
        <time>2021-02-20T13:44:47.000Z</time>
      </trkpt>
      <trkpt lat="45.86989" lon="5.48592">
        <ele>861.8</ele>
        <time>2021-02-20T13:44:48.000Z</time>
      </trkpt>
      <trkpt lat="45.86987" lon="5.48593">
        <ele>862</ele>
        <time>2021-02-20T13:44:49.000Z</time>
      </trkpt>
      <trkpt lat="45.86985" lon="5.48594">
        <ele>862</ele>
        <time>2021-02-20T13:44:50.000Z</time>
      </trkpt>
      <trkpt lat="45.86984" lon="5.48595">
        <ele>862.4</ele>
        <time>2021-02-20T13:44:51.000Z</time>
      </trkpt>
      <trkpt lat="45.86982" lon="5.48596">
        <ele>862.4</ele>
        <time>2021-02-20T13:44:52.000Z</time>
      </trkpt>
      <trkpt lat="45.86981" lon="5.48597">
        <ele>862.6</ele>
        <time>2021-02-20T13:44:53.000Z</time>
      </trkpt>
      <trkpt lat="45.86979" lon="5.48598">
        <ele>862.6</ele>
        <time>2021-02-20T13:44:54.000Z</time>
      </trkpt>
      <trkpt lat="45.86978" lon="5.48599">
        <ele>862.8</ele>
        <time>2021-02-20T13:44:55.000Z</time>
      </trkpt>
      <trkpt lat="45.86976" lon="5.486">
        <ele>863.2</ele>
        <time>2021-02-20T13:44:56.000Z</time>
      </trkpt>
      <trkpt lat="45.86974" lon="5.48601">
        <ele>863.6</ele>
        <time>2021-02-20T13:44:57.000Z</time>
      </trkpt>
      <trkpt lat="45.86972" lon="5.48602">
        <ele>863.8</ele>
        <time>2021-02-20T13:44:58.000Z</time>
      </trkpt>
      <trkpt lat="45.8697" lon="5.48603">
        <ele>864</ele>
        <time>2021-02-20T13:44:59.000Z</time>
      </trkpt>
      <trkpt lat="45.86969" lon="5.48605">
        <ele>864</ele>
        <time>2021-02-20T13:45:00.000Z</time>
      </trkpt>
      <trkpt lat="45.86967" lon="5.48606">
        <ele>864</ele>
        <time>2021-02-20T13:45:01.000Z</time>
      </trkpt>
      <trkpt lat="45.86965" lon="5.48607">
        <ele>864.2</ele>
        <time>2021-02-20T13:45:02.000Z</time>
      </trkpt>
      <trkpt lat="45.86964" lon="5.48608">
        <ele>864.2</ele>
        <time>2021-02-20T13:45:03.000Z</time>
      </trkpt>
      <trkpt lat="45.86962" lon="5.48609">
        <ele>864.2</ele>
        <time>2021-02-20T13:45:04.000Z</time>
      </trkpt>
      <trkpt lat="45.8696" lon="5.4861">
        <ele>864.4</ele>
        <time>2021-02-20T13:45:05.000Z</time>
      </trkpt>
      <trkpt lat="45.86959" lon="5.48612">
        <ele>864.4</ele>
        <time>2021-02-20T13:45:06.000Z</time>
      </trkpt>
      <trkpt lat="45.86957" lon="5.48613">
        <ele>864.6</ele>
        <time>2021-02-20T13:45:07.000Z</time>
      </trkpt>
      <trkpt lat="45.86955" lon="5.48615">
        <ele>864.8</ele>
        <time>2021-02-20T13:45:08.000Z</time>
      </trkpt>
      <trkpt lat="45.86954" lon="5.48617">
        <ele>865</ele>
        <time>2021-02-20T13:45:09.000Z</time>
      </trkpt>
      <trkpt lat="45.86952" lon="5.48619">
        <ele>865</ele>
        <time>2021-02-20T13:45:10.000Z</time>
      </trkpt>
      <trkpt lat="45.86951" lon="5.4862">
        <ele>865.2</ele>
        <time>2021-02-20T13:45:11.000Z</time>
      </trkpt>
      <trkpt lat="45.86949" lon="5.48621">
        <ele>865.2</ele>
        <time>2021-02-20T13:45:12.000Z</time>
      </trkpt>
      <trkpt lat="45.86946" lon="5.48622">
        <ele>865.2</ele>
        <time>2021-02-20T13:45:13.000Z</time>
      </trkpt>
      <trkpt lat="45.86944" lon="5.48623">
        <ele>865.4</ele>
        <time>2021-02-20T13:45:14.000Z</time>
      </trkpt>
      <trkpt lat="45.86942" lon="5.48624">
        <ele>865.6</ele>
        <time>2021-02-20T13:45:15.000Z</time>
      </trkpt>
      <trkpt lat="45.86939" lon="5.48625">
        <ele>865.8</ele>
        <time>2021-02-20T13:45:16.000Z</time>
      </trkpt>
      <trkpt lat="45.86937" lon="5.48626">
        <ele>865.8</ele>
        <time>2021-02-20T13:45:17.000Z</time>
      </trkpt>
      <trkpt lat="45.86934" lon="5.48627">
        <ele>866</ele>
        <time>2021-02-20T13:45:18.000Z</time>
      </trkpt>
      <trkpt lat="45.86932" lon="5.48628">
        <ele>866</ele>
        <time>2021-02-20T13:45:19.000Z</time>
      </trkpt>
      <trkpt lat="45.8693" lon="5.48629">
        <ele>866.2</ele>
        <time>2021-02-20T13:45:20.000Z</time>
      </trkpt>
      <trkpt lat="45.86928" lon="5.4863">
        <ele>866.2</ele>
        <time>2021-02-20T13:45:21.000Z</time>
      </trkpt>
      <trkpt lat="45.86925" lon="5.48631">
        <ele>866.4</ele>
        <time>2021-02-20T13:45:22.000Z</time>
      </trkpt>
      <trkpt lat="45.86924" lon="5.48632">
        <ele>866.6</ele>
        <time>2021-02-20T13:45:23.000Z</time>
      </trkpt>
      <trkpt lat="45.86922" lon="5.48633">
        <ele>866.8</ele>
        <time>2021-02-20T13:45:24.000Z</time>
      </trkpt>
      <trkpt lat="45.86921" lon="5.48634">
        <ele>867</ele>
        <time>2021-02-20T13:45:25.000Z</time>
      </trkpt>
      <trkpt lat="45.86919" lon="5.48635">
        <ele>867.2</ele>
        <time>2021-02-20T13:45:26.000Z</time>
      </trkpt>
      <trkpt lat="45.86918" lon="5.48636">
        <ele>867.2</ele>
        <time>2021-02-20T13:45:27.000Z</time>
      </trkpt>
      <trkpt lat="45.86916" lon="5.48636">
        <ele>867.4</ele>
        <time>2021-02-20T13:45:28.000Z</time>
      </trkpt>
      <trkpt lat="45.86914" lon="5.48637">
        <ele>867.8</ele>
        <time>2021-02-20T13:45:29.000Z</time>
      </trkpt>
      <trkpt lat="45.86913" lon="5.48638">
        <ele>868</ele>
        <time>2021-02-20T13:45:30.000Z</time>
      </trkpt>
      <trkpt lat="45.86911" lon="5.48639">
        <ele>868</ele>
        <time>2021-02-20T13:45:31.000Z</time>
      </trkpt>
      <trkpt lat="45.8691" lon="5.4864">
        <ele>868.2</ele>
        <time>2021-02-20T13:45:32.000Z</time>
      </trkpt>
      <trkpt lat="45.86908" lon="5.48641">
        <ele>868.2</ele>
        <time>2021-02-20T13:45:33.000Z</time>
      </trkpt>
      <trkpt lat="45.86907" lon="5.48643">
        <ele>868.4</ele>
        <time>2021-02-20T13:45:34.000Z</time>
      </trkpt>
      <trkpt lat="45.86906" lon="5.48644">
        <ele>868.6</ele>
        <time>2021-02-20T13:45:35.000Z</time>
      </trkpt>
      <trkpt lat="45.86905" lon="5.48645">
        <ele>868.8</ele>
        <time>2021-02-20T13:45:36.000Z</time>
      </trkpt>
      <trkpt lat="45.86903" lon="5.48646">
        <ele>869.2</ele>
        <time>2021-02-20T13:45:37.000Z</time>
      </trkpt>
      <trkpt lat="45.86902" lon="5.48647">
        <ele>869.4</ele>
        <time>2021-02-20T13:45:38.000Z</time>
      </trkpt>
      <trkpt lat="45.86901" lon="5.48648">
        <ele>869.8</ele>
        <time>2021-02-20T13:45:39.000Z</time>
      </trkpt>
      <trkpt lat="45.86899" lon="5.4865">
        <ele>870.2</ele>
        <time>2021-02-20T13:45:40.000Z</time>
      </trkpt>
      <trkpt lat="45.86898" lon="5.48651">
        <ele>870.2</ele>
        <time>2021-02-20T13:45:41.000Z</time>
      </trkpt>
      <trkpt lat="45.86897" lon="5.48652">
        <ele>870.4</ele>
        <time>2021-02-20T13:45:42.000Z</time>
      </trkpt>
      <trkpt lat="45.86895" lon="5.48653">
        <ele>870.6</ele>
        <time>2021-02-20T13:45:43.000Z</time>
      </trkpt>
      <trkpt lat="45.86893" lon="5.48654">
        <ele>870.6</ele>
        <time>2021-02-20T13:45:44.000Z</time>
      </trkpt>
      <trkpt lat="45.86892" lon="5.48655">
        <ele>871</ele>
        <time>2021-02-20T13:45:45.000Z</time>
      </trkpt>
      <trkpt lat="45.8689" lon="5.48656">
        <ele>871.2</ele>
        <time>2021-02-20T13:45:46.000Z</time>
      </trkpt>
      <trkpt lat="45.86888" lon="5.48657">
        <ele>871.6</ele>
        <time>2021-02-20T13:45:47.000Z</time>
      </trkpt>
      <trkpt lat="45.86887" lon="5.48658">
        <ele>871.8</ele>
        <time>2021-02-20T13:45:48.000Z</time>
      </trkpt>
      <trkpt lat="45.86886" lon="5.48659">
        <ele>871.8</ele>
        <time>2021-02-20T13:45:49.000Z</time>
      </trkpt>
      <trkpt lat="45.86884" lon="5.48661">
        <ele>871.8</ele>
        <time>2021-02-20T13:45:50.000Z</time>
      </trkpt>
      <trkpt lat="45.86883" lon="5.48662">
        <ele>872</ele>
        <time>2021-02-20T13:45:51.000Z</time>
      </trkpt>
      <trkpt lat="45.86881" lon="5.48663">
        <ele>872.4</ele>
        <time>2021-02-20T13:45:52.000Z</time>
      </trkpt>
      <trkpt lat="45.8688" lon="5.48664">
        <ele>872.4</ele>
        <time>2021-02-20T13:45:53.000Z</time>
      </trkpt>
      <trkpt lat="45.86878" lon="5.48665">
        <ele>872.4</ele>
        <time>2021-02-20T13:45:54.000Z</time>
      </trkpt>
      <trkpt lat="45.86876" lon="5.48666">
        <ele>872.6</ele>
        <time>2021-02-20T13:45:55.000Z</time>
      </trkpt>
      <trkpt lat="45.86874" lon="5.48667">
        <ele>872.8</ele>
        <time>2021-02-20T13:45:56.000Z</time>
      </trkpt>
      <trkpt lat="45.86873" lon="5.48668">
        <ele>873</ele>
        <time>2021-02-20T13:45:57.000Z</time>
      </trkpt>
      <trkpt lat="45.86871" lon="5.48669">
        <ele>873.4</ele>
        <time>2021-02-20T13:45:58.000Z</time>
      </trkpt>
      <trkpt lat="45.86869" lon="5.48669">
        <ele>873.4</ele>
        <time>2021-02-20T13:45:59.000Z</time>
      </trkpt>
      <trkpt lat="45.86867" lon="5.4867">
        <ele>873.4</ele>
        <time>2021-02-20T13:46:00.000Z</time>
      </trkpt>
      <trkpt lat="45.86865" lon="5.48671">
        <ele>873.6</ele>
        <time>2021-02-20T13:46:01.000Z</time>
      </trkpt>
      <trkpt lat="45.86863" lon="5.48671">
        <ele>873.6</ele>
        <time>2021-02-20T13:46:02.000Z</time>
      </trkpt>
      <trkpt lat="45.8686" lon="5.48671">
        <ele>873.8</ele>
        <time>2021-02-20T13:46:03.000Z</time>
      </trkpt>
      <trkpt lat="45.86858" lon="5.48672">
        <ele>874</ele>
        <time>2021-02-20T13:46:04.000Z</time>
      </trkpt>
      <trkpt lat="45.86856" lon="5.48673">
        <ele>874.2</ele>
        <time>2021-02-20T13:46:05.000Z</time>
      </trkpt>
      <trkpt lat="45.86854" lon="5.48674">
        <ele>874.4</ele>
        <time>2021-02-20T13:46:06.000Z</time>
      </trkpt>
      <trkpt lat="45.86852" lon="5.48675">
        <ele>874.6</ele>
        <time>2021-02-20T13:46:07.000Z</time>
      </trkpt>
      <trkpt lat="45.8685" lon="5.48675">
        <ele>874.8</ele>
        <time>2021-02-20T13:46:08.000Z</time>
      </trkpt>
      <trkpt lat="45.86848" lon="5.48675">
        <ele>875</ele>
        <time>2021-02-20T13:46:09.000Z</time>
      </trkpt>
      <trkpt lat="45.86845" lon="5.48676">
        <ele>875.2</ele>
        <time>2021-02-20T13:46:10.000Z</time>
      </trkpt>
      <trkpt lat="45.8684" lon="5.48675">
        <ele>875.4</ele>
        <time>2021-02-20T13:46:11.000Z</time>
      </trkpt>
      <trkpt lat="45.86836" lon="5.48674">
        <ele>875.6</ele>
        <time>2021-02-20T13:46:12.000Z</time>
      </trkpt>
      <trkpt lat="45.86834" lon="5.48675">
        <ele>875.8</ele>
        <time>2021-02-20T13:46:13.000Z</time>
      </trkpt>
      <trkpt lat="45.8683" lon="5.48675">
        <ele>876.2</ele>
        <time>2021-02-20T13:46:14.000Z</time>
      </trkpt>
      <trkpt lat="45.86829" lon="5.48676">
        <ele>876.4</ele>
        <time>2021-02-20T13:46:15.000Z</time>
      </trkpt>
      <trkpt lat="45.86827" lon="5.48677">
        <ele>876.8</ele>
        <time>2021-02-20T13:46:16.000Z</time>
      </trkpt>
      <trkpt lat="45.86825" lon="5.48677">
        <ele>877</ele>
        <time>2021-02-20T13:46:17.000Z</time>
      </trkpt>
      <trkpt lat="45.86823" lon="5.48679">
        <ele>877</ele>
        <time>2021-02-20T13:46:18.000Z</time>
      </trkpt>
      <trkpt lat="45.86821" lon="5.4868">
        <ele>877.2</ele>
        <time>2021-02-20T13:46:19.000Z</time>
      </trkpt>
      <trkpt lat="45.8682" lon="5.48681">
        <ele>877.4</ele>
        <time>2021-02-20T13:46:20.000Z</time>
      </trkpt>
      <trkpt lat="45.86818" lon="5.48683">
        <ele>877.4</ele>
        <time>2021-02-20T13:46:21.000Z</time>
      </trkpt>
      <trkpt lat="45.86816" lon="5.48684">
        <ele>877.6</ele>
        <time>2021-02-20T13:46:22.000Z</time>
      </trkpt>
      <trkpt lat="45.86815" lon="5.48686">
        <ele>877.6</ele>
        <time>2021-02-20T13:46:23.000Z</time>
      </trkpt>
      <trkpt lat="45.86813" lon="5.48687">
        <ele>878</ele>
        <time>2021-02-20T13:46:24.000Z</time>
      </trkpt>
      <trkpt lat="45.86811" lon="5.48688">
        <ele>878</ele>
        <time>2021-02-20T13:46:25.000Z</time>
      </trkpt>
      <trkpt lat="45.86809" lon="5.48689">
        <ele>878.4</ele>
        <time>2021-02-20T13:46:26.000Z</time>
      </trkpt>
      <trkpt lat="45.86807" lon="5.4869">
        <ele>878.4</ele>
        <time>2021-02-20T13:46:27.000Z</time>
      </trkpt>
      <trkpt lat="45.86806" lon="5.48691">
        <ele>878.6</ele>
        <time>2021-02-20T13:46:28.000Z</time>
      </trkpt>
      <trkpt lat="45.86804" lon="5.48692">
        <ele>878.8</ele>
        <time>2021-02-20T13:46:29.000Z</time>
      </trkpt>
      <trkpt lat="45.86803" lon="5.48693">
        <ele>879</ele>
        <time>2021-02-20T13:46:30.000Z</time>
      </trkpt>
      <trkpt lat="45.86801" lon="5.48696">
        <ele>879.2</ele>
        <time>2021-02-20T13:46:31.000Z</time>
      </trkpt>
      <trkpt lat="45.868" lon="5.48698">
        <ele>879.2</ele>
        <time>2021-02-20T13:46:32.000Z</time>
      </trkpt>
      <trkpt lat="45.868" lon="5.48701">
        <ele>879.4</ele>
        <time>2021-02-20T13:46:33.000Z</time>
      </trkpt>
      <trkpt lat="45.86799" lon="5.48703">
        <ele>879.6</ele>
        <time>2021-02-20T13:46:34.000Z</time>
      </trkpt>
      <trkpt lat="45.86799" lon="5.48706">
        <ele>879.6</ele>
        <time>2021-02-20T13:46:35.000Z</time>
      </trkpt>
      <trkpt lat="45.86799" lon="5.48709">
        <ele>880.2</ele>
        <time>2021-02-20T13:46:36.000Z</time>
      </trkpt>
      <trkpt lat="45.86801" lon="5.48711">
        <ele>880.4</ele>
        <time>2021-02-20T13:46:37.000Z</time>
      </trkpt>
      <trkpt lat="45.86802" lon="5.48712">
        <ele>880.6</ele>
        <time>2021-02-20T13:46:38.000Z</time>
      </trkpt>
      <trkpt lat="45.86803" lon="5.48713">
        <ele>880.6</ele>
        <time>2021-02-20T13:46:39.000Z</time>
      </trkpt>
      <trkpt lat="45.86806" lon="5.48713">
        <ele>881</ele>
        <time>2021-02-20T13:46:40.000Z</time>
      </trkpt>
      <trkpt lat="45.86809" lon="5.48712">
        <ele>881</ele>
        <time>2021-02-20T13:46:41.000Z</time>
      </trkpt>
      <trkpt lat="45.86811" lon="5.48712">
        <ele>881</ele>
        <time>2021-02-20T13:46:42.000Z</time>
      </trkpt>
      <trkpt lat="45.86813" lon="5.48711">
        <ele>881.2</ele>
        <time>2021-02-20T13:46:43.000Z</time>
      </trkpt>
      <trkpt lat="45.86815" lon="5.48711">
        <ele>881.2</ele>
        <time>2021-02-20T13:46:44.000Z</time>
      </trkpt>
      <trkpt lat="45.86817" lon="5.4871">
        <ele>881.6</ele>
        <time>2021-02-20T13:46:45.000Z</time>
      </trkpt>
      <trkpt lat="45.86819" lon="5.48709">
        <ele>881.8</ele>
        <time>2021-02-20T13:46:46.000Z</time>
      </trkpt>
      <trkpt lat="45.86821" lon="5.48708">
        <ele>881.8</ele>
        <time>2021-02-20T13:46:47.000Z</time>
      </trkpt>
      <trkpt lat="45.86823" lon="5.48706">
        <ele>881.8</ele>
        <time>2021-02-20T13:46:48.000Z</time>
      </trkpt>
      <trkpt lat="45.86824" lon="5.48705">
        <ele>882.2</ele>
        <time>2021-02-20T13:46:49.000Z</time>
      </trkpt>
      <trkpt lat="45.86825" lon="5.48705">
        <ele>882.2</ele>
        <time>2021-02-20T13:46:50.000Z</time>
      </trkpt>
      <trkpt lat="45.86827" lon="5.48704">
        <ele>882.2</ele>
        <time>2021-02-20T13:46:51.000Z</time>
      </trkpt>
      <trkpt lat="45.86828" lon="5.48704">
        <ele>882.2</ele>
        <time>2021-02-20T13:46:52.000Z</time>
      </trkpt>
      <trkpt lat="45.8683" lon="5.48704">
        <ele>882.4</ele>
        <time>2021-02-20T13:46:53.000Z</time>
      </trkpt>
      <trkpt lat="45.86832" lon="5.48704">
        <ele>882.4</ele>
        <time>2021-02-20T13:46:54.000Z</time>
      </trkpt>
      <trkpt lat="45.86834" lon="5.48703">
        <ele>882.4</ele>
        <time>2021-02-20T13:46:55.000Z</time>
      </trkpt>
      <trkpt lat="45.86836" lon="5.48703">
        <ele>882.6</ele>
        <time>2021-02-20T13:46:56.000Z</time>
      </trkpt>
      <trkpt lat="45.86839" lon="5.48703">
        <ele>882.6</ele>
        <time>2021-02-20T13:46:57.000Z</time>
      </trkpt>
      <trkpt lat="45.86841" lon="5.48703">
        <ele>882.6</ele>
        <time>2021-02-20T13:46:58.000Z</time>
      </trkpt>
      <trkpt lat="45.86843" lon="5.48702">
        <ele>882.8</ele>
        <time>2021-02-20T13:46:59.000Z</time>
      </trkpt>
      <trkpt lat="45.86846" lon="5.48702">
        <ele>882.8</ele>
        <time>2021-02-20T13:47:00.000Z</time>
      </trkpt>
      <trkpt lat="45.86851" lon="5.48702">
        <ele>883</ele>
        <time>2021-02-20T13:47:01.000Z</time>
      </trkpt>
      <trkpt lat="45.86855" lon="5.48702">
        <ele>883</ele>
        <time>2021-02-20T13:47:02.000Z</time>
      </trkpt>
      <trkpt lat="45.86858" lon="5.48702">
        <ele>883</ele>
        <time>2021-02-20T13:47:03.000Z</time>
      </trkpt>
      <trkpt lat="45.86861" lon="5.48702">
        <ele>883.2</ele>
        <time>2021-02-20T13:47:04.000Z</time>
      </trkpt>
      <trkpt lat="45.86864" lon="5.48702">
        <ele>883.4</ele>
        <time>2021-02-20T13:47:05.000Z</time>
      </trkpt>
      <trkpt lat="45.86866" lon="5.48703">
        <ele>883.8</ele>
        <time>2021-02-20T13:47:06.000Z</time>
      </trkpt>
      <trkpt lat="45.8687" lon="5.48703">
        <ele>884</ele>
        <time>2021-02-20T13:47:07.000Z</time>
      </trkpt>
      <trkpt lat="45.86873" lon="5.48703">
        <ele>884.2</ele>
        <time>2021-02-20T13:47:08.000Z</time>
      </trkpt>
      <trkpt lat="45.86877" lon="5.48702">
        <ele>884.2</ele>
        <time>2021-02-20T13:47:09.000Z</time>
      </trkpt>
      <trkpt lat="45.86881" lon="5.48701">
        <ele>884</ele>
        <time>2021-02-20T13:47:10.000Z</time>
      </trkpt>
      <trkpt lat="45.86883" lon="5.487">
        <ele>884.6</ele>
        <time>2021-02-20T13:47:11.000Z</time>
      </trkpt>
      <trkpt lat="45.86887" lon="5.487">
        <ele>884.8</ele>
        <time>2021-02-20T13:47:12.000Z</time>
      </trkpt>
      <trkpt lat="45.86891" lon="5.487">
        <ele>885</ele>
        <time>2021-02-20T13:47:13.000Z</time>
      </trkpt>
      <trkpt lat="45.86894" lon="5.48699">
        <ele>885.2</ele>
        <time>2021-02-20T13:47:14.000Z</time>
      </trkpt>
      <trkpt lat="45.86897" lon="5.48699">
        <ele>885.4</ele>
        <time>2021-02-20T13:47:15.000Z</time>
      </trkpt>
      <trkpt lat="45.86899" lon="5.48699">
        <ele>885.2</ele>
        <time>2021-02-20T13:47:16.000Z</time>
      </trkpt>
      <trkpt lat="45.86902" lon="5.48699">
        <ele>885.4</ele>
        <time>2021-02-20T13:47:17.000Z</time>
      </trkpt>
      <trkpt lat="45.86904" lon="5.48699">
        <ele>885.4</ele>
        <time>2021-02-20T13:47:18.000Z</time>
      </trkpt>
      <trkpt lat="45.86907" lon="5.48698">
        <ele>885.6</ele>
        <time>2021-02-20T13:47:19.000Z</time>
      </trkpt>
      <trkpt lat="45.86909" lon="5.48698">
        <ele>885.8</ele>
        <time>2021-02-20T13:47:20.000Z</time>
      </trkpt>
      <trkpt lat="45.86912" lon="5.48698">
        <ele>885.8</ele>
        <time>2021-02-20T13:47:21.000Z</time>
      </trkpt>
      <trkpt lat="45.86915" lon="5.48698">
        <ele>885.8</ele>
        <time>2021-02-20T13:47:22.000Z</time>
      </trkpt>
      <trkpt lat="45.86917" lon="5.48698">
        <ele>885.8</ele>
        <time>2021-02-20T13:47:23.000Z</time>
      </trkpt>
      <trkpt lat="45.8692" lon="5.48699">
        <ele>885.8</ele>
        <time>2021-02-20T13:47:24.000Z</time>
      </trkpt>
      <trkpt lat="45.86922" lon="5.48699">
        <ele>885.8</ele>
        <time>2021-02-20T13:47:25.000Z</time>
      </trkpt>
      <trkpt lat="45.86925" lon="5.48699">
        <ele>886</ele>
        <time>2021-02-20T13:47:26.000Z</time>
      </trkpt>
      <trkpt lat="45.86927" lon="5.48699">
        <ele>886</ele>
        <time>2021-02-20T13:47:27.000Z</time>
      </trkpt>
      <trkpt lat="45.86929" lon="5.48699">
        <ele>886.2</ele>
        <time>2021-02-20T13:47:28.000Z</time>
      </trkpt>
      <trkpt lat="45.86931" lon="5.48699">
        <ele>886.2</ele>
        <time>2021-02-20T13:47:29.000Z</time>
      </trkpt>
      <trkpt lat="45.86934" lon="5.48699">
        <ele>886.6</ele>
        <time>2021-02-20T13:47:30.000Z</time>
      </trkpt>
      <trkpt lat="45.86936" lon="5.487">
        <ele>886.8</ele>
        <time>2021-02-20T13:47:31.000Z</time>
      </trkpt>
      <trkpt lat="45.86939" lon="5.487">
        <ele>887</ele>
        <time>2021-02-20T13:47:32.000Z</time>
      </trkpt>
      <trkpt lat="45.86942" lon="5.487">
        <ele>887.2</ele>
        <time>2021-02-20T13:47:33.000Z</time>
      </trkpt>
      <trkpt lat="45.86945" lon="5.48701">
        <ele>887.6</ele>
        <time>2021-02-20T13:47:34.000Z</time>
      </trkpt>
      <trkpt lat="45.86948" lon="5.48701">
        <ele>888</ele>
        <time>2021-02-20T13:47:35.000Z</time>
      </trkpt>
      <trkpt lat="45.86951" lon="5.48702">
        <ele>888.2</ele>
        <time>2021-02-20T13:47:36.000Z</time>
      </trkpt>
      <trkpt lat="45.86953" lon="5.48703">
        <ele>888.6</ele>
        <time>2021-02-20T13:47:37.000Z</time>
      </trkpt>
      <trkpt lat="45.86955" lon="5.48704">
        <ele>888.6</ele>
        <time>2021-02-20T13:47:38.000Z</time>
      </trkpt>
      <trkpt lat="45.86958" lon="5.48705">
        <ele>888.6</ele>
        <time>2021-02-20T13:47:39.000Z</time>
      </trkpt>
      <trkpt lat="45.8696" lon="5.48706">
        <ele>888.8</ele>
        <time>2021-02-20T13:47:40.000Z</time>
      </trkpt>
      <trkpt lat="45.86962" lon="5.48707">
        <ele>888.8</ele>
        <time>2021-02-20T13:47:41.000Z</time>
      </trkpt>
      <trkpt lat="45.86964" lon="5.48707">
        <ele>888.8</ele>
        <time>2021-02-20T13:47:42.000Z</time>
      </trkpt>
      <trkpt lat="45.86967" lon="5.48708">
        <ele>889.2</ele>
        <time>2021-02-20T13:47:43.000Z</time>
      </trkpt>
      <trkpt lat="45.86969" lon="5.48709">
        <ele>889</ele>
        <time>2021-02-20T13:47:44.000Z</time>
      </trkpt>
      <trkpt lat="45.86973" lon="5.48709">
        <ele>889.4</ele>
        <time>2021-02-20T13:47:45.000Z</time>
      </trkpt>
      <trkpt lat="45.86976" lon="5.48709">
        <ele>889.6</ele>
        <time>2021-02-20T13:47:46.000Z</time>
      </trkpt>
      <trkpt lat="45.86978" lon="5.4871">
        <ele>889.8</ele>
        <time>2021-02-20T13:47:47.000Z</time>
      </trkpt>
      <trkpt lat="45.86981" lon="5.4871">
        <ele>890</ele>
        <time>2021-02-20T13:47:48.000Z</time>
      </trkpt>
      <trkpt lat="45.86982" lon="5.4871">
        <ele>890.2</ele>
        <time>2021-02-20T13:47:49.000Z</time>
      </trkpt>
      <trkpt lat="45.86984" lon="5.48711">
        <ele>890.4</ele>
        <time>2021-02-20T13:47:50.000Z</time>
      </trkpt>
      <trkpt lat="45.86987" lon="5.48712">
        <ele>890.8</ele>
        <time>2021-02-20T13:47:51.000Z</time>
      </trkpt>
      <trkpt lat="45.86989" lon="5.48713">
        <ele>890.8</ele>
        <time>2021-02-20T13:47:52.000Z</time>
      </trkpt>
      <trkpt lat="45.86991" lon="5.48713">
        <ele>891</ele>
        <time>2021-02-20T13:47:53.000Z</time>
      </trkpt>
      <trkpt lat="45.86993" lon="5.48713">
        <ele>891</ele>
        <time>2021-02-20T13:47:54.000Z</time>
      </trkpt>
      <trkpt lat="45.86996" lon="5.48714">
        <ele>891.4</ele>
        <time>2021-02-20T13:47:55.000Z</time>
      </trkpt>
      <trkpt lat="45.86998" lon="5.48714">
        <ele>891.2</ele>
        <time>2021-02-20T13:47:56.000Z</time>
      </trkpt>
      <trkpt lat="45.87001" lon="5.48714">
        <ele>891.4</ele>
        <time>2021-02-20T13:47:57.000Z</time>
      </trkpt>
      <trkpt lat="45.87005" lon="5.48715">
        <ele>891.4</ele>
        <time>2021-02-20T13:47:58.000Z</time>
      </trkpt>
      <trkpt lat="45.87008" lon="5.48716">
        <ele>891.4</ele>
        <time>2021-02-20T13:47:59.000Z</time>
      </trkpt>
      <trkpt lat="45.87011" lon="5.48717">
        <ele>891.6</ele>
        <time>2021-02-20T13:48:00.000Z</time>
      </trkpt>
      <trkpt lat="45.87013" lon="5.48717">
        <ele>891.8</ele>
        <time>2021-02-20T13:48:01.000Z</time>
      </trkpt>
      <trkpt lat="45.87016" lon="5.48718">
        <ele>891.8</ele>
        <time>2021-02-20T13:48:02.000Z</time>
      </trkpt>
      <trkpt lat="45.87018" lon="5.48719">
        <ele>891.8</ele>
        <time>2021-02-20T13:48:03.000Z</time>
      </trkpt>
      <trkpt lat="45.87021" lon="5.48719">
        <ele>891.8</ele>
        <time>2021-02-20T13:48:04.000Z</time>
      </trkpt>
      <trkpt lat="45.87024" lon="5.48719">
        <ele>892</ele>
        <time>2021-02-20T13:48:05.000Z</time>
      </trkpt>
      <trkpt lat="45.87027" lon="5.4872">
        <ele>892.2</ele>
        <time>2021-02-20T13:48:06.000Z</time>
      </trkpt>
      <trkpt lat="45.87029" lon="5.48721">
        <ele>892.2</ele>
        <time>2021-02-20T13:48:07.000Z</time>
      </trkpt>
      <trkpt lat="45.87031" lon="5.48722">
        <ele>892.4</ele>
        <time>2021-02-20T13:48:08.000Z</time>
      </trkpt>
      <trkpt lat="45.87033" lon="5.48723">
        <ele>892.6</ele>
        <time>2021-02-20T13:48:09.000Z</time>
      </trkpt>
      <trkpt lat="45.87037" lon="5.48724">
        <ele>892.6</ele>
        <time>2021-02-20T13:48:10.000Z</time>
      </trkpt>
      <trkpt lat="45.8704" lon="5.48725">
        <ele>892.6</ele>
        <time>2021-02-20T13:48:11.000Z</time>
      </trkpt>
      <trkpt lat="45.87043" lon="5.48726">
        <ele>892.8</ele>
        <time>2021-02-20T13:48:12.000Z</time>
      </trkpt>
      <trkpt lat="45.87046" lon="5.48729">
        <ele>892.6</ele>
        <time>2021-02-20T13:48:13.000Z</time>
      </trkpt>
      <trkpt lat="45.87049" lon="5.48731">
        <ele>893</ele>
        <time>2021-02-20T13:48:14.000Z</time>
      </trkpt>
      <trkpt lat="45.87052" lon="5.48733">
        <ele>892.8</ele>
        <time>2021-02-20T13:48:15.000Z</time>
      </trkpt>
      <trkpt lat="45.87055" lon="5.48736">
        <ele>893.4</ele>
        <time>2021-02-20T13:48:16.000Z</time>
      </trkpt>
      <trkpt lat="45.87058" lon="5.48738">
        <ele>893.4</ele>
        <time>2021-02-20T13:48:17.000Z</time>
      </trkpt>
      <trkpt lat="45.87061" lon="5.48741">
        <ele>893.6</ele>
        <time>2021-02-20T13:48:18.000Z</time>
      </trkpt>
      <trkpt lat="45.87063" lon="5.48744">
        <ele>893.6</ele>
        <time>2021-02-20T13:48:19.000Z</time>
      </trkpt>
      <trkpt lat="45.87065" lon="5.48748">
        <ele>893.8</ele>
        <time>2021-02-20T13:48:20.000Z</time>
      </trkpt>
      <trkpt lat="45.87067" lon="5.48751">
        <ele>894.2</ele>
        <time>2021-02-20T13:48:21.000Z</time>
      </trkpt>
      <trkpt lat="45.87068" lon="5.48754">
        <ele>894.2</ele>
        <time>2021-02-20T13:48:22.000Z</time>
      </trkpt>
      <trkpt lat="45.87069" lon="5.48758">
        <ele>894.2</ele>
        <time>2021-02-20T13:48:23.000Z</time>
      </trkpt>
      <trkpt lat="45.8707" lon="5.48762">
        <ele>894.4</ele>
        <time>2021-02-20T13:48:24.000Z</time>
      </trkpt>
      <trkpt lat="45.87072" lon="5.48766">
        <ele>894.8</ele>
        <time>2021-02-20T13:48:25.000Z</time>
      </trkpt>
      <trkpt lat="45.87073" lon="5.4877">
        <ele>894.8</ele>
        <time>2021-02-20T13:48:26.000Z</time>
      </trkpt>
      <trkpt lat="45.87073" lon="5.48774">
        <ele>894.8</ele>
        <time>2021-02-20T13:48:27.000Z</time>
      </trkpt>
      <trkpt lat="45.87073" lon="5.48778">
        <ele>895</ele>
        <time>2021-02-20T13:48:28.000Z</time>
      </trkpt>
      <trkpt lat="45.87073" lon="5.48782">
        <ele>895</ele>
        <time>2021-02-20T13:48:29.000Z</time>
      </trkpt>
      <trkpt lat="45.87072" lon="5.48786">
        <ele>895</ele>
        <time>2021-02-20T13:48:30.000Z</time>
      </trkpt>
      <trkpt lat="45.87071" lon="5.4879">
        <ele>895</ele>
        <time>2021-02-20T13:48:31.000Z</time>
      </trkpt>
      <trkpt lat="45.8707" lon="5.48793">
        <ele>895</ele>
        <time>2021-02-20T13:48:32.000Z</time>
      </trkpt>
      <trkpt lat="45.87068" lon="5.48797">
        <ele>895.2</ele>
        <time>2021-02-20T13:48:33.000Z</time>
      </trkpt>
      <trkpt lat="45.87066" lon="5.488">
        <ele>895.2</ele>
        <time>2021-02-20T13:48:34.000Z</time>
      </trkpt>
      <trkpt lat="45.87064" lon="5.48804">
        <ele>895</ele>
        <time>2021-02-20T13:48:35.000Z</time>
      </trkpt>
      <trkpt lat="45.87062" lon="5.48807">
        <ele>895.2</ele>
        <time>2021-02-20T13:48:36.000Z</time>
      </trkpt>
      <trkpt lat="45.8706" lon="5.4881">
        <ele>895.4</ele>
        <time>2021-02-20T13:48:37.000Z</time>
      </trkpt>
      <trkpt lat="45.87059" lon="5.48814">
        <ele>895.4</ele>
        <time>2021-02-20T13:48:38.000Z</time>
      </trkpt>
      <trkpt lat="45.87057" lon="5.48818">
        <ele>895.6</ele>
        <time>2021-02-20T13:48:39.000Z</time>
      </trkpt>
      <trkpt lat="45.87055" lon="5.48822">
        <ele>895.6</ele>
        <time>2021-02-20T13:48:40.000Z</time>
      </trkpt>
      <trkpt lat="45.87052" lon="5.4883">
        <ele>895.8</ele>
        <time>2021-02-20T13:48:42.000Z</time>
      </trkpt>
      <trkpt lat="45.87051" lon="5.48834">
        <ele>895.8</ele>
        <time>2021-02-20T13:48:43.000Z</time>
      </trkpt>
      <trkpt lat="45.8705" lon="5.48837">
        <ele>896</ele>
        <time>2021-02-20T13:48:44.000Z</time>
      </trkpt>
      <trkpt lat="45.87049" lon="5.48841">
        <ele>896.2</ele>
        <time>2021-02-20T13:48:45.000Z</time>
      </trkpt>
      <trkpt lat="45.87049" lon="5.48845">
        <ele>896.2</ele>
        <time>2021-02-20T13:48:46.000Z</time>
      </trkpt>
      <trkpt lat="45.87048" lon="5.48848">
        <ele>896.4</ele>
        <time>2021-02-20T13:48:47.000Z</time>
      </trkpt>
      <trkpt lat="45.87047" lon="5.48851">
        <ele>896.6</ele>
        <time>2021-02-20T13:48:48.000Z</time>
      </trkpt>
      <trkpt lat="45.87046" lon="5.48855">
        <ele>896.8</ele>
        <time>2021-02-20T13:48:49.000Z</time>
      </trkpt>
      <trkpt lat="45.87044" lon="5.48857">
        <ele>897.2</ele>
        <time>2021-02-20T13:48:50.000Z</time>
      </trkpt>
      <trkpt lat="45.87043" lon="5.4886">
        <ele>897.4</ele>
        <time>2021-02-20T13:48:51.000Z</time>
      </trkpt>
      <trkpt lat="45.87042" lon="5.48864">
        <ele>897.6</ele>
        <time>2021-02-20T13:48:52.000Z</time>
      </trkpt>
      <trkpt lat="45.87041" lon="5.48867">
        <ele>897.6</ele>
        <time>2021-02-20T13:48:53.000Z</time>
      </trkpt>
      <trkpt lat="45.8704" lon="5.4887">
        <ele>897.8</ele>
        <time>2021-02-20T13:48:54.000Z</time>
      </trkpt>
      <trkpt lat="45.87039" lon="5.48873">
        <ele>898</ele>
        <time>2021-02-20T13:48:55.000Z</time>
      </trkpt>
      <trkpt lat="45.87038" lon="5.48876">
        <ele>898.2</ele>
        <time>2021-02-20T13:48:56.000Z</time>
      </trkpt>
      <trkpt lat="45.87037" lon="5.4888">
        <ele>898.4</ele>
        <time>2021-02-20T13:48:57.000Z</time>
      </trkpt>
      <trkpt lat="45.87036" lon="5.48883">
        <ele>898.4</ele>
        <time>2021-02-20T13:48:58.000Z</time>
      </trkpt>
      <trkpt lat="45.87035" lon="5.48885">
        <ele>898.6</ele>
        <time>2021-02-20T13:48:59.000Z</time>
      </trkpt>
      <trkpt lat="45.87033" lon="5.48888">
        <ele>898.8</ele>
        <time>2021-02-20T13:49:00.000Z</time>
      </trkpt>
      <trkpt lat="45.87032" lon="5.48891">
        <ele>898.8</ele>
        <time>2021-02-20T13:49:01.000Z</time>
      </trkpt>
      <trkpt lat="45.8703" lon="5.48894">
        <ele>898.8</ele>
        <time>2021-02-20T13:49:02.000Z</time>
      </trkpt>
      <trkpt lat="45.87028" lon="5.48897">
        <ele>898.8</ele>
        <time>2021-02-20T13:49:03.000Z</time>
      </trkpt>
      <trkpt lat="45.87026" lon="5.48899">
        <ele>898.8</ele>
        <time>2021-02-20T13:49:04.000Z</time>
      </trkpt>
      <trkpt lat="45.87024" lon="5.48902">
        <ele>899.4</ele>
        <time>2021-02-20T13:49:05.000Z</time>
      </trkpt>
      <trkpt lat="45.87022" lon="5.48904">
        <ele>899.4</ele>
        <time>2021-02-20T13:49:06.000Z</time>
      </trkpt>
      <trkpt lat="45.87019" lon="5.48906">
        <ele>899.6</ele>
        <time>2021-02-20T13:49:07.000Z</time>
      </trkpt>
      <trkpt lat="45.87017" lon="5.48908">
        <ele>899.8</ele>
        <time>2021-02-20T13:49:08.000Z</time>
      </trkpt>
      <trkpt lat="45.87015" lon="5.4891">
        <ele>899.6</ele>
        <time>2021-02-20T13:49:09.000Z</time>
      </trkpt>
      <trkpt lat="45.87012" lon="5.48912">
        <ele>899.8</ele>
        <time>2021-02-20T13:49:10.000Z</time>
      </trkpt>
      <trkpt lat="45.87009" lon="5.48913">
        <ele>900</ele>
        <time>2021-02-20T13:49:11.000Z</time>
      </trkpt>
      <trkpt lat="45.87006" lon="5.48915">
        <ele>899.8</ele>
        <time>2021-02-20T13:49:12.000Z</time>
      </trkpt>
      <trkpt lat="45.87003" lon="5.48917">
        <ele>900</ele>
        <time>2021-02-20T13:49:13.000Z</time>
      </trkpt>
      <trkpt lat="45.87001" lon="5.48918">
        <ele>900.2</ele>
        <time>2021-02-20T13:49:14.000Z</time>
      </trkpt>
      <trkpt lat="45.86998" lon="5.4892">
        <ele>900.2</ele>
        <time>2021-02-20T13:49:15.000Z</time>
      </trkpt>
      <trkpt lat="45.86996" lon="5.48922">
        <ele>900.4</ele>
        <time>2021-02-20T13:49:16.000Z</time>
      </trkpt>
      <trkpt lat="45.86993" lon="5.48923">
        <ele>900.6</ele>
        <time>2021-02-20T13:49:17.000Z</time>
      </trkpt>
      <trkpt lat="45.86991" lon="5.48924">
        <ele>900.6</ele>
        <time>2021-02-20T13:49:18.000Z</time>
      </trkpt>
      <trkpt lat="45.86988" lon="5.48926">
        <ele>900.6</ele>
        <time>2021-02-20T13:49:19.000Z</time>
      </trkpt>
      <trkpt lat="45.8696" lon="5.48945">
        <ele>901.2</ele>
        <time>2021-02-20T13:49:29.000Z</time>
      </trkpt>
      <trkpt lat="45.86958" lon="5.48948">
        <ele>901.2</ele>
        <time>2021-02-20T13:49:30.000Z</time>
      </trkpt>
      <trkpt lat="45.86949" lon="5.48966">
        <ele>901.4</ele>
        <time>2021-02-20T13:49:35.000Z</time>
      </trkpt>
      <trkpt lat="45.8695" lon="5.4897">
        <ele>901.6</ele>
        <time>2021-02-20T13:49:36.000Z</time>
      </trkpt>
      <trkpt lat="45.86951" lon="5.48973">
        <ele>901.6</ele>
        <time>2021-02-20T13:49:37.000Z</time>
      </trkpt>
      <trkpt lat="45.86952" lon="5.48976">
        <ele>901.8</ele>
        <time>2021-02-20T13:49:38.000Z</time>
      </trkpt>
      <trkpt lat="45.86955" lon="5.48979">
        <ele>901.8</ele>
        <time>2021-02-20T13:49:39.000Z</time>
      </trkpt>
      <trkpt lat="45.86957" lon="5.48982">
        <ele>901.8</ele>
        <time>2021-02-20T13:49:40.000Z</time>
      </trkpt>
      <trkpt lat="45.86959" lon="5.48984">
        <ele>902</ele>
        <time>2021-02-20T13:49:41.000Z</time>
      </trkpt>
      <trkpt lat="45.86964" lon="5.48989">
        <ele>902.2</ele>
        <time>2021-02-20T13:49:43.000Z</time>
      </trkpt>
      <trkpt lat="45.86966" lon="5.48991">
        <ele>902.4</ele>
        <time>2021-02-20T13:49:44.000Z</time>
      </trkpt>
      <trkpt lat="45.8697" lon="5.48992">
        <ele>902.2</ele>
        <time>2021-02-20T13:49:45.000Z</time>
      </trkpt>
      <trkpt lat="45.86972" lon="5.48994">
        <ele>902.4</ele>
        <time>2021-02-20T13:49:46.000Z</time>
      </trkpt>
      <trkpt lat="45.86975" lon="5.48996">
        <ele>902.6</ele>
        <time>2021-02-20T13:49:47.000Z</time>
      </trkpt>
      <trkpt lat="45.86977" lon="5.48998">
        <ele>903</ele>
        <time>2021-02-20T13:49:48.000Z</time>
      </trkpt>
      <trkpt lat="45.8698" lon="5.49001">
        <ele>903.4</ele>
        <time>2021-02-20T13:49:49.000Z</time>
      </trkpt>
      <trkpt lat="45.86982" lon="5.49005">
        <ele>903.8</ele>
        <time>2021-02-20T13:49:50.000Z</time>
      </trkpt>
      <trkpt lat="45.86983" lon="5.4901">
        <ele>904</ele>
        <time>2021-02-20T13:49:51.000Z</time>
      </trkpt>
      <trkpt lat="45.86984" lon="5.49014">
        <ele>904.2</ele>
        <time>2021-02-20T13:49:52.000Z</time>
      </trkpt>
      <trkpt lat="45.86985" lon="5.49018">
        <ele>904</ele>
        <time>2021-02-20T13:49:53.000Z</time>
      </trkpt>
      <trkpt lat="45.86986" lon="5.49022">
        <ele>904.4</ele>
        <time>2021-02-20T13:49:54.000Z</time>
      </trkpt>
      <trkpt lat="45.86986" lon="5.49026">
        <ele>904.4</ele>
        <time>2021-02-20T13:49:55.000Z</time>
      </trkpt>
      <trkpt lat="45.86985" lon="5.4903">
        <ele>904.4</ele>
        <time>2021-02-20T13:49:56.000Z</time>
      </trkpt>
      <trkpt lat="45.86983" lon="5.49034">
        <ele>904.6</ele>
        <time>2021-02-20T13:49:57.000Z</time>
      </trkpt>
      <trkpt lat="45.86982" lon="5.49038">
        <ele>904.6</ele>
        <time>2021-02-20T13:49:58.000Z</time>
      </trkpt>
      <trkpt lat="45.8698" lon="5.49042">
        <ele>904.8</ele>
        <time>2021-02-20T13:49:59.000Z</time>
      </trkpt>
      <trkpt lat="45.86978" lon="5.49045">
        <ele>905</ele>
        <time>2021-02-20T13:50:00.000Z</time>
      </trkpt>
      <trkpt lat="45.86976" lon="5.49048">
        <ele>905.2</ele>
        <time>2021-02-20T13:50:01.000Z</time>
      </trkpt>
      <trkpt lat="45.86974" lon="5.49051">
        <ele>905.2</ele>
        <time>2021-02-20T13:50:02.000Z</time>
      </trkpt>
      <trkpt lat="45.86972" lon="5.49054">
        <ele>905.2</ele>
        <time>2021-02-20T13:50:03.000Z</time>
      </trkpt>
      <trkpt lat="45.8697" lon="5.49056">
        <ele>905.4</ele>
        <time>2021-02-20T13:50:04.000Z</time>
      </trkpt>
      <trkpt lat="45.86968" lon="5.49059">
        <ele>905.4</ele>
        <time>2021-02-20T13:50:05.000Z</time>
      </trkpt>
      <trkpt lat="45.86966" lon="5.49061">
        <ele>905.4</ele>
        <time>2021-02-20T13:50:06.000Z</time>
      </trkpt>
      <trkpt lat="45.86965" lon="5.49063">
        <ele>905.6</ele>
        <time>2021-02-20T13:50:07.000Z</time>
      </trkpt>
      <trkpt lat="45.86963" lon="5.49064">
        <ele>905.6</ele>
        <time>2021-02-20T13:50:08.000Z</time>
      </trkpt>
      <trkpt lat="45.86961" lon="5.49066">
        <ele>905.6</ele>
        <time>2021-02-20T13:50:09.000Z</time>
      </trkpt>
      <trkpt lat="45.86959" lon="5.49067">
        <ele>905.6</ele>
        <time>2021-02-20T13:50:10.000Z</time>
      </trkpt>
      <trkpt lat="45.86957" lon="5.49068">
        <ele>905.8</ele>
        <time>2021-02-20T13:50:11.000Z</time>
      </trkpt>
      <trkpt lat="45.86955" lon="5.4907">
        <ele>905.8</ele>
        <time>2021-02-20T13:50:12.000Z</time>
      </trkpt>
      <trkpt lat="45.86953" lon="5.49071">
        <ele>906</ele>
        <time>2021-02-20T13:50:13.000Z</time>
      </trkpt>
      <trkpt lat="45.86951" lon="5.49072">
        <ele>906.2</ele>
        <time>2021-02-20T13:50:14.000Z</time>
      </trkpt>
      <trkpt lat="45.86948" lon="5.49073">
        <ele>906.4</ele>
        <time>2021-02-20T13:50:15.000Z</time>
      </trkpt>
      <trkpt lat="45.86945" lon="5.49076">
        <ele>906.6</ele>
        <time>2021-02-20T13:50:16.000Z</time>
      </trkpt>
      <trkpt lat="45.86941" lon="5.49078">
        <ele>906.6</ele>
        <time>2021-02-20T13:50:17.000Z</time>
      </trkpt>
      <trkpt lat="45.86938" lon="5.4908">
        <ele>906.6</ele>
        <time>2021-02-20T13:50:18.000Z</time>
      </trkpt>
      <trkpt lat="45.86935" lon="5.49082">
        <ele>906.8</ele>
        <time>2021-02-20T13:50:19.000Z</time>
      </trkpt>
      <trkpt lat="45.86933" lon="5.49084">
        <ele>907</ele>
        <time>2021-02-20T13:50:20.000Z</time>
      </trkpt>
      <trkpt lat="45.8693" lon="5.49086">
        <ele>907.2</ele>
        <time>2021-02-20T13:50:21.000Z</time>
      </trkpt>
      <trkpt lat="45.86928" lon="5.49087">
        <ele>907.4</ele>
        <time>2021-02-20T13:50:22.000Z</time>
      </trkpt>
      <trkpt lat="45.86924" lon="5.49091">
        <ele>907.4</ele>
        <time>2021-02-20T13:50:24.000Z</time>
      </trkpt>
      <trkpt lat="45.86911" lon="5.491">
        <ele>907.6</ele>
        <time>2021-02-20T13:50:29.000Z</time>
      </trkpt>
      <trkpt lat="45.86908" lon="5.49101">
        <ele>907.6</ele>
        <time>2021-02-20T13:50:30.000Z</time>
      </trkpt>
      <trkpt lat="45.86905" lon="5.49103">
        <ele>907.8</ele>
        <time>2021-02-20T13:50:31.000Z</time>
      </trkpt>
      <trkpt lat="45.86903" lon="5.49104">
        <ele>907.8</ele>
        <time>2021-02-20T13:50:32.000Z</time>
      </trkpt>
      <trkpt lat="45.869" lon="5.49106">
        <ele>908</ele>
        <time>2021-02-20T13:50:33.000Z</time>
      </trkpt>
      <trkpt lat="45.86898" lon="5.49108">
        <ele>907.8</ele>
        <time>2021-02-20T13:50:34.000Z</time>
      </trkpt>
      <trkpt lat="45.86894" lon="5.49109">
        <ele>908</ele>
        <time>2021-02-20T13:50:35.000Z</time>
      </trkpt>
      <trkpt lat="45.86891" lon="5.4911">
        <ele>908.4</ele>
        <time>2021-02-20T13:50:36.000Z</time>
      </trkpt>
      <trkpt lat="45.86888" lon="5.49111">
        <ele>908.6</ele>
        <time>2021-02-20T13:50:37.000Z</time>
      </trkpt>
      <trkpt lat="45.86885" lon="5.49112">
        <ele>908.8</ele>
        <time>2021-02-20T13:50:38.000Z</time>
      </trkpt>
      <trkpt lat="45.86883" lon="5.49113">
        <ele>909.2</ele>
        <time>2021-02-20T13:50:39.000Z</time>
      </trkpt>
      <trkpt lat="45.8688" lon="5.49114">
        <ele>909.4</ele>
        <time>2021-02-20T13:50:40.000Z</time>
      </trkpt>
      <trkpt lat="45.86878" lon="5.49115">
        <ele>909.6</ele>
        <time>2021-02-20T13:50:41.000Z</time>
      </trkpt>
      <trkpt lat="45.86875" lon="5.49116">
        <ele>909.6</ele>
        <time>2021-02-20T13:50:42.000Z</time>
      </trkpt>
      <trkpt lat="45.86872" lon="5.49117">
        <ele>909.6</ele>
        <time>2021-02-20T13:50:43.000Z</time>
      </trkpt>
      <trkpt lat="45.8687" lon="5.49118">
        <ele>909.6</ele>
        <time>2021-02-20T13:50:44.000Z</time>
      </trkpt>
      <trkpt lat="45.86867" lon="5.49119">
        <ele>909.8</ele>
        <time>2021-02-20T13:50:45.000Z</time>
      </trkpt>
      <trkpt lat="45.86853" lon="5.49123">
        <ele>910</ele>
        <time>2021-02-20T13:50:50.000Z</time>
      </trkpt>
      <trkpt lat="45.86847" lon="5.49124">
        <ele>909.8</ele>
        <time>2021-02-20T13:50:52.000Z</time>
      </trkpt>
      <trkpt lat="45.86827" lon="5.49123">
        <ele>910</ele>
        <time>2021-02-20T13:50:57.000Z</time>
      </trkpt>
      <trkpt lat="45.86819" lon="5.49122">
        <ele>910.2</ele>
        <time>2021-02-20T13:50:59.000Z</time>
      </trkpt>
      <trkpt lat="45.86814" lon="5.49122">
        <ele>910.2</ele>
        <time>2021-02-20T13:51:00.000Z</time>
      </trkpt>
      <trkpt lat="45.8681" lon="5.49122">
        <ele>910.4</ele>
        <time>2021-02-20T13:51:01.000Z</time>
      </trkpt>
      <trkpt lat="45.86807" lon="5.49123">
        <ele>910.4</ele>
        <time>2021-02-20T13:51:02.000Z</time>
      </trkpt>
      <trkpt lat="45.86801" lon="5.49125">
        <ele>910.8</ele>
        <time>2021-02-20T13:51:04.000Z</time>
      </trkpt>
      <trkpt lat="45.86798" lon="5.49125">
        <ele>911</ele>
        <time>2021-02-20T13:51:05.000Z</time>
      </trkpt>
      <trkpt lat="45.86792" lon="5.49126">
        <ele>911</ele>
        <time>2021-02-20T13:51:07.000Z</time>
      </trkpt>
      <trkpt lat="45.86789" lon="5.49128">
        <ele>911</ele>
        <time>2021-02-20T13:51:08.000Z</time>
      </trkpt>
      <trkpt lat="45.86785" lon="5.4913">
        <ele>911.4</ele>
        <time>2021-02-20T13:51:09.000Z</time>
      </trkpt>
      <trkpt lat="45.86781" lon="5.49132">
        <ele>911.8</ele>
        <time>2021-02-20T13:51:10.000Z</time>
      </trkpt>
      <trkpt lat="45.86778" lon="5.49134">
        <ele>911.8</ele>
        <time>2021-02-20T13:51:11.000Z</time>
      </trkpt>
      <trkpt lat="45.86775" lon="5.49137">
        <ele>912</ele>
        <time>2021-02-20T13:51:12.000Z</time>
      </trkpt>
      <trkpt lat="45.86772" lon="5.4914">
        <ele>912.2</ele>
        <time>2021-02-20T13:51:13.000Z</time>
      </trkpt>
      <trkpt lat="45.86769" lon="5.49143">
        <ele>912.6</ele>
        <time>2021-02-20T13:51:14.000Z</time>
      </trkpt>
      <trkpt lat="45.86767" lon="5.49146">
        <ele>912.6</ele>
        <time>2021-02-20T13:51:15.000Z</time>
      </trkpt>
      <trkpt lat="45.86764" lon="5.49149">
        <ele>912.6</ele>
        <time>2021-02-20T13:51:16.000Z</time>
      </trkpt>
      <trkpt lat="45.86761" lon="5.49152">
        <ele>912.8</ele>
        <time>2021-02-20T13:51:17.000Z</time>
      </trkpt>
      <trkpt lat="45.86759" lon="5.49155">
        <ele>912.8</ele>
        <time>2021-02-20T13:51:18.000Z</time>
      </trkpt>
      <trkpt lat="45.86756" lon="5.49158">
        <ele>913</ele>
        <time>2021-02-20T13:51:19.000Z</time>
      </trkpt>
      <trkpt lat="45.86753" lon="5.49161">
        <ele>913</ele>
        <time>2021-02-20T13:51:20.000Z</time>
      </trkpt>
      <trkpt lat="45.86751" lon="5.49164">
        <ele>913</ele>
        <time>2021-02-20T13:51:21.000Z</time>
      </trkpt>
      <trkpt lat="45.86748" lon="5.49167">
        <ele>913</ele>
        <time>2021-02-20T13:51:22.000Z</time>
      </trkpt>
      <trkpt lat="45.86745" lon="5.4917">
        <ele>913.2</ele>
        <time>2021-02-20T13:51:23.000Z</time>
      </trkpt>
      <trkpt lat="45.86742" lon="5.49175">
        <ele>913.4</ele>
        <time>2021-02-20T13:51:24.000Z</time>
      </trkpt>
      <trkpt lat="45.8674" lon="5.49178">
        <ele>913.4</ele>
        <time>2021-02-20T13:51:25.000Z</time>
      </trkpt>
      <trkpt lat="45.86737" lon="5.49182">
        <ele>913.4</ele>
        <time>2021-02-20T13:51:26.000Z</time>
      </trkpt>
      <trkpt lat="45.86734" lon="5.49186">
        <ele>913.6</ele>
        <time>2021-02-20T13:51:27.000Z</time>
      </trkpt>
      <trkpt lat="45.86731" lon="5.49189">
        <ele>913.6</ele>
        <time>2021-02-20T13:51:28.000Z</time>
      </trkpt>
      <trkpt lat="45.86729" lon="5.49192">
        <ele>913.6</ele>
        <time>2021-02-20T13:51:29.000Z</time>
      </trkpt>
      <trkpt lat="45.86726" lon="5.49195">
        <ele>913.8</ele>
        <time>2021-02-20T13:51:30.000Z</time>
      </trkpt>
      <trkpt lat="45.86723" lon="5.49197">
        <ele>913.8</ele>
        <time>2021-02-20T13:51:31.000Z</time>
      </trkpt>
      <trkpt lat="45.86721" lon="5.492">
        <ele>913.8</ele>
        <time>2021-02-20T13:51:32.000Z</time>
      </trkpt>
      <trkpt lat="45.86718" lon="5.49202">
        <ele>913.8</ele>
        <time>2021-02-20T13:51:33.000Z</time>
      </trkpt>
      <trkpt lat="45.86707" lon="5.49209">
        <ele>914</ele>
        <time>2021-02-20T13:51:37.000Z</time>
      </trkpt>
      <trkpt lat="45.86704" lon="5.4921">
        <ele>914</ele>
        <time>2021-02-20T13:51:38.000Z</time>
      </trkpt>
      <trkpt lat="45.86701" lon="5.49212">
        <ele>914</ele>
        <time>2021-02-20T13:51:39.000Z</time>
      </trkpt>
      <trkpt lat="45.86699" lon="5.49213">
        <ele>914</ele>
        <time>2021-02-20T13:51:40.000Z</time>
      </trkpt>
      <trkpt lat="45.86696" lon="5.49214">
        <ele>914.2</ele>
        <time>2021-02-20T13:51:41.000Z</time>
      </trkpt>
      <trkpt lat="45.8669" lon="5.49214">
        <ele>914</ele>
        <time>2021-02-20T13:51:43.000Z</time>
      </trkpt>
      <trkpt lat="45.86687" lon="5.49215">
        <ele>914.2</ele>
        <time>2021-02-20T13:51:44.000Z</time>
      </trkpt>
      <trkpt lat="45.86685" lon="5.49215">
        <ele>914.4</ele>
        <time>2021-02-20T13:51:45.000Z</time>
      </trkpt>
      <trkpt lat="45.86673" lon="5.49217">
        <ele>915</ele>
        <time>2021-02-20T13:51:49.000Z</time>
      </trkpt>
      <trkpt lat="45.86669" lon="5.49217">
        <ele>915</ele>
        <time>2021-02-20T13:51:50.000Z</time>
      </trkpt>
      <trkpt lat="45.86666" lon="5.49218">
        <ele>915</ele>
        <time>2021-02-20T13:51:51.000Z</time>
      </trkpt>
      <trkpt lat="45.86659" lon="5.49218">
        <ele>915.2</ele>
        <time>2021-02-20T13:51:53.000Z</time>
      </trkpt>
      <trkpt lat="45.86653" lon="5.49217">
        <ele>915.4</ele>
        <time>2021-02-20T13:51:55.000Z</time>
      </trkpt>
      <trkpt lat="45.86649" lon="5.49216">
        <ele>915.4</ele>
        <time>2021-02-20T13:51:56.000Z</time>
      </trkpt>
      <trkpt lat="45.86627" lon="5.49205">
        <ele>916.2</ele>
        <time>2021-02-20T13:52:03.000Z</time>
      </trkpt>
      <trkpt lat="45.8662" lon="5.49202">
        <ele>916.4</ele>
        <time>2021-02-20T13:52:05.000Z</time>
      </trkpt>
      <trkpt lat="45.86617" lon="5.492">
        <ele>916.6</ele>
        <time>2021-02-20T13:52:06.000Z</time>
      </trkpt>
      <trkpt lat="45.86604" lon="5.49189">
        <ele>917</ele>
        <time>2021-02-20T13:52:10.000Z</time>
      </trkpt>
      <trkpt lat="45.86598" lon="5.49182">
        <ele>917.2</ele>
        <time>2021-02-20T13:52:12.000Z</time>
      </trkpt>
      <trkpt lat="45.86587" lon="5.49172">
        <ele>917.2</ele>
        <time>2021-02-20T13:52:16.000Z</time>
      </trkpt>
      <trkpt lat="45.86579" lon="5.49166">
        <ele>917.4</ele>
        <time>2021-02-20T13:52:18.000Z</time>
      </trkpt>
      <trkpt lat="45.86576" lon="5.49163">
        <ele>917.4</ele>
        <time>2021-02-20T13:52:19.000Z</time>
      </trkpt>
      <trkpt lat="45.86565" lon="5.49157">
        <ele>917.6</ele>
        <time>2021-02-20T13:52:22.000Z</time>
      </trkpt>
      <trkpt lat="45.86561" lon="5.49156">
        <ele>917.6</ele>
        <time>2021-02-20T13:52:23.000Z</time>
      </trkpt>
      <trkpt lat="45.86556" lon="5.49154">
        <ele>917.6</ele>
        <time>2021-02-20T13:52:24.000Z</time>
      </trkpt>
      <trkpt lat="45.8654" lon="5.49148">
        <ele>917.8</ele>
        <time>2021-02-20T13:52:28.000Z</time>
      </trkpt>
      <trkpt lat="45.86529" lon="5.49143">
        <ele>918.4</ele>
        <time>2021-02-20T13:52:31.000Z</time>
      </trkpt>
      <trkpt lat="45.86526" lon="5.49141">
        <ele>918.4</ele>
        <time>2021-02-20T13:52:32.000Z</time>
      </trkpt>
      <trkpt lat="45.86522" lon="5.4914">
        <ele>918.8</ele>
        <time>2021-02-20T13:52:33.000Z</time>
      </trkpt>
      <trkpt lat="45.86518" lon="5.49137">
        <ele>918.8</ele>
        <time>2021-02-20T13:52:34.000Z</time>
      </trkpt>
      <trkpt lat="45.86515" lon="5.49136">
        <ele>918.8</ele>
        <time>2021-02-20T13:52:35.000Z</time>
      </trkpt>
      <trkpt lat="45.8651" lon="5.49133">
        <ele>919.2</ele>
        <time>2021-02-20T13:52:37.000Z</time>
      </trkpt>
      <trkpt lat="45.86508" lon="5.49131">
        <ele>919</ele>
        <time>2021-02-20T13:52:38.000Z</time>
      </trkpt>
      <trkpt lat="45.86506" lon="5.49129">
        <ele>919.2</ele>
        <time>2021-02-20T13:52:39.000Z</time>
      </trkpt>
      <trkpt lat="45.86504" lon="5.49128">
        <ele>919.4</ele>
        <time>2021-02-20T13:52:40.000Z</time>
      </trkpt>
      <trkpt lat="45.86502" lon="5.49126">
        <ele>919.6</ele>
        <time>2021-02-20T13:52:41.000Z</time>
      </trkpt>
      <trkpt lat="45.865" lon="5.49124">
        <ele>919.8</ele>
        <time>2021-02-20T13:52:42.000Z</time>
      </trkpt>
      <trkpt lat="45.86499" lon="5.49122">
        <ele>919.6</ele>
        <time>2021-02-20T13:52:43.000Z</time>
      </trkpt>
      <trkpt lat="45.86497" lon="5.4912">
        <ele>919.8</ele>
        <time>2021-02-20T13:52:44.000Z</time>
      </trkpt>
      <trkpt lat="45.86495" lon="5.49118">
        <ele>919.8</ele>
        <time>2021-02-20T13:52:45.000Z</time>
      </trkpt>
      <trkpt lat="45.86492" lon="5.49116">
        <ele>920</ele>
        <time>2021-02-20T13:52:46.000Z</time>
      </trkpt>
      <trkpt lat="45.86491" lon="5.49115">
        <ele>920</ele>
        <time>2021-02-20T13:52:47.000Z</time>
      </trkpt>
      <trkpt lat="45.86488" lon="5.4911">
        <ele>920</ele>
        <time>2021-02-20T13:52:49.000Z</time>
      </trkpt>
      <trkpt lat="45.86487" lon="5.49108">
        <ele>920</ele>
        <time>2021-02-20T13:52:50.000Z</time>
      </trkpt>
      <trkpt lat="45.86485" lon="5.49105">
        <ele>920.2</ele>
        <time>2021-02-20T13:52:51.000Z</time>
      </trkpt>
      <trkpt lat="45.86483" lon="5.49101">
        <ele>920.2</ele>
        <time>2021-02-20T13:52:52.000Z</time>
      </trkpt>
      <trkpt lat="45.86481" lon="5.49097">
        <ele>920.4</ele>
        <time>2021-02-20T13:52:53.000Z</time>
      </trkpt>
      <trkpt lat="45.8648" lon="5.49093">
        <ele>920.8</ele>
        <time>2021-02-20T13:52:54.000Z</time>
      </trkpt>
      <trkpt lat="45.86478" lon="5.49089">
        <ele>921</ele>
        <time>2021-02-20T13:52:55.000Z</time>
      </trkpt>
      <trkpt lat="45.86477" lon="5.49086">
        <ele>921.2</ele>
        <time>2021-02-20T13:52:56.000Z</time>
      </trkpt>
      <trkpt lat="45.86475" lon="5.49081">
        <ele>921.4</ele>
        <time>2021-02-20T13:52:57.000Z</time>
      </trkpt>
      <trkpt lat="45.86474" lon="5.49078">
        <ele>921.4</ele>
        <time>2021-02-20T13:52:58.000Z</time>
      </trkpt>
      <trkpt lat="45.86472" lon="5.49075">
        <ele>921.6</ele>
        <time>2021-02-20T13:52:59.000Z</time>
      </trkpt>
      <trkpt lat="45.8647" lon="5.49073">
        <ele>921.6</ele>
        <time>2021-02-20T13:53:00.000Z</time>
      </trkpt>
      <trkpt lat="45.86468" lon="5.4907">
        <ele>921.8</ele>
        <time>2021-02-20T13:53:01.000Z</time>
      </trkpt>
      <trkpt lat="45.86465" lon="5.49068">
        <ele>922</ele>
        <time>2021-02-20T13:53:02.000Z</time>
      </trkpt>
      <trkpt lat="45.86463" lon="5.49065">
        <ele>922.2</ele>
        <time>2021-02-20T13:53:03.000Z</time>
      </trkpt>
      <trkpt lat="45.86461" lon="5.49063">
        <ele>922.2</ele>
        <time>2021-02-20T13:53:04.000Z</time>
      </trkpt>
      <trkpt lat="45.8646" lon="5.4906">
        <ele>922.2</ele>
        <time>2021-02-20T13:53:05.000Z</time>
      </trkpt>
      <trkpt lat="45.86459" lon="5.49057">
        <ele>922.2</ele>
        <time>2021-02-20T13:53:06.000Z</time>
      </trkpt>
      <trkpt lat="45.86457" lon="5.49053">
        <ele>922.4</ele>
        <time>2021-02-20T13:53:07.000Z</time>
      </trkpt>
      <trkpt lat="45.86456" lon="5.4905">
        <ele>922.6</ele>
        <time>2021-02-20T13:53:08.000Z</time>
      </trkpt>
      <trkpt lat="45.86454" lon="5.49047">
        <ele>922.8</ele>
        <time>2021-02-20T13:53:09.000Z</time>
      </trkpt>
      <trkpt lat="45.86452" lon="5.49043">
        <ele>922.6</ele>
        <time>2021-02-20T13:53:10.000Z</time>
      </trkpt>
      <trkpt lat="45.86451" lon="5.4904">
        <ele>922.8</ele>
        <time>2021-02-20T13:53:11.000Z</time>
      </trkpt>
      <trkpt lat="45.86449" lon="5.49036">
        <ele>922.8</ele>
        <time>2021-02-20T13:53:12.000Z</time>
      </trkpt>
      <trkpt lat="45.86449" lon="5.49031">
        <ele>923.2</ele>
        <time>2021-02-20T13:53:13.000Z</time>
      </trkpt>
      <trkpt lat="45.86448" lon="5.49028">
        <ele>923.6</ele>
        <time>2021-02-20T13:53:14.000Z</time>
      </trkpt>
      <trkpt lat="45.86447" lon="5.49024">
        <ele>924</ele>
        <time>2021-02-20T13:53:15.000Z</time>
      </trkpt>
      <trkpt lat="45.86446" lon="5.4902">
        <ele>924.2</ele>
        <time>2021-02-20T13:53:16.000Z</time>
      </trkpt>
      <trkpt lat="45.86446" lon="5.49016">
        <ele>924.2</ele>
        <time>2021-02-20T13:53:17.000Z</time>
      </trkpt>
      <trkpt lat="45.86446" lon="5.49011">
        <ele>924.4</ele>
        <time>2021-02-20T13:53:18.000Z</time>
      </trkpt>
      <trkpt lat="45.86447" lon="5.49007">
        <ele>924.6</ele>
        <time>2021-02-20T13:53:19.000Z</time>
      </trkpt>
      <trkpt lat="45.86448" lon="5.49002">
        <ele>924.8</ele>
        <time>2021-02-20T13:53:20.000Z</time>
      </trkpt>
      <trkpt lat="45.86448" lon="5.48998">
        <ele>925</ele>
        <time>2021-02-20T13:53:21.000Z</time>
      </trkpt>
      <trkpt lat="45.86447" lon="5.48994">
        <ele>925</ele>
        <time>2021-02-20T13:53:22.000Z</time>
      </trkpt>
      <trkpt lat="45.86447" lon="5.4899">
        <ele>925.2</ele>
        <time>2021-02-20T13:53:23.000Z</time>
      </trkpt>
      <trkpt lat="45.86446" lon="5.48985">
        <ele>925.4</ele>
        <time>2021-02-20T13:53:24.000Z</time>
      </trkpt>
      <trkpt lat="45.86446" lon="5.48981">
        <ele>925.4</ele>
        <time>2021-02-20T13:53:25.000Z</time>
      </trkpt>
      <trkpt lat="45.86446" lon="5.48977">
        <ele>925.6</ele>
        <time>2021-02-20T13:53:26.000Z</time>
      </trkpt>
      <trkpt lat="45.86445" lon="5.48973">
        <ele>925.6</ele>
        <time>2021-02-20T13:53:27.000Z</time>
      </trkpt>
      <trkpt lat="45.86444" lon="5.48968">
        <ele>925.6</ele>
        <time>2021-02-20T13:53:28.000Z</time>
      </trkpt>
      <trkpt lat="45.86442" lon="5.48963">
        <ele>925.8</ele>
        <time>2021-02-20T13:53:29.000Z</time>
      </trkpt>
      <trkpt lat="45.8644" lon="5.48959">
        <ele>926</ele>
        <time>2021-02-20T13:53:30.000Z</time>
      </trkpt>
      <trkpt lat="45.86438" lon="5.48956">
        <ele>926</ele>
        <time>2021-02-20T13:53:31.000Z</time>
      </trkpt>
      <trkpt lat="45.86436" lon="5.48952">
        <ele>926</ele>
        <time>2021-02-20T13:53:32.000Z</time>
      </trkpt>
      <trkpt lat="45.86434" lon="5.48949">
        <ele>926</ele>
        <time>2021-02-20T13:53:33.000Z</time>
      </trkpt>
      <trkpt lat="45.86433" lon="5.48946">
        <ele>926.2</ele>
        <time>2021-02-20T13:53:34.000Z</time>
      </trkpt>
      <trkpt lat="45.86431" lon="5.48943">
        <ele>926.2</ele>
        <time>2021-02-20T13:53:35.000Z</time>
      </trkpt>
      <trkpt lat="45.8643" lon="5.4894">
        <ele>926.4</ele>
        <time>2021-02-20T13:53:36.000Z</time>
      </trkpt>
      <trkpt lat="45.86428" lon="5.48938">
        <ele>926.4</ele>
        <time>2021-02-20T13:53:37.000Z</time>
      </trkpt>
      <trkpt lat="45.86426" lon="5.48935">
        <ele>926.8</ele>
        <time>2021-02-20T13:53:38.000Z</time>
      </trkpt>
      <trkpt lat="45.86424" lon="5.48931">
        <ele>927.2</ele>
        <time>2021-02-20T13:53:39.000Z</time>
      </trkpt>
      <trkpt lat="45.86423" lon="5.48928">
        <ele>927.2</ele>
        <time>2021-02-20T13:53:40.000Z</time>
      </trkpt>
      <trkpt lat="45.86422" lon="5.48926">
        <ele>927.6</ele>
        <time>2021-02-20T13:53:41.000Z</time>
      </trkpt>
      <trkpt lat="45.86419" lon="5.48924">
        <ele>927.8</ele>
        <time>2021-02-20T13:53:42.000Z</time>
      </trkpt>
      <trkpt lat="45.86412" lon="5.48921">
        <ele>928</ele>
        <time>2021-02-20T13:53:43.000Z</time>
      </trkpt>
      <trkpt lat="45.86407" lon="5.4892">
        <ele>928</ele>
        <time>2021-02-20T13:53:44.000Z</time>
      </trkpt>
      <trkpt lat="45.86404" lon="5.48919">
        <ele>928.2</ele>
        <time>2021-02-20T13:53:45.000Z</time>
      </trkpt>
      <trkpt lat="45.86401" lon="5.48918">
        <ele>928.4</ele>
        <time>2021-02-20T13:53:46.000Z</time>
      </trkpt>
      <trkpt lat="45.86399" lon="5.48918">
        <ele>928.6</ele>
        <time>2021-02-20T13:53:47.000Z</time>
      </trkpt>
      <trkpt lat="45.86396" lon="5.48918">
        <ele>928.8</ele>
        <time>2021-02-20T13:53:48.000Z</time>
      </trkpt>
      <trkpt lat="45.86394" lon="5.48919">
        <ele>929</ele>
        <time>2021-02-20T13:53:49.000Z</time>
      </trkpt>
      <trkpt lat="45.86392" lon="5.48919">
        <ele>929</ele>
        <time>2021-02-20T13:53:50.000Z</time>
      </trkpt>
      <trkpt lat="45.8639" lon="5.48918">
        <ele>929</ele>
        <time>2021-02-20T13:53:51.000Z</time>
      </trkpt>
      <trkpt lat="45.86389" lon="5.48918">
        <ele>929</ele>
        <time>2021-02-20T13:53:52.000Z</time>
      </trkpt>
      <trkpt lat="45.86387" lon="5.48918">
        <ele>929</ele>
        <time>2021-02-20T13:53:53.000Z</time>
      </trkpt>
      <trkpt lat="45.86386" lon="5.48918">
        <ele>929.2</ele>
        <time>2021-02-20T13:53:54.000Z</time>
      </trkpt>
      <trkpt lat="45.86384" lon="5.48917">
        <ele>929.2</ele>
        <time>2021-02-20T13:53:55.000Z</time>
      </trkpt>
      <trkpt lat="45.86365" lon="5.48925">
        <ele>930.6</ele>
        <time>2021-02-20T13:55:35.000Z</time>
      </trkpt>
      <trkpt lat="45.86364" lon="5.48926">
        <ele>930.4</ele>
        <time>2021-02-20T13:55:36.000Z</time>
      </trkpt>
      <trkpt lat="45.86362" lon="5.48926">
        <ele>930.4</ele>
        <time>2021-02-20T13:55:38.000Z</time>
      </trkpt>
      <trkpt lat="45.86358" lon="5.48929">
        <ele>930.4</ele>
        <time>2021-02-20T13:55:41.000Z</time>
      </trkpt>
      <trkpt lat="45.86357" lon="5.4893">
        <ele>930.2</ele>
        <time>2021-02-20T13:55:42.000Z</time>
      </trkpt>
      <trkpt lat="45.86356" lon="5.4893">
        <ele>930.2</ele>
        <time>2021-02-20T13:55:43.000Z</time>
      </trkpt>
      <trkpt lat="45.86355" lon="5.48931">
        <ele>930</ele>
        <time>2021-02-20T13:55:44.000Z</time>
      </trkpt>
      <trkpt lat="45.86349" lon="5.48939">
        <ele>929.6</ele>
        <time>2021-02-20T13:55:49.000Z</time>
      </trkpt>
      <trkpt lat="45.8634" lon="5.48943">
        <ele>929.4</ele>
        <time>2021-02-20T13:55:53.000Z</time>
      </trkpt>
      <trkpt lat="45.86338" lon="5.48944">
        <ele>929.6</ele>
        <time>2021-02-20T13:55:54.000Z</time>
      </trkpt>
      <trkpt lat="45.86336" lon="5.48945">
        <ele>929.6</ele>
        <time>2021-02-20T13:55:55.000Z</time>
      </trkpt>
      <trkpt lat="45.86334" lon="5.48946">
        <ele>929.6</ele>
        <time>2021-02-20T13:55:56.000Z</time>
      </trkpt>
      <trkpt lat="45.86332" lon="5.48946">
        <ele>929.4</ele>
        <time>2021-02-20T13:55:57.000Z</time>
      </trkpt>
      <trkpt lat="45.8633" lon="5.48947">
        <ele>929.6</ele>
        <time>2021-02-20T13:55:58.000Z</time>
      </trkpt>
      <trkpt lat="45.86329" lon="5.48949">
        <ele>929.6</ele>
        <time>2021-02-20T13:55:59.000Z</time>
      </trkpt>
      <trkpt lat="45.86327" lon="5.4895">
        <ele>929.4</ele>
        <time>2021-02-20T13:56:00.000Z</time>
      </trkpt>
      <trkpt lat="45.86325" lon="5.48951">
        <ele>929.4</ele>
        <time>2021-02-20T13:56:01.000Z</time>
      </trkpt>
      <trkpt lat="45.86324" lon="5.48953">
        <ele>929.6</ele>
        <time>2021-02-20T13:56:02.000Z</time>
      </trkpt>
      <trkpt lat="45.8632" lon="5.48956">
        <ele>930</ele>
        <time>2021-02-20T13:56:04.000Z</time>
      </trkpt>
      <trkpt lat="45.86318" lon="5.48958">
        <ele>930</ele>
        <time>2021-02-20T13:56:05.000Z</time>
      </trkpt>
      <trkpt lat="45.86313" lon="5.48965">
        <ele>930.6</ele>
        <time>2021-02-20T13:56:08.000Z</time>
      </trkpt>
      <trkpt lat="45.86311" lon="5.48968">
        <ele>930.8</ele>
        <time>2021-02-20T13:56:09.000Z</time>
      </trkpt>
      <trkpt lat="45.86309" lon="5.4897">
        <ele>931</ele>
        <time>2021-02-20T13:56:10.000Z</time>
      </trkpt>
      <trkpt lat="45.86307" lon="5.48972">
        <ele>931.2</ele>
        <time>2021-02-20T13:56:11.000Z</time>
      </trkpt>
      <trkpt lat="45.86306" lon="5.48974">
        <ele>931.4</ele>
        <time>2021-02-20T13:56:12.000Z</time>
      </trkpt>
      <trkpt lat="45.86304" lon="5.48976">
        <ele>931.6</ele>
        <time>2021-02-20T13:56:13.000Z</time>
      </trkpt>
      <trkpt lat="45.86302" lon="5.48978">
        <ele>931.8</ele>
        <time>2021-02-20T13:56:14.000Z</time>
      </trkpt>
      <trkpt lat="45.863" lon="5.4898">
        <ele>931.8</ele>
        <time>2021-02-20T13:56:15.000Z</time>
      </trkpt>
      <trkpt lat="45.86298" lon="5.48981">
        <ele>931.8</ele>
        <time>2021-02-20T13:56:16.000Z</time>
      </trkpt>
      <trkpt lat="45.86297" lon="5.48982">
        <ele>932</ele>
        <time>2021-02-20T13:56:17.000Z</time>
      </trkpt>
      <trkpt lat="45.86295" lon="5.48984">
        <ele>932</ele>
        <time>2021-02-20T13:56:18.000Z</time>
      </trkpt>
      <trkpt lat="45.86293" lon="5.48985">
        <ele>932</ele>
        <time>2021-02-20T13:56:19.000Z</time>
      </trkpt>
      <trkpt lat="45.86291" lon="5.48986">
        <ele>932.2</ele>
        <time>2021-02-20T13:56:20.000Z</time>
      </trkpt>
      <trkpt lat="45.86289" lon="5.48987">
        <ele>932.2</ele>
        <time>2021-02-20T13:56:21.000Z</time>
      </trkpt>
      <trkpt lat="45.86287" lon="5.48987">
        <ele>932.4</ele>
        <time>2021-02-20T13:56:22.000Z</time>
      </trkpt>
      <trkpt lat="45.86284" lon="5.48988">
        <ele>932.6</ele>
        <time>2021-02-20T13:56:23.000Z</time>
      </trkpt>
      <trkpt lat="45.86282" lon="5.48989">
        <ele>932.8</ele>
        <time>2021-02-20T13:56:24.000Z</time>
      </trkpt>
      <trkpt lat="45.8628" lon="5.4899">
        <ele>933</ele>
        <time>2021-02-20T13:56:25.000Z</time>
      </trkpt>
      <trkpt lat="45.86278" lon="5.48991">
        <ele>933.4</ele>
        <time>2021-02-20T13:56:26.000Z</time>
      </trkpt>
      <trkpt lat="45.86276" lon="5.48991">
        <ele>933.6</ele>
        <time>2021-02-20T13:56:27.000Z</time>
      </trkpt>
      <trkpt lat="45.86274" lon="5.48992">
        <ele>933.8</ele>
        <time>2021-02-20T13:56:28.000Z</time>
      </trkpt>
      <trkpt lat="45.86272" lon="5.48993">
        <ele>934</ele>
        <time>2021-02-20T13:56:29.000Z</time>
      </trkpt>
      <trkpt lat="45.8627" lon="5.48993">
        <ele>934.4</ele>
        <time>2021-02-20T13:56:30.000Z</time>
      </trkpt>
      <trkpt lat="45.86268" lon="5.48994">
        <ele>934.4</ele>
        <time>2021-02-20T13:56:31.000Z</time>
      </trkpt>
      <trkpt lat="45.86267" lon="5.48995">
        <ele>934.8</ele>
        <time>2021-02-20T13:56:32.000Z</time>
      </trkpt>
      <trkpt lat="45.86265" lon="5.48996">
        <ele>934.6</ele>
        <time>2021-02-20T13:56:33.000Z</time>
      </trkpt>
      <trkpt lat="45.86263" lon="5.48997">
        <ele>935</ele>
        <time>2021-02-20T13:56:34.000Z</time>
      </trkpt>
      <trkpt lat="45.86262" lon="5.48998">
        <ele>935.2</ele>
        <time>2021-02-20T13:56:35.000Z</time>
      </trkpt>
      <trkpt lat="45.8626" lon="5.48999">
        <ele>935.4</ele>
        <time>2021-02-20T13:56:36.000Z</time>
      </trkpt>
      <trkpt lat="45.86258" lon="5.49">
        <ele>935.4</ele>
        <time>2021-02-20T13:56:37.000Z</time>
      </trkpt>
      <trkpt lat="45.86256" lon="5.49001">
        <ele>935.6</ele>
        <time>2021-02-20T13:56:38.000Z</time>
      </trkpt>
      <trkpt lat="45.86255" lon="5.49002">
        <ele>935.6</ele>
        <time>2021-02-20T13:56:39.000Z</time>
      </trkpt>
      <trkpt lat="45.86253" lon="5.49004">
        <ele>935.8</ele>
        <time>2021-02-20T13:56:40.000Z</time>
      </trkpt>
      <trkpt lat="45.86251" lon="5.49005">
        <ele>936.2</ele>
        <time>2021-02-20T13:56:41.000Z</time>
      </trkpt>
      <trkpt lat="45.8625" lon="5.49006">
        <ele>936.2</ele>
        <time>2021-02-20T13:56:42.000Z</time>
      </trkpt>
      <trkpt lat="45.86249" lon="5.49007">
        <ele>936.4</ele>
        <time>2021-02-20T13:56:43.000Z</time>
      </trkpt>
      <trkpt lat="45.86247" lon="5.49008">
        <ele>936.8</ele>
        <time>2021-02-20T13:56:44.000Z</time>
      </trkpt>
      <trkpt lat="45.86245" lon="5.4901">
        <ele>936.8</ele>
        <time>2021-02-20T13:56:45.000Z</time>
      </trkpt>
      <trkpt lat="45.86244" lon="5.49011">
        <ele>937</ele>
        <time>2021-02-20T13:56:46.000Z</time>
      </trkpt>
      <trkpt lat="45.86242" lon="5.49012">
        <ele>937</ele>
        <time>2021-02-20T13:56:47.000Z</time>
      </trkpt>
      <trkpt lat="45.86241" lon="5.49014">
        <ele>937</ele>
        <time>2021-02-20T13:56:48.000Z</time>
      </trkpt>
      <trkpt lat="45.8624" lon="5.49015">
        <ele>937.4</ele>
        <time>2021-02-20T13:56:49.000Z</time>
      </trkpt>
      <trkpt lat="45.86238" lon="5.49016">
        <ele>937.4</ele>
        <time>2021-02-20T13:56:50.000Z</time>
      </trkpt>
      <trkpt lat="45.86237" lon="5.49017">
        <ele>937.4</ele>
        <time>2021-02-20T13:56:51.000Z</time>
      </trkpt>
      <trkpt lat="45.86235" lon="5.49018">
        <ele>937.8</ele>
        <time>2021-02-20T13:56:52.000Z</time>
      </trkpt>
      <trkpt lat="45.86234" lon="5.4902">
        <ele>938</ele>
        <time>2021-02-20T13:56:53.000Z</time>
      </trkpt>
      <trkpt lat="45.86232" lon="5.49021">
        <ele>938.2</ele>
        <time>2021-02-20T13:56:54.000Z</time>
      </trkpt>
      <trkpt lat="45.86231" lon="5.49023">
        <ele>938.4</ele>
        <time>2021-02-20T13:56:55.000Z</time>
      </trkpt>
      <trkpt lat="45.86229" lon="5.49024">
        <ele>938.6</ele>
        <time>2021-02-20T13:56:56.000Z</time>
      </trkpt>
      <trkpt lat="45.86228" lon="5.49026">
        <ele>938.8</ele>
        <time>2021-02-20T13:56:57.000Z</time>
      </trkpt>
      <trkpt lat="45.86226" lon="5.49028">
        <ele>938.8</ele>
        <time>2021-02-20T13:56:58.000Z</time>
      </trkpt>
      <trkpt lat="45.86225" lon="5.49029">
        <ele>939.2</ele>
        <time>2021-02-20T13:56:59.000Z</time>
      </trkpt>
      <trkpt lat="45.86223" lon="5.49031">
        <ele>939.2</ele>
        <time>2021-02-20T13:57:00.000Z</time>
      </trkpt>
      <trkpt lat="45.86222" lon="5.49033">
        <ele>939.2</ele>
        <time>2021-02-20T13:57:01.000Z</time>
      </trkpt>
      <trkpt lat="45.8622" lon="5.49034">
        <ele>939.4</ele>
        <time>2021-02-20T13:57:02.000Z</time>
      </trkpt>
      <trkpt lat="45.86219" lon="5.49036">
        <ele>939.4</ele>
        <time>2021-02-20T13:57:03.000Z</time>
      </trkpt>
      <trkpt lat="45.86217" lon="5.49037">
        <ele>939.8</ele>
        <time>2021-02-20T13:57:04.000Z</time>
      </trkpt>
      <trkpt lat="45.86216" lon="5.49039">
        <ele>939.8</ele>
        <time>2021-02-20T13:57:05.000Z</time>
      </trkpt>
      <trkpt lat="45.86215" lon="5.49041">
        <ele>939.8</ele>
        <time>2021-02-20T13:57:06.000Z</time>
      </trkpt>
      <trkpt lat="45.86214" lon="5.49043">
        <ele>940.2</ele>
        <time>2021-02-20T13:57:07.000Z</time>
      </trkpt>
      <trkpt lat="45.86213" lon="5.49044">
        <ele>940.4</ele>
        <time>2021-02-20T13:57:08.000Z</time>
      </trkpt>
      <trkpt lat="45.86211" lon="5.49046">
        <ele>940.6</ele>
        <time>2021-02-20T13:57:09.000Z</time>
      </trkpt>
      <trkpt lat="45.8621" lon="5.49048">
        <ele>940.8</ele>
        <time>2021-02-20T13:57:10.000Z</time>
      </trkpt>
      <trkpt lat="45.86208" lon="5.4905">
        <ele>941</ele>
        <time>2021-02-20T13:57:11.000Z</time>
      </trkpt>
      <trkpt lat="45.86206" lon="5.49051">
        <ele>941.2</ele>
        <time>2021-02-20T13:57:12.000Z</time>
      </trkpt>
      <trkpt lat="45.86205" lon="5.49053">
        <ele>941.4</ele>
        <time>2021-02-20T13:57:13.000Z</time>
      </trkpt>
      <trkpt lat="45.86203" lon="5.49055">
        <ele>941.4</ele>
        <time>2021-02-20T13:57:14.000Z</time>
      </trkpt>
      <trkpt lat="45.86202" lon="5.49057">
        <ele>941.6</ele>
        <time>2021-02-20T13:57:15.000Z</time>
      </trkpt>
      <trkpt lat="45.862" lon="5.49059">
        <ele>942</ele>
        <time>2021-02-20T13:57:16.000Z</time>
      </trkpt>
      <trkpt lat="45.86199" lon="5.49061">
        <ele>942.2</ele>
        <time>2021-02-20T13:57:17.000Z</time>
      </trkpt>
      <trkpt lat="45.86198" lon="5.49062">
        <ele>942.2</ele>
        <time>2021-02-20T13:57:18.000Z</time>
      </trkpt>
      <trkpt lat="45.86197" lon="5.49064">
        <ele>942.2</ele>
        <time>2021-02-20T13:57:19.000Z</time>
      </trkpt>
      <trkpt lat="45.86195" lon="5.49066">
        <ele>942.4</ele>
        <time>2021-02-20T13:57:20.000Z</time>
      </trkpt>
      <trkpt lat="45.86194" lon="5.49067">
        <ele>942.6</ele>
        <time>2021-02-20T13:57:21.000Z</time>
      </trkpt>
      <trkpt lat="45.86192" lon="5.49069">
        <ele>942.6</ele>
        <time>2021-02-20T13:57:22.000Z</time>
      </trkpt>
      <trkpt lat="45.86191" lon="5.49071">
        <ele>942.8</ele>
        <time>2021-02-20T13:57:23.000Z</time>
      </trkpt>
      <trkpt lat="45.86189" lon="5.49072">
        <ele>943</ele>
        <time>2021-02-20T13:57:24.000Z</time>
      </trkpt>
      <trkpt lat="45.86188" lon="5.49074">
        <ele>943</ele>
        <time>2021-02-20T13:57:25.000Z</time>
      </trkpt>
      <trkpt lat="45.86186" lon="5.49076">
        <ele>943</ele>
        <time>2021-02-20T13:57:26.000Z</time>
      </trkpt>
      <trkpt lat="45.86185" lon="5.49077">
        <ele>943.6</ele>
        <time>2021-02-20T13:57:27.000Z</time>
      </trkpt>
      <trkpt lat="45.86184" lon="5.49079">
        <ele>943.8</ele>
        <time>2021-02-20T13:57:28.000Z</time>
      </trkpt>
      <trkpt lat="45.86182" lon="5.4908">
        <ele>943.8</ele>
        <time>2021-02-20T13:57:29.000Z</time>
      </trkpt>
      <trkpt lat="45.86181" lon="5.49082">
        <ele>944</ele>
        <time>2021-02-20T13:57:30.000Z</time>
      </trkpt>
      <trkpt lat="45.8618" lon="5.49083">
        <ele>944.2</ele>
        <time>2021-02-20T13:57:31.000Z</time>
      </trkpt>
      <trkpt lat="45.86179" lon="5.49085">
        <ele>944.2</ele>
        <time>2021-02-20T13:57:32.000Z</time>
      </trkpt>
      <trkpt lat="45.86177" lon="5.49086">
        <ele>944.4</ele>
        <time>2021-02-20T13:57:33.000Z</time>
      </trkpt>
      <trkpt lat="45.86176" lon="5.49087">
        <ele>944.6</ele>
        <time>2021-02-20T13:57:34.000Z</time>
      </trkpt>
      <trkpt lat="45.86175" lon="5.49088">
        <ele>944.6</ele>
        <time>2021-02-20T13:57:35.000Z</time>
      </trkpt>
      <trkpt lat="45.86173" lon="5.4909">
        <ele>944.6</ele>
        <time>2021-02-20T13:57:36.000Z</time>
      </trkpt>
      <trkpt lat="45.86172" lon="5.49091">
        <ele>945</ele>
        <time>2021-02-20T13:57:37.000Z</time>
      </trkpt>
      <trkpt lat="45.86171" lon="5.49093">
        <ele>945.2</ele>
        <time>2021-02-20T13:57:38.000Z</time>
      </trkpt>
      <trkpt lat="45.8617" lon="5.49094">
        <ele>945.4</ele>
        <time>2021-02-20T13:57:39.000Z</time>
      </trkpt>
      <trkpt lat="45.86168" lon="5.49096">
        <ele>945.4</ele>
        <time>2021-02-20T13:57:40.000Z</time>
      </trkpt>
      <trkpt lat="45.86167" lon="5.49098">
        <ele>945.8</ele>
        <time>2021-02-20T13:57:41.000Z</time>
      </trkpt>
      <trkpt lat="45.86166" lon="5.49099">
        <ele>945.8</ele>
        <time>2021-02-20T13:57:42.000Z</time>
      </trkpt>
      <trkpt lat="45.86165" lon="5.49101">
        <ele>945.8</ele>
        <time>2021-02-20T13:57:43.000Z</time>
      </trkpt>
      <trkpt lat="45.86163" lon="5.49102">
        <ele>946</ele>
        <time>2021-02-20T13:57:44.000Z</time>
      </trkpt>
      <trkpt lat="45.86162" lon="5.49104">
        <ele>946</ele>
        <time>2021-02-20T13:57:45.000Z</time>
      </trkpt>
      <trkpt lat="45.86161" lon="5.49105">
        <ele>946</ele>
        <time>2021-02-20T13:57:46.000Z</time>
      </trkpt>
      <trkpt lat="45.86159" lon="5.49107">
        <ele>946</ele>
        <time>2021-02-20T13:57:47.000Z</time>
      </trkpt>
      <trkpt lat="45.86158" lon="5.49108">
        <ele>946.2</ele>
        <time>2021-02-20T13:57:48.000Z</time>
      </trkpt>
      <trkpt lat="45.86157" lon="5.4911">
        <ele>946.2</ele>
        <time>2021-02-20T13:57:49.000Z</time>
      </trkpt>
      <trkpt lat="45.86155" lon="5.49111">
        <ele>946.4</ele>
        <time>2021-02-20T13:57:50.000Z</time>
      </trkpt>
      <trkpt lat="45.86154" lon="5.49112">
        <ele>946.6</ele>
        <time>2021-02-20T13:57:51.000Z</time>
      </trkpt>
      <trkpt lat="45.86153" lon="5.49114">
        <ele>946.6</ele>
        <time>2021-02-20T13:57:52.000Z</time>
      </trkpt>
      <trkpt lat="45.86151" lon="5.49115">
        <ele>946.6</ele>
        <time>2021-02-20T13:57:53.000Z</time>
      </trkpt>
      <trkpt lat="45.86149" lon="5.49116">
        <ele>946.8</ele>
        <time>2021-02-20T13:57:54.000Z</time>
      </trkpt>
      <trkpt lat="45.86148" lon="5.49118">
        <ele>947</ele>
        <time>2021-02-20T13:57:55.000Z</time>
      </trkpt>
      <trkpt lat="45.86146" lon="5.49119">
        <ele>947.2</ele>
        <time>2021-02-20T13:57:56.000Z</time>
      </trkpt>
      <trkpt lat="45.86145" lon="5.4912">
        <ele>947.4</ele>
        <time>2021-02-20T13:57:57.000Z</time>
      </trkpt>
      <trkpt lat="45.86144" lon="5.49121">
        <ele>947.4</ele>
        <time>2021-02-20T13:57:58.000Z</time>
      </trkpt>
      <trkpt lat="45.86142" lon="5.49122">
        <ele>947.8</ele>
        <time>2021-02-20T13:57:59.000Z</time>
      </trkpt>
      <trkpt lat="45.8614" lon="5.49123">
        <ele>948</ele>
        <time>2021-02-20T13:58:00.000Z</time>
      </trkpt>
      <trkpt lat="45.86138" lon="5.49124">
        <ele>948.4</ele>
        <time>2021-02-20T13:58:01.000Z</time>
      </trkpt>
      <trkpt lat="45.86137" lon="5.49125">
        <ele>948.4</ele>
        <time>2021-02-20T13:58:02.000Z</time>
      </trkpt>
      <trkpt lat="45.86135" lon="5.49127">
        <ele>948.6</ele>
        <time>2021-02-20T13:58:03.000Z</time>
      </trkpt>
      <trkpt lat="45.86134" lon="5.49128">
        <ele>948.8</ele>
        <time>2021-02-20T13:58:04.000Z</time>
      </trkpt>
      <trkpt lat="45.86132" lon="5.49129">
        <ele>948.8</ele>
        <time>2021-02-20T13:58:05.000Z</time>
      </trkpt>
      <trkpt lat="45.86131" lon="5.4913">
        <ele>949</ele>
        <time>2021-02-20T13:58:06.000Z</time>
      </trkpt>
      <trkpt lat="45.86129" lon="5.4913">
        <ele>949.2</ele>
        <time>2021-02-20T13:58:07.000Z</time>
      </trkpt>
      <trkpt lat="45.86128" lon="5.49131">
        <ele>949.4</ele>
        <time>2021-02-20T13:58:08.000Z</time>
      </trkpt>
      <trkpt lat="45.86126" lon="5.49132">
        <ele>949.4</ele>
        <time>2021-02-20T13:58:09.000Z</time>
      </trkpt>
      <trkpt lat="45.86125" lon="5.49133">
        <ele>949.6</ele>
        <time>2021-02-20T13:58:10.000Z</time>
      </trkpt>
      <trkpt lat="45.86122" lon="5.49135">
        <ele>949.6</ele>
        <time>2021-02-20T13:58:11.000Z</time>
      </trkpt>
      <trkpt lat="45.8612" lon="5.49136">
        <ele>949.8</ele>
        <time>2021-02-20T13:58:12.000Z</time>
      </trkpt>
      <trkpt lat="45.86118" lon="5.49137">
        <ele>950</ele>
        <time>2021-02-20T13:58:13.000Z</time>
      </trkpt>
      <trkpt lat="45.86116" lon="5.49138">
        <ele>950.2</ele>
        <time>2021-02-20T13:58:14.000Z</time>
      </trkpt>
      <trkpt lat="45.86114" lon="5.49139">
        <ele>950.4</ele>
        <time>2021-02-20T13:58:15.000Z</time>
      </trkpt>
      <trkpt lat="45.86112" lon="5.4914">
        <ele>950.6</ele>
        <time>2021-02-20T13:58:16.000Z</time>
      </trkpt>
      <trkpt lat="45.8611" lon="5.49141">
        <ele>950.4</ele>
        <time>2021-02-20T13:58:17.000Z</time>
      </trkpt>
      <trkpt lat="45.86108" lon="5.49141">
        <ele>950.6</ele>
        <time>2021-02-20T13:58:18.000Z</time>
      </trkpt>
      <trkpt lat="45.86106" lon="5.49142">
        <ele>950.8</ele>
        <time>2021-02-20T13:58:19.000Z</time>
      </trkpt>
      <trkpt lat="45.86104" lon="5.49143">
        <ele>950.8</ele>
        <time>2021-02-20T13:58:20.000Z</time>
      </trkpt>
      <trkpt lat="45.86102" lon="5.49143">
        <ele>951</ele>
        <time>2021-02-20T13:58:21.000Z</time>
      </trkpt>
      <trkpt lat="45.861" lon="5.49144">
        <ele>951</ele>
        <time>2021-02-20T13:58:22.000Z</time>
      </trkpt>
      <trkpt lat="45.86098" lon="5.49145">
        <ele>951.2</ele>
        <time>2021-02-20T13:58:23.000Z</time>
      </trkpt>
      <trkpt lat="45.86097" lon="5.49146">
        <ele>951.2</ele>
        <time>2021-02-20T13:58:24.000Z</time>
      </trkpt>
      <trkpt lat="45.86095" lon="5.49146">
        <ele>951.4</ele>
        <time>2021-02-20T13:58:25.000Z</time>
      </trkpt>
      <trkpt lat="45.86094" lon="5.49148">
        <ele>951.6</ele>
        <time>2021-02-20T13:58:26.000Z</time>
      </trkpt>
      <trkpt lat="45.86093" lon="5.49149">
        <ele>951.8</ele>
        <time>2021-02-20T13:58:27.000Z</time>
      </trkpt>
      <trkpt lat="45.86092" lon="5.49149">
        <ele>951.8</ele>
        <time>2021-02-20T13:58:28.000Z</time>
      </trkpt>
      <trkpt lat="45.86091" lon="5.4915">
        <ele>952</ele>
        <time>2021-02-20T13:58:29.000Z</time>
      </trkpt>
      <trkpt lat="45.8609" lon="5.49151">
        <ele>952.2</ele>
        <time>2021-02-20T13:58:30.000Z</time>
      </trkpt>
      <trkpt lat="45.8609" lon="5.49152">
        <ele>952.2</ele>
        <time>2021-02-20T13:58:31.000Z</time>
      </trkpt>
      <trkpt lat="45.86089" lon="5.49153">
        <ele>952.6</ele>
        <time>2021-02-20T13:58:32.000Z</time>
      </trkpt>
      <trkpt lat="45.86088" lon="5.49153">
        <ele>952.6</ele>
        <time>2021-02-20T13:58:33.000Z</time>
      </trkpt>
      <trkpt lat="45.86088" lon="5.49155">
        <ele>954.2</ele>
        <time>2021-02-20T13:59:43.000Z</time>
      </trkpt>
      <trkpt lat="45.86087" lon="5.49157">
        <ele>954.2</ele>
        <time>2021-02-20T13:59:44.000Z</time>
      </trkpt>
      <trkpt lat="45.86085" lon="5.4916">
        <ele>954.4</ele>
        <time>2021-02-20T13:59:46.000Z</time>
      </trkpt>
      <trkpt lat="45.86081" lon="5.49166">
        <ele>954.4</ele>
        <time>2021-02-20T13:59:50.000Z</time>
      </trkpt>
      <trkpt lat="45.8608" lon="5.49167">
        <ele>954.4</ele>
        <time>2021-02-20T13:59:51.000Z</time>
      </trkpt>
      <trkpt lat="45.86078" lon="5.49168">
        <ele>954.2</ele>
        <time>2021-02-20T13:59:52.000Z</time>
      </trkpt>
      <trkpt lat="45.86077" lon="5.49169">
        <ele>954.4</ele>
        <time>2021-02-20T13:59:54.000Z</time>
      </trkpt>
      <trkpt lat="45.86076" lon="5.4917">
        <ele>954.4</ele>
        <time>2021-02-20T13:59:55.000Z</time>
      </trkpt>
      <trkpt lat="45.86075" lon="5.4917">
        <ele>954.4</ele>
        <time>2021-02-20T13:59:56.000Z</time>
      </trkpt>
      <trkpt lat="45.86074" lon="5.49171">
        <ele>954.6</ele>
        <time>2021-02-20T13:59:57.000Z</time>
      </trkpt>
      <trkpt lat="45.86073" lon="5.49172">
        <ele>954.8</ele>
        <time>2021-02-20T13:59:58.000Z</time>
      </trkpt>
      <trkpt lat="45.86072" lon="5.49172">
        <ele>955</ele>
        <time>2021-02-20T13:59:59.000Z</time>
      </trkpt>
      <trkpt lat="45.86071" lon="5.49173">
        <ele>955.2</ele>
        <time>2021-02-20T14:00:00.000Z</time>
      </trkpt>
      <trkpt lat="45.86071" lon="5.49174">
        <ele>955.6</ele>
        <time>2021-02-20T14:00:01.000Z</time>
      </trkpt>
      <trkpt lat="45.8607" lon="5.49175">
        <ele>955.8</ele>
        <time>2021-02-20T14:00:02.000Z</time>
      </trkpt>
      <trkpt lat="45.86048" lon="5.49238">
        <ele>971.2</ele>
        <time>2021-02-20T14:01:24.000Z</time>
      </trkpt>
      <trkpt lat="45.86047" lon="5.49239">
        <ele>971.4</ele>
        <time>2021-02-20T14:01:25.000Z</time>
      </trkpt>
      <trkpt lat="45.86046" lon="5.4924">
        <ele>971.4</ele>
        <time>2021-02-20T14:01:27.000Z</time>
      </trkpt>
      <trkpt lat="45.86045" lon="5.4924">
        <ele>971.2</ele>
        <time>2021-02-20T14:01:28.000Z</time>
      </trkpt>
      <trkpt lat="45.86044" lon="5.49241">
        <ele>971.4</ele>
        <time>2021-02-20T14:01:29.000Z</time>
      </trkpt>
      <trkpt lat="45.86043" lon="5.49241">
        <ele>971.4</ele>
        <time>2021-02-20T14:01:30.000Z</time>
      </trkpt>
      <trkpt lat="45.86042" lon="5.49242">
        <ele>971.4</ele>
        <time>2021-02-20T14:01:31.000Z</time>
      </trkpt>
      <trkpt lat="45.86041" lon="5.49242">
        <ele>971.4</ele>
        <time>2021-02-20T14:01:32.000Z</time>
      </trkpt>
      <trkpt lat="45.86039" lon="5.49242">
        <ele>971.4</ele>
        <time>2021-02-20T14:01:33.000Z</time>
      </trkpt>
      <trkpt lat="45.86038" lon="5.49243">
        <ele>971.6</ele>
        <time>2021-02-20T14:01:34.000Z</time>
      </trkpt>
      <trkpt lat="45.86036" lon="5.49243">
        <ele>971.6</ele>
        <time>2021-02-20T14:01:35.000Z</time>
      </trkpt>
      <trkpt lat="45.86035" lon="5.49244">
        <ele>971.8</ele>
        <time>2021-02-20T14:01:36.000Z</time>
      </trkpt>
      <trkpt lat="45.86033" lon="5.49245">
        <ele>972.2</ele>
        <time>2021-02-20T14:01:37.000Z</time>
      </trkpt>
      <trkpt lat="45.86032" lon="5.49246">
        <ele>972.2</ele>
        <time>2021-02-20T14:01:38.000Z</time>
      </trkpt>
      <trkpt lat="45.86006" lon="5.49271">
        <ele>978.8</ele>
        <time>2021-02-20T14:02:10.000Z</time>
      </trkpt>
      <trkpt lat="45.86005" lon="5.49272">
        <ele>978.8</ele>
        <time>2021-02-20T14:02:11.000Z</time>
      </trkpt>
      <trkpt lat="45.86004" lon="5.49273">
        <ele>979</ele>
        <time>2021-02-20T14:02:12.000Z</time>
      </trkpt>
      <trkpt lat="45.86003" lon="5.49274">
        <ele>979.2</ele>
        <time>2021-02-20T14:02:13.000Z</time>
      </trkpt>
      <trkpt lat="45.86001" lon="5.49275">
        <ele>979.4</ele>
        <time>2021-02-20T14:02:14.000Z</time>
      </trkpt>
      <trkpt lat="45.86" lon="5.49276">
        <ele>979.6</ele>
        <time>2021-02-20T14:02:15.000Z</time>
      </trkpt>
      <trkpt lat="45.85999" lon="5.49276">
        <ele>979.6</ele>
        <time>2021-02-20T14:02:16.000Z</time>
      </trkpt>
      <trkpt lat="45.85983" lon="5.49291">
        <ele>982.6</ele>
        <time>2021-02-20T14:02:46.000Z</time>
      </trkpt>
      <trkpt lat="45.85982" lon="5.49291">
        <ele>982.8</ele>
        <time>2021-02-20T14:02:47.000Z</time>
      </trkpt>
      <trkpt lat="45.8598" lon="5.49294">
        <ele>982.8</ele>
        <time>2021-02-20T14:02:49.000Z</time>
      </trkpt>
      <trkpt lat="45.85979" lon="5.49295">
        <ele>982.6</ele>
        <time>2021-02-20T14:02:50.000Z</time>
      </trkpt>
      <trkpt lat="45.85974" lon="5.49304">
        <ele>983</ele>
        <time>2021-02-20T14:02:55.000Z</time>
      </trkpt>
      <trkpt lat="45.85973" lon="5.49305">
        <ele>983.2</ele>
        <time>2021-02-20T14:02:56.000Z</time>
      </trkpt>
      <trkpt lat="45.85972" lon="5.49307">
        <ele>983.4</ele>
        <time>2021-02-20T14:02:57.000Z</time>
      </trkpt>
      <trkpt lat="45.85971" lon="5.49308">
        <ele>984</ele>
        <time>2021-02-20T14:02:58.000Z</time>
      </trkpt>
      <trkpt lat="45.8597" lon="5.49309">
        <ele>984</ele>
        <time>2021-02-20T14:02:59.000Z</time>
      </trkpt>
      <trkpt lat="45.85969" lon="5.49309">
        <ele>984.2</ele>
        <time>2021-02-20T14:03:00.000Z</time>
      </trkpt>
      <trkpt lat="45.85968" lon="5.4931">
        <ele>984.2</ele>
        <time>2021-02-20T14:03:01.000Z</time>
      </trkpt>
      <trkpt lat="45.85967" lon="5.4931">
        <ele>984.4</ele>
        <time>2021-02-20T14:03:02.000Z</time>
      </trkpt>
      <trkpt lat="45.85966" lon="5.4931">
        <ele>984.6</ele>
        <time>2021-02-20T14:03:03.000Z</time>
      </trkpt>
      <trkpt lat="45.85955" lon="5.49316">
        <ele>985.2</ele>
        <time>2021-02-20T14:03:31.000Z</time>
      </trkpt>
      <trkpt lat="45.85955" lon="5.49315">
        <ele>985.4</ele>
        <time>2021-02-20T14:03:32.000Z</time>
      </trkpt>
      <trkpt lat="45.85954" lon="5.49313">
        <ele>985.2</ele>
        <time>2021-02-20T14:03:34.000Z</time>
      </trkpt>
      <trkpt lat="45.85953" lon="5.49312">
        <ele>985.2</ele>
        <time>2021-02-20T14:03:35.000Z</time>
      </trkpt>
      <trkpt lat="45.85953" lon="5.49311">
        <ele>985.2</ele>
        <time>2021-02-20T14:03:36.000Z</time>
      </trkpt>
      <trkpt lat="45.85953" lon="5.4931">
        <ele>985.2</ele>
        <time>2021-02-20T14:03:37.000Z</time>
      </trkpt>
      <trkpt lat="45.85953" lon="5.49309">
        <ele>985.4</ele>
        <time>2021-02-20T14:03:39.000Z</time>
      </trkpt>
      <trkpt lat="45.85952" lon="5.49308">
        <ele>985.6</ele>
        <time>2021-02-20T14:03:40.000Z</time>
      </trkpt>
      <trkpt lat="45.8595" lon="5.49295">
        <ele>987.6</ele>
        <time>2021-02-20T14:03:56.000Z</time>
      </trkpt>
      <trkpt lat="45.8595" lon="5.49294">
        <ele>987.6</ele>
        <time>2021-02-20T14:03:57.000Z</time>
      </trkpt>
      <trkpt lat="45.8595" lon="5.49291">
        <ele>987.8</ele>
        <time>2021-02-20T14:04:00.000Z</time>
      </trkpt>
      <trkpt lat="45.8595" lon="5.49288">
        <ele>987.8</ele>
        <time>2021-02-20T14:04:02.000Z</time>
      </trkpt>
      <trkpt lat="45.85949" lon="5.49287">
        <ele>987.6</ele>
        <time>2021-02-20T14:04:03.000Z</time>
      </trkpt>
      <trkpt lat="45.85949" lon="5.49285">
        <ele>988</ele>
        <time>2021-02-20T14:04:05.000Z</time>
      </trkpt>
      <trkpt lat="45.85948" lon="5.49277">
        <ele>988.8</ele>
        <time>2021-02-20T14:04:11.000Z</time>
      </trkpt>
      <trkpt lat="45.85947" lon="5.49276">
        <ele>989</ele>
        <time>2021-02-20T14:04:12.000Z</time>
      </trkpt>
      <trkpt lat="45.85947" lon="5.49274">
        <ele>989.4</ele>
        <time>2021-02-20T14:04:13.000Z</time>
      </trkpt>
      <trkpt lat="45.85947" lon="5.49273">
        <ele>989.6</ele>
        <time>2021-02-20T14:04:14.000Z</time>
      </trkpt>
      <trkpt lat="45.85947" lon="5.49271">
        <ele>990</ele>
        <time>2021-02-20T14:04:15.000Z</time>
      </trkpt>
      <trkpt lat="45.85946" lon="5.4927">
        <ele>990.6</ele>
        <time>2021-02-20T14:04:17.000Z</time>
      </trkpt>
      <trkpt lat="45.85946" lon="5.49269">
        <ele>991</ele>
        <time>2021-02-20T14:04:18.000Z</time>
      </trkpt>
      <trkpt lat="45.85946" lon="5.49268">
        <ele>991.2</ele>
        <time>2021-02-20T14:04:19.000Z</time>
      </trkpt>
      <trkpt lat="45.85945" lon="5.49268">
        <ele>991.2</ele>
        <time>2021-02-20T14:04:20.000Z</time>
      </trkpt>
      <trkpt lat="45.85945" lon="5.49267">
        <ele>991.4</ele>
        <time>2021-02-20T14:04:21.000Z</time>
      </trkpt>
      <trkpt lat="45.85944" lon="5.49266">
        <ele>991.4</ele>
        <time>2021-02-20T14:04:22.000Z</time>
      </trkpt>
      <trkpt lat="45.85944" lon="5.49265">
        <ele>991.8</ele>
        <time>2021-02-20T14:04:24.000Z</time>
      </trkpt>
      <trkpt lat="45.85864" lon="5.4924">
        <ele>1013.4</ele>
        <time>2021-02-20T14:06:38.000Z</time>
      </trkpt>
      <trkpt lat="45.85865" lon="5.49239">
        <ele>1013.4</ele>
        <time>2021-02-20T14:06:39.000Z</time>
      </trkpt>
      <trkpt lat="45.85865" lon="5.49238">
        <ele>1013.6</ele>
        <time>2021-02-20T14:06:40.000Z</time>
      </trkpt>
      <trkpt lat="45.85866" lon="5.49237">
        <ele>1013.6</ele>
        <time>2021-02-20T14:06:41.000Z</time>
      </trkpt>
      <trkpt lat="45.85866" lon="5.49235">
        <ele>1013.6</ele>
        <time>2021-02-20T14:06:42.000Z</time>
      </trkpt>
      <trkpt lat="45.85867" lon="5.49234">
        <ele>1013.6</ele>
        <time>2021-02-20T14:06:43.000Z</time>
      </trkpt>
      <trkpt lat="45.85868" lon="5.49232">
        <ele>1013.8</ele>
        <time>2021-02-20T14:06:44.000Z</time>
      </trkpt>
      <trkpt lat="45.85868" lon="5.49231">
        <ele>1013.6</ele>
        <time>2021-02-20T14:06:45.000Z</time>
      </trkpt>
      <trkpt lat="45.85872" lon="5.49223">
        <ele>1014.2</ele>
        <time>2021-02-20T14:06:50.000Z</time>
      </trkpt>
      <trkpt lat="45.85873" lon="5.49221">
        <ele>1014.4</ele>
        <time>2021-02-20T14:06:51.000Z</time>
      </trkpt>
      <trkpt lat="45.85876" lon="5.49214">
        <ele>1014.4</ele>
        <time>2021-02-20T14:06:54.000Z</time>
      </trkpt>
      <trkpt lat="45.8588" lon="5.49205">
        <ele>1014.4</ele>
        <time>2021-02-20T14:06:57.000Z</time>
      </trkpt>
      <trkpt lat="45.85881" lon="5.49202">
        <ele>1014.6</ele>
        <time>2021-02-20T14:06:58.000Z</time>
      </trkpt>
      <trkpt lat="45.85885" lon="5.49187">
        <ele>1015.6</ele>
        <time>2021-02-20T14:07:03.000Z</time>
      </trkpt>
      <trkpt lat="45.85886" lon="5.49184">
        <ele>1015.4</ele>
        <time>2021-02-20T14:07:04.000Z</time>
      </trkpt>
      <trkpt lat="45.85887" lon="5.49181">
        <ele>1015.6</ele>
        <time>2021-02-20T14:07:05.000Z</time>
      </trkpt>
      <trkpt lat="45.85888" lon="5.49178">
        <ele>1015.8</ele>
        <time>2021-02-20T14:07:06.000Z</time>
      </trkpt>
      <trkpt lat="45.85888" lon="5.49176">
        <ele>1015.8</ele>
        <time>2021-02-20T14:07:07.000Z</time>
      </trkpt>
      <trkpt lat="45.85888" lon="5.49174">
        <ele>1016</ele>
        <time>2021-02-20T14:07:08.000Z</time>
      </trkpt>
      <trkpt lat="45.85888" lon="5.49171">
        <ele>1016.2</ele>
        <time>2021-02-20T14:07:09.000Z</time>
      </trkpt>
      <trkpt lat="45.85889" lon="5.49169">
        <ele>1016.4</ele>
        <time>2021-02-20T14:07:10.000Z</time>
      </trkpt>
      <trkpt lat="45.8589" lon="5.49165">
        <ele>1016.4</ele>
        <time>2021-02-20T14:07:11.000Z</time>
      </trkpt>
      <trkpt lat="45.8589" lon="5.49161">
        <ele>1016.4</ele>
        <time>2021-02-20T14:07:12.000Z</time>
      </trkpt>
      <trkpt lat="45.85891" lon="5.49157">
        <ele>1016.8</ele>
        <time>2021-02-20T14:07:13.000Z</time>
      </trkpt>
      <trkpt lat="45.85891" lon="5.49152">
        <ele>1017.4</ele>
        <time>2021-02-20T14:07:14.000Z</time>
      </trkpt>
      <trkpt lat="45.85892" lon="5.49147">
        <ele>1017.8</ele>
        <time>2021-02-20T14:07:15.000Z</time>
      </trkpt>
      <trkpt lat="45.85893" lon="5.49142">
        <ele>1018.2</ele>
        <time>2021-02-20T14:07:16.000Z</time>
      </trkpt>
      <trkpt lat="45.85893" lon="5.49138">
        <ele>1018.2</ele>
        <time>2021-02-20T14:07:17.000Z</time>
      </trkpt>
      <trkpt lat="45.85894" lon="5.49134">
        <ele>1018.6</ele>
        <time>2021-02-20T14:07:18.000Z</time>
      </trkpt>
      <trkpt lat="45.85894" lon="5.4913">
        <ele>1018.8</ele>
        <time>2021-02-20T14:07:19.000Z</time>
      </trkpt>
      <trkpt lat="45.85894" lon="5.49127">
        <ele>1018.8</ele>
        <time>2021-02-20T14:07:20.000Z</time>
      </trkpt>
      <trkpt lat="45.85894" lon="5.49124">
        <ele>1019</ele>
        <time>2021-02-20T14:07:21.000Z</time>
      </trkpt>
      <trkpt lat="45.85894" lon="5.49121">
        <ele>1019</ele>
        <time>2021-02-20T14:07:22.000Z</time>
      </trkpt>
      <trkpt lat="45.85894" lon="5.49117">
        <ele>1019</ele>
        <time>2021-02-20T14:07:23.000Z</time>
      </trkpt>
      <trkpt lat="45.85894" lon="5.49114">
        <ele>1019.4</ele>
        <time>2021-02-20T14:07:24.000Z</time>
      </trkpt>
      <trkpt lat="45.85895" lon="5.49111">
        <ele>1019.6</ele>
        <time>2021-02-20T14:07:25.000Z</time>
      </trkpt>
      <trkpt lat="45.85895" lon="5.49107">
        <ele>1019.6</ele>
        <time>2021-02-20T14:07:26.000Z</time>
      </trkpt>
      <trkpt lat="45.85895" lon="5.49105">
        <ele>1020</ele>
        <time>2021-02-20T14:07:27.000Z</time>
      </trkpt>
      <trkpt lat="45.85895" lon="5.49102">
        <ele>1020</ele>
        <time>2021-02-20T14:07:28.000Z</time>
      </trkpt>
      <trkpt lat="45.85895" lon="5.491">
        <ele>1020.4</ele>
        <time>2021-02-20T14:07:29.000Z</time>
      </trkpt>
      <trkpt lat="45.85896" lon="5.49096">
        <ele>1020.6</ele>
        <time>2021-02-20T14:07:30.000Z</time>
      </trkpt>
      <trkpt lat="45.85896" lon="5.49093">
        <ele>1021</ele>
        <time>2021-02-20T14:07:31.000Z</time>
      </trkpt>
      <trkpt lat="45.85895" lon="5.4909">
        <ele>1021.4</ele>
        <time>2021-02-20T14:07:32.000Z</time>
      </trkpt>
      <trkpt lat="45.85895" lon="5.49088">
        <ele>1021.4</ele>
        <time>2021-02-20T14:07:33.000Z</time>
      </trkpt>
      <trkpt lat="45.85895" lon="5.49085">
        <ele>1022</ele>
        <time>2021-02-20T14:07:34.000Z</time>
      </trkpt>
      <trkpt lat="45.85895" lon="5.49082">
        <ele>1022.2</ele>
        <time>2021-02-20T14:07:35.000Z</time>
      </trkpt>
      <trkpt lat="45.85895" lon="5.49079">
        <ele>1022.6</ele>
        <time>2021-02-20T14:07:36.000Z</time>
      </trkpt>
      <trkpt lat="45.85895" lon="5.49076">
        <ele>1022.6</ele>
        <time>2021-02-20T14:07:37.000Z</time>
      </trkpt>
      <trkpt lat="45.85895" lon="5.49074">
        <ele>1022.8</ele>
        <time>2021-02-20T14:07:38.000Z</time>
      </trkpt>
      <trkpt lat="45.85894" lon="5.49072">
        <ele>1023</ele>
        <time>2021-02-20T14:07:39.000Z</time>
      </trkpt>
      <trkpt lat="45.85893" lon="5.49072">
        <ele>1023.2</ele>
        <time>2021-02-20T14:07:40.000Z</time>
      </trkpt>
      <trkpt lat="45.85892" lon="5.49071">
        <ele>1023.6</ele>
        <time>2021-02-20T14:07:41.000Z</time>
      </trkpt>
      <trkpt lat="45.85891" lon="5.4907">
        <ele>1023.8</ele>
        <time>2021-02-20T14:07:42.000Z</time>
      </trkpt>
      <trkpt lat="45.85891" lon="5.49068">
        <ele>1023.8</ele>
        <time>2021-02-20T14:07:43.000Z</time>
      </trkpt>
      <trkpt lat="45.8589" lon="5.49067">
        <ele>1024</ele>
        <time>2021-02-20T14:07:44.000Z</time>
      </trkpt>
      <trkpt lat="45.8589" lon="5.49064">
        <ele>1024.2</ele>
        <time>2021-02-20T14:07:45.000Z</time>
      </trkpt>
      <trkpt lat="45.85889" lon="5.49061">
        <ele>1024.4</ele>
        <time>2021-02-20T14:07:46.000Z</time>
      </trkpt>
      <trkpt lat="45.85889" lon="5.49059">
        <ele>1024.4</ele>
        <time>2021-02-20T14:07:47.000Z</time>
      </trkpt>
      <trkpt lat="45.85888" lon="5.49056">
        <ele>1024.6</ele>
        <time>2021-02-20T14:07:48.000Z</time>
      </trkpt>
      <trkpt lat="45.85888" lon="5.49053">
        <ele>1024.8</ele>
        <time>2021-02-20T14:07:49.000Z</time>
      </trkpt>
      <trkpt lat="45.85888" lon="5.4905">
        <ele>1025</ele>
        <time>2021-02-20T14:07:50.000Z</time>
      </trkpt>
      <trkpt lat="45.85888" lon="5.49047">
        <ele>1025</ele>
        <time>2021-02-20T14:07:51.000Z</time>
      </trkpt>
      <trkpt lat="45.85888" lon="5.49045">
        <ele>1025</ele>
        <time>2021-02-20T14:07:52.000Z</time>
      </trkpt>
      <trkpt lat="45.85887" lon="5.49043">
        <ele>1025.2</ele>
        <time>2021-02-20T14:07:53.000Z</time>
      </trkpt>
      <trkpt lat="45.85887" lon="5.4904">
        <ele>1025.2</ele>
        <time>2021-02-20T14:07:54.000Z</time>
      </trkpt>
      <trkpt lat="45.85886" lon="5.49038">
        <ele>1025.8</ele>
        <time>2021-02-20T14:07:55.000Z</time>
      </trkpt>
      <trkpt lat="45.85885" lon="5.49035">
        <ele>1025.8</ele>
        <time>2021-02-20T14:07:56.000Z</time>
      </trkpt>
      <trkpt lat="45.85884" lon="5.49032">
        <ele>1025.8</ele>
        <time>2021-02-20T14:07:57.000Z</time>
      </trkpt>
      <trkpt lat="45.85882" lon="5.4903">
        <ele>1026</ele>
        <time>2021-02-20T14:07:58.000Z</time>
      </trkpt>
      <trkpt lat="45.8588" lon="5.4903">
        <ele>1026</ele>
        <time>2021-02-20T14:07:59.000Z</time>
      </trkpt>
      <trkpt lat="45.85877" lon="5.49029">
        <ele>1026</ele>
        <time>2021-02-20T14:08:00.000Z</time>
      </trkpt>
      <trkpt lat="45.85875" lon="5.49029">
        <ele>1026.2</ele>
        <time>2021-02-20T14:08:01.000Z</time>
      </trkpt>
      <trkpt lat="45.85873" lon="5.49029">
        <ele>1026</ele>
        <time>2021-02-20T14:08:02.000Z</time>
      </trkpt>
      <trkpt lat="45.8587" lon="5.4903">
        <ele>1026.2</ele>
        <time>2021-02-20T14:08:03.000Z</time>
      </trkpt>
      <trkpt lat="45.85868" lon="5.4903">
        <ele>1026.2</ele>
        <time>2021-02-20T14:08:04.000Z</time>
      </trkpt>
      <trkpt lat="45.85867" lon="5.4903">
        <ele>1026.2</ele>
        <time>2021-02-20T14:08:05.000Z</time>
      </trkpt>
      <trkpt lat="45.85865" lon="5.49031">
        <ele>1026.2</ele>
        <time>2021-02-20T14:08:06.000Z</time>
      </trkpt>
      <trkpt lat="45.85861" lon="5.49034">
        <ele>1026.4</ele>
        <time>2021-02-20T14:08:08.000Z</time>
      </trkpt>
      <trkpt lat="45.85859" lon="5.49036">
        <ele>1026.4</ele>
        <time>2021-02-20T14:08:09.000Z</time>
      </trkpt>
      <trkpt lat="45.85857" lon="5.49037">
        <ele>1026.4</ele>
        <time>2021-02-20T14:08:10.000Z</time>
      </trkpt>
      <trkpt lat="45.85856" lon="5.49039">
        <ele>1026.4</ele>
        <time>2021-02-20T14:08:11.000Z</time>
      </trkpt>
      <trkpt lat="45.85854" lon="5.49041">
        <ele>1026.4</ele>
        <time>2021-02-20T14:08:12.000Z</time>
      </trkpt>
      <trkpt lat="45.85852" lon="5.49042">
        <ele>1026.4</ele>
        <time>2021-02-20T14:08:13.000Z</time>
      </trkpt>
      <trkpt lat="45.8585" lon="5.49044">
        <ele>1026.4</ele>
        <time>2021-02-20T14:08:14.000Z</time>
      </trkpt>
      <trkpt lat="45.85848" lon="5.49046">
        <ele>1026.8</ele>
        <time>2021-02-20T14:08:15.000Z</time>
      </trkpt>
      <trkpt lat="45.85846" lon="5.49049">
        <ele>1026.8</ele>
        <time>2021-02-20T14:08:16.000Z</time>
      </trkpt>
      <trkpt lat="45.85844" lon="5.49051">
        <ele>1026.8</ele>
        <time>2021-02-20T14:08:17.000Z</time>
      </trkpt>
      <trkpt lat="45.85842" lon="5.49052">
        <ele>1027.2</ele>
        <time>2021-02-20T14:08:18.000Z</time>
      </trkpt>
      <trkpt lat="45.8584" lon="5.49053">
        <ele>1027.2</ele>
        <time>2021-02-20T14:08:19.000Z</time>
      </trkpt>
      <trkpt lat="45.85839" lon="5.49054">
        <ele>1027.4</ele>
        <time>2021-02-20T14:08:20.000Z</time>
      </trkpt>
      <trkpt lat="45.85837" lon="5.49056">
        <ele>1027.6</ele>
        <time>2021-02-20T14:08:21.000Z</time>
      </trkpt>
      <trkpt lat="45.85835" lon="5.49057">
        <ele>1027.8</ele>
        <time>2021-02-20T14:08:22.000Z</time>
      </trkpt>
      <trkpt lat="45.85834" lon="5.49059">
        <ele>1028.2</ele>
        <time>2021-02-20T14:08:23.000Z</time>
      </trkpt>
      <trkpt lat="45.85832" lon="5.4906">
        <ele>1028.4</ele>
        <time>2021-02-20T14:08:24.000Z</time>
      </trkpt>
      <trkpt lat="45.85829" lon="5.49062">
        <ele>1028.4</ele>
        <time>2021-02-20T14:08:25.000Z</time>
      </trkpt>
      <trkpt lat="45.85828" lon="5.49064">
        <ele>1028.6</ele>
        <time>2021-02-20T14:08:26.000Z</time>
      </trkpt>
      <trkpt lat="45.85826" lon="5.49067">
        <ele>1028.6</ele>
        <time>2021-02-20T14:08:27.000Z</time>
      </trkpt>
      <trkpt lat="45.85824" lon="5.49069">
        <ele>1028.8</ele>
        <time>2021-02-20T14:08:28.000Z</time>
      </trkpt>
      <trkpt lat="45.85822" lon="5.49071">
        <ele>1028.8</ele>
        <time>2021-02-20T14:08:29.000Z</time>
      </trkpt>
      <trkpt lat="45.8582" lon="5.49073">
        <ele>1029</ele>
        <time>2021-02-20T14:08:30.000Z</time>
      </trkpt>
      <trkpt lat="45.85818" lon="5.49075">
        <ele>1029</ele>
        <time>2021-02-20T14:08:31.000Z</time>
      </trkpt>
      <trkpt lat="45.85815" lon="5.49077">
        <ele>1029</ele>
        <time>2021-02-20T14:08:32.000Z</time>
      </trkpt>
      <trkpt lat="45.85813" lon="5.49078">
        <ele>1029</ele>
        <time>2021-02-20T14:08:33.000Z</time>
      </trkpt>
      <trkpt lat="45.85801" lon="5.4908">
        <ele>1029</ele>
        <time>2021-02-20T14:08:37.000Z</time>
      </trkpt>
      <trkpt lat="45.85796" lon="5.49085">
        <ele>1029.2</ele>
        <time>2021-02-20T14:08:39.000Z</time>
      </trkpt>
      <trkpt lat="45.85793" lon="5.49088">
        <ele>1029.4</ele>
        <time>2021-02-20T14:08:40.000Z</time>
      </trkpt>
      <trkpt lat="45.85791" lon="5.4909">
        <ele>1029.2</ele>
        <time>2021-02-20T14:08:41.000Z</time>
      </trkpt>
      <trkpt lat="45.85789" lon="5.49093">
        <ele>1029.2</ele>
        <time>2021-02-20T14:08:42.000Z</time>
      </trkpt>
      <trkpt lat="45.85787" lon="5.49095">
        <ele>1029.4</ele>
        <time>2021-02-20T14:08:43.000Z</time>
      </trkpt>
      <trkpt lat="45.85785" lon="5.49098">
        <ele>1029.4</ele>
        <time>2021-02-20T14:08:44.000Z</time>
      </trkpt>
      <trkpt lat="45.85777" lon="5.4911">
        <ele>1029.6</ele>
        <time>2021-02-20T14:08:48.000Z</time>
      </trkpt>
      <trkpt lat="45.85775" lon="5.49113">
        <ele>1029.8</ele>
        <time>2021-02-20T14:08:49.000Z</time>
      </trkpt>
      <trkpt lat="45.85773" lon="5.49115">
        <ele>1029.8</ele>
        <time>2021-02-20T14:08:50.000Z</time>
      </trkpt>
      <trkpt lat="45.85772" lon="5.49117">
        <ele>1029.6</ele>
        <time>2021-02-20T14:08:51.000Z</time>
      </trkpt>
      <trkpt lat="45.8577" lon="5.49119">
        <ele>1029.6</ele>
        <time>2021-02-20T14:08:52.000Z</time>
      </trkpt>
      <trkpt lat="45.85769" lon="5.4912">
        <ele>1030</ele>
        <time>2021-02-20T14:08:53.000Z</time>
      </trkpt>
      <trkpt lat="45.85767" lon="5.49122">
        <ele>1030.2</ele>
        <time>2021-02-20T14:08:54.000Z</time>
      </trkpt>
      <trkpt lat="45.85765" lon="5.49125">
        <ele>1030.4</ele>
        <time>2021-02-20T14:08:55.000Z</time>
      </trkpt>
      <trkpt lat="45.85763" lon="5.49127">
        <ele>1030.4</ele>
        <time>2021-02-20T14:08:56.000Z</time>
      </trkpt>
      <trkpt lat="45.85762" lon="5.49129">
        <ele>1030.8</ele>
        <time>2021-02-20T14:08:57.000Z</time>
      </trkpt>
      <trkpt lat="45.8576" lon="5.49131">
        <ele>1030.8</ele>
        <time>2021-02-20T14:08:58.000Z</time>
      </trkpt>
      <trkpt lat="45.85758" lon="5.49133">
        <ele>1031.2</ele>
        <time>2021-02-20T14:08:59.000Z</time>
      </trkpt>
      <trkpt lat="45.85756" lon="5.49136">
        <ele>1031.4</ele>
        <time>2021-02-20T14:09:00.000Z</time>
      </trkpt>
      <trkpt lat="45.85755" lon="5.49138">
        <ele>1031.6</ele>
        <time>2021-02-20T14:09:01.000Z</time>
      </trkpt>
      <trkpt lat="45.85753" lon="5.49141">
        <ele>1032</ele>
        <time>2021-02-20T14:09:02.000Z</time>
      </trkpt>
      <trkpt lat="45.85751" lon="5.49143">
        <ele>1032</ele>
        <time>2021-02-20T14:09:03.000Z</time>
      </trkpt>
      <trkpt lat="45.85749" lon="5.49145">
        <ele>1032</ele>
        <time>2021-02-20T14:09:04.000Z</time>
      </trkpt>
      <trkpt lat="45.85748" lon="5.49147">
        <ele>1032.4</ele>
        <time>2021-02-20T14:09:05.000Z</time>
      </trkpt>
      <trkpt lat="45.85747" lon="5.49149">
        <ele>1032.6</ele>
        <time>2021-02-20T14:09:06.000Z</time>
      </trkpt>
      <trkpt lat="45.85746" lon="5.49151">
        <ele>1032.8</ele>
        <time>2021-02-20T14:09:07.000Z</time>
      </trkpt>
      <trkpt lat="45.85745" lon="5.49153">
        <ele>1032.8</ele>
        <time>2021-02-20T14:09:08.000Z</time>
      </trkpt>
      <trkpt lat="45.85743" lon="5.49154">
        <ele>1033</ele>
        <time>2021-02-20T14:09:09.000Z</time>
      </trkpt>
      <trkpt lat="45.85742" lon="5.49155">
        <ele>1033.2</ele>
        <time>2021-02-20T14:09:10.000Z</time>
      </trkpt>
      <trkpt lat="45.85742" lon="5.49156">
        <ele>1033.4</ele>
        <time>2021-02-20T14:09:11.000Z</time>
      </trkpt>
      <trkpt lat="45.85741" lon="5.49157">
        <ele>1033.8</ele>
        <time>2021-02-20T14:09:12.000Z</time>
      </trkpt>
      <trkpt lat="45.85741" lon="5.49158">
        <ele>1034.2</ele>
        <time>2021-02-20T14:09:13.000Z</time>
      </trkpt>
      <trkpt lat="45.85741" lon="5.49159">
        <ele>1034.6</ele>
        <time>2021-02-20T14:09:14.000Z</time>
      </trkpt>
      <trkpt lat="45.85745" lon="5.49149">
        <ele>1038.2</ele>
        <time>2021-02-20T14:16:15.000Z</time>
      </trkpt>
      <trkpt lat="45.85747" lon="5.49147">
        <ele>1038.4</ele>
        <time>2021-02-20T14:16:16.000Z</time>
      </trkpt>
      <trkpt lat="45.85749" lon="5.49145">
        <ele>1038.4</ele>
        <time>2021-02-20T14:16:17.000Z</time>
      </trkpt>
      <trkpt lat="45.85756" lon="5.49137">
        <ele>1038.4</ele>
        <time>2021-02-20T14:16:20.000Z</time>
      </trkpt>
      <trkpt lat="45.85758" lon="5.49134">
        <ele>1038.2</ele>
        <time>2021-02-20T14:16:21.000Z</time>
      </trkpt>
      <trkpt lat="45.8576" lon="5.4913">
        <ele>1038</ele>
        <time>2021-02-20T14:16:22.000Z</time>
      </trkpt>
      <trkpt lat="45.85778" lon="5.49106">
        <ele>1036.4</ele>
        <time>2021-02-20T14:16:28.000Z</time>
      </trkpt>
      <trkpt lat="45.85781" lon="5.49102">
        <ele>1035.8</ele>
        <time>2021-02-20T14:16:29.000Z</time>
      </trkpt>
      <trkpt lat="45.85784" lon="5.49098">
        <ele>1035.4</ele>
        <time>2021-02-20T14:16:30.000Z</time>
      </trkpt>
      <trkpt lat="45.85787" lon="5.49094">
        <ele>1035</ele>
        <time>2021-02-20T14:16:31.000Z</time>
      </trkpt>
      <trkpt lat="45.85805" lon="5.49071">
        <ele>1033.8</ele>
        <time>2021-02-20T14:16:36.000Z</time>
      </trkpt>
      <trkpt lat="45.85809" lon="5.49066">
        <ele>1033.6</ele>
        <time>2021-02-20T14:16:37.000Z</time>
      </trkpt>
      <trkpt lat="45.85812" lon="5.49062">
        <ele>1033.4</ele>
        <time>2021-02-20T14:16:38.000Z</time>
      </trkpt>
      <trkpt lat="45.85816" lon="5.49057">
        <ele>1033.2</ele>
        <time>2021-02-20T14:16:39.000Z</time>
      </trkpt>
      <trkpt lat="45.85828" lon="5.49045">
        <ele>1033</ele>
        <time>2021-02-20T14:16:42.000Z</time>
      </trkpt>
      <trkpt lat="45.85832" lon="5.49041">
        <ele>1032.6</ele>
        <time>2021-02-20T14:16:43.000Z</time>
      </trkpt>
      <trkpt lat="45.85839" lon="5.49038">
        <ele>1032.4</ele>
        <time>2021-02-20T14:16:45.000Z</time>
      </trkpt>
      <trkpt lat="45.85842" lon="5.49038">
        <ele>1032.2</ele>
        <time>2021-02-20T14:16:46.000Z</time>
      </trkpt>
      <trkpt lat="45.85845" lon="5.49038">
        <ele>1032.2</ele>
        <time>2021-02-20T14:16:47.000Z</time>
      </trkpt>
      <trkpt lat="45.85848" lon="5.49038">
        <ele>1032</ele>
        <time>2021-02-20T14:16:48.000Z</time>
      </trkpt>
      <trkpt lat="45.8585" lon="5.49037">
        <ele>1031.6</ele>
        <time>2021-02-20T14:16:49.000Z</time>
      </trkpt>
      <trkpt lat="45.85853" lon="5.49037">
        <ele>1031.4</ele>
        <time>2021-02-20T14:16:50.000Z</time>
      </trkpt>
      <trkpt lat="45.85856" lon="5.49035">
        <ele>1031.2</ele>
        <time>2021-02-20T14:16:51.000Z</time>
      </trkpt>
      <trkpt lat="45.85858" lon="5.49034">
        <ele>1031</ele>
        <time>2021-02-20T14:16:52.000Z</time>
      </trkpt>
      <trkpt lat="45.85861" lon="5.49032">
        <ele>1031</ele>
        <time>2021-02-20T14:16:53.000Z</time>
      </trkpt>
      <trkpt lat="45.85867" lon="5.49027">
        <ele>1030.8</ele>
        <time>2021-02-20T14:16:55.000Z</time>
      </trkpt>
      <trkpt lat="45.85871" lon="5.49025">
        <ele>1030.6</ele>
        <time>2021-02-20T14:16:56.000Z</time>
      </trkpt>
      <trkpt lat="45.85883" lon="5.49022">
        <ele>1030.6</ele>
        <time>2021-02-20T14:16:59.000Z</time>
      </trkpt>
      <trkpt lat="45.85891" lon="5.49019">
        <ele>1030.2</ele>
        <time>2021-02-20T14:17:01.000Z</time>
      </trkpt>
      <trkpt lat="45.85899" lon="5.49014">
        <ele>1029.8</ele>
        <time>2021-02-20T14:17:03.000Z</time>
      </trkpt>
      <trkpt lat="45.85902" lon="5.49011">
        <ele>1029.4</ele>
        <time>2021-02-20T14:17:04.000Z</time>
      </trkpt>
      <trkpt lat="45.85904" lon="5.49008">
        <ele>1029.4</ele>
        <time>2021-02-20T14:17:05.000Z</time>
      </trkpt>
      <trkpt lat="45.85907" lon="5.49004">
        <ele>1029.4</ele>
        <time>2021-02-20T14:17:06.000Z</time>
      </trkpt>
      <trkpt lat="45.85908" lon="5.49002">
        <ele>1029.2</ele>
        <time>2021-02-20T14:17:07.000Z</time>
      </trkpt>
      <trkpt lat="45.8591" lon="5.49">
        <ele>1029.2</ele>
        <time>2021-02-20T14:17:08.000Z</time>
      </trkpt>
      <trkpt lat="45.85911" lon="5.48997">
        <ele>1028.8</ele>
        <time>2021-02-20T14:17:09.000Z</time>
      </trkpt>
      <trkpt lat="45.85912" lon="5.48995">
        <ele>1028.6</ele>
        <time>2021-02-20T14:17:10.000Z</time>
      </trkpt>
      <trkpt lat="45.85912" lon="5.48993">
        <ele>1027.8</ele>
        <time>2021-02-20T14:17:11.000Z</time>
      </trkpt>
      <trkpt lat="45.85912" lon="5.48992">
        <ele>1027.4</ele>
        <time>2021-02-20T14:17:12.000Z</time>
      </trkpt>
      <trkpt lat="45.85912" lon="5.4899">
        <ele>1027</ele>
        <time>2021-02-20T14:17:13.000Z</time>
      </trkpt>
      <trkpt lat="45.85912" lon="5.48989">
        <ele>1026.8</ele>
        <time>2021-02-20T14:17:14.000Z</time>
      </trkpt>
      <trkpt lat="45.85912" lon="5.48988">
        <ele>1026.2</ele>
        <time>2021-02-20T14:17:15.000Z</time>
      </trkpt>
      <trkpt lat="45.85912" lon="5.48983">
        <ele>1025.4</ele>
        <time>2021-02-20T14:17:18.000Z</time>
      </trkpt>
      <trkpt lat="45.85913" lon="5.4898">
        <ele>1025.4</ele>
        <time>2021-02-20T14:17:19.000Z</time>
      </trkpt>
      <trkpt lat="45.85914" lon="5.48978">
        <ele>1025.4</ele>
        <time>2021-02-20T14:17:20.000Z</time>
      </trkpt>
      <trkpt lat="45.85923" lon="5.48962">
        <ele>1025.2</ele>
        <time>2021-02-20T14:17:25.000Z</time>
      </trkpt>
      <trkpt lat="45.85941" lon="5.48938">
        <ele>1025.2</ele>
        <time>2021-02-20T14:17:30.000Z</time>
      </trkpt>
      <trkpt lat="45.85944" lon="5.48934">
        <ele>1025.2</ele>
        <time>2021-02-20T14:17:31.000Z</time>
      </trkpt>
      <trkpt lat="45.85947" lon="5.4893">
        <ele>1024.8</ele>
        <time>2021-02-20T14:17:32.000Z</time>
      </trkpt>
      <trkpt lat="45.8595" lon="5.48926">
        <ele>1024.8</ele>
        <time>2021-02-20T14:17:33.000Z</time>
      </trkpt>
      <trkpt lat="45.85953" lon="5.48922">
        <ele>1024.8</ele>
        <time>2021-02-20T14:17:34.000Z</time>
      </trkpt>
      <trkpt lat="45.85955" lon="5.48919">
        <ele>1024.6</ele>
        <time>2021-02-20T14:17:35.000Z</time>
      </trkpt>
      <trkpt lat="45.85957" lon="5.48916">
        <ele>1024.6</ele>
        <time>2021-02-20T14:17:36.000Z</time>
      </trkpt>
      <trkpt lat="45.85959" lon="5.48913">
        <ele>1024.6</ele>
        <time>2021-02-20T14:17:37.000Z</time>
      </trkpt>
      <trkpt lat="45.85964" lon="5.48906">
        <ele>1024.6</ele>
        <time>2021-02-20T14:17:39.000Z</time>
      </trkpt>
      <trkpt lat="45.85968" lon="5.489">
        <ele>1024.6</ele>
        <time>2021-02-20T14:17:41.000Z</time>
      </trkpt>
      <trkpt lat="45.85973" lon="5.48893">
        <ele>1025</ele>
        <time>2021-02-20T14:17:43.000Z</time>
      </trkpt>
      <trkpt lat="45.85975" lon="5.4889">
        <ele>1025.6</ele>
        <time>2021-02-20T14:17:44.000Z</time>
      </trkpt>
      <trkpt lat="45.85977" lon="5.48887">
        <ele>1025.6</ele>
        <time>2021-02-20T14:17:45.000Z</time>
      </trkpt>
      <trkpt lat="45.8598" lon="5.48884">
        <ele>1025.6</ele>
        <time>2021-02-20T14:17:46.000Z</time>
      </trkpt>
      <trkpt lat="45.8599" lon="5.48872">
        <ele>1026.6</ele>
        <time>2021-02-20T14:17:50.000Z</time>
      </trkpt>
      <trkpt lat="45.85993" lon="5.4887">
        <ele>1026.6</ele>
        <time>2021-02-20T14:17:51.000Z</time>
      </trkpt>
      <trkpt lat="45.86006" lon="5.48863">
        <ele>1026.6</ele>
        <time>2021-02-20T14:17:55.000Z</time>
      </trkpt>
      <trkpt lat="45.86015" lon="5.48855">
        <ele>1026.6</ele>
        <time>2021-02-20T14:17:58.000Z</time>
      </trkpt>
      <trkpt lat="45.86018" lon="5.48853">
        <ele>1026.8</ele>
        <time>2021-02-20T14:17:59.000Z</time>
      </trkpt>
      <trkpt lat="45.86021" lon="5.4885">
        <ele>1026.6</ele>
        <time>2021-02-20T14:18:00.000Z</time>
      </trkpt>
      <trkpt lat="45.86024" lon="5.48848">
        <ele>1026.8</ele>
        <time>2021-02-20T14:18:01.000Z</time>
      </trkpt>
      <trkpt lat="45.86031" lon="5.4884">
        <ele>1026.4</ele>
        <time>2021-02-20T14:18:04.000Z</time>
      </trkpt>
      <trkpt lat="45.86033" lon="5.48837">
        <ele>1026.4</ele>
        <time>2021-02-20T14:18:05.000Z</time>
      </trkpt>
      <trkpt lat="45.86041" lon="5.4883">
        <ele>1026.4</ele>
        <time>2021-02-20T14:18:08.000Z</time>
      </trkpt>
      <trkpt lat="45.86044" lon="5.48828">
        <ele>1026.2</ele>
        <time>2021-02-20T14:18:09.000Z</time>
      </trkpt>
      <trkpt lat="45.86051" lon="5.48826">
        <ele>1026</ele>
        <time>2021-02-20T14:18:11.000Z</time>
      </trkpt>
      <trkpt lat="45.86055" lon="5.48826">
        <ele>1025.8</ele>
        <time>2021-02-20T14:18:12.000Z</time>
      </trkpt>
      <trkpt lat="45.86058" lon="5.48825">
        <ele>1025.8</ele>
        <time>2021-02-20T14:18:13.000Z</time>
      </trkpt>
      <trkpt lat="45.86062" lon="5.48824">
        <ele>1025.8</ele>
        <time>2021-02-20T14:18:14.000Z</time>
      </trkpt>
      <trkpt lat="45.86066" lon="5.48822">
        <ele>1025.4</ele>
        <time>2021-02-20T14:18:15.000Z</time>
      </trkpt>
      <trkpt lat="45.8607" lon="5.4882">
        <ele>1025.2</ele>
        <time>2021-02-20T14:18:16.000Z</time>
      </trkpt>
      <trkpt lat="45.86074" lon="5.48817">
        <ele>1025</ele>
        <time>2021-02-20T14:18:17.000Z</time>
      </trkpt>
      <trkpt lat="45.86089" lon="5.48806">
        <ele>1024.2</ele>
        <time>2021-02-20T14:18:20.000Z</time>
      </trkpt>
      <trkpt lat="45.86093" lon="5.48802">
        <ele>1024</ele>
        <time>2021-02-20T14:18:21.000Z</time>
      </trkpt>
      <trkpt lat="45.86097" lon="5.48799">
        <ele>1024</ele>
        <time>2021-02-20T14:18:22.000Z</time>
      </trkpt>
      <trkpt lat="45.86101" lon="5.48795">
        <ele>1023.8</ele>
        <time>2021-02-20T14:18:23.000Z</time>
      </trkpt>
      <trkpt lat="45.86106" lon="5.48791">
        <ele>1023</ele>
        <time>2021-02-20T14:18:24.000Z</time>
      </trkpt>
      <trkpt lat="45.8611" lon="5.48788">
        <ele>1022.2</ele>
        <time>2021-02-20T14:18:25.000Z</time>
      </trkpt>
      <trkpt lat="45.86113" lon="5.48784">
        <ele>1021.8</ele>
        <time>2021-02-20T14:18:26.000Z</time>
      </trkpt>
      <trkpt lat="45.86117" lon="5.48781">
        <ele>1021.4</ele>
        <time>2021-02-20T14:18:27.000Z</time>
      </trkpt>
      <trkpt lat="45.86125" lon="5.48775">
        <ele>1021.2</ele>
        <time>2021-02-20T14:18:29.000Z</time>
      </trkpt>
      <trkpt lat="45.86129" lon="5.48772">
        <ele>1021</ele>
        <time>2021-02-20T14:18:30.000Z</time>
      </trkpt>
      <trkpt lat="45.86132" lon="5.48769">
        <ele>1021</ele>
        <time>2021-02-20T14:18:31.000Z</time>
      </trkpt>
      <trkpt lat="45.8614" lon="5.48765">
        <ele>1020.6</ele>
        <time>2021-02-20T14:18:33.000Z</time>
      </trkpt>
      <trkpt lat="45.86143" lon="5.48763">
        <ele>1020.4</ele>
        <time>2021-02-20T14:18:34.000Z</time>
      </trkpt>
      <trkpt lat="45.86146" lon="5.4876">
        <ele>1020.4</ele>
        <time>2021-02-20T14:18:35.000Z</time>
      </trkpt>
      <trkpt lat="45.8615" lon="5.48759">
        <ele>1020.2</ele>
        <time>2021-02-20T14:18:36.000Z</time>
      </trkpt>
      <trkpt lat="45.86154" lon="5.48757">
        <ele>1020.2</ele>
        <time>2021-02-20T14:18:37.000Z</time>
      </trkpt>
      <trkpt lat="45.86157" lon="5.48754">
        <ele>1020.2</ele>
        <time>2021-02-20T14:18:38.000Z</time>
      </trkpt>
      <trkpt lat="45.86162" lon="5.4875">
        <ele>1020.2</ele>
        <time>2021-02-20T14:18:40.000Z</time>
      </trkpt>
      <trkpt lat="45.86164" lon="5.48747">
        <ele>1020.2</ele>
        <time>2021-02-20T14:18:41.000Z</time>
      </trkpt>
      <trkpt lat="45.86165" lon="5.48744">
        <ele>1020.4</ele>
        <time>2021-02-20T14:18:42.000Z</time>
      </trkpt>
      <trkpt lat="45.86166" lon="5.4874">
        <ele>1020.4</ele>
        <time>2021-02-20T14:18:43.000Z</time>
      </trkpt>
      <trkpt lat="45.8617" lon="5.48732">
        <ele>1020.4</ele>
        <time>2021-02-20T14:18:45.000Z</time>
      </trkpt>
      <trkpt lat="45.86177" lon="5.48718">
        <ele>1020.2</ele>
        <time>2021-02-20T14:18:48.000Z</time>
      </trkpt>
      <trkpt lat="45.86183" lon="5.48709">
        <ele>1020</ele>
        <time>2021-02-20T14:18:50.000Z</time>
      </trkpt>
      <trkpt lat="45.86186" lon="5.48704">
        <ele>1020</ele>
        <time>2021-02-20T14:18:51.000Z</time>
      </trkpt>
      <trkpt lat="45.8619" lon="5.48698">
        <ele>1020</ele>
        <time>2021-02-20T14:18:52.000Z</time>
      </trkpt>
      <trkpt lat="45.86204" lon="5.48682">
        <ele>1019.2</ele>
        <time>2021-02-20T14:18:55.000Z</time>
      </trkpt>
      <trkpt lat="45.86209" lon="5.48677">
        <ele>1018.8</ele>
        <time>2021-02-20T14:18:56.000Z</time>
      </trkpt>
      <trkpt lat="45.86213" lon="5.48671">
        <ele>1018.6</ele>
        <time>2021-02-20T14:18:57.000Z</time>
      </trkpt>
      <trkpt lat="45.86221" lon="5.48661">
        <ele>1018.2</ele>
        <time>2021-02-20T14:18:59.000Z</time>
      </trkpt>
      <trkpt lat="45.86224" lon="5.48656">
        <ele>1017.8</ele>
        <time>2021-02-20T14:19:00.000Z</time>
      </trkpt>
      <trkpt lat="45.86228" lon="5.48652">
        <ele>1017.4</ele>
        <time>2021-02-20T14:19:01.000Z</time>
      </trkpt>
      <trkpt lat="45.86231" lon="5.48648">
        <ele>1017.2</ele>
        <time>2021-02-20T14:19:02.000Z</time>
      </trkpt>
      <trkpt lat="45.86234" lon="5.48643">
        <ele>1017</ele>
        <time>2021-02-20T14:19:03.000Z</time>
      </trkpt>
      <trkpt lat="45.86236" lon="5.48639">
        <ele>1016.8</ele>
        <time>2021-02-20T14:19:04.000Z</time>
      </trkpt>
      <trkpt lat="45.86243" lon="5.48629">
        <ele>1016.6</ele>
        <time>2021-02-20T14:19:06.000Z</time>
      </trkpt>
      <trkpt lat="45.86246" lon="5.48625">
        <ele>1016.6</ele>
        <time>2021-02-20T14:19:07.000Z</time>
      </trkpt>
      <trkpt lat="45.86248" lon="5.48622">
        <ele>1016.6</ele>
        <time>2021-02-20T14:19:08.000Z</time>
      </trkpt>
      <trkpt lat="45.8625" lon="5.48618">
        <ele>1016.6</ele>
        <time>2021-02-20T14:19:09.000Z</time>
      </trkpt>
      <trkpt lat="45.86253" lon="5.48615">
        <ele>1016.2</ele>
        <time>2021-02-20T14:19:10.000Z</time>
      </trkpt>
      <trkpt lat="45.86259" lon="5.48609">
        <ele>1016</ele>
        <time>2021-02-20T14:19:13.000Z</time>
      </trkpt>
      <trkpt lat="45.86273" lon="5.48589">
        <ele>1015.6</ele>
        <time>2021-02-20T14:19:19.000Z</time>
      </trkpt>
      <trkpt lat="45.8628" lon="5.4858">
        <ele>1015.6</ele>
        <time>2021-02-20T14:19:21.000Z</time>
      </trkpt>
      <trkpt lat="45.86293" lon="5.48563">
        <ele>1015.6</ele>
        <time>2021-02-20T14:19:25.000Z</time>
      </trkpt>
      <trkpt lat="45.86296" lon="5.48559">
        <ele>1015.4</ele>
        <time>2021-02-20T14:19:26.000Z</time>
      </trkpt>
      <trkpt lat="45.86299" lon="5.48556">
        <ele>1015.4</ele>
        <time>2021-02-20T14:19:27.000Z</time>
      </trkpt>
      <trkpt lat="45.86302" lon="5.48553">
        <ele>1015.4</ele>
        <time>2021-02-20T14:19:28.000Z</time>
      </trkpt>
      <trkpt lat="45.86305" lon="5.48549">
        <ele>1015.4</ele>
        <time>2021-02-20T14:19:29.000Z</time>
      </trkpt>
      <trkpt lat="45.86307" lon="5.48545">
        <ele>1015</ele>
        <time>2021-02-20T14:19:30.000Z</time>
      </trkpt>
      <trkpt lat="45.86309" lon="5.48541">
        <ele>1014.4</ele>
        <time>2021-02-20T14:19:31.000Z</time>
      </trkpt>
      <trkpt lat="45.86312" lon="5.48537">
        <ele>1014</ele>
        <time>2021-02-20T14:19:32.000Z</time>
      </trkpt>
      <trkpt lat="45.86326" lon="5.48516">
        <ele>1013.2</ele>
        <time>2021-02-20T14:19:37.000Z</time>
      </trkpt>
      <trkpt lat="45.8633" lon="5.48511">
        <ele>1013.2</ele>
        <time>2021-02-20T14:19:38.000Z</time>
      </trkpt>
      <trkpt lat="45.86335" lon="5.48506">
        <ele>1013</ele>
        <time>2021-02-20T14:19:39.000Z</time>
      </trkpt>
      <trkpt lat="45.86338" lon="5.48503">
        <ele>1012.8</ele>
        <time>2021-02-20T14:19:40.000Z</time>
      </trkpt>
      <trkpt lat="45.86341" lon="5.485">
        <ele>1012.2</ele>
        <time>2021-02-20T14:19:41.000Z</time>
      </trkpt>
      <trkpt lat="45.86344" lon="5.48497">
        <ele>1012.2</ele>
        <time>2021-02-20T14:19:42.000Z</time>
      </trkpt>
      <trkpt lat="45.86347" lon="5.48494">
        <ele>1012</ele>
        <time>2021-02-20T14:19:43.000Z</time>
      </trkpt>
      <trkpt lat="45.8635" lon="5.4849">
        <ele>1011.8</ele>
        <time>2021-02-20T14:19:44.000Z</time>
      </trkpt>
      <trkpt lat="45.86354" lon="5.48484">
        <ele>1011.6</ele>
        <time>2021-02-20T14:19:46.000Z</time>
      </trkpt>
      <trkpt lat="45.86358" lon="5.48477">
        <ele>1011.6</ele>
        <time>2021-02-20T14:19:48.000Z</time>
      </trkpt>
      <trkpt lat="45.8636" lon="5.48473">
        <ele>1011.4</ele>
        <time>2021-02-20T14:19:49.000Z</time>
      </trkpt>
      <trkpt lat="45.86363" lon="5.4847">
        <ele>1011.4</ele>
        <time>2021-02-20T14:19:50.000Z</time>
      </trkpt>
      <trkpt lat="45.86367" lon="5.48467">
        <ele>1011</ele>
        <time>2021-02-20T14:19:51.000Z</time>
      </trkpt>
      <trkpt lat="45.86372" lon="5.48463">
        <ele>1011</ele>
        <time>2021-02-20T14:19:52.000Z</time>
      </trkpt>
      <trkpt lat="45.86379" lon="5.48456">
        <ele>1011</ele>
        <time>2021-02-20T14:19:54.000Z</time>
      </trkpt>
      <trkpt lat="45.86382" lon="5.48453">
        <ele>1010.8</ele>
        <time>2021-02-20T14:19:55.000Z</time>
      </trkpt>
      <trkpt lat="45.86388" lon="5.48446">
        <ele>1010.8</ele>
        <time>2021-02-20T14:19:57.000Z</time>
      </trkpt>
      <trkpt lat="45.86391" lon="5.48443">
        <ele>1010.6</ele>
        <time>2021-02-20T14:19:58.000Z</time>
      </trkpt>
      <trkpt lat="45.86398" lon="5.48436">
        <ele>1010.4</ele>
        <time>2021-02-20T14:20:00.000Z</time>
      </trkpt>
      <trkpt lat="45.864" lon="5.48433">
        <ele>1010.4</ele>
        <time>2021-02-20T14:20:01.000Z</time>
      </trkpt>
      <trkpt lat="45.86403" lon="5.48429">
        <ele>1010.2</ele>
        <time>2021-02-20T14:20:02.000Z</time>
      </trkpt>
      <trkpt lat="45.86407" lon="5.48422">
        <ele>1009.8</ele>
        <time>2021-02-20T14:20:04.000Z</time>
      </trkpt>
      <trkpt lat="45.8641" lon="5.4842">
        <ele>1009.6</ele>
        <time>2021-02-20T14:20:05.000Z</time>
      </trkpt>
      <trkpt lat="45.86413" lon="5.48417">
        <ele>1009.6</ele>
        <time>2021-02-20T14:20:06.000Z</time>
      </trkpt>
      <trkpt lat="45.86415" lon="5.48414">
        <ele>1009.6</ele>
        <time>2021-02-20T14:20:07.000Z</time>
      </trkpt>
      <trkpt lat="45.86424" lon="5.48403">
        <ele>1009.2</ele>
        <time>2021-02-20T14:20:10.000Z</time>
      </trkpt>
      <trkpt lat="45.86428" lon="5.48398">
        <ele>1009</ele>
        <time>2021-02-20T14:20:11.000Z</time>
      </trkpt>
      <trkpt lat="45.86436" lon="5.48391">
        <ele>1009</ele>
        <time>2021-02-20T14:20:13.000Z</time>
      </trkpt>
      <trkpt lat="45.86444" lon="5.48383">
        <ele>1008.6</ele>
        <time>2021-02-20T14:20:15.000Z</time>
      </trkpt>
      <trkpt lat="45.86447" lon="5.4838">
        <ele>1008.4</ele>
        <time>2021-02-20T14:20:16.000Z</time>
      </trkpt>
      <trkpt lat="45.86452" lon="5.48377">
        <ele>1008.2</ele>
        <time>2021-02-20T14:20:17.000Z</time>
      </trkpt>
      <trkpt lat="45.86455" lon="5.48374">
        <ele>1008</ele>
        <time>2021-02-20T14:20:18.000Z</time>
      </trkpt>
      <trkpt lat="45.86458" lon="5.48371">
        <ele>1007.8</ele>
        <time>2021-02-20T14:20:19.000Z</time>
      </trkpt>
      <trkpt lat="45.86462" lon="5.48367">
        <ele>1007.4</ele>
        <time>2021-02-20T14:20:20.000Z</time>
      </trkpt>
      <trkpt lat="45.86468" lon="5.48359">
        <ele>1006.6</ele>
        <time>2021-02-20T14:20:22.000Z</time>
      </trkpt>
      <trkpt lat="45.86481" lon="5.48344">
        <ele>1006</ele>
        <time>2021-02-20T14:20:25.000Z</time>
      </trkpt>
      <trkpt lat="45.86488" lon="5.48334">
        <ele>1005.6</ele>
        <time>2021-02-20T14:20:27.000Z</time>
      </trkpt>
      <trkpt lat="45.86492" lon="5.48328">
        <ele>1005</ele>
        <time>2021-02-20T14:20:28.000Z</time>
      </trkpt>
      <trkpt lat="45.86498" lon="5.48321">
        <ele>1004</ele>
        <time>2021-02-20T14:20:29.000Z</time>
      </trkpt>
      <trkpt lat="45.86503" lon="5.48315">
        <ele>1004</ele>
        <time>2021-02-20T14:20:30.000Z</time>
      </trkpt>
      <trkpt lat="45.86507" lon="5.4831">
        <ele>1003.2</ele>
        <time>2021-02-20T14:20:31.000Z</time>
      </trkpt>
      <trkpt lat="45.86511" lon="5.48304">
        <ele>1002.6</ele>
        <time>2021-02-20T14:20:32.000Z</time>
      </trkpt>
      <trkpt lat="45.86515" lon="5.48299">
        <ele>1001.8</ele>
        <time>2021-02-20T14:20:33.000Z</time>
      </trkpt>
      <trkpt lat="45.86519" lon="5.48295">
        <ele>1001.6</ele>
        <time>2021-02-20T14:20:34.000Z</time>
      </trkpt>
      <trkpt lat="45.86522" lon="5.48291">
        <ele>1001.2</ele>
        <time>2021-02-20T14:20:35.000Z</time>
      </trkpt>
      <trkpt lat="45.86526" lon="5.48287">
        <ele>1001</ele>
        <time>2021-02-20T14:20:36.000Z</time>
      </trkpt>
      <trkpt lat="45.86529" lon="5.48283">
        <ele>1000.8</ele>
        <time>2021-02-20T14:20:37.000Z</time>
      </trkpt>
      <trkpt lat="45.86547" lon="5.48272">
        <ele>999.8</ele>
        <time>2021-02-20T14:20:41.000Z</time>
      </trkpt>
      <trkpt lat="45.86552" lon="5.48268">
        <ele>999.6</ele>
        <time>2021-02-20T14:20:42.000Z</time>
      </trkpt>
      <trkpt lat="45.86577" lon="5.48252">
        <ele>998.8</ele>
        <time>2021-02-20T14:20:47.000Z</time>
      </trkpt>
      <trkpt lat="45.86582" lon="5.48247">
        <ele>998.6</ele>
        <time>2021-02-20T14:20:48.000Z</time>
      </trkpt>
      <trkpt lat="45.86589" lon="5.48242">
        <ele>998.6</ele>
        <time>2021-02-20T14:20:49.000Z</time>
      </trkpt>
      <trkpt lat="45.866" lon="5.48232">
        <ele>998.4</ele>
        <time>2021-02-20T14:20:51.000Z</time>
      </trkpt>
      <trkpt lat="45.86603" lon="5.48228">
        <ele>998.4</ele>
        <time>2021-02-20T14:20:52.000Z</time>
      </trkpt>
      <trkpt lat="45.86605" lon="5.48223">
        <ele>998.2</ele>
        <time>2021-02-20T14:20:53.000Z</time>
      </trkpt>
      <trkpt lat="45.86608" lon="5.48219">
        <ele>998</ele>
        <time>2021-02-20T14:20:54.000Z</time>
      </trkpt>
      <trkpt lat="45.86613" lon="5.48211">
        <ele>998</ele>
        <time>2021-02-20T14:20:56.000Z</time>
      </trkpt>
      <trkpt lat="45.86617" lon="5.48209">
        <ele>998</ele>
        <time>2021-02-20T14:20:57.000Z</time>
      </trkpt>
      <trkpt lat="45.8662" lon="5.48207">
        <ele>998</ele>
        <time>2021-02-20T14:20:58.000Z</time>
      </trkpt>
      <trkpt lat="45.86622" lon="5.48207">
        <ele>997.8</ele>
        <time>2021-02-20T14:20:59.000Z</time>
      </trkpt>
      <trkpt lat="45.86624" lon="5.48206">
        <ele>997.6</ele>
        <time>2021-02-20T14:21:00.000Z</time>
      </trkpt>
      <trkpt lat="45.86626" lon="5.48205">
        <ele>997.6</ele>
        <time>2021-02-20T14:21:01.000Z</time>
      </trkpt>
      <trkpt lat="45.86628" lon="5.48204">
        <ele>997.4</ele>
        <time>2021-02-20T14:21:02.000Z</time>
      </trkpt>
      <trkpt lat="45.8663" lon="5.48204">
        <ele>997.4</ele>
        <time>2021-02-20T14:21:03.000Z</time>
      </trkpt>
      <trkpt lat="45.86632" lon="5.48203">
        <ele>997.4</ele>
        <time>2021-02-20T14:21:04.000Z</time>
      </trkpt>
      <trkpt lat="45.86634" lon="5.48202">
        <ele>997.6</ele>
        <time>2021-02-20T14:21:05.000Z</time>
      </trkpt>
      <trkpt lat="45.86637" lon="5.48201">
        <ele>997.6</ele>
        <time>2021-02-20T14:21:06.000Z</time>
      </trkpt>
      <trkpt lat="45.86639" lon="5.48201">
        <ele>997.6</ele>
        <time>2021-02-20T14:21:07.000Z</time>
      </trkpt>
      <trkpt lat="45.86641" lon="5.482">
        <ele>997.6</ele>
        <time>2021-02-20T14:21:08.000Z</time>
      </trkpt>
      <trkpt lat="45.86644" lon="5.482">
        <ele>997.6</ele>
        <time>2021-02-20T14:21:09.000Z</time>
      </trkpt>
      <trkpt lat="45.86646" lon="5.48199">
        <ele>997.6</ele>
        <time>2021-02-20T14:21:10.000Z</time>
      </trkpt>
      <trkpt lat="45.86647" lon="5.48199">
        <ele>997.6</ele>
        <time>2021-02-20T14:21:11.000Z</time>
      </trkpt>
      <trkpt lat="45.86649" lon="5.48199">
        <ele>997.4</ele>
        <time>2021-02-20T14:21:12.000Z</time>
      </trkpt>
      <trkpt lat="45.86651" lon="5.48198">
        <ele>997.6</ele>
        <time>2021-02-20T14:21:13.000Z</time>
      </trkpt>
      <trkpt lat="45.86654" lon="5.48198">
        <ele>998</ele>
        <time>2021-02-20T14:21:15.000Z</time>
      </trkpt>
      <trkpt lat="45.86655" lon="5.48198">
        <ele>998.4</ele>
        <time>2021-02-20T14:21:16.000Z</time>
      </trkpt>
      <trkpt lat="45.86657" lon="5.48198">
        <ele>998.8</ele>
        <time>2021-02-20T14:21:17.000Z</time>
      </trkpt>
      <trkpt lat="45.86659" lon="5.48198">
        <ele>999</ele>
        <time>2021-02-20T14:21:18.000Z</time>
      </trkpt>
      <trkpt lat="45.86661" lon="5.48197">
        <ele>999.2</ele>
        <time>2021-02-20T14:21:19.000Z</time>
      </trkpt>
      <trkpt lat="45.86663" lon="5.48196">
        <ele>999.6</ele>
        <time>2021-02-20T14:21:20.000Z</time>
      </trkpt>
      <trkpt lat="45.86665" lon="5.48196">
        <ele>1000.2</ele>
        <time>2021-02-20T14:21:21.000Z</time>
      </trkpt>
      <trkpt lat="45.86667" lon="5.48196">
        <ele>1000.4</ele>
        <time>2021-02-20T14:21:22.000Z</time>
      </trkpt>
      <trkpt lat="45.86669" lon="5.48195">
        <ele>1000.8</ele>
        <time>2021-02-20T14:21:23.000Z</time>
      </trkpt>
      <trkpt lat="45.86671" lon="5.48195">
        <ele>1001</ele>
        <time>2021-02-20T14:21:24.000Z</time>
      </trkpt>
      <trkpt lat="45.86673" lon="5.48195">
        <ele>1001.4</ele>
        <time>2021-02-20T14:21:25.000Z</time>
      </trkpt>
      <trkpt lat="45.86675" lon="5.48195">
        <ele>1001.8</ele>
        <time>2021-02-20T14:21:26.000Z</time>
      </trkpt>
      <trkpt lat="45.86677" lon="5.48195">
        <ele>1002</ele>
        <time>2021-02-20T14:21:27.000Z</time>
      </trkpt>
      <trkpt lat="45.86678" lon="5.48194">
        <ele>1002.2</ele>
        <time>2021-02-20T14:21:28.000Z</time>
      </trkpt>
      <trkpt lat="45.8668" lon="5.48194">
        <ele>1002.2</ele>
        <time>2021-02-20T14:21:29.000Z</time>
      </trkpt>
      <trkpt lat="45.86681" lon="5.48193">
        <ele>1002.4</ele>
        <time>2021-02-20T14:21:30.000Z</time>
      </trkpt>
      <trkpt lat="45.86683" lon="5.48192">
        <ele>1002.6</ele>
        <time>2021-02-20T14:21:31.000Z</time>
      </trkpt>
      <trkpt lat="45.86685" lon="5.48192">
        <ele>1002.8</ele>
        <time>2021-02-20T14:21:32.000Z</time>
      </trkpt>
      <trkpt lat="45.86686" lon="5.48191">
        <ele>1003.2</ele>
        <time>2021-02-20T14:21:33.000Z</time>
      </trkpt>
      <trkpt lat="45.86688" lon="5.48191">
        <ele>1003.6</ele>
        <time>2021-02-20T14:21:34.000Z</time>
      </trkpt>
      <trkpt lat="45.8669" lon="5.48191">
        <ele>1003.6</ele>
        <time>2021-02-20T14:21:35.000Z</time>
      </trkpt>
      <trkpt lat="45.86692" lon="5.48191">
        <ele>1004</ele>
        <time>2021-02-20T14:21:36.000Z</time>
      </trkpt>
      <trkpt lat="45.86694" lon="5.48191">
        <ele>1004.2</ele>
        <time>2021-02-20T14:21:37.000Z</time>
      </trkpt>
      <trkpt lat="45.86696" lon="5.48192">
        <ele>1004.6</ele>
        <time>2021-02-20T14:21:38.000Z</time>
      </trkpt>
      <trkpt lat="45.86698" lon="5.48191">
        <ele>1005</ele>
        <time>2021-02-20T14:21:39.000Z</time>
      </trkpt>
      <trkpt lat="45.867" lon="5.48191">
        <ele>1005</ele>
        <time>2021-02-20T14:21:40.000Z</time>
      </trkpt>
      <trkpt lat="45.86702" lon="5.48191">
        <ele>1005.4</ele>
        <time>2021-02-20T14:21:41.000Z</time>
      </trkpt>
      <trkpt lat="45.86705" lon="5.48191">
        <ele>1005.4</ele>
        <time>2021-02-20T14:21:42.000Z</time>
      </trkpt>
      <trkpt lat="45.86707" lon="5.4819">
        <ele>1005.8</ele>
        <time>2021-02-20T14:21:43.000Z</time>
      </trkpt>
      <trkpt lat="45.8671" lon="5.4819">
        <ele>1005.8</ele>
        <time>2021-02-20T14:21:44.000Z</time>
      </trkpt>
      <trkpt lat="45.86712" lon="5.4819">
        <ele>1006</ele>
        <time>2021-02-20T14:21:45.000Z</time>
      </trkpt>
      <trkpt lat="45.86714" lon="5.48191">
        <ele>1006.2</ele>
        <time>2021-02-20T14:21:46.000Z</time>
      </trkpt>
      <trkpt lat="45.86716" lon="5.48191">
        <ele>1006.6</ele>
        <time>2021-02-20T14:21:47.000Z</time>
      </trkpt>
      <trkpt lat="45.86717" lon="5.48192">
        <ele>1006.6</ele>
        <time>2021-02-20T14:21:48.000Z</time>
      </trkpt>
      <trkpt lat="45.86719" lon="5.48192">
        <ele>1006.6</ele>
        <time>2021-02-20T14:21:49.000Z</time>
      </trkpt>
      <trkpt lat="45.86721" lon="5.48193">
        <ele>1006.6</ele>
        <time>2021-02-20T14:21:50.000Z</time>
      </trkpt>
      <trkpt lat="45.86723" lon="5.48194">
        <ele>1006.6</ele>
        <time>2021-02-20T14:21:51.000Z</time>
      </trkpt>
      <trkpt lat="45.86725" lon="5.48195">
        <ele>1006.8</ele>
        <time>2021-02-20T14:21:52.000Z</time>
      </trkpt>
      <trkpt lat="45.86726" lon="5.48197">
        <ele>1007.2</ele>
        <time>2021-02-20T14:21:53.000Z</time>
      </trkpt>
      <trkpt lat="45.86728" lon="5.48198">
        <ele>1007.4</ele>
        <time>2021-02-20T14:21:54.000Z</time>
      </trkpt>
      <trkpt lat="45.86729" lon="5.482">
        <ele>1007.4</ele>
        <time>2021-02-20T14:21:55.000Z</time>
      </trkpt>
      <trkpt lat="45.8673" lon="5.48201">
        <ele>1007.6</ele>
        <time>2021-02-20T14:21:56.000Z</time>
      </trkpt>
      <trkpt lat="45.86731" lon="5.48203">
        <ele>1007.8</ele>
        <time>2021-02-20T14:21:57.000Z</time>
      </trkpt>
      <trkpt lat="45.86732" lon="5.48204">
        <ele>1007.8</ele>
        <time>2021-02-20T14:21:58.000Z</time>
      </trkpt>
      <trkpt lat="45.86733" lon="5.48206">
        <ele>1008</ele>
        <time>2021-02-20T14:21:59.000Z</time>
      </trkpt>
      <trkpt lat="45.86733" lon="5.48208">
        <ele>1008.2</ele>
        <time>2021-02-20T14:22:00.000Z</time>
      </trkpt>
      <trkpt lat="45.86734" lon="5.4821">
        <ele>1008.6</ele>
        <time>2021-02-20T14:22:01.000Z</time>
      </trkpt>
      <trkpt lat="45.86734" lon="5.48211">
        <ele>1008.6</ele>
        <time>2021-02-20T14:22:02.000Z</time>
      </trkpt>
      <trkpt lat="45.86735" lon="5.48212">
        <ele>1009</ele>
        <time>2021-02-20T14:22:03.000Z</time>
      </trkpt>
      <trkpt lat="45.86736" lon="5.48213">
        <ele>1009.2</ele>
        <time>2021-02-20T14:22:04.000Z</time>
      </trkpt>
      <trkpt lat="45.86737" lon="5.48214">
        <ele>1009.2</ele>
        <time>2021-02-20T14:22:05.000Z</time>
      </trkpt>
      <trkpt lat="45.86739" lon="5.48216">
        <ele>1009.6</ele>
        <time>2021-02-20T14:22:20.000Z</time>
      </trkpt>
      <trkpt lat="45.86742" lon="5.48214">
        <ele>1009.6</ele>
        <time>2021-02-20T14:22:23.000Z</time>
      </trkpt>
      <trkpt lat="45.86745" lon="5.48213">
        <ele>1009.6</ele>
        <time>2021-02-20T14:22:25.000Z</time>
      </trkpt>
      <trkpt lat="45.86746" lon="5.48212">
        <ele>1009.6</ele>
        <time>2021-02-20T14:22:26.000Z</time>
      </trkpt>
      <trkpt lat="45.86749" lon="5.48212">
        <ele>1009.6</ele>
        <time>2021-02-20T14:22:28.000Z</time>
      </trkpt>
      <trkpt lat="45.86752" lon="5.48212">
        <ele>1009.2</ele>
        <time>2021-02-20T14:22:30.000Z</time>
      </trkpt>
      <trkpt lat="45.86754" lon="5.48212">
        <ele>1008.8</ele>
        <time>2021-02-20T14:22:31.000Z</time>
      </trkpt>
      <trkpt lat="45.86756" lon="5.48211">
        <ele>1008.4</ele>
        <time>2021-02-20T14:22:33.000Z</time>
      </trkpt>
      <trkpt lat="45.86759" lon="5.48211">
        <ele>1008.4</ele>
        <time>2021-02-20T14:22:34.000Z</time>
      </trkpt>
      <trkpt lat="45.86763" lon="5.4821">
        <ele>1007.8</ele>
        <time>2021-02-20T14:22:36.000Z</time>
      </trkpt>
      <trkpt lat="45.86769" lon="5.48209">
        <ele>1006.8</ele>
        <time>2021-02-20T14:22:38.000Z</time>
      </trkpt>
      <trkpt lat="45.86772" lon="5.48208">
        <ele>1006.4</ele>
        <time>2021-02-20T14:22:39.000Z</time>
      </trkpt>
      <trkpt lat="45.86774" lon="5.48206">
        <ele>1006</ele>
        <time>2021-02-20T14:22:40.000Z</time>
      </trkpt>
      <trkpt lat="45.86775" lon="5.48203">
        <ele>1005.4</ele>
        <time>2021-02-20T14:22:41.000Z</time>
      </trkpt>
      <trkpt lat="45.86782" lon="5.48195">
        <ele>1004.4</ele>
        <time>2021-02-20T14:22:44.000Z</time>
      </trkpt>
      <trkpt lat="45.86786" lon="5.48191">
        <ele>1002.8</ele>
        <time>2021-02-20T14:22:46.000Z</time>
      </trkpt>
      <trkpt lat="45.86789" lon="5.4819">
        <ele>1002.6</ele>
        <time>2021-02-20T14:22:47.000Z</time>
      </trkpt>
      <trkpt lat="45.86791" lon="5.48189">
        <ele>1002</ele>
        <time>2021-02-20T14:22:48.000Z</time>
      </trkpt>
      <trkpt lat="45.86793" lon="5.48188">
        <ele>1001.8</ele>
        <time>2021-02-20T14:22:49.000Z</time>
      </trkpt>
      <trkpt lat="45.86795" lon="5.48187">
        <ele>1001.2</ele>
        <time>2021-02-20T14:22:50.000Z</time>
      </trkpt>
      <trkpt lat="45.86805" lon="5.48182">
        <ele>999.2</ele>
        <time>2021-02-20T14:23:00.000Z</time>
      </trkpt>
      <trkpt lat="45.86807" lon="5.48181">
        <ele>999.4</ele>
        <time>2021-02-20T14:23:01.000Z</time>
      </trkpt>
      <trkpt lat="45.86812" lon="5.48174">
        <ele>998.6</ele>
        <time>2021-02-20T14:23:08.000Z</time>
      </trkpt>
      <trkpt lat="45.86814" lon="5.48173">
        <ele>998.4</ele>
        <time>2021-02-20T14:23:09.000Z</time>
      </trkpt>
      <trkpt lat="45.86815" lon="5.48172">
        <ele>998.4</ele>
        <time>2021-02-20T14:23:10.000Z</time>
      </trkpt>
      <trkpt lat="45.86817" lon="5.48171">
        <ele>998.2</ele>
        <time>2021-02-20T14:23:11.000Z</time>
      </trkpt>
      <trkpt lat="45.8682" lon="5.4817">
        <ele>998.2</ele>
        <time>2021-02-20T14:23:12.000Z</time>
      </trkpt>
      <trkpt lat="45.86828" lon="5.48165">
        <ele>997.8</ele>
        <time>2021-02-20T14:23:15.000Z</time>
      </trkpt>
      <trkpt lat="45.8683" lon="5.48162">
        <ele>997.8</ele>
        <time>2021-02-20T14:23:16.000Z</time>
      </trkpt>
      <trkpt lat="45.86835" lon="5.48158">
        <ele>997.2</ele>
        <time>2021-02-20T14:23:18.000Z</time>
      </trkpt>
      <trkpt lat="45.86837" lon="5.48156">
        <ele>997</ele>
        <time>2021-02-20T14:23:19.000Z</time>
      </trkpt>
      <trkpt lat="45.86845" lon="5.48151">
        <ele>996.2</ele>
        <time>2021-02-20T14:23:22.000Z</time>
      </trkpt>
      <trkpt lat="45.86848" lon="5.4815">
        <ele>995.6</ele>
        <time>2021-02-20T14:23:23.000Z</time>
      </trkpt>
      <trkpt lat="45.86852" lon="5.48149">
        <ele>995.4</ele>
        <time>2021-02-20T14:23:24.000Z</time>
      </trkpt>
      <trkpt lat="45.86854" lon="5.48148">
        <ele>995.2</ele>
        <time>2021-02-20T14:23:25.000Z</time>
      </trkpt>
      <trkpt lat="45.86856" lon="5.48148">
        <ele>994.6</ele>
        <time>2021-02-20T14:23:26.000Z</time>
      </trkpt>
      <trkpt lat="45.86859" lon="5.4815">
        <ele>994.2</ele>
        <time>2021-02-20T14:23:27.000Z</time>
      </trkpt>
      <trkpt lat="45.86861" lon="5.48152">
        <ele>993.8</ele>
        <time>2021-02-20T14:23:28.000Z</time>
      </trkpt>
      <trkpt lat="45.86863" lon="5.48154">
        <ele>993.2</ele>
        <time>2021-02-20T14:23:29.000Z</time>
      </trkpt>
      <trkpt lat="45.86865" lon="5.48157">
        <ele>992.6</ele>
        <time>2021-02-20T14:23:30.000Z</time>
      </trkpt>
      <trkpt lat="45.86867" lon="5.4816">
        <ele>992.4</ele>
        <time>2021-02-20T14:23:31.000Z</time>
      </trkpt>
      <trkpt lat="45.86869" lon="5.48163">
        <ele>991.8</ele>
        <time>2021-02-20T14:23:32.000Z</time>
      </trkpt>
      <trkpt lat="45.86877" lon="5.48164">
        <ele>989.2</ele>
        <time>2021-02-20T14:24:38.000Z</time>
      </trkpt>
      <trkpt lat="45.86876" lon="5.48163">
        <ele>989.2</ele>
        <time>2021-02-20T14:24:39.000Z</time>
      </trkpt>
      <trkpt lat="45.86875" lon="5.48162">
        <ele>989.2</ele>
        <time>2021-02-20T14:24:40.000Z</time>
      </trkpt>
      <trkpt lat="45.86874" lon="5.48161">
        <ele>989.2</ele>
        <time>2021-02-20T14:24:41.000Z</time>
      </trkpt>
      <trkpt lat="45.8687" lon="5.48158">
        <ele>989.4</ele>
        <time>2021-02-20T14:24:44.000Z</time>
      </trkpt>
      <trkpt lat="45.86869" lon="5.48157">
        <ele>989.4</ele>
        <time>2021-02-20T14:24:45.000Z</time>
      </trkpt>
      <trkpt lat="45.86868" lon="5.48157">
        <ele>989.6</ele>
        <time>2021-02-20T14:24:46.000Z</time>
      </trkpt>
      <trkpt lat="45.86866" lon="5.48157">
        <ele>989.4</ele>
        <time>2021-02-20T14:24:47.000Z</time>
      </trkpt>
      <trkpt lat="45.86865" lon="5.48157">
        <ele>989.6</ele>
        <time>2021-02-20T14:24:48.000Z</time>
      </trkpt>
      <trkpt lat="45.86864" lon="5.48157">
        <ele>989.8</ele>
        <time>2021-02-20T14:24:49.000Z</time>
      </trkpt>
      <trkpt lat="45.86862" lon="5.48158">
        <ele>990</ele>
        <time>2021-02-20T14:24:50.000Z</time>
      </trkpt>
      <trkpt lat="45.86861" lon="5.48158">
        <ele>990.2</ele>
        <time>2021-02-20T14:24:51.000Z</time>
      </trkpt>
      <trkpt lat="45.8686" lon="5.48159">
        <ele>990.2</ele>
        <time>2021-02-20T14:24:52.000Z</time>
      </trkpt>
      <trkpt lat="45.86859" lon="5.48159">
        <ele>990.4</ele>
        <time>2021-02-20T14:24:53.000Z</time>
      </trkpt>
      <trkpt lat="45.86858" lon="5.4816">
        <ele>990.8</ele>
        <time>2021-02-20T14:24:54.000Z</time>
      </trkpt>
      <trkpt lat="45.86857" lon="5.4816">
        <ele>990.8</ele>
        <time>2021-02-20T14:24:55.000Z</time>
      </trkpt>
      <trkpt lat="45.86855" lon="5.48161">
        <ele>991.2</ele>
        <time>2021-02-20T14:24:56.000Z</time>
      </trkpt>
      <trkpt lat="45.86854" lon="5.48161">
        <ele>991.6</ele>
        <time>2021-02-20T14:24:57.000Z</time>
      </trkpt>
      <trkpt lat="45.86853" lon="5.48161">
        <ele>992</ele>
        <time>2021-02-20T14:24:58.000Z</time>
      </trkpt>
      <trkpt lat="45.86852" lon="5.48162">
        <ele>992.2</ele>
        <time>2021-02-20T14:24:59.000Z</time>
      </trkpt>
      <trkpt lat="45.86851" lon="5.48163">
        <ele>992.6</ele>
        <time>2021-02-20T14:25:00.000Z</time>
      </trkpt>
      <trkpt lat="45.8685" lon="5.48163">
        <ele>992.6</ele>
        <time>2021-02-20T14:25:01.000Z</time>
      </trkpt>
      <trkpt lat="45.86849" lon="5.48163">
        <ele>992.6</ele>
        <time>2021-02-20T14:25:02.000Z</time>
      </trkpt>
      <trkpt lat="45.86848" lon="5.48164">
        <ele>992.8</ele>
        <time>2021-02-20T14:25:03.000Z</time>
      </trkpt>
      <trkpt lat="45.86846" lon="5.48165">
        <ele>993</ele>
        <time>2021-02-20T14:25:04.000Z</time>
      </trkpt>
      <trkpt lat="45.86845" lon="5.48165">
        <ele>993.2</ele>
        <time>2021-02-20T14:25:05.000Z</time>
      </trkpt>
      <trkpt lat="45.86844" lon="5.48166">
        <ele>993.4</ele>
        <time>2021-02-20T14:25:06.000Z</time>
      </trkpt>
      <trkpt lat="45.86842" lon="5.48167">
        <ele>993.8</ele>
        <time>2021-02-20T14:25:07.000Z</time>
      </trkpt>
      <trkpt lat="45.86841" lon="5.48167">
        <ele>994</ele>
        <time>2021-02-20T14:25:08.000Z</time>
      </trkpt>
      <trkpt lat="45.8684" lon="5.48168">
        <ele>994.2</ele>
        <time>2021-02-20T14:25:09.000Z</time>
      </trkpt>
      <trkpt lat="45.86839" lon="5.48168">
        <ele>994.6</ele>
        <time>2021-02-20T14:25:10.000Z</time>
      </trkpt>
      <trkpt lat="45.86839" lon="5.48169">
        <ele>994.8</ele>
        <time>2021-02-20T14:25:11.000Z</time>
      </trkpt>
      <trkpt lat="45.86837" lon="5.48169">
        <ele>995</ele>
        <time>2021-02-20T14:25:12.000Z</time>
      </trkpt>
      <trkpt lat="45.86837" lon="5.4817">
        <ele>995.2</ele>
        <time>2021-02-20T14:25:13.000Z</time>
      </trkpt>
      <trkpt lat="45.86836" lon="5.48171">
        <ele>995.4</ele>
        <time>2021-02-20T14:25:14.000Z</time>
      </trkpt>
      <trkpt lat="45.86834" lon="5.48172">
        <ele>995.8</ele>
        <time>2021-02-20T14:25:15.000Z</time>
      </trkpt>
      <trkpt lat="45.86833" lon="5.48172">
        <ele>995.6</ele>
        <time>2021-02-20T14:25:16.000Z</time>
      </trkpt>
      <trkpt lat="45.86831" lon="5.48173">
        <ele>995.8</ele>
        <time>2021-02-20T14:25:17.000Z</time>
      </trkpt>
      <trkpt lat="45.8683" lon="5.48173">
        <ele>995.8</ele>
        <time>2021-02-20T14:25:18.000Z</time>
      </trkpt>
      <trkpt lat="45.86828" lon="5.48174">
        <ele>996</ele>
        <time>2021-02-20T14:25:19.000Z</time>
      </trkpt>
      <trkpt lat="45.86827" lon="5.48175">
        <ele>996</ele>
        <time>2021-02-20T14:25:20.000Z</time>
      </trkpt>
      <trkpt lat="45.86826" lon="5.48176">
        <ele>996</ele>
        <time>2021-02-20T14:25:21.000Z</time>
      </trkpt>
      <trkpt lat="45.86825" lon="5.48177">
        <ele>996.2</ele>
        <time>2021-02-20T14:25:22.000Z</time>
      </trkpt>
      <trkpt lat="45.86824" lon="5.48178">
        <ele>996.2</ele>
        <time>2021-02-20T14:25:23.000Z</time>
      </trkpt>
      <trkpt lat="45.86823" lon="5.48178">
        <ele>996.2</ele>
        <time>2021-02-20T14:25:24.000Z</time>
      </trkpt>
      <trkpt lat="45.86823" lon="5.4818">
        <ele>996.2</ele>
        <time>2021-02-20T14:25:25.000Z</time>
      </trkpt>
      <trkpt lat="45.86822" lon="5.4818">
        <ele>996.4</ele>
        <time>2021-02-20T14:25:26.000Z</time>
      </trkpt>
      <trkpt lat="45.86821" lon="5.48181">
        <ele>996.6</ele>
        <time>2021-02-20T14:25:28.000Z</time>
      </trkpt>
      <trkpt lat="45.86821" lon="5.48183">
        <ele>997</ele>
        <time>2021-02-20T14:25:29.000Z</time>
      </trkpt>
      <trkpt lat="45.8682" lon="5.48183">
        <ele>997</ele>
        <time>2021-02-20T14:25:30.000Z</time>
      </trkpt>
      <trkpt lat="45.8681" lon="5.48188">
        <ele>998.4</ele>
        <time>2021-02-20T14:25:41.000Z</time>
      </trkpt>
      <trkpt lat="45.86809" lon="5.48189">
        <ele>998.4</ele>
        <time>2021-02-20T14:25:42.000Z</time>
      </trkpt>
      <trkpt lat="45.86809" lon="5.4819">
        <ele>998.4</ele>
        <time>2021-02-20T14:25:43.000Z</time>
      </trkpt>
      <trkpt lat="45.86808" lon="5.48191">
        <ele>998.6</ele>
        <time>2021-02-20T14:25:44.000Z</time>
      </trkpt>
      <trkpt lat="45.86807" lon="5.48191">
        <ele>998.6</ele>
        <time>2021-02-20T14:25:45.000Z</time>
      </trkpt>
      <trkpt lat="45.86806" lon="5.48191">
        <ele>998.8</ele>
        <time>2021-02-20T14:25:47.000Z</time>
      </trkpt>
      <trkpt lat="45.86805" lon="5.48192">
        <ele>998.8</ele>
        <time>2021-02-20T14:25:48.000Z</time>
      </trkpt>
      <trkpt lat="45.86804" lon="5.48192">
        <ele>999</ele>
        <time>2021-02-20T14:25:49.000Z</time>
      </trkpt>
      <trkpt lat="45.86803" lon="5.48193">
        <ele>999.2</ele>
        <time>2021-02-20T14:25:51.000Z</time>
      </trkpt>
      <trkpt lat="45.86802" lon="5.48193">
        <ele>999.2</ele>
        <time>2021-02-20T14:25:52.000Z</time>
      </trkpt>
      <trkpt lat="45.86802" lon="5.48194">
        <ele>999.6</ele>
        <time>2021-02-20T14:25:53.000Z</time>
      </trkpt>
      <trkpt lat="45.86801" lon="5.48195">
        <ele>999.6</ele>
        <time>2021-02-20T14:25:54.000Z</time>
      </trkpt>
      <trkpt lat="45.86801" lon="5.48196">
        <ele>999.8</ele>
        <time>2021-02-20T14:25:55.000Z</time>
      </trkpt>
      <trkpt lat="45.868" lon="5.48197">
        <ele>999.8</ele>
        <time>2021-02-20T14:25:56.000Z</time>
      </trkpt>
      <trkpt lat="45.868" lon="5.48199">
        <ele>999.8</ele>
        <time>2021-02-20T14:25:57.000Z</time>
      </trkpt>
      <trkpt lat="45.86799" lon="5.482">
        <ele>1000.2</ele>
        <time>2021-02-20T14:25:58.000Z</time>
      </trkpt>
      <trkpt lat="45.86799" lon="5.48201">
        <ele>1000.2</ele>
        <time>2021-02-20T14:25:59.000Z</time>
      </trkpt>
      <trkpt lat="45.86798" lon="5.48202">
        <ele>1000.2</ele>
        <time>2021-02-20T14:26:00.000Z</time>
      </trkpt>
      <trkpt lat="45.86797" lon="5.48203">
        <ele>1000.4</ele>
        <time>2021-02-20T14:26:01.000Z</time>
      </trkpt>
      <trkpt lat="45.86796" lon="5.48204">
        <ele>1000.6</ele>
        <time>2021-02-20T14:26:02.000Z</time>
      </trkpt>
      <trkpt lat="45.86796" lon="5.48206">
        <ele>1000.8</ele>
        <time>2021-02-20T14:26:03.000Z</time>
      </trkpt>
      <trkpt lat="45.86794" lon="5.48207">
        <ele>1000.8</ele>
        <time>2021-02-20T14:26:04.000Z</time>
      </trkpt>
      <trkpt lat="45.86793" lon="5.48208">
        <ele>1001.2</ele>
        <time>2021-02-20T14:26:05.000Z</time>
      </trkpt>
      <trkpt lat="45.86791" lon="5.48209">
        <ele>1001.4</ele>
        <time>2021-02-20T14:26:06.000Z</time>
      </trkpt>
      <trkpt lat="45.8679" lon="5.4821">
        <ele>1001.4</ele>
        <time>2021-02-20T14:26:07.000Z</time>
      </trkpt>
      <trkpt lat="45.86789" lon="5.4821">
        <ele>1001.6</ele>
        <time>2021-02-20T14:26:08.000Z</time>
      </trkpt>
      <trkpt lat="45.86787" lon="5.48211">
        <ele>1001.8</ele>
        <time>2021-02-20T14:26:09.000Z</time>
      </trkpt>
      <trkpt lat="45.86786" lon="5.48211">
        <ele>1001.8</ele>
        <time>2021-02-20T14:26:10.000Z</time>
      </trkpt>
      <trkpt lat="45.86785" lon="5.48211">
        <ele>1002</ele>
        <time>2021-02-20T14:26:11.000Z</time>
      </trkpt>
      <trkpt lat="45.86784" lon="5.48211">
        <ele>1002.2</ele>
        <time>2021-02-20T14:26:12.000Z</time>
      </trkpt>
      <trkpt lat="45.86783" lon="5.48211">
        <ele>1002.2</ele>
        <time>2021-02-20T14:26:13.000Z</time>
      </trkpt>
      <trkpt lat="45.86782" lon="5.48212">
        <ele>1002.2</ele>
        <time>2021-02-20T14:26:14.000Z</time>
      </trkpt>
      <trkpt lat="45.86781" lon="5.48212">
        <ele>1002.2</ele>
        <time>2021-02-20T14:26:15.000Z</time>
      </trkpt>
      <trkpt lat="45.86779" lon="5.48212">
        <ele>1002.2</ele>
        <time>2021-02-20T14:26:16.000Z</time>
      </trkpt>
      <trkpt lat="45.86778" lon="5.48212">
        <ele>1002.4</ele>
        <time>2021-02-20T14:26:17.000Z</time>
      </trkpt>
      <trkpt lat="45.86777" lon="5.48212">
        <ele>1002.6</ele>
        <time>2021-02-20T14:26:18.000Z</time>
      </trkpt>
      <trkpt lat="45.86776" lon="5.48212">
        <ele>1003</ele>
        <time>2021-02-20T14:26:19.000Z</time>
      </trkpt>
      <trkpt lat="45.86775" lon="5.48212">
        <ele>1003.4</ele>
        <time>2021-02-20T14:26:20.000Z</time>
      </trkpt>
      <trkpt lat="45.86774" lon="5.48212">
        <ele>1003.6</ele>
        <time>2021-02-20T14:26:21.000Z</time>
      </trkpt>
      <trkpt lat="45.86773" lon="5.48212">
        <ele>1004</ele>
        <time>2021-02-20T14:26:22.000Z</time>
      </trkpt>
      <trkpt lat="45.86772" lon="5.48212">
        <ele>1004.4</ele>
        <time>2021-02-20T14:26:23.000Z</time>
      </trkpt>
      <trkpt lat="45.86771" lon="5.48213">
        <ele>1004.6</ele>
        <time>2021-02-20T14:26:24.000Z</time>
      </trkpt>
      <trkpt lat="45.86769" lon="5.48213">
        <ele>1004.8</ele>
        <time>2021-02-20T14:26:25.000Z</time>
      </trkpt>
      <trkpt lat="45.86768" lon="5.48213">
        <ele>1005</ele>
        <time>2021-02-20T14:26:26.000Z</time>
      </trkpt>
      <trkpt lat="45.86766" lon="5.48213">
        <ele>1005.2</ele>
        <time>2021-02-20T14:26:27.000Z</time>
      </trkpt>
      <trkpt lat="45.86765" lon="5.48214">
        <ele>1005.2</ele>
        <time>2021-02-20T14:26:28.000Z</time>
      </trkpt>
      <trkpt lat="45.86763" lon="5.48214">
        <ele>1005.2</ele>
        <time>2021-02-20T14:26:29.000Z</time>
      </trkpt>
      <trkpt lat="45.86762" lon="5.48214">
        <ele>1005.4</ele>
        <time>2021-02-20T14:26:30.000Z</time>
      </trkpt>
      <trkpt lat="45.8676" lon="5.48214">
        <ele>1005.6</ele>
        <time>2021-02-20T14:26:31.000Z</time>
      </trkpt>
      <trkpt lat="45.86759" lon="5.48214">
        <ele>1005.6</ele>
        <time>2021-02-20T14:26:32.000Z</time>
      </trkpt>
      <trkpt lat="45.86758" lon="5.48214">
        <ele>1005.8</ele>
        <time>2021-02-20T14:26:33.000Z</time>
      </trkpt>
      <trkpt lat="45.86757" lon="5.48215">
        <ele>1006.2</ele>
        <time>2021-02-20T14:26:34.000Z</time>
      </trkpt>
      <trkpt lat="45.86755" lon="5.48215">
        <ele>1006.4</ele>
        <time>2021-02-20T14:26:35.000Z</time>
      </trkpt>
      <trkpt lat="45.86754" lon="5.48216">
        <ele>1006.8</ele>
        <time>2021-02-20T14:26:36.000Z</time>
      </trkpt>
      <trkpt lat="45.86753" lon="5.48217">
        <ele>1007.2</ele>
        <time>2021-02-20T14:26:37.000Z</time>
      </trkpt>
      <trkpt lat="45.86751" lon="5.48218">
        <ele>1007.6</ele>
        <time>2021-02-20T14:26:38.000Z</time>
      </trkpt>
      <trkpt lat="45.8675" lon="5.48218">
        <ele>1007.8</ele>
        <time>2021-02-20T14:26:39.000Z</time>
      </trkpt>
      <trkpt lat="45.86748" lon="5.48218">
        <ele>1008</ele>
        <time>2021-02-20T14:26:40.000Z</time>
      </trkpt>
      <trkpt lat="45.86747" lon="5.48218">
        <ele>1008.4</ele>
        <time>2021-02-20T14:26:41.000Z</time>
      </trkpt>
      <trkpt lat="45.86745" lon="5.48218">
        <ele>1008.6</ele>
        <time>2021-02-20T14:26:42.000Z</time>
      </trkpt>
      <trkpt lat="45.86744" lon="5.48216">
        <ele>1008.8</ele>
        <time>2021-02-20T14:26:43.000Z</time>
      </trkpt>
      <trkpt lat="45.86742" lon="5.48215">
        <ele>1008.8</ele>
        <time>2021-02-20T14:26:44.000Z</time>
      </trkpt>
      <trkpt lat="45.86741" lon="5.48213">
        <ele>1009</ele>
        <time>2021-02-20T14:26:45.000Z</time>
      </trkpt>
      <trkpt lat="45.8674" lon="5.4821">
        <ele>1009</ele>
        <time>2021-02-20T14:26:46.000Z</time>
      </trkpt>
      <trkpt lat="45.86737" lon="5.48207">
        <ele>1009</ele>
        <time>2021-02-20T14:26:47.000Z</time>
      </trkpt>
      <trkpt lat="45.86735" lon="5.48204">
        <ele>1009.2</ele>
        <time>2021-02-20T14:26:48.000Z</time>
      </trkpt>
      <trkpt lat="45.86733" lon="5.48201">
        <ele>1009</ele>
        <time>2021-02-20T14:26:49.000Z</time>
      </trkpt>
      <trkpt lat="45.8673" lon="5.48199">
        <ele>1009</ele>
        <time>2021-02-20T14:26:50.000Z</time>
      </trkpt>
      <trkpt lat="45.86728" lon="5.48198">
        <ele>1009</ele>
        <time>2021-02-20T14:26:51.000Z</time>
      </trkpt>
      <trkpt lat="45.86725" lon="5.48197">
        <ele>1009</ele>
        <time>2021-02-20T14:26:52.000Z</time>
      </trkpt>
      <trkpt lat="45.86721" lon="5.48194">
        <ele>1009</ele>
        <time>2021-02-20T14:26:54.000Z</time>
      </trkpt>
      <trkpt lat="45.86719" lon="5.48193">
        <ele>1008.8</ele>
        <time>2021-02-20T14:26:55.000Z</time>
      </trkpt>
      <trkpt lat="45.86712" lon="5.48193">
        <ele>1008.4</ele>
        <time>2021-02-20T14:26:58.000Z</time>
      </trkpt>
      <trkpt lat="45.86708" lon="5.48194">
        <ele>1008.2</ele>
        <time>2021-02-20T14:27:00.000Z</time>
      </trkpt>
      <trkpt lat="45.867" lon="5.48196">
        <ele>1008</ele>
        <time>2021-02-20T14:27:03.000Z</time>
      </trkpt>
      <trkpt lat="45.86697" lon="5.48196">
        <ele>1007.8</ele>
        <time>2021-02-20T14:27:04.000Z</time>
      </trkpt>
      <trkpt lat="45.86694" lon="5.48197">
        <ele>1007.6</ele>
        <time>2021-02-20T14:27:05.000Z</time>
      </trkpt>
      <trkpt lat="45.86682" lon="5.48198">
        <ele>1007</ele>
        <time>2021-02-20T14:27:08.000Z</time>
      </trkpt>
      <trkpt lat="45.86678" lon="5.482">
        <ele>1006.8</ele>
        <time>2021-02-20T14:27:09.000Z</time>
      </trkpt>
      <trkpt lat="45.86675" lon="5.48201">
        <ele>1006.4</ele>
        <time>2021-02-20T14:27:10.000Z</time>
      </trkpt>
      <trkpt lat="45.86671" lon="5.48202">
        <ele>1006.2</ele>
        <time>2021-02-20T14:27:11.000Z</time>
      </trkpt>
      <trkpt lat="45.86666" lon="5.48203">
        <ele>1006</ele>
        <time>2021-02-20T14:27:12.000Z</time>
      </trkpt>
      <trkpt lat="45.8665" lon="5.48207">
        <ele>1004</ele>
        <time>2021-02-20T14:27:15.000Z</time>
      </trkpt>
      <trkpt lat="45.86644" lon="5.48209">
        <ele>1003.2</ele>
        <time>2021-02-20T14:27:16.000Z</time>
      </trkpt>
      <trkpt lat="45.86639" lon="5.48211">
        <ele>1002.8</ele>
        <time>2021-02-20T14:27:17.000Z</time>
      </trkpt>
      <trkpt lat="45.86634" lon="5.48212">
        <ele>1001.6</ele>
        <time>2021-02-20T14:27:18.000Z</time>
      </trkpt>
      <trkpt lat="45.86629" lon="5.48214">
        <ele>1001</ele>
        <time>2021-02-20T14:27:19.000Z</time>
      </trkpt>
      <trkpt lat="45.86619" lon="5.48217">
        <ele>999.2</ele>
        <time>2021-02-20T14:27:21.000Z</time>
      </trkpt>
      <trkpt lat="45.86608" lon="5.48222">
        <ele>998</ele>
        <time>2021-02-20T14:27:23.000Z</time>
      </trkpt>
      <trkpt lat="45.866" lon="5.48223">
        <ele>997</ele>
        <time>2021-02-20T14:27:24.000Z</time>
      </trkpt>
      <trkpt lat="45.86594" lon="5.48225">
        <ele>995.6</ele>
        <time>2021-02-20T14:27:25.000Z</time>
      </trkpt>
      <trkpt lat="45.86587" lon="5.48226">
        <ele>995</ele>
        <time>2021-02-20T14:27:26.000Z</time>
      </trkpt>
      <trkpt lat="45.86582" lon="5.48227">
        <ele>994.6</ele>
        <time>2021-02-20T14:27:27.000Z</time>
      </trkpt>
      <trkpt lat="45.86564" lon="5.48233">
        <ele>994</ele>
        <time>2021-02-20T14:27:30.000Z</time>
      </trkpt>
      <trkpt lat="45.86558" lon="5.48235">
        <ele>993.4</ele>
        <time>2021-02-20T14:27:31.000Z</time>
      </trkpt>
      <trkpt lat="45.8654" lon="5.48241">
        <ele>991.4</ele>
        <time>2021-02-20T14:27:34.000Z</time>
      </trkpt>
      <trkpt lat="45.86535" lon="5.48243">
        <ele>990.8</ele>
        <time>2021-02-20T14:27:35.000Z</time>
      </trkpt>
      <trkpt lat="45.86525" lon="5.48247">
        <ele>989.8</ele>
        <time>2021-02-20T14:27:37.000Z</time>
      </trkpt>
      <trkpt lat="45.86514" lon="5.48252">
        <ele>988.2</ele>
        <time>2021-02-20T14:27:39.000Z</time>
      </trkpt>
      <trkpt lat="45.86504" lon="5.48257">
        <ele>986.6</ele>
        <time>2021-02-20T14:27:41.000Z</time>
      </trkpt>
      <trkpt lat="45.86499" lon="5.4826">
        <ele>986</ele>
        <time>2021-02-20T14:27:42.000Z</time>
      </trkpt>
      <trkpt lat="45.86494" lon="5.48264">
        <ele>984.8</ele>
        <time>2021-02-20T14:27:43.000Z</time>
      </trkpt>
      <trkpt lat="45.86489" lon="5.48268">
        <ele>983.8</ele>
        <time>2021-02-20T14:27:44.000Z</time>
      </trkpt>
      <trkpt lat="45.86479" lon="5.48275">
        <ele>982.8</ele>
        <time>2021-02-20T14:27:46.000Z</time>
      </trkpt>
      <trkpt lat="45.86472" lon="5.48277">
        <ele>982.4</ele>
        <time>2021-02-20T14:27:47.000Z</time>
      </trkpt>
      <trkpt lat="45.86459" lon="5.48283">
        <ele>981.8</ele>
        <time>2021-02-20T14:27:49.000Z</time>
      </trkpt>
      <trkpt lat="45.86447" lon="5.48289">
        <ele>981</ele>
        <time>2021-02-20T14:27:51.000Z</time>
      </trkpt>
      <trkpt lat="45.86441" lon="5.48293">
        <ele>980.8</ele>
        <time>2021-02-20T14:27:52.000Z</time>
      </trkpt>
      <trkpt lat="45.86428" lon="5.48301">
        <ele>980</ele>
        <time>2021-02-20T14:27:54.000Z</time>
      </trkpt>
      <trkpt lat="45.86423" lon="5.48304">
        <ele>979.4</ele>
        <time>2021-02-20T14:27:55.000Z</time>
      </trkpt>
      <trkpt lat="45.86417" lon="5.48307">
        <ele>979</ele>
        <time>2021-02-20T14:27:56.000Z</time>
      </trkpt>
      <trkpt lat="45.86411" lon="5.48311">
        <ele>978.4</ele>
        <time>2021-02-20T14:27:57.000Z</time>
      </trkpt>
      <trkpt lat="45.86405" lon="5.48315">
        <ele>977.2</ele>
        <time>2021-02-20T14:27:58.000Z</time>
      </trkpt>
      <trkpt lat="45.86399" lon="5.48319">
        <ele>976.4</ele>
        <time>2021-02-20T14:27:59.000Z</time>
      </trkpt>
      <trkpt lat="45.86394" lon="5.48323">
        <ele>975.2</ele>
        <time>2021-02-20T14:28:00.000Z</time>
      </trkpt>
      <trkpt lat="45.86376" lon="5.48339">
        <ele>972.4</ele>
        <time>2021-02-20T14:28:03.000Z</time>
      </trkpt>
      <trkpt lat="45.8637" lon="5.48344">
        <ele>971.4</ele>
        <time>2021-02-20T14:28:04.000Z</time>
      </trkpt>
      <trkpt lat="45.86364" lon="5.48348">
        <ele>970.6</ele>
        <time>2021-02-20T14:28:05.000Z</time>
      </trkpt>
      <trkpt lat="45.86358" lon="5.48351">
        <ele>969.2</ele>
        <time>2021-02-20T14:28:06.000Z</time>
      </trkpt>
      <trkpt lat="45.86353" lon="5.48353">
        <ele>967.8</ele>
        <time>2021-02-20T14:28:07.000Z</time>
      </trkpt>
      <trkpt lat="45.86347" lon="5.48355">
        <ele>967.4</ele>
        <time>2021-02-20T14:28:08.000Z</time>
      </trkpt>
      <trkpt lat="45.86341" lon="5.48357">
        <ele>967.4</ele>
        <time>2021-02-20T14:28:09.000Z</time>
      </trkpt>
      <trkpt lat="45.86336" lon="5.48358">
        <ele>966.8</ele>
        <time>2021-02-20T14:28:10.000Z</time>
      </trkpt>
      <trkpt lat="45.86332" lon="5.48358">
        <ele>966.4</ele>
        <time>2021-02-20T14:28:11.000Z</time>
      </trkpt>
      <trkpt lat="45.86328" lon="5.48358">
        <ele>966</ele>
        <time>2021-02-20T14:28:12.000Z</time>
      </trkpt>
      <trkpt lat="45.86323" lon="5.48358">
        <ele>965.6</ele>
        <time>2021-02-20T14:28:13.000Z</time>
      </trkpt>
      <trkpt lat="45.8632" lon="5.48356">
        <ele>964.8</ele>
        <time>2021-02-20T14:28:14.000Z</time>
      </trkpt>
      <trkpt lat="45.86317" lon="5.48354">
        <ele>964.2</ele>
        <time>2021-02-20T14:28:15.000Z</time>
      </trkpt>
      <trkpt lat="45.86314" lon="5.48351">
        <ele>963.2</ele>
        <time>2021-02-20T14:28:16.000Z</time>
      </trkpt>
      <trkpt lat="45.86311" lon="5.48349">
        <ele>962.2</ele>
        <time>2021-02-20T14:28:17.000Z</time>
      </trkpt>
      <trkpt lat="45.86309" lon="5.48347">
        <ele>961.2</ele>
        <time>2021-02-20T14:28:18.000Z</time>
      </trkpt>
      <trkpt lat="45.86308" lon="5.48346">
        <ele>960.4</ele>
        <time>2021-02-20T14:28:19.000Z</time>
      </trkpt>
      <trkpt lat="45.86307" lon="5.48345">
        <ele>959.4</ele>
        <time>2021-02-20T14:28:20.000Z</time>
      </trkpt>
      <trkpt lat="45.86301" lon="5.48336">
        <ele>956.2</ele>
        <time>2021-02-20T14:28:43.000Z</time>
      </trkpt>
      <trkpt lat="45.863" lon="5.48335">
        <ele>956.2</ele>
        <time>2021-02-20T14:28:44.000Z</time>
      </trkpt>
      <trkpt lat="45.86287" lon="5.48326">
        <ele>956.2</ele>
        <time>2021-02-20T14:28:50.000Z</time>
      </trkpt>
      <trkpt lat="45.86276" lon="5.4832">
        <ele>956.2</ele>
        <time>2021-02-20T14:28:54.000Z</time>
      </trkpt>
      <trkpt lat="45.8627" lon="5.48313">
        <ele>956.2</ele>
        <time>2021-02-20T14:28:57.000Z</time>
      </trkpt>
      <trkpt lat="45.86268" lon="5.4831">
        <ele>956.2</ele>
        <time>2021-02-20T14:28:58.000Z</time>
      </trkpt>
      <trkpt lat="45.86267" lon="5.48306">
        <ele>956.2</ele>
        <time>2021-02-20T14:28:59.000Z</time>
      </trkpt>
      <trkpt lat="45.86266" lon="5.48301">
        <ele>956.2</ele>
        <time>2021-02-20T14:29:00.000Z</time>
      </trkpt>
      <trkpt lat="45.86267" lon="5.48296">
        <ele>956.2</ele>
        <time>2021-02-20T14:29:01.000Z</time>
      </trkpt>
      <trkpt lat="45.86267" lon="5.48291">
        <ele>956.2</ele>
        <time>2021-02-20T14:29:02.000Z</time>
      </trkpt>
      <trkpt lat="45.86268" lon="5.48287">
        <ele>956.2</ele>
        <time>2021-02-20T14:29:03.000Z</time>
      </trkpt>
      <trkpt lat="45.86269" lon="5.48282">
        <ele>956.2</ele>
        <time>2021-02-20T14:29:04.000Z</time>
      </trkpt>
      <trkpt lat="45.86269" lon="5.48277">
        <ele>956.2</ele>
        <time>2021-02-20T14:29:05.000Z</time>
      </trkpt>
      <trkpt lat="45.86273" lon="5.48264">
        <ele>956.4</ele>
        <time>2021-02-20T14:29:08.000Z</time>
      </trkpt>
      <trkpt lat="45.86274" lon="5.4826">
        <ele>956.4</ele>
        <time>2021-02-20T14:29:09.000Z</time>
      </trkpt>
      <trkpt lat="45.86284" lon="5.48239">
        <ele>956.8</ele>
        <time>2021-02-20T14:29:14.000Z</time>
      </trkpt>
      <trkpt lat="45.86299" lon="5.48205">
        <ele>957.2</ele>
        <time>2021-02-20T14:29:21.000Z</time>
      </trkpt>
      <trkpt lat="45.86317" lon="5.48159">
        <ele>956.8</ele>
        <time>2021-02-20T14:29:29.000Z</time>
      </trkpt>
      <trkpt lat="45.86323" lon="5.48147">
        <ele>956.8</ele>
        <time>2021-02-20T14:29:31.000Z</time>
      </trkpt>
      <trkpt lat="45.86332" lon="5.48129">
        <ele>956.4</ele>
        <time>2021-02-20T14:29:34.000Z</time>
      </trkpt>
      <trkpt lat="45.8634" lon="5.48112">
        <ele>956.2</ele>
        <time>2021-02-20T14:29:37.000Z</time>
      </trkpt>
      <trkpt lat="45.86343" lon="5.48106">
        <ele>956</ele>
        <time>2021-02-20T14:29:38.000Z</time>
      </trkpt>
      <trkpt lat="45.86346" lon="5.48101">
        <ele>956</ele>
        <time>2021-02-20T14:29:39.000Z</time>
      </trkpt>
      <trkpt lat="45.86348" lon="5.48095">
        <ele>956.2</ele>
        <time>2021-02-20T14:29:40.000Z</time>
      </trkpt>
      <trkpt lat="45.86351" lon="5.4809">
        <ele>955.8</ele>
        <time>2021-02-20T14:29:41.000Z</time>
      </trkpt>
      <trkpt lat="45.86353" lon="5.48085">
        <ele>955.8</ele>
        <time>2021-02-20T14:29:42.000Z</time>
      </trkpt>
      <trkpt lat="45.86356" lon="5.4808">
        <ele>955.6</ele>
        <time>2021-02-20T14:29:43.000Z</time>
      </trkpt>
      <trkpt lat="45.86363" lon="5.48069">
        <ele>955.2</ele>
        <time>2021-02-20T14:29:45.000Z</time>
      </trkpt>
      <trkpt lat="45.8637" lon="5.48057">
        <ele>955</ele>
        <time>2021-02-20T14:29:47.000Z</time>
      </trkpt>
      <trkpt lat="45.86373" lon="5.48052">
        <ele>955.2</ele>
        <time>2021-02-20T14:29:48.000Z</time>
      </trkpt>
      <trkpt lat="45.86376" lon="5.48047">
        <ele>955</ele>
        <time>2021-02-20T14:29:49.000Z</time>
      </trkpt>
      <trkpt lat="45.86379" lon="5.48041">
        <ele>955</ele>
        <time>2021-02-20T14:29:50.000Z</time>
      </trkpt>
      <trkpt lat="45.86382" lon="5.48036">
        <ele>955</ele>
        <time>2021-02-20T14:29:51.000Z</time>
      </trkpt>
      <trkpt lat="45.86385" lon="5.48031">
        <ele>955.2</ele>
        <time>2021-02-20T14:29:52.000Z</time>
      </trkpt>
      <trkpt lat="45.86387" lon="5.48026">
        <ele>955</ele>
        <time>2021-02-20T14:29:53.000Z</time>
      </trkpt>
      <trkpt lat="45.86392" lon="5.48016">
        <ele>955.2</ele>
        <time>2021-02-20T14:29:55.000Z</time>
      </trkpt>
      <trkpt lat="45.86394" lon="5.48011">
        <ele>955.2</ele>
        <time>2021-02-20T14:29:56.000Z</time>
      </trkpt>
      <trkpt lat="45.86403" lon="5.47996">
        <ele>955.6</ele>
        <time>2021-02-20T14:29:59.000Z</time>
      </trkpt>
      <trkpt lat="45.86406" lon="5.47992">
        <ele>955.8</ele>
        <time>2021-02-20T14:30:00.000Z</time>
      </trkpt>
      <trkpt lat="45.86408" lon="5.47988">
        <ele>956</ele>
        <time>2021-02-20T14:30:01.000Z</time>
      </trkpt>
      <trkpt lat="45.86411" lon="5.47984">
        <ele>956</ele>
        <time>2021-02-20T14:30:02.000Z</time>
      </trkpt>
      <trkpt lat="45.86416" lon="5.47974">
        <ele>956.2</ele>
        <time>2021-02-20T14:30:04.000Z</time>
      </trkpt>
      <trkpt lat="45.86418" lon="5.4797">
        <ele>956.4</ele>
        <time>2021-02-20T14:30:05.000Z</time>
      </trkpt>
      <trkpt lat="45.8642" lon="5.47965">
        <ele>956.2</ele>
        <time>2021-02-20T14:30:06.000Z</time>
      </trkpt>
      <trkpt lat="45.86424" lon="5.47944">
        <ele>957</ele>
        <time>2021-02-20T14:30:10.000Z</time>
      </trkpt>
      <trkpt lat="45.86424" lon="5.47938">
        <ele>957.2</ele>
        <time>2021-02-20T14:30:11.000Z</time>
      </trkpt>
      <trkpt lat="45.86425" lon="5.47932">
        <ele>957.2</ele>
        <time>2021-02-20T14:30:12.000Z</time>
      </trkpt>
      <trkpt lat="45.86425" lon="5.47926">
        <ele>957.6</ele>
        <time>2021-02-20T14:30:13.000Z</time>
      </trkpt>
      <trkpt lat="45.86424" lon="5.47921">
        <ele>957.6</ele>
        <time>2021-02-20T14:30:14.000Z</time>
      </trkpt>
      <trkpt lat="45.86423" lon="5.47901">
        <ele>957.6</ele>
        <time>2021-02-20T14:30:18.000Z</time>
      </trkpt>
      <trkpt lat="45.86423" lon="5.47895">
        <ele>957.8</ele>
        <time>2021-02-20T14:30:19.000Z</time>
      </trkpt>
      <trkpt lat="45.86423" lon="5.4789">
        <ele>957.8</ele>
        <time>2021-02-20T14:30:20.000Z</time>
      </trkpt>
      <trkpt lat="45.86423" lon="5.47884">
        <ele>958</ele>
        <time>2021-02-20T14:30:21.000Z</time>
      </trkpt>
      <trkpt lat="45.86423" lon="5.47879">
        <ele>957.8</ele>
        <time>2021-02-20T14:30:22.000Z</time>
      </trkpt>
      <trkpt lat="45.86424" lon="5.47873">
        <ele>958</ele>
        <time>2021-02-20T14:30:23.000Z</time>
      </trkpt>
      <trkpt lat="45.86423" lon="5.47868">
        <ele>958</ele>
        <time>2021-02-20T14:30:24.000Z</time>
      </trkpt>
      <trkpt lat="45.86422" lon="5.47864">
        <ele>958</ele>
        <time>2021-02-20T14:30:25.000Z</time>
      </trkpt>
      <trkpt lat="45.86421" lon="5.4786">
        <ele>958.2</ele>
        <time>2021-02-20T14:30:26.000Z</time>
      </trkpt>
      <trkpt lat="45.86421" lon="5.47855">
        <ele>958.2</ele>
        <time>2021-02-20T14:30:27.000Z</time>
      </trkpt>
      <trkpt lat="45.8642" lon="5.4785">
        <ele>958.4</ele>
        <time>2021-02-20T14:30:28.000Z</time>
      </trkpt>
      <trkpt lat="45.8642" lon="5.47844">
        <ele>958.8</ele>
        <time>2021-02-20T14:30:29.000Z</time>
      </trkpt>
      <trkpt lat="45.86419" lon="5.47839">
        <ele>959</ele>
        <time>2021-02-20T14:30:30.000Z</time>
      </trkpt>
      <trkpt lat="45.86418" lon="5.47833">
        <ele>959</ele>
        <time>2021-02-20T14:30:31.000Z</time>
      </trkpt>
      <trkpt lat="45.86419" lon="5.47827">
        <ele>959</ele>
        <time>2021-02-20T14:30:32.000Z</time>
      </trkpt>
      <trkpt lat="45.86418" lon="5.4782">
        <ele>959.2</ele>
        <time>2021-02-20T14:30:33.000Z</time>
      </trkpt>
      <trkpt lat="45.86418" lon="5.47813">
        <ele>959.2</ele>
        <time>2021-02-20T14:30:34.000Z</time>
      </trkpt>
      <trkpt lat="45.86418" lon="5.47805">
        <ele>959.2</ele>
        <time>2021-02-20T14:30:35.000Z</time>
      </trkpt>
      <trkpt lat="45.86419" lon="5.47797">
        <ele>959.2</ele>
        <time>2021-02-20T14:30:36.000Z</time>
      </trkpt>
      <trkpt lat="45.86421" lon="5.47769">
        <ele>959.2</ele>
        <time>2021-02-20T14:30:39.000Z</time>
      </trkpt>
      <trkpt lat="45.86421" lon="5.47749">
        <ele>959.2</ele>
        <time>2021-02-20T14:30:41.000Z</time>
      </trkpt>
      <trkpt lat="45.86421" lon="5.4774">
        <ele>959</ele>
        <time>2021-02-20T14:30:42.000Z</time>
      </trkpt>
      <trkpt lat="45.86421" lon="5.4773">
        <ele>958.4</ele>
        <time>2021-02-20T14:30:43.000Z</time>
      </trkpt>
      <trkpt lat="45.86421" lon="5.47721">
        <ele>958</ele>
        <time>2021-02-20T14:30:44.000Z</time>
      </trkpt>
      <trkpt lat="45.86421" lon="5.47711">
        <ele>957.4</ele>
        <time>2021-02-20T14:30:45.000Z</time>
      </trkpt>
      <trkpt lat="45.86422" lon="5.47701">
        <ele>956.8</ele>
        <time>2021-02-20T14:30:46.000Z</time>
      </trkpt>
      <trkpt lat="45.86424" lon="5.47692">
        <ele>956.2</ele>
        <time>2021-02-20T14:30:47.000Z</time>
      </trkpt>
      <trkpt lat="45.86427" lon="5.47681">
        <ele>955.6</ele>
        <time>2021-02-20T14:30:48.000Z</time>
      </trkpt>
      <trkpt lat="45.8643" lon="5.47671">
        <ele>954.8</ele>
        <time>2021-02-20T14:30:49.000Z</time>
      </trkpt>
      <trkpt lat="45.8644" lon="5.47654">
        <ele>953.2</ele>
        <time>2021-02-20T14:30:51.000Z</time>
      </trkpt>
      <trkpt lat="45.86447" lon="5.47648">
        <ele>952.2</ele>
        <time>2021-02-20T14:30:52.000Z</time>
      </trkpt>
      <trkpt lat="45.86455" lon="5.47646">
        <ele>951.4</ele>
        <time>2021-02-20T14:30:53.000Z</time>
      </trkpt>
      <trkpt lat="45.86464" lon="5.47647">
        <ele>950.8</ele>
        <time>2021-02-20T14:30:54.000Z</time>
      </trkpt>
      <trkpt lat="45.86472" lon="5.4765">
        <ele>950.6</ele>
        <time>2021-02-20T14:30:55.000Z</time>
      </trkpt>
      <trkpt lat="45.86481" lon="5.47655">
        <ele>950.2</ele>
        <time>2021-02-20T14:30:56.000Z</time>
      </trkpt>
      <trkpt lat="45.8649" lon="5.4766">
        <ele>950.2</ele>
        <time>2021-02-20T14:30:57.000Z</time>
      </trkpt>
      <trkpt lat="45.865" lon="5.47665">
        <ele>949.4</ele>
        <time>2021-02-20T14:30:58.000Z</time>
      </trkpt>
      <trkpt lat="45.86522" lon="5.4767">
        <ele>947.6</ele>
        <time>2021-02-20T14:31:00.000Z</time>
      </trkpt>
      <trkpt lat="45.86533" lon="5.47672">
        <ele>947.2</ele>
        <time>2021-02-20T14:31:01.000Z</time>
      </trkpt>
      <trkpt lat="45.86545" lon="5.47674">
        <ele>946.8</ele>
        <time>2021-02-20T14:31:02.000Z</time>
      </trkpt>
      <trkpt lat="45.86557" lon="5.47675">
        <ele>946.4</ele>
        <time>2021-02-20T14:31:03.000Z</time>
      </trkpt>
      <trkpt lat="45.86568" lon="5.47675">
        <ele>946.2</ele>
        <time>2021-02-20T14:31:04.000Z</time>
      </trkpt>
      <trkpt lat="45.8658" lon="5.47673">
        <ele>945.2</ele>
        <time>2021-02-20T14:31:05.000Z</time>
      </trkpt>
      <trkpt lat="45.86592" lon="5.4767">
        <ele>944.2</ele>
        <time>2021-02-20T14:31:06.000Z</time>
      </trkpt>
      <trkpt lat="45.86602" lon="5.47664">
        <ele>942.6</ele>
        <time>2021-02-20T14:31:07.000Z</time>
      </trkpt>
      <trkpt lat="45.8661" lon="5.47652">
        <ele>941.4</ele>
        <time>2021-02-20T14:31:08.000Z</time>
      </trkpt>
      <trkpt lat="45.86615" lon="5.47636">
        <ele>940.6</ele>
        <time>2021-02-20T14:31:09.000Z</time>
      </trkpt>
      <trkpt lat="45.8662" lon="5.47621">
        <ele>939.6</ele>
        <time>2021-02-20T14:31:10.000Z</time>
      </trkpt>
      <trkpt lat="45.86623" lon="5.47604">
        <ele>938.8</ele>
        <time>2021-02-20T14:31:11.000Z</time>
      </trkpt>
      <trkpt lat="45.86625" lon="5.47587">
        <ele>937.8</ele>
        <time>2021-02-20T14:31:12.000Z</time>
      </trkpt>
      <trkpt lat="45.86628" lon="5.4757">
        <ele>936.2</ele>
        <time>2021-02-20T14:31:13.000Z</time>
      </trkpt>
      <trkpt lat="45.86635" lon="5.4754">
        <ele>933</ele>
        <time>2021-02-20T14:31:15.000Z</time>
      </trkpt>
      <trkpt lat="45.86637" lon="5.47527">
        <ele>931.6</ele>
        <time>2021-02-20T14:31:16.000Z</time>
      </trkpt>
      <trkpt lat="45.86639" lon="5.47516">
        <ele>931.6</ele>
        <time>2021-02-20T14:31:17.000Z</time>
      </trkpt>
      <trkpt lat="45.86638" lon="5.47507">
        <ele>931</ele>
        <time>2021-02-20T14:31:18.000Z</time>
      </trkpt>
      <trkpt lat="45.86636" lon="5.47497">
        <ele>930.4</ele>
        <time>2021-02-20T14:31:19.000Z</time>
      </trkpt>
      <trkpt lat="45.8663" lon="5.47493">
        <ele>929.8</ele>
        <time>2021-02-20T14:31:20.000Z</time>
      </trkpt>
      <trkpt lat="45.86624" lon="5.4749">
        <ele>929.2</ele>
        <time>2021-02-20T14:31:21.000Z</time>
      </trkpt>
      <trkpt lat="45.86616" lon="5.47494">
        <ele>928.8</ele>
        <time>2021-02-20T14:31:22.000Z</time>
      </trkpt>
      <trkpt lat="45.8661" lon="5.47503">
        <ele>928.4</ele>
        <time>2021-02-20T14:31:23.000Z</time>
      </trkpt>
      <trkpt lat="45.86605" lon="5.47515">
        <ele>927.8</ele>
        <time>2021-02-20T14:31:24.000Z</time>
      </trkpt>
      <trkpt lat="45.86601" lon="5.47526">
        <ele>927.4</ele>
        <time>2021-02-20T14:31:25.000Z</time>
      </trkpt>
      <trkpt lat="45.86596" lon="5.47536">
        <ele>927.2</ele>
        <time>2021-02-20T14:31:26.000Z</time>
      </trkpt>
      <trkpt lat="45.86591" lon="5.47546">
        <ele>927</ele>
        <time>2021-02-20T14:31:27.000Z</time>
      </trkpt>
      <trkpt lat="45.86581" lon="5.47565">
        <ele>925.6</ele>
        <time>2021-02-20T14:31:29.000Z</time>
      </trkpt>
      <trkpt lat="45.86575" lon="5.47574">
        <ele>924.8</ele>
        <time>2021-02-20T14:31:30.000Z</time>
      </trkpt>
      <trkpt lat="45.86568" lon="5.4758">
        <ele>923.8</ele>
        <time>2021-02-20T14:31:31.000Z</time>
      </trkpt>
      <trkpt lat="45.86561" lon="5.47582">
        <ele>922.8</ele>
        <time>2021-02-20T14:31:32.000Z</time>
      </trkpt>
      <trkpt lat="45.86554" lon="5.47582">
        <ele>921.8</ele>
        <time>2021-02-20T14:31:33.000Z</time>
      </trkpt>
      <trkpt lat="45.86549" lon="5.47579">
        <ele>921</ele>
        <time>2021-02-20T14:31:34.000Z</time>
      </trkpt>
      <trkpt lat="45.86545" lon="5.47572">
        <ele>920.4</ele>
        <time>2021-02-20T14:31:35.000Z</time>
      </trkpt>
      <trkpt lat="45.86542" lon="5.47565">
        <ele>920.2</ele>
        <time>2021-02-20T14:31:36.000Z</time>
      </trkpt>
      <trkpt lat="45.86541" lon="5.47551">
        <ele>919.8</ele>
        <time>2021-02-20T14:31:38.000Z</time>
      </trkpt>
      <trkpt lat="45.86547" lon="5.47545">
        <ele>919.6</ele>
        <time>2021-02-20T14:31:39.000Z</time>
      </trkpt>
      <trkpt lat="45.86555" lon="5.47538">
        <ele>919.2</ele>
        <time>2021-02-20T14:31:40.000Z</time>
      </trkpt>
      <trkpt lat="45.86566" lon="5.47525">
        <ele>919</ele>
        <time>2021-02-20T14:31:42.000Z</time>
      </trkpt>
      <trkpt lat="45.86571" lon="5.47516">
        <ele>918.2</ele>
        <time>2021-02-20T14:31:43.000Z</time>
      </trkpt>
      <trkpt lat="45.86575" lon="5.47507">
        <ele>917.6</ele>
        <time>2021-02-20T14:31:44.000Z</time>
      </trkpt>
      <trkpt lat="45.86577" lon="5.47498">
        <ele>917.4</ele>
        <time>2021-02-20T14:31:45.000Z</time>
      </trkpt>
      <trkpt lat="45.86579" lon="5.47488">
        <ele>917</ele>
        <time>2021-02-20T14:31:46.000Z</time>
      </trkpt>
      <trkpt lat="45.8658" lon="5.47477">
        <ele>916.4</ele>
        <time>2021-02-20T14:31:47.000Z</time>
      </trkpt>
      <trkpt lat="45.86581" lon="5.47467">
        <ele>915.8</ele>
        <time>2021-02-20T14:31:48.000Z</time>
      </trkpt>
      <trkpt lat="45.86584" lon="5.47445">
        <ele>915</ele>
        <time>2021-02-20T14:31:50.000Z</time>
      </trkpt>
      <trkpt lat="45.86588" lon="5.47434">
        <ele>914.8</ele>
        <time>2021-02-20T14:31:51.000Z</time>
      </trkpt>
      <trkpt lat="45.86593" lon="5.47425">
        <ele>914.2</ele>
        <time>2021-02-20T14:31:52.000Z</time>
      </trkpt>
      <trkpt lat="45.86599" lon="5.47415">
        <ele>913.4</ele>
        <time>2021-02-20T14:31:53.000Z</time>
      </trkpt>
      <trkpt lat="45.86604" lon="5.47404">
        <ele>912.4</ele>
        <time>2021-02-20T14:31:54.000Z</time>
      </trkpt>
      <trkpt lat="45.86609" lon="5.47392">
        <ele>911.6</ele>
        <time>2021-02-20T14:31:55.000Z</time>
      </trkpt>
      <trkpt lat="45.86614" lon="5.47379">
        <ele>910.8</ele>
        <time>2021-02-20T14:31:56.000Z</time>
      </trkpt>
      <trkpt lat="45.86626" lon="5.47354">
        <ele>910.2</ele>
        <time>2021-02-20T14:31:58.000Z</time>
      </trkpt>
      <trkpt lat="45.86645" lon="5.47315">
        <ele>908.6</ele>
        <time>2021-02-20T14:32:01.000Z</time>
      </trkpt>
      <trkpt lat="45.86652" lon="5.47303">
        <ele>908.2</ele>
        <time>2021-02-20T14:32:02.000Z</time>
      </trkpt>
      <trkpt lat="45.86675" lon="5.47268">
        <ele>906</ele>
        <time>2021-02-20T14:32:05.000Z</time>
      </trkpt>
      <trkpt lat="45.86684" lon="5.47257">
        <ele>905.4</ele>
        <time>2021-02-20T14:32:06.000Z</time>
      </trkpt>
      <trkpt lat="45.86702" lon="5.47237">
        <ele>903.6</ele>
        <time>2021-02-20T14:32:08.000Z</time>
      </trkpt>
      <trkpt lat="45.86711" lon="5.47229">
        <ele>903</ele>
        <time>2021-02-20T14:32:09.000Z</time>
      </trkpt>
      <trkpt lat="45.8672" lon="5.4722">
        <ele>902.6</ele>
        <time>2021-02-20T14:32:10.000Z</time>
      </trkpt>
      <trkpt lat="45.86729" lon="5.47213">
        <ele>901.6</ele>
        <time>2021-02-20T14:32:11.000Z</time>
      </trkpt>
      <trkpt lat="45.86737" lon="5.47206">
        <ele>901</ele>
        <time>2021-02-20T14:32:12.000Z</time>
      </trkpt>
      <trkpt lat="45.86745" lon="5.47198">
        <ele>900.6</ele>
        <time>2021-02-20T14:32:13.000Z</time>
      </trkpt>
      <trkpt lat="45.86751" lon="5.47188">
        <ele>899.8</ele>
        <time>2021-02-20T14:32:14.000Z</time>
      </trkpt>
      <trkpt lat="45.86754" lon="5.47177">
        <ele>899</ele>
        <time>2021-02-20T14:32:15.000Z</time>
      </trkpt>
      <trkpt lat="45.86755" lon="5.47165">
        <ele>898.2</ele>
        <time>2021-02-20T14:32:16.000Z</time>
      </trkpt>
      <trkpt lat="45.86756" lon="5.47152">
        <ele>898.2</ele>
        <time>2021-02-20T14:32:17.000Z</time>
      </trkpt>
      <trkpt lat="45.86755" lon="5.47139">
        <ele>897.6</ele>
        <time>2021-02-20T14:32:18.000Z</time>
      </trkpt>
      <trkpt lat="45.86755" lon="5.47128">
        <ele>897</ele>
        <time>2021-02-20T14:32:19.000Z</time>
      </trkpt>
      <trkpt lat="45.86756" lon="5.47117">
        <ele>896.2</ele>
        <time>2021-02-20T14:32:20.000Z</time>
      </trkpt>
      <trkpt lat="45.86756" lon="5.47106">
        <ele>895.6</ele>
        <time>2021-02-20T14:32:21.000Z</time>
      </trkpt>
      <trkpt lat="45.86758" lon="5.47096">
        <ele>895.4</ele>
        <time>2021-02-20T14:32:22.000Z</time>
      </trkpt>
      <trkpt lat="45.8676" lon="5.47087">
        <ele>894.8</ele>
        <time>2021-02-20T14:32:23.000Z</time>
      </trkpt>
      <trkpt lat="45.86762" lon="5.4708">
        <ele>894.2</ele>
        <time>2021-02-20T14:32:24.000Z</time>
      </trkpt>
      <trkpt lat="45.86765" lon="5.47074">
        <ele>893.2</ele>
        <time>2021-02-20T14:32:25.000Z</time>
      </trkpt>
      <trkpt lat="45.86767" lon="5.47069">
        <ele>892.8</ele>
        <time>2021-02-20T14:32:26.000Z</time>
      </trkpt>
      <trkpt lat="45.8677" lon="5.47066">
        <ele>892.2</ele>
        <time>2021-02-20T14:32:27.000Z</time>
      </trkpt>
      <trkpt lat="45.86772" lon="5.47063">
        <ele>891.8</ele>
        <time>2021-02-20T14:32:28.000Z</time>
      </trkpt>
      <trkpt lat="45.86774" lon="5.4706">
        <ele>891.6</ele>
        <time>2021-02-20T14:32:29.000Z</time>
      </trkpt>
      <trkpt lat="45.86777" lon="5.47058">
        <ele>891.4</ele>
        <time>2021-02-20T14:32:30.000Z</time>
      </trkpt>
      <trkpt lat="45.86779" lon="5.47057">
        <ele>891.4</ele>
        <time>2021-02-20T14:32:31.000Z</time>
      </trkpt>
      <trkpt lat="45.86783" lon="5.47055">
        <ele>891</ele>
        <time>2021-02-20T14:32:33.000Z</time>
      </trkpt>
      <trkpt lat="45.86786" lon="5.47053">
        <ele>891</ele>
        <time>2021-02-20T14:32:35.000Z</time>
      </trkpt>
      <trkpt lat="45.86787" lon="5.47052">
        <ele>891.2</ele>
        <time>2021-02-20T14:32:36.000Z</time>
      </trkpt>
      <trkpt lat="45.86791" lon="5.47047">
        <ele>891.2</ele>
        <time>2021-02-20T14:32:39.000Z</time>
      </trkpt>
      <trkpt lat="45.86793" lon="5.47043">
        <ele>891.2</ele>
        <time>2021-02-20T14:32:41.000Z</time>
      </trkpt>
      <trkpt lat="45.86793" lon="5.4704">
        <ele>891.2</ele>
        <time>2021-02-20T14:32:42.000Z</time>
      </trkpt>
      <trkpt lat="45.86793" lon="5.47035">
        <ele>891.4</ele>
        <time>2021-02-20T14:32:44.000Z</time>
      </trkpt>
      <trkpt lat="45.86794" lon="5.47032">
        <ele>891.6</ele>
        <time>2021-02-20T14:32:45.000Z</time>
      </trkpt>
      <trkpt lat="45.86801" lon="5.47023">
        <ele>892.2</ele>
        <time>2021-02-20T14:32:48.000Z</time>
      </trkpt>
      <trkpt lat="45.86808" lon="5.47015">
        <ele>892.8</ele>
        <time>2021-02-20T14:32:51.000Z</time>
      </trkpt>
      <trkpt lat="45.8681" lon="5.47012">
        <ele>892.8</ele>
        <time>2021-02-20T14:32:52.000Z</time>
      </trkpt>
      <trkpt lat="45.86811" lon="5.47009">
        <ele>893</ele>
        <time>2021-02-20T14:32:53.000Z</time>
      </trkpt>
      <trkpt lat="45.86815" lon="5.47002">
        <ele>893.4</ele>
        <time>2021-02-20T14:32:55.000Z</time>
      </trkpt>
      <trkpt lat="45.86817" lon="5.46999">
        <ele>893.4</ele>
        <time>2021-02-20T14:32:56.000Z</time>
      </trkpt>
      <trkpt lat="45.8682" lon="5.46995">
        <ele>893.8</ele>
        <time>2021-02-20T14:32:58.000Z</time>
      </trkpt>
      <trkpt lat="45.86821" lon="5.46993">
        <ele>894</ele>
        <time>2021-02-20T14:32:59.000Z</time>
      </trkpt>
      <trkpt lat="45.86824" lon="5.46991">
        <ele>894</ele>
        <time>2021-02-20T14:33:00.000Z</time>
      </trkpt>
      <trkpt lat="45.86826" lon="5.46989">
        <ele>894</ele>
        <time>2021-02-20T14:33:01.000Z</time>
      </trkpt>
      <trkpt lat="45.86827" lon="5.46987">
        <ele>894.2</ele>
        <time>2021-02-20T14:33:02.000Z</time>
      </trkpt>
      <trkpt lat="45.86828" lon="5.46985">
        <ele>894.2</ele>
        <time>2021-02-20T14:33:03.000Z</time>
      </trkpt>
      <trkpt lat="45.8683" lon="5.46983">
        <ele>894.4</ele>
        <time>2021-02-20T14:33:04.000Z</time>
      </trkpt>
      <trkpt lat="45.8683" lon="5.46981">
        <ele>894.6</ele>
        <time>2021-02-20T14:33:05.000Z</time>
      </trkpt>
      <trkpt lat="45.86832" lon="5.46979">
        <ele>894.6</ele>
        <time>2021-02-20T14:33:06.000Z</time>
      </trkpt>
      <trkpt lat="45.86833" lon="5.46977">
        <ele>894.8</ele>
        <time>2021-02-20T14:33:07.000Z</time>
      </trkpt>
      <trkpt lat="45.86835" lon="5.46975">
        <ele>895</ele>
        <time>2021-02-20T14:33:08.000Z</time>
      </trkpt>
      <trkpt lat="45.86836" lon="5.46973">
        <ele>895</ele>
        <time>2021-02-20T14:33:09.000Z</time>
      </trkpt>
      <trkpt lat="45.86838" lon="5.46971">
        <ele>895.4</ele>
        <time>2021-02-20T14:33:10.000Z</time>
      </trkpt>
      <trkpt lat="45.86839" lon="5.46969">
        <ele>895.6</ele>
        <time>2021-02-20T14:33:11.000Z</time>
      </trkpt>
      <trkpt lat="45.8684" lon="5.46967">
        <ele>895.4</ele>
        <time>2021-02-20T14:33:12.000Z</time>
      </trkpt>
      <trkpt lat="45.86842" lon="5.46965">
        <ele>895.6</ele>
        <time>2021-02-20T14:33:13.000Z</time>
      </trkpt>
      <trkpt lat="45.86843" lon="5.46962">
        <ele>895.8</ele>
        <time>2021-02-20T14:33:14.000Z</time>
      </trkpt>
      <trkpt lat="45.86845" lon="5.4696">
        <ele>896</ele>
        <time>2021-02-20T14:33:15.000Z</time>
      </trkpt>
      <trkpt lat="45.86846" lon="5.46958">
        <ele>896.2</ele>
        <time>2021-02-20T14:33:16.000Z</time>
      </trkpt>
      <trkpt lat="45.86848" lon="5.46956">
        <ele>896.2</ele>
        <time>2021-02-20T14:33:17.000Z</time>
      </trkpt>
      <trkpt lat="45.8685" lon="5.46955">
        <ele>896.4</ele>
        <time>2021-02-20T14:33:18.000Z</time>
      </trkpt>
      <trkpt lat="45.86851" lon="5.46953">
        <ele>896.4</ele>
        <time>2021-02-20T14:33:19.000Z</time>
      </trkpt>
      <trkpt lat="45.86853" lon="5.4695">
        <ele>896.6</ele>
        <time>2021-02-20T14:33:20.000Z</time>
      </trkpt>
      <trkpt lat="45.86855" lon="5.46947">
        <ele>897</ele>
        <time>2021-02-20T14:33:21.000Z</time>
      </trkpt>
      <trkpt lat="45.86857" lon="5.46944">
        <ele>897</ele>
        <time>2021-02-20T14:33:22.000Z</time>
      </trkpt>
      <trkpt lat="45.86858" lon="5.46942">
        <ele>897.2</ele>
        <time>2021-02-20T14:33:23.000Z</time>
      </trkpt>
      <trkpt lat="45.8686" lon="5.4694">
        <ele>897.2</ele>
        <time>2021-02-20T14:33:24.000Z</time>
      </trkpt>
      <trkpt lat="45.86861" lon="5.46938">
        <ele>897.4</ele>
        <time>2021-02-20T14:33:25.000Z</time>
      </trkpt>
      <trkpt lat="45.86863" lon="5.46936">
        <ele>897.6</ele>
        <time>2021-02-20T14:33:26.000Z</time>
      </trkpt>
      <trkpt lat="45.86863" lon="5.46935">
        <ele>897.6</ele>
        <time>2021-02-20T14:33:27.000Z</time>
      </trkpt>
      <trkpt lat="45.86865" lon="5.46934">
        <ele>897.6</ele>
        <time>2021-02-20T14:33:28.000Z</time>
      </trkpt>
      <trkpt lat="45.86866" lon="5.46932">
        <ele>897.8</ele>
        <time>2021-02-20T14:33:29.000Z</time>
      </trkpt>
      <trkpt lat="45.86868" lon="5.4693">
        <ele>898</ele>
        <time>2021-02-20T14:33:30.000Z</time>
      </trkpt>
      <trkpt lat="45.8687" lon="5.46929">
        <ele>898.2</ele>
        <time>2021-02-20T14:33:31.000Z</time>
      </trkpt>
      <trkpt lat="45.86872" lon="5.46927">
        <ele>898.4</ele>
        <time>2021-02-20T14:33:32.000Z</time>
      </trkpt>
      <trkpt lat="45.86873" lon="5.46926">
        <ele>898.6</ele>
        <time>2021-02-20T14:33:33.000Z</time>
      </trkpt>
      <trkpt lat="45.86875" lon="5.46924">
        <ele>898.8</ele>
        <time>2021-02-20T14:33:34.000Z</time>
      </trkpt>
      <trkpt lat="45.86878" lon="5.46923">
        <ele>898.8</ele>
        <time>2021-02-20T14:33:35.000Z</time>
      </trkpt>
      <trkpt lat="45.86879" lon="5.46921">
        <ele>899</ele>
        <time>2021-02-20T14:33:36.000Z</time>
      </trkpt>
      <trkpt lat="45.8688" lon="5.46921">
        <ele>899</ele>
        <time>2021-02-20T14:33:37.000Z</time>
      </trkpt>
      <trkpt lat="45.86881" lon="5.4692">
        <ele>899.2</ele>
        <time>2021-02-20T14:33:38.000Z</time>
      </trkpt>
      <trkpt lat="45.86884" lon="5.46919">
        <ele>899.4</ele>
        <time>2021-02-20T14:33:39.000Z</time>
      </trkpt>
      <trkpt lat="45.86885" lon="5.46918">
        <ele>899.6</ele>
        <time>2021-02-20T14:33:40.000Z</time>
      </trkpt>
      <trkpt lat="45.86886" lon="5.46917">
        <ele>899.8</ele>
        <time>2021-02-20T14:33:41.000Z</time>
      </trkpt>
      <trkpt lat="45.86888" lon="5.46916">
        <ele>900</ele>
        <time>2021-02-20T14:33:42.000Z</time>
      </trkpt>
      <trkpt lat="45.86889" lon="5.46914">
        <ele>900</ele>
        <time>2021-02-20T14:33:43.000Z</time>
      </trkpt>
      <trkpt lat="45.8689" lon="5.46913">
        <ele>900</ele>
        <time>2021-02-20T14:33:44.000Z</time>
      </trkpt>
      <trkpt lat="45.86891" lon="5.46911">
        <ele>900.4</ele>
        <time>2021-02-20T14:33:45.000Z</time>
      </trkpt>
      <trkpt lat="45.86892" lon="5.46909">
        <ele>900.6</ele>
        <time>2021-02-20T14:33:46.000Z</time>
      </trkpt>
      <trkpt lat="45.86893" lon="5.46908">
        <ele>900.8</ele>
        <time>2021-02-20T14:33:47.000Z</time>
      </trkpt>
      <trkpt lat="45.86895" lon="5.46907">
        <ele>901</ele>
        <time>2021-02-20T14:33:48.000Z</time>
      </trkpt>
      <trkpt lat="45.86896" lon="5.46906">
        <ele>901.2</ele>
        <time>2021-02-20T14:33:49.000Z</time>
      </trkpt>
      <trkpt lat="45.86898" lon="5.46904">
        <ele>901.4</ele>
        <time>2021-02-20T14:33:50.000Z</time>
      </trkpt>
      <trkpt lat="45.869" lon="5.46903">
        <ele>901.4</ele>
        <time>2021-02-20T14:33:51.000Z</time>
      </trkpt>
      <trkpt lat="45.86902" lon="5.46902">
        <ele>901.8</ele>
        <time>2021-02-20T14:33:52.000Z</time>
      </trkpt>
      <trkpt lat="45.86903" lon="5.46901">
        <ele>902</ele>
        <time>2021-02-20T14:33:53.000Z</time>
      </trkpt>
      <trkpt lat="45.86904" lon="5.46901">
        <ele>902</ele>
        <time>2021-02-20T14:33:54.000Z</time>
      </trkpt>
      <trkpt lat="45.86905" lon="5.469">
        <ele>902.2</ele>
        <time>2021-02-20T14:33:55.000Z</time>
      </trkpt>
      <trkpt lat="45.86907" lon="5.469">
        <ele>902.2</ele>
        <time>2021-02-20T14:33:56.000Z</time>
      </trkpt>
      <trkpt lat="45.86908" lon="5.46899">
        <ele>902.4</ele>
        <time>2021-02-20T14:33:57.000Z</time>
      </trkpt>
      <trkpt lat="45.86909" lon="5.46898">
        <ele>902.4</ele>
        <time>2021-02-20T14:33:58.000Z</time>
      </trkpt>
      <trkpt lat="45.8691" lon="5.46897">
        <ele>902.6</ele>
        <time>2021-02-20T14:33:59.000Z</time>
      </trkpt>
      <trkpt lat="45.86911" lon="5.46896">
        <ele>902.8</ele>
        <time>2021-02-20T14:34:00.000Z</time>
      </trkpt>
      <trkpt lat="45.86912" lon="5.46895">
        <ele>902.8</ele>
        <time>2021-02-20T14:34:01.000Z</time>
      </trkpt>
      <trkpt lat="45.86914" lon="5.46894">
        <ele>903</ele>
        <time>2021-02-20T14:34:02.000Z</time>
      </trkpt>
      <trkpt lat="45.86914" lon="5.46893">
        <ele>903.6</ele>
        <time>2021-02-20T14:34:03.000Z</time>
      </trkpt>
      <trkpt lat="45.86915" lon="5.46891">
        <ele>903.8</ele>
        <time>2021-02-20T14:34:04.000Z</time>
      </trkpt>
      <trkpt lat="45.86916" lon="5.4689">
        <ele>904</ele>
        <time>2021-02-20T14:34:05.000Z</time>
      </trkpt>
      <trkpt lat="45.86917" lon="5.46889">
        <ele>904</ele>
        <time>2021-02-20T14:34:06.000Z</time>
      </trkpt>
      <trkpt lat="45.86919" lon="5.46888">
        <ele>904.2</ele>
        <time>2021-02-20T14:34:07.000Z</time>
      </trkpt>
      <trkpt lat="45.8692" lon="5.46887">
        <ele>904.4</ele>
        <time>2021-02-20T14:34:08.000Z</time>
      </trkpt>
      <trkpt lat="45.86921" lon="5.46886">
        <ele>904.6</ele>
        <time>2021-02-20T14:34:09.000Z</time>
      </trkpt>
      <trkpt lat="45.86925" lon="5.46884">
        <ele>905</ele>
        <time>2021-02-20T14:34:12.000Z</time>
      </trkpt>
      <trkpt lat="45.86927" lon="5.46882">
        <ele>905.4</ele>
        <time>2021-02-20T14:34:13.000Z</time>
      </trkpt>
      <trkpt lat="45.86928" lon="5.46881">
        <ele>905.4</ele>
        <time>2021-02-20T14:34:14.000Z</time>
      </trkpt>
      <trkpt lat="45.86929" lon="5.4688">
        <ele>905.8</ele>
        <time>2021-02-20T14:34:15.000Z</time>
      </trkpt>
      <trkpt lat="45.86931" lon="5.46879">
        <ele>906.4</ele>
        <time>2021-02-20T14:34:16.000Z</time>
      </trkpt>
      <trkpt lat="45.86932" lon="5.46877">
        <ele>906.4</ele>
        <time>2021-02-20T14:34:17.000Z</time>
      </trkpt>
      <trkpt lat="45.86934" lon="5.46876">
        <ele>906.4</ele>
        <time>2021-02-20T14:34:18.000Z</time>
      </trkpt>
      <trkpt lat="45.86936" lon="5.46875">
        <ele>906.6</ele>
        <time>2021-02-20T14:34:19.000Z</time>
      </trkpt>
      <trkpt lat="45.86937" lon="5.46873">
        <ele>906.8</ele>
        <time>2021-02-20T14:34:20.000Z</time>
      </trkpt>
      <trkpt lat="45.86938" lon="5.46872">
        <ele>906.8</ele>
        <time>2021-02-20T14:34:21.000Z</time>
      </trkpt>
      <trkpt lat="45.86939" lon="5.4687">
        <ele>907.2</ele>
        <time>2021-02-20T14:34:22.000Z</time>
      </trkpt>
      <trkpt lat="45.86941" lon="5.46869">
        <ele>907.6</ele>
        <time>2021-02-20T14:34:23.000Z</time>
      </trkpt>
      <trkpt lat="45.86942" lon="5.46868">
        <ele>908</ele>
        <time>2021-02-20T14:34:24.000Z</time>
      </trkpt>
      <trkpt lat="45.86943" lon="5.46867">
        <ele>908.2</ele>
        <time>2021-02-20T14:34:25.000Z</time>
      </trkpt>
      <trkpt lat="45.86944" lon="5.46866">
        <ele>908.6</ele>
        <time>2021-02-20T14:34:26.000Z</time>
      </trkpt>
      <trkpt lat="45.86946" lon="5.46866">
        <ele>908.6</ele>
        <time>2021-02-20T14:34:27.000Z</time>
      </trkpt>
      <trkpt lat="45.86947" lon="5.46865">
        <ele>909</ele>
        <time>2021-02-20T14:34:28.000Z</time>
      </trkpt>
      <trkpt lat="45.86949" lon="5.46864">
        <ele>909.2</ele>
        <time>2021-02-20T14:34:30.000Z</time>
      </trkpt>
      <trkpt lat="45.8695" lon="5.46863">
        <ele>909.8</ele>
        <time>2021-02-20T14:34:32.000Z</time>
      </trkpt>
      <trkpt lat="45.86951" lon="5.46863">
        <ele>910.2</ele>
        <time>2021-02-20T14:34:33.000Z</time>
      </trkpt>
      <trkpt lat="45.86952" lon="5.46861">
        <ele>910.2</ele>
        <time>2021-02-20T14:34:34.000Z</time>
      </trkpt>
      <trkpt lat="45.86953" lon="5.4686">
        <ele>910.6</ele>
        <time>2021-02-20T14:34:35.000Z</time>
      </trkpt>
      <trkpt lat="45.86954" lon="5.46859">
        <ele>911</ele>
        <time>2021-02-20T14:34:36.000Z</time>
      </trkpt>
      <trkpt lat="45.86955" lon="5.46857">
        <ele>911.4</ele>
        <time>2021-02-20T14:34:37.000Z</time>
      </trkpt>
      <trkpt lat="45.86958" lon="5.46856">
        <ele>911.4</ele>
        <time>2021-02-20T14:34:38.000Z</time>
      </trkpt>
      <trkpt lat="45.86959" lon="5.46856">
        <ele>911.6</ele>
        <time>2021-02-20T14:34:39.000Z</time>
      </trkpt>
      <trkpt lat="45.8696" lon="5.46855">
        <ele>911.8</ele>
        <time>2021-02-20T14:34:40.000Z</time>
      </trkpt>
      <trkpt lat="45.86961" lon="5.46854">
        <ele>912.2</ele>
        <time>2021-02-20T14:34:41.000Z</time>
      </trkpt>
      <trkpt lat="45.86963" lon="5.46853">
        <ele>912.4</ele>
        <time>2021-02-20T14:34:42.000Z</time>
      </trkpt>
      <trkpt lat="45.86964" lon="5.46851">
        <ele>912.6</ele>
        <time>2021-02-20T14:34:43.000Z</time>
      </trkpt>
      <trkpt lat="45.86965" lon="5.4685">
        <ele>912.8</ele>
        <time>2021-02-20T14:34:44.000Z</time>
      </trkpt>
      <trkpt lat="45.86966" lon="5.46849">
        <ele>913</ele>
        <time>2021-02-20T14:34:45.000Z</time>
      </trkpt>
      <trkpt lat="45.86967" lon="5.46848">
        <ele>913.2</ele>
        <time>2021-02-20T14:34:46.000Z</time>
      </trkpt>
      <trkpt lat="45.86968" lon="5.46848">
        <ele>913.2</ele>
        <time>2021-02-20T14:34:47.000Z</time>
      </trkpt>
      <trkpt lat="45.86969" lon="5.46847">
        <ele>913.6</ele>
        <time>2021-02-20T14:34:48.000Z</time>
      </trkpt>
      <trkpt lat="45.8697" lon="5.46846">
        <ele>913.8</ele>
        <time>2021-02-20T14:34:49.000Z</time>
      </trkpt>
      <trkpt lat="45.8697" lon="5.46845">
        <ele>914</ele>
        <time>2021-02-20T14:34:50.000Z</time>
      </trkpt>
      <trkpt lat="45.86971" lon="5.46844">
        <ele>914.4</ele>
        <time>2021-02-20T14:34:51.000Z</time>
      </trkpt>
      <trkpt lat="45.86972" lon="5.46844">
        <ele>914.4</ele>
        <time>2021-02-20T14:34:52.000Z</time>
      </trkpt>
      <trkpt lat="45.86973" lon="5.46843">
        <ele>914.6</ele>
        <time>2021-02-20T14:34:53.000Z</time>
      </trkpt>
      <trkpt lat="45.86974" lon="5.46842">
        <ele>914.8</ele>
        <time>2021-02-20T14:34:54.000Z</time>
      </trkpt>
      <trkpt lat="45.86975" lon="5.46841">
        <ele>914.8</ele>
        <time>2021-02-20T14:34:55.000Z</time>
      </trkpt>
      <trkpt lat="45.86977" lon="5.4684">
        <ele>915</ele>
        <time>2021-02-20T14:34:56.000Z</time>
      </trkpt>
      <trkpt lat="45.86978" lon="5.46838">
        <ele>915.2</ele>
        <time>2021-02-20T14:34:57.000Z</time>
      </trkpt>
      <trkpt lat="45.86979" lon="5.46836">
        <ele>915.4</ele>
        <time>2021-02-20T14:34:59.000Z</time>
      </trkpt>
      <trkpt lat="45.8698" lon="5.46834">
        <ele>915.4</ele>
        <time>2021-02-20T14:35:00.000Z</time>
      </trkpt>
      <trkpt lat="45.86981" lon="5.46833">
        <ele>915.6</ele>
        <time>2021-02-20T14:35:01.000Z</time>
      </trkpt>
      <trkpt lat="45.86981" lon="5.46831">
        <ele>915.8</ele>
        <time>2021-02-20T14:35:02.000Z</time>
      </trkpt>
      <trkpt lat="45.86983" lon="5.4683">
        <ele>916</ele>
        <time>2021-02-20T14:35:03.000Z</time>
      </trkpt>
      <trkpt lat="45.86984" lon="5.46828">
        <ele>916</ele>
        <time>2021-02-20T14:35:04.000Z</time>
      </trkpt>
      <trkpt lat="45.86985" lon="5.46827">
        <ele>916.2</ele>
        <time>2021-02-20T14:35:05.000Z</time>
      </trkpt>
      <trkpt lat="45.86986" lon="5.46825">
        <ele>916.2</ele>
        <time>2021-02-20T14:35:06.000Z</time>
      </trkpt>
      <trkpt lat="45.86987" lon="5.46824">
        <ele>916.4</ele>
        <time>2021-02-20T14:35:07.000Z</time>
      </trkpt>
      <trkpt lat="45.86988" lon="5.46823">
        <ele>916.6</ele>
        <time>2021-02-20T14:35:08.000Z</time>
      </trkpt>
      <trkpt lat="45.86989" lon="5.46822">
        <ele>917.2</ele>
        <time>2021-02-20T14:35:10.000Z</time>
      </trkpt>
      <trkpt lat="45.8699" lon="5.4682">
        <ele>917.4</ele>
        <time>2021-02-20T14:35:11.000Z</time>
      </trkpt>
      <trkpt lat="45.86991" lon="5.46819">
        <ele>917.6</ele>
        <time>2021-02-20T14:35:12.000Z</time>
      </trkpt>
      <trkpt lat="45.86992" lon="5.46817">
        <ele>917.6</ele>
        <time>2021-02-20T14:35:13.000Z</time>
      </trkpt>
      <trkpt lat="45.86994" lon="5.46816">
        <ele>917.8</ele>
        <time>2021-02-20T14:35:14.000Z</time>
      </trkpt>
      <trkpt lat="45.86995" lon="5.46815">
        <ele>918</ele>
        <time>2021-02-20T14:35:15.000Z</time>
      </trkpt>
      <trkpt lat="45.86996" lon="5.46814">
        <ele>918.4</ele>
        <time>2021-02-20T14:35:16.000Z</time>
      </trkpt>
      <trkpt lat="45.86997" lon="5.46813">
        <ele>918.6</ele>
        <time>2021-02-20T14:35:17.000Z</time>
      </trkpt>
      <trkpt lat="45.86998" lon="5.46812">
        <ele>918.6</ele>
        <time>2021-02-20T14:35:18.000Z</time>
      </trkpt>
      <trkpt lat="45.86999" lon="5.46811">
        <ele>918.8</ele>
        <time>2021-02-20T14:35:19.000Z</time>
      </trkpt>
      <trkpt lat="45.87" lon="5.4681">
        <ele>918.8</ele>
        <time>2021-02-20T14:35:20.000Z</time>
      </trkpt>
      <trkpt lat="45.87" lon="5.46809">
        <ele>919</ele>
        <time>2021-02-20T14:35:21.000Z</time>
      </trkpt>
      <trkpt lat="45.87001" lon="5.46809">
        <ele>919</ele>
        <time>2021-02-20T14:35:22.000Z</time>
      </trkpt>
      <trkpt lat="45.87002" lon="5.46808">
        <ele>919.2</ele>
        <time>2021-02-20T14:35:23.000Z</time>
      </trkpt>
      <trkpt lat="45.87003" lon="5.46807">
        <ele>919</ele>
        <time>2021-02-20T14:35:24.000Z</time>
      </trkpt>
      <trkpt lat="45.87004" lon="5.46805">
        <ele>919.2</ele>
        <time>2021-02-20T14:35:25.000Z</time>
      </trkpt>
      <trkpt lat="45.87006" lon="5.46804">
        <ele>919.4</ele>
        <time>2021-02-20T14:35:26.000Z</time>
      </trkpt>
      <trkpt lat="45.87007" lon="5.46802">
        <ele>919.6</ele>
        <time>2021-02-20T14:35:27.000Z</time>
      </trkpt>
      <trkpt lat="45.87008" lon="5.46801">
        <ele>920</ele>
        <time>2021-02-20T14:35:28.000Z</time>
      </trkpt>
      <trkpt lat="45.87008" lon="5.468">
        <ele>920.4</ele>
        <time>2021-02-20T14:35:29.000Z</time>
      </trkpt>
      <trkpt lat="45.87009" lon="5.46799">
        <ele>920.8</ele>
        <time>2021-02-20T14:35:30.000Z</time>
      </trkpt>
      <trkpt lat="45.8701" lon="5.46797">
        <ele>920.8</ele>
        <time>2021-02-20T14:35:31.000Z</time>
      </trkpt>
      <trkpt lat="45.87011" lon="5.46796">
        <ele>921</ele>
        <time>2021-02-20T14:35:32.000Z</time>
      </trkpt>
      <trkpt lat="45.87012" lon="5.46795">
        <ele>921.4</ele>
        <time>2021-02-20T14:35:33.000Z</time>
      </trkpt>
      <trkpt lat="45.87012" lon="5.46794">
        <ele>921.6</ele>
        <time>2021-02-20T14:35:34.000Z</time>
      </trkpt>
      <trkpt lat="45.87013" lon="5.46793">
        <ele>921.8</ele>
        <time>2021-02-20T14:35:35.000Z</time>
      </trkpt>
      <trkpt lat="45.87014" lon="5.46792">
        <ele>922.2</ele>
        <time>2021-02-20T14:35:36.000Z</time>
      </trkpt>
      <trkpt lat="45.87014" lon="5.4679">
        <ele>922.6</ele>
        <time>2021-02-20T14:35:38.000Z</time>
      </trkpt>
      <trkpt lat="45.87015" lon="5.46789">
        <ele>922.8</ele>
        <time>2021-02-20T14:35:39.000Z</time>
      </trkpt>
      <trkpt lat="45.87015" lon="5.46788">
        <ele>922.8</ele>
        <time>2021-02-20T14:35:40.000Z</time>
      </trkpt>
      <trkpt lat="45.87015" lon="5.46787">
        <ele>923</ele>
        <time>2021-02-20T14:35:41.000Z</time>
      </trkpt>
      <trkpt lat="45.87015" lon="5.46785">
        <ele>923</ele>
        <time>2021-02-20T14:35:42.000Z</time>
      </trkpt>
      <trkpt lat="45.87016" lon="5.46784">
        <ele>923.2</ele>
        <time>2021-02-20T14:35:43.000Z</time>
      </trkpt>
      <trkpt lat="45.87016" lon="5.46782">
        <ele>923.4</ele>
        <time>2021-02-20T14:35:44.000Z</time>
      </trkpt>
      <trkpt lat="45.87016" lon="5.46781">
        <ele>923.6</ele>
        <time>2021-02-20T14:35:45.000Z</time>
      </trkpt>
      <trkpt lat="45.87017" lon="5.4678">
        <ele>923.6</ele>
        <time>2021-02-20T14:35:46.000Z</time>
      </trkpt>
      <trkpt lat="45.87017" lon="5.46778">
        <ele>923.6</ele>
        <time>2021-02-20T14:35:47.000Z</time>
      </trkpt>
      <trkpt lat="45.87017" lon="5.46777">
        <ele>924</ele>
        <time>2021-02-20T14:35:48.000Z</time>
      </trkpt>
      <trkpt lat="45.87018" lon="5.46775">
        <ele>924.2</ele>
        <time>2021-02-20T14:35:49.000Z</time>
      </trkpt>
      <trkpt lat="45.87018" lon="5.46774">
        <ele>924.2</ele>
        <time>2021-02-20T14:35:50.000Z</time>
      </trkpt>
      <trkpt lat="45.87018" lon="5.46772">
        <ele>924.2</ele>
        <time>2021-02-20T14:35:51.000Z</time>
      </trkpt>
      <trkpt lat="45.87019" lon="5.46771">
        <ele>924.6</ele>
        <time>2021-02-20T14:35:52.000Z</time>
      </trkpt>
      <trkpt lat="45.87019" lon="5.46769">
        <ele>924.6</ele>
        <time>2021-02-20T14:35:53.000Z</time>
      </trkpt>
      <trkpt lat="45.87021" lon="5.46767">
        <ele>925</ele>
        <time>2021-02-20T14:35:54.000Z</time>
      </trkpt>
      <trkpt lat="45.87022" lon="5.46765">
        <ele>925</ele>
        <time>2021-02-20T14:35:55.000Z</time>
      </trkpt>
      <trkpt lat="45.87023" lon="5.46762">
        <ele>925.2</ele>
        <time>2021-02-20T14:35:56.000Z</time>
      </trkpt>
      <trkpt lat="45.87024" lon="5.46759">
        <ele>925.2</ele>
        <time>2021-02-20T14:35:57.000Z</time>
      </trkpt>
      <trkpt lat="45.87025" lon="5.46757">
        <ele>925.6</ele>
        <time>2021-02-20T14:35:58.000Z</time>
      </trkpt>
      <trkpt lat="45.87026" lon="5.46755">
        <ele>925.6</ele>
        <time>2021-02-20T14:35:59.000Z</time>
      </trkpt>
      <trkpt lat="45.87027" lon="5.46752">
        <ele>926</ele>
        <time>2021-02-20T14:36:00.000Z</time>
      </trkpt>
      <trkpt lat="45.87028" lon="5.46749">
        <ele>926</ele>
        <time>2021-02-20T14:36:01.000Z</time>
      </trkpt>
      <trkpt lat="45.87029" lon="5.46748">
        <ele>926.2</ele>
        <time>2021-02-20T14:36:02.000Z</time>
      </trkpt>
      <trkpt lat="45.8703" lon="5.46746">
        <ele>926.4</ele>
        <time>2021-02-20T14:36:03.000Z</time>
      </trkpt>
      <trkpt lat="45.87031" lon="5.46743">
        <ele>926.6</ele>
        <time>2021-02-20T14:36:04.000Z</time>
      </trkpt>
      <trkpt lat="45.87031" lon="5.46741">
        <ele>926.6</ele>
        <time>2021-02-20T14:36:05.000Z</time>
      </trkpt>
      <trkpt lat="45.87032" lon="5.46738">
        <ele>926.8</ele>
        <time>2021-02-20T14:36:06.000Z</time>
      </trkpt>
      <trkpt lat="45.87032" lon="5.46736">
        <ele>927</ele>
        <time>2021-02-20T14:36:07.000Z</time>
      </trkpt>
      <trkpt lat="45.87032" lon="5.46734">
        <ele>927</ele>
        <time>2021-02-20T14:36:08.000Z</time>
      </trkpt>
      <trkpt lat="45.87032" lon="5.46732">
        <ele>927.4</ele>
        <time>2021-02-20T14:36:09.000Z</time>
      </trkpt>
      <trkpt lat="45.87032" lon="5.4673">
        <ele>927.2</ele>
        <time>2021-02-20T14:36:10.000Z</time>
      </trkpt>
      <trkpt lat="45.87031" lon="5.46729">
        <ele>927.4</ele>
        <time>2021-02-20T14:36:11.000Z</time>
      </trkpt>
      <trkpt lat="45.87032" lon="5.46727">
        <ele>927.4</ele>
        <time>2021-02-20T14:36:12.000Z</time>
      </trkpt>
      <trkpt lat="45.87032" lon="5.46726">
        <ele>927.6</ele>
        <time>2021-02-20T14:36:13.000Z</time>
      </trkpt>
      <trkpt lat="45.87032" lon="5.46724">
        <ele>927.6</ele>
        <time>2021-02-20T14:36:14.000Z</time>
      </trkpt>
      <trkpt lat="45.87032" lon="5.46722">
        <ele>927.6</ele>
        <time>2021-02-20T14:36:15.000Z</time>
      </trkpt>
      <trkpt lat="45.87032" lon="5.46721">
        <ele>927.8</ele>
        <time>2021-02-20T14:36:16.000Z</time>
      </trkpt>
      <trkpt lat="45.87032" lon="5.46719">
        <ele>928</ele>
        <time>2021-02-20T14:36:17.000Z</time>
      </trkpt>
      <trkpt lat="45.87033" lon="5.46717">
        <ele>928.2</ele>
        <time>2021-02-20T14:36:18.000Z</time>
      </trkpt>
      <trkpt lat="45.87033" lon="5.46715">
        <ele>928.2</ele>
        <time>2021-02-20T14:36:19.000Z</time>
      </trkpt>
      <trkpt lat="45.87034" lon="5.46713">
        <ele>928.6</ele>
        <time>2021-02-20T14:36:20.000Z</time>
      </trkpt>
      <trkpt lat="45.87035" lon="5.46711">
        <ele>928.6</ele>
        <time>2021-02-20T14:36:21.000Z</time>
      </trkpt>
      <trkpt lat="45.87036" lon="5.46709">
        <ele>929.2</ele>
        <time>2021-02-20T14:36:22.000Z</time>
      </trkpt>
      <trkpt lat="45.87037" lon="5.46706">
        <ele>929.4</ele>
        <time>2021-02-20T14:36:23.000Z</time>
      </trkpt>
      <trkpt lat="45.87038" lon="5.46703">
        <ele>929.6</ele>
        <time>2021-02-20T14:36:24.000Z</time>
      </trkpt>
      <trkpt lat="45.87039" lon="5.46701">
        <ele>929.8</ele>
        <time>2021-02-20T14:36:25.000Z</time>
      </trkpt>
      <trkpt lat="45.8704" lon="5.46699">
        <ele>930.2</ele>
        <time>2021-02-20T14:36:26.000Z</time>
      </trkpt>
      <trkpt lat="45.8704" lon="5.46696">
        <ele>930.4</ele>
        <time>2021-02-20T14:36:27.000Z</time>
      </trkpt>
      <trkpt lat="45.87041" lon="5.46695">
        <ele>930.6</ele>
        <time>2021-02-20T14:36:28.000Z</time>
      </trkpt>
      <trkpt lat="45.87042" lon="5.46692">
        <ele>930.8</ele>
        <time>2021-02-20T14:36:29.000Z</time>
      </trkpt>
      <trkpt lat="45.87042" lon="5.46689">
        <ele>931</ele>
        <time>2021-02-20T14:36:30.000Z</time>
      </trkpt>
      <trkpt lat="45.87043" lon="5.46687">
        <ele>931.2</ele>
        <time>2021-02-20T14:36:31.000Z</time>
      </trkpt>
      <trkpt lat="45.87044" lon="5.46685">
        <ele>931.2</ele>
        <time>2021-02-20T14:36:32.000Z</time>
      </trkpt>
      <trkpt lat="45.87045" lon="5.46682">
        <ele>931.6</ele>
        <time>2021-02-20T14:36:33.000Z</time>
      </trkpt>
      <trkpt lat="45.87045" lon="5.4668">
        <ele>931.8</ele>
        <time>2021-02-20T14:36:34.000Z</time>
      </trkpt>
      <trkpt lat="45.87046" lon="5.46678">
        <ele>931.8</ele>
        <time>2021-02-20T14:36:35.000Z</time>
      </trkpt>
      <trkpt lat="45.87046" lon="5.46675">
        <ele>932</ele>
        <time>2021-02-20T14:36:36.000Z</time>
      </trkpt>
      <trkpt lat="45.87047" lon="5.46673">
        <ele>932</ele>
        <time>2021-02-20T14:36:37.000Z</time>
      </trkpt>
      <trkpt lat="45.87048" lon="5.46671">
        <ele>931.8</ele>
        <time>2021-02-20T14:36:38.000Z</time>
      </trkpt>
      <trkpt lat="45.87048" lon="5.46668">
        <ele>932</ele>
        <time>2021-02-20T14:36:39.000Z</time>
      </trkpt>
      <trkpt lat="45.87049" lon="5.46666">
        <ele>932.2</ele>
        <time>2021-02-20T14:36:40.000Z</time>
      </trkpt>
      <trkpt lat="45.8705" lon="5.46664">
        <ele>932.2</ele>
        <time>2021-02-20T14:36:41.000Z</time>
      </trkpt>
      <trkpt lat="45.87051" lon="5.46662">
        <ele>932.2</ele>
        <time>2021-02-20T14:36:42.000Z</time>
      </trkpt>
      <trkpt lat="45.87052" lon="5.4666">
        <ele>932.2</ele>
        <time>2021-02-20T14:36:43.000Z</time>
      </trkpt>
      <trkpt lat="45.87053" lon="5.46657">
        <ele>932.4</ele>
        <time>2021-02-20T14:36:44.000Z</time>
      </trkpt>
      <trkpt lat="45.87054" lon="5.46655">
        <ele>932.2</ele>
        <time>2021-02-20T14:36:45.000Z</time>
      </trkpt>
      <trkpt lat="45.87055" lon="5.46653">
        <ele>932.4</ele>
        <time>2021-02-20T14:36:46.000Z</time>
      </trkpt>
      <trkpt lat="45.87055" lon="5.46651">
        <ele>932.4</ele>
        <time>2021-02-20T14:36:47.000Z</time>
      </trkpt>
      <trkpt lat="45.87055" lon="5.46649">
        <ele>932.4</ele>
        <time>2021-02-20T14:36:48.000Z</time>
      </trkpt>
      <trkpt lat="45.87055" lon="5.46646">
        <ele>932.4</ele>
        <time>2021-02-20T14:36:49.000Z</time>
      </trkpt>
      <trkpt lat="45.87054" lon="5.46644">
        <ele>932.6</ele>
        <time>2021-02-20T14:36:50.000Z</time>
      </trkpt>
      <trkpt lat="45.87054" lon="5.46641">
        <ele>932.6</ele>
        <time>2021-02-20T14:36:51.000Z</time>
      </trkpt>
      <trkpt lat="45.87053" lon="5.46639">
        <ele>932.6</ele>
        <time>2021-02-20T14:36:52.000Z</time>
      </trkpt>
      <trkpt lat="45.87053" lon="5.46636">
        <ele>932.6</ele>
        <time>2021-02-20T14:36:53.000Z</time>
      </trkpt>
      <trkpt lat="45.87053" lon="5.46634">
        <ele>932.8</ele>
        <time>2021-02-20T14:36:54.000Z</time>
      </trkpt>
      <trkpt lat="45.87052" lon="5.4663">
        <ele>933</ele>
        <time>2021-02-20T14:36:56.000Z</time>
      </trkpt>
      <trkpt lat="45.87052" lon="5.46628">
        <ele>933</ele>
        <time>2021-02-20T14:36:57.000Z</time>
      </trkpt>
      <trkpt lat="45.87052" lon="5.46626">
        <ele>933</ele>
        <time>2021-02-20T14:36:58.000Z</time>
      </trkpt>
      <trkpt lat="45.87053" lon="5.46624">
        <ele>933</ele>
        <time>2021-02-20T14:36:59.000Z</time>
      </trkpt>
      <trkpt lat="45.87053" lon="5.46622">
        <ele>933</ele>
        <time>2021-02-20T14:37:00.000Z</time>
      </trkpt>
      <trkpt lat="45.87054" lon="5.46619">
        <ele>933</ele>
        <time>2021-02-20T14:37:01.000Z</time>
      </trkpt>
      <trkpt lat="45.87055" lon="5.46617">
        <ele>933</ele>
        <time>2021-02-20T14:37:02.000Z</time>
      </trkpt>
      <trkpt lat="45.87055" lon="5.46615">
        <ele>933.2</ele>
        <time>2021-02-20T14:37:03.000Z</time>
      </trkpt>
      <trkpt lat="45.87055" lon="5.46613">
        <ele>933.4</ele>
        <time>2021-02-20T14:37:04.000Z</time>
      </trkpt>
      <trkpt lat="45.87055" lon="5.46612">
        <ele>933.4</ele>
        <time>2021-02-20T14:37:05.000Z</time>
      </trkpt>
      <trkpt lat="45.87054" lon="5.46611">
        <ele>933.8</ele>
        <time>2021-02-20T14:37:06.000Z</time>
      </trkpt>
      <trkpt lat="45.87054" lon="5.46609">
        <ele>933.6</ele>
        <time>2021-02-20T14:37:07.000Z</time>
      </trkpt>
      <trkpt lat="45.87054" lon="5.46608">
        <ele>933.6</ele>
        <time>2021-02-20T14:37:08.000Z</time>
      </trkpt>
      <trkpt lat="45.87053" lon="5.46606">
        <ele>933.8</ele>
        <time>2021-02-20T14:37:09.000Z</time>
      </trkpt>
      <trkpt lat="45.87054" lon="5.46604">
        <ele>933.8</ele>
        <time>2021-02-20T14:37:10.000Z</time>
      </trkpt>
      <trkpt lat="45.87053" lon="5.46602">
        <ele>934</ele>
        <time>2021-02-20T14:37:11.000Z</time>
      </trkpt>
      <trkpt lat="45.87053" lon="5.46601">
        <ele>934</ele>
        <time>2021-02-20T14:37:12.000Z</time>
      </trkpt>
      <trkpt lat="45.87052" lon="5.46599">
        <ele>934</ele>
        <time>2021-02-20T14:37:13.000Z</time>
      </trkpt>
      <trkpt lat="45.87052" lon="5.46598">
        <ele>934.2</ele>
        <time>2021-02-20T14:37:14.000Z</time>
      </trkpt>
      <trkpt lat="45.87051" lon="5.46597">
        <ele>934.2</ele>
        <time>2021-02-20T14:37:15.000Z</time>
      </trkpt>
      <trkpt lat="45.8705" lon="5.46595">
        <ele>934.4</ele>
        <time>2021-02-20T14:37:16.000Z</time>
      </trkpt>
      <trkpt lat="45.8705" lon="5.46593">
        <ele>934.4</ele>
        <time>2021-02-20T14:37:17.000Z</time>
      </trkpt>
      <trkpt lat="45.87049" lon="5.46591">
        <ele>934.8</ele>
        <time>2021-02-20T14:37:18.000Z</time>
      </trkpt>
      <trkpt lat="45.87049" lon="5.46589">
        <ele>935.2</ele>
        <time>2021-02-20T14:37:19.000Z</time>
      </trkpt>
      <trkpt lat="45.87049" lon="5.46588">
        <ele>935.2</ele>
        <time>2021-02-20T14:37:20.000Z</time>
      </trkpt>
      <trkpt lat="45.87048" lon="5.46587">
        <ele>935.4</ele>
        <time>2021-02-20T14:37:21.000Z</time>
      </trkpt>
      <trkpt lat="45.87048" lon="5.46585">
        <ele>935.4</ele>
        <time>2021-02-20T14:37:22.000Z</time>
      </trkpt>
      <trkpt lat="45.87048" lon="5.46583">
        <ele>935.4</ele>
        <time>2021-02-20T14:37:23.000Z</time>
      </trkpt>
      <trkpt lat="45.87048" lon="5.46581">
        <ele>935.8</ele>
        <time>2021-02-20T14:37:24.000Z</time>
      </trkpt>
      <trkpt lat="45.87047" lon="5.4658">
        <ele>936.2</ele>
        <time>2021-02-20T14:37:25.000Z</time>
      </trkpt>
      <trkpt lat="45.87047" lon="5.46577">
        <ele>936.2</ele>
        <time>2021-02-20T14:37:26.000Z</time>
      </trkpt>
      <trkpt lat="45.87046" lon="5.46576">
        <ele>936.2</ele>
        <time>2021-02-20T14:37:27.000Z</time>
      </trkpt>
      <trkpt lat="45.87045" lon="5.46573">
        <ele>936.4</ele>
        <time>2021-02-20T14:37:28.000Z</time>
      </trkpt>
      <trkpt lat="45.87045" lon="5.46572">
        <ele>936.8</ele>
        <time>2021-02-20T14:37:29.000Z</time>
      </trkpt>
      <trkpt lat="45.87044" lon="5.4657">
        <ele>937.2</ele>
        <time>2021-02-20T14:37:30.000Z</time>
      </trkpt>
      <trkpt lat="45.87044" lon="5.46568">
        <ele>937.6</ele>
        <time>2021-02-20T14:37:31.000Z</time>
      </trkpt>
      <trkpt lat="45.87043" lon="5.46566">
        <ele>938</ele>
        <time>2021-02-20T14:37:32.000Z</time>
      </trkpt>
      <trkpt lat="45.87042" lon="5.46564">
        <ele>938.4</ele>
        <time>2021-02-20T14:37:33.000Z</time>
      </trkpt>
      <trkpt lat="45.87042" lon="5.46561">
        <ele>938.6</ele>
        <time>2021-02-20T14:37:34.000Z</time>
      </trkpt>
      <trkpt lat="45.87041" lon="5.46559">
        <ele>938.8</ele>
        <time>2021-02-20T14:37:35.000Z</time>
      </trkpt>
      <trkpt lat="45.8704" lon="5.46557">
        <ele>939</ele>
        <time>2021-02-20T14:37:36.000Z</time>
      </trkpt>
      <trkpt lat="45.87039" lon="5.46556">
        <ele>939.2</ele>
        <time>2021-02-20T14:37:37.000Z</time>
      </trkpt>
      <trkpt lat="45.87039" lon="5.46554">
        <ele>939.6</ele>
        <time>2021-02-20T14:37:38.000Z</time>
      </trkpt>
      <trkpt lat="45.87038" lon="5.46552">
        <ele>939.6</ele>
        <time>2021-02-20T14:37:39.000Z</time>
      </trkpt>
      <trkpt lat="45.87038" lon="5.46551">
        <ele>940</ele>
        <time>2021-02-20T14:37:40.000Z</time>
      </trkpt>
      <trkpt lat="45.87037" lon="5.46549">
        <ele>940.2</ele>
        <time>2021-02-20T14:37:41.000Z</time>
      </trkpt>
      <trkpt lat="45.87037" lon="5.46547">
        <ele>940.2</ele>
        <time>2021-02-20T14:37:42.000Z</time>
      </trkpt>
      <trkpt lat="45.87037" lon="5.46546">
        <ele>940.6</ele>
        <time>2021-02-20T14:37:43.000Z</time>
      </trkpt>
      <trkpt lat="45.87036" lon="5.46545">
        <ele>940.8</ele>
        <time>2021-02-20T14:37:44.000Z</time>
      </trkpt>
      <trkpt lat="45.87036" lon="5.46544">
        <ele>941.4</ele>
        <time>2021-02-20T14:37:45.000Z</time>
      </trkpt>
      <trkpt lat="45.87036" lon="5.46542">
        <ele>941.4</ele>
        <time>2021-02-20T14:37:46.000Z</time>
      </trkpt>
      <trkpt lat="45.87035" lon="5.46541">
        <ele>941.6</ele>
        <time>2021-02-20T14:37:47.000Z</time>
      </trkpt>
      <trkpt lat="45.87035" lon="5.46539">
        <ele>942.2</ele>
        <time>2021-02-20T14:37:48.000Z</time>
      </trkpt>
      <trkpt lat="45.87034" lon="5.46537">
        <ele>942.2</ele>
        <time>2021-02-20T14:37:49.000Z</time>
      </trkpt>
      <trkpt lat="45.87034" lon="5.46536">
        <ele>942.8</ele>
        <time>2021-02-20T14:37:50.000Z</time>
      </trkpt>
      <trkpt lat="45.87033" lon="5.46534">
        <ele>943</ele>
        <time>2021-02-20T14:37:51.000Z</time>
      </trkpt>
      <trkpt lat="45.87032" lon="5.46532">
        <ele>943.4</ele>
        <time>2021-02-20T14:37:52.000Z</time>
      </trkpt>
      <trkpt lat="45.87032" lon="5.4653">
        <ele>943.6</ele>
        <time>2021-02-20T14:37:53.000Z</time>
      </trkpt>
      <trkpt lat="45.87031" lon="5.46529">
        <ele>943.8</ele>
        <time>2021-02-20T14:37:54.000Z</time>
      </trkpt>
      <trkpt lat="45.87031" lon="5.46528">
        <ele>944</ele>
        <time>2021-02-20T14:37:55.000Z</time>
      </trkpt>
      <trkpt lat="45.8703" lon="5.46526">
        <ele>944.4</ele>
        <time>2021-02-20T14:37:56.000Z</time>
      </trkpt>
      <trkpt lat="45.8703" lon="5.46525">
        <ele>944.4</ele>
        <time>2021-02-20T14:37:57.000Z</time>
      </trkpt>
      <trkpt lat="45.8703" lon="5.46523">
        <ele>944.6</ele>
        <time>2021-02-20T14:37:58.000Z</time>
      </trkpt>
      <trkpt lat="45.87029" lon="5.46522">
        <ele>945</ele>
        <time>2021-02-20T14:37:59.000Z</time>
      </trkpt>
      <trkpt lat="45.87028" lon="5.4652">
        <ele>945.2</ele>
        <time>2021-02-20T14:38:00.000Z</time>
      </trkpt>
      <trkpt lat="45.87027" lon="5.46519">
        <ele>945.6</ele>
        <time>2021-02-20T14:38:01.000Z</time>
      </trkpt>
      <trkpt lat="45.87027" lon="5.46517">
        <ele>945.6</ele>
        <time>2021-02-20T14:38:02.000Z</time>
      </trkpt>
      <trkpt lat="45.87026" lon="5.46516">
        <ele>946</ele>
        <time>2021-02-20T14:38:03.000Z</time>
      </trkpt>
      <trkpt lat="45.87025" lon="5.46515">
        <ele>946.2</ele>
        <time>2021-02-20T14:38:04.000Z</time>
      </trkpt>
      <trkpt lat="45.87025" lon="5.46513">
        <ele>946.2</ele>
        <time>2021-02-20T14:38:05.000Z</time>
      </trkpt>
      <trkpt lat="45.87025" lon="5.46512">
        <ele>946.4</ele>
        <time>2021-02-20T14:38:06.000Z</time>
      </trkpt>
      <trkpt lat="45.87024" lon="5.4651">
        <ele>946.6</ele>
        <time>2021-02-20T14:38:07.000Z</time>
      </trkpt>
      <trkpt lat="45.87024" lon="5.46509">
        <ele>946.8</ele>
        <time>2021-02-20T14:38:08.000Z</time>
      </trkpt>
      <trkpt lat="45.87023" lon="5.46507">
        <ele>946.8</ele>
        <time>2021-02-20T14:38:09.000Z</time>
      </trkpt>
      <trkpt lat="45.87022" lon="5.46506">
        <ele>947</ele>
        <time>2021-02-20T14:38:10.000Z</time>
      </trkpt>
      <trkpt lat="45.87022" lon="5.46504">
        <ele>947.2</ele>
        <time>2021-02-20T14:38:11.000Z</time>
      </trkpt>
      <trkpt lat="45.87022" lon="5.46502">
        <ele>947.4</ele>
        <time>2021-02-20T14:38:12.000Z</time>
      </trkpt>
      <trkpt lat="45.87021" lon="5.465">
        <ele>947.8</ele>
        <time>2021-02-20T14:38:13.000Z</time>
      </trkpt>
      <trkpt lat="45.87022" lon="5.46498">
        <ele>948.2</ele>
        <time>2021-02-20T14:38:14.000Z</time>
      </trkpt>
      <trkpt lat="45.87021" lon="5.46496">
        <ele>948.8</ele>
        <time>2021-02-20T14:38:15.000Z</time>
      </trkpt>
      <trkpt lat="45.87021" lon="5.46494">
        <ele>949</ele>
        <time>2021-02-20T14:38:16.000Z</time>
      </trkpt>
      <trkpt lat="45.87021" lon="5.46493">
        <ele>949</ele>
        <time>2021-02-20T14:38:17.000Z</time>
      </trkpt>
      <trkpt lat="45.87021" lon="5.46491">
        <ele>949.4</ele>
        <time>2021-02-20T14:38:18.000Z</time>
      </trkpt>
      <trkpt lat="45.87022" lon="5.4649">
        <ele>949.6</ele>
        <time>2021-02-20T14:38:19.000Z</time>
      </trkpt>
      <trkpt lat="45.87022" lon="5.46488">
        <ele>950</ele>
        <time>2021-02-20T14:38:20.000Z</time>
      </trkpt>
      <trkpt lat="45.87023" lon="5.46486">
        <ele>950</ele>
        <time>2021-02-20T14:38:21.000Z</time>
      </trkpt>
      <trkpt lat="45.87024" lon="5.46484">
        <ele>950</ele>
        <time>2021-02-20T14:38:22.000Z</time>
      </trkpt>
      <trkpt lat="45.87024" lon="5.46482">
        <ele>950.2</ele>
        <time>2021-02-20T14:38:23.000Z</time>
      </trkpt>
      <trkpt lat="45.87025" lon="5.4648">
        <ele>950.6</ele>
        <time>2021-02-20T14:38:24.000Z</time>
      </trkpt>
      <trkpt lat="45.87025" lon="5.46478">
        <ele>950.6</ele>
        <time>2021-02-20T14:38:25.000Z</time>
      </trkpt>
      <trkpt lat="45.87025" lon="5.46476">
        <ele>950.8</ele>
        <time>2021-02-20T14:38:26.000Z</time>
      </trkpt>
      <trkpt lat="45.87026" lon="5.46474">
        <ele>951.2</ele>
        <time>2021-02-20T14:38:27.000Z</time>
      </trkpt>
      <trkpt lat="45.87026" lon="5.46472">
        <ele>951.6</ele>
        <time>2021-02-20T14:38:28.000Z</time>
      </trkpt>
      <trkpt lat="45.87026" lon="5.4647">
        <ele>952</ele>
        <time>2021-02-20T14:38:29.000Z</time>
      </trkpt>
      <trkpt lat="45.87026" lon="5.46469">
        <ele>952</ele>
        <time>2021-02-20T14:38:30.000Z</time>
      </trkpt>
      <trkpt lat="45.87028" lon="5.46467">
        <ele>952.2</ele>
        <time>2021-02-20T14:38:31.000Z</time>
      </trkpt>
      <trkpt lat="45.87029" lon="5.46465">
        <ele>952.4</ele>
        <time>2021-02-20T14:38:32.000Z</time>
      </trkpt>
      <trkpt lat="45.8703" lon="5.46463">
        <ele>952.4</ele>
        <time>2021-02-20T14:38:33.000Z</time>
      </trkpt>
      <trkpt lat="45.87031" lon="5.46461">
        <ele>952.6</ele>
        <time>2021-02-20T14:38:34.000Z</time>
      </trkpt>
      <trkpt lat="45.87032" lon="5.4646">
        <ele>952.8</ele>
        <time>2021-02-20T14:38:35.000Z</time>
      </trkpt>
      <trkpt lat="45.87034" lon="5.46458">
        <ele>953</ele>
        <time>2021-02-20T14:38:36.000Z</time>
      </trkpt>
      <trkpt lat="45.87034" lon="5.46456">
        <ele>953</ele>
        <time>2021-02-20T14:38:37.000Z</time>
      </trkpt>
      <trkpt lat="45.87035" lon="5.46454">
        <ele>953.2</ele>
        <time>2021-02-20T14:38:38.000Z</time>
      </trkpt>
      <trkpt lat="45.87036" lon="5.46452">
        <ele>953.2</ele>
        <time>2021-02-20T14:38:39.000Z</time>
      </trkpt>
      <trkpt lat="45.87036" lon="5.46451">
        <ele>953.6</ele>
        <time>2021-02-20T14:38:40.000Z</time>
      </trkpt>
      <trkpt lat="45.87037" lon="5.4645">
        <ele>953.6</ele>
        <time>2021-02-20T14:38:41.000Z</time>
      </trkpt>
      <trkpt lat="45.87038" lon="5.46448">
        <ele>953.8</ele>
        <time>2021-02-20T14:38:42.000Z</time>
      </trkpt>
      <trkpt lat="45.87038" lon="5.46447">
        <ele>953.8</ele>
        <time>2021-02-20T14:38:43.000Z</time>
      </trkpt>
      <trkpt lat="45.87039" lon="5.46446">
        <ele>953.8</ele>
        <time>2021-02-20T14:38:44.000Z</time>
      </trkpt>
      <trkpt lat="45.87039" lon="5.46445">
        <ele>954.2</ele>
        <time>2021-02-20T14:38:45.000Z</time>
      </trkpt>
      <trkpt lat="45.87039" lon="5.46443">
        <ele>954.2</ele>
        <time>2021-02-20T14:38:46.000Z</time>
      </trkpt>
      <trkpt lat="45.87039" lon="5.46442">
        <ele>954.4</ele>
        <time>2021-02-20T14:38:47.000Z</time>
      </trkpt>
      <trkpt lat="45.8704" lon="5.4644">
        <ele>954.6</ele>
        <time>2021-02-20T14:38:48.000Z</time>
      </trkpt>
      <trkpt lat="45.87041" lon="5.46439">
        <ele>954.6</ele>
        <time>2021-02-20T14:38:49.000Z</time>
      </trkpt>
      <trkpt lat="45.87042" lon="5.46437">
        <ele>954.8</ele>
        <time>2021-02-20T14:38:50.000Z</time>
      </trkpt>
      <trkpt lat="45.87042" lon="5.46436">
        <ele>955</ele>
        <time>2021-02-20T14:38:51.000Z</time>
      </trkpt>
      <trkpt lat="45.87043" lon="5.46434">
        <ele>955</ele>
        <time>2021-02-20T14:38:52.000Z</time>
      </trkpt>
      <trkpt lat="45.87044" lon="5.46433">
        <ele>955.4</ele>
        <time>2021-02-20T14:38:53.000Z</time>
      </trkpt>
      <trkpt lat="45.87045" lon="5.46431">
        <ele>955.6</ele>
        <time>2021-02-20T14:38:54.000Z</time>
      </trkpt>
      <trkpt lat="45.87045" lon="5.4643">
        <ele>956</ele>
        <time>2021-02-20T14:38:55.000Z</time>
      </trkpt>
      <trkpt lat="45.87046" lon="5.46429">
        <ele>956.2</ele>
        <time>2021-02-20T14:38:56.000Z</time>
      </trkpt>
      <trkpt lat="45.87047" lon="5.46427">
        <ele>956.4</ele>
        <time>2021-02-20T14:38:57.000Z</time>
      </trkpt>
      <trkpt lat="45.87048" lon="5.46426">
        <ele>956.6</ele>
        <time>2021-02-20T14:38:58.000Z</time>
      </trkpt>
      <trkpt lat="45.87049" lon="5.46424">
        <ele>956.8</ele>
        <time>2021-02-20T14:38:59.000Z</time>
      </trkpt>
      <trkpt lat="45.87049" lon="5.46423">
        <ele>956.8</ele>
        <time>2021-02-20T14:39:00.000Z</time>
      </trkpt>
      <trkpt lat="45.8705" lon="5.46422">
        <ele>957</ele>
        <time>2021-02-20T14:39:01.000Z</time>
      </trkpt>
      <trkpt lat="45.87051" lon="5.4642">
        <ele>957.4</ele>
        <time>2021-02-20T14:39:02.000Z</time>
      </trkpt>
      <trkpt lat="45.87052" lon="5.46419">
        <ele>957.4</ele>
        <time>2021-02-20T14:39:03.000Z</time>
      </trkpt>
      <trkpt lat="45.87053" lon="5.46417">
        <ele>957.6</ele>
        <time>2021-02-20T14:39:04.000Z</time>
      </trkpt>
      <trkpt lat="45.87053" lon="5.46416">
        <ele>957.8</ele>
        <time>2021-02-20T14:39:05.000Z</time>
      </trkpt>
      <trkpt lat="45.87054" lon="5.46414">
        <ele>958</ele>
        <time>2021-02-20T14:39:06.000Z</time>
      </trkpt>
      <trkpt lat="45.87055" lon="5.46412">
        <ele>958</ele>
        <time>2021-02-20T14:39:07.000Z</time>
      </trkpt>
      <trkpt lat="45.87055" lon="5.46411">
        <ele>958.2</ele>
        <time>2021-02-20T14:39:08.000Z</time>
      </trkpt>
      <trkpt lat="45.87056" lon="5.46409">
        <ele>958.4</ele>
        <time>2021-02-20T14:39:09.000Z</time>
      </trkpt>
      <trkpt lat="45.87057" lon="5.46407">
        <ele>958.6</ele>
        <time>2021-02-20T14:39:10.000Z</time>
      </trkpt>
      <trkpt lat="45.87057" lon="5.46406">
        <ele>958.6</ele>
        <time>2021-02-20T14:39:11.000Z</time>
      </trkpt>
      <trkpt lat="45.87058" lon="5.46405">
        <ele>958.8</ele>
        <time>2021-02-20T14:39:12.000Z</time>
      </trkpt>
      <trkpt lat="45.87059" lon="5.46404">
        <ele>959</ele>
        <time>2021-02-20T14:39:13.000Z</time>
      </trkpt>
      <trkpt lat="45.87059" lon="5.46402">
        <ele>959.2</ele>
        <time>2021-02-20T14:39:14.000Z</time>
      </trkpt>
      <trkpt lat="45.87059" lon="5.46401">
        <ele>959.6</ele>
        <time>2021-02-20T14:39:15.000Z</time>
      </trkpt>
      <trkpt lat="45.8706" lon="5.46399">
        <ele>959.6</ele>
        <time>2021-02-20T14:39:16.000Z</time>
      </trkpt>
      <trkpt lat="45.87061" lon="5.46398">
        <ele>959.8</ele>
        <time>2021-02-20T14:39:17.000Z</time>
      </trkpt>
      <trkpt lat="45.87061" lon="5.46397">
        <ele>960</ele>
        <time>2021-02-20T14:39:18.000Z</time>
      </trkpt>
      <trkpt lat="45.87061" lon="5.46396">
        <ele>960.2</ele>
        <time>2021-02-20T14:39:19.000Z</time>
      </trkpt>
      <trkpt lat="45.87062" lon="5.46395">
        <ele>960.2</ele>
        <time>2021-02-20T14:39:20.000Z</time>
      </trkpt>
      <trkpt lat="45.87063" lon="5.46393">
        <ele>960.2</ele>
        <time>2021-02-20T14:39:21.000Z</time>
      </trkpt>
      <trkpt lat="45.87063" lon="5.46392">
        <ele>960.4</ele>
        <time>2021-02-20T14:39:22.000Z</time>
      </trkpt>
      <trkpt lat="45.87063" lon="5.46391">
        <ele>960.6</ele>
        <time>2021-02-20T14:39:23.000Z</time>
      </trkpt>
      <trkpt lat="45.87063" lon="5.46389">
        <ele>960.8</ele>
        <time>2021-02-20T14:39:24.000Z</time>
      </trkpt>
      <trkpt lat="45.87064" lon="5.46388">
        <ele>961.4</ele>
        <time>2021-02-20T14:39:25.000Z</time>
      </trkpt>
      <trkpt lat="45.87065" lon="5.46386">
        <ele>961.8</ele>
        <time>2021-02-20T14:39:26.000Z</time>
      </trkpt>
      <trkpt lat="45.87066" lon="5.46385">
        <ele>962</ele>
        <time>2021-02-20T14:39:27.000Z</time>
      </trkpt>
      <trkpt lat="45.87067" lon="5.46383">
        <ele>962</ele>
        <time>2021-02-20T14:39:28.000Z</time>
      </trkpt>
      <trkpt lat="45.87068" lon="5.46382">
        <ele>962.2</ele>
        <time>2021-02-20T14:39:29.000Z</time>
      </trkpt>
      <trkpt lat="45.87068" lon="5.4638">
        <ele>962.4</ele>
        <time>2021-02-20T14:39:30.000Z</time>
      </trkpt>
      <trkpt lat="45.87069" lon="5.46379">
        <ele>962.8</ele>
        <time>2021-02-20T14:39:31.000Z</time>
      </trkpt>
      <trkpt lat="45.8707" lon="5.46377">
        <ele>962.8</ele>
        <time>2021-02-20T14:39:32.000Z</time>
      </trkpt>
      <trkpt lat="45.8707" lon="5.46376">
        <ele>963</ele>
        <time>2021-02-20T14:39:33.000Z</time>
      </trkpt>
      <trkpt lat="45.87071" lon="5.46374">
        <ele>963.2</ele>
        <time>2021-02-20T14:39:34.000Z</time>
      </trkpt>
      <trkpt lat="45.87071" lon="5.46373">
        <ele>963.2</ele>
        <time>2021-02-20T14:39:35.000Z</time>
      </trkpt>
      <trkpt lat="45.87072" lon="5.46372">
        <ele>963.2</ele>
        <time>2021-02-20T14:39:36.000Z</time>
      </trkpt>
      <trkpt lat="45.87072" lon="5.4637">
        <ele>963.4</ele>
        <time>2021-02-20T14:39:37.000Z</time>
      </trkpt>
      <trkpt lat="45.87073" lon="5.46369">
        <ele>963.6</ele>
        <time>2021-02-20T14:39:38.000Z</time>
      </trkpt>
      <trkpt lat="45.87073" lon="5.46367">
        <ele>963.6</ele>
        <time>2021-02-20T14:39:39.000Z</time>
      </trkpt>
      <trkpt lat="45.87073" lon="5.46366">
        <ele>963.8</ele>
        <time>2021-02-20T14:39:40.000Z</time>
      </trkpt>
      <trkpt lat="45.87074" lon="5.46365">
        <ele>963.8</ele>
        <time>2021-02-20T14:39:41.000Z</time>
      </trkpt>
      <trkpt lat="45.87074" lon="5.46364">
        <ele>964</ele>
        <time>2021-02-20T14:39:42.000Z</time>
      </trkpt>
      <trkpt lat="45.87075" lon="5.46363">
        <ele>964.2</ele>
        <time>2021-02-20T14:39:43.000Z</time>
      </trkpt>
      <trkpt lat="45.87075" lon="5.46361">
        <ele>964.2</ele>
        <time>2021-02-20T14:39:44.000Z</time>
      </trkpt>
      <trkpt lat="45.87076" lon="5.4636">
        <ele>964.4</ele>
        <time>2021-02-20T14:39:45.000Z</time>
      </trkpt>
      <trkpt lat="45.87076" lon="5.46359">
        <ele>964.4</ele>
        <time>2021-02-20T14:39:46.000Z</time>
      </trkpt>
      <trkpt lat="45.87077" lon="5.46357">
        <ele>964.6</ele>
        <time>2021-02-20T14:39:47.000Z</time>
      </trkpt>
      <trkpt lat="45.87078" lon="5.46356">
        <ele>964.6</ele>
        <time>2021-02-20T14:39:48.000Z</time>
      </trkpt>
      <trkpt lat="45.87078" lon="5.46355">
        <ele>964.8</ele>
        <time>2021-02-20T14:39:49.000Z</time>
      </trkpt>
      <trkpt lat="45.8708" lon="5.46354">
        <ele>965</ele>
        <time>2021-02-20T14:39:50.000Z</time>
      </trkpt>
      <trkpt lat="45.8708" lon="5.46353">
        <ele>965</ele>
        <time>2021-02-20T14:39:51.000Z</time>
      </trkpt>
      <trkpt lat="45.87081" lon="5.46352">
        <ele>965.2</ele>
        <time>2021-02-20T14:39:52.000Z</time>
      </trkpt>
      <trkpt lat="45.87082" lon="5.46351">
        <ele>965.2</ele>
        <time>2021-02-20T14:39:53.000Z</time>
      </trkpt>
      <trkpt lat="45.87083" lon="5.46351">
        <ele>965.4</ele>
        <time>2021-02-20T14:39:54.000Z</time>
      </trkpt>
      <trkpt lat="45.87084" lon="5.4635">
        <ele>965.6</ele>
        <time>2021-02-20T14:39:55.000Z</time>
      </trkpt>
      <trkpt lat="45.87085" lon="5.46349">
        <ele>965.6</ele>
        <time>2021-02-20T14:39:56.000Z</time>
      </trkpt>
      <trkpt lat="45.87086" lon="5.46348">
        <ele>965.8</ele>
        <time>2021-02-20T14:39:57.000Z</time>
      </trkpt>
      <trkpt lat="45.87087" lon="5.46347">
        <ele>965.8</ele>
        <time>2021-02-20T14:39:58.000Z</time>
      </trkpt>
      <trkpt lat="45.87088" lon="5.46346">
        <ele>966.2</ele>
        <time>2021-02-20T14:39:59.000Z</time>
      </trkpt>
      <trkpt lat="45.87088" lon="5.46345">
        <ele>966.4</ele>
        <time>2021-02-20T14:40:00.000Z</time>
      </trkpt>
      <trkpt lat="45.87089" lon="5.46344">
        <ele>966.6</ele>
        <time>2021-02-20T14:40:01.000Z</time>
      </trkpt>
      <trkpt lat="45.8709" lon="5.46343">
        <ele>966.6</ele>
        <time>2021-02-20T14:40:02.000Z</time>
      </trkpt>
      <trkpt lat="45.87092" lon="5.46342">
        <ele>966.6</ele>
        <time>2021-02-20T14:40:03.000Z</time>
      </trkpt>
      <trkpt lat="45.87093" lon="5.46342">
        <ele>966.8</ele>
        <time>2021-02-20T14:40:04.000Z</time>
      </trkpt>
      <trkpt lat="45.87093" lon="5.46341">
        <ele>966.8</ele>
        <time>2021-02-20T14:40:05.000Z</time>
      </trkpt>
      <trkpt lat="45.87094" lon="5.4634">
        <ele>966.8</ele>
        <time>2021-02-20T14:40:06.000Z</time>
      </trkpt>
      <trkpt lat="45.87095" lon="5.46339">
        <ele>967</ele>
        <time>2021-02-20T14:40:07.000Z</time>
      </trkpt>
      <trkpt lat="45.87096" lon="5.46338">
        <ele>967.2</ele>
        <time>2021-02-20T14:40:08.000Z</time>
      </trkpt>
      <trkpt lat="45.87097" lon="5.46338">
        <ele>967.2</ele>
        <time>2021-02-20T14:40:09.000Z</time>
      </trkpt>
      <trkpt lat="45.87098" lon="5.46337">
        <ele>967.6</ele>
        <time>2021-02-20T14:40:10.000Z</time>
      </trkpt>
      <trkpt lat="45.871" lon="5.46336">
        <ele>967.6</ele>
        <time>2021-02-20T14:40:11.000Z</time>
      </trkpt>
      <trkpt lat="45.87102" lon="5.46335">
        <ele>968</ele>
        <time>2021-02-20T14:40:12.000Z</time>
      </trkpt>
      <trkpt lat="45.87103" lon="5.46334">
        <ele>968</ele>
        <time>2021-02-20T14:40:13.000Z</time>
      </trkpt>
      <trkpt lat="45.87104" lon="5.46333">
        <ele>968.2</ele>
        <time>2021-02-20T14:40:14.000Z</time>
      </trkpt>
      <trkpt lat="45.87105" lon="5.46332">
        <ele>968.6</ele>
        <time>2021-02-20T14:40:15.000Z</time>
      </trkpt>
      <trkpt lat="45.87107" lon="5.46331">
        <ele>968.6</ele>
        <time>2021-02-20T14:40:16.000Z</time>
      </trkpt>
      <trkpt lat="45.87108" lon="5.4633">
        <ele>968.6</ele>
        <time>2021-02-20T14:40:17.000Z</time>
      </trkpt>
      <trkpt lat="45.8711" lon="5.46329">
        <ele>968.8</ele>
        <time>2021-02-20T14:40:18.000Z</time>
      </trkpt>
      <trkpt lat="45.87111" lon="5.46329">
        <ele>969</ele>
        <time>2021-02-20T14:40:19.000Z</time>
      </trkpt>
      <trkpt lat="45.87113" lon="5.46328">
        <ele>969</ele>
        <time>2021-02-20T14:40:20.000Z</time>
      </trkpt>
      <trkpt lat="45.87114" lon="5.46327">
        <ele>969.2</ele>
        <time>2021-02-20T14:40:21.000Z</time>
      </trkpt>
      <trkpt lat="45.87115" lon="5.46326">
        <ele>969.2</ele>
        <time>2021-02-20T14:40:22.000Z</time>
      </trkpt>
      <trkpt lat="45.87117" lon="5.46325">
        <ele>969.2</ele>
        <time>2021-02-20T14:40:23.000Z</time>
      </trkpt>
      <trkpt lat="45.87118" lon="5.46324">
        <ele>969.6</ele>
        <time>2021-02-20T14:40:24.000Z</time>
      </trkpt>
      <trkpt lat="45.87119" lon="5.46322">
        <ele>969.6</ele>
        <time>2021-02-20T14:40:25.000Z</time>
      </trkpt>
      <trkpt lat="45.87121" lon="5.46321">
        <ele>970</ele>
        <time>2021-02-20T14:40:26.000Z</time>
      </trkpt>
      <trkpt lat="45.87121" lon="5.4632">
        <ele>970.4</ele>
        <time>2021-02-20T14:40:27.000Z</time>
      </trkpt>
      <trkpt lat="45.87122" lon="5.46319">
        <ele>970.6</ele>
        <time>2021-02-20T14:40:28.000Z</time>
      </trkpt>
      <trkpt lat="45.87123" lon="5.46319">
        <ele>970.6</ele>
        <time>2021-02-20T14:40:29.000Z</time>
      </trkpt>
      <trkpt lat="45.87125" lon="5.46318">
        <ele>970.8</ele>
        <time>2021-02-20T14:40:30.000Z</time>
      </trkpt>
      <trkpt lat="45.87126" lon="5.46317">
        <ele>970.8</ele>
        <time>2021-02-20T14:40:31.000Z</time>
      </trkpt>
      <trkpt lat="45.87127" lon="5.46316">
        <ele>970.8</ele>
        <time>2021-02-20T14:40:32.000Z</time>
      </trkpt>
      <trkpt lat="45.87129" lon="5.46315">
        <ele>971</ele>
        <time>2021-02-20T14:40:33.000Z</time>
      </trkpt>
      <trkpt lat="45.8713" lon="5.46314">
        <ele>971</ele>
        <time>2021-02-20T14:40:34.000Z</time>
      </trkpt>
      <trkpt lat="45.87131" lon="5.46313">
        <ele>971.2</ele>
        <time>2021-02-20T14:40:35.000Z</time>
      </trkpt>
      <trkpt lat="45.87132" lon="5.46312">
        <ele>971.4</ele>
        <time>2021-02-20T14:40:36.000Z</time>
      </trkpt>
      <trkpt lat="45.87133" lon="5.46311">
        <ele>971.4</ele>
        <time>2021-02-20T14:40:37.000Z</time>
      </trkpt>
      <trkpt lat="45.87134" lon="5.4631">
        <ele>971.6</ele>
        <time>2021-02-20T14:40:38.000Z</time>
      </trkpt>
      <trkpt lat="45.87135" lon="5.46309">
        <ele>971.6</ele>
        <time>2021-02-20T14:40:39.000Z</time>
      </trkpt>
      <trkpt lat="45.87137" lon="5.46308">
        <ele>971.6</ele>
        <time>2021-02-20T14:40:40.000Z</time>
      </trkpt>
      <trkpt lat="45.87138" lon="5.46306">
        <ele>971.8</ele>
        <time>2021-02-20T14:40:41.000Z</time>
      </trkpt>
      <trkpt lat="45.87138" lon="5.46305">
        <ele>972.2</ele>
        <time>2021-02-20T14:40:42.000Z</time>
      </trkpt>
      <trkpt lat="45.87139" lon="5.46304">
        <ele>972.2</ele>
        <time>2021-02-20T14:40:43.000Z</time>
      </trkpt>
      <trkpt lat="45.8714" lon="5.46302">
        <ele>972.6</ele>
        <time>2021-02-20T14:40:44.000Z</time>
      </trkpt>
      <trkpt lat="45.87141" lon="5.46301">
        <ele>972.8</ele>
        <time>2021-02-20T14:40:45.000Z</time>
      </trkpt>
      <trkpt lat="45.87142" lon="5.463">
        <ele>972.6</ele>
        <time>2021-02-20T14:40:46.000Z</time>
      </trkpt>
      <trkpt lat="45.87144" lon="5.46299">
        <ele>972.8</ele>
        <time>2021-02-20T14:40:47.000Z</time>
      </trkpt>
      <trkpt lat="45.87145" lon="5.46297">
        <ele>973</ele>
        <time>2021-02-20T14:40:48.000Z</time>
      </trkpt>
      <trkpt lat="45.87146" lon="5.46296">
        <ele>973.2</ele>
        <time>2021-02-20T14:40:49.000Z</time>
      </trkpt>
      <trkpt lat="45.87147" lon="5.46295">
        <ele>973.2</ele>
        <time>2021-02-20T14:40:50.000Z</time>
      </trkpt>
      <trkpt lat="45.87148" lon="5.46294">
        <ele>973.2</ele>
        <time>2021-02-20T14:40:51.000Z</time>
      </trkpt>
      <trkpt lat="45.8715" lon="5.46292">
        <ele>973.2</ele>
        <time>2021-02-20T14:40:52.000Z</time>
      </trkpt>
      <trkpt lat="45.87151" lon="5.46291">
        <ele>973.2</ele>
        <time>2021-02-20T14:40:53.000Z</time>
      </trkpt>
      <trkpt lat="45.87154" lon="5.46289">
        <ele>973.2</ele>
        <time>2021-02-20T14:40:55.000Z</time>
      </trkpt>
      <trkpt lat="45.87155" lon="5.46287">
        <ele>973.4</ele>
        <time>2021-02-20T14:40:56.000Z</time>
      </trkpt>
      <trkpt lat="45.8716" lon="5.46282">
        <ele>973.8</ele>
        <time>2021-02-20T14:41:00.000Z</time>
      </trkpt>
      <trkpt lat="45.87163" lon="5.46279">
        <ele>973.8</ele>
        <time>2021-02-20T14:41:03.000Z</time>
      </trkpt>
      <trkpt lat="45.8717" lon="5.46272">
        <ele>974.4</ele>
        <time>2021-02-20T14:41:08.000Z</time>
      </trkpt>
      <trkpt lat="45.87172" lon="5.4627">
        <ele>974.4</ele>
        <time>2021-02-20T14:41:09.000Z</time>
      </trkpt>
      <trkpt lat="45.87173" lon="5.46269">
        <ele>974.6</ele>
        <time>2021-02-20T14:41:10.000Z</time>
      </trkpt>
      <trkpt lat="45.87175" lon="5.46268">
        <ele>974.6</ele>
        <time>2021-02-20T14:41:11.000Z</time>
      </trkpt>
      <trkpt lat="45.87177" lon="5.46267">
        <ele>975</ele>
        <time>2021-02-20T14:41:12.000Z</time>
      </trkpt>
      <trkpt lat="45.87178" lon="5.46267">
        <ele>975.2</ele>
        <time>2021-02-20T14:41:13.000Z</time>
      </trkpt>
      <trkpt lat="45.8718" lon="5.46266">
        <ele>975.2</ele>
        <time>2021-02-20T14:41:14.000Z</time>
      </trkpt>
      <trkpt lat="45.87182" lon="5.46265">
        <ele>975.4</ele>
        <time>2021-02-20T14:41:15.000Z</time>
      </trkpt>
      <trkpt lat="45.87183" lon="5.46263">
        <ele>975.6</ele>
        <time>2021-02-20T14:41:16.000Z</time>
      </trkpt>
      <trkpt lat="45.87184" lon="5.46262">
        <ele>976</ele>
        <time>2021-02-20T14:41:17.000Z</time>
      </trkpt>
      <trkpt lat="45.87186" lon="5.4626">
        <ele>975.8</ele>
        <time>2021-02-20T14:41:18.000Z</time>
      </trkpt>
      <trkpt lat="45.87187" lon="5.46258">
        <ele>976</ele>
        <time>2021-02-20T14:41:19.000Z</time>
      </trkpt>
      <trkpt lat="45.87195" lon="5.46251">
        <ele>976.2</ele>
        <time>2021-02-20T14:41:23.000Z</time>
      </trkpt>
      <trkpt lat="45.87199" lon="5.46244">
        <ele>976.2</ele>
        <time>2021-02-20T14:41:26.000Z</time>
      </trkpt>
      <trkpt lat="45.87201" lon="5.46242">
        <ele>976.4</ele>
        <time>2021-02-20T14:41:27.000Z</time>
      </trkpt>
      <trkpt lat="45.87202" lon="5.46241">
        <ele>976.2</ele>
        <time>2021-02-20T14:41:28.000Z</time>
      </trkpt>
      <trkpt lat="45.87204" lon="5.46239">
        <ele>976.2</ele>
        <time>2021-02-20T14:41:29.000Z</time>
      </trkpt>
      <trkpt lat="45.87206" lon="5.46237">
        <ele>976.2</ele>
        <time>2021-02-20T14:41:30.000Z</time>
      </trkpt>
      <trkpt lat="45.87207" lon="5.46236">
        <ele>976.2</ele>
        <time>2021-02-20T14:41:31.000Z</time>
      </trkpt>
      <trkpt lat="45.87208" lon="5.46234">
        <ele>976.2</ele>
        <time>2021-02-20T14:41:32.000Z</time>
      </trkpt>
      <trkpt lat="45.87209" lon="5.46233">
        <ele>976.2</ele>
        <time>2021-02-20T14:41:33.000Z</time>
      </trkpt>
      <trkpt lat="45.87211" lon="5.46229">
        <ele>976.2</ele>
        <time>2021-02-20T14:41:35.000Z</time>
      </trkpt>
      <trkpt lat="45.87214" lon="5.46225">
        <ele>976.2</ele>
        <time>2021-02-20T14:41:36.000Z</time>
      </trkpt>
      <trkpt lat="45.8722" lon="5.46217">
        <ele>976.2</ele>
        <time>2021-02-20T14:41:38.000Z</time>
      </trkpt>
      <trkpt lat="45.87224" lon="5.46212">
        <ele>976.2</ele>
        <time>2021-02-20T14:41:39.000Z</time>
      </trkpt>
      <trkpt lat="45.87229" lon="5.46208">
        <ele>976</ele>
        <time>2021-02-20T14:41:40.000Z</time>
      </trkpt>
      <trkpt lat="45.87242" lon="5.46193">
        <ele>976</ele>
        <time>2021-02-20T14:41:43.000Z</time>
      </trkpt>
      <trkpt lat="45.8725" lon="5.46185">
        <ele>975.6</ele>
        <time>2021-02-20T14:41:45.000Z</time>
      </trkpt>
      <trkpt lat="45.87256" lon="5.46179">
        <ele>974.2</ele>
        <time>2021-02-20T14:41:47.000Z</time>
      </trkpt>
      <trkpt lat="45.8726" lon="5.46176">
        <ele>973.6</ele>
        <time>2021-02-20T14:41:48.000Z</time>
      </trkpt>
      <trkpt lat="45.87264" lon="5.46175">
        <ele>973</ele>
        <time>2021-02-20T14:41:49.000Z</time>
      </trkpt>
      <trkpt lat="45.87268" lon="5.46174">
        <ele>972.8</ele>
        <time>2021-02-20T14:41:50.000Z</time>
      </trkpt>
      <trkpt lat="45.87271" lon="5.46173">
        <ele>972.6</ele>
        <time>2021-02-20T14:41:51.000Z</time>
      </trkpt>
      <trkpt lat="45.87274" lon="5.46172">
        <ele>972.4</ele>
        <time>2021-02-20T14:41:52.000Z</time>
      </trkpt>
      <trkpt lat="45.87277" lon="5.46171">
        <ele>972.4</ele>
        <time>2021-02-20T14:41:53.000Z</time>
      </trkpt>
      <trkpt lat="45.87281" lon="5.4617">
        <ele>972.4</ele>
        <time>2021-02-20T14:41:54.000Z</time>
      </trkpt>
      <trkpt lat="45.87284" lon="5.46169">
        <ele>972.2</ele>
        <time>2021-02-20T14:41:55.000Z</time>
      </trkpt>
      <trkpt lat="45.87288" lon="5.46168">
        <ele>972.2</ele>
        <time>2021-02-20T14:41:56.000Z</time>
      </trkpt>
      <trkpt lat="45.8729" lon="5.46167">
        <ele>972.4</ele>
        <time>2021-02-20T14:41:57.000Z</time>
      </trkpt>
      <trkpt lat="45.87293" lon="5.46166">
        <ele>972.2</ele>
        <time>2021-02-20T14:41:58.000Z</time>
      </trkpt>
      <trkpt lat="45.87295" lon="5.46164">
        <ele>972.2</ele>
        <time>2021-02-20T14:41:59.000Z</time>
      </trkpt>
      <trkpt lat="45.87297" lon="5.46163">
        <ele>972.4</ele>
        <time>2021-02-20T14:42:00.000Z</time>
      </trkpt>
      <trkpt lat="45.87298" lon="5.46163">
        <ele>972.4</ele>
        <time>2021-02-20T14:42:01.000Z</time>
      </trkpt>
      <trkpt lat="45.87299" lon="5.46163">
        <ele>972.4</ele>
        <time>2021-02-20T14:42:02.000Z</time>
      </trkpt>
      <trkpt lat="45.873" lon="5.46163">
        <ele>972.4</ele>
        <time>2021-02-20T14:42:03.000Z</time>
      </trkpt>
      <trkpt lat="45.87302" lon="5.46162">
        <ele>972.4</ele>
        <time>2021-02-20T14:42:04.000Z</time>
      </trkpt>
      <trkpt lat="45.87304" lon="5.46162">
        <ele>972.6</ele>
        <time>2021-02-20T14:42:05.000Z</time>
      </trkpt>
      <trkpt lat="45.87305" lon="5.46162">
        <ele>972.8</ele>
        <time>2021-02-20T14:42:06.000Z</time>
      </trkpt>
      <trkpt lat="45.87306" lon="5.46161">
        <ele>973</ele>
        <time>2021-02-20T14:42:07.000Z</time>
      </trkpt>
      <trkpt lat="45.87308" lon="5.4616">
        <ele>973.2</ele>
        <time>2021-02-20T14:42:08.000Z</time>
      </trkpt>
      <trkpt lat="45.87313" lon="5.46158">
        <ele>974.2</ele>
        <time>2021-02-20T14:42:11.000Z</time>
      </trkpt>
      <trkpt lat="45.87315" lon="5.46156">
        <ele>974</ele>
        <time>2021-02-20T14:42:12.000Z</time>
      </trkpt>
      <trkpt lat="45.87317" lon="5.46155">
        <ele>974.4</ele>
        <time>2021-02-20T14:42:13.000Z</time>
      </trkpt>
      <trkpt lat="45.87319" lon="5.46153">
        <ele>974.8</ele>
        <time>2021-02-20T14:42:14.000Z</time>
      </trkpt>
      <trkpt lat="45.87321" lon="5.46152">
        <ele>975</ele>
        <time>2021-02-20T14:42:15.000Z</time>
      </trkpt>
      <trkpt lat="45.87324" lon="5.46151">
        <ele>975.2</ele>
        <time>2021-02-20T14:42:16.000Z</time>
      </trkpt>
      <trkpt lat="45.87326" lon="5.46149">
        <ele>975.6</ele>
        <time>2021-02-20T14:42:17.000Z</time>
      </trkpt>
      <trkpt lat="45.87329" lon="5.46149">
        <ele>976</ele>
        <time>2021-02-20T14:42:18.000Z</time>
      </trkpt>
      <trkpt lat="45.87331" lon="5.46148">
        <ele>976</ele>
        <time>2021-02-20T14:42:19.000Z</time>
      </trkpt>
      <trkpt lat="45.87333" lon="5.46148">
        <ele>976.6</ele>
        <time>2021-02-20T14:42:20.000Z</time>
      </trkpt>
      <trkpt lat="45.87334" lon="5.46148">
        <ele>977</ele>
        <time>2021-02-20T14:42:21.000Z</time>
      </trkpt>
      <trkpt lat="45.87336" lon="5.46147">
        <ele>977</ele>
        <time>2021-02-20T14:42:22.000Z</time>
      </trkpt>
      <trkpt lat="45.87338" lon="5.46146">
        <ele>977</ele>
        <time>2021-02-20T14:42:23.000Z</time>
      </trkpt>
      <trkpt lat="45.87339" lon="5.46146">
        <ele>977.4</ele>
        <time>2021-02-20T14:42:24.000Z</time>
      </trkpt>
      <trkpt lat="45.87339" lon="5.46145">
        <ele>977.4</ele>
        <time>2021-02-20T14:42:25.000Z</time>
      </trkpt>
      <trkpt lat="45.87341" lon="5.46144">
        <ele>977.4</ele>
        <time>2021-02-20T14:42:26.000Z</time>
      </trkpt>
      <trkpt lat="45.87343" lon="5.46143">
        <ele>977.8</ele>
        <time>2021-02-20T14:42:27.000Z</time>
      </trkpt>
      <trkpt lat="45.87345" lon="5.46141">
        <ele>978</ele>
        <time>2021-02-20T14:42:28.000Z</time>
      </trkpt>
      <trkpt lat="45.87347" lon="5.46141">
        <ele>978.2</ele>
        <time>2021-02-20T14:42:29.000Z</time>
      </trkpt>
      <trkpt lat="45.87349" lon="5.46141">
        <ele>978.2</ele>
        <time>2021-02-20T14:42:30.000Z</time>
      </trkpt>
      <trkpt lat="45.87351" lon="5.46141">
        <ele>978.4</ele>
        <time>2021-02-20T14:42:31.000Z</time>
      </trkpt>
      <trkpt lat="45.87353" lon="5.4614">
        <ele>978.8</ele>
        <time>2021-02-20T14:42:32.000Z</time>
      </trkpt>
      <trkpt lat="45.87354" lon="5.4614">
        <ele>979</ele>
        <time>2021-02-20T14:42:33.000Z</time>
      </trkpt>
      <trkpt lat="45.87356" lon="5.46139">
        <ele>979.2</ele>
        <time>2021-02-20T14:42:34.000Z</time>
      </trkpt>
      <trkpt lat="45.87358" lon="5.46139">
        <ele>979.4</ele>
        <time>2021-02-20T14:42:35.000Z</time>
      </trkpt>
      <trkpt lat="45.87361" lon="5.46138">
        <ele>979.4</ele>
        <time>2021-02-20T14:42:36.000Z</time>
      </trkpt>
      <trkpt lat="45.87363" lon="5.46138">
        <ele>979.6</ele>
        <time>2021-02-20T14:42:37.000Z</time>
      </trkpt>
      <trkpt lat="45.87365" lon="5.46137">
        <ele>979.8</ele>
        <time>2021-02-20T14:42:38.000Z</time>
      </trkpt>
      <trkpt lat="45.87367" lon="5.46136">
        <ele>980</ele>
        <time>2021-02-20T14:42:39.000Z</time>
      </trkpt>
      <trkpt lat="45.8737" lon="5.46136">
        <ele>980.2</ele>
        <time>2021-02-20T14:42:40.000Z</time>
      </trkpt>
      <trkpt lat="45.87373" lon="5.46135">
        <ele>980.4</ele>
        <time>2021-02-20T14:42:41.000Z</time>
      </trkpt>
      <trkpt lat="45.87375" lon="5.46135">
        <ele>980.4</ele>
        <time>2021-02-20T14:42:42.000Z</time>
      </trkpt>
      <trkpt lat="45.87377" lon="5.46134">
        <ele>980.8</ele>
        <time>2021-02-20T14:42:43.000Z</time>
      </trkpt>
      <trkpt lat="45.87378" lon="5.46134">
        <ele>981</ele>
        <time>2021-02-20T14:42:44.000Z</time>
      </trkpt>
      <trkpt lat="45.8738" lon="5.46134">
        <ele>981.2</ele>
        <time>2021-02-20T14:42:45.000Z</time>
      </trkpt>
      <trkpt lat="45.87382" lon="5.46133">
        <ele>981.2</ele>
        <time>2021-02-20T14:42:46.000Z</time>
      </trkpt>
      <trkpt lat="45.87383" lon="5.46133">
        <ele>981.4</ele>
        <time>2021-02-20T14:42:47.000Z</time>
      </trkpt>
      <trkpt lat="45.87384" lon="5.46133">
        <ele>982</ele>
        <time>2021-02-20T14:42:48.000Z</time>
      </trkpt>
      <trkpt lat="45.87386" lon="5.46132">
        <ele>982</ele>
        <time>2021-02-20T14:42:49.000Z</time>
      </trkpt>
      <trkpt lat="45.87388" lon="5.46131">
        <ele>982.4</ele>
        <time>2021-02-20T14:42:50.000Z</time>
      </trkpt>
      <trkpt lat="45.8739" lon="5.46131">
        <ele>982.6</ele>
        <time>2021-02-20T14:42:51.000Z</time>
      </trkpt>
      <trkpt lat="45.87392" lon="5.4613">
        <ele>982.8</ele>
        <time>2021-02-20T14:42:52.000Z</time>
      </trkpt>
      <trkpt lat="45.87394" lon="5.46129">
        <ele>983</ele>
        <time>2021-02-20T14:42:53.000Z</time>
      </trkpt>
      <trkpt lat="45.87396" lon="5.46128">
        <ele>983.4</ele>
        <time>2021-02-20T14:42:54.000Z</time>
      </trkpt>
      <trkpt lat="45.87398" lon="5.46128">
        <ele>983.6</ele>
        <time>2021-02-20T14:42:55.000Z</time>
      </trkpt>
      <trkpt lat="45.87399" lon="5.46127">
        <ele>983.8</ele>
        <time>2021-02-20T14:42:56.000Z</time>
      </trkpt>
      <trkpt lat="45.87401" lon="5.46127">
        <ele>984</ele>
        <time>2021-02-20T14:42:57.000Z</time>
      </trkpt>
      <trkpt lat="45.87402" lon="5.46126">
        <ele>984.4</ele>
        <time>2021-02-20T14:42:58.000Z</time>
      </trkpt>
      <trkpt lat="45.87403" lon="5.46126">
        <ele>984.4</ele>
        <time>2021-02-20T14:42:59.000Z</time>
      </trkpt>
      <trkpt lat="45.87404" lon="5.46126">
        <ele>984.6</ele>
        <time>2021-02-20T14:43:00.000Z</time>
      </trkpt>
      <trkpt lat="45.87406" lon="5.46125">
        <ele>984.8</ele>
        <time>2021-02-20T14:43:01.000Z</time>
      </trkpt>
      <trkpt lat="45.87407" lon="5.46125">
        <ele>984.8</ele>
        <time>2021-02-20T14:43:02.000Z</time>
      </trkpt>
      <trkpt lat="45.87408" lon="5.46125">
        <ele>985</ele>
        <time>2021-02-20T14:43:03.000Z</time>
      </trkpt>
      <trkpt lat="45.87409" lon="5.46124">
        <ele>985</ele>
        <time>2021-02-20T14:43:04.000Z</time>
      </trkpt>
      <trkpt lat="45.8741" lon="5.46124">
        <ele>985.2</ele>
        <time>2021-02-20T14:43:05.000Z</time>
      </trkpt>
      <trkpt lat="45.87411" lon="5.46124">
        <ele>985.2</ele>
        <time>2021-02-20T14:43:06.000Z</time>
      </trkpt>
      <trkpt lat="45.87412" lon="5.46124">
        <ele>985.4</ele>
        <time>2021-02-20T14:43:07.000Z</time>
      </trkpt>
      <trkpt lat="45.87413" lon="5.46124">
        <ele>985.4</ele>
        <time>2021-02-20T14:43:08.000Z</time>
      </trkpt>
      <trkpt lat="45.87414" lon="5.46123">
        <ele>985.6</ele>
        <time>2021-02-20T14:43:09.000Z</time>
      </trkpt>
      <trkpt lat="45.87415" lon="5.46122">
        <ele>985.6</ele>
        <time>2021-02-20T14:43:10.000Z</time>
      </trkpt>
      <trkpt lat="45.87416" lon="5.46122">
        <ele>985.8</ele>
        <time>2021-02-20T14:43:11.000Z</time>
      </trkpt>
      <trkpt lat="45.87417" lon="5.46121">
        <ele>986</ele>
        <time>2021-02-20T14:43:12.000Z</time>
      </trkpt>
      <trkpt lat="45.87418" lon="5.4612">
        <ele>986.4</ele>
        <time>2021-02-20T14:43:13.000Z</time>
      </trkpt>
      <trkpt lat="45.87419" lon="5.46118">
        <ele>986.4</ele>
        <time>2021-02-20T14:43:14.000Z</time>
      </trkpt>
      <trkpt lat="45.87419" lon="5.46117">
        <ele>986.6</ele>
        <time>2021-02-20T14:43:15.000Z</time>
      </trkpt>
      <trkpt lat="45.87419" lon="5.46116">
        <ele>987</ele>
        <time>2021-02-20T14:43:16.000Z</time>
      </trkpt>
      <trkpt lat="45.8742" lon="5.46116">
        <ele>987.2</ele>
        <time>2021-02-20T14:43:17.000Z</time>
      </trkpt>
      <trkpt lat="45.87421" lon="5.46115">
        <ele>987.4</ele>
        <time>2021-02-20T14:43:18.000Z</time>
      </trkpt>
      <trkpt lat="45.87422" lon="5.46114">
        <ele>987.4</ele>
        <time>2021-02-20T14:43:19.000Z</time>
      </trkpt>
      <trkpt lat="45.87423" lon="5.46114">
        <ele>987.8</ele>
        <time>2021-02-20T14:43:20.000Z</time>
      </trkpt>
      <trkpt lat="45.87424" lon="5.46113">
        <ele>988</ele>
        <time>2021-02-20T14:43:21.000Z</time>
      </trkpt>
      <trkpt lat="45.87425" lon="5.46112">
        <ele>988</ele>
        <time>2021-02-20T14:43:22.000Z</time>
      </trkpt>
      <trkpt lat="45.87427" lon="5.46111">
        <ele>988.2</ele>
        <time>2021-02-20T14:43:23.000Z</time>
      </trkpt>
      <trkpt lat="45.87428" lon="5.46111">
        <ele>988.2</ele>
        <time>2021-02-20T14:43:24.000Z</time>
      </trkpt>
      <trkpt lat="45.87428" lon="5.4611">
        <ele>988.4</ele>
        <time>2021-02-20T14:43:25.000Z</time>
      </trkpt>
      <trkpt lat="45.87429" lon="5.4611">
        <ele>988.4</ele>
        <time>2021-02-20T14:43:26.000Z</time>
      </trkpt>
      <trkpt lat="45.87432" lon="5.46109">
        <ele>988.8</ele>
        <time>2021-02-20T14:43:27.000Z</time>
      </trkpt>
      <trkpt lat="45.87433" lon="5.46108">
        <ele>988.8</ele>
        <time>2021-02-20T14:43:28.000Z</time>
      </trkpt>
      <trkpt lat="45.87435" lon="5.46107">
        <ele>989.2</ele>
        <time>2021-02-20T14:43:29.000Z</time>
      </trkpt>
      <trkpt lat="45.87436" lon="5.46106">
        <ele>989.4</ele>
        <time>2021-02-20T14:43:30.000Z</time>
      </trkpt>
      <trkpt lat="45.87437" lon="5.46105">
        <ele>989.8</ele>
        <time>2021-02-20T14:43:31.000Z</time>
      </trkpt>
      <trkpt lat="45.87438" lon="5.46105">
        <ele>990</ele>
        <time>2021-02-20T14:43:32.000Z</time>
      </trkpt>
      <trkpt lat="45.8744" lon="5.46105">
        <ele>990.2</ele>
        <time>2021-02-20T14:43:33.000Z</time>
      </trkpt>
      <trkpt lat="45.87442" lon="5.46104">
        <ele>990.4</ele>
        <time>2021-02-20T14:43:34.000Z</time>
      </trkpt>
      <trkpt lat="45.87443" lon="5.46103">
        <ele>990.6</ele>
        <time>2021-02-20T14:43:35.000Z</time>
      </trkpt>
      <trkpt lat="45.87444" lon="5.46101">
        <ele>990.8</ele>
        <time>2021-02-20T14:43:36.000Z</time>
      </trkpt>
      <trkpt lat="45.87445" lon="5.461">
        <ele>991.2</ele>
        <time>2021-02-20T14:43:37.000Z</time>
      </trkpt>
      <trkpt lat="45.87444" lon="5.46099">
        <ele>991.4</ele>
        <time>2021-02-20T14:43:38.000Z</time>
      </trkpt>
      <trkpt lat="45.87444" lon="5.46098">
        <ele>991.4</ele>
        <time>2021-02-20T14:43:39.000Z</time>
      </trkpt>
      <trkpt lat="45.87444" lon="5.46096">
        <ele>992</ele>
        <time>2021-02-20T14:43:40.000Z</time>
      </trkpt>
      <trkpt lat="45.87445" lon="5.46095">
        <ele>992.2</ele>
        <time>2021-02-20T14:43:41.000Z</time>
      </trkpt>
      <trkpt lat="45.87445" lon="5.46094">
        <ele>992.2</ele>
        <time>2021-02-20T14:43:42.000Z</time>
      </trkpt>
      <trkpt lat="45.87445" lon="5.46093">
        <ele>992.6</ele>
        <time>2021-02-20T14:43:43.000Z</time>
      </trkpt>
      <trkpt lat="45.87445" lon="5.46092">
        <ele>992.8</ele>
        <time>2021-02-20T14:43:44.000Z</time>
      </trkpt>
      <trkpt lat="45.87444" lon="5.46091">
        <ele>992.8</ele>
        <time>2021-02-20T14:43:45.000Z</time>
      </trkpt>
      <trkpt lat="45.87443" lon="5.4609">
        <ele>992.8</ele>
        <time>2021-02-20T14:43:46.000Z</time>
      </trkpt>
      <trkpt lat="45.87442" lon="5.46089">
        <ele>992.8</ele>
        <time>2021-02-20T14:43:47.000Z</time>
      </trkpt>
      <trkpt lat="45.87441" lon="5.46088">
        <ele>992.8</ele>
        <time>2021-02-20T14:43:48.000Z</time>
      </trkpt>
      <trkpt lat="45.87441" lon="5.46086">
        <ele>993</ele>
        <time>2021-02-20T14:43:49.000Z</time>
      </trkpt>
      <trkpt lat="45.8744" lon="5.46085">
        <ele>993</ele>
        <time>2021-02-20T14:43:50.000Z</time>
      </trkpt>
      <trkpt lat="45.87439" lon="5.46083">
        <ele>993.2</ele>
        <time>2021-02-20T14:43:51.000Z</time>
      </trkpt>
      <trkpt lat="45.87438" lon="5.46082">
        <ele>993.2</ele>
        <time>2021-02-20T14:43:52.000Z</time>
      </trkpt>
      <trkpt lat="45.87438" lon="5.4608">
        <ele>993.4</ele>
        <time>2021-02-20T14:43:53.000Z</time>
      </trkpt>
      <trkpt lat="45.87438" lon="5.46079">
        <ele>993.4</ele>
        <time>2021-02-20T14:43:54.000Z</time>
      </trkpt>
      <trkpt lat="45.87438" lon="5.46077">
        <ele>993.4</ele>
        <time>2021-02-20T14:43:55.000Z</time>
      </trkpt>
      <trkpt lat="45.87437" lon="5.46076">
        <ele>993.6</ele>
        <time>2021-02-20T14:43:56.000Z</time>
      </trkpt>
      <trkpt lat="45.87436" lon="5.46074">
        <ele>993.8</ele>
        <time>2021-02-20T14:43:57.000Z</time>
      </trkpt>
      <trkpt lat="45.87436" lon="5.46072">
        <ele>994</ele>
        <time>2021-02-20T14:43:58.000Z</time>
      </trkpt>
      <trkpt lat="45.87435" lon="5.4607">
        <ele>994.2</ele>
        <time>2021-02-20T14:43:59.000Z</time>
      </trkpt>
      <trkpt lat="45.87435" lon="5.46068">
        <ele>994.2</ele>
        <time>2021-02-20T14:44:00.000Z</time>
      </trkpt>
      <trkpt lat="45.87435" lon="5.46067">
        <ele>994.6</ele>
        <time>2021-02-20T14:44:01.000Z</time>
      </trkpt>
      <trkpt lat="45.87435" lon="5.46065">
        <ele>994.6</ele>
        <time>2021-02-20T14:44:02.000Z</time>
      </trkpt>
      <trkpt lat="45.87434" lon="5.46063">
        <ele>994.4</ele>
        <time>2021-02-20T14:44:03.000Z</time>
      </trkpt>
      <trkpt lat="45.87435" lon="5.46061">
        <ele>994.6</ele>
        <time>2021-02-20T14:44:04.000Z</time>
      </trkpt>
      <trkpt lat="45.87435" lon="5.46059">
        <ele>994.6</ele>
        <time>2021-02-20T14:44:05.000Z</time>
      </trkpt>
      <trkpt lat="45.87435" lon="5.46057">
        <ele>994.6</ele>
        <time>2021-02-20T14:44:06.000Z</time>
      </trkpt>
      <trkpt lat="45.87434" lon="5.46055">
        <ele>994.8</ele>
        <time>2021-02-20T14:44:07.000Z</time>
      </trkpt>
      <trkpt lat="45.87434" lon="5.46053">
        <ele>994.8</ele>
        <time>2021-02-20T14:44:08.000Z</time>
      </trkpt>
      <trkpt lat="45.87433" lon="5.46052">
        <ele>994.8</ele>
        <time>2021-02-20T14:44:09.000Z</time>
      </trkpt>
      <trkpt lat="45.87433" lon="5.46051">
        <ele>995</ele>
        <time>2021-02-20T14:44:10.000Z</time>
      </trkpt>
      <trkpt lat="45.87433" lon="5.46048">
        <ele>995.4</ele>
        <time>2021-02-20T14:44:11.000Z</time>
      </trkpt>
      <trkpt lat="45.87433" lon="5.46046">
        <ele>995.8</ele>
        <time>2021-02-20T14:44:12.000Z</time>
      </trkpt>
      <trkpt lat="45.87433" lon="5.46045">
        <ele>996</ele>
        <time>2021-02-20T14:44:13.000Z</time>
      </trkpt>
      <trkpt lat="45.87432" lon="5.46043">
        <ele>996</ele>
        <time>2021-02-20T14:44:14.000Z</time>
      </trkpt>
      <trkpt lat="45.87432" lon="5.46041">
        <ele>996.2</ele>
        <time>2021-02-20T14:44:15.000Z</time>
      </trkpt>
      <trkpt lat="45.87432" lon="5.46038">
        <ele>996.2</ele>
        <time>2021-02-20T14:44:16.000Z</time>
      </trkpt>
      <trkpt lat="45.87432" lon="5.46036">
        <ele>996.4</ele>
        <time>2021-02-20T14:44:17.000Z</time>
      </trkpt>
      <trkpt lat="45.87432" lon="5.46034">
        <ele>996.4</ele>
        <time>2021-02-20T14:44:18.000Z</time>
      </trkpt>
      <trkpt lat="45.87431" lon="5.46032">
        <ele>996.6</ele>
        <time>2021-02-20T14:44:19.000Z</time>
      </trkpt>
      <trkpt lat="45.8743" lon="5.4603">
        <ele>996.6</ele>
        <time>2021-02-20T14:44:20.000Z</time>
      </trkpt>
      <trkpt lat="45.87429" lon="5.46027">
        <ele>996.8</ele>
        <time>2021-02-20T14:44:21.000Z</time>
      </trkpt>
      <trkpt lat="45.87429" lon="5.46025">
        <ele>996.8</ele>
        <time>2021-02-20T14:44:22.000Z</time>
      </trkpt>
      <trkpt lat="45.87428" lon="5.46022">
        <ele>996.8</ele>
        <time>2021-02-20T14:44:23.000Z</time>
      </trkpt>
      <trkpt lat="45.87427" lon="5.46018">
        <ele>997</ele>
        <time>2021-02-20T14:44:24.000Z</time>
      </trkpt>
      <trkpt lat="45.87427" lon="5.46015">
        <ele>997</ele>
        <time>2021-02-20T14:44:25.000Z</time>
      </trkpt>
      <trkpt lat="45.87425" lon="5.46012">
        <ele>997.2</ele>
        <time>2021-02-20T14:44:26.000Z</time>
      </trkpt>
      <trkpt lat="45.87424" lon="5.46009">
        <ele>997.2</ele>
        <time>2021-02-20T14:44:27.000Z</time>
      </trkpt>
      <trkpt lat="45.87422" lon="5.46007">
        <ele>997.2</ele>
        <time>2021-02-20T14:44:28.000Z</time>
      </trkpt>
      <trkpt lat="45.87421" lon="5.46004">
        <ele>997.4</ele>
        <time>2021-02-20T14:44:29.000Z</time>
      </trkpt>
      <trkpt lat="45.87421" lon="5.46001">
        <ele>997.4</ele>
        <time>2021-02-20T14:44:30.000Z</time>
      </trkpt>
      <trkpt lat="45.8742" lon="5.45998">
        <ele>997.6</ele>
        <time>2021-02-20T14:44:31.000Z</time>
      </trkpt>
      <trkpt lat="45.87421" lon="5.45995">
        <ele>998</ele>
        <time>2021-02-20T14:44:32.000Z</time>
      </trkpt>
      <trkpt lat="45.87421" lon="5.45992">
        <ele>998.2</ele>
        <time>2021-02-20T14:44:33.000Z</time>
      </trkpt>
      <trkpt lat="45.87421" lon="5.45989">
        <ele>998.6</ele>
        <time>2021-02-20T14:44:34.000Z</time>
      </trkpt>
      <trkpt lat="45.87422" lon="5.45986">
        <ele>999</ele>
        <time>2021-02-20T14:44:35.000Z</time>
      </trkpt>
      <trkpt lat="45.87422" lon="5.45983">
        <ele>999.4</ele>
        <time>2021-02-20T14:44:36.000Z</time>
      </trkpt>
      <trkpt lat="45.87422" lon="5.4598">
        <ele>999.6</ele>
        <time>2021-02-20T14:44:37.000Z</time>
      </trkpt>
      <trkpt lat="45.87423" lon="5.45978">
        <ele>999.8</ele>
        <time>2021-02-20T14:44:38.000Z</time>
      </trkpt>
      <trkpt lat="45.87423" lon="5.45976">
        <ele>999.8</ele>
        <time>2021-02-20T14:44:39.000Z</time>
      </trkpt>
      <trkpt lat="45.87422" lon="5.45974">
        <ele>999.8</ele>
        <time>2021-02-20T14:44:40.000Z</time>
      </trkpt>
      <trkpt lat="45.87422" lon="5.45972">
        <ele>1000</ele>
        <time>2021-02-20T14:44:41.000Z</time>
      </trkpt>
      <trkpt lat="45.87421" lon="5.4597">
        <ele>1000</ele>
        <time>2021-02-20T14:44:42.000Z</time>
      </trkpt>
      <trkpt lat="45.87421" lon="5.45968">
        <ele>1000</ele>
        <time>2021-02-20T14:44:43.000Z</time>
      </trkpt>
      <trkpt lat="45.87421" lon="5.45966">
        <ele>1000</ele>
        <time>2021-02-20T14:44:44.000Z</time>
      </trkpt>
      <trkpt lat="45.87421" lon="5.45963">
        <ele>1000</ele>
        <time>2021-02-20T14:44:45.000Z</time>
      </trkpt>
      <trkpt lat="45.87421" lon="5.45961">
        <ele>1000</ele>
        <time>2021-02-20T14:44:46.000Z</time>
      </trkpt>
      <trkpt lat="45.87423" lon="5.45949">
        <ele>1000</ele>
        <time>2021-02-20T14:44:50.000Z</time>
      </trkpt>
      <trkpt lat="45.87423" lon="5.45946">
        <ele>999.8</ele>
        <time>2021-02-20T14:44:51.000Z</time>
      </trkpt>
      <trkpt lat="45.87424" lon="5.45941">
        <ele>1000</ele>
        <time>2021-02-20T14:44:52.000Z</time>
      </trkpt>
      <trkpt lat="45.87427" lon="5.45924">
        <ele>999.8</ele>
        <time>2021-02-20T14:44:55.000Z</time>
      </trkpt>
      <trkpt lat="45.87429" lon="5.4591">
        <ele>999.6</ele>
        <time>2021-02-20T14:44:57.000Z</time>
      </trkpt>
      <trkpt lat="45.8743" lon="5.45903">
        <ele>999.6</ele>
        <time>2021-02-20T14:44:58.000Z</time>
      </trkpt>
      <trkpt lat="45.87431" lon="5.45885">
        <ele>998.4</ele>
        <time>2021-02-20T14:45:00.000Z</time>
      </trkpt>
      <trkpt lat="45.87432" lon="5.45877">
        <ele>997.4</ele>
        <time>2021-02-20T14:45:01.000Z</time>
      </trkpt>
      <trkpt lat="45.87433" lon="5.45869">
        <ele>997.4</ele>
        <time>2021-02-20T14:45:02.000Z</time>
      </trkpt>
      <trkpt lat="45.87435" lon="5.45852">
        <ele>996.2</ele>
        <time>2021-02-20T14:45:04.000Z</time>
      </trkpt>
      <trkpt lat="45.87436" lon="5.45844">
        <ele>995.2</ele>
        <time>2021-02-20T14:45:05.000Z</time>
      </trkpt>
      <trkpt lat="45.87436" lon="5.45827">
        <ele>994</ele>
        <time>2021-02-20T14:45:07.000Z</time>
      </trkpt>
      <trkpt lat="45.87437" lon="5.45818">
        <ele>993.2</ele>
        <time>2021-02-20T14:45:08.000Z</time>
      </trkpt>
      <trkpt lat="45.87438" lon="5.45808">
        <ele>993</ele>
        <time>2021-02-20T14:45:09.000Z</time>
      </trkpt>
      <trkpt lat="45.87439" lon="5.45798">
        <ele>992.6</ele>
        <time>2021-02-20T14:45:10.000Z</time>
      </trkpt>
      <trkpt lat="45.87441" lon="5.45777">
        <ele>992.2</ele>
        <time>2021-02-20T14:45:12.000Z</time>
      </trkpt>
      <trkpt lat="45.87445" lon="5.45757">
        <ele>991</ele>
        <time>2021-02-20T14:45:14.000Z</time>
      </trkpt>
      <trkpt lat="45.87447" lon="5.45747">
        <ele>990.4</ele>
        <time>2021-02-20T14:45:15.000Z</time>
      </trkpt>
      <trkpt lat="45.8745" lon="5.45737">
        <ele>990.2</ele>
        <time>2021-02-20T14:45:16.000Z</time>
      </trkpt>
      <trkpt lat="45.87452" lon="5.45728">
        <ele>989.4</ele>
        <time>2021-02-20T14:45:17.000Z</time>
      </trkpt>
      <trkpt lat="45.87455" lon="5.4572">
        <ele>988.4</ele>
        <time>2021-02-20T14:45:18.000Z</time>
      </trkpt>
      <trkpt lat="45.87458" lon="5.45711">
        <ele>987.6</ele>
        <time>2021-02-20T14:45:19.000Z</time>
      </trkpt>
      <trkpt lat="45.87461" lon="5.45703">
        <ele>987</ele>
        <time>2021-02-20T14:45:20.000Z</time>
      </trkpt>
      <trkpt lat="45.87472" lon="5.4567">
        <ele>986.2</ele>
        <time>2021-02-20T14:45:24.000Z</time>
      </trkpt>
      <trkpt lat="45.87475" lon="5.45662">
        <ele>986</ele>
        <time>2021-02-20T14:45:25.000Z</time>
      </trkpt>
      <trkpt lat="45.87478" lon="5.45654">
        <ele>986</ele>
        <time>2021-02-20T14:45:26.000Z</time>
      </trkpt>
      <trkpt lat="45.87481" lon="5.45646">
        <ele>986</ele>
        <time>2021-02-20T14:45:27.000Z</time>
      </trkpt>
      <trkpt lat="45.87483" lon="5.45639">
        <ele>985.8</ele>
        <time>2021-02-20T14:45:28.000Z</time>
      </trkpt>
      <trkpt lat="45.87486" lon="5.45632">
        <ele>985.8</ele>
        <time>2021-02-20T14:45:29.000Z</time>
      </trkpt>
      <trkpt lat="45.87489" lon="5.45624">
        <ele>985.8</ele>
        <time>2021-02-20T14:45:30.000Z</time>
      </trkpt>
      <trkpt lat="45.87491" lon="5.45618">
        <ele>986</ele>
        <time>2021-02-20T14:45:31.000Z</time>
      </trkpt>
      <trkpt lat="45.87493" lon="5.45612">
        <ele>986.2</ele>
        <time>2021-02-20T14:45:32.000Z</time>
      </trkpt>
      <trkpt lat="45.87494" lon="5.45608">
        <ele>986.2</ele>
        <time>2021-02-20T14:45:33.000Z</time>
      </trkpt>
      <trkpt lat="45.87496" lon="5.45604">
        <ele>986.2</ele>
        <time>2021-02-20T14:45:34.000Z</time>
      </trkpt>
      <trkpt lat="45.87497" lon="5.45599">
        <ele>986.4</ele>
        <time>2021-02-20T14:45:35.000Z</time>
      </trkpt>
      <trkpt lat="45.87498" lon="5.45596">
        <ele>986.2</ele>
        <time>2021-02-20T14:45:36.000Z</time>
      </trkpt>
      <trkpt lat="45.87499" lon="5.45577">
        <ele>987.6</ele>
        <time>2021-02-20T14:45:40.000Z</time>
      </trkpt>
      <trkpt lat="45.875" lon="5.45555">
        <ele>987.8</ele>
        <time>2021-02-20T14:45:43.000Z</time>
      </trkpt>
      <trkpt lat="45.87501" lon="5.45547">
        <ele>987.8</ele>
        <time>2021-02-20T14:45:44.000Z</time>
      </trkpt>
      <trkpt lat="45.87502" lon="5.45539">
        <ele>987.8</ele>
        <time>2021-02-20T14:45:45.000Z</time>
      </trkpt>
      <trkpt lat="45.87502" lon="5.4552">
        <ele>987.8</ele>
        <time>2021-02-20T14:45:47.000Z</time>
      </trkpt>
      <trkpt lat="45.87503" lon="5.45509">
        <ele>987.8</ele>
        <time>2021-02-20T14:45:48.000Z</time>
      </trkpt>
      <trkpt lat="45.87504" lon="5.45497">
        <ele>987.8</ele>
        <time>2021-02-20T14:45:49.000Z</time>
      </trkpt>
      <trkpt lat="45.87505" lon="5.45488">
        <ele>987.4</ele>
        <time>2021-02-20T14:45:50.000Z</time>
      </trkpt>
      <trkpt lat="45.87507" lon="5.45479">
        <ele>986.8</ele>
        <time>2021-02-20T14:45:51.000Z</time>
      </trkpt>
      <trkpt lat="45.87509" lon="5.4547">
        <ele>986</ele>
        <time>2021-02-20T14:45:52.000Z</time>
      </trkpt>
      <trkpt lat="45.8751" lon="5.45462">
        <ele>985.4</ele>
        <time>2021-02-20T14:45:53.000Z</time>
      </trkpt>
      <trkpt lat="45.87513" lon="5.45453">
        <ele>984.2</ele>
        <time>2021-02-20T14:45:54.000Z</time>
      </trkpt>
      <trkpt lat="45.87517" lon="5.45443">
        <ele>983.8</ele>
        <time>2021-02-20T14:45:55.000Z</time>
      </trkpt>
      <trkpt lat="45.87522" lon="5.45424">
        <ele>982.2</ele>
        <time>2021-02-20T14:45:57.000Z</time>
      </trkpt>
      <trkpt lat="45.87533" lon="5.45383">
        <ele>981</ele>
        <time>2021-02-20T14:46:01.000Z</time>
      </trkpt>
      <trkpt lat="45.87535" lon="5.45373">
        <ele>981</ele>
        <time>2021-02-20T14:46:02.000Z</time>
      </trkpt>
      <trkpt lat="45.87536" lon="5.45364">
        <ele>981</ele>
        <time>2021-02-20T14:46:03.000Z</time>
      </trkpt>
      <trkpt lat="45.87535" lon="5.45356">
        <ele>980.6</ele>
        <time>2021-02-20T14:46:04.000Z</time>
      </trkpt>
      <trkpt lat="45.87534" lon="5.45348">
        <ele>980.4</ele>
        <time>2021-02-20T14:46:05.000Z</time>
      </trkpt>
      <trkpt lat="45.87531" lon="5.45343">
        <ele>980</ele>
        <time>2021-02-20T14:46:06.000Z</time>
      </trkpt>
      <trkpt lat="45.87529" lon="5.45338">
        <ele>980</ele>
        <time>2021-02-20T14:46:07.000Z</time>
      </trkpt>
      <trkpt lat="45.87525" lon="5.45334">
        <ele>980</ele>
        <time>2021-02-20T14:46:08.000Z</time>
      </trkpt>
      <trkpt lat="45.87523" lon="5.45331">
        <ele>980</ele>
        <time>2021-02-20T14:46:09.000Z</time>
      </trkpt>
      <trkpt lat="45.87521" lon="5.45329">
        <ele>979.8</ele>
        <time>2021-02-20T14:46:10.000Z</time>
      </trkpt>
      <trkpt lat="45.87519" lon="5.45327">
        <ele>979.8</ele>
        <time>2021-02-20T14:46:11.000Z</time>
      </trkpt>
      <trkpt lat="45.87517" lon="5.45326">
        <ele>979.8</ele>
        <time>2021-02-20T14:46:12.000Z</time>
      </trkpt>
      <trkpt lat="45.87516" lon="5.45325">
        <ele>979.8</ele>
        <time>2021-02-20T14:46:13.000Z</time>
      </trkpt>
      <trkpt lat="45.87514" lon="5.45323">
        <ele>979.8</ele>
        <time>2021-02-20T14:46:14.000Z</time>
      </trkpt>
      <trkpt lat="45.87513" lon="5.45321">
        <ele>979.8</ele>
        <time>2021-02-20T14:46:15.000Z</time>
      </trkpt>
      <trkpt lat="45.87512" lon="5.45319">
        <ele>980</ele>
        <time>2021-02-20T14:46:16.000Z</time>
      </trkpt>
      <trkpt lat="45.87511" lon="5.45317">
        <ele>980.4</ele>
        <time>2021-02-20T14:46:17.000Z</time>
      </trkpt>
      <trkpt lat="45.8751" lon="5.45315">
        <ele>980.8</ele>
        <time>2021-02-20T14:46:18.000Z</time>
      </trkpt>
      <trkpt lat="45.87509" lon="5.45313">
        <ele>981</ele>
        <time>2021-02-20T14:46:19.000Z</time>
      </trkpt>
      <trkpt lat="45.87505" lon="5.45306">
        <ele>981.2</ele>
        <time>2021-02-20T14:46:23.000Z</time>
      </trkpt>
      <trkpt lat="45.87503" lon="5.45302">
        <ele>981.4</ele>
        <time>2021-02-20T14:46:25.000Z</time>
      </trkpt>
      <trkpt lat="45.87503" lon="5.45299">
        <ele>981.6</ele>
        <time>2021-02-20T14:46:26.000Z</time>
      </trkpt>
      <trkpt lat="45.87503" lon="5.45297">
        <ele>981.8</ele>
        <time>2021-02-20T14:46:27.000Z</time>
      </trkpt>
      <trkpt lat="45.87504" lon="5.45295">
        <ele>981.8</ele>
        <time>2021-02-20T14:46:28.000Z</time>
      </trkpt>
      <trkpt lat="45.87504" lon="5.45293">
        <ele>982</ele>
        <time>2021-02-20T14:46:29.000Z</time>
      </trkpt>
      <trkpt lat="45.87504" lon="5.45291">
        <ele>982.2</ele>
        <time>2021-02-20T14:46:30.000Z</time>
      </trkpt>
      <trkpt lat="45.87505" lon="5.4529">
        <ele>982.2</ele>
        <time>2021-02-20T14:46:31.000Z</time>
      </trkpt>
      <trkpt lat="45.87505" lon="5.45289">
        <ele>982.4</ele>
        <time>2021-02-20T14:46:32.000Z</time>
      </trkpt>
      <trkpt lat="45.87508" lon="5.45282">
        <ele>984</ele>
        <time>2021-02-20T14:46:45.000Z</time>
      </trkpt>
      <trkpt lat="45.87509" lon="5.45281">
        <ele>984.2</ele>
        <time>2021-02-20T14:46:47.000Z</time>
      </trkpt>
      <trkpt lat="45.8751" lon="5.4528">
        <ele>984.2</ele>
        <time>2021-02-20T14:46:48.000Z</time>
      </trkpt>
      <trkpt lat="45.87512" lon="5.45279">
        <ele>984.2</ele>
        <time>2021-02-20T14:46:49.000Z</time>
      </trkpt>
      <trkpt lat="45.87513" lon="5.45278">
        <ele>984.2</ele>
        <time>2021-02-20T14:46:50.000Z</time>
      </trkpt>
      <trkpt lat="45.87514" lon="5.45277">
        <ele>984.4</ele>
        <time>2021-02-20T14:46:51.000Z</time>
      </trkpt>
      <trkpt lat="45.87515" lon="5.45276">
        <ele>984.2</ele>
        <time>2021-02-20T14:46:52.000Z</time>
      </trkpt>
      <trkpt lat="45.87516" lon="5.45275">
        <ele>984.2</ele>
        <time>2021-02-20T14:46:53.000Z</time>
      </trkpt>
      <trkpt lat="45.87517" lon="5.45274">
        <ele>984.2</ele>
        <time>2021-02-20T14:46:54.000Z</time>
      </trkpt>
      <trkpt lat="45.87524" lon="5.45268">
        <ele>985.8</ele>
        <time>2021-02-20T14:47:34.000Z</time>
      </trkpt>
      <trkpt lat="45.87524" lon="5.45269">
        <ele>985.8</ele>
        <time>2021-02-20T14:47:35.000Z</time>
      </trkpt>
      <trkpt lat="45.87522" lon="5.45272">
        <ele>985.6</ele>
        <time>2021-02-20T14:47:37.000Z</time>
      </trkpt>
      <trkpt lat="45.87522" lon="5.45273">
        <ele>985.4</ele>
        <time>2021-02-20T14:47:39.000Z</time>
      </trkpt>
      <trkpt lat="45.87521" lon="5.45274">
        <ele>985.4</ele>
        <time>2021-02-20T14:47:40.000Z</time>
      </trkpt>
      <trkpt lat="45.8752" lon="5.45275">
        <ele>985.4</ele>
        <time>2021-02-20T14:47:41.000Z</time>
      </trkpt>
      <trkpt lat="45.87519" lon="5.45275">
        <ele>985.2</ele>
        <time>2021-02-20T14:47:42.000Z</time>
      </trkpt>
      <trkpt lat="45.87518" lon="5.45276">
        <ele>985</ele>
        <time>2021-02-20T14:47:43.000Z</time>
      </trkpt>
      <trkpt lat="45.87517" lon="5.45277">
        <ele>985</ele>
        <time>2021-02-20T14:47:44.000Z</time>
      </trkpt>
      <trkpt lat="45.87515" lon="5.45277">
        <ele>984.8</ele>
        <time>2021-02-20T14:47:46.000Z</time>
      </trkpt>
      <trkpt lat="45.87512" lon="5.45279">
        <ele>984.4</ele>
        <time>2021-02-20T14:47:48.000Z</time>
      </trkpt>
      <trkpt lat="45.87507" lon="5.45278">
        <ele>984.2</ele>
        <time>2021-02-20T14:47:51.000Z</time>
      </trkpt>
      <trkpt lat="45.87505" lon="5.45278">
        <ele>984.2</ele>
        <time>2021-02-20T14:47:52.000Z</time>
      </trkpt>
      <trkpt lat="45.87502" lon="5.45277">
        <ele>984.2</ele>
        <time>2021-02-20T14:47:53.000Z</time>
      </trkpt>
      <trkpt lat="45.87497" lon="5.45275">
        <ele>984</ele>
        <time>2021-02-20T14:47:55.000Z</time>
      </trkpt>
      <trkpt lat="45.87495" lon="5.45275">
        <ele>983.8</ele>
        <time>2021-02-20T14:47:56.000Z</time>
      </trkpt>
      <trkpt lat="45.87492" lon="5.45276">
        <ele>983.8</ele>
        <time>2021-02-20T14:47:57.000Z</time>
      </trkpt>
      <trkpt lat="45.8749" lon="5.45277">
        <ele>984</ele>
        <time>2021-02-20T14:47:58.000Z</time>
      </trkpt>
      <trkpt lat="45.87487" lon="5.45278">
        <ele>983.8</ele>
        <time>2021-02-20T14:47:59.000Z</time>
      </trkpt>
      <trkpt lat="45.87484" lon="5.45279">
        <ele>983.8</ele>
        <time>2021-02-20T14:48:00.000Z</time>
      </trkpt>
      <trkpt lat="45.87482" lon="5.4528">
        <ele>983.8</ele>
        <time>2021-02-20T14:48:01.000Z</time>
      </trkpt>
      <trkpt lat="45.87479" lon="5.45282">
        <ele>983.6</ele>
        <time>2021-02-20T14:48:02.000Z</time>
      </trkpt>
      <trkpt lat="45.87477" lon="5.45283">
        <ele>983.8</ele>
        <time>2021-02-20T14:48:03.000Z</time>
      </trkpt>
      <trkpt lat="45.87475" lon="5.45284">
        <ele>983.8</ele>
        <time>2021-02-20T14:48:04.000Z</time>
      </trkpt>
      <trkpt lat="45.87467" lon="5.45285">
        <ele>984.4</ele>
        <time>2021-02-20T14:48:07.000Z</time>
      </trkpt>
      <trkpt lat="45.87463" lon="5.45285">
        <ele>984.6</ele>
        <time>2021-02-20T14:48:09.000Z</time>
      </trkpt>
      <trkpt lat="45.87443" lon="5.45288">
        <ele>985.6</ele>
        <time>2021-02-20T14:48:14.000Z</time>
      </trkpt>
      <trkpt lat="45.8744" lon="5.45289">
        <ele>985.6</ele>
        <time>2021-02-20T14:48:15.000Z</time>
      </trkpt>
      <trkpt lat="45.87437" lon="5.45291">
        <ele>985.8</ele>
        <time>2021-02-20T14:48:16.000Z</time>
      </trkpt>
      <trkpt lat="45.87434" lon="5.45292">
        <ele>985.8</ele>
        <time>2021-02-20T14:48:17.000Z</time>
      </trkpt>
      <trkpt lat="45.87431" lon="5.45294">
        <ele>986.2</ele>
        <time>2021-02-20T14:48:18.000Z</time>
      </trkpt>
      <trkpt lat="45.87429" lon="5.45296">
        <ele>986.2</ele>
        <time>2021-02-20T14:48:19.000Z</time>
      </trkpt>
      <trkpt lat="45.87426" lon="5.45298">
        <ele>986.2</ele>
        <time>2021-02-20T14:48:20.000Z</time>
      </trkpt>
      <trkpt lat="45.87424" lon="5.453">
        <ele>986.2</ele>
        <time>2021-02-20T14:48:21.000Z</time>
      </trkpt>
      <trkpt lat="45.87422" lon="5.45301">
        <ele>986.4</ele>
        <time>2021-02-20T14:48:22.000Z</time>
      </trkpt>
      <trkpt lat="45.87419" lon="5.45302">
        <ele>986.6</ele>
        <time>2021-02-20T14:48:23.000Z</time>
      </trkpt>
      <trkpt lat="45.87417" lon="5.45303">
        <ele>986.8</ele>
        <time>2021-02-20T14:48:24.000Z</time>
      </trkpt>
      <trkpt lat="45.87415" lon="5.45304">
        <ele>986.8</ele>
        <time>2021-02-20T14:48:25.000Z</time>
      </trkpt>
      <trkpt lat="45.87413" lon="5.45305">
        <ele>987</ele>
        <time>2021-02-20T14:48:26.000Z</time>
      </trkpt>
      <trkpt lat="45.87411" lon="5.45305">
        <ele>987</ele>
        <time>2021-02-20T14:48:27.000Z</time>
      </trkpt>
      <trkpt lat="45.87407" lon="5.45306">
        <ele>987.2</ele>
        <time>2021-02-20T14:48:28.000Z</time>
      </trkpt>
      <trkpt lat="45.87404" lon="5.45306">
        <ele>987.4</ele>
        <time>2021-02-20T14:48:29.000Z</time>
      </trkpt>
      <trkpt lat="45.87402" lon="5.45306">
        <ele>987.4</ele>
        <time>2021-02-20T14:48:30.000Z</time>
      </trkpt>
      <trkpt lat="45.874" lon="5.45306">
        <ele>987.6</ele>
        <time>2021-02-20T14:48:31.000Z</time>
      </trkpt>
      <trkpt lat="45.87397" lon="5.45307">
        <ele>987.8</ele>
        <time>2021-02-20T14:48:32.000Z</time>
      </trkpt>
      <trkpt lat="45.87394" lon="5.45307">
        <ele>988.4</ele>
        <time>2021-02-20T14:48:33.000Z</time>
      </trkpt>
      <trkpt lat="45.87392" lon="5.45307">
        <ele>988.8</ele>
        <time>2021-02-20T14:48:34.000Z</time>
      </trkpt>
      <trkpt lat="45.87389" lon="5.45307">
        <ele>989</ele>
        <time>2021-02-20T14:48:35.000Z</time>
      </trkpt>
      <trkpt lat="45.87386" lon="5.45307">
        <ele>989</ele>
        <time>2021-02-20T14:48:36.000Z</time>
      </trkpt>
      <trkpt lat="45.87382" lon="5.45306">
        <ele>989</ele>
        <time>2021-02-20T14:48:37.000Z</time>
      </trkpt>
      <trkpt lat="45.87379" lon="5.45306">
        <ele>989</ele>
        <time>2021-02-20T14:48:38.000Z</time>
      </trkpt>
      <trkpt lat="45.87375" lon="5.45306">
        <ele>989</ele>
        <time>2021-02-20T14:48:39.000Z</time>
      </trkpt>
      <trkpt lat="45.87371" lon="5.45307">
        <ele>989</ele>
        <time>2021-02-20T14:48:40.000Z</time>
      </trkpt>
      <trkpt lat="45.87363" lon="5.45309">
        <ele>989</ele>
        <time>2021-02-20T14:48:42.000Z</time>
      </trkpt>
      <trkpt lat="45.87359" lon="5.45311">
        <ele>989</ele>
        <time>2021-02-20T14:48:43.000Z</time>
      </trkpt>
      <trkpt lat="45.87352" lon="5.45316">
        <ele>988.2</ele>
        <time>2021-02-20T14:48:45.000Z</time>
      </trkpt>
      <trkpt lat="45.87339" lon="5.45324">
        <ele>987.4</ele>
        <time>2021-02-20T14:48:48.000Z</time>
      </trkpt>
      <trkpt lat="45.87329" lon="5.45329">
        <ele>987.2</ele>
        <time>2021-02-20T14:48:50.000Z</time>
      </trkpt>
      <trkpt lat="45.87325" lon="5.4533">
        <ele>987.2</ele>
        <time>2021-02-20T14:48:51.000Z</time>
      </trkpt>
      <trkpt lat="45.8732" lon="5.45332">
        <ele>987</ele>
        <time>2021-02-20T14:48:52.000Z</time>
      </trkpt>
      <trkpt lat="45.87316" lon="5.45334">
        <ele>987</ele>
        <time>2021-02-20T14:48:53.000Z</time>
      </trkpt>
      <trkpt lat="45.87312" lon="5.45336">
        <ele>986.4</ele>
        <time>2021-02-20T14:48:54.000Z</time>
      </trkpt>
      <trkpt lat="45.87304" lon="5.45338">
        <ele>986</ele>
        <time>2021-02-20T14:48:56.000Z</time>
      </trkpt>
      <trkpt lat="45.87298" lon="5.45338">
        <ele>985.8</ele>
        <time>2021-02-20T14:48:57.000Z</time>
      </trkpt>
      <trkpt lat="45.87289" lon="5.45337">
        <ele>985.4</ele>
        <time>2021-02-20T14:48:59.000Z</time>
      </trkpt>
      <trkpt lat="45.87271" lon="5.45332">
        <ele>984.6</ele>
        <time>2021-02-20T14:49:03.000Z</time>
      </trkpt>
      <trkpt lat="45.87267" lon="5.45329">
        <ele>984.6</ele>
        <time>2021-02-20T14:49:04.000Z</time>
      </trkpt>
      <trkpt lat="45.87263" lon="5.45325">
        <ele>984.4</ele>
        <time>2021-02-20T14:49:05.000Z</time>
      </trkpt>
      <trkpt lat="45.87259" lon="5.45322">
        <ele>983.8</ele>
        <time>2021-02-20T14:49:06.000Z</time>
      </trkpt>
      <trkpt lat="45.87255" lon="5.45319">
        <ele>983.6</ele>
        <time>2021-02-20T14:49:07.000Z</time>
      </trkpt>
      <trkpt lat="45.87251" lon="5.45317">
        <ele>983.4</ele>
        <time>2021-02-20T14:49:08.000Z</time>
      </trkpt>
      <trkpt lat="45.87246" lon="5.45317">
        <ele>983.4</ele>
        <time>2021-02-20T14:49:09.000Z</time>
      </trkpt>
      <trkpt lat="45.87242" lon="5.45316">
        <ele>983.6</ele>
        <time>2021-02-20T14:49:10.000Z</time>
      </trkpt>
      <trkpt lat="45.87237" lon="5.45315">
        <ele>983.6</ele>
        <time>2021-02-20T14:49:11.000Z</time>
      </trkpt>
      <trkpt lat="45.87233" lon="5.45316">
        <ele>983.6</ele>
        <time>2021-02-20T14:49:12.000Z</time>
      </trkpt>
      <trkpt lat="45.8723" lon="5.45316">
        <ele>983.6</ele>
        <time>2021-02-20T14:49:13.000Z</time>
      </trkpt>
      <trkpt lat="45.87228" lon="5.45316">
        <ele>983.4</ele>
        <time>2021-02-20T14:49:14.000Z</time>
      </trkpt>
      <trkpt lat="45.87226" lon="5.45315">
        <ele>983.4</ele>
        <time>2021-02-20T14:49:15.000Z</time>
      </trkpt>
      <trkpt lat="45.87224" lon="5.45315">
        <ele>983.6</ele>
        <time>2021-02-20T14:49:16.000Z</time>
      </trkpt>
      <trkpt lat="45.87223" lon="5.45314">
        <ele>983.6</ele>
        <time>2021-02-20T14:49:17.000Z</time>
      </trkpt>
      <trkpt lat="45.87221" lon="5.45314">
        <ele>983.8</ele>
        <time>2021-02-20T14:49:18.000Z</time>
      </trkpt>
      <trkpt lat="45.8722" lon="5.45314">
        <ele>984.2</ele>
        <time>2021-02-20T14:49:19.000Z</time>
      </trkpt>
      <trkpt lat="45.87214" lon="5.45311">
        <ele>986.2</ele>
        <time>2021-02-20T14:49:33.000Z</time>
      </trkpt>
      <trkpt lat="45.87212" lon="5.4531">
        <ele>986.2</ele>
        <time>2021-02-20T14:49:35.000Z</time>
      </trkpt>
      <trkpt lat="45.87211" lon="5.45308">
        <ele>986.2</ele>
        <time>2021-02-20T14:49:36.000Z</time>
      </trkpt>
      <trkpt lat="45.8721" lon="5.45307">
        <ele>986</ele>
        <time>2021-02-20T14:49:37.000Z</time>
      </trkpt>
      <trkpt lat="45.87209" lon="5.45306">
        <ele>986.2</ele>
        <time>2021-02-20T14:49:38.000Z</time>
      </trkpt>
      <trkpt lat="45.87206" lon="5.45303">
        <ele>985.6</ele>
        <time>2021-02-20T14:49:40.000Z</time>
      </trkpt>
      <trkpt lat="45.87205" lon="5.45302">
        <ele>985.4</ele>
        <time>2021-02-20T14:49:41.000Z</time>
      </trkpt>
      <trkpt lat="45.87203" lon="5.45302">
        <ele>985.2</ele>
        <time>2021-02-20T14:49:42.000Z</time>
      </trkpt>
      <trkpt lat="45.87201" lon="5.45303">
        <ele>985</ele>
        <time>2021-02-20T14:49:43.000Z</time>
      </trkpt>
      <trkpt lat="45.87199" lon="5.45302">
        <ele>985</ele>
        <time>2021-02-20T14:49:44.000Z</time>
      </trkpt>
      <trkpt lat="45.87197" lon="5.45302">
        <ele>984.6</ele>
        <time>2021-02-20T14:49:45.000Z</time>
      </trkpt>
      <trkpt lat="45.87196" lon="5.45302">
        <ele>984.4</ele>
        <time>2021-02-20T14:49:46.000Z</time>
      </trkpt>
      <trkpt lat="45.87195" lon="5.45301">
        <ele>983.8</ele>
        <time>2021-02-20T14:49:47.000Z</time>
      </trkpt>
      <trkpt lat="45.87193" lon="5.453">
        <ele>983.4</ele>
        <time>2021-02-20T14:49:48.000Z</time>
      </trkpt>
      <trkpt lat="45.8719" lon="5.45299">
        <ele>982.4</ele>
        <time>2021-02-20T14:49:49.000Z</time>
      </trkpt>
      <trkpt lat="45.87186" lon="5.45298">
        <ele>981.2</ele>
        <time>2021-02-20T14:49:50.000Z</time>
      </trkpt>
      <trkpt lat="45.87178" lon="5.45293">
        <ele>979.6</ele>
        <time>2021-02-20T14:49:52.000Z</time>
      </trkpt>
      <trkpt lat="45.87173" lon="5.45291">
        <ele>979</ele>
        <time>2021-02-20T14:49:53.000Z</time>
      </trkpt>
      <trkpt lat="45.87169" lon="5.4529">
        <ele>978.4</ele>
        <time>2021-02-20T14:49:54.000Z</time>
      </trkpt>
      <trkpt lat="45.87166" lon="5.45288">
        <ele>978.2</ele>
        <time>2021-02-20T14:49:55.000Z</time>
      </trkpt>
      <trkpt lat="45.87163" lon="5.45288">
        <ele>978.2</ele>
        <time>2021-02-20T14:49:56.000Z</time>
      </trkpt>
      <trkpt lat="45.87159" lon="5.45288">
        <ele>977.8</ele>
        <time>2021-02-20T14:49:57.000Z</time>
      </trkpt>
      <trkpt lat="45.87155" lon="5.45288">
        <ele>976.8</ele>
        <time>2021-02-20T14:49:58.000Z</time>
      </trkpt>
      <trkpt lat="45.87151" lon="5.45289">
        <ele>976.2</ele>
        <time>2021-02-20T14:49:59.000Z</time>
      </trkpt>
      <trkpt lat="45.87147" lon="5.45288">
        <ele>975</ele>
        <time>2021-02-20T14:50:00.000Z</time>
      </trkpt>
      <trkpt lat="45.87138" lon="5.45285">
        <ele>973.8</ele>
        <time>2021-02-20T14:50:02.000Z</time>
      </trkpt>
      <trkpt lat="45.87135" lon="5.45282">
        <ele>972.6</ele>
        <time>2021-02-20T14:50:03.000Z</time>
      </trkpt>
      <trkpt lat="45.87132" lon="5.4528">
        <ele>971.8</ele>
        <time>2021-02-20T14:50:04.000Z</time>
      </trkpt>
      <trkpt lat="45.87129" lon="5.45278">
        <ele>970.8</ele>
        <time>2021-02-20T14:50:05.000Z</time>
      </trkpt>
      <trkpt lat="45.87127" lon="5.45275">
        <ele>970.4</ele>
        <time>2021-02-20T14:50:06.000Z</time>
      </trkpt>
      <trkpt lat="45.87125" lon="5.45272">
        <ele>969.8</ele>
        <time>2021-02-20T14:50:07.000Z</time>
      </trkpt>
      <trkpt lat="45.87124" lon="5.4527">
        <ele>969.2</ele>
        <time>2021-02-20T14:50:08.000Z</time>
      </trkpt>
      <trkpt lat="45.87121" lon="5.45267">
        <ele>968.2</ele>
        <time>2021-02-20T14:50:09.000Z</time>
      </trkpt>
      <trkpt lat="45.87119" lon="5.45262">
        <ele>967.4</ele>
        <time>2021-02-20T14:50:10.000Z</time>
      </trkpt>
      <trkpt lat="45.87117" lon="5.45259">
        <ele>966.2</ele>
        <time>2021-02-20T14:50:11.000Z</time>
      </trkpt>
      <trkpt lat="45.87113" lon="5.4525">
        <ele>964.6</ele>
        <time>2021-02-20T14:50:13.000Z</time>
      </trkpt>
      <trkpt lat="45.87111" lon="5.45247">
        <ele>963</ele>
        <time>2021-02-20T14:50:14.000Z</time>
      </trkpt>
      <trkpt lat="45.87105" lon="5.45239">
        <ele>961.8</ele>
        <time>2021-02-20T14:50:16.000Z</time>
      </trkpt>
      <trkpt lat="45.87102" lon="5.45236">
        <ele>960.4</ele>
        <time>2021-02-20T14:50:17.000Z</time>
      </trkpt>
      <trkpt lat="45.87094" lon="5.45229">
        <ele>958</ele>
        <time>2021-02-20T14:50:19.000Z</time>
      </trkpt>
      <trkpt lat="45.87089" lon="5.45226">
        <ele>957.4</ele>
        <time>2021-02-20T14:50:20.000Z</time>
      </trkpt>
      <trkpt lat="45.87086" lon="5.45223">
        <ele>956.6</ele>
        <time>2021-02-20T14:50:21.000Z</time>
      </trkpt>
      <trkpt lat="45.87082" lon="5.45219">
        <ele>955.8</ele>
        <time>2021-02-20T14:50:22.000Z</time>
      </trkpt>
      <trkpt lat="45.87079" lon="5.45215">
        <ele>955</ele>
        <time>2021-02-20T14:50:23.000Z</time>
      </trkpt>
      <trkpt lat="45.87077" lon="5.45212">
        <ele>954</ele>
        <time>2021-02-20T14:50:24.000Z</time>
      </trkpt>
      <trkpt lat="45.87075" lon="5.45209">
        <ele>953</ele>
        <time>2021-02-20T14:50:25.000Z</time>
      </trkpt>
      <trkpt lat="45.87072" lon="5.45205">
        <ele>951.6</ele>
        <time>2021-02-20T14:50:26.000Z</time>
      </trkpt>
      <trkpt lat="45.87069" lon="5.45202">
        <ele>951</ele>
        <time>2021-02-20T14:50:27.000Z</time>
      </trkpt>
      <trkpt lat="45.87067" lon="5.45198">
        <ele>949.8</ele>
        <time>2021-02-20T14:50:28.000Z</time>
      </trkpt>
      <trkpt lat="45.87064" lon="5.45192">
        <ele>949.2</ele>
        <time>2021-02-20T14:50:29.000Z</time>
      </trkpt>
      <trkpt lat="45.87062" lon="5.45187">
        <ele>948.4</ele>
        <time>2021-02-20T14:50:30.000Z</time>
      </trkpt>
      <trkpt lat="45.87059" lon="5.45182">
        <ele>948.2</ele>
        <time>2021-02-20T14:50:31.000Z</time>
      </trkpt>
      <trkpt lat="45.87057" lon="5.45178">
        <ele>947.2</ele>
        <time>2021-02-20T14:50:32.000Z</time>
      </trkpt>
      <trkpt lat="45.87056" lon="5.45175">
        <ele>946.6</ele>
        <time>2021-02-20T14:50:33.000Z</time>
      </trkpt>
      <trkpt lat="45.87056" lon="5.45172">
        <ele>946.2</ele>
        <time>2021-02-20T14:50:34.000Z</time>
      </trkpt>
      <trkpt lat="45.87055" lon="5.45169">
        <ele>946.2</ele>
        <time>2021-02-20T14:50:35.000Z</time>
      </trkpt>
      <trkpt lat="45.87055" lon="5.45162">
        <ele>945</ele>
        <time>2021-02-20T14:50:37.000Z</time>
      </trkpt>
      <trkpt lat="45.87055" lon="5.45158">
        <ele>943.8</ele>
        <time>2021-02-20T14:50:38.000Z</time>
      </trkpt>
      <trkpt lat="45.87056" lon="5.45155">
        <ele>942.2</ele>
        <time>2021-02-20T14:50:39.000Z</time>
      </trkpt>
      <trkpt lat="45.87056" lon="5.45151">
        <ele>941.6</ele>
        <time>2021-02-20T14:50:40.000Z</time>
      </trkpt>
      <trkpt lat="45.87057" lon="5.45143">
        <ele>940.2</ele>
        <time>2021-02-20T14:50:42.000Z</time>
      </trkpt>
      <trkpt lat="45.87057" lon="5.45136">
        <ele>939.2</ele>
        <time>2021-02-20T14:50:44.000Z</time>
      </trkpt>
      <trkpt lat="45.87057" lon="5.45134">
        <ele>938.4</ele>
        <time>2021-02-20T14:50:45.000Z</time>
      </trkpt>
      <trkpt lat="45.87058" lon="5.45133">
        <ele>937.6</ele>
        <time>2021-02-20T14:50:46.000Z</time>
      </trkpt>
      <trkpt lat="45.87059" lon="5.45131">
        <ele>936.6</ele>
        <time>2021-02-20T14:50:47.000Z</time>
      </trkpt>
      <trkpt lat="45.87059" lon="5.45128">
        <ele>935.8</ele>
        <time>2021-02-20T14:50:48.000Z</time>
      </trkpt>
      <trkpt lat="45.87059" lon="5.45124">
        <ele>935</ele>
        <time>2021-02-20T14:50:49.000Z</time>
      </trkpt>
      <trkpt lat="45.87058" lon="5.45119">
        <ele>934.2</ele>
        <time>2021-02-20T14:50:50.000Z</time>
      </trkpt>
      <trkpt lat="45.87058" lon="5.45117">
        <ele>933.4</ele>
        <time>2021-02-20T14:50:51.000Z</time>
      </trkpt>
      <trkpt lat="45.87057" lon="5.45115">
        <ele>932.8</ele>
        <time>2021-02-20T14:50:52.000Z</time>
      </trkpt>
      <trkpt lat="45.87057" lon="5.45113">
        <ele>932.2</ele>
        <time>2021-02-20T14:50:53.000Z</time>
      </trkpt>
      <trkpt lat="45.87056" lon="5.4511">
        <ele>931.2</ele>
        <time>2021-02-20T14:50:54.000Z</time>
      </trkpt>
      <trkpt lat="45.87056" lon="5.45109">
        <ele>931.2</ele>
        <time>2021-02-20T14:50:55.000Z</time>
      </trkpt>
      <trkpt lat="45.87055" lon="5.45108">
        <ele>930.6</ele>
        <time>2021-02-20T14:50:56.000Z</time>
      </trkpt>
      <trkpt lat="45.87055" lon="5.45107">
        <ele>929.6</ele>
        <time>2021-02-20T14:50:57.000Z</time>
      </trkpt>
      <trkpt lat="45.87057" lon="5.451">
        <ele>927.8</ele>
        <time>2021-02-20T14:51:00.000Z</time>
      </trkpt>
      <trkpt lat="45.87059" lon="5.45091">
        <ele>926.2</ele>
        <time>2021-02-20T14:51:03.000Z</time>
      </trkpt>
      <trkpt lat="45.8706" lon="5.45087">
        <ele>925.6</ele>
        <time>2021-02-20T14:51:05.000Z</time>
      </trkpt>
      <trkpt lat="45.87061" lon="5.45085">
        <ele>925.4</ele>
        <time>2021-02-20T14:51:06.000Z</time>
      </trkpt>
      <trkpt lat="45.87062" lon="5.45084">
        <ele>925.2</ele>
        <time>2021-02-20T14:51:07.000Z</time>
      </trkpt>
      <trkpt lat="45.87063" lon="5.45083">
        <ele>925</ele>
        <time>2021-02-20T14:51:08.000Z</time>
      </trkpt>
      <trkpt lat="45.87064" lon="5.45082">
        <ele>924.8</ele>
        <time>2021-02-20T14:51:09.000Z</time>
      </trkpt>
      <trkpt lat="45.87065" lon="5.45081">
        <ele>924.6</ele>
        <time>2021-02-20T14:51:10.000Z</time>
      </trkpt>
      <trkpt lat="45.87066" lon="5.45078">
        <ele>924.2</ele>
        <time>2021-02-20T14:51:11.000Z</time>
      </trkpt>
      <trkpt lat="45.87066" lon="5.45075">
        <ele>923.8</ele>
        <time>2021-02-20T14:51:12.000Z</time>
      </trkpt>
      <trkpt lat="45.87067" lon="5.45073">
        <ele>923.4</ele>
        <time>2021-02-20T14:51:13.000Z</time>
      </trkpt>
      <trkpt lat="45.87067" lon="5.45071">
        <ele>923.2</ele>
        <time>2021-02-20T14:51:14.000Z</time>
      </trkpt>
      <trkpt lat="45.87067" lon="5.45068">
        <ele>922.8</ele>
        <time>2021-02-20T14:51:16.000Z</time>
      </trkpt>
      <trkpt lat="45.87067" lon="5.45065">
        <ele>921.4</ele>
        <time>2021-02-20T14:51:20.000Z</time>
      </trkpt>
      <trkpt lat="45.87067" lon="5.45062">
        <ele>920.4</ele>
        <time>2021-02-20T14:51:21.000Z</time>
      </trkpt>
      <trkpt lat="45.87067" lon="5.45058">
        <ele>919.8</ele>
        <time>2021-02-20T14:51:22.000Z</time>
      </trkpt>
      <trkpt lat="45.87067" lon="5.45055">
        <ele>919.2</ele>
        <time>2021-02-20T14:51:23.000Z</time>
      </trkpt>
      <trkpt lat="45.87067" lon="5.45052">
        <ele>918.4</ele>
        <time>2021-02-20T14:51:24.000Z</time>
      </trkpt>
      <trkpt lat="45.87067" lon="5.4505">
        <ele>918</ele>
        <time>2021-02-20T14:51:25.000Z</time>
      </trkpt>
      <trkpt lat="45.87066" lon="5.45048">
        <ele>917.6</ele>
        <time>2021-02-20T14:51:26.000Z</time>
      </trkpt>
      <trkpt lat="45.87065" lon="5.45046">
        <ele>917.6</ele>
        <time>2021-02-20T14:51:27.000Z</time>
      </trkpt>
      <trkpt lat="45.87065" lon="5.45044">
        <ele>917</ele>
        <time>2021-02-20T14:51:28.000Z</time>
      </trkpt>
      <trkpt lat="45.87064" lon="5.45042">
        <ele>916.8</ele>
        <time>2021-02-20T14:51:29.000Z</time>
      </trkpt>
      <trkpt lat="45.87063" lon="5.45037">
        <ele>915.4</ele>
        <time>2021-02-20T14:51:31.000Z</time>
      </trkpt>
      <trkpt lat="45.87063" lon="5.45036">
        <ele>914.6</ele>
        <time>2021-02-20T14:51:32.000Z</time>
      </trkpt>
      <trkpt lat="45.87064" lon="5.45035">
        <ele>913.8</ele>
        <time>2021-02-20T14:51:33.000Z</time>
      </trkpt>
      <trkpt lat="45.8707" lon="5.45023">
        <ele>909.2</ele>
        <time>2021-02-20T14:52:11.000Z</time>
      </trkpt>
      <trkpt lat="45.87071" lon="5.45023">
        <ele>909</ele>
        <time>2021-02-20T14:52:13.000Z</time>
      </trkpt>
      <trkpt lat="45.87075" lon="5.45025">
        <ele>909</ele>
        <time>2021-02-20T14:52:15.000Z</time>
      </trkpt>
      <trkpt lat="45.87087" lon="5.45031">
        <ele>909</ele>
        <time>2021-02-20T14:52:19.000Z</time>
      </trkpt>
      <trkpt lat="45.8709" lon="5.45032">
        <ele>909.2</ele>
        <time>2021-02-20T14:52:20.000Z</time>
      </trkpt>
      <trkpt lat="45.87094" lon="5.45033">
        <ele>909.2</ele>
        <time>2021-02-20T14:52:21.000Z</time>
      </trkpt>
      <trkpt lat="45.87097" lon="5.45033">
        <ele>909</ele>
        <time>2021-02-20T14:52:22.000Z</time>
      </trkpt>
      <trkpt lat="45.871" lon="5.45033">
        <ele>908.8</ele>
        <time>2021-02-20T14:52:23.000Z</time>
      </trkpt>
      <trkpt lat="45.87105" lon="5.45032">
        <ele>908.2</ele>
        <time>2021-02-20T14:52:25.000Z</time>
      </trkpt>
      <trkpt lat="45.87108" lon="5.45031">
        <ele>907.6</ele>
        <time>2021-02-20T14:52:26.000Z</time>
      </trkpt>
      <trkpt lat="45.87111" lon="5.4503">
        <ele>907</ele>
        <time>2021-02-20T14:52:27.000Z</time>
      </trkpt>
      <trkpt lat="45.87114" lon="5.4503">
        <ele>906.8</ele>
        <time>2021-02-20T14:52:28.000Z</time>
      </trkpt>
      <trkpt lat="45.87116" lon="5.4503">
        <ele>906.2</ele>
        <time>2021-02-20T14:52:29.000Z</time>
      </trkpt>
      <trkpt lat="45.87118" lon="5.4503">
        <ele>905.2</ele>
        <time>2021-02-20T14:52:30.000Z</time>
      </trkpt>
      <trkpt lat="45.87121" lon="5.4503">
        <ele>904</ele>
        <time>2021-02-20T14:52:31.000Z</time>
      </trkpt>
      <trkpt lat="45.87131" lon="5.45029">
        <ele>901.6</ele>
        <time>2021-02-20T14:52:34.000Z</time>
      </trkpt>
      <trkpt lat="45.87143" lon="5.45028">
        <ele>900</ele>
        <time>2021-02-20T14:52:37.000Z</time>
      </trkpt>
      <trkpt lat="45.87147" lon="5.45028">
        <ele>899.4</ele>
        <time>2021-02-20T14:52:38.000Z</time>
      </trkpt>
      <trkpt lat="45.87154" lon="5.45027">
        <ele>898</ele>
        <time>2021-02-20T14:52:40.000Z</time>
      </trkpt>
      <trkpt lat="45.87157" lon="5.45027">
        <ele>897.4</ele>
        <time>2021-02-20T14:52:41.000Z</time>
      </trkpt>
      <trkpt lat="45.87162" lon="5.45025">
        <ele>896.8</ele>
        <time>2021-02-20T14:52:42.000Z</time>
      </trkpt>
      <trkpt lat="45.87165" lon="5.45023">
        <ele>896.4</ele>
        <time>2021-02-20T14:52:43.000Z</time>
      </trkpt>
      <trkpt lat="45.87168" lon="5.45022">
        <ele>895.6</ele>
        <time>2021-02-20T14:52:44.000Z</time>
      </trkpt>
      <trkpt lat="45.87171" lon="5.45021">
        <ele>895</ele>
        <time>2021-02-20T14:52:45.000Z</time>
      </trkpt>
      <trkpt lat="45.87173" lon="5.4502">
        <ele>894.8</ele>
        <time>2021-02-20T14:52:46.000Z</time>
      </trkpt>
      <trkpt lat="45.87192" lon="5.45018">
        <ele>891.8</ele>
        <time>2021-02-20T14:52:58.000Z</time>
      </trkpt>
      <trkpt lat="45.87194" lon="5.45018">
        <ele>891.6</ele>
        <time>2021-02-20T14:52:59.000Z</time>
      </trkpt>
      <trkpt lat="45.87196" lon="5.45017">
        <ele>891.6</ele>
        <time>2021-02-20T14:53:00.000Z</time>
      </trkpt>
      <trkpt lat="45.87199" lon="5.45017">
        <ele>891.4</ele>
        <time>2021-02-20T14:53:02.000Z</time>
      </trkpt>
      <trkpt lat="45.87201" lon="5.45016">
        <ele>891.4</ele>
        <time>2021-02-20T14:53:03.000Z</time>
      </trkpt>
      <trkpt lat="45.87212" lon="5.4501">
        <ele>891.2</ele>
        <time>2021-02-20T14:53:08.000Z</time>
      </trkpt>
      <trkpt lat="45.87214" lon="5.45009">
        <ele>891</ele>
        <time>2021-02-20T14:53:09.000Z</time>
      </trkpt>
      <trkpt lat="45.87227" lon="5.45005">
        <ele>890.8</ele>
        <time>2021-02-20T14:53:13.000Z</time>
      </trkpt>
      <trkpt lat="45.87229" lon="5.45005">
        <ele>890.6</ele>
        <time>2021-02-20T14:53:14.000Z</time>
      </trkpt>
      <trkpt lat="45.87232" lon="5.45004">
        <ele>890.4</ele>
        <time>2021-02-20T14:53:15.000Z</time>
      </trkpt>
      <trkpt lat="45.87247" lon="5.45002">
        <ele>889.6</ele>
        <time>2021-02-20T14:53:20.000Z</time>
      </trkpt>
      <trkpt lat="45.8725" lon="5.45003">
        <ele>889.6</ele>
        <time>2021-02-20T14:53:21.000Z</time>
      </trkpt>
      <trkpt lat="45.87252" lon="5.45003">
        <ele>889.4</ele>
        <time>2021-02-20T14:53:22.000Z</time>
      </trkpt>
      <trkpt lat="45.87254" lon="5.45004">
        <ele>889.4</ele>
        <time>2021-02-20T14:53:23.000Z</time>
      </trkpt>
      <trkpt lat="45.87256" lon="5.45005">
        <ele>889.4</ele>
        <time>2021-02-20T14:53:24.000Z</time>
      </trkpt>
      <trkpt lat="45.87258" lon="5.45005">
        <ele>889.4</ele>
        <time>2021-02-20T14:53:25.000Z</time>
      </trkpt>
      <trkpt lat="45.8726" lon="5.45005">
        <ele>889.6</ele>
        <time>2021-02-20T14:53:26.000Z</time>
      </trkpt>
      <trkpt lat="45.87269" lon="5.45002">
        <ele>889.4</ele>
        <time>2021-02-20T14:53:30.000Z</time>
      </trkpt>
      <trkpt lat="45.87273" lon="5.45001">
        <ele>889.4</ele>
        <time>2021-02-20T14:53:31.000Z</time>
      </trkpt>
      <trkpt lat="45.87283" lon="5.44998">
        <ele>889.4</ele>
        <time>2021-02-20T14:53:33.000Z</time>
      </trkpt>
      <trkpt lat="45.87292" lon="5.44995">
        <ele>889</ele>
        <time>2021-02-20T14:53:35.000Z</time>
      </trkpt>
      <trkpt lat="45.87296" lon="5.44994">
        <ele>889.2</ele>
        <time>2021-02-20T14:53:36.000Z</time>
      </trkpt>
      <trkpt lat="45.87304" lon="5.44992">
        <ele>889</ele>
        <time>2021-02-20T14:53:38.000Z</time>
      </trkpt>
      <trkpt lat="45.87309" lon="5.4499">
        <ele>889.2</ele>
        <time>2021-02-20T14:53:39.000Z</time>
      </trkpt>
      <trkpt lat="45.87314" lon="5.4499">
        <ele>889</ele>
        <time>2021-02-20T14:53:40.000Z</time>
      </trkpt>
      <trkpt lat="45.87319" lon="5.44989">
        <ele>889</ele>
        <time>2021-02-20T14:53:41.000Z</time>
      </trkpt>
      <trkpt lat="45.87323" lon="5.44988">
        <ele>888.8</ele>
        <time>2021-02-20T14:53:42.000Z</time>
      </trkpt>
      <trkpt lat="45.87327" lon="5.44987">
        <ele>888.8</ele>
        <time>2021-02-20T14:53:43.000Z</time>
      </trkpt>
      <trkpt lat="45.87336" lon="5.44983">
        <ele>888.4</ele>
        <time>2021-02-20T14:53:45.000Z</time>
      </trkpt>
      <trkpt lat="45.87344" lon="5.44979">
        <ele>888.2</ele>
        <time>2021-02-20T14:53:47.000Z</time>
      </trkpt>
      <trkpt lat="45.87348" lon="5.44978">
        <ele>888</ele>
        <time>2021-02-20T14:53:48.000Z</time>
      </trkpt>
      <trkpt lat="45.87351" lon="5.44977">
        <ele>888</ele>
        <time>2021-02-20T14:53:49.000Z</time>
      </trkpt>
      <trkpt lat="45.87355" lon="5.44976">
        <ele>888</ele>
        <time>2021-02-20T14:53:50.000Z</time>
      </trkpt>
      <trkpt lat="45.87358" lon="5.44975">
        <ele>888</ele>
        <time>2021-02-20T14:53:51.000Z</time>
      </trkpt>
      <trkpt lat="45.87361" lon="5.44975">
        <ele>888</ele>
        <time>2021-02-20T14:53:52.000Z</time>
      </trkpt>
      <trkpt lat="45.87364" lon="5.44974">
        <ele>888</ele>
        <time>2021-02-20T14:53:53.000Z</time>
      </trkpt>
      <trkpt lat="45.87367" lon="5.44973">
        <ele>888</ele>
        <time>2021-02-20T14:53:54.000Z</time>
      </trkpt>
      <trkpt lat="45.8737" lon="5.44971">
        <ele>888</ele>
        <time>2021-02-20T14:53:55.000Z</time>
      </trkpt>
      <trkpt lat="45.87379" lon="5.44964">
        <ele>888.6</ele>
        <time>2021-02-20T14:53:58.000Z</time>
      </trkpt>
      <trkpt lat="45.87382" lon="5.44962">
        <ele>889</ele>
        <time>2021-02-20T14:53:59.000Z</time>
      </trkpt>
      <trkpt lat="45.87384" lon="5.44961">
        <ele>889.2</ele>
        <time>2021-02-20T14:54:00.000Z</time>
      </trkpt>
      <trkpt lat="45.87386" lon="5.4496">
        <ele>889.6</ele>
        <time>2021-02-20T14:54:01.000Z</time>
      </trkpt>
      <trkpt lat="45.87388" lon="5.44959">
        <ele>890.2</ele>
        <time>2021-02-20T14:54:02.000Z</time>
      </trkpt>
      <trkpt lat="45.8739" lon="5.44958">
        <ele>890.6</ele>
        <time>2021-02-20T14:54:03.000Z</time>
      </trkpt>
      <trkpt lat="45.87392" lon="5.44957">
        <ele>891.2</ele>
        <time>2021-02-20T14:54:04.000Z</time>
      </trkpt>
      <trkpt lat="45.87394" lon="5.44955">
        <ele>891.2</ele>
        <time>2021-02-20T14:54:05.000Z</time>
      </trkpt>
      <trkpt lat="45.87396" lon="5.44953">
        <ele>891.6</ele>
        <time>2021-02-20T14:54:06.000Z</time>
      </trkpt>
      <trkpt lat="45.87399" lon="5.44951">
        <ele>891.6</ele>
        <time>2021-02-20T14:54:07.000Z</time>
      </trkpt>
      <trkpt lat="45.87402" lon="5.44948">
        <ele>891.8</ele>
        <time>2021-02-20T14:54:08.000Z</time>
      </trkpt>
      <trkpt lat="45.87406" lon="5.44947">
        <ele>891.8</ele>
        <time>2021-02-20T14:54:09.000Z</time>
      </trkpt>
      <trkpt lat="45.87409" lon="5.44945">
        <ele>891.8</ele>
        <time>2021-02-20T14:54:10.000Z</time>
      </trkpt>
      <trkpt lat="45.87413" lon="5.44943">
        <ele>891.8</ele>
        <time>2021-02-20T14:54:11.000Z</time>
      </trkpt>
      <trkpt lat="45.87419" lon="5.4494">
        <ele>891.8</ele>
        <time>2021-02-20T14:54:13.000Z</time>
      </trkpt>
      <trkpt lat="45.87423" lon="5.44937">
        <ele>891.8</ele>
        <time>2021-02-20T14:54:14.000Z</time>
      </trkpt>
      <trkpt lat="45.87436" lon="5.44929">
        <ele>890.8</ele>
        <time>2021-02-20T14:54:17.000Z</time>
      </trkpt>
      <trkpt lat="45.87448" lon="5.44922">
        <ele>889.2</ele>
        <time>2021-02-20T14:54:19.000Z</time>
      </trkpt>
      <trkpt lat="45.87454" lon="5.44917">
        <ele>888.4</ele>
        <time>2021-02-20T14:54:20.000Z</time>
      </trkpt>
      <trkpt lat="45.87459" lon="5.44913">
        <ele>887.4</ele>
        <time>2021-02-20T14:54:21.000Z</time>
      </trkpt>
      <trkpt lat="45.87465" lon="5.44909">
        <ele>886.6</ele>
        <time>2021-02-20T14:54:22.000Z</time>
      </trkpt>
      <trkpt lat="45.87478" lon="5.44899">
        <ele>885.4</ele>
        <time>2021-02-20T14:54:24.000Z</time>
      </trkpt>
      <trkpt lat="45.87488" lon="5.44887">
        <ele>884.2</ele>
        <time>2021-02-20T14:54:26.000Z</time>
      </trkpt>
      <trkpt lat="45.87492" lon="5.44881">
        <ele>882.8</ele>
        <time>2021-02-20T14:54:27.000Z</time>
      </trkpt>
      <trkpt lat="45.87496" lon="5.44876">
        <ele>882.2</ele>
        <time>2021-02-20T14:54:28.000Z</time>
      </trkpt>
      <trkpt lat="45.87499" lon="5.4487">
        <ele>881.2</ele>
        <time>2021-02-20T14:54:29.000Z</time>
      </trkpt>
      <trkpt lat="45.87507" lon="5.44857">
        <ele>879.8</ele>
        <time>2021-02-20T14:54:31.000Z</time>
      </trkpt>
      <trkpt lat="45.87515" lon="5.44843">
        <ele>879.2</ele>
        <time>2021-02-20T14:54:33.000Z</time>
      </trkpt>
      <trkpt lat="45.87521" lon="5.44837">
        <ele>879</ele>
        <time>2021-02-20T14:54:34.000Z</time>
      </trkpt>
      <trkpt lat="45.87531" lon="5.44827">
        <ele>877.4</ele>
        <time>2021-02-20T14:54:36.000Z</time>
      </trkpt>
      <trkpt lat="45.87536" lon="5.44822">
        <ele>876.6</ele>
        <time>2021-02-20T14:54:37.000Z</time>
      </trkpt>
      <trkpt lat="45.87541" lon="5.44819">
        <ele>875.8</ele>
        <time>2021-02-20T14:54:38.000Z</time>
      </trkpt>
      <trkpt lat="45.87545" lon="5.44815">
        <ele>875</ele>
        <time>2021-02-20T14:54:39.000Z</time>
      </trkpt>
      <trkpt lat="45.87555" lon="5.44806">
        <ele>874.4</ele>
        <time>2021-02-20T14:54:41.000Z</time>
      </trkpt>
      <trkpt lat="45.8756" lon="5.44803">
        <ele>874</ele>
        <time>2021-02-20T14:54:42.000Z</time>
      </trkpt>
      <trkpt lat="45.87563" lon="5.44799">
        <ele>873</ele>
        <time>2021-02-20T14:54:43.000Z</time>
      </trkpt>
      <trkpt lat="45.87566" lon="5.44794">
        <ele>872.6</ele>
        <time>2021-02-20T14:54:44.000Z</time>
      </trkpt>
      <trkpt lat="45.8757" lon="5.44789">
        <ele>872.6</ele>
        <time>2021-02-20T14:54:45.000Z</time>
      </trkpt>
      <trkpt lat="45.87573" lon="5.44782">
        <ele>872.2</ele>
        <time>2021-02-20T14:54:46.000Z</time>
      </trkpt>
      <trkpt lat="45.87575" lon="5.44775">
        <ele>872</ele>
        <time>2021-02-20T14:54:47.000Z</time>
      </trkpt>
      <trkpt lat="45.87578" lon="5.44766">
        <ele>871.6</ele>
        <time>2021-02-20T14:54:48.000Z</time>
      </trkpt>
      <trkpt lat="45.8758" lon="5.44756">
        <ele>871.2</ele>
        <time>2021-02-20T14:54:49.000Z</time>
      </trkpt>
      <trkpt lat="45.87581" lon="5.44746">
        <ele>870.4</ele>
        <time>2021-02-20T14:54:50.000Z</time>
      </trkpt>
      <trkpt lat="45.87582" lon="5.44738">
        <ele>870</ele>
        <time>2021-02-20T14:54:51.000Z</time>
      </trkpt>
      <trkpt lat="45.87585" lon="5.4473">
        <ele>869.8</ele>
        <time>2021-02-20T14:54:52.000Z</time>
      </trkpt>
      <trkpt lat="45.87588" lon="5.44722">
        <ele>869</ele>
        <time>2021-02-20T14:54:53.000Z</time>
      </trkpt>
      <trkpt lat="45.87593" lon="5.44713">
        <ele>868</ele>
        <time>2021-02-20T14:54:54.000Z</time>
      </trkpt>
      <trkpt lat="45.87598" lon="5.44706">
        <ele>867.2</ele>
        <time>2021-02-20T14:54:55.000Z</time>
      </trkpt>
      <trkpt lat="45.87608" lon="5.4469">
        <ele>866</ele>
        <time>2021-02-20T14:54:57.000Z</time>
      </trkpt>
      <trkpt lat="45.87613" lon="5.44682">
        <ele>865.6</ele>
        <time>2021-02-20T14:54:58.000Z</time>
      </trkpt>
      <trkpt lat="45.87624" lon="5.44664">
        <ele>864.2</ele>
        <time>2021-02-20T14:55:00.000Z</time>
      </trkpt>
      <trkpt lat="45.87633" lon="5.44644">
        <ele>862.8</ele>
        <time>2021-02-20T14:55:02.000Z</time>
      </trkpt>
      <trkpt lat="45.87637" lon="5.44633">
        <ele>861.8</ele>
        <time>2021-02-20T14:55:03.000Z</time>
      </trkpt>
      <trkpt lat="45.87644" lon="5.44612">
        <ele>861</ele>
        <time>2021-02-20T14:55:05.000Z</time>
      </trkpt>
      <trkpt lat="45.87648" lon="5.44601">
        <ele>860</ele>
        <time>2021-02-20T14:55:06.000Z</time>
      </trkpt>
      <trkpt lat="45.87651" lon="5.44591">
        <ele>859.4</ele>
        <time>2021-02-20T14:55:07.000Z</time>
      </trkpt>
      <trkpt lat="45.87653" lon="5.44583">
        <ele>858.4</ele>
        <time>2021-02-20T14:55:08.000Z</time>
      </trkpt>
      <trkpt lat="45.87656" lon="5.44577">
        <ele>857.6</ele>
        <time>2021-02-20T14:55:09.000Z</time>
      </trkpt>
      <trkpt lat="45.87658" lon="5.44573">
        <ele>856.4</ele>
        <time>2021-02-20T14:55:10.000Z</time>
      </trkpt>
      <trkpt lat="45.87658" lon="5.44571">
        <ele>855.6</ele>
        <time>2021-02-20T14:55:11.000Z</time>
      </trkpt>
      <trkpt lat="45.87659" lon="5.4457">
        <ele>855.4</ele>
        <time>2021-02-20T14:55:12.000Z</time>
      </trkpt>
      <trkpt lat="45.87664" lon="5.44562">
        <ele>855.2</ele>
        <time>2021-02-20T14:56:01.000Z</time>
      </trkpt>
      <trkpt lat="45.87664" lon="5.4456">
        <ele>855.4</ele>
        <time>2021-02-20T14:56:02.000Z</time>
      </trkpt>
      <trkpt lat="45.87664" lon="5.44558">
        <ele>855.4</ele>
        <time>2021-02-20T14:56:03.000Z</time>
      </trkpt>
      <trkpt lat="45.87664" lon="5.44546">
        <ele>855.8</ele>
        <time>2021-02-20T14:56:08.000Z</time>
      </trkpt>
      <trkpt lat="45.87665" lon="5.44544">
        <ele>855.8</ele>
        <time>2021-02-20T14:56:09.000Z</time>
      </trkpt>
      <trkpt lat="45.87666" lon="5.44541">
        <ele>855.8</ele>
        <time>2021-02-20T14:56:10.000Z</time>
      </trkpt>
      <trkpt lat="45.87667" lon="5.44539">
        <ele>855.8</ele>
        <time>2021-02-20T14:56:11.000Z</time>
      </trkpt>
      <trkpt lat="45.87668" lon="5.44536">
        <ele>856</ele>
        <time>2021-02-20T14:56:13.000Z</time>
      </trkpt>
      <trkpt lat="45.87669" lon="5.44535">
        <ele>856.2</ele>
        <time>2021-02-20T14:56:14.000Z</time>
      </trkpt>
      <trkpt lat="45.8767" lon="5.44533">
        <ele>856.2</ele>
        <time>2021-02-20T14:56:15.000Z</time>
      </trkpt>
      <trkpt lat="45.87673" lon="5.44527">
        <ele>856.6</ele>
        <time>2021-02-20T14:56:19.000Z</time>
      </trkpt>
      <trkpt lat="45.87673" lon="5.44526">
        <ele>856.6</ele>
        <time>2021-02-20T14:56:20.000Z</time>
      </trkpt>
      <trkpt lat="45.87674" lon="5.44525">
        <ele>856.8</ele>
        <time>2021-02-20T14:56:21.000Z</time>
      </trkpt>
      <trkpt lat="45.87675" lon="5.44524">
        <ele>856.8</ele>
        <time>2021-02-20T14:56:22.000Z</time>
      </trkpt>
      <trkpt lat="45.87675" lon="5.44523">
        <ele>856.8</ele>
        <time>2021-02-20T14:56:23.000Z</time>
      </trkpt>
      <trkpt lat="45.87675" lon="5.44521">
        <ele>857.2</ele>
        <time>2021-02-20T14:56:24.000Z</time>
      </trkpt>
      <trkpt lat="45.87675" lon="5.4452">
        <ele>857.2</ele>
        <time>2021-02-20T14:56:25.000Z</time>
      </trkpt>
      <trkpt lat="45.87676" lon="5.44513">
        <ele>857.2</ele>
        <time>2021-02-20T14:56:29.000Z</time>
      </trkpt>
      <trkpt lat="45.87679" lon="5.44507">
        <ele>857.4</ele>
        <time>2021-02-20T14:56:33.000Z</time>
      </trkpt>
      <trkpt lat="45.87679" lon="5.44506">
        <ele>857.6</ele>
        <time>2021-02-20T14:56:34.000Z</time>
      </trkpt>
      <trkpt lat="45.87679" lon="5.44504">
        <ele>857.6</ele>
        <time>2021-02-20T14:56:35.000Z</time>
      </trkpt>
      <trkpt lat="45.87679" lon="5.44502">
        <ele>857.6</ele>
        <time>2021-02-20T14:56:36.000Z</time>
      </trkpt>
      <trkpt lat="45.87678" lon="5.44498">
        <ele>858</ele>
        <time>2021-02-20T14:56:38.000Z</time>
      </trkpt>
      <trkpt lat="45.87677" lon="5.44496">
        <ele>858.2</ele>
        <time>2021-02-20T14:56:39.000Z</time>
      </trkpt>
      <trkpt lat="45.87678" lon="5.44494">
        <ele>858.4</ele>
        <time>2021-02-20T14:56:40.000Z</time>
      </trkpt>
      <trkpt lat="45.87678" lon="5.44492">
        <ele>858.4</ele>
        <time>2021-02-20T14:56:41.000Z</time>
      </trkpt>
      <trkpt lat="45.87678" lon="5.44491">
        <ele>858.4</ele>
        <time>2021-02-20T14:56:42.000Z</time>
      </trkpt>
      <trkpt lat="45.8768" lon="5.4449">
        <ele>858.6</ele>
        <time>2021-02-20T14:56:45.000Z</time>
      </trkpt>
      <trkpt lat="45.87681" lon="5.44488">
        <ele>858.4</ele>
        <time>2021-02-20T14:56:46.000Z</time>
      </trkpt>
      <trkpt lat="45.87681" lon="5.44487">
        <ele>858.6</ele>
        <time>2021-02-20T14:56:47.000Z</time>
      </trkpt>
      <trkpt lat="45.87682" lon="5.44485">
        <ele>858.6</ele>
        <time>2021-02-20T14:56:48.000Z</time>
      </trkpt>
      <trkpt lat="45.87683" lon="5.44483">
        <ele>858.4</ele>
        <time>2021-02-20T14:56:49.000Z</time>
      </trkpt>
      <trkpt lat="45.87685" lon="5.44478">
        <ele>858.6</ele>
        <time>2021-02-20T14:56:52.000Z</time>
      </trkpt>
      <trkpt lat="45.87685" lon="5.44477">
        <ele>858.6</ele>
        <time>2021-02-20T14:56:53.000Z</time>
      </trkpt>
      <trkpt lat="45.87685" lon="5.44476">
        <ele>858.6</ele>
        <time>2021-02-20T14:56:54.000Z</time>
      </trkpt>
      <trkpt lat="45.87686" lon="5.44476">
        <ele>858.6</ele>
        <time>2021-02-20T14:56:55.000Z</time>
      </trkpt>
      <trkpt lat="45.87687" lon="5.44475">
        <ele>858.6</ele>
        <time>2021-02-20T14:56:56.000Z</time>
      </trkpt>
      <trkpt lat="45.87693" lon="5.44464">
        <ele>858.6</ele>
        <time>2021-02-20T14:57:03.000Z</time>
      </trkpt>
      <trkpt lat="45.87694" lon="5.44456">
        <ele>858.8</ele>
        <time>2021-02-20T14:57:06.000Z</time>
      </trkpt>
      <trkpt lat="45.87697" lon="5.44435">
        <ele>858.8</ele>
        <time>2021-02-20T14:57:12.000Z</time>
      </trkpt>
      <trkpt lat="45.87698" lon="5.44428">
        <ele>859</ele>
        <time>2021-02-20T14:57:14.000Z</time>
      </trkpt>
      <trkpt lat="45.877" lon="5.44421">
        <ele>859</ele>
        <time>2021-02-20T14:57:16.000Z</time>
      </trkpt>
      <trkpt lat="45.87703" lon="5.44409">
        <ele>859.4</ele>
        <time>2021-02-20T14:57:19.000Z</time>
      </trkpt>
      <trkpt lat="45.87707" lon="5.44396">
        <ele>859.8</ele>
        <time>2021-02-20T14:57:22.000Z</time>
      </trkpt>
      <trkpt lat="45.87708" lon="5.44392">
        <ele>859.8</ele>
        <time>2021-02-20T14:57:23.000Z</time>
      </trkpt>
      <trkpt lat="45.87709" lon="5.44389">
        <ele>859.8</ele>
        <time>2021-02-20T14:57:24.000Z</time>
      </trkpt>
      <trkpt lat="45.87709" lon="5.44386">
        <ele>860</ele>
        <time>2021-02-20T14:57:25.000Z</time>
      </trkpt>
      <trkpt lat="45.87709" lon="5.44383">
        <ele>860</ele>
        <time>2021-02-20T14:57:26.000Z</time>
      </trkpt>
      <trkpt lat="45.87715" lon="5.4436">
        <ele>860.2</ele>
        <time>2021-02-20T14:57:31.000Z</time>
      </trkpt>
      <trkpt lat="45.8772" lon="5.44335">
        <ele>860</ele>
        <time>2021-02-20T14:57:35.000Z</time>
      </trkpt>
      <trkpt lat="45.87722" lon="5.44315">
        <ele>859.8</ele>
        <time>2021-02-20T14:57:38.000Z</time>
      </trkpt>
      <trkpt lat="45.87724" lon="5.44308">
        <ele>859.6</ele>
        <time>2021-02-20T14:57:39.000Z</time>
      </trkpt>
      <trkpt lat="45.87727" lon="5.44294">
        <ele>858.8</ele>
        <time>2021-02-20T14:57:41.000Z</time>
      </trkpt>
      <trkpt lat="45.87728" lon="5.44286">
        <ele>858.8</ele>
        <time>2021-02-20T14:57:42.000Z</time>
      </trkpt>
      <trkpt lat="45.8773" lon="5.44279">
        <ele>858.2</ele>
        <time>2021-02-20T14:57:43.000Z</time>
      </trkpt>
      <trkpt lat="45.87731" lon="5.44273">
        <ele>858</ele>
        <time>2021-02-20T14:57:44.000Z</time>
      </trkpt>
      <trkpt lat="45.87732" lon="5.44267">
        <ele>857.8</ele>
        <time>2021-02-20T14:57:45.000Z</time>
      </trkpt>
      <trkpt lat="45.87733" lon="5.44261">
        <ele>857.8</ele>
        <time>2021-02-20T14:57:46.000Z</time>
      </trkpt>
      <trkpt lat="45.87734" lon="5.44255">
        <ele>857.8</ele>
        <time>2021-02-20T14:57:47.000Z</time>
      </trkpt>
      <trkpt lat="45.87735" lon="5.4425">
        <ele>857.8</ele>
        <time>2021-02-20T14:57:48.000Z</time>
      </trkpt>
      <trkpt lat="45.87735" lon="5.44244">
        <ele>857.8</ele>
        <time>2021-02-20T14:57:49.000Z</time>
      </trkpt>
      <trkpt lat="45.87736" lon="5.44239">
        <ele>857.8</ele>
        <time>2021-02-20T14:57:50.000Z</time>
      </trkpt>
      <trkpt lat="45.87736" lon="5.44235">
        <ele>857.8</ele>
        <time>2021-02-20T14:57:51.000Z</time>
      </trkpt>
      <trkpt lat="45.87737" lon="5.44231">
        <ele>857.8</ele>
        <time>2021-02-20T14:57:52.000Z</time>
      </trkpt>
      <trkpt lat="45.87737" lon="5.44227">
        <ele>857.8</ele>
        <time>2021-02-20T14:57:53.000Z</time>
      </trkpt>
      <trkpt lat="45.87737" lon="5.44224">
        <ele>858</ele>
        <time>2021-02-20T14:57:54.000Z</time>
      </trkpt>
      <trkpt lat="45.87738" lon="5.4422">
        <ele>858</ele>
        <time>2021-02-20T14:57:55.000Z</time>
      </trkpt>
      <trkpt lat="45.87739" lon="5.44214">
        <ele>858.2</ele>
        <time>2021-02-20T14:57:57.000Z</time>
      </trkpt>
      <trkpt lat="45.87742" lon="5.44208">
        <ele>858.6</ele>
        <time>2021-02-20T14:57:58.000Z</time>
      </trkpt>
      <trkpt lat="45.87742" lon="5.44206">
        <ele>859</ele>
        <time>2021-02-20T14:57:59.000Z</time>
      </trkpt>
      <trkpt lat="45.87743" lon="5.44203">
        <ele>859.4</ele>
        <time>2021-02-20T14:58:00.000Z</time>
      </trkpt>
      <trkpt lat="45.87743" lon="5.442">
        <ele>859.4</ele>
        <time>2021-02-20T14:58:01.000Z</time>
      </trkpt>
      <trkpt lat="45.87743" lon="5.44198">
        <ele>860.2</ele>
        <time>2021-02-20T14:58:02.000Z</time>
      </trkpt>
      <trkpt lat="45.87744" lon="5.44195">
        <ele>860.8</ele>
        <time>2021-02-20T14:58:03.000Z</time>
      </trkpt>
      <trkpt lat="45.87744" lon="5.44192">
        <ele>861.2</ele>
        <time>2021-02-20T14:58:04.000Z</time>
      </trkpt>
      <trkpt lat="45.87744" lon="5.44189">
        <ele>861.6</ele>
        <time>2021-02-20T14:58:05.000Z</time>
      </trkpt>
      <trkpt lat="45.87743" lon="5.44186">
        <ele>862</ele>
        <time>2021-02-20T14:58:06.000Z</time>
      </trkpt>
      <trkpt lat="45.87743" lon="5.44182">
        <ele>862</ele>
        <time>2021-02-20T14:58:07.000Z</time>
      </trkpt>
      <trkpt lat="45.87742" lon="5.44178">
        <ele>862</ele>
        <time>2021-02-20T14:58:08.000Z</time>
      </trkpt>
      <trkpt lat="45.87741" lon="5.44173">
        <ele>862</ele>
        <time>2021-02-20T14:58:09.000Z</time>
      </trkpt>
      <trkpt lat="45.87739" lon="5.44169">
        <ele>862</ele>
        <time>2021-02-20T14:58:10.000Z</time>
      </trkpt>
      <trkpt lat="45.87738" lon="5.44164">
        <ele>862</ele>
        <time>2021-02-20T14:58:11.000Z</time>
      </trkpt>
      <trkpt lat="45.87736" lon="5.44159">
        <ele>862</ele>
        <time>2021-02-20T14:58:12.000Z</time>
      </trkpt>
      <trkpt lat="45.87738" lon="5.44144">
        <ele>862</ele>
        <time>2021-02-20T14:58:14.000Z</time>
      </trkpt>
      <trkpt lat="45.8774" lon="5.44136">
        <ele>862</ele>
        <time>2021-02-20T14:58:15.000Z</time>
      </trkpt>
      <trkpt lat="45.87741" lon="5.44128">
        <ele>862</ele>
        <time>2021-02-20T14:58:16.000Z</time>
      </trkpt>
      <trkpt lat="45.87741" lon="5.44114">
        <ele>861.8</ele>
        <time>2021-02-20T14:58:18.000Z</time>
      </trkpt>
      <trkpt lat="45.87742" lon="5.44106">
        <ele>861.2</ele>
        <time>2021-02-20T14:58:19.000Z</time>
      </trkpt>
      <trkpt lat="45.87742" lon="5.44099">
        <ele>860.4</ele>
        <time>2021-02-20T14:58:20.000Z</time>
      </trkpt>
      <trkpt lat="45.87742" lon="5.44093">
        <ele>859.4</ele>
        <time>2021-02-20T14:58:21.000Z</time>
      </trkpt>
      <trkpt lat="45.87742" lon="5.44087">
        <ele>858</ele>
        <time>2021-02-20T14:58:22.000Z</time>
      </trkpt>
      <trkpt lat="45.87743" lon="5.4408">
        <ele>857</ele>
        <time>2021-02-20T14:58:23.000Z</time>
      </trkpt>
      <trkpt lat="45.87743" lon="5.44074">
        <ele>856.4</ele>
        <time>2021-02-20T14:58:24.000Z</time>
      </trkpt>
      <trkpt lat="45.87745" lon="5.44061">
        <ele>855.2</ele>
        <time>2021-02-20T14:58:26.000Z</time>
      </trkpt>
      <trkpt lat="45.87747" lon="5.44054">
        <ele>855.2</ele>
        <time>2021-02-20T14:58:27.000Z</time>
      </trkpt>
      <trkpt lat="45.87748" lon="5.44046">
        <ele>855</ele>
        <time>2021-02-20T14:58:28.000Z</time>
      </trkpt>
      <trkpt lat="45.87751" lon="5.44036">
        <ele>854.8</ele>
        <time>2021-02-20T14:58:29.000Z</time>
      </trkpt>
      <trkpt lat="45.87753" lon="5.44029">
        <ele>855</ele>
        <time>2021-02-20T14:58:30.000Z</time>
      </trkpt>
      <trkpt lat="45.87755" lon="5.44023">
        <ele>854.8</ele>
        <time>2021-02-20T14:58:31.000Z</time>
      </trkpt>
      <trkpt lat="45.87757" lon="5.44017">
        <ele>854.8</ele>
        <time>2021-02-20T14:58:32.000Z</time>
      </trkpt>
      <trkpt lat="45.87759" lon="5.44012">
        <ele>854.8</ele>
        <time>2021-02-20T14:58:33.000Z</time>
      </trkpt>
      <trkpt lat="45.87761" lon="5.44009">
        <ele>855</ele>
        <time>2021-02-20T14:58:34.000Z</time>
      </trkpt>
      <trkpt lat="45.87762" lon="5.44005">
        <ele>855</ele>
        <time>2021-02-20T14:58:35.000Z</time>
      </trkpt>
      <trkpt lat="45.87763" lon="5.44001">
        <ele>855</ele>
        <time>2021-02-20T14:58:36.000Z</time>
      </trkpt>
      <trkpt lat="45.87764" lon="5.43997">
        <ele>855</ele>
        <time>2021-02-20T14:58:37.000Z</time>
      </trkpt>
      <trkpt lat="45.87765" lon="5.43995">
        <ele>855.2</ele>
        <time>2021-02-20T14:58:38.000Z</time>
      </trkpt>
      <trkpt lat="45.87766" lon="5.43992">
        <ele>855.4</ele>
        <time>2021-02-20T14:58:39.000Z</time>
      </trkpt>
      <trkpt lat="45.87766" lon="5.4399">
        <ele>855.6</ele>
        <time>2021-02-20T14:58:40.000Z</time>
      </trkpt>
      <trkpt lat="45.87767" lon="5.43988">
        <ele>856</ele>
        <time>2021-02-20T14:58:41.000Z</time>
      </trkpt>
      <trkpt lat="45.87768" lon="5.43987">
        <ele>856.2</ele>
        <time>2021-02-20T14:58:42.000Z</time>
      </trkpt>
      <trkpt lat="45.87769" lon="5.43985">
        <ele>856.8</ele>
        <time>2021-02-20T14:58:43.000Z</time>
      </trkpt>
      <trkpt lat="45.8777" lon="5.43983">
        <ele>857.2</ele>
        <time>2021-02-20T14:58:44.000Z</time>
      </trkpt>
      <trkpt lat="45.87771" lon="5.43981">
        <ele>857.6</ele>
        <time>2021-02-20T14:58:45.000Z</time>
      </trkpt>
      <trkpt lat="45.87772" lon="5.43979">
        <ele>858</ele>
        <time>2021-02-20T14:58:46.000Z</time>
      </trkpt>
      <trkpt lat="45.87773" lon="5.43977">
        <ele>858.6</ele>
        <time>2021-02-20T14:58:47.000Z</time>
      </trkpt>
      <trkpt lat="45.87774" lon="5.43976">
        <ele>859.4</ele>
        <time>2021-02-20T14:58:48.000Z</time>
      </trkpt>
      <trkpt lat="45.87775" lon="5.43975">
        <ele>859.8</ele>
        <time>2021-02-20T14:58:49.000Z</time>
      </trkpt>
      <trkpt lat="45.87775" lon="5.43974">
        <ele>860.2</ele>
        <time>2021-02-20T14:58:50.000Z</time>
      </trkpt>
      <trkpt lat="45.87776" lon="5.43972">
        <ele>860.8</ele>
        <time>2021-02-20T14:58:51.000Z</time>
      </trkpt>
      <trkpt lat="45.87777" lon="5.43971">
        <ele>861</ele>
        <time>2021-02-20T14:58:52.000Z</time>
      </trkpt>
      <trkpt lat="45.87777" lon="5.43969">
        <ele>861.4</ele>
        <time>2021-02-20T14:58:53.000Z</time>
      </trkpt>
      <trkpt lat="45.87778" lon="5.43969">
        <ele>861.6</ele>
        <time>2021-02-20T14:58:54.000Z</time>
      </trkpt>
      <trkpt lat="45.87779" lon="5.43966">
        <ele>862</ele>
        <time>2021-02-20T14:58:57.000Z</time>
      </trkpt>
      <trkpt lat="45.87779" lon="5.43965">
        <ele>862</ele>
        <time>2021-02-20T14:58:58.000Z</time>
      </trkpt>
      <trkpt lat="45.8778" lon="5.43964">
        <ele>862</ele>
        <time>2021-02-20T14:58:59.000Z</time>
      </trkpt>
      <trkpt lat="45.87815" lon="5.43942">
        <ele>870.4</ele>
        <time>2021-02-20T14:59:58.000Z</time>
      </trkpt>
      <trkpt lat="45.87819" lon="5.43939">
        <ele>870.6</ele>
        <time>2021-02-20T15:00:02.000Z</time>
      </trkpt>
      <trkpt lat="45.8782" lon="5.43938">
        <ele>870.8</ele>
        <time>2021-02-20T15:00:04.000Z</time>
      </trkpt>
      <trkpt lat="45.87824" lon="5.43933">
        <ele>871.8</ele>
        <time>2021-02-20T15:00:15.000Z</time>
      </trkpt>
      <trkpt lat="45.87829" lon="5.4393">
        <ele>871.8</ele>
        <time>2021-02-20T15:00:18.000Z</time>
      </trkpt>
      <trkpt lat="45.87831" lon="5.4393">
        <ele>871.8</ele>
        <time>2021-02-20T15:00:19.000Z</time>
      </trkpt>
      <trkpt lat="45.87845" lon="5.43918">
        <ele>871.4</ele>
        <time>2021-02-20T15:00:25.000Z</time>
      </trkpt>
      <trkpt lat="45.87847" lon="5.43914">
        <ele>871.6</ele>
        <time>2021-02-20T15:00:26.000Z</time>
      </trkpt>
      <trkpt lat="45.87849" lon="5.43911">
        <ele>871.2</ele>
        <time>2021-02-20T15:00:27.000Z</time>
      </trkpt>
      <trkpt lat="45.8785" lon="5.43909">
        <ele>871.2</ele>
        <time>2021-02-20T15:00:28.000Z</time>
      </trkpt>
      <trkpt lat="45.87854" lon="5.43904">
        <ele>870.8</ele>
        <time>2021-02-20T15:00:32.000Z</time>
      </trkpt>
      <trkpt lat="45.87855" lon="5.43902">
        <ele>870.6</ele>
        <time>2021-02-20T15:00:33.000Z</time>
      </trkpt>
      <trkpt lat="45.87859" lon="5.43896">
        <ele>870.4</ele>
        <time>2021-02-20T15:00:35.000Z</time>
      </trkpt>
      <trkpt lat="45.87861" lon="5.43892">
        <ele>870.4</ele>
        <time>2021-02-20T15:00:36.000Z</time>
      </trkpt>
      <trkpt lat="45.87864" lon="5.43888">
        <ele>870.6</ele>
        <time>2021-02-20T15:00:37.000Z</time>
      </trkpt>
      <trkpt lat="45.87867" lon="5.43883">
        <ele>870.4</ele>
        <time>2021-02-20T15:00:38.000Z</time>
      </trkpt>
      <trkpt lat="45.87873" lon="5.43873">
        <ele>870.2</ele>
        <time>2021-02-20T15:00:40.000Z</time>
      </trkpt>
      <trkpt lat="45.87876" lon="5.43868">
        <ele>870.2</ele>
        <time>2021-02-20T15:00:41.000Z</time>
      </trkpt>
      <trkpt lat="45.87879" lon="5.43865">
        <ele>869.8</ele>
        <time>2021-02-20T15:00:42.000Z</time>
      </trkpt>
      <trkpt lat="45.87881" lon="5.43863">
        <ele>869</ele>
        <time>2021-02-20T15:00:43.000Z</time>
      </trkpt>
      <trkpt lat="45.87885" lon="5.43861">
        <ele>868.6</ele>
        <time>2021-02-20T15:00:44.000Z</time>
      </trkpt>
      <trkpt lat="45.87888" lon="5.4386">
        <ele>867.8</ele>
        <time>2021-02-20T15:00:45.000Z</time>
      </trkpt>
      <trkpt lat="45.87892" lon="5.43861">
        <ele>867.2</ele>
        <time>2021-02-20T15:00:46.000Z</time>
      </trkpt>
      <trkpt lat="45.87897" lon="5.43863">
        <ele>866.2</ele>
        <time>2021-02-20T15:00:47.000Z</time>
      </trkpt>
      <trkpt lat="45.87901" lon="5.43864">
        <ele>865.4</ele>
        <time>2021-02-20T15:00:48.000Z</time>
      </trkpt>
      <trkpt lat="45.87906" lon="5.43864">
        <ele>864.8</ele>
        <time>2021-02-20T15:00:49.000Z</time>
      </trkpt>
      <trkpt lat="45.8791" lon="5.43864">
        <ele>864.4</ele>
        <time>2021-02-20T15:00:50.000Z</time>
      </trkpt>
      <trkpt lat="45.87913" lon="5.43864">
        <ele>864.4</ele>
        <time>2021-02-20T15:00:51.000Z</time>
      </trkpt>
      <trkpt lat="45.87916" lon="5.43864">
        <ele>863.8</ele>
        <time>2021-02-20T15:00:52.000Z</time>
      </trkpt>
      <trkpt lat="45.87919" lon="5.43864">
        <ele>863.4</ele>
        <time>2021-02-20T15:00:53.000Z</time>
      </trkpt>
      <trkpt lat="45.87922" lon="5.43863">
        <ele>862.8</ele>
        <time>2021-02-20T15:00:54.000Z</time>
      </trkpt>
      <trkpt lat="45.87929" lon="5.43858">
        <ele>861.4</ele>
        <time>2021-02-20T15:00:56.000Z</time>
      </trkpt>
      <trkpt lat="45.87931" lon="5.43855">
        <ele>861</ele>
        <time>2021-02-20T15:00:57.000Z</time>
      </trkpt>
      <trkpt lat="45.87933" lon="5.43853">
        <ele>860.8</ele>
        <time>2021-02-20T15:00:58.000Z</time>
      </trkpt>
      <trkpt lat="45.87934" lon="5.43851">
        <ele>860.4</ele>
        <time>2021-02-20T15:00:59.000Z</time>
      </trkpt>
      <trkpt lat="45.87939" lon="5.43844">
        <ele>856.6</ele>
        <time>2021-02-20T15:01:27.000Z</time>
      </trkpt>
      <trkpt lat="45.8794" lon="5.43838">
        <ele>856.6</ele>
        <time>2021-02-20T15:01:29.000Z</time>
      </trkpt>
      <trkpt lat="45.87941" lon="5.43828">
        <ele>856.4</ele>
        <time>2021-02-20T15:01:32.000Z</time>
      </trkpt>
      <trkpt lat="45.87942" lon="5.43825">
        <ele>856.4</ele>
        <time>2021-02-20T15:01:33.000Z</time>
      </trkpt>
      <trkpt lat="45.87943" lon="5.43822">
        <ele>856.4</ele>
        <time>2021-02-20T15:01:34.000Z</time>
      </trkpt>
      <trkpt lat="45.87943" lon="5.43819">
        <ele>856.4</ele>
        <time>2021-02-20T15:01:35.000Z</time>
      </trkpt>
      <trkpt lat="45.87944" lon="5.43816">
        <ele>856.6</ele>
        <time>2021-02-20T15:01:36.000Z</time>
      </trkpt>
      <trkpt lat="45.87944" lon="5.43813">
        <ele>856.4</ele>
        <time>2021-02-20T15:01:37.000Z</time>
      </trkpt>
      <trkpt lat="45.87945" lon="5.4381">
        <ele>856.6</ele>
        <time>2021-02-20T15:01:38.000Z</time>
      </trkpt>
      <trkpt lat="45.8795" lon="5.438">
        <ele>856.6</ele>
        <time>2021-02-20T15:01:41.000Z</time>
      </trkpt>
      <trkpt lat="45.87952" lon="5.43796">
        <ele>856.6</ele>
        <time>2021-02-20T15:01:42.000Z</time>
      </trkpt>
      <trkpt lat="45.87956" lon="5.43788">
        <ele>856.4</ele>
        <time>2021-02-20T15:01:44.000Z</time>
      </trkpt>
      <trkpt lat="45.87961" lon="5.43779">
        <ele>856.2</ele>
        <time>2021-02-20T15:01:46.000Z</time>
      </trkpt>
      <trkpt lat="45.87967" lon="5.43772">
        <ele>856.2</ele>
        <time>2021-02-20T15:01:48.000Z</time>
      </trkpt>
      <trkpt lat="45.87971" lon="5.43768">
        <ele>856.2</ele>
        <time>2021-02-20T15:01:49.000Z</time>
      </trkpt>
      <trkpt lat="45.87974" lon="5.43765">
        <ele>856.2</ele>
        <time>2021-02-20T15:01:50.000Z</time>
      </trkpt>
      <trkpt lat="45.87977" lon="5.43763">
        <ele>856.2</ele>
        <time>2021-02-20T15:01:51.000Z</time>
      </trkpt>
      <trkpt lat="45.8798" lon="5.4376">
        <ele>856.2</ele>
        <time>2021-02-20T15:01:52.000Z</time>
      </trkpt>
      <trkpt lat="45.87982" lon="5.43757">
        <ele>855.8</ele>
        <time>2021-02-20T15:01:53.000Z</time>
      </trkpt>
      <trkpt lat="45.87984" lon="5.43755">
        <ele>855.8</ele>
        <time>2021-02-20T15:01:54.000Z</time>
      </trkpt>
      <trkpt lat="45.87987" lon="5.43752">
        <ele>855.4</ele>
        <time>2021-02-20T15:01:55.000Z</time>
      </trkpt>
      <trkpt lat="45.87992" lon="5.43744">
        <ele>854.2</ele>
        <time>2021-02-20T15:01:57.000Z</time>
      </trkpt>
      <trkpt lat="45.87999" lon="5.43738">
        <ele>853.4</ele>
        <time>2021-02-20T15:01:59.000Z</time>
      </trkpt>
      <trkpt lat="45.88005" lon="5.43735">
        <ele>852.4</ele>
        <time>2021-02-20T15:02:01.000Z</time>
      </trkpt>
      <trkpt lat="45.88008" lon="5.43735">
        <ele>851.8</ele>
        <time>2021-02-20T15:02:02.000Z</time>
      </trkpt>
      <trkpt lat="45.88013" lon="5.43735">
        <ele>851.8</ele>
        <time>2021-02-20T15:02:03.000Z</time>
      </trkpt>
      <trkpt lat="45.88018" lon="5.43734">
        <ele>851.4</ele>
        <time>2021-02-20T15:02:04.000Z</time>
      </trkpt>
      <trkpt lat="45.88024" lon="5.43732">
        <ele>850.6</ele>
        <time>2021-02-20T15:02:05.000Z</time>
      </trkpt>
      <trkpt lat="45.88029" lon="5.4373">
        <ele>849.8</ele>
        <time>2021-02-20T15:02:06.000Z</time>
      </trkpt>
      <trkpt lat="45.88034" lon="5.43727">
        <ele>848.8</ele>
        <time>2021-02-20T15:02:07.000Z</time>
      </trkpt>
      <trkpt lat="45.88038" lon="5.43724">
        <ele>847.8</ele>
        <time>2021-02-20T15:02:08.000Z</time>
      </trkpt>
      <trkpt lat="45.88049" lon="5.43714">
        <ele>846.6</ele>
        <time>2021-02-20T15:02:10.000Z</time>
      </trkpt>
      <trkpt lat="45.8806" lon="5.43702">
        <ele>845</ele>
        <time>2021-02-20T15:02:12.000Z</time>
      </trkpt>
      <trkpt lat="45.88072" lon="5.43689">
        <ele>843.4</ele>
        <time>2021-02-20T15:02:14.000Z</time>
      </trkpt>
      <trkpt lat="45.88081" lon="5.43674">
        <ele>841.8</ele>
        <time>2021-02-20T15:02:16.000Z</time>
      </trkpt>
      <trkpt lat="45.88083" lon="5.43667">
        <ele>841</ele>
        <time>2021-02-20T15:02:17.000Z</time>
      </trkpt>
      <trkpt lat="45.88084" lon="5.43661">
        <ele>840.2</ele>
        <time>2021-02-20T15:02:18.000Z</time>
      </trkpt>
      <trkpt lat="45.88085" lon="5.43657">
        <ele>839.8</ele>
        <time>2021-02-20T15:02:19.000Z</time>
      </trkpt>
      <trkpt lat="45.88086" lon="5.43653">
        <ele>839.6</ele>
        <time>2021-02-20T15:02:20.000Z</time>
      </trkpt>
      <trkpt lat="45.88088" lon="5.43649">
        <ele>839.4</ele>
        <time>2021-02-20T15:02:21.000Z</time>
      </trkpt>
      <trkpt lat="45.8809" lon="5.43645">
        <ele>839.4</ele>
        <time>2021-02-20T15:02:22.000Z</time>
      </trkpt>
      <trkpt lat="45.88091" lon="5.43642">
        <ele>839.4</ele>
        <time>2021-02-20T15:02:23.000Z</time>
      </trkpt>
      <trkpt lat="45.88093" lon="5.4364">
        <ele>839.4</ele>
        <time>2021-02-20T15:02:24.000Z</time>
      </trkpt>
      <trkpt lat="45.88095" lon="5.43638">
        <ele>839.4</ele>
        <time>2021-02-20T15:02:25.000Z</time>
      </trkpt>
      <trkpt lat="45.88097" lon="5.43635">
        <ele>839.4</ele>
        <time>2021-02-20T15:02:26.000Z</time>
      </trkpt>
      <trkpt lat="45.88101" lon="5.43632">
        <ele>839</ele>
        <time>2021-02-20T15:02:27.000Z</time>
      </trkpt>
      <trkpt lat="45.88104" lon="5.43627">
        <ele>838.8</ele>
        <time>2021-02-20T15:02:28.000Z</time>
      </trkpt>
      <trkpt lat="45.88108" lon="5.43622">
        <ele>838.6</ele>
        <time>2021-02-20T15:02:29.000Z</time>
      </trkpt>
      <trkpt lat="45.88117" lon="5.43609">
        <ele>838.2</ele>
        <time>2021-02-20T15:02:31.000Z</time>
      </trkpt>
      <trkpt lat="45.8812" lon="5.43603">
        <ele>838</ele>
        <time>2021-02-20T15:02:32.000Z</time>
      </trkpt>
      <trkpt lat="45.88124" lon="5.43598">
        <ele>838</ele>
        <time>2021-02-20T15:02:33.000Z</time>
      </trkpt>
      <trkpt lat="45.88126" lon="5.43593">
        <ele>837.8</ele>
        <time>2021-02-20T15:02:34.000Z</time>
      </trkpt>
      <trkpt lat="45.88128" lon="5.43589">
        <ele>838</ele>
        <time>2021-02-20T15:02:35.000Z</time>
      </trkpt>
      <trkpt lat="45.88128" lon="5.43587">
        <ele>838</ele>
        <time>2021-02-20T15:02:36.000Z</time>
      </trkpt>
      <trkpt lat="45.88128" lon="5.43585">
        <ele>837.6</ele>
        <time>2021-02-20T15:02:37.000Z</time>
      </trkpt>
      <trkpt lat="45.88129" lon="5.43583">
        <ele>837.4</ele>
        <time>2021-02-20T15:02:38.000Z</time>
      </trkpt>
      <trkpt lat="45.88128" lon="5.43581">
        <ele>837.2</ele>
        <time>2021-02-20T15:02:39.000Z</time>
      </trkpt>
      <trkpt lat="45.88128" lon="5.43579">
        <ele>836.6</ele>
        <time>2021-02-20T15:02:40.000Z</time>
      </trkpt>
      <trkpt lat="45.8813" lon="5.43577">
        <ele>836</ele>
        <time>2021-02-20T15:02:41.000Z</time>
      </trkpt>
      <trkpt lat="45.88131" lon="5.43574">
        <ele>835.6</ele>
        <time>2021-02-20T15:02:42.000Z</time>
      </trkpt>
      <trkpt lat="45.88133" lon="5.43571">
        <ele>835.4</ele>
        <time>2021-02-20T15:02:43.000Z</time>
      </trkpt>
      <trkpt lat="45.8814" lon="5.43549">
        <ele>834.4</ele>
        <time>2021-02-20T15:02:48.000Z</time>
      </trkpt>
      <trkpt lat="45.88141" lon="5.43544">
        <ele>834.2</ele>
        <time>2021-02-20T15:02:49.000Z</time>
      </trkpt>
      <trkpt lat="45.88142" lon="5.43535">
        <ele>833.2</ele>
        <time>2021-02-20T15:02:51.000Z</time>
      </trkpt>
      <trkpt lat="45.88142" lon="5.43531">
        <ele>833</ele>
        <time>2021-02-20T15:02:52.000Z</time>
      </trkpt>
      <trkpt lat="45.88142" lon="5.43526">
        <ele>832.8</ele>
        <time>2021-02-20T15:02:53.000Z</time>
      </trkpt>
      <trkpt lat="45.88143" lon="5.43516">
        <ele>832.8</ele>
        <time>2021-02-20T15:02:55.000Z</time>
      </trkpt>
      <trkpt lat="45.88144" lon="5.43512">
        <ele>832.6</ele>
        <time>2021-02-20T15:02:56.000Z</time>
      </trkpt>
      <trkpt lat="45.88144" lon="5.43509">
        <ele>832.6</ele>
        <time>2021-02-20T15:02:57.000Z</time>
      </trkpt>
      <trkpt lat="45.88145" lon="5.43506">
        <ele>832.6</ele>
        <time>2021-02-20T15:02:58.000Z</time>
      </trkpt>
      <trkpt lat="45.88145" lon="5.43504">
        <ele>832.6</ele>
        <time>2021-02-20T15:02:59.000Z</time>
      </trkpt>
      <trkpt lat="45.88146" lon="5.43502">
        <ele>832.6</ele>
        <time>2021-02-20T15:03:00.000Z</time>
      </trkpt>
      <trkpt lat="45.88146" lon="5.435">
        <ele>832.6</ele>
        <time>2021-02-20T15:03:01.000Z</time>
      </trkpt>
      <trkpt lat="45.88147" lon="5.43497">
        <ele>832.6</ele>
        <time>2021-02-20T15:03:02.000Z</time>
      </trkpt>
      <trkpt lat="45.88148" lon="5.43496">
        <ele>832.8</ele>
        <time>2021-02-20T15:03:03.000Z</time>
      </trkpt>
      <trkpt lat="45.8815" lon="5.43491">
        <ele>833</ele>
        <time>2021-02-20T15:03:05.000Z</time>
      </trkpt>
      <trkpt lat="45.88151" lon="5.43487">
        <ele>833.4</ele>
        <time>2021-02-20T15:03:07.000Z</time>
      </trkpt>
      <trkpt lat="45.88152" lon="5.43484">
        <ele>833.6</ele>
        <time>2021-02-20T15:03:08.000Z</time>
      </trkpt>
      <trkpt lat="45.88154" lon="5.43475">
        <ele>834</ele>
        <time>2021-02-20T15:03:11.000Z</time>
      </trkpt>
      <trkpt lat="45.88155" lon="5.43473">
        <ele>834.2</ele>
        <time>2021-02-20T15:03:12.000Z</time>
      </trkpt>
      <trkpt lat="45.88156" lon="5.43471">
        <ele>834.4</ele>
        <time>2021-02-20T15:03:13.000Z</time>
      </trkpt>
      <trkpt lat="45.88156" lon="5.43469">
        <ele>835</ele>
        <time>2021-02-20T15:03:14.000Z</time>
      </trkpt>
      <trkpt lat="45.88156" lon="5.43467">
        <ele>835.4</ele>
        <time>2021-02-20T15:03:15.000Z</time>
      </trkpt>
      <trkpt lat="45.88157" lon="5.43465">
        <ele>835.8</ele>
        <time>2021-02-20T15:03:16.000Z</time>
      </trkpt>
      <trkpt lat="45.88157" lon="5.43463">
        <ele>836</ele>
        <time>2021-02-20T15:03:17.000Z</time>
      </trkpt>
      <trkpt lat="45.88157" lon="5.43461">
        <ele>836.2</ele>
        <time>2021-02-20T15:03:18.000Z</time>
      </trkpt>
      <trkpt lat="45.88158" lon="5.43459">
        <ele>836.4</ele>
        <time>2021-02-20T15:03:19.000Z</time>
      </trkpt>
      <trkpt lat="45.88158" lon="5.43458">
        <ele>836.8</ele>
        <time>2021-02-20T15:03:20.000Z</time>
      </trkpt>
      <trkpt lat="45.88158" lon="5.43457">
        <ele>837.2</ele>
        <time>2021-02-20T15:03:21.000Z</time>
      </trkpt>
      <trkpt lat="45.88167" lon="5.43429">
        <ele>843.2</ele>
        <time>2021-02-20T15:04:00.000Z</time>
      </trkpt>
      <trkpt lat="45.88167" lon="5.43428">
        <ele>843.4</ele>
        <time>2021-02-20T15:04:01.000Z</time>
      </trkpt>
      <trkpt lat="45.88168" lon="5.43426">
        <ele>843.4</ele>
        <time>2021-02-20T15:04:02.000Z</time>
      </trkpt>
      <trkpt lat="45.88173" lon="5.43408">
        <ele>846.2</ele>
        <time>2021-02-20T15:04:17.000Z</time>
      </trkpt>
      <trkpt lat="45.88174" lon="5.43407">
        <ele>846.4</ele>
        <time>2021-02-20T15:04:18.000Z</time>
      </trkpt>
      <trkpt lat="45.88174" lon="5.43405">
        <ele>846.4</ele>
        <time>2021-02-20T15:04:19.000Z</time>
      </trkpt>
      <trkpt lat="45.88174" lon="5.43404">
        <ele>846.4</ele>
        <time>2021-02-20T15:04:20.000Z</time>
      </trkpt>
      <trkpt lat="45.88175" lon="5.43402">
        <ele>846.8</ele>
        <time>2021-02-20T15:04:21.000Z</time>
      </trkpt>
      <trkpt lat="45.88175" lon="5.43399">
        <ele>847.4</ele>
        <time>2021-02-20T15:04:24.000Z</time>
      </trkpt>
      <trkpt lat="45.88176" lon="5.43398">
        <ele>847.6</ele>
        <time>2021-02-20T15:04:25.000Z</time>
      </trkpt>
      <trkpt lat="45.88178" lon="5.43384">
        <ele>850</ele>
        <time>2021-02-20T15:04:39.000Z</time>
      </trkpt>
      <trkpt lat="45.88178" lon="5.43382">
        <ele>850.4</ele>
        <time>2021-02-20T15:04:40.000Z</time>
      </trkpt>
      <trkpt lat="45.88179" lon="5.4338">
        <ele>850.6</ele>
        <time>2021-02-20T15:04:41.000Z</time>
      </trkpt>
      <trkpt lat="45.88179" lon="5.43377">
        <ele>850.6</ele>
        <time>2021-02-20T15:04:42.000Z</time>
      </trkpt>
      <trkpt lat="45.88181" lon="5.43374">
        <ele>850.8</ele>
        <time>2021-02-20T15:04:43.000Z</time>
      </trkpt>
      <trkpt lat="45.88182" lon="5.43371">
        <ele>850.8</ele>
        <time>2021-02-20T15:04:44.000Z</time>
      </trkpt>
      <trkpt lat="45.88184" lon="5.43367">
        <ele>850.8</ele>
        <time>2021-02-20T15:04:45.000Z</time>
      </trkpt>
      <trkpt lat="45.88186" lon="5.43365">
        <ele>851</ele>
        <time>2021-02-20T15:04:46.000Z</time>
      </trkpt>
      <trkpt lat="45.88187" lon="5.43362">
        <ele>851</ele>
        <time>2021-02-20T15:04:47.000Z</time>
      </trkpt>
      <trkpt lat="45.88189" lon="5.4336">
        <ele>851</ele>
        <time>2021-02-20T15:04:48.000Z</time>
      </trkpt>
      <trkpt lat="45.8819" lon="5.43357">
        <ele>851</ele>
        <time>2021-02-20T15:04:49.000Z</time>
      </trkpt>
      <trkpt lat="45.88192" lon="5.43355">
        <ele>851.2</ele>
        <time>2021-02-20T15:04:50.000Z</time>
      </trkpt>
      <trkpt lat="45.88193" lon="5.43352">
        <ele>851.6</ele>
        <time>2021-02-20T15:04:51.000Z</time>
      </trkpt>
      <trkpt lat="45.88195" lon="5.43348">
        <ele>851.8</ele>
        <time>2021-02-20T15:04:52.000Z</time>
      </trkpt>
      <trkpt lat="45.88197" lon="5.43345">
        <ele>851.8</ele>
        <time>2021-02-20T15:04:53.000Z</time>
      </trkpt>
      <trkpt lat="45.88198" lon="5.43342">
        <ele>852</ele>
        <time>2021-02-20T15:04:54.000Z</time>
      </trkpt>
      <trkpt lat="45.882" lon="5.43339">
        <ele>851.8</ele>
        <time>2021-02-20T15:04:55.000Z</time>
      </trkpt>
      <trkpt lat="45.88202" lon="5.43335">
        <ele>852</ele>
        <time>2021-02-20T15:04:56.000Z</time>
      </trkpt>
      <trkpt lat="45.88204" lon="5.43332">
        <ele>852.2</ele>
        <time>2021-02-20T15:04:57.000Z</time>
      </trkpt>
      <trkpt lat="45.88206" lon="5.43328">
        <ele>852</ele>
        <time>2021-02-20T15:04:58.000Z</time>
      </trkpt>
      <trkpt lat="45.88208" lon="5.43325">
        <ele>852</ele>
        <time>2021-02-20T15:04:59.000Z</time>
      </trkpt>
      <trkpt lat="45.88214" lon="5.43316">
        <ele>852</ele>
        <time>2021-02-20T15:05:01.000Z</time>
      </trkpt>
      <trkpt lat="45.8822" lon="5.43305">
        <ele>852.2</ele>
        <time>2021-02-20T15:05:03.000Z</time>
      </trkpt>
      <trkpt lat="45.88223" lon="5.433">
        <ele>852.2</ele>
        <time>2021-02-20T15:05:04.000Z</time>
      </trkpt>
      <trkpt lat="45.88226" lon="5.43295">
        <ele>852</ele>
        <time>2021-02-20T15:05:05.000Z</time>
      </trkpt>
      <trkpt lat="45.88231" lon="5.4329">
        <ele>852</ele>
        <time>2021-02-20T15:05:06.000Z</time>
      </trkpt>
      <trkpt lat="45.88235" lon="5.43288">
        <ele>851.8</ele>
        <time>2021-02-20T15:05:07.000Z</time>
      </trkpt>
      <trkpt lat="45.88239" lon="5.43288">
        <ele>851.6</ele>
        <time>2021-02-20T15:05:08.000Z</time>
      </trkpt>
      <trkpt lat="45.88243" lon="5.43288">
        <ele>851.4</ele>
        <time>2021-02-20T15:05:09.000Z</time>
      </trkpt>
      <trkpt lat="45.88247" lon="5.43289">
        <ele>850.8</ele>
        <time>2021-02-20T15:05:10.000Z</time>
      </trkpt>
      <trkpt lat="45.8825" lon="5.43291">
        <ele>850.4</ele>
        <time>2021-02-20T15:05:11.000Z</time>
      </trkpt>
      <trkpt lat="45.88252" lon="5.43294">
        <ele>850</ele>
        <time>2021-02-20T15:05:12.000Z</time>
      </trkpt>
      <trkpt lat="45.88253" lon="5.43298">
        <ele>849.2</ele>
        <time>2021-02-20T15:05:13.000Z</time>
      </trkpt>
      <trkpt lat="45.88255" lon="5.43301">
        <ele>848.6</ele>
        <time>2021-02-20T15:05:14.000Z</time>
      </trkpt>
      <trkpt lat="45.88257" lon="5.43307">
        <ele>847.8</ele>
        <time>2021-02-20T15:05:15.000Z</time>
      </trkpt>
      <trkpt lat="45.88258" lon="5.43313">
        <ele>847.4</ele>
        <time>2021-02-20T15:05:16.000Z</time>
      </trkpt>
      <trkpt lat="45.88261" lon="5.43319">
        <ele>847</ele>
        <time>2021-02-20T15:05:17.000Z</time>
      </trkpt>
      <trkpt lat="45.88266" lon="5.43332">
        <ele>846</ele>
        <time>2021-02-20T15:05:19.000Z</time>
      </trkpt>
      <trkpt lat="45.88268" lon="5.43336">
        <ele>845.4</ele>
        <time>2021-02-20T15:05:20.000Z</time>
      </trkpt>
      <trkpt lat="45.8827" lon="5.4334">
        <ele>845</ele>
        <time>2021-02-20T15:05:21.000Z</time>
      </trkpt>
      <trkpt lat="45.88276" lon="5.43345">
        <ele>843.8</ele>
        <time>2021-02-20T15:05:23.000Z</time>
      </trkpt>
      <trkpt lat="45.88279" lon="5.43347">
        <ele>843.8</ele>
        <time>2021-02-20T15:05:24.000Z</time>
      </trkpt>
      <trkpt lat="45.88284" lon="5.43349">
        <ele>841.6</ele>
        <time>2021-02-20T15:05:25.000Z</time>
      </trkpt>
      <trkpt lat="45.88288" lon="5.43349">
        <ele>840.8</ele>
        <time>2021-02-20T15:05:26.000Z</time>
      </trkpt>
      <trkpt lat="45.88295" lon="5.43347">
        <ele>839.6</ele>
        <time>2021-02-20T15:05:27.000Z</time>
      </trkpt>
      <trkpt lat="45.883" lon="5.43344">
        <ele>838.8</ele>
        <time>2021-02-20T15:05:28.000Z</time>
      </trkpt>
      <trkpt lat="45.88305" lon="5.43341">
        <ele>838.6</ele>
        <time>2021-02-20T15:05:29.000Z</time>
      </trkpt>
      <trkpt lat="45.88309" lon="5.43338">
        <ele>838.2</ele>
        <time>2021-02-20T15:05:30.000Z</time>
      </trkpt>
      <trkpt lat="45.88314" lon="5.43335">
        <ele>837.6</ele>
        <time>2021-02-20T15:05:31.000Z</time>
      </trkpt>
      <trkpt lat="45.88318" lon="5.43331">
        <ele>837.4</ele>
        <time>2021-02-20T15:05:32.000Z</time>
      </trkpt>
      <trkpt lat="45.88323" lon="5.43326">
        <ele>837.2</ele>
        <time>2021-02-20T15:05:33.000Z</time>
      </trkpt>
      <trkpt lat="45.88327" lon="5.43321">
        <ele>836.6</ele>
        <time>2021-02-20T15:05:34.000Z</time>
      </trkpt>
      <trkpt lat="45.88331" lon="5.43316">
        <ele>836</ele>
        <time>2021-02-20T15:05:35.000Z</time>
      </trkpt>
      <trkpt lat="45.88334" lon="5.4331">
        <ele>835.4</ele>
        <time>2021-02-20T15:05:36.000Z</time>
      </trkpt>
      <trkpt lat="45.88337" lon="5.43305">
        <ele>835.2</ele>
        <time>2021-02-20T15:05:37.000Z</time>
      </trkpt>
      <trkpt lat="45.88342" lon="5.43302">
        <ele>834.2</ele>
        <time>2021-02-20T15:05:38.000Z</time>
      </trkpt>
      <trkpt lat="45.88346" lon="5.433">
        <ele>832.6</ele>
        <time>2021-02-20T15:05:39.000Z</time>
      </trkpt>
      <trkpt lat="45.88353" lon="5.43297">
        <ele>831.2</ele>
        <time>2021-02-20T15:05:40.000Z</time>
      </trkpt>
      <trkpt lat="45.88358" lon="5.43292">
        <ele>830</ele>
        <time>2021-02-20T15:05:41.000Z</time>
      </trkpt>
      <trkpt lat="45.88363" lon="5.43288">
        <ele>828.8</ele>
        <time>2021-02-20T15:05:42.000Z</time>
      </trkpt>
      <trkpt lat="45.88368" lon="5.43283">
        <ele>828.8</ele>
        <time>2021-02-20T15:05:43.000Z</time>
      </trkpt>
      <trkpt lat="45.88373" lon="5.43277">
        <ele>827.6</ele>
        <time>2021-02-20T15:05:44.000Z</time>
      </trkpt>
      <trkpt lat="45.88382" lon="5.43266">
        <ele>825</ele>
        <time>2021-02-20T15:05:46.000Z</time>
      </trkpt>
      <trkpt lat="45.88387" lon="5.4326">
        <ele>824</ele>
        <time>2021-02-20T15:05:47.000Z</time>
      </trkpt>
      <trkpt lat="45.88391" lon="5.43254">
        <ele>822.8</ele>
        <time>2021-02-20T15:05:48.000Z</time>
      </trkpt>
      <trkpt lat="45.88394" lon="5.43249">
        <ele>821.2</ele>
        <time>2021-02-20T15:05:49.000Z</time>
      </trkpt>
      <trkpt lat="45.88397" lon="5.43244">
        <ele>820.2</ele>
        <time>2021-02-20T15:05:50.000Z</time>
      </trkpt>
      <trkpt lat="45.88399" lon="5.43239">
        <ele>819.4</ele>
        <time>2021-02-20T15:05:51.000Z</time>
      </trkpt>
      <trkpt lat="45.88403" lon="5.43234">
        <ele>818.6</ele>
        <time>2021-02-20T15:05:52.000Z</time>
      </trkpt>
      <trkpt lat="45.88407" lon="5.4323">
        <ele>818.2</ele>
        <time>2021-02-20T15:05:53.000Z</time>
      </trkpt>
      <trkpt lat="45.88412" lon="5.43219">
        <ele>816.8</ele>
        <time>2021-02-20T15:05:55.000Z</time>
      </trkpt>
      <trkpt lat="45.88414" lon="5.43213">
        <ele>816.2</ele>
        <time>2021-02-20T15:05:56.000Z</time>
      </trkpt>
      <trkpt lat="45.88414" lon="5.43207">
        <ele>814.8</ele>
        <time>2021-02-20T15:05:57.000Z</time>
      </trkpt>
      <trkpt lat="45.88415" lon="5.43201">
        <ele>813.2</ele>
        <time>2021-02-20T15:05:58.000Z</time>
      </trkpt>
      <trkpt lat="45.88416" lon="5.43196">
        <ele>811.8</ele>
        <time>2021-02-20T15:05:59.000Z</time>
      </trkpt>
      <trkpt lat="45.88418" lon="5.43191">
        <ele>810.2</ele>
        <time>2021-02-20T15:06:00.000Z</time>
      </trkpt>
      <trkpt lat="45.8842" lon="5.43185">
        <ele>809.6</ele>
        <time>2021-02-20T15:06:01.000Z</time>
      </trkpt>
      <trkpt lat="45.88422" lon="5.4318">
        <ele>808.2</ele>
        <time>2021-02-20T15:06:02.000Z</time>
      </trkpt>
      <trkpt lat="45.88427" lon="5.43166">
        <ele>807</ele>
        <time>2021-02-20T15:06:04.000Z</time>
      </trkpt>
      <trkpt lat="45.8843" lon="5.4316">
        <ele>805.8</ele>
        <time>2021-02-20T15:06:05.000Z</time>
      </trkpt>
      <trkpt lat="45.88434" lon="5.43153">
        <ele>804</ele>
        <time>2021-02-20T15:06:06.000Z</time>
      </trkpt>
      <trkpt lat="45.88437" lon="5.43145">
        <ele>803.2</ele>
        <time>2021-02-20T15:06:07.000Z</time>
      </trkpt>
      <trkpt lat="45.8844" lon="5.43137">
        <ele>801.8</ele>
        <time>2021-02-20T15:06:08.000Z</time>
      </trkpt>
      <trkpt lat="45.88443" lon="5.4313">
        <ele>800.6</ele>
        <time>2021-02-20T15:06:09.000Z</time>
      </trkpt>
      <trkpt lat="45.88447" lon="5.43123">
        <ele>798.6</ele>
        <time>2021-02-20T15:06:10.000Z</time>
      </trkpt>
      <trkpt lat="45.88451" lon="5.43117">
        <ele>796.6</ele>
        <time>2021-02-20T15:06:11.000Z</time>
      </trkpt>
      <trkpt lat="45.88455" lon="5.43112">
        <ele>795.4</ele>
        <time>2021-02-20T15:06:12.000Z</time>
      </trkpt>
      <trkpt lat="45.8846" lon="5.43108">
        <ele>794.6</ele>
        <time>2021-02-20T15:06:13.000Z</time>
      </trkpt>
      <trkpt lat="45.88465" lon="5.43105">
        <ele>792.8</ele>
        <time>2021-02-20T15:06:14.000Z</time>
      </trkpt>
      <trkpt lat="45.8847" lon="5.43101">
        <ele>791.6</ele>
        <time>2021-02-20T15:06:15.000Z</time>
      </trkpt>
      <trkpt lat="45.88474" lon="5.43093">
        <ele>790.6</ele>
        <time>2021-02-20T15:06:16.000Z</time>
      </trkpt>
      <trkpt lat="45.88476" lon="5.43085">
        <ele>789.2</ele>
        <time>2021-02-20T15:06:17.000Z</time>
      </trkpt>
      <trkpt lat="45.88479" lon="5.43076">
        <ele>788</ele>
        <time>2021-02-20T15:06:18.000Z</time>
      </trkpt>
      <trkpt lat="45.8848" lon="5.43068">
        <ele>787.2</ele>
        <time>2021-02-20T15:06:19.000Z</time>
      </trkpt>
      <trkpt lat="45.88482" lon="5.43061">
        <ele>785.8</ele>
        <time>2021-02-20T15:06:20.000Z</time>
      </trkpt>
      <trkpt lat="45.88482" lon="5.43057">
        <ele>785</ele>
        <time>2021-02-20T15:06:21.000Z</time>
      </trkpt>
      <trkpt lat="45.88483" lon="5.43055">
        <ele>784.8</ele>
        <time>2021-02-20T15:06:22.000Z</time>
      </trkpt>
      <trkpt lat="45.88483" lon="5.43053">
        <ele>784.8</ele>
        <time>2021-02-20T15:06:23.000Z</time>
      </trkpt>
      <trkpt lat="45.88485" lon="5.43049">
        <ele>778.6</ele>
        <time>2021-02-20T15:07:05.000Z</time>
      </trkpt>
      <trkpt lat="45.88483" lon="5.43049">
        <ele>778.4</ele>
        <time>2021-02-20T15:07:06.000Z</time>
      </trkpt>
      <trkpt lat="45.88478" lon="5.4304">
        <ele>778.4</ele>
        <time>2021-02-20T15:07:10.000Z</time>
      </trkpt>
      <trkpt lat="45.88476" lon="5.43037">
        <ele>778.4</ele>
        <time>2021-02-20T15:07:11.000Z</time>
      </trkpt>
      <trkpt lat="45.88465" lon="5.43016">
        <ele>777.8</ele>
        <time>2021-02-20T15:07:17.000Z</time>
      </trkpt>
      <trkpt lat="45.88463" lon="5.43013">
        <ele>777.8</ele>
        <time>2021-02-20T15:07:18.000Z</time>
      </trkpt>
      <trkpt lat="45.88454" lon="5.42998">
        <ele>777.6</ele>
        <time>2021-02-20T15:07:22.000Z</time>
      </trkpt>
      <trkpt lat="45.88448" lon="5.42989">
        <ele>777.6</ele>
        <time>2021-02-20T15:07:24.000Z</time>
      </trkpt>
      <trkpt lat="45.8844" lon="5.42972">
        <ele>777.2</ele>
        <time>2021-02-20T15:07:27.000Z</time>
      </trkpt>
      <trkpt lat="45.88435" lon="5.42965">
        <ele>777.2</ele>
        <time>2021-02-20T15:07:28.000Z</time>
      </trkpt>
      <trkpt lat="45.88431" lon="5.42959">
        <ele>776.8</ele>
        <time>2021-02-20T15:07:29.000Z</time>
      </trkpt>
      <trkpt lat="45.88426" lon="5.42953">
        <ele>776.6</ele>
        <time>2021-02-20T15:07:30.000Z</time>
      </trkpt>
      <trkpt lat="45.88421" lon="5.42947">
        <ele>776.2</ele>
        <time>2021-02-20T15:07:31.000Z</time>
      </trkpt>
      <trkpt lat="45.88406" lon="5.4293">
        <ele>774.6</ele>
        <time>2021-02-20T15:07:34.000Z</time>
      </trkpt>
      <trkpt lat="45.884" lon="5.42925">
        <ele>774.4</ele>
        <time>2021-02-20T15:07:35.000Z</time>
      </trkpt>
      <trkpt lat="45.88396" lon="5.4292">
        <ele>773.8</ele>
        <time>2021-02-20T15:07:36.000Z</time>
      </trkpt>
      <trkpt lat="45.88392" lon="5.42916">
        <ele>773.2</ele>
        <time>2021-02-20T15:07:37.000Z</time>
      </trkpt>
      <trkpt lat="45.8839" lon="5.42913">
        <ele>772.6</ele>
        <time>2021-02-20T15:07:38.000Z</time>
      </trkpt>
      <trkpt lat="45.88391" lon="5.42903">
        <ele>767.6</ele>
        <time>2021-02-20T15:08:09.000Z</time>
      </trkpt>
      <trkpt lat="45.88389" lon="5.429">
        <ele>767.4</ele>
        <time>2021-02-20T15:08:10.000Z</time>
      </trkpt>
      <trkpt lat="45.88387" lon="5.42897">
        <ele>767.4</ele>
        <time>2021-02-20T15:08:11.000Z</time>
      </trkpt>
      <trkpt lat="45.88386" lon="5.42892">
        <ele>767.4</ele>
        <time>2021-02-20T15:08:12.000Z</time>
      </trkpt>
      <trkpt lat="45.88383" lon="5.42886">
        <ele>767.2</ele>
        <time>2021-02-20T15:08:13.000Z</time>
      </trkpt>
      <trkpt lat="45.88381" lon="5.42879">
        <ele>767.2</ele>
        <time>2021-02-20T15:08:14.000Z</time>
      </trkpt>
      <trkpt lat="45.88379" lon="5.42871">
        <ele>766.8</ele>
        <time>2021-02-20T15:08:15.000Z</time>
      </trkpt>
      <trkpt lat="45.8837" lon="5.42851">
        <ele>766.8</ele>
        <time>2021-02-20T15:08:18.000Z</time>
      </trkpt>
      <trkpt lat="45.88359" lon="5.42833">
        <ele>765.6</ele>
        <time>2021-02-20T15:08:21.000Z</time>
      </trkpt>
      <trkpt lat="45.88349" lon="5.42823">
        <ele>765</ele>
        <time>2021-02-20T15:08:23.000Z</time>
      </trkpt>
      <trkpt lat="45.8834" lon="5.42812">
        <ele>763</ele>
        <time>2021-02-20T15:08:25.000Z</time>
      </trkpt>
      <trkpt lat="45.88335" lon="5.42806">
        <ele>762.4</ele>
        <time>2021-02-20T15:08:26.000Z</time>
      </trkpt>
      <trkpt lat="45.88329" lon="5.42801">
        <ele>762.2</ele>
        <time>2021-02-20T15:08:27.000Z</time>
      </trkpt>
      <trkpt lat="45.88323" lon="5.42796">
        <ele>761.6</ele>
        <time>2021-02-20T15:08:28.000Z</time>
      </trkpt>
      <trkpt lat="45.88317" lon="5.4279">
        <ele>761.4</ele>
        <time>2021-02-20T15:08:29.000Z</time>
      </trkpt>
      <trkpt lat="45.8831" lon="5.42786">
        <ele>761.2</ele>
        <time>2021-02-20T15:08:30.000Z</time>
      </trkpt>
      <trkpt lat="45.88303" lon="5.42781">
        <ele>761</ele>
        <time>2021-02-20T15:08:31.000Z</time>
      </trkpt>
      <trkpt lat="45.88296" lon="5.42776">
        <ele>760.2</ele>
        <time>2021-02-20T15:08:32.000Z</time>
      </trkpt>
      <trkpt lat="45.88289" lon="5.42772">
        <ele>759.8</ele>
        <time>2021-02-20T15:08:33.000Z</time>
      </trkpt>
      <trkpt lat="45.88273" lon="5.42765">
        <ele>757.8</ele>
        <time>2021-02-20T15:08:35.000Z</time>
      </trkpt>
      <trkpt lat="45.88264" lon="5.42764">
        <ele>757.4</ele>
        <time>2021-02-20T15:08:36.000Z</time>
      </trkpt>
      <trkpt lat="45.88255" lon="5.42761">
        <ele>756.4</ele>
        <time>2021-02-20T15:08:37.000Z</time>
      </trkpt>
      <trkpt lat="45.88247" lon="5.42759">
        <ele>755.4</ele>
        <time>2021-02-20T15:08:38.000Z</time>
      </trkpt>
      <trkpt lat="45.88229" lon="5.42756">
        <ele>753.8</ele>
        <time>2021-02-20T15:08:40.000Z</time>
      </trkpt>
      <trkpt lat="45.88221" lon="5.42753">
        <ele>752.6</ele>
        <time>2021-02-20T15:08:41.000Z</time>
      </trkpt>
      <trkpt lat="45.88213" lon="5.42749">
        <ele>752.6</ele>
        <time>2021-02-20T15:08:42.000Z</time>
      </trkpt>
      <trkpt lat="45.88197" lon="5.42743">
        <ele>751.2</ele>
        <time>2021-02-20T15:08:44.000Z</time>
      </trkpt>
      <trkpt lat="45.88172" lon="5.42732">
        <ele>749.8</ele>
        <time>2021-02-20T15:08:47.000Z</time>
      </trkpt>
      <trkpt lat="45.88165" lon="5.42729">
        <ele>748.6</ele>
        <time>2021-02-20T15:08:48.000Z</time>
      </trkpt>
      <trkpt lat="45.88158" lon="5.42725">
        <ele>747.8</ele>
        <time>2021-02-20T15:08:49.000Z</time>
      </trkpt>
      <trkpt lat="45.88153" lon="5.4272">
        <ele>747</ele>
        <time>2021-02-20T15:08:50.000Z</time>
      </trkpt>
      <trkpt lat="45.88147" lon="5.42714">
        <ele>745.6</ele>
        <time>2021-02-20T15:08:51.000Z</time>
      </trkpt>
      <trkpt lat="45.88141" lon="5.42707">
        <ele>744.8</ele>
        <time>2021-02-20T15:08:52.000Z</time>
      </trkpt>
      <trkpt lat="45.88128" lon="5.42694">
        <ele>742.2</ele>
        <time>2021-02-20T15:08:54.000Z</time>
      </trkpt>
      <trkpt lat="45.88113" lon="5.42683">
        <ele>741.4</ele>
        <time>2021-02-20T15:08:56.000Z</time>
      </trkpt>
      <trkpt lat="45.88105" lon="5.42678">
        <ele>741</ele>
        <time>2021-02-20T15:08:57.000Z</time>
      </trkpt>
      <trkpt lat="45.88099" lon="5.42673">
        <ele>740.4</ele>
        <time>2021-02-20T15:08:58.000Z</time>
      </trkpt>
      <trkpt lat="45.88092" lon="5.42667">
        <ele>738.8</ele>
        <time>2021-02-20T15:08:59.000Z</time>
      </trkpt>
      <trkpt lat="45.88081" lon="5.42653">
        <ele>736.8</ele>
        <time>2021-02-20T15:09:01.000Z</time>
      </trkpt>
      <trkpt lat="45.88065" lon="5.42633">
        <ele>735</ele>
        <time>2021-02-20T15:09:04.000Z</time>
      </trkpt>
      <trkpt lat="45.88058" lon="5.42629">
        <ele>734</ele>
        <time>2021-02-20T15:09:05.000Z</time>
      </trkpt>
      <trkpt lat="45.88052" lon="5.42628">
        <ele>733.4</ele>
        <time>2021-02-20T15:09:06.000Z</time>
      </trkpt>
      <trkpt lat="45.88045" lon="5.42629">
        <ele>732.8</ele>
        <time>2021-02-20T15:09:07.000Z</time>
      </trkpt>
      <trkpt lat="45.88037" lon="5.42633">
        <ele>732.2</ele>
        <time>2021-02-20T15:09:08.000Z</time>
      </trkpt>
      <trkpt lat="45.8803" lon="5.42637">
        <ele>731</ele>
        <time>2021-02-20T15:09:09.000Z</time>
      </trkpt>
      <trkpt lat="45.88022" lon="5.42641">
        <ele>730.4</ele>
        <time>2021-02-20T15:09:10.000Z</time>
      </trkpt>
      <trkpt lat="45.88015" lon="5.42642">
        <ele>730.2</ele>
        <time>2021-02-20T15:09:11.000Z</time>
      </trkpt>
      <trkpt lat="45.88006" lon="5.42643">
        <ele>729.8</ele>
        <time>2021-02-20T15:09:12.000Z</time>
      </trkpt>
      <trkpt lat="45.87997" lon="5.42643">
        <ele>729.8</ele>
        <time>2021-02-20T15:09:13.000Z</time>
      </trkpt>
      <trkpt lat="45.87989" lon="5.42644">
        <ele>729.4</ele>
        <time>2021-02-20T15:09:14.000Z</time>
      </trkpt>
      <trkpt lat="45.87981" lon="5.42643">
        <ele>728.8</ele>
        <time>2021-02-20T15:09:15.000Z</time>
      </trkpt>
      <trkpt lat="45.87977" lon="5.42641">
        <ele>728.2</ele>
        <time>2021-02-20T15:09:16.000Z</time>
      </trkpt>
      <trkpt lat="45.87973" lon="5.4264">
        <ele>727.6</ele>
        <time>2021-02-20T15:09:17.000Z</time>
      </trkpt>
      <trkpt lat="45.87969" lon="5.42638">
        <ele>727.4</ele>
        <time>2021-02-20T15:09:18.000Z</time>
      </trkpt>
      <trkpt lat="45.87966" lon="5.42637">
        <ele>726.2</ele>
        <time>2021-02-20T15:09:19.000Z</time>
      </trkpt>
      <trkpt lat="45.87962" lon="5.42635">
        <ele>725</ele>
        <time>2021-02-20T15:09:20.000Z</time>
      </trkpt>
      <trkpt lat="45.87959" lon="5.42633">
        <ele>724</ele>
        <time>2021-02-20T15:09:21.000Z</time>
      </trkpt>
      <trkpt lat="45.87955" lon="5.42632">
        <ele>722.8</ele>
        <time>2021-02-20T15:09:22.000Z</time>
      </trkpt>
      <trkpt lat="45.87952" lon="5.42629">
        <ele>722.8</ele>
        <time>2021-02-20T15:09:23.000Z</time>
      </trkpt>
      <trkpt lat="45.87945" lon="5.42622">
        <ele>721.4</ele>
        <time>2021-02-20T15:09:25.000Z</time>
      </trkpt>
      <trkpt lat="45.87941" lon="5.42618">
        <ele>721.2</ele>
        <time>2021-02-20T15:09:26.000Z</time>
      </trkpt>
      <trkpt lat="45.87938" lon="5.42615">
        <ele>721</ele>
        <time>2021-02-20T15:09:27.000Z</time>
      </trkpt>
      <trkpt lat="45.87936" lon="5.42612">
        <ele>720.6</ele>
        <time>2021-02-20T15:09:28.000Z</time>
      </trkpt>
      <trkpt lat="45.87934" lon="5.42609">
        <ele>720.4</ele>
        <time>2021-02-20T15:09:30.000Z</time>
      </trkpt>
      <trkpt lat="45.87933" lon="5.42608">
        <ele>720.2</ele>
        <time>2021-02-20T15:09:31.000Z</time>
      </trkpt>
      <trkpt lat="45.87932" lon="5.42608">
        <ele>719.8</ele>
        <time>2021-02-20T15:09:32.000Z</time>
      </trkpt>
      <trkpt lat="45.87931" lon="5.42609">
        <ele>719.2</ele>
        <time>2021-02-20T15:09:33.000Z</time>
      </trkpt>
      <trkpt lat="45.87931" lon="5.4261">
        <ele>718.6</ele>
        <time>2021-02-20T15:09:34.000Z</time>
      </trkpt>
      <trkpt lat="45.87932" lon="5.4261">
        <ele>718</ele>
        <time>2021-02-20T15:09:35.000Z</time>
      </trkpt>
      <trkpt lat="45.87933" lon="5.42609">
        <ele>717.6</ele>
        <time>2021-02-20T15:09:37.000Z</time>
      </trkpt>
      <trkpt lat="45.87934" lon="5.42609">
        <ele>717.6</ele>
        <time>2021-02-20T15:09:39.000Z</time>
      </trkpt>
      <trkpt lat="45.87934" lon="5.4261">
        <ele>717.6</ele>
        <time>2021-02-20T15:09:40.000Z</time>
      </trkpt>
      <trkpt lat="45.87937" lon="5.42612">
        <ele>717.6</ele>
        <time>2021-02-20T15:09:44.000Z</time>
      </trkpt>
      <trkpt lat="45.87937" lon="5.42613">
        <ele>717.6</ele>
        <time>2021-02-20T15:09:45.000Z</time>
      </trkpt>
      <trkpt lat="45.87935" lon="5.42614">
        <ele>717.6</ele>
        <time>2021-02-20T15:09:46.000Z</time>
      </trkpt>
      <trkpt lat="45.87933" lon="5.42614">
        <ele>717.6</ele>
        <time>2021-02-20T15:09:47.000Z</time>
      </trkpt>
      <trkpt lat="45.8793" lon="5.42615">
        <ele>717.6</ele>
        <time>2021-02-20T15:09:48.000Z</time>
      </trkpt>
      <trkpt lat="45.87926" lon="5.42616">
        <ele>717.4</ele>
        <time>2021-02-20T15:09:49.000Z</time>
      </trkpt>
      <trkpt lat="45.87918" lon="5.42614">
        <ele>717.6</ele>
        <time>2021-02-20T15:09:51.000Z</time>
      </trkpt>
      <trkpt lat="45.87914" lon="5.42611">
        <ele>717.4</ele>
        <time>2021-02-20T15:09:52.000Z</time>
      </trkpt>
      <trkpt lat="45.8791" lon="5.42609">
        <ele>717.6</ele>
        <time>2021-02-20T15:09:53.000Z</time>
      </trkpt>
      <trkpt lat="45.87906" lon="5.42606">
        <ele>717.4</ele>
        <time>2021-02-20T15:09:54.000Z</time>
      </trkpt>
      <trkpt lat="45.87903" lon="5.42604">
        <ele>717</ele>
        <time>2021-02-20T15:09:55.000Z</time>
      </trkpt>
      <trkpt lat="45.879" lon="5.42601">
        <ele>716.8</ele>
        <time>2021-02-20T15:09:56.000Z</time>
      </trkpt>
      <trkpt lat="45.87897" lon="5.426">
        <ele>716</ele>
        <time>2021-02-20T15:09:57.000Z</time>
      </trkpt>
      <trkpt lat="45.87893" lon="5.42598">
        <ele>714.8</ele>
        <time>2021-02-20T15:09:58.000Z</time>
      </trkpt>
      <trkpt lat="45.87888" lon="5.42597">
        <ele>714</ele>
        <time>2021-02-20T15:09:59.000Z</time>
      </trkpt>
      <trkpt lat="45.87879" lon="5.42595">
        <ele>711.8</ele>
        <time>2021-02-20T15:10:01.000Z</time>
      </trkpt>
      <trkpt lat="45.87875" lon="5.42596">
        <ele>711.2</ele>
        <time>2021-02-20T15:10:02.000Z</time>
      </trkpt>
      <trkpt lat="45.87867" lon="5.42598">
        <ele>710.6</ele>
        <time>2021-02-20T15:10:04.000Z</time>
      </trkpt>
      <trkpt lat="45.87863" lon="5.42598">
        <ele>710</ele>
        <time>2021-02-20T15:10:05.000Z</time>
      </trkpt>
      <trkpt lat="45.8786" lon="5.42598">
        <ele>709.8</ele>
        <time>2021-02-20T15:10:06.000Z</time>
      </trkpt>
      <trkpt lat="45.87857" lon="5.42598">
        <ele>709.4</ele>
        <time>2021-02-20T15:10:07.000Z</time>
      </trkpt>
      <trkpt lat="45.87853" lon="5.42598">
        <ele>708.6</ele>
        <time>2021-02-20T15:10:08.000Z</time>
      </trkpt>
      <trkpt lat="45.87848" lon="5.42596">
        <ele>707.4</ele>
        <time>2021-02-20T15:10:09.000Z</time>
      </trkpt>
      <trkpt lat="45.87843" lon="5.42594">
        <ele>706.8</ele>
        <time>2021-02-20T15:10:10.000Z</time>
      </trkpt>
      <trkpt lat="45.87835" lon="5.42591">
        <ele>705</ele>
        <time>2021-02-20T15:10:12.000Z</time>
      </trkpt>
      <trkpt lat="45.87831" lon="5.4259">
        <ele>704</ele>
        <time>2021-02-20T15:10:13.000Z</time>
      </trkpt>
      <trkpt lat="45.87827" lon="5.4259">
        <ele>703</ele>
        <time>2021-02-20T15:10:14.000Z</time>
      </trkpt>
      <trkpt lat="45.87823" lon="5.42589">
        <ele>702</ele>
        <time>2021-02-20T15:10:15.000Z</time>
      </trkpt>
      <trkpt lat="45.87815" lon="5.42585">
        <ele>700.2</ele>
        <time>2021-02-20T15:10:17.000Z</time>
      </trkpt>
      <trkpt lat="45.8781" lon="5.42582">
        <ele>699.4</ele>
        <time>2021-02-20T15:10:18.000Z</time>
      </trkpt>
      <trkpt lat="45.87807" lon="5.42579">
        <ele>698.4</ele>
        <time>2021-02-20T15:10:19.000Z</time>
      </trkpt>
      <trkpt lat="45.87803" lon="5.42575">
        <ele>697.6</ele>
        <time>2021-02-20T15:10:20.000Z</time>
      </trkpt>
      <trkpt lat="45.87795" lon="5.4257">
        <ele>697</ele>
        <time>2021-02-20T15:10:22.000Z</time>
      </trkpt>
      <trkpt lat="45.87791" lon="5.42567">
        <ele>696.4</ele>
        <time>2021-02-20T15:10:23.000Z</time>
      </trkpt>
      <trkpt lat="45.87786" lon="5.42564">
        <ele>694.6</ele>
        <time>2021-02-20T15:10:24.000Z</time>
      </trkpt>
      <trkpt lat="45.87777" lon="5.42557">
        <ele>693.6</ele>
        <time>2021-02-20T15:10:26.000Z</time>
      </trkpt>
      <trkpt lat="45.87773" lon="5.42554">
        <ele>693.2</ele>
        <time>2021-02-20T15:10:27.000Z</time>
      </trkpt>
      <trkpt lat="45.87765" lon="5.42549">
        <ele>691</ele>
        <time>2021-02-20T15:10:29.000Z</time>
      </trkpt>
      <trkpt lat="45.87762" lon="5.42546">
        <ele>690.2</ele>
        <time>2021-02-20T15:10:30.000Z</time>
      </trkpt>
      <trkpt lat="45.87749" lon="5.42541">
        <ele>686.8</ele>
        <time>2021-02-20T15:10:33.000Z</time>
      </trkpt>
      <trkpt lat="45.87745" lon="5.42539">
        <ele>685.8</ele>
        <time>2021-02-20T15:10:34.000Z</time>
      </trkpt>
      <trkpt lat="45.87735" lon="5.42533">
        <ele>683.4</ele>
        <time>2021-02-20T15:10:36.000Z</time>
      </trkpt>
      <trkpt lat="45.8773" lon="5.42532">
        <ele>682.8</ele>
        <time>2021-02-20T15:10:37.000Z</time>
      </trkpt>
      <trkpt lat="45.87726" lon="5.4253">
        <ele>681.2</ele>
        <time>2021-02-20T15:10:38.000Z</time>
      </trkpt>
      <trkpt lat="45.87721" lon="5.42528">
        <ele>679.8</ele>
        <time>2021-02-20T15:10:39.000Z</time>
      </trkpt>
      <trkpt lat="45.87718" lon="5.42525">
        <ele>678.6</ele>
        <time>2021-02-20T15:10:40.000Z</time>
      </trkpt>
      <trkpt lat="45.87713" lon="5.42522">
        <ele>678.2</ele>
        <time>2021-02-20T15:10:41.000Z</time>
      </trkpt>
      <trkpt lat="45.87704" lon="5.42518">
        <ele>676.4</ele>
        <time>2021-02-20T15:10:43.000Z</time>
      </trkpt>
      <trkpt lat="45.87699" lon="5.42517">
        <ele>675.4</ele>
        <time>2021-02-20T15:10:44.000Z</time>
      </trkpt>
      <trkpt lat="45.87695" lon="5.42515">
        <ele>675.4</ele>
        <time>2021-02-20T15:10:45.000Z</time>
      </trkpt>
      <trkpt lat="45.87691" lon="5.42513">
        <ele>674.8</ele>
        <time>2021-02-20T15:10:46.000Z</time>
      </trkpt>
      <trkpt lat="45.87686" lon="5.42513">
        <ele>674.4</ele>
        <time>2021-02-20T15:10:47.000Z</time>
      </trkpt>
      <trkpt lat="45.87681" lon="5.42513">
        <ele>674</ele>
        <time>2021-02-20T15:10:48.000Z</time>
      </trkpt>
      <trkpt lat="45.87676" lon="5.42512">
        <ele>672.6</ele>
        <time>2021-02-20T15:10:49.000Z</time>
      </trkpt>
      <trkpt lat="45.87667" lon="5.42511">
        <ele>670.6</ele>
        <time>2021-02-20T15:10:51.000Z</time>
      </trkpt>
      <trkpt lat="45.87663" lon="5.4251">
        <ele>669.8</ele>
        <time>2021-02-20T15:10:52.000Z</time>
      </trkpt>
      <trkpt lat="45.87658" lon="5.42511">
        <ele>668.6</ele>
        <time>2021-02-20T15:10:53.000Z</time>
      </trkpt>
      <trkpt lat="45.87654" lon="5.42509">
        <ele>667.8</ele>
        <time>2021-02-20T15:10:54.000Z</time>
      </trkpt>
      <trkpt lat="45.87651" lon="5.42507">
        <ele>667.2</ele>
        <time>2021-02-20T15:10:55.000Z</time>
      </trkpt>
      <trkpt lat="45.87649" lon="5.42504">
        <ele>666</ele>
        <time>2021-02-20T15:10:56.000Z</time>
      </trkpt>
      <trkpt lat="45.87647" lon="5.42458">
        <ele>658.8</ele>
        <time>2021-02-20T15:12:59.000Z</time>
      </trkpt>
      <trkpt lat="45.87648" lon="5.42457">
        <ele>658.8</ele>
        <time>2021-02-20T15:13:00.000Z</time>
      </trkpt>
      <trkpt lat="45.8765" lon="5.42454">
        <ele>658.8</ele>
        <time>2021-02-20T15:13:01.000Z</time>
      </trkpt>
      <trkpt lat="45.87651" lon="5.42451">
        <ele>658.8</ele>
        <time>2021-02-20T15:13:02.000Z</time>
      </trkpt>
      <trkpt lat="45.87654" lon="5.42446">
        <ele>658.8</ele>
        <time>2021-02-20T15:13:03.000Z</time>
      </trkpt>
      <trkpt lat="45.8766" lon="5.42437">
        <ele>658.6</ele>
        <time>2021-02-20T15:13:06.000Z</time>
      </trkpt>
      <trkpt lat="45.87662" lon="5.42433">
        <ele>658.6</ele>
        <time>2021-02-20T15:13:07.000Z</time>
      </trkpt>
      <trkpt lat="45.87665" lon="5.4243">
        <ele>658.6</ele>
        <time>2021-02-20T15:13:08.000Z</time>
      </trkpt>
      <trkpt lat="45.87668" lon="5.42427">
        <ele>658.2</ele>
        <time>2021-02-20T15:13:09.000Z</time>
      </trkpt>
      <trkpt lat="45.87674" lon="5.4242">
        <ele>656.8</ele>
        <time>2021-02-20T15:13:11.000Z</time>
      </trkpt>
      <trkpt lat="45.87681" lon="5.42413">
        <ele>655.2</ele>
        <time>2021-02-20T15:13:13.000Z</time>
      </trkpt>
      <trkpt lat="45.87685" lon="5.4241">
        <ele>654.4</ele>
        <time>2021-02-20T15:13:14.000Z</time>
      </trkpt>
      <trkpt lat="45.87692" lon="5.42404">
        <ele>653.2</ele>
        <time>2021-02-20T15:13:16.000Z</time>
      </trkpt>
      <trkpt lat="45.87695" lon="5.424">
        <ele>652.6</ele>
        <time>2021-02-20T15:13:17.000Z</time>
      </trkpt>
      <trkpt lat="45.87698" lon="5.42397">
        <ele>651.6</ele>
        <time>2021-02-20T15:13:18.000Z</time>
      </trkpt>
      <trkpt lat="45.87701" lon="5.42394">
        <ele>651.2</ele>
        <time>2021-02-20T15:13:19.000Z</time>
      </trkpt>
      <trkpt lat="45.87707" lon="5.42388">
        <ele>648.4</ele>
        <time>2021-02-20T15:13:21.000Z</time>
      </trkpt>
      <trkpt lat="45.87712" lon="5.42387">
        <ele>647.2</ele>
        <time>2021-02-20T15:13:22.000Z</time>
      </trkpt>
      <trkpt lat="45.87717" lon="5.42387">
        <ele>646.6</ele>
        <time>2021-02-20T15:13:23.000Z</time>
      </trkpt>
      <trkpt lat="45.87721" lon="5.42387">
        <ele>646.6</ele>
        <time>2021-02-20T15:13:24.000Z</time>
      </trkpt>
      <trkpt lat="45.87725" lon="5.42385">
        <ele>646.2</ele>
        <time>2021-02-20T15:13:25.000Z</time>
      </trkpt>
      <trkpt lat="45.87729" lon="5.42383">
        <ele>645.2</ele>
        <time>2021-02-20T15:13:26.000Z</time>
      </trkpt>
      <trkpt lat="45.87734" lon="5.42384">
        <ele>644</ele>
        <time>2021-02-20T15:13:27.000Z</time>
      </trkpt>
      <trkpt lat="45.87739" lon="5.42385">
        <ele>643</ele>
        <time>2021-02-20T15:13:28.000Z</time>
      </trkpt>
      <trkpt lat="45.87744" lon="5.42386">
        <ele>642.2</ele>
        <time>2021-02-20T15:13:29.000Z</time>
      </trkpt>
      <trkpt lat="45.87748" lon="5.42386">
        <ele>642</ele>
        <time>2021-02-20T15:13:30.000Z</time>
      </trkpt>
      <trkpt lat="45.87753" lon="5.42386">
        <ele>640.4</ele>
        <time>2021-02-20T15:13:31.000Z</time>
      </trkpt>
      <trkpt lat="45.87757" lon="5.42388">
        <ele>639.4</ele>
        <time>2021-02-20T15:13:32.000Z</time>
      </trkpt>
      <trkpt lat="45.87762" lon="5.42389">
        <ele>638</ele>
        <time>2021-02-20T15:13:33.000Z</time>
      </trkpt>
      <trkpt lat="45.8777" lon="5.42386">
        <ele>637</ele>
        <time>2021-02-20T15:13:35.000Z</time>
      </trkpt>
      <trkpt lat="45.87774" lon="5.42381">
        <ele>635.8</ele>
        <time>2021-02-20T15:13:36.000Z</time>
      </trkpt>
      <trkpt lat="45.87777" lon="5.42377">
        <ele>634.8</ele>
        <time>2021-02-20T15:13:37.000Z</time>
      </trkpt>
      <trkpt lat="45.87779" lon="5.42371">
        <ele>633.4</ele>
        <time>2021-02-20T15:13:38.000Z</time>
      </trkpt>
      <trkpt lat="45.8778" lon="5.42366">
        <ele>632.2</ele>
        <time>2021-02-20T15:13:39.000Z</time>
      </trkpt>
      <trkpt lat="45.8778" lon="5.42361">
        <ele>631.4</ele>
        <time>2021-02-20T15:13:40.000Z</time>
      </trkpt>
      <trkpt lat="45.87781" lon="5.42357">
        <ele>631</ele>
        <time>2021-02-20T15:13:41.000Z</time>
      </trkpt>
      <trkpt lat="45.87781" lon="5.42352">
        <ele>630.6</ele>
        <time>2021-02-20T15:13:42.000Z</time>
      </trkpt>
      <trkpt lat="45.87782" lon="5.42346">
        <ele>630.2</ele>
        <time>2021-02-20T15:13:43.000Z</time>
      </trkpt>
      <trkpt lat="45.87785" lon="5.42339">
        <ele>630.2</ele>
        <time>2021-02-20T15:13:44.000Z</time>
      </trkpt>
      <trkpt lat="45.87786" lon="5.42333">
        <ele>629.6</ele>
        <time>2021-02-20T15:13:45.000Z</time>
      </trkpt>
      <trkpt lat="45.87789" lon="5.42328">
        <ele>628.4</ele>
        <time>2021-02-20T15:13:46.000Z</time>
      </trkpt>
      <trkpt lat="45.87791" lon="5.42322">
        <ele>627</ele>
        <time>2021-02-20T15:13:47.000Z</time>
      </trkpt>
      <trkpt lat="45.87794" lon="5.42317">
        <ele>625.8</ele>
        <time>2021-02-20T15:13:48.000Z</time>
      </trkpt>
      <trkpt lat="45.87798" lon="5.4231">
        <ele>624.6</ele>
        <time>2021-02-20T15:13:49.000Z</time>
      </trkpt>
      <trkpt lat="45.87801" lon="5.42303">
        <ele>623.6</ele>
        <time>2021-02-20T15:13:50.000Z</time>
      </trkpt>
      <trkpt lat="45.8781" lon="5.42284">
        <ele>622</ele>
        <time>2021-02-20T15:13:53.000Z</time>
      </trkpt>
      <trkpt lat="45.87811" lon="5.42277">
        <ele>621.6</ele>
        <time>2021-02-20T15:13:54.000Z</time>
      </trkpt>
      <trkpt lat="45.87812" lon="5.4227">
        <ele>621.4</ele>
        <time>2021-02-20T15:13:55.000Z</time>
      </trkpt>
      <trkpt lat="45.87811" lon="5.42264">
        <ele>621</ele>
        <time>2021-02-20T15:13:56.000Z</time>
      </trkpt>
      <trkpt lat="45.87811" lon="5.42257">
        <ele>620.2</ele>
        <time>2021-02-20T15:13:57.000Z</time>
      </trkpt>
      <trkpt lat="45.87811" lon="5.42248">
        <ele>619.2</ele>
        <time>2021-02-20T15:13:58.000Z</time>
      </trkpt>
      <trkpt lat="45.87812" lon="5.42238">
        <ele>618.4</ele>
        <time>2021-02-20T15:13:59.000Z</time>
      </trkpt>
      <trkpt lat="45.87813" lon="5.42228">
        <ele>617.8</ele>
        <time>2021-02-20T15:14:00.000Z</time>
      </trkpt>
      <trkpt lat="45.87813" lon="5.42207">
        <ele>617</ele>
        <time>2021-02-20T15:14:02.000Z</time>
      </trkpt>
      <trkpt lat="45.87812" lon="5.42184">
        <ele>615.2</ele>
        <time>2021-02-20T15:14:04.000Z</time>
      </trkpt>
      <trkpt lat="45.87811" lon="5.42172">
        <ele>614</ele>
        <time>2021-02-20T15:14:05.000Z</time>
      </trkpt>
      <trkpt lat="45.87812" lon="5.42162">
        <ele>614</ele>
        <time>2021-02-20T15:14:06.000Z</time>
      </trkpt>
      <trkpt lat="45.87812" lon="5.42152">
        <ele>613.2</ele>
        <time>2021-02-20T15:14:07.000Z</time>
      </trkpt>
      <trkpt lat="45.87811" lon="5.42141">
        <ele>612.2</ele>
        <time>2021-02-20T15:14:08.000Z</time>
      </trkpt>
      <trkpt lat="45.8781" lon="5.42132">
        <ele>611.4</ele>
        <time>2021-02-20T15:14:09.000Z</time>
      </trkpt>
      <trkpt lat="45.87808" lon="5.42122">
        <ele>610.6</ele>
        <time>2021-02-20T15:14:10.000Z</time>
      </trkpt>
      <trkpt lat="45.87806" lon="5.42113">
        <ele>610.2</ele>
        <time>2021-02-20T15:14:11.000Z</time>
      </trkpt>
      <trkpt lat="45.87802" lon="5.42104">
        <ele>609</ele>
        <time>2021-02-20T15:14:12.000Z</time>
      </trkpt>
      <trkpt lat="45.87797" lon="5.42096">
        <ele>608.6</ele>
        <time>2021-02-20T15:14:13.000Z</time>
      </trkpt>
      <trkpt lat="45.87793" lon="5.42089">
        <ele>608</ele>
        <time>2021-02-20T15:14:14.000Z</time>
      </trkpt>
      <trkpt lat="45.87786" lon="5.42083">
        <ele>607.2</ele>
        <time>2021-02-20T15:14:15.000Z</time>
      </trkpt>
      <trkpt lat="45.87779" lon="5.42078">
        <ele>606.8</ele>
        <time>2021-02-20T15:14:16.000Z</time>
      </trkpt>
      <trkpt lat="45.8777" lon="5.42074">
        <ele>606.8</ele>
        <time>2021-02-20T15:14:17.000Z</time>
      </trkpt>
      <trkpt lat="45.87762" lon="5.42071">
        <ele>606.6</ele>
        <time>2021-02-20T15:14:18.000Z</time>
      </trkpt>
      <trkpt lat="45.87753" lon="5.4207">
        <ele>605.6</ele>
        <time>2021-02-20T15:14:19.000Z</time>
      </trkpt>
      <trkpt lat="45.87745" lon="5.42069">
        <ele>604.6</ele>
        <time>2021-02-20T15:14:20.000Z</time>
      </trkpt>
      <trkpt lat="45.87738" lon="5.42069">
        <ele>603.8</ele>
        <time>2021-02-20T15:14:21.000Z</time>
      </trkpt>
      <trkpt lat="45.87732" lon="5.42068">
        <ele>602.8</ele>
        <time>2021-02-20T15:14:22.000Z</time>
      </trkpt>
      <trkpt lat="45.87727" lon="5.42068">
        <ele>601.8</ele>
        <time>2021-02-20T15:14:23.000Z</time>
      </trkpt>
      <trkpt lat="45.87722" lon="5.42067">
        <ele>601</ele>
        <time>2021-02-20T15:14:24.000Z</time>
      </trkpt>
      <trkpt lat="45.87718" lon="5.42067">
        <ele>599.6</ele>
        <time>2021-02-20T15:14:25.000Z</time>
      </trkpt>
      <trkpt lat="45.87714" lon="5.42066">
        <ele>599.6</ele>
        <time>2021-02-20T15:14:26.000Z</time>
      </trkpt>
      <trkpt lat="45.87711" lon="5.42064">
        <ele>598.8</ele>
        <time>2021-02-20T15:14:27.000Z</time>
      </trkpt>
      <trkpt lat="45.87708" lon="5.42062">
        <ele>598.4</ele>
        <time>2021-02-20T15:14:28.000Z</time>
      </trkpt>
      <trkpt lat="45.87705" lon="5.42058">
        <ele>598</ele>
        <time>2021-02-20T15:14:29.000Z</time>
      </trkpt>
      <trkpt lat="45.87703" lon="5.42054">
        <ele>597.8</ele>
        <time>2021-02-20T15:14:30.000Z</time>
      </trkpt>
      <trkpt lat="45.87701" lon="5.42049">
        <ele>597.8</ele>
        <time>2021-02-20T15:14:31.000Z</time>
      </trkpt>
      <trkpt lat="45.877" lon="5.42045">
        <ele>597.4</ele>
        <time>2021-02-20T15:14:32.000Z</time>
      </trkpt>
      <trkpt lat="45.87699" lon="5.4204">
        <ele>597.2</ele>
        <time>2021-02-20T15:14:33.000Z</time>
      </trkpt>
      <trkpt lat="45.87698" lon="5.42035">
        <ele>597</ele>
        <time>2021-02-20T15:14:34.000Z</time>
      </trkpt>
      <trkpt lat="45.87697" lon="5.4203">
        <ele>597</ele>
        <time>2021-02-20T15:14:35.000Z</time>
      </trkpt>
      <trkpt lat="45.87696" lon="5.42026">
        <ele>596.8</ele>
        <time>2021-02-20T15:14:36.000Z</time>
      </trkpt>
      <trkpt lat="45.87694" lon="5.42017">
        <ele>596.8</ele>
        <time>2021-02-20T15:14:38.000Z</time>
      </trkpt>
      <trkpt lat="45.87693" lon="5.42013">
        <ele>596.8</ele>
        <time>2021-02-20T15:14:39.000Z</time>
      </trkpt>
      <trkpt lat="45.87692" lon="5.4201">
        <ele>596.8</ele>
        <time>2021-02-20T15:14:40.000Z</time>
      </trkpt>
      <trkpt lat="45.87688" lon="5.41993">
        <ele>597</ele>
        <time>2021-02-20T15:14:44.000Z</time>
      </trkpt>
      <trkpt lat="45.8768" lon="5.41959">
        <ele>597</ele>
        <time>2021-02-20T15:14:51.000Z</time>
      </trkpt>
      <trkpt lat="45.8768" lon="5.41954">
        <ele>597</ele>
        <time>2021-02-20T15:14:52.000Z</time>
      </trkpt>
      <trkpt lat="45.87679" lon="5.41949">
        <ele>597</ele>
        <time>2021-02-20T15:14:53.000Z</time>
      </trkpt>
      <trkpt lat="45.87679" lon="5.41945">
        <ele>597</ele>
        <time>2021-02-20T15:14:54.000Z</time>
      </trkpt>
      <trkpt lat="45.87678" lon="5.41942">
        <ele>596.8</ele>
        <time>2021-02-20T15:14:55.000Z</time>
      </trkpt>
      <trkpt lat="45.87677" lon="5.41938">
        <ele>597</ele>
        <time>2021-02-20T15:14:56.000Z</time>
      </trkpt>
      <trkpt lat="45.87675" lon="5.4193">
        <ele>597</ele>
        <time>2021-02-20T15:14:58.000Z</time>
      </trkpt>
      <trkpt lat="45.87675" lon="5.41918">
        <ele>597.2</ele>
        <time>2021-02-20T15:15:01.000Z</time>
      </trkpt>
      <trkpt lat="45.87675" lon="5.41913">
        <ele>597.2</ele>
        <time>2021-02-20T15:15:02.000Z</time>
      </trkpt>
      <trkpt lat="45.87675" lon="5.41909">
        <ele>597.2</ele>
        <time>2021-02-20T15:15:03.000Z</time>
      </trkpt>
      <trkpt lat="45.87676" lon="5.41905">
        <ele>597.2</ele>
        <time>2021-02-20T15:15:04.000Z</time>
      </trkpt>
      <trkpt lat="45.87676" lon="5.41901">
        <ele>597.2</ele>
        <time>2021-02-20T15:15:05.000Z</time>
      </trkpt>
      <trkpt lat="45.87675" lon="5.41898">
        <ele>597.4</ele>
        <time>2021-02-20T15:15:06.000Z</time>
      </trkpt>
      <trkpt lat="45.87674" lon="5.41894">
        <ele>597.4</ele>
        <time>2021-02-20T15:15:07.000Z</time>
      </trkpt>
      <trkpt lat="45.87674" lon="5.4189">
        <ele>597.8</ele>
        <time>2021-02-20T15:15:08.000Z</time>
      </trkpt>
      <trkpt lat="45.87675" lon="5.41885">
        <ele>598</ele>
        <time>2021-02-20T15:15:09.000Z</time>
      </trkpt>
      <trkpt lat="45.87675" lon="5.4188">
        <ele>598.2</ele>
        <time>2021-02-20T15:15:10.000Z</time>
      </trkpt>
      <trkpt lat="45.87676" lon="5.41875">
        <ele>598.4</ele>
        <time>2021-02-20T15:15:11.000Z</time>
      </trkpt>
      <trkpt lat="45.87676" lon="5.4187">
        <ele>598.6</ele>
        <time>2021-02-20T15:15:12.000Z</time>
      </trkpt>
      <trkpt lat="45.87676" lon="5.41866">
        <ele>599</ele>
        <time>2021-02-20T15:15:13.000Z</time>
      </trkpt>
      <trkpt lat="45.87676" lon="5.41862">
        <ele>599.2</ele>
        <time>2021-02-20T15:15:14.000Z</time>
      </trkpt>
      <trkpt lat="45.87676" lon="5.41857">
        <ele>599.4</ele>
        <time>2021-02-20T15:15:15.000Z</time>
      </trkpt>
      <trkpt lat="45.87675" lon="5.41853">
        <ele>599.4</ele>
        <time>2021-02-20T15:15:16.000Z</time>
      </trkpt>
      <trkpt lat="45.87675" lon="5.41849">
        <ele>599.6</ele>
        <time>2021-02-20T15:15:17.000Z</time>
      </trkpt>
      <trkpt lat="45.87674" lon="5.41845">
        <ele>599.6</ele>
        <time>2021-02-20T15:15:18.000Z</time>
      </trkpt>
      <trkpt lat="45.87674" lon="5.41841">
        <ele>600</ele>
        <time>2021-02-20T15:15:19.000Z</time>
      </trkpt>
      <trkpt lat="45.87673" lon="5.41837">
        <ele>600.4</ele>
        <time>2021-02-20T15:15:20.000Z</time>
      </trkpt>
      <trkpt lat="45.87673" lon="5.41833">
        <ele>601</ele>
        <time>2021-02-20T15:15:21.000Z</time>
      </trkpt>
      <trkpt lat="45.87672" lon="5.41829">
        <ele>601.4</ele>
        <time>2021-02-20T15:15:22.000Z</time>
      </trkpt>
      <trkpt lat="45.87672" lon="5.41826">
        <ele>601.8</ele>
        <time>2021-02-20T15:15:23.000Z</time>
      </trkpt>
      <trkpt lat="45.87671" lon="5.41823">
        <ele>602</ele>
        <time>2021-02-20T15:15:24.000Z</time>
      </trkpt>
      <trkpt lat="45.87672" lon="5.41819">
        <ele>602.2</ele>
        <time>2021-02-20T15:15:25.000Z</time>
      </trkpt>
      <trkpt lat="45.87671" lon="5.41816">
        <ele>602.2</ele>
        <time>2021-02-20T15:15:26.000Z</time>
      </trkpt>
      <trkpt lat="45.87671" lon="5.41813">
        <ele>602.2</ele>
        <time>2021-02-20T15:15:27.000Z</time>
      </trkpt>
      <trkpt lat="45.87671" lon="5.41809">
        <ele>602.4</ele>
        <time>2021-02-20T15:15:28.000Z</time>
      </trkpt>
      <trkpt lat="45.87669" lon="5.41805">
        <ele>602.6</ele>
        <time>2021-02-20T15:15:29.000Z</time>
      </trkpt>
      <trkpt lat="45.87668" lon="5.41801">
        <ele>602.6</ele>
        <time>2021-02-20T15:15:30.000Z</time>
      </trkpt>
      <trkpt lat="45.87667" lon="5.41796">
        <ele>603</ele>
        <time>2021-02-20T15:15:31.000Z</time>
      </trkpt>
      <trkpt lat="45.87666" lon="5.41792">
        <ele>603.2</ele>
        <time>2021-02-20T15:15:32.000Z</time>
      </trkpt>
      <trkpt lat="45.87665" lon="5.41788">
        <ele>603.2</ele>
        <time>2021-02-20T15:15:33.000Z</time>
      </trkpt>
      <trkpt lat="45.87664" lon="5.41784">
        <ele>603.6</ele>
        <time>2021-02-20T15:15:34.000Z</time>
      </trkpt>
      <trkpt lat="45.87663" lon="5.4178">
        <ele>603.8</ele>
        <time>2021-02-20T15:15:35.000Z</time>
      </trkpt>
      <trkpt lat="45.87662" lon="5.41776">
        <ele>604</ele>
        <time>2021-02-20T15:15:36.000Z</time>
      </trkpt>
      <trkpt lat="45.87661" lon="5.41772">
        <ele>604.2</ele>
        <time>2021-02-20T15:15:37.000Z</time>
      </trkpt>
      <trkpt lat="45.8766" lon="5.41769">
        <ele>604.4</ele>
        <time>2021-02-20T15:15:38.000Z</time>
      </trkpt>
      <trkpt lat="45.8766" lon="5.41765">
        <ele>604.8</ele>
        <time>2021-02-20T15:15:39.000Z</time>
      </trkpt>
      <trkpt lat="45.87659" lon="5.41762">
        <ele>604.8</ele>
        <time>2021-02-20T15:15:40.000Z</time>
      </trkpt>
      <trkpt lat="45.87659" lon="5.41758">
        <ele>604.8</ele>
        <time>2021-02-20T15:15:41.000Z</time>
      </trkpt>
      <trkpt lat="45.87659" lon="5.41754">
        <ele>605</ele>
        <time>2021-02-20T15:15:42.000Z</time>
      </trkpt>
      <trkpt lat="45.87659" lon="5.4175">
        <ele>605.2</ele>
        <time>2021-02-20T15:15:43.000Z</time>
      </trkpt>
      <trkpt lat="45.87659" lon="5.41746">
        <ele>605.2</ele>
        <time>2021-02-20T15:15:44.000Z</time>
      </trkpt>
      <trkpt lat="45.87659" lon="5.41742">
        <ele>605.6</ele>
        <time>2021-02-20T15:15:45.000Z</time>
      </trkpt>
      <trkpt lat="45.87658" lon="5.41738">
        <ele>605.6</ele>
        <time>2021-02-20T15:15:46.000Z</time>
      </trkpt>
      <trkpt lat="45.87657" lon="5.41734">
        <ele>605.6</ele>
        <time>2021-02-20T15:15:47.000Z</time>
      </trkpt>
      <trkpt lat="45.87656" lon="5.41731">
        <ele>605.6</ele>
        <time>2021-02-20T15:15:48.000Z</time>
      </trkpt>
      <trkpt lat="45.87655" lon="5.41728">
        <ele>605.8</ele>
        <time>2021-02-20T15:15:49.000Z</time>
      </trkpt>
      <trkpt lat="45.87654" lon="5.41725">
        <ele>605.8</ele>
        <time>2021-02-20T15:15:50.000Z</time>
      </trkpt>
      <trkpt lat="45.87653" lon="5.41721">
        <ele>605.8</ele>
        <time>2021-02-20T15:15:51.000Z</time>
      </trkpt>
      <trkpt lat="45.87653" lon="5.41718">
        <ele>605.8</ele>
        <time>2021-02-20T15:15:52.000Z</time>
      </trkpt>
      <trkpt lat="45.87653" lon="5.41714">
        <ele>606</ele>
        <time>2021-02-20T15:15:53.000Z</time>
      </trkpt>
      <trkpt lat="45.87652" lon="5.41711">
        <ele>606.2</ele>
        <time>2021-02-20T15:15:54.000Z</time>
      </trkpt>
      <trkpt lat="45.87651" lon="5.41707">
        <ele>606.4</ele>
        <time>2021-02-20T15:15:55.000Z</time>
      </trkpt>
      <trkpt lat="45.8765" lon="5.41702">
        <ele>607</ele>
        <time>2021-02-20T15:15:56.000Z</time>
      </trkpt>
      <trkpt lat="45.87648" lon="5.41697">
        <ele>607.2</ele>
        <time>2021-02-20T15:15:57.000Z</time>
      </trkpt>
      <trkpt lat="45.87646" lon="5.41691">
        <ele>607.4</ele>
        <time>2021-02-20T15:15:58.000Z</time>
      </trkpt>
      <trkpt lat="45.87643" lon="5.41686">
        <ele>607.2</ele>
        <time>2021-02-20T15:15:59.000Z</time>
      </trkpt>
      <trkpt lat="45.8764" lon="5.41684">
        <ele>607.4</ele>
        <time>2021-02-20T15:16:00.000Z</time>
      </trkpt>
      <trkpt lat="45.87635" lon="5.41684">
        <ele>607.4</ele>
        <time>2021-02-20T15:16:01.000Z</time>
      </trkpt>
      <trkpt lat="45.87631" lon="5.41685">
        <ele>607.4</ele>
        <time>2021-02-20T15:16:02.000Z</time>
      </trkpt>
      <trkpt lat="45.87626" lon="5.41687">
        <ele>607.4</ele>
        <time>2021-02-20T15:16:03.000Z</time>
      </trkpt>
      <trkpt lat="45.87621" lon="5.41688">
        <ele>607.4</ele>
        <time>2021-02-20T15:16:04.000Z</time>
      </trkpt>
      <trkpt lat="45.87616" lon="5.41688">
        <ele>607.2</ele>
        <time>2021-02-20T15:16:05.000Z</time>
      </trkpt>
      <trkpt lat="45.87611" lon="5.41688">
        <ele>607.2</ele>
        <time>2021-02-20T15:16:06.000Z</time>
      </trkpt>
      <trkpt lat="45.87606" lon="5.41688">
        <ele>607.2</ele>
        <time>2021-02-20T15:16:07.000Z</time>
      </trkpt>
      <trkpt lat="45.87604" lon="5.41688">
        <ele>606.8</ele>
        <time>2021-02-20T15:16:08.000Z</time>
      </trkpt>
      <trkpt lat="45.876" lon="5.41691">
        <ele>606.4</ele>
        <time>2021-02-20T15:16:09.000Z</time>
      </trkpt>
      <trkpt lat="45.87598" lon="5.41688">
        <ele>605.8</ele>
        <time>2021-02-20T15:16:10.000Z</time>
      </trkpt>
      <trkpt lat="45.87595" lon="5.41683">
        <ele>605.4</ele>
        <time>2021-02-20T15:16:11.000Z</time>
      </trkpt>
      <trkpt lat="45.87591" lon="5.41677">
        <ele>605</ele>
        <time>2021-02-20T15:16:12.000Z</time>
      </trkpt>
      <trkpt lat="45.87585" lon="5.41661">
        <ele>603.8</ele>
        <time>2021-02-20T15:16:14.000Z</time>
      </trkpt>
      <trkpt lat="45.87581" lon="5.41653">
        <ele>603</ele>
        <time>2021-02-20T15:16:15.000Z</time>
      </trkpt>
      <trkpt lat="45.87578" lon="5.41646">
        <ele>602.4</ele>
        <time>2021-02-20T15:16:16.000Z</time>
      </trkpt>
      <trkpt lat="45.87574" lon="5.4164">
        <ele>601.8</ele>
        <time>2021-02-20T15:16:17.000Z</time>
      </trkpt>
      <trkpt lat="45.87571" lon="5.41635">
        <ele>601.2</ele>
        <time>2021-02-20T15:16:18.000Z</time>
      </trkpt>
      <trkpt lat="45.87569" lon="5.41629">
        <ele>600.8</ele>
        <time>2021-02-20T15:16:19.000Z</time>
      </trkpt>
      <trkpt lat="45.87567" lon="5.41623">
        <ele>600.2</ele>
        <time>2021-02-20T15:16:20.000Z</time>
      </trkpt>
      <trkpt lat="45.87555" lon="5.41592">
        <ele>599</ele>
        <time>2021-02-20T15:16:25.000Z</time>
      </trkpt>
      <trkpt lat="45.8755" lon="5.41579">
        <ele>599</ele>
        <time>2021-02-20T15:16:27.000Z</time>
      </trkpt>
      <trkpt lat="45.87548" lon="5.41573">
        <ele>598.8</ele>
        <time>2021-02-20T15:16:28.000Z</time>
      </trkpt>
      <trkpt lat="45.87543" lon="5.41558">
        <ele>598.8</ele>
        <time>2021-02-20T15:16:30.000Z</time>
      </trkpt>
      <trkpt lat="45.8754" lon="5.41551">
        <ele>598.8</ele>
        <time>2021-02-20T15:16:31.000Z</time>
      </trkpt>
      <trkpt lat="45.87535" lon="5.41537">
        <ele>598.4</ele>
        <time>2021-02-20T15:16:33.000Z</time>
      </trkpt>
      <trkpt lat="45.87523" lon="5.41489">
        <ele>597.2</ele>
        <time>2021-02-20T15:16:39.000Z</time>
      </trkpt>
      <trkpt lat="45.87522" lon="5.4148">
        <ele>597</ele>
        <time>2021-02-20T15:16:40.000Z</time>
      </trkpt>
      <trkpt lat="45.8752" lon="5.41463">
        <ele>596.6</ele>
        <time>2021-02-20T15:16:42.000Z</time>
      </trkpt>
      <trkpt lat="45.87519" lon="5.41454">
        <ele>596.4</ele>
        <time>2021-02-20T15:16:43.000Z</time>
      </trkpt>
      <trkpt lat="45.87518" lon="5.41446">
        <ele>596.4</ele>
        <time>2021-02-20T15:16:44.000Z</time>
      </trkpt>
      <trkpt lat="45.87517" lon="5.41437">
        <ele>596.4</ele>
        <time>2021-02-20T15:16:45.000Z</time>
      </trkpt>
      <trkpt lat="45.87517" lon="5.41429">
        <ele>596.4</ele>
        <time>2021-02-20T15:16:46.000Z</time>
      </trkpt>
      <trkpt lat="45.87518" lon="5.4142">
        <ele>596.2</ele>
        <time>2021-02-20T15:16:47.000Z</time>
      </trkpt>
      <trkpt lat="45.87521" lon="5.41403">
        <ele>596.2</ele>
        <time>2021-02-20T15:16:49.000Z</time>
      </trkpt>
      <trkpt lat="45.87523" lon="5.41386">
        <ele>596</ele>
        <time>2021-02-20T15:16:51.000Z</time>
      </trkpt>
      <trkpt lat="45.87526" lon="5.41369">
        <ele>595.4</ele>
        <time>2021-02-20T15:16:53.000Z</time>
      </trkpt>
      <trkpt lat="45.87528" lon="5.4136">
        <ele>595.2</ele>
        <time>2021-02-20T15:16:54.000Z</time>
      </trkpt>
      <trkpt lat="45.87529" lon="5.41352">
        <ele>595</ele>
        <time>2021-02-20T15:16:55.000Z</time>
      </trkpt>
      <trkpt lat="45.8753" lon="5.41343">
        <ele>594.6</ele>
        <time>2021-02-20T15:16:56.000Z</time>
      </trkpt>
      <trkpt lat="45.8753" lon="5.41335">
        <ele>594</ele>
        <time>2021-02-20T15:16:57.000Z</time>
      </trkpt>
      <trkpt lat="45.87529" lon="5.41319">
        <ele>593.4</ele>
        <time>2021-02-20T15:16:59.000Z</time>
      </trkpt>
      <trkpt lat="45.87529" lon="5.41312">
        <ele>593.2</ele>
        <time>2021-02-20T15:17:00.000Z</time>
      </trkpt>
      <trkpt lat="45.87528" lon="5.41304">
        <ele>593.2</ele>
        <time>2021-02-20T15:17:01.000Z</time>
      </trkpt>
      <trkpt lat="45.87527" lon="5.41297">
        <ele>593</ele>
        <time>2021-02-20T15:17:02.000Z</time>
      </trkpt>
      <trkpt lat="45.87526" lon="5.41291">
        <ele>593</ele>
        <time>2021-02-20T15:17:03.000Z</time>
      </trkpt>
      <trkpt lat="45.87525" lon="5.41284">
        <ele>593.2</ele>
        <time>2021-02-20T15:17:04.000Z</time>
      </trkpt>
      <trkpt lat="45.87525" lon="5.41277">
        <ele>593.2</ele>
        <time>2021-02-20T15:17:05.000Z</time>
      </trkpt>
      <trkpt lat="45.87525" lon="5.41271">
        <ele>593.2</ele>
        <time>2021-02-20T15:17:06.000Z</time>
      </trkpt>
      <trkpt lat="45.87525" lon="5.41266">
        <ele>593</ele>
        <time>2021-02-20T15:17:07.000Z</time>
      </trkpt>
      <trkpt lat="45.87524" lon="5.41261">
        <ele>593</ele>
        <time>2021-02-20T15:17:08.000Z</time>
      </trkpt>
      <trkpt lat="45.87524" lon="5.41257">
        <ele>593.4</ele>
        <time>2021-02-20T15:17:09.000Z</time>
      </trkpt>
      <trkpt lat="45.87523" lon="5.41252">
        <ele>593.6</ele>
        <time>2021-02-20T15:17:10.000Z</time>
      </trkpt>
      <trkpt lat="45.87522" lon="5.41248">
        <ele>593.6</ele>
        <time>2021-02-20T15:17:11.000Z</time>
      </trkpt>
      <trkpt lat="45.8752" lon="5.41245">
        <ele>593.8</ele>
        <time>2021-02-20T15:17:12.000Z</time>
      </trkpt>
      <trkpt lat="45.87519" lon="5.41242">
        <ele>594</ele>
        <time>2021-02-20T15:17:13.000Z</time>
      </trkpt>
      <trkpt lat="45.87516" lon="5.4124">
        <ele>594.2</ele>
        <time>2021-02-20T15:17:14.000Z</time>
      </trkpt>
      <trkpt lat="45.87513" lon="5.41239">
        <ele>594.4</ele>
        <time>2021-02-20T15:17:15.000Z</time>
      </trkpt>
      <trkpt lat="45.8751" lon="5.41238">
        <ele>594.8</ele>
        <time>2021-02-20T15:17:16.000Z</time>
      </trkpt>
      <trkpt lat="45.87507" lon="5.41237">
        <ele>594.8</ele>
        <time>2021-02-20T15:17:17.000Z</time>
      </trkpt>
      <trkpt lat="45.87505" lon="5.41236">
        <ele>594.8</ele>
        <time>2021-02-20T15:17:18.000Z</time>
      </trkpt>
      <trkpt lat="45.87503" lon="5.41235">
        <ele>595.2</ele>
        <time>2021-02-20T15:17:19.000Z</time>
      </trkpt>
      <trkpt lat="45.87501" lon="5.41235">
        <ele>595.2</ele>
        <time>2021-02-20T15:17:20.000Z</time>
      </trkpt>
      <trkpt lat="45.87498" lon="5.41234">
        <ele>595.6</ele>
        <time>2021-02-20T15:17:21.000Z</time>
      </trkpt>
      <trkpt lat="45.87495" lon="5.41234">
        <ele>596</ele>
        <time>2021-02-20T15:17:22.000Z</time>
      </trkpt>
      <trkpt lat="45.87492" lon="5.41233">
        <ele>596.4</ele>
        <time>2021-02-20T15:17:23.000Z</time>
      </trkpt>
      <trkpt lat="45.87489" lon="5.41232">
        <ele>596.6</ele>
        <time>2021-02-20T15:17:24.000Z</time>
      </trkpt>
      <trkpt lat="45.87486" lon="5.41231">
        <ele>596.8</ele>
        <time>2021-02-20T15:17:25.000Z</time>
      </trkpt>
      <trkpt lat="45.87483" lon="5.4123">
        <ele>597</ele>
        <time>2021-02-20T15:17:26.000Z</time>
      </trkpt>
      <trkpt lat="45.8748" lon="5.41229">
        <ele>597</ele>
        <time>2021-02-20T15:17:27.000Z</time>
      </trkpt>
      <trkpt lat="45.87477" lon="5.41229">
        <ele>597.6</ele>
        <time>2021-02-20T15:17:28.000Z</time>
      </trkpt>
      <trkpt lat="45.87474" lon="5.41228">
        <ele>598</ele>
        <time>2021-02-20T15:17:29.000Z</time>
      </trkpt>
      <trkpt lat="45.87471" lon="5.41227">
        <ele>598.6</ele>
        <time>2021-02-20T15:17:30.000Z</time>
      </trkpt>
      <trkpt lat="45.87469" lon="5.41225">
        <ele>599.2</ele>
        <time>2021-02-20T15:17:31.000Z</time>
      </trkpt>
      <trkpt lat="45.87466" lon="5.41224">
        <ele>600.2</ele>
        <time>2021-02-20T15:17:32.000Z</time>
      </trkpt>
      <trkpt lat="45.87464" lon="5.41222">
        <ele>600.4</ele>
        <time>2021-02-20T15:17:33.000Z</time>
      </trkpt>
      <trkpt lat="45.87462" lon="5.4122">
        <ele>600.8</ele>
        <time>2021-02-20T15:17:34.000Z</time>
      </trkpt>
      <trkpt lat="45.8746" lon="5.41219">
        <ele>601</ele>
        <time>2021-02-20T15:17:35.000Z</time>
      </trkpt>
      <trkpt lat="45.87458" lon="5.41217">
        <ele>601</ele>
        <time>2021-02-20T15:17:36.000Z</time>
      </trkpt>
      <trkpt lat="45.87457" lon="5.41216">
        <ele>601.2</ele>
        <time>2021-02-20T15:17:37.000Z</time>
      </trkpt>
      <trkpt lat="45.87455" lon="5.41214">
        <ele>601.8</ele>
        <time>2021-02-20T15:17:38.000Z</time>
      </trkpt>
      <trkpt lat="45.87453" lon="5.41213">
        <ele>602.2</ele>
        <time>2021-02-20T15:17:39.000Z</time>
      </trkpt>
      <trkpt lat="45.87451" lon="5.41212">
        <ele>602.6</ele>
        <time>2021-02-20T15:17:40.000Z</time>
      </trkpt>
      <trkpt lat="45.8745" lon="5.41211">
        <ele>602.8</ele>
        <time>2021-02-20T15:17:41.000Z</time>
      </trkpt>
      <trkpt lat="45.87448" lon="5.4121">
        <ele>602.8</ele>
        <time>2021-02-20T15:17:42.000Z</time>
      </trkpt>
      <trkpt lat="45.87447" lon="5.41209">
        <ele>603</ele>
        <time>2021-02-20T15:17:43.000Z</time>
      </trkpt>
      <trkpt lat="45.87445" lon="5.41209">
        <ele>603</ele>
        <time>2021-02-20T15:17:44.000Z</time>
      </trkpt>
      <trkpt lat="45.87444" lon="5.41207">
        <ele>603.2</ele>
        <time>2021-02-20T15:17:45.000Z</time>
      </trkpt>
      <trkpt lat="45.87442" lon="5.41206">
        <ele>603.2</ele>
        <time>2021-02-20T15:17:46.000Z</time>
      </trkpt>
      <trkpt lat="45.87441" lon="5.41205">
        <ele>603.4</ele>
        <time>2021-02-20T15:17:47.000Z</time>
      </trkpt>
      <trkpt lat="45.8744" lon="5.41204">
        <ele>604.2</ele>
        <time>2021-02-20T15:17:48.000Z</time>
      </trkpt>
      <trkpt lat="45.87438" lon="5.41203">
        <ele>604.4</ele>
        <time>2021-02-20T15:17:49.000Z</time>
      </trkpt>
      <trkpt lat="45.87436" lon="5.41202">
        <ele>605.2</ele>
        <time>2021-02-20T15:17:50.000Z</time>
      </trkpt>
      <trkpt lat="45.87435" lon="5.41201">
        <ele>605.6</ele>
        <time>2021-02-20T15:17:51.000Z</time>
      </trkpt>
      <trkpt lat="45.87433" lon="5.412">
        <ele>605.8</ele>
        <time>2021-02-20T15:17:52.000Z</time>
      </trkpt>
      <trkpt lat="45.87432" lon="5.41199">
        <ele>606.4</ele>
        <time>2021-02-20T15:17:53.000Z</time>
      </trkpt>
      <trkpt lat="45.8743" lon="5.41198">
        <ele>606.4</ele>
        <time>2021-02-20T15:17:54.000Z</time>
      </trkpt>
      <trkpt lat="45.87429" lon="5.41197">
        <ele>607.2</ele>
        <time>2021-02-20T15:17:55.000Z</time>
      </trkpt>
      <trkpt lat="45.87427" lon="5.41197">
        <ele>607.2</ele>
        <time>2021-02-20T15:17:56.000Z</time>
      </trkpt>
      <trkpt lat="45.87425" lon="5.41197">
        <ele>607.4</ele>
        <time>2021-02-20T15:17:57.000Z</time>
      </trkpt>
      <trkpt lat="45.87424" lon="5.41197">
        <ele>607.6</ele>
        <time>2021-02-20T15:17:58.000Z</time>
      </trkpt>
      <trkpt lat="45.87422" lon="5.41197">
        <ele>608</ele>
        <time>2021-02-20T15:17:59.000Z</time>
      </trkpt>
      <trkpt lat="45.87421" lon="5.41198">
        <ele>608.2</ele>
        <time>2021-02-20T15:18:00.000Z</time>
      </trkpt>
      <trkpt lat="45.8742" lon="5.41199">
        <ele>608.4</ele>
        <time>2021-02-20T15:18:01.000Z</time>
      </trkpt>
      <trkpt lat="45.87419" lon="5.412">
        <ele>609</ele>
        <time>2021-02-20T15:18:02.000Z</time>
      </trkpt>
      <trkpt lat="45.87417" lon="5.412">
        <ele>609.2</ele>
        <time>2021-02-20T15:18:03.000Z</time>
      </trkpt>
      <trkpt lat="45.87416" lon="5.41201">
        <ele>609.4</ele>
        <time>2021-02-20T15:18:04.000Z</time>
      </trkpt>
      <trkpt lat="45.87415" lon="5.41203">
        <ele>609.4</ele>
        <time>2021-02-20T15:18:05.000Z</time>
      </trkpt>
      <trkpt lat="45.87413" lon="5.41205">
        <ele>609.4</ele>
        <time>2021-02-20T15:18:06.000Z</time>
      </trkpt>
      <trkpt lat="45.87411" lon="5.41207">
        <ele>609.4</ele>
        <time>2021-02-20T15:18:07.000Z</time>
      </trkpt>
      <trkpt lat="45.87409" lon="5.41209">
        <ele>609.6</ele>
        <time>2021-02-20T15:18:08.000Z</time>
      </trkpt>
      <trkpt lat="45.87407" lon="5.41212">
        <ele>609.6</ele>
        <time>2021-02-20T15:18:09.000Z</time>
      </trkpt>
      <trkpt lat="45.87405" lon="5.41214">
        <ele>609.6</ele>
        <time>2021-02-20T15:18:10.000Z</time>
      </trkpt>
      <trkpt lat="45.87403" lon="5.41217">
        <ele>609.6</ele>
        <time>2021-02-20T15:18:11.000Z</time>
      </trkpt>
      <trkpt lat="45.87401" lon="5.41219">
        <ele>609.8</ele>
        <time>2021-02-20T15:18:12.000Z</time>
      </trkpt>
      <trkpt lat="45.87399" lon="5.41222">
        <ele>609.8</ele>
        <time>2021-02-20T15:18:13.000Z</time>
      </trkpt>
      <trkpt lat="45.87396" lon="5.41224">
        <ele>610</ele>
        <time>2021-02-20T15:18:14.000Z</time>
      </trkpt>
      <trkpt lat="45.87394" lon="5.41227">
        <ele>610.2</ele>
        <time>2021-02-20T15:18:15.000Z</time>
      </trkpt>
      <trkpt lat="45.87391" lon="5.41231">
        <ele>610.2</ele>
        <time>2021-02-20T15:18:16.000Z</time>
      </trkpt>
      <trkpt lat="45.87389" lon="5.41234">
        <ele>610.2</ele>
        <time>2021-02-20T15:18:17.000Z</time>
      </trkpt>
      <trkpt lat="45.87384" lon="5.41238">
        <ele>610</ele>
        <time>2021-02-20T15:18:19.000Z</time>
      </trkpt>
      <trkpt lat="45.87381" lon="5.41238">
        <ele>610</ele>
        <time>2021-02-20T15:18:20.000Z</time>
      </trkpt>
      <trkpt lat="45.87378" lon="5.41238">
        <ele>610.2</ele>
        <time>2021-02-20T15:18:21.000Z</time>
      </trkpt>
      <trkpt lat="45.87375" lon="5.41236">
        <ele>610</ele>
        <time>2021-02-20T15:18:22.000Z</time>
      </trkpt>
      <trkpt lat="45.87371" lon="5.41234">
        <ele>610</ele>
        <time>2021-02-20T15:18:23.000Z</time>
      </trkpt>
      <trkpt lat="45.87368" lon="5.41232">
        <ele>610</ele>
        <time>2021-02-20T15:18:24.000Z</time>
      </trkpt>
      <trkpt lat="45.87365" lon="5.41231">
        <ele>610</ele>
        <time>2021-02-20T15:18:25.000Z</time>
      </trkpt>
      <trkpt lat="45.87362" lon="5.4123">
        <ele>610</ele>
        <time>2021-02-20T15:18:26.000Z</time>
      </trkpt>
      <trkpt lat="45.87352" lon="5.4123">
        <ele>610</ele>
        <time>2021-02-20T15:18:29.000Z</time>
      </trkpt>
      <trkpt lat="45.87348" lon="5.41231">
        <ele>610</ele>
        <time>2021-02-20T15:18:30.000Z</time>
      </trkpt>
      <trkpt lat="45.87337" lon="5.41233">
        <ele>609.6</ele>
        <time>2021-02-20T15:18:33.000Z</time>
      </trkpt>
      <trkpt lat="45.87334" lon="5.41233">
        <ele>609.6</ele>
        <time>2021-02-20T15:18:34.000Z</time>
      </trkpt>
      <trkpt lat="45.87331" lon="5.41234">
        <ele>609.8</ele>
        <time>2021-02-20T15:18:35.000Z</time>
      </trkpt>
      <trkpt lat="45.87329" lon="5.41234">
        <ele>609.8</ele>
        <time>2021-02-20T15:18:36.000Z</time>
      </trkpt>
      <trkpt lat="45.87327" lon="5.41234">
        <ele>609.8</ele>
        <time>2021-02-20T15:18:37.000Z</time>
      </trkpt>
      <trkpt lat="45.87324" lon="5.41235">
        <ele>609.8</ele>
        <time>2021-02-20T15:18:38.000Z</time>
      </trkpt>
      <trkpt lat="45.87322" lon="5.41235">
        <ele>610</ele>
        <time>2021-02-20T15:18:39.000Z</time>
      </trkpt>
      <trkpt lat="45.87321" lon="5.41235">
        <ele>610.2</ele>
        <time>2021-02-20T15:18:40.000Z</time>
      </trkpt>
      <trkpt lat="45.87319" lon="5.41233">
        <ele>610.4</ele>
        <time>2021-02-20T15:18:41.000Z</time>
      </trkpt>
      <trkpt lat="45.87317" lon="5.41231">
        <ele>610.4</ele>
        <time>2021-02-20T15:18:42.000Z</time>
      </trkpt>
      <trkpt lat="45.87316" lon="5.41225">
        <ele>610.8</ele>
        <time>2021-02-20T15:18:44.000Z</time>
      </trkpt>
      <trkpt lat="45.87316" lon="5.41222">
        <ele>611</ele>
        <time>2021-02-20T15:18:45.000Z</time>
      </trkpt>
      <trkpt lat="45.87317" lon="5.4122">
        <ele>611.4</ele>
        <time>2021-02-20T15:18:46.000Z</time>
      </trkpt>
      <trkpt lat="45.87317" lon="5.41217">
        <ele>611.6</ele>
        <time>2021-02-20T15:18:47.000Z</time>
      </trkpt>
      <trkpt lat="45.87318" lon="5.41215">
        <ele>611.6</ele>
        <time>2021-02-20T15:18:48.000Z</time>
      </trkpt>
      <trkpt lat="45.87319" lon="5.41214">
        <ele>611.6</ele>
        <time>2021-02-20T15:18:49.000Z</time>
      </trkpt>
      <trkpt lat="45.8732" lon="5.41212">
        <ele>611.8</ele>
        <time>2021-02-20T15:18:50.000Z</time>
      </trkpt>
      <trkpt lat="45.87321" lon="5.4121">
        <ele>612.4</ele>
        <time>2021-02-20T15:18:51.000Z</time>
      </trkpt>
      <trkpt lat="45.87322" lon="5.41209">
        <ele>612.8</ele>
        <time>2021-02-20T15:18:52.000Z</time>
      </trkpt>
      <trkpt lat="45.87323" lon="5.41207">
        <ele>613.4</ele>
        <time>2021-02-20T15:18:53.000Z</time>
      </trkpt>
      <trkpt lat="45.87323" lon="5.41206">
        <ele>613.8</ele>
        <time>2021-02-20T15:18:54.000Z</time>
      </trkpt>
      <trkpt lat="45.87324" lon="5.41204">
        <ele>614.2</ele>
        <time>2021-02-20T15:18:55.000Z</time>
      </trkpt>
      <trkpt lat="45.87325" lon="5.41203">
        <ele>614.4</ele>
        <time>2021-02-20T15:18:56.000Z</time>
      </trkpt>
      <trkpt lat="45.87325" lon="5.41202">
        <ele>614.6</ele>
        <time>2021-02-20T15:18:57.000Z</time>
      </trkpt>
      <trkpt lat="45.8733" lon="5.41192">
        <ele>617.2</ele>
        <time>2021-02-20T15:19:22.000Z</time>
      </trkpt>
      <trkpt lat="45.87331" lon="5.41191">
        <ele>617.2</ele>
        <time>2021-02-20T15:19:23.000Z</time>
      </trkpt>
      <trkpt lat="45.87336" lon="5.41179">
        <ele>617.2</ele>
        <time>2021-02-20T15:19:28.000Z</time>
      </trkpt>
      <trkpt lat="45.87337" lon="5.41177">
        <ele>617.4</ele>
        <time>2021-02-20T15:19:29.000Z</time>
      </trkpt>
      <trkpt lat="45.87338" lon="5.41174">
        <ele>617.4</ele>
        <time>2021-02-20T15:19:30.000Z</time>
      </trkpt>
      <trkpt lat="45.87338" lon="5.41172">
        <ele>617.6</ele>
        <time>2021-02-20T15:19:31.000Z</time>
      </trkpt>
      <trkpt lat="45.8734" lon="5.41171">
        <ele>617.6</ele>
        <time>2021-02-20T15:19:32.000Z</time>
      </trkpt>
      <trkpt lat="45.87341" lon="5.41169">
        <ele>618</ele>
        <time>2021-02-20T15:19:33.000Z</time>
      </trkpt>
      <trkpt lat="45.87342" lon="5.41167">
        <ele>618.2</ele>
        <time>2021-02-20T15:19:34.000Z</time>
      </trkpt>
      <trkpt lat="45.87342" lon="5.41166">
        <ele>618.4</ele>
        <time>2021-02-20T15:19:35.000Z</time>
      </trkpt>
      <trkpt lat="45.87343" lon="5.41164">
        <ele>618.6</ele>
        <time>2021-02-20T15:19:36.000Z</time>
      </trkpt>
      <trkpt lat="45.87342" lon="5.41163">
        <ele>619</ele>
        <time>2021-02-20T15:19:37.000Z</time>
      </trkpt>
      <trkpt lat="45.87345" lon="5.41161">
        <ele>621</ele>
        <time>2021-02-20T15:20:11.000Z</time>
      </trkpt>
      <trkpt lat="45.87346" lon="5.4116">
        <ele>620.8</ele>
        <time>2021-02-20T15:20:12.000Z</time>
      </trkpt>
      <trkpt lat="45.87347" lon="5.41158">
        <ele>621</ele>
        <time>2021-02-20T15:20:13.000Z</time>
      </trkpt>
      <trkpt lat="45.8735" lon="5.41153">
        <ele>621.2</ele>
        <time>2021-02-20T15:20:16.000Z</time>
      </trkpt>
      <trkpt lat="45.87351" lon="5.41152">
        <ele>621</ele>
        <time>2021-02-20T15:20:17.000Z</time>
      </trkpt>
      <trkpt lat="45.87353" lon="5.4115">
        <ele>621.2</ele>
        <time>2021-02-20T15:20:18.000Z</time>
      </trkpt>
      <trkpt lat="45.87354" lon="5.41149">
        <ele>621.4</ele>
        <time>2021-02-20T15:20:19.000Z</time>
      </trkpt>
      <trkpt lat="45.87355" lon="5.41147">
        <ele>621.4</ele>
        <time>2021-02-20T15:20:20.000Z</time>
      </trkpt>
      <trkpt lat="45.87356" lon="5.41146">
        <ele>621.6</ele>
        <time>2021-02-20T15:20:21.000Z</time>
      </trkpt>
      <trkpt lat="45.87358" lon="5.41143">
        <ele>621.6</ele>
        <time>2021-02-20T15:20:23.000Z</time>
      </trkpt>
      <trkpt lat="45.87359" lon="5.41141">
        <ele>621.6</ele>
        <time>2021-02-20T15:20:24.000Z</time>
      </trkpt>
      <trkpt lat="45.8736" lon="5.4114">
        <ele>621.8</ele>
        <time>2021-02-20T15:20:25.000Z</time>
      </trkpt>
      <trkpt lat="45.87361" lon="5.41138">
        <ele>622</ele>
        <time>2021-02-20T15:20:26.000Z</time>
      </trkpt>
      <trkpt lat="45.87361" lon="5.41137">
        <ele>622.2</ele>
        <time>2021-02-20T15:20:27.000Z</time>
      </trkpt>
      <trkpt lat="45.87362" lon="5.41136">
        <ele>622.2</ele>
        <time>2021-02-20T15:20:28.000Z</time>
      </trkpt>
      <trkpt lat="45.87365" lon="5.41132">
        <ele>622.4</ele>
        <time>2021-02-20T15:20:30.000Z</time>
      </trkpt>
      <trkpt lat="45.87366" lon="5.41131">
        <ele>622.6</ele>
        <time>2021-02-20T15:20:31.000Z</time>
      </trkpt>
      <trkpt lat="45.87367" lon="5.41129">
        <ele>623</ele>
        <time>2021-02-20T15:20:32.000Z</time>
      </trkpt>
      <trkpt lat="45.87368" lon="5.41127">
        <ele>623</ele>
        <time>2021-02-20T15:20:33.000Z</time>
      </trkpt>
      <trkpt lat="45.87368" lon="5.41125">
        <ele>623.2</ele>
        <time>2021-02-20T15:20:34.000Z</time>
      </trkpt>
      <trkpt lat="45.87369" lon="5.41124">
        <ele>623.4</ele>
        <time>2021-02-20T15:20:35.000Z</time>
      </trkpt>
      <trkpt lat="45.8737" lon="5.41122">
        <ele>623.6</ele>
        <time>2021-02-20T15:20:36.000Z</time>
      </trkpt>
      <trkpt lat="45.87371" lon="5.41121">
        <ele>623.8</ele>
        <time>2021-02-20T15:20:37.000Z</time>
      </trkpt>
      <trkpt lat="45.87372" lon="5.4112">
        <ele>623.8</ele>
        <time>2021-02-20T15:20:38.000Z</time>
      </trkpt>
      <trkpt lat="45.87373" lon="5.41118">
        <ele>624.2</ele>
        <time>2021-02-20T15:20:39.000Z</time>
      </trkpt>
      <trkpt lat="45.87374" lon="5.41117">
        <ele>624.4</ele>
        <time>2021-02-20T15:20:40.000Z</time>
      </trkpt>
      <trkpt lat="45.87375" lon="5.41116">
        <ele>624.6</ele>
        <time>2021-02-20T15:20:41.000Z</time>
      </trkpt>
      <trkpt lat="45.87376" lon="5.41114">
        <ele>624.6</ele>
        <time>2021-02-20T15:20:42.000Z</time>
      </trkpt>
      <trkpt lat="45.87377" lon="5.41113">
        <ele>625</ele>
        <time>2021-02-20T15:20:43.000Z</time>
      </trkpt>
      <trkpt lat="45.87378" lon="5.41111">
        <ele>625</ele>
        <time>2021-02-20T15:20:44.000Z</time>
      </trkpt>
      <trkpt lat="45.87378" lon="5.4111">
        <ele>625.4</ele>
        <time>2021-02-20T15:20:45.000Z</time>
      </trkpt>
      <trkpt lat="45.87379" lon="5.41109">
        <ele>625.6</ele>
        <time>2021-02-20T15:20:46.000Z</time>
      </trkpt>
      <trkpt lat="45.87381" lon="5.41108">
        <ele>625.6</ele>
        <time>2021-02-20T15:20:47.000Z</time>
      </trkpt>
      <trkpt lat="45.87382" lon="5.41107">
        <ele>625.8</ele>
        <time>2021-02-20T15:20:48.000Z</time>
      </trkpt>
      <trkpt lat="45.87383" lon="5.41106">
        <ele>626.4</ele>
        <time>2021-02-20T15:20:49.000Z</time>
      </trkpt>
      <trkpt lat="45.87384" lon="5.41105">
        <ele>626.6</ele>
        <time>2021-02-20T15:20:50.000Z</time>
      </trkpt>
      <trkpt lat="45.87385" lon="5.41104">
        <ele>626.8</ele>
        <time>2021-02-20T15:20:51.000Z</time>
      </trkpt>
      <trkpt lat="45.87386" lon="5.41102">
        <ele>627</ele>
        <time>2021-02-20T15:20:52.000Z</time>
      </trkpt>
      <trkpt lat="45.87388" lon="5.41101">
        <ele>627.4</ele>
        <time>2021-02-20T15:20:53.000Z</time>
      </trkpt>
      <trkpt lat="45.87389" lon="5.411">
        <ele>627.6</ele>
        <time>2021-02-20T15:20:54.000Z</time>
      </trkpt>
      <trkpt lat="45.8739" lon="5.41099">
        <ele>627.8</ele>
        <time>2021-02-20T15:20:55.000Z</time>
      </trkpt>
      <trkpt lat="45.87391" lon="5.41097">
        <ele>628.2</ele>
        <time>2021-02-20T15:20:56.000Z</time>
      </trkpt>
      <trkpt lat="45.87392" lon="5.41096">
        <ele>628.4</ele>
        <time>2021-02-20T15:20:57.000Z</time>
      </trkpt>
      <trkpt lat="45.87392" lon="5.41094">
        <ele>628.8</ele>
        <time>2021-02-20T15:20:58.000Z</time>
      </trkpt>
      <trkpt lat="45.87393" lon="5.41093">
        <ele>629</ele>
        <time>2021-02-20T15:20:59.000Z</time>
      </trkpt>
      <trkpt lat="45.87393" lon="5.41091">
        <ele>629.4</ele>
        <time>2021-02-20T15:21:00.000Z</time>
      </trkpt>
      <trkpt lat="45.87394" lon="5.4109">
        <ele>629.6</ele>
        <time>2021-02-20T15:21:01.000Z</time>
      </trkpt>
      <trkpt lat="45.87395" lon="5.41088">
        <ele>630</ele>
        <time>2021-02-20T15:21:02.000Z</time>
      </trkpt>
      <trkpt lat="45.87396" lon="5.41087">
        <ele>630</ele>
        <time>2021-02-20T15:21:03.000Z</time>
      </trkpt>
      <trkpt lat="45.87396" lon="5.41085">
        <ele>630</ele>
        <time>2021-02-20T15:21:04.000Z</time>
      </trkpt>
      <trkpt lat="45.87397" lon="5.41084">
        <ele>630.4</ele>
        <time>2021-02-20T15:21:05.000Z</time>
      </trkpt>
      <trkpt lat="45.87398" lon="5.41083">
        <ele>630.6</ele>
        <time>2021-02-20T15:21:06.000Z</time>
      </trkpt>
      <trkpt lat="45.87398" lon="5.41081">
        <ele>631</ele>
        <time>2021-02-20T15:21:07.000Z</time>
      </trkpt>
      <trkpt lat="45.87399" lon="5.41079">
        <ele>631.4</ele>
        <time>2021-02-20T15:21:08.000Z</time>
      </trkpt>
      <trkpt lat="45.874" lon="5.41078">
        <ele>631.6</ele>
        <time>2021-02-20T15:21:09.000Z</time>
      </trkpt>
      <trkpt lat="45.87401" lon="5.41076">
        <ele>632</ele>
        <time>2021-02-20T15:21:10.000Z</time>
      </trkpt>
      <trkpt lat="45.87402" lon="5.41075">
        <ele>632.2</ele>
        <time>2021-02-20T15:21:11.000Z</time>
      </trkpt>
      <trkpt lat="45.87403" lon="5.41074">
        <ele>632.8</ele>
        <time>2021-02-20T15:21:13.000Z</time>
      </trkpt>
      <trkpt lat="45.87403" lon="5.41073">
        <ele>633</ele>
        <time>2021-02-20T15:21:14.000Z</time>
      </trkpt>
      <trkpt lat="45.87404" lon="5.41072">
        <ele>633.2</ele>
        <time>2021-02-20T15:21:15.000Z</time>
      </trkpt>
      <trkpt lat="45.87405" lon="5.4107">
        <ele>633.6</ele>
        <time>2021-02-20T15:21:16.000Z</time>
      </trkpt>
      <trkpt lat="45.87406" lon="5.41068">
        <ele>633.8</ele>
        <time>2021-02-20T15:21:17.000Z</time>
      </trkpt>
      <trkpt lat="45.87406" lon="5.41067">
        <ele>634</ele>
        <time>2021-02-20T15:21:18.000Z</time>
      </trkpt>
      <trkpt lat="45.87407" lon="5.41065">
        <ele>634</ele>
        <time>2021-02-20T15:21:19.000Z</time>
      </trkpt>
      <trkpt lat="45.87407" lon="5.41063">
        <ele>634.4</ele>
        <time>2021-02-20T15:21:20.000Z</time>
      </trkpt>
      <trkpt lat="45.87408" lon="5.41061">
        <ele>634.6</ele>
        <time>2021-02-20T15:21:21.000Z</time>
      </trkpt>
      <trkpt lat="45.87409" lon="5.41059">
        <ele>634.8</ele>
        <time>2021-02-20T15:21:22.000Z</time>
      </trkpt>
      <trkpt lat="45.87409" lon="5.41058">
        <ele>635</ele>
        <time>2021-02-20T15:21:23.000Z</time>
      </trkpt>
      <trkpt lat="45.87409" lon="5.41057">
        <ele>635</ele>
        <time>2021-02-20T15:21:24.000Z</time>
      </trkpt>
      <trkpt lat="45.8741" lon="5.41055">
        <ele>635.4</ele>
        <time>2021-02-20T15:21:25.000Z</time>
      </trkpt>
      <trkpt lat="45.8741" lon="5.41053">
        <ele>636</ele>
        <time>2021-02-20T15:21:26.000Z</time>
      </trkpt>
      <trkpt lat="45.87411" lon="5.41051">
        <ele>636.4</ele>
        <time>2021-02-20T15:21:27.000Z</time>
      </trkpt>
      <trkpt lat="45.87412" lon="5.41049">
        <ele>636.6</ele>
        <time>2021-02-20T15:21:28.000Z</time>
      </trkpt>
      <trkpt lat="45.87412" lon="5.41047">
        <ele>636.8</ele>
        <time>2021-02-20T15:21:29.000Z</time>
      </trkpt>
      <trkpt lat="45.87412" lon="5.41045">
        <ele>637.2</ele>
        <time>2021-02-20T15:21:30.000Z</time>
      </trkpt>
      <trkpt lat="45.87412" lon="5.41042">
        <ele>637.6</ele>
        <time>2021-02-20T15:21:31.000Z</time>
      </trkpt>
      <trkpt lat="45.87413" lon="5.4104">
        <ele>638</ele>
        <time>2021-02-20T15:21:32.000Z</time>
      </trkpt>
      <trkpt lat="45.87413" lon="5.41038">
        <ele>638</ele>
        <time>2021-02-20T15:21:33.000Z</time>
      </trkpt>
      <trkpt lat="45.87413" lon="5.41035">
        <ele>638</ele>
        <time>2021-02-20T15:21:34.000Z</time>
      </trkpt>
      <trkpt lat="45.87413" lon="5.41033">
        <ele>638.4</ele>
        <time>2021-02-20T15:21:35.000Z</time>
      </trkpt>
      <trkpt lat="45.87413" lon="5.4103">
        <ele>638.6</ele>
        <time>2021-02-20T15:21:36.000Z</time>
      </trkpt>
      <trkpt lat="45.87414" lon="5.41028">
        <ele>638.8</ele>
        <time>2021-02-20T15:21:37.000Z</time>
      </trkpt>
      <trkpt lat="45.87415" lon="5.41026">
        <ele>638.8</ele>
        <time>2021-02-20T15:21:38.000Z</time>
      </trkpt>
      <trkpt lat="45.87415" lon="5.41023">
        <ele>639</ele>
        <time>2021-02-20T15:21:39.000Z</time>
      </trkpt>
      <trkpt lat="45.87416" lon="5.41021">
        <ele>639</ele>
        <time>2021-02-20T15:21:40.000Z</time>
      </trkpt>
      <trkpt lat="45.87416" lon="5.41019">
        <ele>639.2</ele>
        <time>2021-02-20T15:21:41.000Z</time>
      </trkpt>
      <trkpt lat="45.87417" lon="5.41017">
        <ele>639.4</ele>
        <time>2021-02-20T15:21:42.000Z</time>
      </trkpt>
      <trkpt lat="45.87418" lon="5.41016">
        <ele>639.4</ele>
        <time>2021-02-20T15:21:43.000Z</time>
      </trkpt>
      <trkpt lat="45.87418" lon="5.41014">
        <ele>639.4</ele>
        <time>2021-02-20T15:21:44.000Z</time>
      </trkpt>
      <trkpt lat="45.87419" lon="5.41013">
        <ele>639.8</ele>
        <time>2021-02-20T15:21:45.000Z</time>
      </trkpt>
      <trkpt lat="45.8742" lon="5.41011">
        <ele>639.8</ele>
        <time>2021-02-20T15:21:46.000Z</time>
      </trkpt>
      <trkpt lat="45.8742" lon="5.4101">
        <ele>639.8</ele>
        <time>2021-02-20T15:21:47.000Z</time>
      </trkpt>
      <trkpt lat="45.87421" lon="5.41009">
        <ele>640.2</ele>
        <time>2021-02-20T15:21:48.000Z</time>
      </trkpt>
      <trkpt lat="45.87422" lon="5.41007">
        <ele>640.4</ele>
        <time>2021-02-20T15:21:49.000Z</time>
      </trkpt>
      <trkpt lat="45.87422" lon="5.41006">
        <ele>641</ele>
        <time>2021-02-20T15:21:50.000Z</time>
      </trkpt>
      <trkpt lat="45.87423" lon="5.41005">
        <ele>641.2</ele>
        <time>2021-02-20T15:21:51.000Z</time>
      </trkpt>
      <trkpt lat="45.87424" lon="5.41003">
        <ele>641.2</ele>
        <time>2021-02-20T15:21:52.000Z</time>
      </trkpt>
      <trkpt lat="45.87425" lon="5.41002">
        <ele>641.4</ele>
        <time>2021-02-20T15:21:53.000Z</time>
      </trkpt>
      <trkpt lat="45.87426" lon="5.41001">
        <ele>641.4</ele>
        <time>2021-02-20T15:21:54.000Z</time>
      </trkpt>
      <trkpt lat="45.87426" lon="5.40999">
        <ele>641.6</ele>
        <time>2021-02-20T15:21:55.000Z</time>
      </trkpt>
      <trkpt lat="45.87427" lon="5.40998">
        <ele>641.8</ele>
        <time>2021-02-20T15:21:56.000Z</time>
      </trkpt>
      <trkpt lat="45.87428" lon="5.40996">
        <ele>642.2</ele>
        <time>2021-02-20T15:21:57.000Z</time>
      </trkpt>
      <trkpt lat="45.87429" lon="5.40995">
        <ele>642.2</ele>
        <time>2021-02-20T15:21:58.000Z</time>
      </trkpt>
      <trkpt lat="45.8743" lon="5.40993">
        <ele>642.6</ele>
        <time>2021-02-20T15:21:59.000Z</time>
      </trkpt>
      <trkpt lat="45.87431" lon="5.40992">
        <ele>642.6</ele>
        <time>2021-02-20T15:22:00.000Z</time>
      </trkpt>
      <trkpt lat="45.87432" lon="5.4099">
        <ele>643</ele>
        <time>2021-02-20T15:22:01.000Z</time>
      </trkpt>
      <trkpt lat="45.87433" lon="5.40989">
        <ele>643.4</ele>
        <time>2021-02-20T15:22:02.000Z</time>
      </trkpt>
      <trkpt lat="45.87434" lon="5.40988">
        <ele>643.4</ele>
        <time>2021-02-20T15:22:03.000Z</time>
      </trkpt>
      <trkpt lat="45.87435" lon="5.40987">
        <ele>643.4</ele>
        <time>2021-02-20T15:22:04.000Z</time>
      </trkpt>
      <trkpt lat="45.87435" lon="5.40986">
        <ele>643.6</ele>
        <time>2021-02-20T15:22:05.000Z</time>
      </trkpt>
      <trkpt lat="45.87436" lon="5.40984">
        <ele>643.8</ele>
        <time>2021-02-20T15:22:06.000Z</time>
      </trkpt>
      <trkpt lat="45.87437" lon="5.40983">
        <ele>644</ele>
        <time>2021-02-20T15:22:07.000Z</time>
      </trkpt>
      <trkpt lat="45.87438" lon="5.40982">
        <ele>644.4</ele>
        <time>2021-02-20T15:22:08.000Z</time>
      </trkpt>
      <trkpt lat="45.87438" lon="5.40981">
        <ele>644.6</ele>
        <time>2021-02-20T15:22:09.000Z</time>
      </trkpt>
      <trkpt lat="45.87439" lon="5.4098">
        <ele>644.8</ele>
        <time>2021-02-20T15:22:10.000Z</time>
      </trkpt>
      <trkpt lat="45.8744" lon="5.40979">
        <ele>645</ele>
        <time>2021-02-20T15:22:11.000Z</time>
      </trkpt>
      <trkpt lat="45.87441" lon="5.40978">
        <ele>645.2</ele>
        <time>2021-02-20T15:22:12.000Z</time>
      </trkpt>
      <trkpt lat="45.87442" lon="5.40977">
        <ele>645.8</ele>
        <time>2021-02-20T15:22:13.000Z</time>
      </trkpt>
      <trkpt lat="45.87443" lon="5.40976">
        <ele>646.2</ele>
        <time>2021-02-20T15:22:14.000Z</time>
      </trkpt>
      <trkpt lat="45.87444" lon="5.40976">
        <ele>646.2</ele>
        <time>2021-02-20T15:22:15.000Z</time>
      </trkpt>
      <trkpt lat="45.87445" lon="5.40975">
        <ele>646.6</ele>
        <time>2021-02-20T15:22:16.000Z</time>
      </trkpt>
      <trkpt lat="45.87446" lon="5.40975">
        <ele>646.8</ele>
        <time>2021-02-20T15:22:17.000Z</time>
      </trkpt>
      <trkpt lat="45.87448" lon="5.40976">
        <ele>647</ele>
        <time>2021-02-20T15:22:18.000Z</time>
      </trkpt>
      <trkpt lat="45.87449" lon="5.40976">
        <ele>647</ele>
        <time>2021-02-20T15:22:19.000Z</time>
      </trkpt>
      <trkpt lat="45.8745" lon="5.40977">
        <ele>647.2</ele>
        <time>2021-02-20T15:22:20.000Z</time>
      </trkpt>
      <trkpt lat="45.87452" lon="5.40977">
        <ele>647.4</ele>
        <time>2021-02-20T15:22:21.000Z</time>
      </trkpt>
      <trkpt lat="45.87453" lon="5.40978">
        <ele>647.6</ele>
        <time>2021-02-20T15:22:22.000Z</time>
      </trkpt>
      <trkpt lat="45.87455" lon="5.40978">
        <ele>647.6</ele>
        <time>2021-02-20T15:22:23.000Z</time>
      </trkpt>
      <trkpt lat="45.87457" lon="5.40978">
        <ele>647.8</ele>
        <time>2021-02-20T15:22:24.000Z</time>
      </trkpt>
      <trkpt lat="45.87458" lon="5.40979">
        <ele>647.8</ele>
        <time>2021-02-20T15:22:25.000Z</time>
      </trkpt>
      <trkpt lat="45.87459" lon="5.40979">
        <ele>648.2</ele>
        <time>2021-02-20T15:22:26.000Z</time>
      </trkpt>
      <trkpt lat="45.87461" lon="5.4098">
        <ele>648.4</ele>
        <time>2021-02-20T15:22:27.000Z</time>
      </trkpt>
      <trkpt lat="45.87463" lon="5.40981">
        <ele>648.6</ele>
        <time>2021-02-20T15:22:28.000Z</time>
      </trkpt>
      <trkpt lat="45.87466" lon="5.40981">
        <ele>648.8</ele>
        <time>2021-02-20T15:22:29.000Z</time>
      </trkpt>
      <trkpt lat="45.87469" lon="5.4098">
        <ele>648.8</ele>
        <time>2021-02-20T15:22:30.000Z</time>
      </trkpt>
      <trkpt lat="45.87472" lon="5.40979">
        <ele>648.8</ele>
        <time>2021-02-20T15:22:31.000Z</time>
      </trkpt>
      <trkpt lat="45.87476" lon="5.40978">
        <ele>648.8</ele>
        <time>2021-02-20T15:22:32.000Z</time>
      </trkpt>
      <trkpt lat="45.87479" lon="5.40976">
        <ele>648.8</ele>
        <time>2021-02-20T15:22:33.000Z</time>
      </trkpt>
      <trkpt lat="45.87486" lon="5.40969">
        <ele>648.6</ele>
        <time>2021-02-20T15:22:35.000Z</time>
      </trkpt>
      <trkpt lat="45.87488" lon="5.40966">
        <ele>648.8</ele>
        <time>2021-02-20T15:22:36.000Z</time>
      </trkpt>
      <trkpt lat="45.8749" lon="5.40963">
        <ele>648.8</ele>
        <time>2021-02-20T15:22:37.000Z</time>
      </trkpt>
      <trkpt lat="45.87492" lon="5.40961">
        <ele>648.8</ele>
        <time>2021-02-20T15:22:38.000Z</time>
      </trkpt>
      <trkpt lat="45.87494" lon="5.40958">
        <ele>649</ele>
        <time>2021-02-20T15:22:39.000Z</time>
      </trkpt>
      <trkpt lat="45.87496" lon="5.40956">
        <ele>649</ele>
        <time>2021-02-20T15:22:40.000Z</time>
      </trkpt>
      <trkpt lat="45.87498" lon="5.40954">
        <ele>649</ele>
        <time>2021-02-20T15:22:41.000Z</time>
      </trkpt>
      <trkpt lat="45.875" lon="5.40952">
        <ele>649</ele>
        <time>2021-02-20T15:22:42.000Z</time>
      </trkpt>
      <trkpt lat="45.87502" lon="5.4095">
        <ele>649</ele>
        <time>2021-02-20T15:22:43.000Z</time>
      </trkpt>
      <trkpt lat="45.87504" lon="5.40948">
        <ele>649</ele>
        <time>2021-02-20T15:22:44.000Z</time>
      </trkpt>
      <trkpt lat="45.87506" lon="5.40946">
        <ele>648.8</ele>
        <time>2021-02-20T15:22:45.000Z</time>
      </trkpt>
      <trkpt lat="45.87507" lon="5.40945">
        <ele>649</ele>
        <time>2021-02-20T15:22:46.000Z</time>
      </trkpt>
      <trkpt lat="45.87512" lon="5.40939">
        <ele>649.2</ele>
        <time>2021-02-20T15:22:49.000Z</time>
      </trkpt>
      <trkpt lat="45.87513" lon="5.40936">
        <ele>649.6</ele>
        <time>2021-02-20T15:22:50.000Z</time>
      </trkpt>
      <trkpt lat="45.87514" lon="5.40934">
        <ele>649.8</ele>
        <time>2021-02-20T15:22:51.000Z</time>
      </trkpt>
      <trkpt lat="45.87516" lon="5.40931">
        <ele>650</ele>
        <time>2021-02-20T15:22:52.000Z</time>
      </trkpt>
      <trkpt lat="45.87517" lon="5.40929">
        <ele>650.4</ele>
        <time>2021-02-20T15:22:53.000Z</time>
      </trkpt>
      <trkpt lat="45.87517" lon="5.40928">
        <ele>650.6</ele>
        <time>2021-02-20T15:22:54.000Z</time>
      </trkpt>
      <trkpt lat="45.87518" lon="5.40926">
        <ele>650.6</ele>
        <time>2021-02-20T15:22:55.000Z</time>
      </trkpt>
      <trkpt lat="45.87519" lon="5.40925">
        <ele>650.8</ele>
        <time>2021-02-20T15:22:56.000Z</time>
      </trkpt>
      <trkpt lat="45.8752" lon="5.40923">
        <ele>651</ele>
        <time>2021-02-20T15:22:57.000Z</time>
      </trkpt>
      <trkpt lat="45.87522" lon="5.40922">
        <ele>651</ele>
        <time>2021-02-20T15:22:58.000Z</time>
      </trkpt>
      <trkpt lat="45.87523" lon="5.4092">
        <ele>651.2</ele>
        <time>2021-02-20T15:22:59.000Z</time>
      </trkpt>
      <trkpt lat="45.87525" lon="5.40919">
        <ele>651.6</ele>
        <time>2021-02-20T15:23:00.000Z</time>
      </trkpt>
      <trkpt lat="45.87527" lon="5.40917">
        <ele>651.8</ele>
        <time>2021-02-20T15:23:01.000Z</time>
      </trkpt>
      <trkpt lat="45.87529" lon="5.40916">
        <ele>651.8</ele>
        <time>2021-02-20T15:23:02.000Z</time>
      </trkpt>
      <trkpt lat="45.87531" lon="5.40915">
        <ele>652</ele>
        <time>2021-02-20T15:23:03.000Z</time>
      </trkpt>
      <trkpt lat="45.87533" lon="5.40914">
        <ele>652</ele>
        <time>2021-02-20T15:23:04.000Z</time>
      </trkpt>
      <trkpt lat="45.87534" lon="5.40913">
        <ele>652.6</ele>
        <time>2021-02-20T15:23:05.000Z</time>
      </trkpt>
      <trkpt lat="45.87535" lon="5.40912">
        <ele>652.8</ele>
        <time>2021-02-20T15:23:06.000Z</time>
      </trkpt>
      <trkpt lat="45.87537" lon="5.40911">
        <ele>653</ele>
        <time>2021-02-20T15:23:07.000Z</time>
      </trkpt>
      <trkpt lat="45.8754" lon="5.4091">
        <ele>653</ele>
        <time>2021-02-20T15:23:08.000Z</time>
      </trkpt>
      <trkpt lat="45.87543" lon="5.40908">
        <ele>653</ele>
        <time>2021-02-20T15:23:09.000Z</time>
      </trkpt>
      <trkpt lat="45.87546" lon="5.40907">
        <ele>653.2</ele>
        <time>2021-02-20T15:23:10.000Z</time>
      </trkpt>
      <trkpt lat="45.87549" lon="5.40905">
        <ele>653.2</ele>
        <time>2021-02-20T15:23:11.000Z</time>
      </trkpt>
      <trkpt lat="45.87552" lon="5.40904">
        <ele>653.4</ele>
        <time>2021-02-20T15:23:12.000Z</time>
      </trkpt>
      <trkpt lat="45.87555" lon="5.40902">
        <ele>653.2</ele>
        <time>2021-02-20T15:23:13.000Z</time>
      </trkpt>
      <trkpt lat="45.87561" lon="5.40896">
        <ele>653.4</ele>
        <time>2021-02-20T15:23:15.000Z</time>
      </trkpt>
      <trkpt lat="45.87563" lon="5.40892">
        <ele>653.4</ele>
        <time>2021-02-20T15:23:16.000Z</time>
      </trkpt>
      <trkpt lat="45.87565" lon="5.40889">
        <ele>653.4</ele>
        <time>2021-02-20T15:23:17.000Z</time>
      </trkpt>
      <trkpt lat="45.87567" lon="5.40886">
        <ele>653.4</ele>
        <time>2021-02-20T15:23:18.000Z</time>
      </trkpt>
      <trkpt lat="45.87569" lon="5.40883">
        <ele>653.4</ele>
        <time>2021-02-20T15:23:19.000Z</time>
      </trkpt>
      <trkpt lat="45.87571" lon="5.4088">
        <ele>653.6</ele>
        <time>2021-02-20T15:23:20.000Z</time>
      </trkpt>
      <trkpt lat="45.87573" lon="5.40878">
        <ele>653.4</ele>
        <time>2021-02-20T15:23:21.000Z</time>
      </trkpt>
      <trkpt lat="45.87575" lon="5.40875">
        <ele>653.4</ele>
        <time>2021-02-20T15:23:22.000Z</time>
      </trkpt>
      <trkpt lat="45.87581" lon="5.40868">
        <ele>653.6</ele>
        <time>2021-02-20T15:23:25.000Z</time>
      </trkpt>
      <trkpt lat="45.87583" lon="5.40866">
        <ele>653.6</ele>
        <time>2021-02-20T15:23:26.000Z</time>
      </trkpt>
      <trkpt lat="45.87585" lon="5.40863">
        <ele>654</ele>
        <time>2021-02-20T15:23:27.000Z</time>
      </trkpt>
      <trkpt lat="45.87587" lon="5.40862">
        <ele>654.4</ele>
        <time>2021-02-20T15:23:28.000Z</time>
      </trkpt>
      <trkpt lat="45.87588" lon="5.4086">
        <ele>654.8</ele>
        <time>2021-02-20T15:23:29.000Z</time>
      </trkpt>
      <trkpt lat="45.87589" lon="5.40859">
        <ele>655.2</ele>
        <time>2021-02-20T15:23:30.000Z</time>
      </trkpt>
      <trkpt lat="45.87591" lon="5.40858">
        <ele>655.4</ele>
        <time>2021-02-20T15:23:31.000Z</time>
      </trkpt>
      <trkpt lat="45.87592" lon="5.40856">
        <ele>655.6</ele>
        <time>2021-02-20T15:23:32.000Z</time>
      </trkpt>
      <trkpt lat="45.87593" lon="5.40855">
        <ele>655.6</ele>
        <time>2021-02-20T15:23:33.000Z</time>
      </trkpt>
      <trkpt lat="45.87595" lon="5.40852">
        <ele>656</ele>
        <time>2021-02-20T15:23:34.000Z</time>
      </trkpt>
      <trkpt lat="45.87597" lon="5.4085">
        <ele>656.2</ele>
        <time>2021-02-20T15:23:35.000Z</time>
      </trkpt>
      <trkpt lat="45.87598" lon="5.40848">
        <ele>656.6</ele>
        <time>2021-02-20T15:23:36.000Z</time>
      </trkpt>
      <trkpt lat="45.876" lon="5.40846">
        <ele>657</ele>
        <time>2021-02-20T15:23:37.000Z</time>
      </trkpt>
      <trkpt lat="45.87602" lon="5.40844">
        <ele>657.2</ele>
        <time>2021-02-20T15:23:38.000Z</time>
      </trkpt>
      <trkpt lat="45.87604" lon="5.40841">
        <ele>657.6</ele>
        <time>2021-02-20T15:23:39.000Z</time>
      </trkpt>
      <trkpt lat="45.87606" lon="5.40839">
        <ele>657.4</ele>
        <time>2021-02-20T15:23:40.000Z</time>
      </trkpt>
      <trkpt lat="45.87607" lon="5.40836">
        <ele>657.4</ele>
        <time>2021-02-20T15:23:41.000Z</time>
      </trkpt>
      <trkpt lat="45.87609" lon="5.40834">
        <ele>657.6</ele>
        <time>2021-02-20T15:23:42.000Z</time>
      </trkpt>
      <trkpt lat="45.8761" lon="5.40832">
        <ele>657.6</ele>
        <time>2021-02-20T15:23:43.000Z</time>
      </trkpt>
      <trkpt lat="45.87612" lon="5.40829">
        <ele>657.8</ele>
        <time>2021-02-20T15:23:44.000Z</time>
      </trkpt>
      <trkpt lat="45.87613" lon="5.40827">
        <ele>658</ele>
        <time>2021-02-20T15:23:45.000Z</time>
      </trkpt>
      <trkpt lat="45.87615" lon="5.40824">
        <ele>658.2</ele>
        <time>2021-02-20T15:23:46.000Z</time>
      </trkpt>
      <trkpt lat="45.87616" lon="5.40822">
        <ele>658.2</ele>
        <time>2021-02-20T15:23:47.000Z</time>
      </trkpt>
      <trkpt lat="45.87617" lon="5.4082">
        <ele>658.2</ele>
        <time>2021-02-20T15:23:48.000Z</time>
      </trkpt>
      <trkpt lat="45.87618" lon="5.40818">
        <ele>658.4</ele>
        <time>2021-02-20T15:23:49.000Z</time>
      </trkpt>
      <trkpt lat="45.8762" lon="5.40816">
        <ele>658.6</ele>
        <time>2021-02-20T15:23:50.000Z</time>
      </trkpt>
      <trkpt lat="45.87621" lon="5.40813">
        <ele>658.6</ele>
        <time>2021-02-20T15:23:51.000Z</time>
      </trkpt>
      <trkpt lat="45.87622" lon="5.40811">
        <ele>658.6</ele>
        <time>2021-02-20T15:23:52.000Z</time>
      </trkpt>
      <trkpt lat="45.87624" lon="5.40809">
        <ele>658.8</ele>
        <time>2021-02-20T15:23:53.000Z</time>
      </trkpt>
      <trkpt lat="45.87625" lon="5.40807">
        <ele>659.2</ele>
        <time>2021-02-20T15:23:54.000Z</time>
      </trkpt>
      <trkpt lat="45.87626" lon="5.40805">
        <ele>659.4</ele>
        <time>2021-02-20T15:23:55.000Z</time>
      </trkpt>
      <trkpt lat="45.87628" lon="5.40803">
        <ele>659.4</ele>
        <time>2021-02-20T15:23:56.000Z</time>
      </trkpt>
      <trkpt lat="45.87629" lon="5.40801">
        <ele>659.4</ele>
        <time>2021-02-20T15:23:57.000Z</time>
      </trkpt>
      <trkpt lat="45.8763" lon="5.40799">
        <ele>659.6</ele>
        <time>2021-02-20T15:23:58.000Z</time>
      </trkpt>
      <trkpt lat="45.87631" lon="5.40798">
        <ele>659.8</ele>
        <time>2021-02-20T15:23:59.000Z</time>
      </trkpt>
      <trkpt lat="45.87632" lon="5.40796">
        <ele>660</ele>
        <time>2021-02-20T15:24:00.000Z</time>
      </trkpt>
      <trkpt lat="45.87633" lon="5.40795">
        <ele>660.2</ele>
        <time>2021-02-20T15:24:01.000Z</time>
      </trkpt>
      <trkpt lat="45.87633" lon="5.40793">
        <ele>660.2</ele>
        <time>2021-02-20T15:24:02.000Z</time>
      </trkpt>
      <trkpt lat="45.87633" lon="5.40791">
        <ele>660.4</ele>
        <time>2021-02-20T15:24:03.000Z</time>
      </trkpt>
      <trkpt lat="45.87634" lon="5.4079">
        <ele>660.4</ele>
        <time>2021-02-20T15:24:04.000Z</time>
      </trkpt>
      <trkpt lat="45.87635" lon="5.40789">
        <ele>660.4</ele>
        <time>2021-02-20T15:24:05.000Z</time>
      </trkpt>
      <trkpt lat="45.87635" lon="5.40788">
        <ele>661</ele>
        <time>2021-02-20T15:24:06.000Z</time>
      </trkpt>
      <trkpt lat="45.87635" lon="5.40787">
        <ele>661.2</ele>
        <time>2021-02-20T15:24:07.000Z</time>
      </trkpt>
      <trkpt lat="45.87637" lon="5.40785">
        <ele>661.6</ele>
        <time>2021-02-20T15:24:08.000Z</time>
      </trkpt>
      <trkpt lat="45.87638" lon="5.40783">
        <ele>662</ele>
        <time>2021-02-20T15:24:09.000Z</time>
      </trkpt>
      <trkpt lat="45.8764" lon="5.40781">
        <ele>662.2</ele>
        <time>2021-02-20T15:24:10.000Z</time>
      </trkpt>
      <trkpt lat="45.87641" lon="5.40779">
        <ele>662.6</ele>
        <time>2021-02-20T15:24:11.000Z</time>
      </trkpt>
      <trkpt lat="45.87643" lon="5.40778">
        <ele>662.8</ele>
        <time>2021-02-20T15:24:12.000Z</time>
      </trkpt>
      <trkpt lat="45.87645" lon="5.40776">
        <ele>663.2</ele>
        <time>2021-02-20T15:24:13.000Z</time>
      </trkpt>
      <trkpt lat="45.87646" lon="5.40774">
        <ele>663.6</ele>
        <time>2021-02-20T15:24:14.000Z</time>
      </trkpt>
      <trkpt lat="45.87648" lon="5.40772">
        <ele>663.8</ele>
        <time>2021-02-20T15:24:15.000Z</time>
      </trkpt>
      <trkpt lat="45.8765" lon="5.4077">
        <ele>664.2</ele>
        <time>2021-02-20T15:24:16.000Z</time>
      </trkpt>
      <trkpt lat="45.87651" lon="5.40767">
        <ele>664.4</ele>
        <time>2021-02-20T15:24:17.000Z</time>
      </trkpt>
      <trkpt lat="45.87653" lon="5.40765">
        <ele>664.8</ele>
        <time>2021-02-20T15:24:18.000Z</time>
      </trkpt>
      <trkpt lat="45.87655" lon="5.40762">
        <ele>664.8</ele>
        <time>2021-02-20T15:24:19.000Z</time>
      </trkpt>
      <trkpt lat="45.87656" lon="5.4076">
        <ele>665</ele>
        <time>2021-02-20T15:24:20.000Z</time>
      </trkpt>
      <trkpt lat="45.87657" lon="5.40758">
        <ele>665</ele>
        <time>2021-02-20T15:24:21.000Z</time>
      </trkpt>
      <trkpt lat="45.87658" lon="5.40756">
        <ele>665.2</ele>
        <time>2021-02-20T15:24:22.000Z</time>
      </trkpt>
      <trkpt lat="45.8766" lon="5.40753">
        <ele>665.2</ele>
        <time>2021-02-20T15:24:23.000Z</time>
      </trkpt>
      <trkpt lat="45.87661" lon="5.40751">
        <ele>665.4</ele>
        <time>2021-02-20T15:24:24.000Z</time>
      </trkpt>
      <trkpt lat="45.87662" lon="5.40749">
        <ele>665.8</ele>
        <time>2021-02-20T15:24:25.000Z</time>
      </trkpt>
      <trkpt lat="45.87664" lon="5.40747">
        <ele>665.8</ele>
        <time>2021-02-20T15:24:26.000Z</time>
      </trkpt>
      <trkpt lat="45.87665" lon="5.40745">
        <ele>666</ele>
        <time>2021-02-20T15:24:27.000Z</time>
      </trkpt>
      <trkpt lat="45.87666" lon="5.40742">
        <ele>666.2</ele>
        <time>2021-02-20T15:24:28.000Z</time>
      </trkpt>
      <trkpt lat="45.87667" lon="5.4074">
        <ele>666.6</ele>
        <time>2021-02-20T15:24:29.000Z</time>
      </trkpt>
      <trkpt lat="45.87667" lon="5.40738">
        <ele>667</ele>
        <time>2021-02-20T15:24:30.000Z</time>
      </trkpt>
      <trkpt lat="45.87668" lon="5.40736">
        <ele>667.2</ele>
        <time>2021-02-20T15:24:31.000Z</time>
      </trkpt>
      <trkpt lat="45.8767" lon="5.40735">
        <ele>667.2</ele>
        <time>2021-02-20T15:24:32.000Z</time>
      </trkpt>
      <trkpt lat="45.87671" lon="5.40733">
        <ele>667.6</ele>
        <time>2021-02-20T15:24:33.000Z</time>
      </trkpt>
      <trkpt lat="45.87672" lon="5.40731">
        <ele>667.6</ele>
        <time>2021-02-20T15:24:34.000Z</time>
      </trkpt>
      <trkpt lat="45.87673" lon="5.40729">
        <ele>668</ele>
        <time>2021-02-20T15:24:35.000Z</time>
      </trkpt>
      <trkpt lat="45.87674" lon="5.40727">
        <ele>668.2</ele>
        <time>2021-02-20T15:24:36.000Z</time>
      </trkpt>
      <trkpt lat="45.87676" lon="5.40725">
        <ele>668.4</ele>
        <time>2021-02-20T15:24:37.000Z</time>
      </trkpt>
      <trkpt lat="45.87677" lon="5.40723">
        <ele>668.8</ele>
        <time>2021-02-20T15:24:38.000Z</time>
      </trkpt>
      <trkpt lat="45.87678" lon="5.40721">
        <ele>669</ele>
        <time>2021-02-20T15:24:39.000Z</time>
      </trkpt>
      <trkpt lat="45.87679" lon="5.40719">
        <ele>669.2</ele>
        <time>2021-02-20T15:24:40.000Z</time>
      </trkpt>
      <trkpt lat="45.8768" lon="5.40717">
        <ele>669.2</ele>
        <time>2021-02-20T15:24:41.000Z</time>
      </trkpt>
      <trkpt lat="45.87681" lon="5.40714">
        <ele>669.2</ele>
        <time>2021-02-20T15:24:42.000Z</time>
      </trkpt>
      <trkpt lat="45.87681" lon="5.40712">
        <ele>669.2</ele>
        <time>2021-02-20T15:24:43.000Z</time>
      </trkpt>
      <trkpt lat="45.87682" lon="5.40709">
        <ele>669.4</ele>
        <time>2021-02-20T15:24:44.000Z</time>
      </trkpt>
      <trkpt lat="45.87682" lon="5.40706">
        <ele>669.6</ele>
        <time>2021-02-20T15:24:45.000Z</time>
      </trkpt>
      <trkpt lat="45.87682" lon="5.40703">
        <ele>670</ele>
        <time>2021-02-20T15:24:46.000Z</time>
      </trkpt>
      <trkpt lat="45.87683" lon="5.407">
        <ele>670</ele>
        <time>2021-02-20T15:24:47.000Z</time>
      </trkpt>
      <trkpt lat="45.87685" lon="5.40698">
        <ele>670</ele>
        <time>2021-02-20T15:24:48.000Z</time>
      </trkpt>
      <trkpt lat="45.87686" lon="5.40696">
        <ele>670.2</ele>
        <time>2021-02-20T15:24:49.000Z</time>
      </trkpt>
      <trkpt lat="45.87689" lon="5.40695">
        <ele>670.4</ele>
        <time>2021-02-20T15:24:50.000Z</time>
      </trkpt>
      <trkpt lat="45.87691" lon="5.40693">
        <ele>670.8</ele>
        <time>2021-02-20T15:24:51.000Z</time>
      </trkpt>
      <trkpt lat="45.87693" lon="5.40691">
        <ele>671</ele>
        <time>2021-02-20T15:24:52.000Z</time>
      </trkpt>
      <trkpt lat="45.87695" lon="5.40688">
        <ele>671.2</ele>
        <time>2021-02-20T15:24:53.000Z</time>
      </trkpt>
      <trkpt lat="45.87696" lon="5.40685">
        <ele>671.4</ele>
        <time>2021-02-20T15:24:54.000Z</time>
      </trkpt>
      <trkpt lat="45.87697" lon="5.40682">
        <ele>671.6</ele>
        <time>2021-02-20T15:24:55.000Z</time>
      </trkpt>
      <trkpt lat="45.87698" lon="5.40679">
        <ele>671.8</ele>
        <time>2021-02-20T15:24:56.000Z</time>
      </trkpt>
      <trkpt lat="45.87698" lon="5.40676">
        <ele>672.2</ele>
        <time>2021-02-20T15:24:57.000Z</time>
      </trkpt>
      <trkpt lat="45.87699" lon="5.40673">
        <ele>672.2</ele>
        <time>2021-02-20T15:24:58.000Z</time>
      </trkpt>
      <trkpt lat="45.877" lon="5.40671">
        <ele>672.2</ele>
        <time>2021-02-20T15:24:59.000Z</time>
      </trkpt>
      <trkpt lat="45.877" lon="5.40669">
        <ele>672.4</ele>
        <time>2021-02-20T15:25:00.000Z</time>
      </trkpt>
      <trkpt lat="45.87702" lon="5.40667">
        <ele>672.4</ele>
        <time>2021-02-20T15:25:01.000Z</time>
      </trkpt>
      <trkpt lat="45.87703" lon="5.40665">
        <ele>672.4</ele>
        <time>2021-02-20T15:25:02.000Z</time>
      </trkpt>
      <trkpt lat="45.87704" lon="5.40662">
        <ele>672.4</ele>
        <time>2021-02-20T15:25:03.000Z</time>
      </trkpt>
      <trkpt lat="45.87706" lon="5.4066">
        <ele>672.4</ele>
        <time>2021-02-20T15:25:04.000Z</time>
      </trkpt>
      <trkpt lat="45.87707" lon="5.40658">
        <ele>672.6</ele>
        <time>2021-02-20T15:25:05.000Z</time>
      </trkpt>
      <trkpt lat="45.87708" lon="5.40656">
        <ele>672.6</ele>
        <time>2021-02-20T15:25:06.000Z</time>
      </trkpt>
      <trkpt lat="45.87709" lon="5.40654">
        <ele>672.6</ele>
        <time>2021-02-20T15:25:07.000Z</time>
      </trkpt>
      <trkpt lat="45.8771" lon="5.40652">
        <ele>673</ele>
        <time>2021-02-20T15:25:08.000Z</time>
      </trkpt>
      <trkpt lat="45.87711" lon="5.40649">
        <ele>673.2</ele>
        <time>2021-02-20T15:25:09.000Z</time>
      </trkpt>
      <trkpt lat="45.87713" lon="5.40647">
        <ele>673.2</ele>
        <time>2021-02-20T15:25:10.000Z</time>
      </trkpt>
      <trkpt lat="45.87714" lon="5.40645">
        <ele>673.4</ele>
        <time>2021-02-20T15:25:11.000Z</time>
      </trkpt>
      <trkpt lat="45.87716" lon="5.40643">
        <ele>673.4</ele>
        <time>2021-02-20T15:25:12.000Z</time>
      </trkpt>
      <trkpt lat="45.87718" lon="5.4064">
        <ele>673.6</ele>
        <time>2021-02-20T15:25:13.000Z</time>
      </trkpt>
      <trkpt lat="45.87721" lon="5.40637">
        <ele>673.8</ele>
        <time>2021-02-20T15:25:14.000Z</time>
      </trkpt>
      <trkpt lat="45.87723" lon="5.40634">
        <ele>674</ele>
        <time>2021-02-20T15:25:15.000Z</time>
      </trkpt>
      <trkpt lat="45.87725" lon="5.40631">
        <ele>674</ele>
        <time>2021-02-20T15:25:16.000Z</time>
      </trkpt>
      <trkpt lat="45.87727" lon="5.40628">
        <ele>674</ele>
        <time>2021-02-20T15:25:17.000Z</time>
      </trkpt>
      <trkpt lat="45.87729" lon="5.40626">
        <ele>674</ele>
        <time>2021-02-20T15:25:18.000Z</time>
      </trkpt>
      <trkpt lat="45.87731" lon="5.40623">
        <ele>674</ele>
        <time>2021-02-20T15:25:19.000Z</time>
      </trkpt>
      <trkpt lat="45.87733" lon="5.40621">
        <ele>674</ele>
        <time>2021-02-20T15:25:20.000Z</time>
      </trkpt>
      <trkpt lat="45.87735" lon="5.40618">
        <ele>673.8</ele>
        <time>2021-02-20T15:25:21.000Z</time>
      </trkpt>
      <trkpt lat="45.87739" lon="5.40612">
        <ele>674</ele>
        <time>2021-02-20T15:25:23.000Z</time>
      </trkpt>
      <trkpt lat="45.8774" lon="5.40607">
        <ele>674</ele>
        <time>2021-02-20T15:25:24.000Z</time>
      </trkpt>
      <trkpt lat="45.87741" lon="5.40602">
        <ele>674</ele>
        <time>2021-02-20T15:25:25.000Z</time>
      </trkpt>
      <trkpt lat="45.87741" lon="5.40596">
        <ele>674</ele>
        <time>2021-02-20T15:25:26.000Z</time>
      </trkpt>
      <trkpt lat="45.87742" lon="5.4059">
        <ele>673.8</ele>
        <time>2021-02-20T15:25:27.000Z</time>
      </trkpt>
      <trkpt lat="45.87743" lon="5.40584">
        <ele>674</ele>
        <time>2021-02-20T15:25:28.000Z</time>
      </trkpt>
      <trkpt lat="45.87751" lon="5.40551">
        <ele>673.2</ele>
        <time>2021-02-20T15:25:33.000Z</time>
      </trkpt>
      <trkpt lat="45.87751" lon="5.40544">
        <ele>672.8</ele>
        <time>2021-02-20T15:25:34.000Z</time>
      </trkpt>
      <trkpt lat="45.87752" lon="5.40538">
        <ele>672.6</ele>
        <time>2021-02-20T15:25:35.000Z</time>
      </trkpt>
      <trkpt lat="45.87753" lon="5.40532">
        <ele>672.4</ele>
        <time>2021-02-20T15:25:36.000Z</time>
      </trkpt>
      <trkpt lat="45.87753" lon="5.40526">
        <ele>672.2</ele>
        <time>2021-02-20T15:25:37.000Z</time>
      </trkpt>
      <trkpt lat="45.87753" lon="5.40521">
        <ele>672</ele>
        <time>2021-02-20T15:25:38.000Z</time>
      </trkpt>
      <trkpt lat="45.87753" lon="5.40515">
        <ele>671.8</ele>
        <time>2021-02-20T15:25:39.000Z</time>
      </trkpt>
      <trkpt lat="45.87752" lon="5.40502">
        <ele>671.8</ele>
        <time>2021-02-20T15:25:41.000Z</time>
      </trkpt>
      <trkpt lat="45.87753" lon="5.40496">
        <ele>671.6</ele>
        <time>2021-02-20T15:25:42.000Z</time>
      </trkpt>
      <trkpt lat="45.87754" lon="5.4049">
        <ele>671.4</ele>
        <time>2021-02-20T15:25:43.000Z</time>
      </trkpt>
      <trkpt lat="45.87755" lon="5.40484">
        <ele>671</ele>
        <time>2021-02-20T15:25:44.000Z</time>
      </trkpt>
      <trkpt lat="45.87756" lon="5.40479">
        <ele>670.8</ele>
        <time>2021-02-20T15:25:45.000Z</time>
      </trkpt>
      <trkpt lat="45.87757" lon="5.40474">
        <ele>670.4</ele>
        <time>2021-02-20T15:25:46.000Z</time>
      </trkpt>
      <trkpt lat="45.87757" lon="5.40468">
        <ele>670.4</ele>
        <time>2021-02-20T15:25:47.000Z</time>
      </trkpt>
      <trkpt lat="45.87756" lon="5.40464">
        <ele>670.4</ele>
        <time>2021-02-20T15:25:48.000Z</time>
      </trkpt>
      <trkpt lat="45.87755" lon="5.40459">
        <ele>670.2</ele>
        <time>2021-02-20T15:25:49.000Z</time>
      </trkpt>
      <trkpt lat="45.87753" lon="5.40455">
        <ele>670.2</ele>
        <time>2021-02-20T15:25:50.000Z</time>
      </trkpt>
      <trkpt lat="45.87753" lon="5.40446">
        <ele>670.4</ele>
        <time>2021-02-20T15:25:52.000Z</time>
      </trkpt>
      <trkpt lat="45.87754" lon="5.40443">
        <ele>670.2</ele>
        <time>2021-02-20T15:25:53.000Z</time>
      </trkpt>
      <trkpt lat="45.87755" lon="5.40439">
        <ele>670.2</ele>
        <time>2021-02-20T15:25:54.000Z</time>
      </trkpt>
      <trkpt lat="45.87756" lon="5.40437">
        <ele>670.2</ele>
        <time>2021-02-20T15:25:55.000Z</time>
      </trkpt>
      <trkpt lat="45.87757" lon="5.40434">
        <ele>670.2</ele>
        <time>2021-02-20T15:25:56.000Z</time>
      </trkpt>
      <trkpt lat="45.87762" lon="5.40425">
        <ele>670.4</ele>
        <time>2021-02-20T15:25:59.000Z</time>
      </trkpt>
      <trkpt lat="45.87765" lon="5.40419">
        <ele>670.4</ele>
        <time>2021-02-20T15:26:01.000Z</time>
      </trkpt>
      <trkpt lat="45.87766" lon="5.40417">
        <ele>670.6</ele>
        <time>2021-02-20T15:26:02.000Z</time>
      </trkpt>
      <trkpt lat="45.87768" lon="5.40414">
        <ele>670.8</ele>
        <time>2021-02-20T15:26:03.000Z</time>
      </trkpt>
      <trkpt lat="45.87769" lon="5.40411">
        <ele>671</ele>
        <time>2021-02-20T15:26:04.000Z</time>
      </trkpt>
      <trkpt lat="45.8777" lon="5.40409">
        <ele>671</ele>
        <time>2021-02-20T15:26:05.000Z</time>
      </trkpt>
      <trkpt lat="45.87771" lon="5.40406">
        <ele>671.2</ele>
        <time>2021-02-20T15:26:06.000Z</time>
      </trkpt>
      <trkpt lat="45.87772" lon="5.40404">
        <ele>671.4</ele>
        <time>2021-02-20T15:26:07.000Z</time>
      </trkpt>
      <trkpt lat="45.87773" lon="5.40402">
        <ele>671.6</ele>
        <time>2021-02-20T15:26:08.000Z</time>
      </trkpt>
      <trkpt lat="45.87774" lon="5.40399">
        <ele>671.8</ele>
        <time>2021-02-20T15:26:09.000Z</time>
      </trkpt>
      <trkpt lat="45.87775" lon="5.40397">
        <ele>672.6</ele>
        <time>2021-02-20T15:26:10.000Z</time>
      </trkpt>
      <trkpt lat="45.87776" lon="5.40394">
        <ele>673.2</ele>
        <time>2021-02-20T15:26:11.000Z</time>
      </trkpt>
      <trkpt lat="45.87777" lon="5.40392">
        <ele>673.4</ele>
        <time>2021-02-20T15:26:12.000Z</time>
      </trkpt>
      <trkpt lat="45.87778" lon="5.4039">
        <ele>673.8</ele>
        <time>2021-02-20T15:26:13.000Z</time>
      </trkpt>
      <trkpt lat="45.87779" lon="5.40387">
        <ele>674</ele>
        <time>2021-02-20T15:26:14.000Z</time>
      </trkpt>
      <trkpt lat="45.8778" lon="5.40385">
        <ele>674</ele>
        <time>2021-02-20T15:26:15.000Z</time>
      </trkpt>
      <trkpt lat="45.87781" lon="5.40382">
        <ele>674.6</ele>
        <time>2021-02-20T15:26:16.000Z</time>
      </trkpt>
      <trkpt lat="45.87782" lon="5.4038">
        <ele>675</ele>
        <time>2021-02-20T15:26:17.000Z</time>
      </trkpt>
      <trkpt lat="45.87783" lon="5.40378">
        <ele>675.4</ele>
        <time>2021-02-20T15:26:18.000Z</time>
      </trkpt>
      <trkpt lat="45.87783" lon="5.40376">
        <ele>675.4</ele>
        <time>2021-02-20T15:26:19.000Z</time>
      </trkpt>
      <trkpt lat="45.87784" lon="5.40373">
        <ele>675.6</ele>
        <time>2021-02-20T15:26:20.000Z</time>
      </trkpt>
      <trkpt lat="45.87785" lon="5.40371">
        <ele>675.8</ele>
        <time>2021-02-20T15:26:21.000Z</time>
      </trkpt>
      <trkpt lat="45.87786" lon="5.40368">
        <ele>676</ele>
        <time>2021-02-20T15:26:22.000Z</time>
      </trkpt>
      <trkpt lat="45.87787" lon="5.40366">
        <ele>676</ele>
        <time>2021-02-20T15:26:23.000Z</time>
      </trkpt>
      <trkpt lat="45.87788" lon="5.40363">
        <ele>676</ele>
        <time>2021-02-20T15:26:24.000Z</time>
      </trkpt>
      <trkpt lat="45.87789" lon="5.40361">
        <ele>676.2</ele>
        <time>2021-02-20T15:26:25.000Z</time>
      </trkpt>
      <trkpt lat="45.8779" lon="5.40359">
        <ele>676.4</ele>
        <time>2021-02-20T15:26:26.000Z</time>
      </trkpt>
      <trkpt lat="45.8779" lon="5.40357">
        <ele>676.6</ele>
        <time>2021-02-20T15:26:27.000Z</time>
      </trkpt>
      <trkpt lat="45.87791" lon="5.40355">
        <ele>677</ele>
        <time>2021-02-20T15:26:28.000Z</time>
      </trkpt>
      <trkpt lat="45.87792" lon="5.40353">
        <ele>677.2</ele>
        <time>2021-02-20T15:26:29.000Z</time>
      </trkpt>
      <trkpt lat="45.87793" lon="5.40351">
        <ele>677.6</ele>
        <time>2021-02-20T15:26:30.000Z</time>
      </trkpt>
      <trkpt lat="45.87794" lon="5.40349">
        <ele>677.8</ele>
        <time>2021-02-20T15:26:31.000Z</time>
      </trkpt>
      <trkpt lat="45.87795" lon="5.40346">
        <ele>678</ele>
        <time>2021-02-20T15:26:32.000Z</time>
      </trkpt>
      <trkpt lat="45.87796" lon="5.40344">
        <ele>678</ele>
        <time>2021-02-20T15:26:33.000Z</time>
      </trkpt>
      <trkpt lat="45.87797" lon="5.40342">
        <ele>678.4</ele>
        <time>2021-02-20T15:26:34.000Z</time>
      </trkpt>
      <trkpt lat="45.87797" lon="5.4034">
        <ele>678.6</ele>
        <time>2021-02-20T15:26:35.000Z</time>
      </trkpt>
      <trkpt lat="45.87798" lon="5.40338">
        <ele>678.8</ele>
        <time>2021-02-20T15:26:36.000Z</time>
      </trkpt>
      <trkpt lat="45.87799" lon="5.40335">
        <ele>679</ele>
        <time>2021-02-20T15:26:37.000Z</time>
      </trkpt>
      <trkpt lat="45.87799" lon="5.40333">
        <ele>679.2</ele>
        <time>2021-02-20T15:26:38.000Z</time>
      </trkpt>
      <trkpt lat="45.878" lon="5.40331">
        <ele>679.2</ele>
        <time>2021-02-20T15:26:39.000Z</time>
      </trkpt>
      <trkpt lat="45.87801" lon="5.40329">
        <ele>679.4</ele>
        <time>2021-02-20T15:26:40.000Z</time>
      </trkpt>
      <trkpt lat="45.87801" lon="5.40327">
        <ele>679.8</ele>
        <time>2021-02-20T15:26:41.000Z</time>
      </trkpt>
      <trkpt lat="45.87802" lon="5.40324">
        <ele>680.2</ele>
        <time>2021-02-20T15:26:42.000Z</time>
      </trkpt>
      <trkpt lat="45.87803" lon="5.40322">
        <ele>680.2</ele>
        <time>2021-02-20T15:26:43.000Z</time>
      </trkpt>
      <trkpt lat="45.87803" lon="5.4032">
        <ele>680.6</ele>
        <time>2021-02-20T15:26:44.000Z</time>
      </trkpt>
      <trkpt lat="45.87804" lon="5.40317">
        <ele>681.2</ele>
        <time>2021-02-20T15:26:45.000Z</time>
      </trkpt>
      <trkpt lat="45.87805" lon="5.40315">
        <ele>681.6</ele>
        <time>2021-02-20T15:26:46.000Z</time>
      </trkpt>
      <trkpt lat="45.87805" lon="5.40312">
        <ele>681.8</ele>
        <time>2021-02-20T15:26:47.000Z</time>
      </trkpt>
      <trkpt lat="45.87806" lon="5.4031">
        <ele>682.2</ele>
        <time>2021-02-20T15:26:48.000Z</time>
      </trkpt>
      <trkpt lat="45.87807" lon="5.40307">
        <ele>682.2</ele>
        <time>2021-02-20T15:26:49.000Z</time>
      </trkpt>
      <trkpt lat="45.87807" lon="5.40305">
        <ele>682.4</ele>
        <time>2021-02-20T15:26:50.000Z</time>
      </trkpt>
      <trkpt lat="45.87808" lon="5.40303">
        <ele>682.4</ele>
        <time>2021-02-20T15:26:51.000Z</time>
      </trkpt>
      <trkpt lat="45.87808" lon="5.403">
        <ele>682.6</ele>
        <time>2021-02-20T15:26:52.000Z</time>
      </trkpt>
      <trkpt lat="45.87809" lon="5.40297">
        <ele>682.6</ele>
        <time>2021-02-20T15:26:53.000Z</time>
      </trkpt>
      <trkpt lat="45.8781" lon="5.40293">
        <ele>683</ele>
        <time>2021-02-20T15:26:54.000Z</time>
      </trkpt>
      <trkpt lat="45.8781" lon="5.40289">
        <ele>683.4</ele>
        <time>2021-02-20T15:26:55.000Z</time>
      </trkpt>
      <trkpt lat="45.87811" lon="5.40285">
        <ele>683.6</ele>
        <time>2021-02-20T15:26:56.000Z</time>
      </trkpt>
      <trkpt lat="45.87811" lon="5.40282">
        <ele>683.8</ele>
        <time>2021-02-20T15:26:57.000Z</time>
      </trkpt>
      <trkpt lat="45.87812" lon="5.40279">
        <ele>684</ele>
        <time>2021-02-20T15:26:58.000Z</time>
      </trkpt>
      <trkpt lat="45.87812" lon="5.40276">
        <ele>684</ele>
        <time>2021-02-20T15:26:59.000Z</time>
      </trkpt>
      <trkpt lat="45.87813" lon="5.40272">
        <ele>684.2</ele>
        <time>2021-02-20T15:27:00.000Z</time>
      </trkpt>
      <trkpt lat="45.87814" lon="5.40269">
        <ele>684.2</ele>
        <time>2021-02-20T15:27:01.000Z</time>
      </trkpt>
      <trkpt lat="45.87814" lon="5.40266">
        <ele>684.2</ele>
        <time>2021-02-20T15:27:02.000Z</time>
      </trkpt>
      <trkpt lat="45.87815" lon="5.40262">
        <ele>684.4</ele>
        <time>2021-02-20T15:27:03.000Z</time>
      </trkpt>
      <trkpt lat="45.87816" lon="5.40259">
        <ele>684.6</ele>
        <time>2021-02-20T15:27:04.000Z</time>
      </trkpt>
      <trkpt lat="45.87816" lon="5.40256">
        <ele>684.6</ele>
        <time>2021-02-20T15:27:05.000Z</time>
      </trkpt>
      <trkpt lat="45.87817" lon="5.40252">
        <ele>685</ele>
        <time>2021-02-20T15:27:06.000Z</time>
      </trkpt>
      <trkpt lat="45.87818" lon="5.40249">
        <ele>685.2</ele>
        <time>2021-02-20T15:27:07.000Z</time>
      </trkpt>
      <trkpt lat="45.87819" lon="5.40246">
        <ele>685.2</ele>
        <time>2021-02-20T15:27:08.000Z</time>
      </trkpt>
      <trkpt lat="45.8782" lon="5.40242">
        <ele>685.4</ele>
        <time>2021-02-20T15:27:09.000Z</time>
      </trkpt>
      <trkpt lat="45.8782" lon="5.40239">
        <ele>685.8</ele>
        <time>2021-02-20T15:27:10.000Z</time>
      </trkpt>
      <trkpt lat="45.87821" lon="5.40235">
        <ele>686</ele>
        <time>2021-02-20T15:27:11.000Z</time>
      </trkpt>
      <trkpt lat="45.87822" lon="5.40232">
        <ele>686.2</ele>
        <time>2021-02-20T15:27:12.000Z</time>
      </trkpt>
      <trkpt lat="45.87822" lon="5.40228">
        <ele>686.2</ele>
        <time>2021-02-20T15:27:13.000Z</time>
      </trkpt>
      <trkpt lat="45.87824" lon="5.40225">
        <ele>686.4</ele>
        <time>2021-02-20T15:27:14.000Z</time>
      </trkpt>
      <trkpt lat="45.87825" lon="5.40221">
        <ele>686.4</ele>
        <time>2021-02-20T15:27:15.000Z</time>
      </trkpt>
      <trkpt lat="45.87826" lon="5.40218">
        <ele>686.6</ele>
        <time>2021-02-20T15:27:16.000Z</time>
      </trkpt>
      <trkpt lat="45.87827" lon="5.40214">
        <ele>686.8</ele>
        <time>2021-02-20T15:27:17.000Z</time>
      </trkpt>
      <trkpt lat="45.87828" lon="5.40211">
        <ele>686.8</ele>
        <time>2021-02-20T15:27:18.000Z</time>
      </trkpt>
      <trkpt lat="45.87829" lon="5.40208">
        <ele>686.8</ele>
        <time>2021-02-20T15:27:19.000Z</time>
      </trkpt>
      <trkpt lat="45.8783" lon="5.40205">
        <ele>687</ele>
        <time>2021-02-20T15:27:20.000Z</time>
      </trkpt>
      <trkpt lat="45.87831" lon="5.40201">
        <ele>687</ele>
        <time>2021-02-20T15:27:21.000Z</time>
      </trkpt>
      <trkpt lat="45.87832" lon="5.40197">
        <ele>687.2</ele>
        <time>2021-02-20T15:27:22.000Z</time>
      </trkpt>
      <trkpt lat="45.87833" lon="5.40194">
        <ele>687.2</ele>
        <time>2021-02-20T15:27:23.000Z</time>
      </trkpt>
      <trkpt lat="45.87834" lon="5.4019">
        <ele>687.4</ele>
        <time>2021-02-20T15:27:24.000Z</time>
      </trkpt>
      <trkpt lat="45.87836" lon="5.40186">
        <ele>687.4</ele>
        <time>2021-02-20T15:27:25.000Z</time>
      </trkpt>
      <trkpt lat="45.87837" lon="5.40183">
        <ele>687.4</ele>
        <time>2021-02-20T15:27:26.000Z</time>
      </trkpt>
      <trkpt lat="45.8784" lon="5.40172">
        <ele>687.4</ele>
        <time>2021-02-20T15:27:29.000Z</time>
      </trkpt>
      <trkpt lat="45.87842" lon="5.40164">
        <ele>687.4</ele>
        <time>2021-02-20T15:27:31.000Z</time>
      </trkpt>
      <trkpt lat="45.87847" lon="5.40153">
        <ele>687.6</ele>
        <time>2021-02-20T15:27:34.000Z</time>
      </trkpt>
      <trkpt lat="45.87849" lon="5.4015">
        <ele>687.8</ele>
        <time>2021-02-20T15:27:35.000Z</time>
      </trkpt>
      <trkpt lat="45.87853" lon="5.40145">
        <ele>687.8</ele>
        <time>2021-02-20T15:27:37.000Z</time>
      </trkpt>
      <trkpt lat="45.87855" lon="5.40142">
        <ele>687.8</ele>
        <time>2021-02-20T15:27:38.000Z</time>
      </trkpt>
      <trkpt lat="45.87857" lon="5.4014">
        <ele>687.8</ele>
        <time>2021-02-20T15:27:39.000Z</time>
      </trkpt>
      <trkpt lat="45.87859" lon="5.40138">
        <ele>687.8</ele>
        <time>2021-02-20T15:27:40.000Z</time>
      </trkpt>
      <trkpt lat="45.87861" lon="5.40135">
        <ele>688.2</ele>
        <time>2021-02-20T15:27:41.000Z</time>
      </trkpt>
      <trkpt lat="45.87863" lon="5.40133">
        <ele>688.2</ele>
        <time>2021-02-20T15:27:42.000Z</time>
      </trkpt>
      <trkpt lat="45.87865" lon="5.40131">
        <ele>688.2</ele>
        <time>2021-02-20T15:27:43.000Z</time>
      </trkpt>
      <trkpt lat="45.87872" lon="5.40123">
        <ele>689</ele>
        <time>2021-02-20T15:27:46.000Z</time>
      </trkpt>
      <trkpt lat="45.87877" lon="5.40118">
        <ele>689.2</ele>
        <time>2021-02-20T15:27:48.000Z</time>
      </trkpt>
      <trkpt lat="45.8788" lon="5.40116">
        <ele>689.2</ele>
        <time>2021-02-20T15:27:49.000Z</time>
      </trkpt>
      <trkpt lat="45.87883" lon="5.40115">
        <ele>689.2</ele>
        <time>2021-02-20T15:27:50.000Z</time>
      </trkpt>
      <trkpt lat="45.87886" lon="5.40113">
        <ele>689.2</ele>
        <time>2021-02-20T15:27:51.000Z</time>
      </trkpt>
      <trkpt lat="45.87888" lon="5.40113">
        <ele>689.4</ele>
        <time>2021-02-20T15:27:52.000Z</time>
      </trkpt>
      <trkpt lat="45.87891" lon="5.40112">
        <ele>689.6</ele>
        <time>2021-02-20T15:27:53.000Z</time>
      </trkpt>
      <trkpt lat="45.87893" lon="5.40111">
        <ele>689.6</ele>
        <time>2021-02-20T15:27:54.000Z</time>
      </trkpt>
      <trkpt lat="45.87895" lon="5.4011">
        <ele>689.8</ele>
        <time>2021-02-20T15:27:55.000Z</time>
      </trkpt>
      <trkpt lat="45.87897" lon="5.40109">
        <ele>689.8</ele>
        <time>2021-02-20T15:27:56.000Z</time>
      </trkpt>
      <trkpt lat="45.87899" lon="5.40109">
        <ele>689.8</ele>
        <time>2021-02-20T15:27:57.000Z</time>
      </trkpt>
      <trkpt lat="45.87901" lon="5.40108">
        <ele>689.8</ele>
        <time>2021-02-20T15:27:58.000Z</time>
      </trkpt>
      <trkpt lat="45.87905" lon="5.40108">
        <ele>690</ele>
        <time>2021-02-20T15:28:00.000Z</time>
      </trkpt>
      <trkpt lat="45.87916" lon="5.40105">
        <ele>690.2</ele>
        <time>2021-02-20T15:28:04.000Z</time>
      </trkpt>
      <trkpt lat="45.8792" lon="5.40103">
        <ele>690</ele>
        <time>2021-02-20T15:28:05.000Z</time>
      </trkpt>
      <trkpt lat="45.87925" lon="5.40102">
        <ele>690</ele>
        <time>2021-02-20T15:28:06.000Z</time>
      </trkpt>
      <trkpt lat="45.87929" lon="5.40101">
        <ele>690</ele>
        <time>2021-02-20T15:28:07.000Z</time>
      </trkpt>
      <trkpt lat="45.87935" lon="5.40099">
        <ele>690</ele>
        <time>2021-02-20T15:28:08.000Z</time>
      </trkpt>
      <trkpt lat="45.87946" lon="5.40097">
        <ele>690</ele>
        <time>2021-02-20T15:28:10.000Z</time>
      </trkpt>
      <trkpt lat="45.8797" lon="5.40093">
        <ele>688.4</ele>
        <time>2021-02-20T15:28:14.000Z</time>
      </trkpt>
      <trkpt lat="45.87977" lon="5.40091">
        <ele>687.2</ele>
        <time>2021-02-20T15:28:15.000Z</time>
      </trkpt>
      <trkpt lat="45.87983" lon="5.40087">
        <ele>685.8</ele>
        <time>2021-02-20T15:28:16.000Z</time>
      </trkpt>
      <trkpt lat="45.87989" lon="5.40083">
        <ele>684</ele>
        <time>2021-02-20T15:28:17.000Z</time>
      </trkpt>
      <trkpt lat="45.87994" lon="5.40079">
        <ele>682.6</ele>
        <time>2021-02-20T15:28:18.000Z</time>
      </trkpt>
      <trkpt lat="45.87999" lon="5.40074">
        <ele>681.8</ele>
        <time>2021-02-20T15:28:19.000Z</time>
      </trkpt>
      <trkpt lat="45.88004" lon="5.40071">
        <ele>681.6</ele>
        <time>2021-02-20T15:28:20.000Z</time>
      </trkpt>
      <trkpt lat="45.88008" lon="5.40067">
        <ele>681.2</ele>
        <time>2021-02-20T15:28:21.000Z</time>
      </trkpt>
      <trkpt lat="45.88012" lon="5.40064">
        <ele>681.2</ele>
        <time>2021-02-20T15:28:22.000Z</time>
      </trkpt>
      <trkpt lat="45.88015" lon="5.40063">
        <ele>681.2</ele>
        <time>2021-02-20T15:28:23.000Z</time>
      </trkpt>
      <trkpt lat="45.88018" lon="5.40061">
        <ele>681.2</ele>
        <time>2021-02-20T15:28:24.000Z</time>
      </trkpt>
      <trkpt lat="45.88021" lon="5.40061">
        <ele>681.2</ele>
        <time>2021-02-20T15:28:25.000Z</time>
      </trkpt>
      <trkpt lat="45.88024" lon="5.4006">
        <ele>681.2</ele>
        <time>2021-02-20T15:28:26.000Z</time>
      </trkpt>
      <trkpt lat="45.88026" lon="5.4006">
        <ele>681</ele>
        <time>2021-02-20T15:28:27.000Z</time>
      </trkpt>
      <trkpt lat="45.88029" lon="5.40059">
        <ele>681.2</ele>
        <time>2021-02-20T15:28:28.000Z</time>
      </trkpt>
      <trkpt lat="45.8803" lon="5.40059">
        <ele>681.2</ele>
        <time>2021-02-20T15:28:29.000Z</time>
      </trkpt>
      <trkpt lat="45.88031" lon="5.40058">
        <ele>681.6</ele>
        <time>2021-02-20T15:28:30.000Z</time>
      </trkpt>
      <trkpt lat="45.88032" lon="5.40058">
        <ele>682.4</ele>
        <time>2021-02-20T15:28:31.000Z</time>
      </trkpt>
      <trkpt lat="45.88036" lon="5.40059">
        <ele>683</ele>
        <time>2021-02-20T15:28:33.000Z</time>
      </trkpt>
      <trkpt lat="45.88038" lon="5.4006">
        <ele>683.4</ele>
        <time>2021-02-20T15:28:34.000Z</time>
      </trkpt>
      <trkpt lat="45.88051" lon="5.40065">
        <ele>683.4</ele>
        <time>2021-02-20T15:28:38.000Z</time>
      </trkpt>
      <trkpt lat="45.8806" lon="5.40068">
        <ele>683.4</ele>
        <time>2021-02-20T15:28:41.000Z</time>
      </trkpt>
      <trkpt lat="45.88064" lon="5.4007">
        <ele>683.4</ele>
        <time>2021-02-20T15:28:42.000Z</time>
      </trkpt>
      <trkpt lat="45.88068" lon="5.40071">
        <ele>683</ele>
        <time>2021-02-20T15:28:43.000Z</time>
      </trkpt>
      <trkpt lat="45.88073" lon="5.40072">
        <ele>682.6</ele>
        <time>2021-02-20T15:28:44.000Z</time>
      </trkpt>
      <trkpt lat="45.88079" lon="5.40072">
        <ele>682.4</ele>
        <time>2021-02-20T15:28:45.000Z</time>
      </trkpt>
      <trkpt lat="45.88089" lon="5.40073">
        <ele>682</ele>
        <time>2021-02-20T15:28:47.000Z</time>
      </trkpt>
      <trkpt lat="45.88095" lon="5.40072">
        <ele>681.2</ele>
        <time>2021-02-20T15:28:48.000Z</time>
      </trkpt>
      <trkpt lat="45.88107" lon="5.40071">
        <ele>680.2</ele>
        <time>2021-02-20T15:28:50.000Z</time>
      </trkpt>
      <trkpt lat="45.88114" lon="5.4007">
        <ele>678.8</ele>
        <time>2021-02-20T15:28:51.000Z</time>
      </trkpt>
      <trkpt lat="45.88121" lon="5.40067">
        <ele>677.4</ele>
        <time>2021-02-20T15:28:52.000Z</time>
      </trkpt>
      <trkpt lat="45.88134" lon="5.40063">
        <ele>674.6</ele>
        <time>2021-02-20T15:28:54.000Z</time>
      </trkpt>
      <trkpt lat="45.88141" lon="5.4006">
        <ele>673.8</ele>
        <time>2021-02-20T15:28:55.000Z</time>
      </trkpt>
      <trkpt lat="45.88152" lon="5.40055">
        <ele>672.4</ele>
        <time>2021-02-20T15:28:57.000Z</time>
      </trkpt>
      <trkpt lat="45.88158" lon="5.40052">
        <ele>672</ele>
        <time>2021-02-20T15:28:58.000Z</time>
      </trkpt>
      <trkpt lat="45.88165" lon="5.40049">
        <ele>671.2</ele>
        <time>2021-02-20T15:28:59.000Z</time>
      </trkpt>
      <trkpt lat="45.88188" lon="5.4004">
        <ele>667.6</ele>
        <time>2021-02-20T15:29:02.000Z</time>
      </trkpt>
      <trkpt lat="45.88196" lon="5.40038">
        <ele>666.2</ele>
        <time>2021-02-20T15:29:03.000Z</time>
      </trkpt>
      <trkpt lat="45.88204" lon="5.40037">
        <ele>665.4</ele>
        <time>2021-02-20T15:29:04.000Z</time>
      </trkpt>
      <trkpt lat="45.88212" lon="5.40036">
        <ele>664</ele>
        <time>2021-02-20T15:29:05.000Z</time>
      </trkpt>
      <trkpt lat="45.88219" lon="5.40034">
        <ele>663.2</ele>
        <time>2021-02-20T15:29:06.000Z</time>
      </trkpt>
      <trkpt lat="45.88226" lon="5.40031">
        <ele>661.6</ele>
        <time>2021-02-20T15:29:07.000Z</time>
      </trkpt>
      <trkpt lat="45.88238" lon="5.4002">
        <ele>659</ele>
        <time>2021-02-20T15:29:09.000Z</time>
      </trkpt>
      <trkpt lat="45.88243" lon="5.40012">
        <ele>658</ele>
        <time>2021-02-20T15:29:10.000Z</time>
      </trkpt>
      <trkpt lat="45.88248" lon="5.40004">
        <ele>656.6</ele>
        <time>2021-02-20T15:29:11.000Z</time>
      </trkpt>
      <trkpt lat="45.88251" lon="5.39996">
        <ele>655.8</ele>
        <time>2021-02-20T15:29:12.000Z</time>
      </trkpt>
      <trkpt lat="45.88254" lon="5.39987">
        <ele>655.2</ele>
        <time>2021-02-20T15:29:13.000Z</time>
      </trkpt>
      <trkpt lat="45.88258" lon="5.3998">
        <ele>654.4</ele>
        <time>2021-02-20T15:29:14.000Z</time>
      </trkpt>
      <trkpt lat="45.88263" lon="5.39972">
        <ele>653</ele>
        <time>2021-02-20T15:29:15.000Z</time>
      </trkpt>
      <trkpt lat="45.88273" lon="5.39959">
        <ele>651.6</ele>
        <time>2021-02-20T15:29:17.000Z</time>
      </trkpt>
      <trkpt lat="45.88279" lon="5.39954">
        <ele>651.2</ele>
        <time>2021-02-20T15:29:18.000Z</time>
      </trkpt>
      <trkpt lat="45.88285" lon="5.39949">
        <ele>650.8</ele>
        <time>2021-02-20T15:29:19.000Z</time>
      </trkpt>
      <trkpt lat="45.8829" lon="5.39947">
        <ele>650.6</ele>
        <time>2021-02-20T15:29:20.000Z</time>
      </trkpt>
      <trkpt lat="45.88295" lon="5.39944">
        <ele>650.6</ele>
        <time>2021-02-20T15:29:21.000Z</time>
      </trkpt>
      <trkpt lat="45.883" lon="5.39941">
        <ele>650.2</ele>
        <time>2021-02-20T15:29:22.000Z</time>
      </trkpt>
      <trkpt lat="45.88307" lon="5.39939">
        <ele>650</ele>
        <time>2021-02-20T15:29:23.000Z</time>
      </trkpt>
      <trkpt lat="45.88312" lon="5.39935">
        <ele>649.4</ele>
        <time>2021-02-20T15:29:24.000Z</time>
      </trkpt>
      <trkpt lat="45.88329" lon="5.39922">
        <ele>648</ele>
        <time>2021-02-20T15:29:27.000Z</time>
      </trkpt>
      <trkpt lat="45.88334" lon="5.39917">
        <ele>647.8</ele>
        <time>2021-02-20T15:29:28.000Z</time>
      </trkpt>
      <trkpt lat="45.88339" lon="5.39914">
        <ele>647.6</ele>
        <time>2021-02-20T15:29:29.000Z</time>
      </trkpt>
      <trkpt lat="45.88343" lon="5.3991">
        <ele>647.2</ele>
        <time>2021-02-20T15:29:30.000Z</time>
      </trkpt>
      <trkpt lat="45.88346" lon="5.39907">
        <ele>647</ele>
        <time>2021-02-20T15:29:31.000Z</time>
      </trkpt>
      <trkpt lat="45.88349" lon="5.39903">
        <ele>646.8</ele>
        <time>2021-02-20T15:29:32.000Z</time>
      </trkpt>
      <trkpt lat="45.88352" lon="5.39899">
        <ele>646.4</ele>
        <time>2021-02-20T15:29:33.000Z</time>
      </trkpt>
      <trkpt lat="45.88356" lon="5.39895">
        <ele>645.8</ele>
        <time>2021-02-20T15:29:34.000Z</time>
      </trkpt>
      <trkpt lat="45.88359" lon="5.3989">
        <ele>645.8</ele>
        <time>2021-02-20T15:29:35.000Z</time>
      </trkpt>
      <trkpt lat="45.88362" lon="5.39886">
        <ele>645.4</ele>
        <time>2021-02-20T15:29:36.000Z</time>
      </trkpt>
      <trkpt lat="45.88366" lon="5.3988">
        <ele>644.6</ele>
        <time>2021-02-20T15:29:37.000Z</time>
      </trkpt>
      <trkpt lat="45.88368" lon="5.39874">
        <ele>644.4</ele>
        <time>2021-02-20T15:29:38.000Z</time>
      </trkpt>
      <trkpt lat="45.88372" lon="5.39869">
        <ele>644.2</ele>
        <time>2021-02-20T15:29:39.000Z</time>
      </trkpt>
      <trkpt lat="45.88382" lon="5.39857">
        <ele>643.8</ele>
        <time>2021-02-20T15:29:41.000Z</time>
      </trkpt>
      <trkpt lat="45.88391" lon="5.39846">
        <ele>642.8</ele>
        <time>2021-02-20T15:29:43.000Z</time>
      </trkpt>
      <trkpt lat="45.88395" lon="5.39841">
        <ele>642</ele>
        <time>2021-02-20T15:29:44.000Z</time>
      </trkpt>
      <trkpt lat="45.88399" lon="5.39836">
        <ele>641.2</ele>
        <time>2021-02-20T15:29:45.000Z</time>
      </trkpt>
      <trkpt lat="45.88405" lon="5.39825">
        <ele>639</ele>
        <time>2021-02-20T15:29:47.000Z</time>
      </trkpt>
      <trkpt lat="45.88408" lon="5.3982">
        <ele>638</ele>
        <time>2021-02-20T15:29:48.000Z</time>
      </trkpt>
      <trkpt lat="45.88412" lon="5.39815">
        <ele>636.8</ele>
        <time>2021-02-20T15:29:49.000Z</time>
      </trkpt>
      <trkpt lat="45.88416" lon="5.3981">
        <ele>636</ele>
        <time>2021-02-20T15:29:50.000Z</time>
      </trkpt>
      <trkpt lat="45.88419" lon="5.39805">
        <ele>635.6</ele>
        <time>2021-02-20T15:29:51.000Z</time>
      </trkpt>
      <trkpt lat="45.88423" lon="5.398">
        <ele>635.2</ele>
        <time>2021-02-20T15:29:52.000Z</time>
      </trkpt>
      <trkpt lat="45.88437" lon="5.39781">
        <ele>632.8</ele>
        <time>2021-02-20T15:29:55.000Z</time>
      </trkpt>
      <trkpt lat="45.8844" lon="5.39775">
        <ele>632</ele>
        <time>2021-02-20T15:29:56.000Z</time>
      </trkpt>
      <trkpt lat="45.88443" lon="5.39769">
        <ele>631.2</ele>
        <time>2021-02-20T15:29:57.000Z</time>
      </trkpt>
      <trkpt lat="45.88446" lon="5.39763">
        <ele>630.2</ele>
        <time>2021-02-20T15:29:58.000Z</time>
      </trkpt>
      <trkpt lat="45.88451" lon="5.3975">
        <ele>629.6</ele>
        <time>2021-02-20T15:30:00.000Z</time>
      </trkpt>
      <trkpt lat="45.88455" lon="5.39743">
        <ele>628.6</ele>
        <time>2021-02-20T15:30:01.000Z</time>
      </trkpt>
      <trkpt lat="45.88458" lon="5.39737">
        <ele>627.4</ele>
        <time>2021-02-20T15:30:02.000Z</time>
      </trkpt>
      <trkpt lat="45.8846" lon="5.39733">
        <ele>626.6</ele>
        <time>2021-02-20T15:30:03.000Z</time>
      </trkpt>
      <trkpt lat="45.88462" lon="5.39729">
        <ele>626</ele>
        <time>2021-02-20T15:30:04.000Z</time>
      </trkpt>
      <trkpt lat="45.88465" lon="5.39726">
        <ele>625.2</ele>
        <time>2021-02-20T15:30:05.000Z</time>
      </trkpt>
      <trkpt lat="45.88468" lon="5.39722">
        <ele>624.6</ele>
        <time>2021-02-20T15:30:06.000Z</time>
      </trkpt>
      <trkpt lat="45.88471" lon="5.39716">
        <ele>624</ele>
        <time>2021-02-20T15:30:07.000Z</time>
      </trkpt>
      <trkpt lat="45.88474" lon="5.39711">
        <ele>623</ele>
        <time>2021-02-20T15:30:08.000Z</time>
      </trkpt>
      <trkpt lat="45.88477" lon="5.39705">
        <ele>622.4</ele>
        <time>2021-02-20T15:30:09.000Z</time>
      </trkpt>
      <trkpt lat="45.88479" lon="5.39699">
        <ele>622</ele>
        <time>2021-02-20T15:30:10.000Z</time>
      </trkpt>
      <trkpt lat="45.88482" lon="5.39694">
        <ele>621.4</ele>
        <time>2021-02-20T15:30:11.000Z</time>
      </trkpt>
      <trkpt lat="45.88484" lon="5.39688">
        <ele>621</ele>
        <time>2021-02-20T15:30:12.000Z</time>
      </trkpt>
      <trkpt lat="45.88489" lon="5.39677">
        <ele>620.4</ele>
        <time>2021-02-20T15:30:14.000Z</time>
      </trkpt>
      <trkpt lat="45.88493" lon="5.39671">
        <ele>619.6</ele>
        <time>2021-02-20T15:30:15.000Z</time>
      </trkpt>
      <trkpt lat="45.88496" lon="5.39663">
        <ele>618.8</ele>
        <time>2021-02-20T15:30:16.000Z</time>
      </trkpt>
      <trkpt lat="45.88499" lon="5.39656">
        <ele>618</ele>
        <time>2021-02-20T15:30:17.000Z</time>
      </trkpt>
      <trkpt lat="45.88501" lon="5.39649">
        <ele>617.2</ele>
        <time>2021-02-20T15:30:18.000Z</time>
      </trkpt>
      <trkpt lat="45.88503" lon="5.39643">
        <ele>616.2</ele>
        <time>2021-02-20T15:30:19.000Z</time>
      </trkpt>
      <trkpt lat="45.88508" lon="5.39629">
        <ele>615</ele>
        <time>2021-02-20T15:30:21.000Z</time>
      </trkpt>
      <trkpt lat="45.88512" lon="5.39623">
        <ele>614.2</ele>
        <time>2021-02-20T15:30:22.000Z</time>
      </trkpt>
      <trkpt lat="45.88523" lon="5.39605">
        <ele>612</ele>
        <time>2021-02-20T15:30:25.000Z</time>
      </trkpt>
      <trkpt lat="45.88526" lon="5.39598">
        <ele>610.6</ele>
        <time>2021-02-20T15:30:26.000Z</time>
      </trkpt>
      <trkpt lat="45.88527" lon="5.39592">
        <ele>609.8</ele>
        <time>2021-02-20T15:30:27.000Z</time>
      </trkpt>
      <trkpt lat="45.8853" lon="5.39586">
        <ele>609.4</ele>
        <time>2021-02-20T15:30:28.000Z</time>
      </trkpt>
      <trkpt lat="45.88533" lon="5.3958">
        <ele>608.4</ele>
        <time>2021-02-20T15:30:29.000Z</time>
      </trkpt>
      <trkpt lat="45.88537" lon="5.39575">
        <ele>607.4</ele>
        <time>2021-02-20T15:30:30.000Z</time>
      </trkpt>
      <trkpt lat="45.8854" lon="5.3957">
        <ele>606.4</ele>
        <time>2021-02-20T15:30:31.000Z</time>
      </trkpt>
      <trkpt lat="45.88544" lon="5.39564">
        <ele>605.8</ele>
        <time>2021-02-20T15:30:32.000Z</time>
      </trkpt>
      <trkpt lat="45.88549" lon="5.39557">
        <ele>605.2</ele>
        <time>2021-02-20T15:30:33.000Z</time>
      </trkpt>
      <trkpt lat="45.88553" lon="5.39551">
        <ele>604.2</ele>
        <time>2021-02-20T15:30:34.000Z</time>
      </trkpt>
      <trkpt lat="45.88556" lon="5.39546">
        <ele>604</ele>
        <time>2021-02-20T15:30:35.000Z</time>
      </trkpt>
      <trkpt lat="45.88559" lon="5.39542">
        <ele>603</ele>
        <time>2021-02-20T15:30:36.000Z</time>
      </trkpt>
      <trkpt lat="45.88561" lon="5.3954">
        <ele>602</ele>
        <time>2021-02-20T15:30:37.000Z</time>
      </trkpt>
      <trkpt lat="45.8856" lon="5.39527">
        <ele>596.4</ele>
        <time>2021-02-20T15:30:51.000Z</time>
      </trkpt>
      <trkpt lat="45.8856" lon="5.39525">
        <ele>596.2</ele>
        <time>2021-02-20T15:30:52.000Z</time>
      </trkpt>
      <trkpt lat="45.8856" lon="5.39522">
        <ele>596.4</ele>
        <time>2021-02-20T15:30:53.000Z</time>
      </trkpt>
      <trkpt lat="45.88561" lon="5.39519">
        <ele>596.2</ele>
        <time>2021-02-20T15:30:54.000Z</time>
      </trkpt>
      <trkpt lat="45.88563" lon="5.39516">
        <ele>596.2</ele>
        <time>2021-02-20T15:30:55.000Z</time>
      </trkpt>
      <trkpt lat="45.88566" lon="5.3951">
        <ele>596.2</ele>
        <time>2021-02-20T15:30:56.000Z</time>
      </trkpt>
      <trkpt lat="45.88568" lon="5.39503">
        <ele>596</ele>
        <time>2021-02-20T15:30:57.000Z</time>
      </trkpt>
      <trkpt lat="45.8857" lon="5.39497">
        <ele>596.2</ele>
        <time>2021-02-20T15:30:58.000Z</time>
      </trkpt>
      <trkpt lat="45.88573" lon="5.39489">
        <ele>596</ele>
        <time>2021-02-20T15:30:59.000Z</time>
      </trkpt>
      <trkpt lat="45.88575" lon="5.39483">
        <ele>595.6</ele>
        <time>2021-02-20T15:31:00.000Z</time>
      </trkpt>
      <trkpt lat="45.88576" lon="5.39476">
        <ele>595.2</ele>
        <time>2021-02-20T15:31:01.000Z</time>
      </trkpt>
      <trkpt lat="45.88577" lon="5.39471">
        <ele>594.6</ele>
        <time>2021-02-20T15:31:02.000Z</time>
      </trkpt>
      <trkpt lat="45.8858" lon="5.3946">
        <ele>593.6</ele>
        <time>2021-02-20T15:31:04.000Z</time>
      </trkpt>
      <trkpt lat="45.88581" lon="5.39454">
        <ele>593.6</ele>
        <time>2021-02-20T15:31:05.000Z</time>
      </trkpt>
      <trkpt lat="45.88583" lon="5.39449">
        <ele>593.4</ele>
        <time>2021-02-20T15:31:06.000Z</time>
      </trkpt>
      <trkpt lat="45.88587" lon="5.39438">
        <ele>592.8</ele>
        <time>2021-02-20T15:31:08.000Z</time>
      </trkpt>
      <trkpt lat="45.8859" lon="5.39433">
        <ele>592.4</ele>
        <time>2021-02-20T15:31:09.000Z</time>
      </trkpt>
      <trkpt lat="45.88597" lon="5.39421">
        <ele>592.2</ele>
        <time>2021-02-20T15:31:11.000Z</time>
      </trkpt>
      <trkpt lat="45.886" lon="5.39415">
        <ele>591.2</ele>
        <time>2021-02-20T15:31:12.000Z</time>
      </trkpt>
      <trkpt lat="45.88606" lon="5.39403">
        <ele>589.8</ele>
        <time>2021-02-20T15:31:14.000Z</time>
      </trkpt>
      <trkpt lat="45.8861" lon="5.39397">
        <ele>588.6</ele>
        <time>2021-02-20T15:31:15.000Z</time>
      </trkpt>
      <trkpt lat="45.88613" lon="5.39391">
        <ele>587.4</ele>
        <time>2021-02-20T15:31:16.000Z</time>
      </trkpt>
      <trkpt lat="45.88623" lon="5.3937">
        <ele>584.6</ele>
        <time>2021-02-20T15:31:19.000Z</time>
      </trkpt>
      <trkpt lat="45.88627" lon="5.39364">
        <ele>583.6</ele>
        <time>2021-02-20T15:31:20.000Z</time>
      </trkpt>
      <trkpt lat="45.8863" lon="5.39358">
        <ele>582</ele>
        <time>2021-02-20T15:31:21.000Z</time>
      </trkpt>
      <trkpt lat="45.88637" lon="5.39347">
        <ele>579.8</ele>
        <time>2021-02-20T15:31:23.000Z</time>
      </trkpt>
      <trkpt lat="45.8864" lon="5.3934">
        <ele>578.8</ele>
        <time>2021-02-20T15:31:24.000Z</time>
      </trkpt>
      <trkpt lat="45.88643" lon="5.39332">
        <ele>577.2</ele>
        <time>2021-02-20T15:31:25.000Z</time>
      </trkpt>
      <trkpt lat="45.88648" lon="5.39316">
        <ele>575.8</ele>
        <time>2021-02-20T15:31:27.000Z</time>
      </trkpt>
      <trkpt lat="45.88651" lon="5.39309">
        <ele>575.2</ele>
        <time>2021-02-20T15:31:28.000Z</time>
      </trkpt>
      <trkpt lat="45.88652" lon="5.39302">
        <ele>574.6</ele>
        <time>2021-02-20T15:31:29.000Z</time>
      </trkpt>
      <trkpt lat="45.88654" lon="5.39295">
        <ele>574</ele>
        <time>2021-02-20T15:31:30.000Z</time>
      </trkpt>
      <trkpt lat="45.88655" lon="5.39287">
        <ele>574</ele>
        <time>2021-02-20T15:31:31.000Z</time>
      </trkpt>
      <trkpt lat="45.88659" lon="5.39268">
        <ele>572.4</ele>
        <time>2021-02-20T15:31:33.000Z</time>
      </trkpt>
      <trkpt lat="45.88661" lon="5.3926">
        <ele>571.8</ele>
        <time>2021-02-20T15:31:34.000Z</time>
      </trkpt>
      <trkpt lat="45.88663" lon="5.39253">
        <ele>571.2</ele>
        <time>2021-02-20T15:31:35.000Z</time>
      </trkpt>
      <trkpt lat="45.88665" lon="5.39246">
        <ele>570.4</ele>
        <time>2021-02-20T15:31:36.000Z</time>
      </trkpt>
      <trkpt lat="45.88666" lon="5.3924">
        <ele>569.8</ele>
        <time>2021-02-20T15:31:37.000Z</time>
      </trkpt>
      <trkpt lat="45.88667" lon="5.39235">
        <ele>568.2</ele>
        <time>2021-02-20T15:31:38.000Z</time>
      </trkpt>
      <trkpt lat="45.88667" lon="5.39228">
        <ele>567.4</ele>
        <time>2021-02-20T15:31:39.000Z</time>
      </trkpt>
      <trkpt lat="45.88667" lon="5.39214">
        <ele>565</ele>
        <time>2021-02-20T15:31:41.000Z</time>
      </trkpt>
      <trkpt lat="45.88667" lon="5.39207">
        <ele>564.6</ele>
        <time>2021-02-20T15:31:42.000Z</time>
      </trkpt>
      <trkpt lat="45.88667" lon="5.39199">
        <ele>564</ele>
        <time>2021-02-20T15:31:43.000Z</time>
      </trkpt>
      <trkpt lat="45.88669" lon="5.39193">
        <ele>563.4</ele>
        <time>2021-02-20T15:31:44.000Z</time>
      </trkpt>
      <trkpt lat="45.88671" lon="5.39185">
        <ele>563</ele>
        <time>2021-02-20T15:31:45.000Z</time>
      </trkpt>
      <trkpt lat="45.88672" lon="5.39179">
        <ele>562.4</ele>
        <time>2021-02-20T15:31:46.000Z</time>
      </trkpt>
      <trkpt lat="45.88674" lon="5.39173">
        <ele>562.4</ele>
        <time>2021-02-20T15:31:47.000Z</time>
      </trkpt>
      <trkpt lat="45.88676" lon="5.39168">
        <ele>562.2</ele>
        <time>2021-02-20T15:31:48.000Z</time>
      </trkpt>
      <trkpt lat="45.88676" lon="5.39163">
        <ele>561</ele>
        <time>2021-02-20T15:31:49.000Z</time>
      </trkpt>
      <trkpt lat="45.88674" lon="5.39159">
        <ele>560.8</ele>
        <time>2021-02-20T15:31:50.000Z</time>
      </trkpt>
      <trkpt lat="45.88673" lon="5.39154">
        <ele>559.6</ele>
        <time>2021-02-20T15:31:51.000Z</time>
      </trkpt>
      <trkpt lat="45.88671" lon="5.39147">
        <ele>559</ele>
        <time>2021-02-20T15:31:52.000Z</time>
      </trkpt>
      <trkpt lat="45.8867" lon="5.39141">
        <ele>558.8</ele>
        <time>2021-02-20T15:31:53.000Z</time>
      </trkpt>
      <trkpt lat="45.8867" lon="5.39135">
        <ele>557.6</ele>
        <time>2021-02-20T15:31:54.000Z</time>
      </trkpt>
      <trkpt lat="45.88668" lon="5.3913">
        <ele>556.8</ele>
        <time>2021-02-20T15:31:55.000Z</time>
      </trkpt>
      <trkpt lat="45.88667" lon="5.39124">
        <ele>556.2</ele>
        <time>2021-02-20T15:31:56.000Z</time>
      </trkpt>
      <trkpt lat="45.88666" lon="5.39119">
        <ele>555.8</ele>
        <time>2021-02-20T15:31:57.000Z</time>
      </trkpt>
      <trkpt lat="45.88666" lon="5.39114">
        <ele>555.2</ele>
        <time>2021-02-20T15:31:58.000Z</time>
      </trkpt>
      <trkpt lat="45.88667" lon="5.39108">
        <ele>553.8</ele>
        <time>2021-02-20T15:31:59.000Z</time>
      </trkpt>
      <trkpt lat="45.88667" lon="5.39103">
        <ele>552.8</ele>
        <time>2021-02-20T15:32:00.000Z</time>
      </trkpt>
      <trkpt lat="45.88668" lon="5.39097">
        <ele>552</ele>
        <time>2021-02-20T15:32:01.000Z</time>
      </trkpt>
      <trkpt lat="45.88669" lon="5.39091">
        <ele>551.4</ele>
        <time>2021-02-20T15:32:02.000Z</time>
      </trkpt>
      <trkpt lat="45.88671" lon="5.39085">
        <ele>550.2</ele>
        <time>2021-02-20T15:32:03.000Z</time>
      </trkpt>
      <trkpt lat="45.88673" lon="5.39079">
        <ele>549.4</ele>
        <time>2021-02-20T15:32:04.000Z</time>
      </trkpt>
      <trkpt lat="45.88676" lon="5.39074">
        <ele>549</ele>
        <time>2021-02-20T15:32:05.000Z</time>
      </trkpt>
      <trkpt lat="45.88678" lon="5.39068">
        <ele>548.4</ele>
        <time>2021-02-20T15:32:06.000Z</time>
      </trkpt>
      <trkpt lat="45.88681" lon="5.39063">
        <ele>548.2</ele>
        <time>2021-02-20T15:32:07.000Z</time>
      </trkpt>
      <trkpt lat="45.88683" lon="5.39058">
        <ele>548.2</ele>
        <time>2021-02-20T15:32:08.000Z</time>
      </trkpt>
      <trkpt lat="45.88684" lon="5.39055">
        <ele>547.8</ele>
        <time>2021-02-20T15:32:09.000Z</time>
      </trkpt>
      <trkpt lat="45.88684" lon="5.39051">
        <ele>547.4</ele>
        <time>2021-02-20T15:32:10.000Z</time>
      </trkpt>
      <trkpt lat="45.88684" lon="5.39047">
        <ele>547</ele>
        <time>2021-02-20T15:32:11.000Z</time>
      </trkpt>
      <trkpt lat="45.88683" lon="5.39043">
        <ele>545.6</ele>
        <time>2021-02-20T15:32:12.000Z</time>
      </trkpt>
      <trkpt lat="45.88683" lon="5.3904">
        <ele>544.6</ele>
        <time>2021-02-20T15:32:13.000Z</time>
      </trkpt>
      <trkpt lat="45.88683" lon="5.39036">
        <ele>544</ele>
        <time>2021-02-20T15:32:14.000Z</time>
      </trkpt>
      <trkpt lat="45.88683" lon="5.39032">
        <ele>543.4</ele>
        <time>2021-02-20T15:32:15.000Z</time>
      </trkpt>
      <trkpt lat="45.88684" lon="5.39029">
        <ele>542.6</ele>
        <time>2021-02-20T15:32:16.000Z</time>
      </trkpt>
      <trkpt lat="45.88684" lon="5.39026">
        <ele>542</ele>
        <time>2021-02-20T15:32:17.000Z</time>
      </trkpt>
      <trkpt lat="45.88685" lon="5.39023">
        <ele>541.4</ele>
        <time>2021-02-20T15:32:18.000Z</time>
      </trkpt>
      <trkpt lat="45.88685" lon="5.3902">
        <ele>540.8</ele>
        <time>2021-02-20T15:32:19.000Z</time>
      </trkpt>
      <trkpt lat="45.88685" lon="5.39019">
        <ele>540.4</ele>
        <time>2021-02-20T15:32:20.000Z</time>
      </trkpt>
      <trkpt lat="45.88686" lon="5.39013">
        <ele>538</ele>
        <time>2021-02-20T15:32:22.000Z</time>
      </trkpt>
      <trkpt lat="45.88687" lon="5.39009">
        <ele>537.6</ele>
        <time>2021-02-20T15:32:23.000Z</time>
      </trkpt>
      <trkpt lat="45.88689" lon="5.39003">
        <ele>536</ele>
        <time>2021-02-20T15:32:25.000Z</time>
      </trkpt>
      <trkpt lat="45.88691" lon="5.38997">
        <ele>535.4</ele>
        <time>2021-02-20T15:32:27.000Z</time>
      </trkpt>
      <trkpt lat="45.88691" lon="5.38994">
        <ele>535.4</ele>
        <time>2021-02-20T15:32:28.000Z</time>
      </trkpt>
      <trkpt lat="45.88693" lon="5.38987">
        <ele>534.6</ele>
        <time>2021-02-20T15:32:30.000Z</time>
      </trkpt>
      <trkpt lat="45.88694" lon="5.38984">
        <ele>534.2</ele>
        <time>2021-02-20T15:32:31.000Z</time>
      </trkpt>
      <trkpt lat="45.88694" lon="5.38982">
        <ele>533.6</ele>
        <time>2021-02-20T15:32:32.000Z</time>
      </trkpt>
      <trkpt lat="45.88695" lon="5.38979">
        <ele>532.8</ele>
        <time>2021-02-20T15:32:33.000Z</time>
      </trkpt>
      <trkpt lat="45.88695" lon="5.38973">
        <ele>531.8</ele>
        <time>2021-02-20T15:32:35.000Z</time>
      </trkpt>
      <trkpt lat="45.88696" lon="5.38966">
        <ele>530.4</ele>
        <time>2021-02-20T15:32:37.000Z</time>
      </trkpt>
      <trkpt lat="45.88697" lon="5.38963">
        <ele>530.2</ele>
        <time>2021-02-20T15:32:38.000Z</time>
      </trkpt>
      <trkpt lat="45.887" lon="5.38958">
        <ele>529.6</ele>
        <time>2021-02-20T15:32:39.000Z</time>
      </trkpt>
      <trkpt lat="45.88702" lon="5.38954">
        <ele>528.6</ele>
        <time>2021-02-20T15:32:40.000Z</time>
      </trkpt>
      <trkpt lat="45.88703" lon="5.3895">
        <ele>528</ele>
        <time>2021-02-20T15:32:41.000Z</time>
      </trkpt>
      <trkpt lat="45.88703" lon="5.38947">
        <ele>527.6</ele>
        <time>2021-02-20T15:32:42.000Z</time>
      </trkpt>
      <trkpt lat="45.88705" lon="5.38944">
        <ele>527.2</ele>
        <time>2021-02-20T15:32:43.000Z</time>
      </trkpt>
      <trkpt lat="45.88708" lon="5.38935">
        <ele>526</ele>
        <time>2021-02-20T15:32:45.000Z</time>
      </trkpt>
      <trkpt lat="45.88711" lon="5.38926">
        <ele>524</ele>
        <time>2021-02-20T15:32:47.000Z</time>
      </trkpt>
      <trkpt lat="45.88712" lon="5.38922">
        <ele>524</ele>
        <time>2021-02-20T15:32:48.000Z</time>
      </trkpt>
      <trkpt lat="45.88713" lon="5.38919">
        <ele>523.2</ele>
        <time>2021-02-20T15:32:49.000Z</time>
      </trkpt>
      <trkpt lat="45.88714" lon="5.38916">
        <ele>522.4</ele>
        <time>2021-02-20T15:32:50.000Z</time>
      </trkpt>
      <trkpt lat="45.88715" lon="5.38913">
        <ele>521.8</ele>
        <time>2021-02-20T15:32:51.000Z</time>
      </trkpt>
      <trkpt lat="45.88716" lon="5.38907">
        <ele>521</ele>
        <time>2021-02-20T15:32:52.000Z</time>
      </trkpt>
      <trkpt lat="45.88716" lon="5.38903">
        <ele>520.2</ele>
        <time>2021-02-20T15:32:53.000Z</time>
      </trkpt>
      <trkpt lat="45.88716" lon="5.38899">
        <ele>517</ele>
        <time>2021-02-20T15:33:03.000Z</time>
      </trkpt>
      <trkpt lat="45.88717" lon="5.38895">
        <ele>516.8</ele>
        <time>2021-02-20T15:33:04.000Z</time>
      </trkpt>
      <trkpt lat="45.88718" lon="5.3889">
        <ele>516.8</ele>
        <time>2021-02-20T15:33:05.000Z</time>
      </trkpt>
      <trkpt lat="45.88721" lon="5.38885">
        <ele>516.8</ele>
        <time>2021-02-20T15:33:06.000Z</time>
      </trkpt>
      <trkpt lat="45.88723" lon="5.38879">
        <ele>516.8</ele>
        <time>2021-02-20T15:33:07.000Z</time>
      </trkpt>
      <trkpt lat="45.88727" lon="5.38867">
        <ele>517</ele>
        <time>2021-02-20T15:33:09.000Z</time>
      </trkpt>
      <trkpt lat="45.88729" lon="5.38861">
        <ele>516.6</ele>
        <time>2021-02-20T15:33:10.000Z</time>
      </trkpt>
      <trkpt lat="45.8873" lon="5.38855">
        <ele>516</ele>
        <time>2021-02-20T15:33:11.000Z</time>
      </trkpt>
      <trkpt lat="45.88736" lon="5.38832">
        <ele>515.4</ele>
        <time>2021-02-20T15:33:14.000Z</time>
      </trkpt>
      <trkpt lat="45.88737" lon="5.38823">
        <ele>514.8</ele>
        <time>2021-02-20T15:33:15.000Z</time>
      </trkpt>
      <trkpt lat="45.88739" lon="5.38813">
        <ele>514.4</ele>
        <time>2021-02-20T15:33:16.000Z</time>
      </trkpt>
      <trkpt lat="45.88741" lon="5.38794">
        <ele>513.8</ele>
        <time>2021-02-20T15:33:18.000Z</time>
      </trkpt>
      <trkpt lat="45.88742" lon="5.38784">
        <ele>513.2</ele>
        <time>2021-02-20T15:33:19.000Z</time>
      </trkpt>
      <trkpt lat="45.88744" lon="5.38775">
        <ele>512</ele>
        <time>2021-02-20T15:33:20.000Z</time>
      </trkpt>
      <trkpt lat="45.88745" lon="5.38766">
        <ele>511.4</ele>
        <time>2021-02-20T15:33:21.000Z</time>
      </trkpt>
      <trkpt lat="45.88745" lon="5.38758">
        <ele>510.6</ele>
        <time>2021-02-20T15:33:22.000Z</time>
      </trkpt>
      <trkpt lat="45.88746" lon="5.38749">
        <ele>509.6</ele>
        <time>2021-02-20T15:33:23.000Z</time>
      </trkpt>
      <trkpt lat="45.88747" lon="5.38741">
        <ele>509.4</ele>
        <time>2021-02-20T15:33:24.000Z</time>
      </trkpt>
      <trkpt lat="45.88748" lon="5.38734">
        <ele>509.2</ele>
        <time>2021-02-20T15:33:25.000Z</time>
      </trkpt>
      <trkpt lat="45.8875" lon="5.38726">
        <ele>508.8</ele>
        <time>2021-02-20T15:33:26.000Z</time>
      </trkpt>
      <trkpt lat="45.88752" lon="5.38719">
        <ele>508.2</ele>
        <time>2021-02-20T15:33:27.000Z</time>
      </trkpt>
      <trkpt lat="45.8876" lon="5.38695">
        <ele>506.6</ele>
        <time>2021-02-20T15:33:30.000Z</time>
      </trkpt>
      <trkpt lat="45.88762" lon="5.38688">
        <ele>506</ele>
        <time>2021-02-20T15:33:31.000Z</time>
      </trkpt>
      <trkpt lat="45.88766" lon="5.38681">
        <ele>505.2</ele>
        <time>2021-02-20T15:33:32.000Z</time>
      </trkpt>
      <trkpt lat="45.88769" lon="5.38675">
        <ele>504.2</ele>
        <time>2021-02-20T15:33:33.000Z</time>
      </trkpt>
      <trkpt lat="45.88772" lon="5.3867">
        <ele>503.2</ele>
        <time>2021-02-20T15:33:34.000Z</time>
      </trkpt>
      <trkpt lat="45.88779" lon="5.38659">
        <ele>502.8</ele>
        <time>2021-02-20T15:33:36.000Z</time>
      </trkpt>
      <trkpt lat="45.88782" lon="5.38654">
        <ele>502</ele>
        <time>2021-02-20T15:33:37.000Z</time>
      </trkpt>
      <trkpt lat="45.8879" lon="5.38643">
        <ele>500.6</ele>
        <time>2021-02-20T15:33:39.000Z</time>
      </trkpt>
      <trkpt lat="45.88792" lon="5.38637">
        <ele>499.4</ele>
        <time>2021-02-20T15:33:40.000Z</time>
      </trkpt>
      <trkpt lat="45.88795" lon="5.38632">
        <ele>498.4</ele>
        <time>2021-02-20T15:33:41.000Z</time>
      </trkpt>
      <trkpt lat="45.88798" lon="5.38626">
        <ele>498.2</ele>
        <time>2021-02-20T15:33:42.000Z</time>
      </trkpt>
      <trkpt lat="45.88801" lon="5.38621">
        <ele>497.8</ele>
        <time>2021-02-20T15:33:43.000Z</time>
      </trkpt>
      <trkpt lat="45.88804" lon="5.38616">
        <ele>496.8</ele>
        <time>2021-02-20T15:33:44.000Z</time>
      </trkpt>
      <trkpt lat="45.88807" lon="5.38611">
        <ele>494.6</ele>
        <time>2021-02-20T15:33:45.000Z</time>
      </trkpt>
      <trkpt lat="45.88818" lon="5.38594">
        <ele>491.8</ele>
        <time>2021-02-20T15:33:48.000Z</time>
      </trkpt>
      <trkpt lat="45.88821" lon="5.38588">
        <ele>490.8</ele>
        <time>2021-02-20T15:33:49.000Z</time>
      </trkpt>
      <trkpt lat="45.88824" lon="5.38581">
        <ele>489.6</ele>
        <time>2021-02-20T15:33:50.000Z</time>
      </trkpt>
      <trkpt lat="45.88825" lon="5.38566">
        <ele>487.4</ele>
        <time>2021-02-20T15:33:52.000Z</time>
      </trkpt>
      <trkpt lat="45.88825" lon="5.38559">
        <ele>486.2</ele>
        <time>2021-02-20T15:33:53.000Z</time>
      </trkpt>
      <trkpt lat="45.88824" lon="5.38553">
        <ele>484.6</ele>
        <time>2021-02-20T15:33:54.000Z</time>
      </trkpt>
      <trkpt lat="45.88821" lon="5.38547">
        <ele>484.6</ele>
        <time>2021-02-20T15:33:55.000Z</time>
      </trkpt>
      <trkpt lat="45.88817" lon="5.38539">
        <ele>483.6</ele>
        <time>2021-02-20T15:33:56.000Z</time>
      </trkpt>
      <trkpt lat="45.88812" lon="5.38534">
        <ele>483</ele>
        <time>2021-02-20T15:33:57.000Z</time>
      </trkpt>
      <trkpt lat="45.88806" lon="5.38529">
        <ele>482</ele>
        <time>2021-02-20T15:33:58.000Z</time>
      </trkpt>
      <trkpt lat="45.88802" lon="5.38524">
        <ele>481.4</ele>
        <time>2021-02-20T15:33:59.000Z</time>
      </trkpt>
      <trkpt lat="45.88797" lon="5.38519">
        <ele>480.2</ele>
        <time>2021-02-20T15:34:00.000Z</time>
      </trkpt>
      <trkpt lat="45.88793" lon="5.38515">
        <ele>479.4</ele>
        <time>2021-02-20T15:34:01.000Z</time>
      </trkpt>
      <trkpt lat="45.8879" lon="5.38513">
        <ele>478.6</ele>
        <time>2021-02-20T15:34:02.000Z</time>
      </trkpt>
      <trkpt lat="45.88788" lon="5.3851">
        <ele>478</ele>
        <time>2021-02-20T15:34:03.000Z</time>
      </trkpt>
      <trkpt lat="45.88786" lon="5.38509">
        <ele>477.6</ele>
        <time>2021-02-20T15:34:04.000Z</time>
      </trkpt>
      <trkpt lat="45.88785" lon="5.38507">
        <ele>477</ele>
        <time>2021-02-20T15:34:05.000Z</time>
      </trkpt>
      <trkpt lat="45.88784" lon="5.38506">
        <ele>476.8</ele>
        <time>2021-02-20T15:34:06.000Z</time>
      </trkpt>
      <trkpt lat="45.88783" lon="5.38504">
        <ele>476.4</ele>
        <time>2021-02-20T15:34:07.000Z</time>
      </trkpt>
      <trkpt lat="45.88781" lon="5.38503">
        <ele>476.4</ele>
        <time>2021-02-20T15:34:08.000Z</time>
      </trkpt>
      <trkpt lat="45.8878" lon="5.38502">
        <ele>476.2</ele>
        <time>2021-02-20T15:34:09.000Z</time>
      </trkpt>
      <trkpt lat="45.88777" lon="5.38498">
        <ele>475.6</ele>
        <time>2021-02-20T15:34:15.000Z</time>
      </trkpt>
      <trkpt lat="45.88776" lon="5.38495">
        <ele>475.6</ele>
        <time>2021-02-20T15:34:16.000Z</time>
      </trkpt>
      <trkpt lat="45.88774" lon="5.38492">
        <ele>475.6</ele>
        <time>2021-02-20T15:34:17.000Z</time>
      </trkpt>
      <trkpt lat="45.88772" lon="5.38489">
        <ele>475.6</ele>
        <time>2021-02-20T15:34:18.000Z</time>
      </trkpt>
      <trkpt lat="45.8877" lon="5.38486">
        <ele>475.6</ele>
        <time>2021-02-20T15:34:19.000Z</time>
      </trkpt>
      <trkpt lat="45.88768" lon="5.38483">
        <ele>475.6</ele>
        <time>2021-02-20T15:34:20.000Z</time>
      </trkpt>
      <trkpt lat="45.88764" lon="5.38474">
        <ele>475.2</ele>
        <time>2021-02-20T15:34:22.000Z</time>
      </trkpt>
      <trkpt lat="45.8876" lon="5.38463">
        <ele>475.4</ele>
        <time>2021-02-20T15:34:24.000Z</time>
      </trkpt>
      <trkpt lat="45.88752" lon="5.38441">
        <ele>475</ele>
        <time>2021-02-20T15:34:28.000Z</time>
      </trkpt>
      <trkpt lat="45.88751" lon="5.38435">
        <ele>474.8</ele>
        <time>2021-02-20T15:34:29.000Z</time>
      </trkpt>
      <trkpt lat="45.8875" lon="5.38428">
        <ele>474.6</ele>
        <time>2021-02-20T15:34:30.000Z</time>
      </trkpt>
      <trkpt lat="45.88749" lon="5.38421">
        <ele>474.4</ele>
        <time>2021-02-20T15:34:31.000Z</time>
      </trkpt>
      <trkpt lat="45.88749" lon="5.38414">
        <ele>474.2</ele>
        <time>2021-02-20T15:34:32.000Z</time>
      </trkpt>
      <trkpt lat="45.88749" lon="5.38406">
        <ele>473.8</ele>
        <time>2021-02-20T15:34:33.000Z</time>
      </trkpt>
      <trkpt lat="45.88749" lon="5.3839">
        <ele>473.6</ele>
        <time>2021-02-20T15:34:35.000Z</time>
      </trkpt>
      <trkpt lat="45.88749" lon="5.38374">
        <ele>473.2</ele>
        <time>2021-02-20T15:34:37.000Z</time>
      </trkpt>
      <trkpt lat="45.88749" lon="5.38367">
        <ele>472.6</ele>
        <time>2021-02-20T15:34:38.000Z</time>
      </trkpt>
      <trkpt lat="45.88749" lon="5.38359">
        <ele>472.2</ele>
        <time>2021-02-20T15:34:39.000Z</time>
      </trkpt>
      <trkpt lat="45.8875" lon="5.38345">
        <ele>472</ele>
        <time>2021-02-20T15:34:41.000Z</time>
      </trkpt>
      <trkpt lat="45.88749" lon="5.38338">
        <ele>471.8</ele>
        <time>2021-02-20T15:34:42.000Z</time>
      </trkpt>
      <trkpt lat="45.88749" lon="5.38332">
        <ele>471.6</ele>
        <time>2021-02-20T15:34:43.000Z</time>
      </trkpt>
      <trkpt lat="45.88749" lon="5.38328">
        <ele>471.4</ele>
        <time>2021-02-20T15:34:44.000Z</time>
      </trkpt>
      <trkpt lat="45.88749" lon="5.38323">
        <ele>471.4</ele>
        <time>2021-02-20T15:34:45.000Z</time>
      </trkpt>
      <trkpt lat="45.8875" lon="5.38319">
        <ele>470.8</ele>
        <time>2021-02-20T15:34:46.000Z</time>
      </trkpt>
      <trkpt lat="45.8875" lon="5.38316">
        <ele>470.6</ele>
        <time>2021-02-20T15:34:47.000Z</time>
      </trkpt>
      <trkpt lat="45.8875" lon="5.38312">
        <ele>470.6</ele>
        <time>2021-02-20T15:34:48.000Z</time>
      </trkpt>
      <trkpt lat="45.88749" lon="5.3831">
        <ele>470.4</ele>
        <time>2021-02-20T15:34:49.000Z</time>
      </trkpt>
      <trkpt lat="45.88747" lon="5.38307">
        <ele>470.2</ele>
        <time>2021-02-20T15:34:50.000Z</time>
      </trkpt>
      <trkpt lat="45.88745" lon="5.38305">
        <ele>470.2</ele>
        <time>2021-02-20T15:34:51.000Z</time>
      </trkpt>
      <trkpt lat="45.88742" lon="5.38302">
        <ele>470.2</ele>
        <time>2021-02-20T15:34:52.000Z</time>
      </trkpt>
      <trkpt lat="45.8874" lon="5.383">
        <ele>470</ele>
        <time>2021-02-20T15:34:53.000Z</time>
      </trkpt>
      <trkpt lat="45.88737" lon="5.38296">
        <ele>470</ele>
        <time>2021-02-20T15:34:54.000Z</time>
      </trkpt>
      <trkpt lat="45.88728" lon="5.38285">
        <ele>470</ele>
        <time>2021-02-20T15:34:56.000Z</time>
      </trkpt>
      <trkpt lat="45.88723" lon="5.38279">
        <ele>470</ele>
        <time>2021-02-20T15:34:57.000Z</time>
      </trkpt>
      <trkpt lat="45.8871" lon="5.38261">
        <ele>468.6</ele>
        <time>2021-02-20T15:35:00.000Z</time>
      </trkpt>
      <trkpt lat="45.88705" lon="5.38255">
        <ele>467.6</ele>
        <time>2021-02-20T15:35:01.000Z</time>
      </trkpt>
      <trkpt lat="45.88701" lon="5.38252">
        <ele>465.8</ele>
        <time>2021-02-20T15:35:02.000Z</time>
      </trkpt>
      <trkpt lat="45.88696" lon="5.38251">
        <ele>464.6</ele>
        <time>2021-02-20T15:35:03.000Z</time>
      </trkpt>
      <trkpt lat="45.88691" lon="5.3825">
        <ele>462.6</ele>
        <time>2021-02-20T15:35:04.000Z</time>
      </trkpt>
      <trkpt lat="45.88685" lon="5.3825">
        <ele>461.4</ele>
        <time>2021-02-20T15:35:05.000Z</time>
      </trkpt>
      <trkpt lat="45.88678" lon="5.38249">
        <ele>460.4</ele>
        <time>2021-02-20T15:35:06.000Z</time>
      </trkpt>
      <trkpt lat="45.88671" lon="5.38247">
        <ele>459.8</ele>
        <time>2021-02-20T15:35:07.000Z</time>
      </trkpt>
      <trkpt lat="45.88656" lon="5.38244">
        <ele>458.6</ele>
        <time>2021-02-20T15:35:09.000Z</time>
      </trkpt>
      <trkpt lat="45.88649" lon="5.38243">
        <ele>458.2</ele>
        <time>2021-02-20T15:35:10.000Z</time>
      </trkpt>
      <trkpt lat="45.88641" lon="5.38241">
        <ele>457.8</ele>
        <time>2021-02-20T15:35:11.000Z</time>
      </trkpt>
      <trkpt lat="45.88625" lon="5.38237">
        <ele>455.8</ele>
        <time>2021-02-20T15:35:13.000Z</time>
      </trkpt>
      <trkpt lat="45.88602" lon="5.38228">
        <ele>453</ele>
        <time>2021-02-20T15:35:16.000Z</time>
      </trkpt>
      <trkpt lat="45.88587" lon="5.3822">
        <ele>452.2</ele>
        <time>2021-02-20T15:35:18.000Z</time>
      </trkpt>
      <trkpt lat="45.8858" lon="5.38216">
        <ele>451</ele>
        <time>2021-02-20T15:35:19.000Z</time>
      </trkpt>
      <trkpt lat="45.88573" lon="5.38211">
        <ele>450.2</ele>
        <time>2021-02-20T15:35:20.000Z</time>
      </trkpt>
      <trkpt lat="45.88567" lon="5.38205">
        <ele>449.4</ele>
        <time>2021-02-20T15:35:21.000Z</time>
      </trkpt>
      <trkpt lat="45.88561" lon="5.382">
        <ele>448.8</ele>
        <time>2021-02-20T15:35:22.000Z</time>
      </trkpt>
      <trkpt lat="45.88557" lon="5.38195">
        <ele>448.4</ele>
        <time>2021-02-20T15:35:23.000Z</time>
      </trkpt>
      <trkpt lat="45.88553" lon="5.3819">
        <ele>448.2</ele>
        <time>2021-02-20T15:35:24.000Z</time>
      </trkpt>
      <trkpt lat="45.88548" lon="5.38186">
        <ele>447.8</ele>
        <time>2021-02-20T15:35:25.000Z</time>
      </trkpt>
      <trkpt lat="45.8854" lon="5.38178">
        <ele>447.6</ele>
        <time>2021-02-20T15:35:27.000Z</time>
      </trkpt>
      <trkpt lat="45.88536" lon="5.38174">
        <ele>447.4</ele>
        <time>2021-02-20T15:35:28.000Z</time>
      </trkpt>
      <trkpt lat="45.88533" lon="5.38171">
        <ele>447.2</ele>
        <time>2021-02-20T15:35:29.000Z</time>
      </trkpt>
      <trkpt lat="45.8853" lon="5.38169">
        <ele>447</ele>
        <time>2021-02-20T15:35:30.000Z</time>
      </trkpt>
      <trkpt lat="45.88527" lon="5.38167">
        <ele>446.8</ele>
        <time>2021-02-20T15:35:31.000Z</time>
      </trkpt>
      <trkpt lat="45.88524" lon="5.38165">
        <ele>446.6</ele>
        <time>2021-02-20T15:35:32.000Z</time>
      </trkpt>
      <trkpt lat="45.8852" lon="5.38164">
        <ele>446.4</ele>
        <time>2021-02-20T15:35:33.000Z</time>
      </trkpt>
      <trkpt lat="45.88516" lon="5.38162">
        <ele>446</ele>
        <time>2021-02-20T15:35:34.000Z</time>
      </trkpt>
      <trkpt lat="45.88512" lon="5.38161">
        <ele>445.4</ele>
        <time>2021-02-20T15:35:35.000Z</time>
      </trkpt>
      <trkpt lat="45.88507" lon="5.3816">
        <ele>444.2</ele>
        <time>2021-02-20T15:35:36.000Z</time>
      </trkpt>
      <trkpt lat="45.88502" lon="5.3816">
        <ele>444.2</ele>
        <time>2021-02-20T15:35:37.000Z</time>
      </trkpt>
      <trkpt lat="45.88496" lon="5.3816">
        <ele>443.2</ele>
        <time>2021-02-20T15:35:38.000Z</time>
      </trkpt>
      <trkpt lat="45.88491" lon="5.38161">
        <ele>442.2</ele>
        <time>2021-02-20T15:35:39.000Z</time>
      </trkpt>
      <trkpt lat="45.88486" lon="5.38161">
        <ele>441.4</ele>
        <time>2021-02-20T15:35:40.000Z</time>
      </trkpt>
      <trkpt lat="45.88481" lon="5.38161">
        <ele>440.4</ele>
        <time>2021-02-20T15:35:41.000Z</time>
      </trkpt>
      <trkpt lat="45.88476" lon="5.38161">
        <ele>439.4</ele>
        <time>2021-02-20T15:35:42.000Z</time>
      </trkpt>
      <trkpt lat="45.88472" lon="5.38162">
        <ele>438.8</ele>
        <time>2021-02-20T15:35:43.000Z</time>
      </trkpt>
      <trkpt lat="45.88467" lon="5.38164">
        <ele>437.6</ele>
        <time>2021-02-20T15:35:44.000Z</time>
      </trkpt>
      <trkpt lat="45.88457" lon="5.38167">
        <ele>435.8</ele>
        <time>2021-02-20T15:35:46.000Z</time>
      </trkpt>
      <trkpt lat="45.88447" lon="5.3817">
        <ele>433</ele>
        <time>2021-02-20T15:35:48.000Z</time>
      </trkpt>
      <trkpt lat="45.88442" lon="5.38172">
        <ele>432</ele>
        <time>2021-02-20T15:35:49.000Z</time>
      </trkpt>
      <trkpt lat="45.88438" lon="5.38173">
        <ele>431</ele>
        <time>2021-02-20T15:35:50.000Z</time>
      </trkpt>
      <trkpt lat="45.88432" lon="5.38175">
        <ele>430.6</ele>
        <time>2021-02-20T15:35:51.000Z</time>
      </trkpt>
      <trkpt lat="45.88427" lon="5.38177">
        <ele>429</ele>
        <time>2021-02-20T15:35:52.000Z</time>
      </trkpt>
      <trkpt lat="45.88421" lon="5.38178">
        <ele>428.4</ele>
        <time>2021-02-20T15:35:53.000Z</time>
      </trkpt>
      <trkpt lat="45.88416" lon="5.3818">
        <ele>428</ele>
        <time>2021-02-20T15:35:54.000Z</time>
      </trkpt>
      <trkpt lat="45.88411" lon="5.38182">
        <ele>427</ele>
        <time>2021-02-20T15:35:55.000Z</time>
      </trkpt>
      <trkpt lat="45.88407" lon="5.38185">
        <ele>426.4</ele>
        <time>2021-02-20T15:35:56.000Z</time>
      </trkpt>
      <trkpt lat="45.88403" lon="5.38189">
        <ele>426.4</ele>
        <time>2021-02-20T15:35:57.000Z</time>
      </trkpt>
      <trkpt lat="45.88399" lon="5.38193">
        <ele>425.6</ele>
        <time>2021-02-20T15:35:58.000Z</time>
      </trkpt>
      <trkpt lat="45.88395" lon="5.38197">
        <ele>424.4</ele>
        <time>2021-02-20T15:35:59.000Z</time>
      </trkpt>
      <trkpt lat="45.88391" lon="5.382">
        <ele>424</ele>
        <time>2021-02-20T15:36:00.000Z</time>
      </trkpt>
      <trkpt lat="45.88387" lon="5.38202">
        <ele>423.2</ele>
        <time>2021-02-20T15:36:01.000Z</time>
      </trkpt>
      <trkpt lat="45.88383" lon="5.38205">
        <ele>422.2</ele>
        <time>2021-02-20T15:36:02.000Z</time>
      </trkpt>
      <trkpt lat="45.8838" lon="5.38208">
        <ele>421.2</ele>
        <time>2021-02-20T15:36:03.000Z</time>
      </trkpt>
      <trkpt lat="45.88377" lon="5.38211">
        <ele>420.4</ele>
        <time>2021-02-20T15:36:04.000Z</time>
      </trkpt>
      <trkpt lat="45.88374" lon="5.38215">
        <ele>420.2</ele>
        <time>2021-02-20T15:36:05.000Z</time>
      </trkpt>
      <trkpt lat="45.88371" lon="5.38218">
        <ele>418.6</ele>
        <time>2021-02-20T15:36:06.000Z</time>
      </trkpt>
      <trkpt lat="45.88368" lon="5.3822">
        <ele>417.2</ele>
        <time>2021-02-20T15:36:07.000Z</time>
      </trkpt>
      <trkpt lat="45.88364" lon="5.38222">
        <ele>415.6</ele>
        <time>2021-02-20T15:36:08.000Z</time>
      </trkpt>
      <trkpt lat="45.88361" lon="5.38223">
        <ele>414.4</ele>
        <time>2021-02-20T15:36:09.000Z</time>
      </trkpt>
      <trkpt lat="45.88359" lon="5.38224">
        <ele>414</ele>
        <time>2021-02-20T15:36:10.000Z</time>
      </trkpt>
      <trkpt lat="45.88357" lon="5.38225">
        <ele>413</ele>
        <time>2021-02-20T15:36:11.000Z</time>
      </trkpt>
      <trkpt lat="45.88351" lon="5.38228">
        <ele>411.4</ele>
        <time>2021-02-20T15:36:13.000Z</time>
      </trkpt>
      <trkpt lat="45.88344" lon="5.38234">
        <ele>410.2</ele>
        <time>2021-02-20T15:36:15.000Z</time>
      </trkpt>
      <trkpt lat="45.88341" lon="5.38236">
        <ele>410.2</ele>
        <time>2021-02-20T15:36:16.000Z</time>
      </trkpt>
      <trkpt lat="45.88327" lon="5.38245">
        <ele>408.8</ele>
        <time>2021-02-20T15:36:20.000Z</time>
      </trkpt>
      <trkpt lat="45.88321" lon="5.38249">
        <ele>408</ele>
        <time>2021-02-20T15:36:22.000Z</time>
      </trkpt>
      <trkpt lat="45.88318" lon="5.38247">
        <ele>406.8</ele>
        <time>2021-02-20T15:36:23.000Z</time>
      </trkpt>
      <trkpt lat="45.88316" lon="5.38245">
        <ele>406.2</ele>
        <time>2021-02-20T15:36:24.000Z</time>
      </trkpt>
      <trkpt lat="45.88315" lon="5.38244">
        <ele>405.4</ele>
        <time>2021-02-20T15:36:25.000Z</time>
      </trkpt>
      <trkpt lat="45.88313" lon="5.38236">
        <ele>404.2</ele>
        <time>2021-02-20T15:36:27.000Z</time>
      </trkpt>
      <trkpt lat="45.88311" lon="5.3823">
        <ele>403.8</ele>
        <time>2021-02-20T15:36:28.000Z</time>
      </trkpt>
      <trkpt lat="45.88309" lon="5.38225">
        <ele>403.4</ele>
        <time>2021-02-20T15:36:29.000Z</time>
      </trkpt>
      <trkpt lat="45.88308" lon="5.3822">
        <ele>403.2</ele>
        <time>2021-02-20T15:36:30.000Z</time>
      </trkpt>
      <trkpt lat="45.88305" lon="5.38211">
        <ele>403</ele>
        <time>2021-02-20T15:36:32.000Z</time>
      </trkpt>
      <trkpt lat="45.88303" lon="5.38206">
        <ele>402.2</ele>
        <time>2021-02-20T15:36:33.000Z</time>
      </trkpt>
      <trkpt lat="45.88302" lon="5.38202">
        <ele>401.6</ele>
        <time>2021-02-20T15:36:34.000Z</time>
      </trkpt>
      <trkpt lat="45.88302" lon="5.38198">
        <ele>401</ele>
        <time>2021-02-20T15:36:35.000Z</time>
      </trkpt>
      <trkpt lat="45.88302" lon="5.38195">
        <ele>401</ele>
        <time>2021-02-20T15:36:36.000Z</time>
      </trkpt>
      <trkpt lat="45.88304" lon="5.38191">
        <ele>400.2</ele>
        <time>2021-02-20T15:36:37.000Z</time>
      </trkpt>
      <trkpt lat="45.88305" lon="5.38188">
        <ele>399.8</ele>
        <time>2021-02-20T15:36:38.000Z</time>
      </trkpt>
      <trkpt lat="45.88306" lon="5.38184">
        <ele>398.4</ele>
        <time>2021-02-20T15:36:39.000Z</time>
      </trkpt>
      <trkpt lat="45.88307" lon="5.38181">
        <ele>397.2</ele>
        <time>2021-02-20T15:36:40.000Z</time>
      </trkpt>
      <trkpt lat="45.88307" lon="5.38177">
        <ele>396.6</ele>
        <time>2021-02-20T15:36:41.000Z</time>
      </trkpt>
      <trkpt lat="45.88308" lon="5.38174">
        <ele>395.8</ele>
        <time>2021-02-20T15:36:42.000Z</time>
      </trkpt>
      <trkpt lat="45.88309" lon="5.38171">
        <ele>395</ele>
        <time>2021-02-20T15:36:43.000Z</time>
      </trkpt>
      <trkpt lat="45.8831" lon="5.38167">
        <ele>394.4</ele>
        <time>2021-02-20T15:36:44.000Z</time>
      </trkpt>
      <trkpt lat="45.88311" lon="5.38164">
        <ele>393.6</ele>
        <time>2021-02-20T15:36:45.000Z</time>
      </trkpt>
      <trkpt lat="45.88316" lon="5.38155">
        <ele>391.4</ele>
        <time>2021-02-20T15:36:48.000Z</time>
      </trkpt>
      <trkpt lat="45.88318" lon="5.38153">
        <ele>390.6</ele>
        <time>2021-02-20T15:36:49.000Z</time>
      </trkpt>
      <trkpt lat="45.88319" lon="5.3815">
        <ele>389.6</ele>
        <time>2021-02-20T15:36:50.000Z</time>
      </trkpt>
      <trkpt lat="45.88323" lon="5.38139">
        <ele>388</ele>
        <time>2021-02-20T15:36:53.000Z</time>
      </trkpt>
      <trkpt lat="45.88324" lon="5.38135">
        <ele>387.2</ele>
        <time>2021-02-20T15:36:54.000Z</time>
      </trkpt>
      <trkpt lat="45.88324" lon="5.38131">
        <ele>387.2</ele>
        <time>2021-02-20T15:36:55.000Z</time>
      </trkpt>
      <trkpt lat="45.88324" lon="5.38126">
        <ele>386.6</ele>
        <time>2021-02-20T15:36:56.000Z</time>
      </trkpt>
      <trkpt lat="45.88324" lon="5.38121">
        <ele>386.4</ele>
        <time>2021-02-20T15:36:57.000Z</time>
      </trkpt>
      <trkpt lat="45.88323" lon="5.38116">
        <ele>385.4</ele>
        <time>2021-02-20T15:36:58.000Z</time>
      </trkpt>
      <trkpt lat="45.88323" lon="5.38111">
        <ele>384.4</ele>
        <time>2021-02-20T15:36:59.000Z</time>
      </trkpt>
      <trkpt lat="45.88322" lon="5.38107">
        <ele>383.4</ele>
        <time>2021-02-20T15:37:00.000Z</time>
      </trkpt>
      <trkpt lat="45.88322" lon="5.38104">
        <ele>383</ele>
        <time>2021-02-20T15:37:01.000Z</time>
      </trkpt>
      <trkpt lat="45.88322" lon="5.38102">
        <ele>382.4</ele>
        <time>2021-02-20T15:37:02.000Z</time>
      </trkpt>
      <trkpt lat="45.88321" lon="5.38098">
        <ele>380.8</ele>
        <time>2021-02-20T15:37:03.000Z</time>
      </trkpt>
      <trkpt lat="45.88323" lon="5.38094">
        <ele>380</ele>
        <time>2021-02-20T15:37:04.000Z</time>
      </trkpt>
      <trkpt lat="45.88323" lon="5.38091">
        <ele>379.8</ele>
        <time>2021-02-20T15:37:05.000Z</time>
      </trkpt>
      <trkpt lat="45.88322" lon="5.38086">
        <ele>378.6</ele>
        <time>2021-02-20T15:37:06.000Z</time>
      </trkpt>
      <trkpt lat="45.88321" lon="5.38082">
        <ele>378</ele>
        <time>2021-02-20T15:37:07.000Z</time>
      </trkpt>
      <trkpt lat="45.88319" lon="5.38078">
        <ele>377</ele>
        <time>2021-02-20T15:37:08.000Z</time>
      </trkpt>
      <trkpt lat="45.88318" lon="5.38074">
        <ele>376.4</ele>
        <time>2021-02-20T15:37:09.000Z</time>
      </trkpt>
      <trkpt lat="45.88317" lon="5.38071">
        <ele>375.6</ele>
        <time>2021-02-20T15:37:10.000Z</time>
      </trkpt>
      <trkpt lat="45.88316" lon="5.38067">
        <ele>375</ele>
        <time>2021-02-20T15:37:11.000Z</time>
      </trkpt>
      <trkpt lat="45.88315" lon="5.38063">
        <ele>374.4</ele>
        <time>2021-02-20T15:37:12.000Z</time>
      </trkpt>
      <trkpt lat="45.88312" lon="5.38057">
        <ele>373</ele>
        <time>2021-02-20T15:37:14.000Z</time>
      </trkpt>
      <trkpt lat="45.88311" lon="5.38054">
        <ele>372.2</ele>
        <time>2021-02-20T15:37:15.000Z</time>
      </trkpt>
      <trkpt lat="45.88309" lon="5.38051">
        <ele>372.2</ele>
        <time>2021-02-20T15:37:16.000Z</time>
      </trkpt>
      <trkpt lat="45.88306" lon="5.38049">
        <ele>371.4</ele>
        <time>2021-02-20T15:37:17.000Z</time>
      </trkpt>
      <trkpt lat="45.88304" lon="5.38047">
        <ele>371</ele>
        <time>2021-02-20T15:37:18.000Z</time>
      </trkpt>
      <trkpt lat="45.88303" lon="5.38046">
        <ele>370.4</ele>
        <time>2021-02-20T15:37:19.000Z</time>
      </trkpt>
      <trkpt lat="45.88301" lon="5.38045">
        <ele>369.6</ele>
        <time>2021-02-20T15:37:20.000Z</time>
      </trkpt>
      <trkpt lat="45.883" lon="5.38043">
        <ele>368.6</ele>
        <time>2021-02-20T15:37:21.000Z</time>
      </trkpt>
      <trkpt lat="45.88299" lon="5.38042">
        <ele>367.4</ele>
        <time>2021-02-20T15:37:22.000Z</time>
      </trkpt>
      <trkpt lat="45.88297" lon="5.38041">
        <ele>366.6</ele>
        <time>2021-02-20T15:37:23.000Z</time>
      </trkpt>
      <trkpt lat="45.88294" lon="5.38035">
        <ele>366</ele>
        <time>2021-02-20T15:37:25.000Z</time>
      </trkpt>
      <trkpt lat="45.88292" lon="5.38033">
        <ele>365.4</ele>
        <time>2021-02-20T15:37:27.000Z</time>
      </trkpt>
      <trkpt lat="45.88291" lon="5.3803">
        <ele>364.8</ele>
        <time>2021-02-20T15:37:28.000Z</time>
      </trkpt>
      <trkpt lat="45.8829" lon="5.38026">
        <ele>363.8</ele>
        <time>2021-02-20T15:37:30.000Z</time>
      </trkpt>
      <trkpt lat="45.88286" lon="5.38023">
        <ele>363.2</ele>
        <time>2021-02-20T15:37:32.000Z</time>
      </trkpt>
      <trkpt lat="45.88284" lon="5.3802">
        <ele>363</ele>
        <time>2021-02-20T15:37:34.000Z</time>
      </trkpt>
      <trkpt lat="45.88282" lon="5.38019">
        <ele>362.8</ele>
        <time>2021-02-20T15:37:35.000Z</time>
      </trkpt>
      <trkpt lat="45.88277" lon="5.38017">
        <ele>362.8</ele>
        <time>2021-02-20T15:37:37.000Z</time>
      </trkpt>
      <trkpt lat="45.88274" lon="5.38015">
        <ele>362.8</ele>
        <time>2021-02-20T15:37:38.000Z</time>
      </trkpt>
      <trkpt lat="45.88265" lon="5.38012">
        <ele>362.4</ele>
        <time>2021-02-20T15:37:41.000Z</time>
      </trkpt>
      <trkpt lat="45.88258" lon="5.38012">
        <ele>362</ele>
        <time>2021-02-20T15:37:44.000Z</time>
      </trkpt>
      <trkpt lat="45.88256" lon="5.38012">
        <ele>361.8</ele>
        <time>2021-02-20T15:37:45.000Z</time>
      </trkpt>
      <trkpt lat="45.88253" lon="5.38011">
        <ele>361.2</ele>
        <time>2021-02-20T15:37:46.000Z</time>
      </trkpt>
      <trkpt lat="45.88249" lon="5.3801">
        <ele>360.4</ele>
        <time>2021-02-20T15:37:47.000Z</time>
      </trkpt>
      <trkpt lat="45.88246" lon="5.38009">
        <ele>360</ele>
        <time>2021-02-20T15:37:48.000Z</time>
      </trkpt>
      <trkpt lat="45.88243" lon="5.38009">
        <ele>359.4</ele>
        <time>2021-02-20T15:37:49.000Z</time>
      </trkpt>
      <trkpt lat="45.88229" lon="5.3801">
        <ele>357.8</ele>
        <time>2021-02-20T15:37:53.000Z</time>
      </trkpt>
      <trkpt lat="45.88226" lon="5.38009">
        <ele>357.6</ele>
        <time>2021-02-20T15:37:54.000Z</time>
      </trkpt>
      <trkpt lat="45.88223" lon="5.38007">
        <ele>357.4</ele>
        <time>2021-02-20T15:37:55.000Z</time>
      </trkpt>
      <trkpt lat="45.8822" lon="5.38003">
        <ele>356.6</ele>
        <time>2021-02-20T15:37:56.000Z</time>
      </trkpt>
      <trkpt lat="45.88217" lon="5.38">
        <ele>356.2</ele>
        <time>2021-02-20T15:37:57.000Z</time>
      </trkpt>
      <trkpt lat="45.88214" lon="5.37997">
        <ele>355.4</ele>
        <time>2021-02-20T15:37:58.000Z</time>
      </trkpt>
      <trkpt lat="45.88211" lon="5.37993">
        <ele>354.8</ele>
        <time>2021-02-20T15:37:59.000Z</time>
      </trkpt>
      <trkpt lat="45.88208" lon="5.37989">
        <ele>354.4</ele>
        <time>2021-02-20T15:38:00.000Z</time>
      </trkpt>
      <trkpt lat="45.88205" lon="5.37983">
        <ele>354</ele>
        <time>2021-02-20T15:38:01.000Z</time>
      </trkpt>
      <trkpt lat="45.88203" lon="5.37978">
        <ele>354</ele>
        <time>2021-02-20T15:38:02.000Z</time>
      </trkpt>
      <trkpt lat="45.88201" lon="5.37974">
        <ele>353</ele>
        <time>2021-02-20T15:38:03.000Z</time>
      </trkpt>
      <trkpt lat="45.88197" lon="5.37966">
        <ele>351.2</ele>
        <time>2021-02-20T15:38:05.000Z</time>
      </trkpt>
      <trkpt lat="45.88197" lon="5.37962">
        <ele>350.6</ele>
        <time>2021-02-20T15:38:06.000Z</time>
      </trkpt>
      <trkpt lat="45.88199" lon="5.37957">
        <ele>350.2</ele>
        <time>2021-02-20T15:38:07.000Z</time>
      </trkpt>
      <trkpt lat="45.88201" lon="5.37945">
        <ele>348.4</ele>
        <time>2021-02-20T15:38:09.000Z</time>
      </trkpt>
      <trkpt lat="45.88204" lon="5.37932">
        <ele>347.4</ele>
        <time>2021-02-20T15:38:11.000Z</time>
      </trkpt>
      <trkpt lat="45.88206" lon="5.37926">
        <ele>347</ele>
        <time>2021-02-20T15:38:12.000Z</time>
      </trkpt>
      <trkpt lat="45.8821" lon="5.37913">
        <ele>346</ele>
        <time>2021-02-20T15:38:14.000Z</time>
      </trkpt>
      <trkpt lat="45.88215" lon="5.379">
        <ele>344.4</ele>
        <time>2021-02-20T15:38:16.000Z</time>
      </trkpt>
      <trkpt lat="45.88217" lon="5.37894">
        <ele>343.6</ele>
        <time>2021-02-20T15:38:17.000Z</time>
      </trkpt>
      <trkpt lat="45.88224" lon="5.37882">
        <ele>342</ele>
        <time>2021-02-20T15:38:19.000Z</time>
      </trkpt>
      <trkpt lat="45.88227" lon="5.37877">
        <ele>341.2</ele>
        <time>2021-02-20T15:38:20.000Z</time>
      </trkpt>
      <trkpt lat="45.88231" lon="5.37872">
        <ele>340.6</ele>
        <time>2021-02-20T15:38:21.000Z</time>
      </trkpt>
      <trkpt lat="45.88235" lon="5.37869">
        <ele>340</ele>
        <time>2021-02-20T15:38:22.000Z</time>
      </trkpt>
      <trkpt lat="45.8824" lon="5.37867">
        <ele>340</ele>
        <time>2021-02-20T15:38:23.000Z</time>
      </trkpt>
      <trkpt lat="45.88244" lon="5.37865">
        <ele>339.4</ele>
        <time>2021-02-20T15:38:24.000Z</time>
      </trkpt>
      <trkpt lat="45.88249" lon="5.37864">
        <ele>338.8</ele>
        <time>2021-02-20T15:38:25.000Z</time>
      </trkpt>
      <trkpt lat="45.88253" lon="5.37863">
        <ele>337.8</ele>
        <time>2021-02-20T15:38:26.000Z</time>
      </trkpt>
      <trkpt lat="45.88258" lon="5.37863">
        <ele>337</ele>
        <time>2021-02-20T15:38:27.000Z</time>
      </trkpt>
      <trkpt lat="45.88262" lon="5.37863">
        <ele>336.4</ele>
        <time>2021-02-20T15:38:28.000Z</time>
      </trkpt>
      <trkpt lat="45.88266" lon="5.37863">
        <ele>335.8</ele>
        <time>2021-02-20T15:38:29.000Z</time>
      </trkpt>
      <trkpt lat="45.8827" lon="5.37863">
        <ele>335.2</ele>
        <time>2021-02-20T15:38:30.000Z</time>
      </trkpt>
      <trkpt lat="45.88279" lon="5.37864">
        <ele>333.6</ele>
        <time>2021-02-20T15:38:32.000Z</time>
      </trkpt>
      <trkpt lat="45.88291" lon="5.37868">
        <ele>331.6</ele>
        <time>2021-02-20T15:38:35.000Z</time>
      </trkpt>
      <trkpt lat="45.88295" lon="5.37871">
        <ele>330.8</ele>
        <time>2021-02-20T15:38:36.000Z</time>
      </trkpt>
      <trkpt lat="45.88307" lon="5.37881">
        <ele>328.6</ele>
        <time>2021-02-20T15:38:39.000Z</time>
      </trkpt>
      <trkpt lat="45.8831" lon="5.37882">
        <ele>327.8</ele>
        <time>2021-02-20T15:38:40.000Z</time>
      </trkpt>
      <trkpt lat="45.88314" lon="5.37884">
        <ele>327.2</ele>
        <time>2021-02-20T15:38:41.000Z</time>
      </trkpt>
      <trkpt lat="45.88319" lon="5.37883">
        <ele>326.6</ele>
        <time>2021-02-20T15:38:42.000Z</time>
      </trkpt>
      <trkpt lat="45.88322" lon="5.37882">
        <ele>326.6</ele>
        <time>2021-02-20T15:38:43.000Z</time>
      </trkpt>
      <trkpt lat="45.88326" lon="5.37883">
        <ele>326.2</ele>
        <time>2021-02-20T15:38:44.000Z</time>
      </trkpt>
      <trkpt lat="45.88329" lon="5.37883">
        <ele>325.8</ele>
        <time>2021-02-20T15:38:45.000Z</time>
      </trkpt>
      <trkpt lat="45.88331" lon="5.37883">
        <ele>325</ele>
        <time>2021-02-20T15:38:46.000Z</time>
      </trkpt>
      <trkpt lat="45.88333" lon="5.37882">
        <ele>324.2</ele>
        <time>2021-02-20T15:38:47.000Z</time>
      </trkpt>
      <trkpt lat="45.88338" lon="5.3788">
        <ele>323</ele>
        <time>2021-02-20T15:38:49.000Z</time>
      </trkpt>
      <trkpt lat="45.88343" lon="5.37878">
        <ele>321.8</ele>
        <time>2021-02-20T15:38:51.000Z</time>
      </trkpt>
      <trkpt lat="45.8835" lon="5.37875">
        <ele>320.6</ele>
        <time>2021-02-20T15:38:53.000Z</time>
      </trkpt>
      <trkpt lat="45.88356" lon="5.37871">
        <ele>319.4</ele>
        <time>2021-02-20T15:38:55.000Z</time>
      </trkpt>
      <trkpt lat="45.88359" lon="5.37868">
        <ele>319</ele>
        <time>2021-02-20T15:38:56.000Z</time>
      </trkpt>
      <trkpt lat="45.88361" lon="5.37863">
        <ele>318.8</ele>
        <time>2021-02-20T15:38:57.000Z</time>
      </trkpt>
      <trkpt lat="45.88363" lon="5.37858">
        <ele>318</ele>
        <time>2021-02-20T15:38:58.000Z</time>
      </trkpt>
      <trkpt lat="45.88365" lon="5.37853">
        <ele>317.2</ele>
        <time>2021-02-20T15:38:59.000Z</time>
      </trkpt>
      <trkpt lat="45.88367" lon="5.3785">
        <ele>316.8</ele>
        <time>2021-02-20T15:39:00.000Z</time>
      </trkpt>
      <trkpt lat="45.88373" lon="5.37839">
        <ele>315.2</ele>
        <time>2021-02-20T15:39:03.000Z</time>
      </trkpt>
      <trkpt lat="45.88375" lon="5.37836">
        <ele>314.4</ele>
        <time>2021-02-20T15:39:04.000Z</time>
      </trkpt>
      <trkpt lat="45.88378" lon="5.37827">
        <ele>312.6</ele>
        <time>2021-02-20T15:39:06.000Z</time>
      </trkpt>
      <trkpt lat="45.8838" lon="5.37823">
        <ele>312</ele>
        <time>2021-02-20T15:39:07.000Z</time>
      </trkpt>
      <trkpt lat="45.88382" lon="5.3782">
        <ele>310.8</ele>
        <time>2021-02-20T15:39:08.000Z</time>
      </trkpt>
      <trkpt lat="45.88385" lon="5.37816">
        <ele>310</ele>
        <time>2021-02-20T15:39:09.000Z</time>
      </trkpt>
      <trkpt lat="45.88388" lon="5.37814">
        <ele>308.8</ele>
        <time>2021-02-20T15:39:10.000Z</time>
      </trkpt>
      <trkpt lat="45.8839" lon="5.3781">
        <ele>308</ele>
        <time>2021-02-20T15:39:11.000Z</time>
      </trkpt>
      <trkpt lat="45.88395" lon="5.37801">
        <ele>305.6</ele>
        <time>2021-02-20T15:39:14.000Z</time>
      </trkpt>
      <trkpt lat="45.88396" lon="5.37796">
        <ele>304.6</ele>
        <time>2021-02-20T15:39:15.000Z</time>
      </trkpt>
      <trkpt lat="45.88397" lon="5.37791">
        <ele>304</ele>
        <time>2021-02-20T15:39:16.000Z</time>
      </trkpt>
      <trkpt lat="45.88398" lon="5.37787">
        <ele>303</ele>
        <time>2021-02-20T15:39:17.000Z</time>
      </trkpt>
      <trkpt lat="45.88399" lon="5.37782">
        <ele>302.6</ele>
        <time>2021-02-20T15:39:18.000Z</time>
      </trkpt>
      <trkpt lat="45.88398" lon="5.37778">
        <ele>301.6</ele>
        <time>2021-02-20T15:39:19.000Z</time>
      </trkpt>
      <trkpt lat="45.88398" lon="5.37773">
        <ele>300.8</ele>
        <time>2021-02-20T15:39:20.000Z</time>
      </trkpt>
      <trkpt lat="45.88399" lon="5.37764">
        <ele>300</ele>
        <time>2021-02-20T15:39:22.000Z</time>
      </trkpt>
      <trkpt lat="45.88398" lon="5.37758">
        <ele>299.2</ele>
        <time>2021-02-20T15:39:23.000Z</time>
      </trkpt>
      <trkpt lat="45.88398" lon="5.37752">
        <ele>297.8</ele>
        <time>2021-02-20T15:39:24.000Z</time>
      </trkpt>
      <trkpt lat="45.88396" lon="5.37746">
        <ele>297.2</ele>
        <time>2021-02-20T15:39:25.000Z</time>
      </trkpt>
      <trkpt lat="45.88395" lon="5.37739">
        <ele>296.6</ele>
        <time>2021-02-20T15:39:26.000Z</time>
      </trkpt>
      <trkpt lat="45.88395" lon="5.37734">
        <ele>296</ele>
        <time>2021-02-20T15:39:27.000Z</time>
      </trkpt>
      <trkpt lat="45.88396" lon="5.37729">
        <ele>295.4</ele>
        <time>2021-02-20T15:39:28.000Z</time>
      </trkpt>
      <trkpt lat="45.88396" lon="5.37724">
        <ele>295</ele>
        <time>2021-02-20T15:39:29.000Z</time>
      </trkpt>
      <trkpt lat="45.88395" lon="5.3772">
        <ele>294</ele>
        <time>2021-02-20T15:39:30.000Z</time>
      </trkpt>
      <trkpt lat="45.88395" lon="5.37717">
        <ele>293.6</ele>
        <time>2021-02-20T15:39:31.000Z</time>
      </trkpt>
      <trkpt lat="45.88395" lon="5.37716">
        <ele>293</ele>
        <time>2021-02-20T15:39:32.000Z</time>
      </trkpt>
      <trkpt lat="45.88385" lon="5.37701">
        <ele>285.2</ele>
        <time>2021-02-20T15:40:08.000Z</time>
      </trkpt>
      <trkpt lat="45.88382" lon="5.37702">
        <ele>285.2</ele>
        <time>2021-02-20T15:40:10.000Z</time>
      </trkpt>
      <trkpt lat="45.88379" lon="5.377">
        <ele>285</ele>
        <time>2021-02-20T15:40:12.000Z</time>
      </trkpt>
      <trkpt lat="45.88378" lon="5.37699">
        <ele>285</ele>
        <time>2021-02-20T15:40:13.000Z</time>
      </trkpt>
      <trkpt lat="45.88376" lon="5.37697">
        <ele>285</ele>
        <time>2021-02-20T15:40:14.000Z</time>
      </trkpt>
      <trkpt lat="45.88376" lon="5.37695">
        <ele>285</ele>
        <time>2021-02-20T15:40:15.000Z</time>
      </trkpt>
      <trkpt lat="45.88374" lon="5.37692">
        <ele>284.8</ele>
        <time>2021-02-20T15:40:16.000Z</time>
      </trkpt>
      <trkpt lat="45.8837" lon="5.37686">
        <ele>283.6</ele>
        <time>2021-02-20T15:40:19.000Z</time>
      </trkpt>
      <trkpt lat="45.88369" lon="5.37685">
        <ele>283.2</ele>
        <time>2021-02-20T15:40:20.000Z</time>
      </trkpt>
      <trkpt lat="45.88367" lon="5.37685">
        <ele>282.8</ele>
        <time>2021-02-20T15:40:21.000Z</time>
      </trkpt>
      <trkpt lat="45.88366" lon="5.37685">
        <ele>281.6</ele>
        <time>2021-02-20T15:40:29.000Z</time>
      </trkpt>
      <trkpt lat="45.88365" lon="5.37685">
        <ele>281.4</ele>
        <time>2021-02-20T15:40:30.000Z</time>
      </trkpt>
      <trkpt lat="45.88365" lon="5.37687">
        <ele>281.6</ele>
        <time>2021-02-20T15:40:31.000Z</time>
      </trkpt>
      <trkpt lat="45.88364" lon="5.3769">
        <ele>281.4</ele>
        <time>2021-02-20T15:40:32.000Z</time>
      </trkpt>
      <trkpt lat="45.88359" lon="5.37694">
        <ele>281.4</ele>
        <time>2021-02-20T15:40:33.000Z</time>
      </trkpt>
      <trkpt lat="45.88356" lon="5.37697">
        <ele>281.4</ele>
        <time>2021-02-20T15:40:34.000Z</time>
      </trkpt>
      <trkpt lat="45.88354" lon="5.377">
        <ele>281.2</ele>
        <time>2021-02-20T15:40:35.000Z</time>
      </trkpt>
      <trkpt lat="45.88352" lon="5.37703">
        <ele>281.2</ele>
        <time>2021-02-20T15:40:36.000Z</time>
      </trkpt>
      <trkpt lat="45.8835" lon="5.37707">
        <ele>281.2</ele>
        <time>2021-02-20T15:40:37.000Z</time>
      </trkpt>
      <trkpt lat="45.88348" lon="5.37709">
        <ele>281.2</ele>
        <time>2021-02-20T15:40:38.000Z</time>
      </trkpt>
      <trkpt lat="45.88346" lon="5.37712">
        <ele>280.8</ele>
        <time>2021-02-20T15:40:39.000Z</time>
      </trkpt>
      <trkpt lat="45.88345" lon="5.37714">
        <ele>280.2</ele>
        <time>2021-02-20T15:40:40.000Z</time>
      </trkpt>
      <trkpt lat="45.88344" lon="5.37716">
        <ele>279.6</ele>
        <time>2021-02-20T15:40:41.000Z</time>
      </trkpt>
      <trkpt lat="45.88341" lon="5.37718">
        <ele>278.8</ele>
        <time>2021-02-20T15:40:42.000Z</time>
      </trkpt>
      <trkpt lat="45.8834" lon="5.37721">
        <ele>278.2</ele>
        <time>2021-02-20T15:40:43.000Z</time>
      </trkpt>
      <trkpt lat="45.88338" lon="5.37723">
        <ele>277.4</ele>
        <time>2021-02-20T15:40:44.000Z</time>
      </trkpt>
      <trkpt lat="45.88336" lon="5.37724">
        <ele>276.8</ele>
        <time>2021-02-20T15:40:45.000Z</time>
      </trkpt>
      <trkpt lat="45.88334" lon="5.37725">
        <ele>276.4</ele>
        <time>2021-02-20T15:40:46.000Z</time>
      </trkpt>
      <trkpt lat="45.88328" lon="5.37729">
        <ele>275.2</ele>
        <time>2021-02-20T15:40:49.000Z</time>
      </trkpt>
      <trkpt lat="45.88325" lon="5.37732">
        <ele>274.6</ele>
        <time>2021-02-20T15:40:50.000Z</time>
      </trkpt>
      <trkpt lat="45.88321" lon="5.37734">
        <ele>273.8</ele>
        <time>2021-02-20T15:40:51.000Z</time>
      </trkpt>
      <trkpt lat="45.88317" lon="5.37735">
        <ele>273.4</ele>
        <time>2021-02-20T15:40:52.000Z</time>
      </trkpt>
      <trkpt lat="45.88314" lon="5.37736">
        <ele>273</ele>
        <time>2021-02-20T15:40:53.000Z</time>
      </trkpt>
      <trkpt lat="45.88307" lon="5.37739">
        <ele>272.2</ele>
        <time>2021-02-20T15:40:55.000Z</time>
      </trkpt>
      <trkpt lat="45.88303" lon="5.37741">
        <ele>272</ele>
        <time>2021-02-20T15:40:56.000Z</time>
      </trkpt>
      <trkpt lat="45.88299" lon="5.37742">
        <ele>271.6</ele>
        <time>2021-02-20T15:40:57.000Z</time>
      </trkpt>
      <trkpt lat="45.88296" lon="5.37742">
        <ele>270.6</ele>
        <time>2021-02-20T15:40:58.000Z</time>
      </trkpt>
      <trkpt lat="45.88292" lon="5.37742">
        <ele>269.8</ele>
        <time>2021-02-20T15:40:59.000Z</time>
      </trkpt>
      <trkpt lat="45.88289" lon="5.37743">
        <ele>268.8</ele>
        <time>2021-02-20T15:41:00.000Z</time>
      </trkpt>
      <trkpt lat="45.88286" lon="5.37743">
        <ele>268</ele>
        <time>2021-02-20T15:41:01.000Z</time>
      </trkpt>
      <trkpt lat="45.88282" lon="5.37744">
        <ele>267</ele>
        <time>2021-02-20T15:41:02.000Z</time>
      </trkpt>
      <trkpt lat="45.8828" lon="5.37744">
        <ele>266</ele>
        <time>2021-02-20T15:41:03.000Z</time>
      </trkpt>
      <trkpt lat="45.88276" lon="5.37744">
        <ele>265.4</ele>
        <time>2021-02-20T15:41:04.000Z</time>
      </trkpt>
      <trkpt lat="45.88274" lon="5.37744">
        <ele>264.4</ele>
        <time>2021-02-20T15:41:05.000Z</time>
      </trkpt>
      <trkpt lat="45.88272" lon="5.37744">
        <ele>263.2</ele>
        <time>2021-02-20T15:41:06.000Z</time>
      </trkpt>
      <trkpt lat="45.8827" lon="5.37744">
        <ele>262</ele>
        <time>2021-02-20T15:41:07.000Z</time>
      </trkpt>
      <trkpt lat="45.88268" lon="5.37744">
        <ele>262</ele>
        <time>2021-02-20T15:41:08.000Z</time>
      </trkpt>
      <trkpt lat="45.88257" lon="5.37746">
        <ele>252.8</ele>
        <time>2021-02-20T15:41:25.000Z</time>
      </trkpt>
      <trkpt lat="45.88256" lon="5.37744">
        <ele>252.8</ele>
        <time>2021-02-20T15:41:26.000Z</time>
      </trkpt>
      <trkpt lat="45.88255" lon="5.37742">
        <ele>252.4</ele>
        <time>2021-02-20T15:41:27.000Z</time>
      </trkpt>
      <trkpt lat="45.88252" lon="5.3774">
        <ele>252.2</ele>
        <time>2021-02-20T15:41:28.000Z</time>
      </trkpt>
      <trkpt lat="45.88249" lon="5.37736">
        <ele>252</ele>
        <time>2021-02-20T15:41:30.000Z</time>
      </trkpt>
      <trkpt lat="45.88247" lon="5.37735">
        <ele>251.8</ele>
        <time>2021-02-20T15:41:31.000Z</time>
      </trkpt>
      <trkpt lat="45.88242" lon="5.37732">
        <ele>251.6</ele>
        <time>2021-02-20T15:41:33.000Z</time>
      </trkpt>
      <trkpt lat="45.88239" lon="5.3773">
        <ele>251.2</ele>
        <time>2021-02-20T15:41:34.000Z</time>
      </trkpt>
      <trkpt lat="45.88236" lon="5.37729">
        <ele>250.6</ele>
        <time>2021-02-20T15:41:35.000Z</time>
      </trkpt>
      <trkpt lat="45.88233" lon="5.37729">
        <ele>249.6</ele>
        <time>2021-02-20T15:41:36.000Z</time>
      </trkpt>
      <trkpt lat="45.8823" lon="5.37729">
        <ele>248</ele>
        <time>2021-02-20T15:41:37.000Z</time>
      </trkpt>
      <trkpt lat="45.88226" lon="5.37728">
        <ele>248</ele>
        <time>2021-02-20T15:41:38.000Z</time>
      </trkpt>
      <trkpt lat="45.88224" lon="5.37728">
        <ele>247.4</ele>
        <time>2021-02-20T15:41:39.000Z</time>
      </trkpt>
      <trkpt lat="45.88221" lon="5.37726">
        <ele>246</ele>
        <time>2021-02-20T15:41:40.000Z</time>
      </trkpt>
      <trkpt lat="45.88219" lon="5.37722">
        <ele>244.6</ele>
        <time>2021-02-20T15:41:41.000Z</time>
      </trkpt>
      <trkpt lat="45.88215" lon="5.37715">
        <ele>242.6</ele>
        <time>2021-02-20T15:41:43.000Z</time>
      </trkpt>
      <trkpt lat="45.88213" lon="5.37711">
        <ele>241</ele>
        <time>2021-02-20T15:41:44.000Z</time>
      </trkpt>
      <trkpt lat="45.88212" lon="5.37709">
        <ele>239</ele>
        <time>2021-02-20T15:41:45.000Z</time>
      </trkpt>
      <trkpt lat="45.88211" lon="5.37707">
        <ele>238</ele>
        <time>2021-02-20T15:41:46.000Z</time>
      </trkpt>
      <trkpt lat="45.88208" lon="5.37703">
        <ele>236.8</ele>
        <time>2021-02-20T15:41:47.000Z</time>
      </trkpt>
      <trkpt lat="45.88205" lon="5.377">
        <ele>235.6</ele>
        <time>2021-02-20T15:41:48.000Z</time>
      </trkpt>
      <trkpt lat="45.88203" lon="5.37697">
        <ele>234</ele>
        <time>2021-02-20T15:41:49.000Z</time>
      </trkpt>
      <trkpt lat="45.88202" lon="5.37693">
        <ele>232.8</ele>
        <time>2021-02-20T15:41:50.000Z</time>
      </trkpt>
      <trkpt lat="45.88203" lon="5.3769">
        <ele>231.8</ele>
        <time>2021-02-20T15:41:51.000Z</time>
      </trkpt>
      <trkpt lat="45.88205" lon="5.37688">
        <ele>231</ele>
        <time>2021-02-20T15:41:52.000Z</time>
      </trkpt>
      <trkpt lat="45.88205" lon="5.37686">
        <ele>230</ele>
        <time>2021-02-20T15:41:53.000Z</time>
      </trkpt>
      <trkpt lat="45.88205" lon="5.37682">
        <ele>228.8</ele>
        <time>2021-02-20T15:41:54.000Z</time>
      </trkpt>
      <trkpt lat="45.88202" lon="5.37674">
        <ele>226.8</ele>
        <time>2021-02-20T15:41:56.000Z</time>
      </trkpt>
      <trkpt lat="45.882" lon="5.37668">
        <ele>225.6</ele>
        <time>2021-02-20T15:41:57.000Z</time>
      </trkpt>
      <trkpt lat="45.88191" lon="5.37643">
        <ele>224.2</ele>
        <time>2021-02-20T15:42:00.000Z</time>
      </trkpt>
      <trkpt lat="45.88188" lon="5.37634">
        <ele>223.6</ele>
        <time>2021-02-20T15:42:01.000Z</time>
      </trkpt>
      <trkpt lat="45.88184" lon="5.37624">
        <ele>223.6</ele>
        <time>2021-02-20T15:42:02.000Z</time>
      </trkpt>
      <trkpt lat="45.8818" lon="5.37615">
        <ele>223.4</ele>
        <time>2021-02-20T15:42:03.000Z</time>
      </trkpt>
      <trkpt lat="45.88177" lon="5.37606">
        <ele>222.6</ele>
        <time>2021-02-20T15:42:04.000Z</time>
      </trkpt>
      <trkpt lat="45.88174" lon="5.37597">
        <ele>222</ele>
        <time>2021-02-20T15:42:05.000Z</time>
      </trkpt>
      <trkpt lat="45.88173" lon="5.37588">
        <ele>221.2</ele>
        <time>2021-02-20T15:42:06.000Z</time>
      </trkpt>
      <trkpt lat="45.88171" lon="5.37578">
        <ele>220.2</ele>
        <time>2021-02-20T15:42:07.000Z</time>
      </trkpt>
      <trkpt lat="45.88168" lon="5.37571">
        <ele>219.2</ele>
        <time>2021-02-20T15:42:08.000Z</time>
      </trkpt>
      <trkpt lat="45.88162" lon="5.3755">
        <ele>218.2</ele>
        <time>2021-02-20T15:42:09.000Z</time>
      </trkpt>
      <trkpt lat="45.88153" lon="5.37526">
        <ele>216</ele>
        <time>2021-02-20T15:42:11.000Z</time>
      </trkpt>
      <trkpt lat="45.88148" lon="5.37518">
        <ele>214.8</ele>
        <time>2021-02-20T15:42:12.000Z</time>
      </trkpt>
      <trkpt lat="45.88144" lon="5.3751">
        <ele>214.2</ele>
        <time>2021-02-20T15:42:13.000Z</time>
      </trkpt>
      <trkpt lat="45.8814" lon="5.37503">
        <ele>213.8</ele>
        <time>2021-02-20T15:42:14.000Z</time>
      </trkpt>
      <trkpt lat="45.88135" lon="5.37496">
        <ele>213.6</ele>
        <time>2021-02-20T15:42:15.000Z</time>
      </trkpt>
      <trkpt lat="45.88131" lon="5.3749">
        <ele>213.4</ele>
        <time>2021-02-20T15:42:16.000Z</time>
      </trkpt>
      <trkpt lat="45.88128" lon="5.37485">
        <ele>213.2</ele>
        <time>2021-02-20T15:42:17.000Z</time>
      </trkpt>
      <trkpt lat="45.88125" lon="5.37481">
        <ele>213</ele>
        <time>2021-02-20T15:42:18.000Z</time>
      </trkpt>
      <trkpt lat="45.88123" lon="5.37479">
        <ele>213</ele>
        <time>2021-02-20T15:42:19.000Z</time>
      </trkpt>
      <trkpt lat="45.8812" lon="5.37478">
        <ele>213</ele>
        <time>2021-02-20T15:42:20.000Z</time>
      </trkpt>
      <trkpt lat="45.88118" lon="5.37478">
        <ele>213</ele>
        <time>2021-02-20T15:42:21.000Z</time>
      </trkpt>
      <trkpt lat="45.88116" lon="5.37478">
        <ele>212.8</ele>
        <time>2021-02-20T15:42:22.000Z</time>
      </trkpt>
      <trkpt lat="45.88114" lon="5.37479">
        <ele>212.8</ele>
        <time>2021-02-20T15:42:23.000Z</time>
      </trkpt>
      <trkpt lat="45.88112" lon="5.37479">
        <ele>213</ele>
        <time>2021-02-20T15:42:24.000Z</time>
      </trkpt>
      <trkpt lat="45.8811" lon="5.3748">
        <ele>212.8</ele>
        <time>2021-02-20T15:42:25.000Z</time>
      </trkpt>
      <trkpt lat="45.88109" lon="5.3748">
        <ele>213</ele>
        <time>2021-02-20T15:42:26.000Z</time>
      </trkpt>
      <trkpt lat="45.88108" lon="5.3748">
        <ele>212.8</ele>
        <time>2021-02-20T15:42:27.000Z</time>
      </trkpt>
      <trkpt lat="45.88108" lon="5.37479">
        <ele>213</ele>
        <time>2021-02-20T15:42:28.000Z</time>
      </trkpt>
      <trkpt lat="45.88107" lon="5.37477">
        <ele>213</ele>
        <time>2021-02-20T15:42:29.000Z</time>
      </trkpt>
      <trkpt lat="45.88108" lon="5.3747">
        <ele>213</ele>
        <time>2021-02-20T15:42:32.000Z</time>
      </trkpt>
      <trkpt lat="45.88109" lon="5.37467">
        <ele>213</ele>
        <time>2021-02-20T15:42:33.000Z</time>
      </trkpt>
      <trkpt lat="45.88111" lon="5.37463">
        <ele>213</ele>
        <time>2021-02-20T15:42:34.000Z</time>
      </trkpt>
      <trkpt lat="45.88113" lon="5.37458">
        <ele>213</ele>
        <time>2021-02-20T15:42:35.000Z</time>
      </trkpt>
      <trkpt lat="45.88115" lon="5.37453">
        <ele>213</ele>
        <time>2021-02-20T15:42:36.000Z</time>
      </trkpt>
      <trkpt lat="45.88118" lon="5.37441">
        <ele>213</ele>
        <time>2021-02-20T15:42:38.000Z</time>
      </trkpt>
      <trkpt lat="45.88121" lon="5.3743">
        <ele>213</ele>
        <time>2021-02-20T15:42:40.000Z</time>
      </trkpt>
      <trkpt lat="45.88133" lon="5.37393">
        <ele>212.8</ele>
        <time>2021-02-20T15:42:46.000Z</time>
      </trkpt>
      <trkpt lat="45.88146" lon="5.3736">
        <ele>212.6</ele>
        <time>2021-02-20T15:42:51.000Z</time>
      </trkpt>
      <trkpt lat="45.88149" lon="5.37354">
        <ele>212.8</ele>
        <time>2021-02-20T15:42:52.000Z</time>
      </trkpt>
      <trkpt lat="45.88151" lon="5.37348">
        <ele>212.8</ele>
        <time>2021-02-20T15:42:53.000Z</time>
      </trkpt>
      <trkpt lat="45.88154" lon="5.37342">
        <ele>212.8</ele>
        <time>2021-02-20T15:42:54.000Z</time>
      </trkpt>
      <trkpt lat="45.88158" lon="5.3733">
        <ele>212.6</ele>
        <time>2021-02-20T15:42:56.000Z</time>
      </trkpt>
      <trkpt lat="45.8816" lon="5.37325">
        <ele>212.8</ele>
        <time>2021-02-20T15:42:57.000Z</time>
      </trkpt>
      <trkpt lat="45.88163" lon="5.37319">
        <ele>212.6</ele>
        <time>2021-02-20T15:42:58.000Z</time>
      </trkpt>
      <trkpt lat="45.88166" lon="5.37314">
        <ele>212.6</ele>
        <time>2021-02-20T15:42:59.000Z</time>
      </trkpt>
      <trkpt lat="45.88183" lon="5.37279">
        <ele>212.8</ele>
        <time>2021-02-20T15:43:05.000Z</time>
      </trkpt>
      <trkpt lat="45.88186" lon="5.37273">
        <ele>212.8</ele>
        <time>2021-02-20T15:43:06.000Z</time>
      </trkpt>
      <trkpt lat="45.88189" lon="5.37268">
        <ele>212.6</ele>
        <time>2021-02-20T15:43:07.000Z</time>
      </trkpt>
      <trkpt lat="45.88195" lon="5.37257">
        <ele>212.6</ele>
        <time>2021-02-20T15:43:09.000Z</time>
      </trkpt>
      <trkpt lat="45.88201" lon="5.37247">
        <ele>212.8</ele>
        <time>2021-02-20T15:43:11.000Z</time>
      </trkpt>
      <trkpt lat="45.88204" lon="5.37242">
        <ele>212.8</ele>
        <time>2021-02-20T15:43:12.000Z</time>
      </trkpt>
      <trkpt lat="45.88207" lon="5.37237">
        <ele>212.6</ele>
        <time>2021-02-20T15:43:13.000Z</time>
      </trkpt>
      <trkpt lat="45.8821" lon="5.37232">
        <ele>212.6</ele>
        <time>2021-02-20T15:43:14.000Z</time>
      </trkpt>
      <trkpt lat="45.88228" lon="5.37207">
        <ele>212.8</ele>
        <time>2021-02-20T15:43:19.000Z</time>
      </trkpt>
      <trkpt lat="45.88232" lon="5.37202">
        <ele>212.8</ele>
        <time>2021-02-20T15:43:20.000Z</time>
      </trkpt>
      <trkpt lat="45.88235" lon="5.37197">
        <ele>212.8</ele>
        <time>2021-02-20T15:43:21.000Z</time>
      </trkpt>
      <trkpt lat="45.88238" lon="5.37192">
        <ele>212.8</ele>
        <time>2021-02-20T15:43:22.000Z</time>
      </trkpt>
      <trkpt lat="45.88253" lon="5.37174">
        <ele>212.8</ele>
        <time>2021-02-20T15:43:26.000Z</time>
      </trkpt>
      <trkpt lat="45.88256" lon="5.37169">
        <ele>212.8</ele>
        <time>2021-02-20T15:43:27.000Z</time>
      </trkpt>
      <trkpt lat="45.88259" lon="5.37164">
        <ele>212.8</ele>
        <time>2021-02-20T15:43:28.000Z</time>
      </trkpt>
      <trkpt lat="45.88268" lon="5.3715">
        <ele>212.8</ele>
        <time>2021-02-20T15:43:31.000Z</time>
      </trkpt>
      <trkpt lat="45.8827" lon="5.37145">
        <ele>212.8</ele>
        <time>2021-02-20T15:43:32.000Z</time>
      </trkpt>
      <trkpt lat="45.88274" lon="5.3714">
        <ele>212.8</ele>
        <time>2021-02-20T15:43:33.000Z</time>
      </trkpt>
      <trkpt lat="45.88277" lon="5.37136">
        <ele>213</ele>
        <time>2021-02-20T15:43:34.000Z</time>
      </trkpt>
      <trkpt lat="45.88279" lon="5.37132">
        <ele>213</ele>
        <time>2021-02-20T15:43:35.000Z</time>
      </trkpt>
      <trkpt lat="45.88282" lon="5.37128">
        <ele>213</ele>
        <time>2021-02-20T15:43:36.000Z</time>
      </trkpt>
      <trkpt lat="45.88284" lon="5.37125">
        <ele>213</ele>
        <time>2021-02-20T15:43:37.000Z</time>
      </trkpt>
      <trkpt lat="45.88287" lon="5.37121">
        <ele>212.8</ele>
        <time>2021-02-20T15:43:38.000Z</time>
      </trkpt>
      <trkpt lat="45.88289" lon="5.37117">
        <ele>213</ele>
        <time>2021-02-20T15:43:39.000Z</time>
      </trkpt>
      <trkpt lat="45.88291" lon="5.37115">
        <ele>213</ele>
        <time>2021-02-20T15:43:40.000Z</time>
      </trkpt>
      <trkpt lat="45.88292" lon="5.37112">
        <ele>213</ele>
        <time>2021-02-20T15:43:41.000Z</time>
      </trkpt>
      <trkpt lat="45.88293" lon="5.3711">
        <ele>213</ele>
        <time>2021-02-20T15:43:42.000Z</time>
      </trkpt>
      <trkpt lat="45.88293" lon="5.37107">
        <ele>213</ele>
        <time>2021-02-20T15:43:43.000Z</time>
      </trkpt>
      <trkpt lat="45.88293" lon="5.37103">
        <ele>213</ele>
        <time>2021-02-20T15:43:44.000Z</time>
      </trkpt>
      <trkpt lat="45.8829" lon="5.37095">
        <ele>213</ele>
        <time>2021-02-20T15:43:46.000Z</time>
      </trkpt>
      <trkpt lat="45.88287" lon="5.3709">
        <ele>213.2</ele>
        <time>2021-02-20T15:43:47.000Z</time>
      </trkpt>
      <trkpt lat="45.88284" lon="5.37086">
        <ele>213.2</ele>
        <time>2021-02-20T15:43:48.000Z</time>
      </trkpt>
      <trkpt lat="45.8828" lon="5.37081">
        <ele>213.2</ele>
        <time>2021-02-20T15:43:49.000Z</time>
      </trkpt>
      <trkpt lat="45.88275" lon="5.37077">
        <ele>213.2</ele>
        <time>2021-02-20T15:43:50.000Z</time>
      </trkpt>
      <trkpt lat="45.88267" lon="5.37067">
        <ele>213.2</ele>
        <time>2021-02-20T15:43:52.000Z</time>
      </trkpt>
      <trkpt lat="45.88247" lon="5.37046">
        <ele>213</ele>
        <time>2021-02-20T15:43:56.000Z</time>
      </trkpt>
      <trkpt lat="45.88237" lon="5.37037">
        <ele>212.4</ele>
        <time>2021-02-20T15:43:58.000Z</time>
      </trkpt>
      <trkpt lat="45.88232" lon="5.37032">
        <ele>212.4</ele>
        <time>2021-02-20T15:43:59.000Z</time>
      </trkpt>
      <trkpt lat="45.88223" lon="5.37023">
        <ele>212.2</ele>
        <time>2021-02-20T15:44:01.000Z</time>
      </trkpt>
      <trkpt lat="45.88218" lon="5.37019">
        <ele>212.4</ele>
        <time>2021-02-20T15:44:02.000Z</time>
      </trkpt>
      <trkpt lat="45.88214" lon="5.37015">
        <ele>212.2</ele>
        <time>2021-02-20T15:44:03.000Z</time>
      </trkpt>
      <trkpt lat="45.8821" lon="5.37012">
        <ele>212.2</ele>
        <time>2021-02-20T15:44:04.000Z</time>
      </trkpt>
      <trkpt lat="45.88205" lon="5.37008">
        <ele>212.2</ele>
        <time>2021-02-20T15:44:05.000Z</time>
      </trkpt>
      <trkpt lat="45.88202" lon="5.37005">
        <ele>212.2</ele>
        <time>2021-02-20T15:44:06.000Z</time>
      </trkpt>
      <trkpt lat="45.88198" lon="5.37001">
        <ele>212.2</ele>
        <time>2021-02-20T15:44:07.000Z</time>
      </trkpt>
      <trkpt lat="45.88184" lon="5.36989">
        <ele>212.4</ele>
        <time>2021-02-20T15:44:11.000Z</time>
      </trkpt>
      <trkpt lat="45.8818" lon="5.36986">
        <ele>212.6</ele>
        <time>2021-02-20T15:44:12.000Z</time>
      </trkpt>
      <trkpt lat="45.88172" lon="5.36979">
        <ele>213.2</ele>
        <time>2021-02-20T15:44:14.000Z</time>
      </trkpt>
      <trkpt lat="45.88168" lon="5.36976">
        <ele>213.2</ele>
        <time>2021-02-20T15:44:15.000Z</time>
      </trkpt>
      <trkpt lat="45.88164" lon="5.36973">
        <ele>213</ele>
        <time>2021-02-20T15:44:16.000Z</time>
      </trkpt>
      <trkpt lat="45.8816" lon="5.3697">
        <ele>213.2</ele>
        <time>2021-02-20T15:44:17.000Z</time>
      </trkpt>
      <trkpt lat="45.88157" lon="5.36967">
        <ele>213.2</ele>
        <time>2021-02-20T15:44:18.000Z</time>
      </trkpt>
      <trkpt lat="45.8815" lon="5.36962">
        <ele>213.4</ele>
        <time>2021-02-20T15:44:20.000Z</time>
      </trkpt>
      <trkpt lat="45.88147" lon="5.36959">
        <ele>213.4</ele>
        <time>2021-02-20T15:44:21.000Z</time>
      </trkpt>
      <trkpt lat="45.88143" lon="5.36957">
        <ele>213.4</ele>
        <time>2021-02-20T15:44:22.000Z</time>
      </trkpt>
      <trkpt lat="45.8814" lon="5.36954">
        <ele>213.4</ele>
        <time>2021-02-20T15:44:23.000Z</time>
      </trkpt>
      <trkpt lat="45.88136" lon="5.36951">
        <ele>213.4</ele>
        <time>2021-02-20T15:44:24.000Z</time>
      </trkpt>
      <trkpt lat="45.88133" lon="5.36948">
        <ele>213.6</ele>
        <time>2021-02-20T15:44:25.000Z</time>
      </trkpt>
      <trkpt lat="45.88129" lon="5.36945">
        <ele>213.4</ele>
        <time>2021-02-20T15:44:26.000Z</time>
      </trkpt>
      <trkpt lat="45.88126" lon="5.36942">
        <ele>213.4</ele>
        <time>2021-02-20T15:44:27.000Z</time>
      </trkpt>
      <trkpt lat="45.88123" lon="5.3694">
        <ele>213.4</ele>
        <time>2021-02-20T15:44:28.000Z</time>
      </trkpt>
      <trkpt lat="45.8812" lon="5.36937">
        <ele>213.4</ele>
        <time>2021-02-20T15:44:29.000Z</time>
      </trkpt>
      <trkpt lat="45.88117" lon="5.36935">
        <ele>213.6</ele>
        <time>2021-02-20T15:44:30.000Z</time>
      </trkpt>
      <trkpt lat="45.88114" lon="5.36932">
        <ele>213.4</ele>
        <time>2021-02-20T15:44:31.000Z</time>
      </trkpt>
      <trkpt lat="45.88097" lon="5.36913">
        <ele>213.6</ele>
        <time>2021-02-20T15:44:36.000Z</time>
      </trkpt>
      <trkpt lat="45.88083" lon="5.36896">
        <ele>213.6</ele>
        <time>2021-02-20T15:44:39.000Z</time>
      </trkpt>
      <trkpt lat="45.88073" lon="5.36887">
        <ele>213.6</ele>
        <time>2021-02-20T15:44:41.000Z</time>
      </trkpt>
      <trkpt lat="45.88068" lon="5.36882">
        <ele>213.6</ele>
        <time>2021-02-20T15:44:42.000Z</time>
      </trkpt>
      <trkpt lat="45.88063" lon="5.36878">
        <ele>213.6</ele>
        <time>2021-02-20T15:44:43.000Z</time>
      </trkpt>
      <trkpt lat="45.88058" lon="5.36873">
        <ele>213.6</ele>
        <time>2021-02-20T15:44:44.000Z</time>
      </trkpt>
      <trkpt lat="45.88042" lon="5.3686">
        <ele>213.2</ele>
        <time>2021-02-20T15:44:47.000Z</time>
      </trkpt>
      <trkpt lat="45.88037" lon="5.36856">
        <ele>213.4</ele>
        <time>2021-02-20T15:44:48.000Z</time>
      </trkpt>
      <trkpt lat="45.88032" lon="5.36851">
        <ele>213.4</ele>
        <time>2021-02-20T15:44:49.000Z</time>
      </trkpt>
      <trkpt lat="45.88022" lon="5.36843">
        <ele>213.2</ele>
        <time>2021-02-20T15:44:51.000Z</time>
      </trkpt>
      <trkpt lat="45.88017" lon="5.36839">
        <ele>213.2</ele>
        <time>2021-02-20T15:44:52.000Z</time>
      </trkpt>
      <trkpt lat="45.88013" lon="5.36835">
        <ele>213</ele>
        <time>2021-02-20T15:44:53.000Z</time>
      </trkpt>
      <trkpt lat="45.88008" lon="5.36831">
        <ele>213</ele>
        <time>2021-02-20T15:44:54.000Z</time>
      </trkpt>
      <trkpt lat="45.88004" lon="5.36827">
        <ele>213</ele>
        <time>2021-02-20T15:44:55.000Z</time>
      </trkpt>
      <trkpt lat="45.8796" lon="5.36787">
        <ele>212.6</ele>
        <time>2021-02-20T15:45:04.000Z</time>
      </trkpt>
      <trkpt lat="45.87945" lon="5.36774">
        <ele>212.4</ele>
        <time>2021-02-20T15:45:07.000Z</time>
      </trkpt>
      <trkpt lat="45.8794" lon="5.36769">
        <ele>212.4</ele>
        <time>2021-02-20T15:45:08.000Z</time>
      </trkpt>
      <trkpt lat="45.87914" lon="5.36747">
        <ele>212.6</ele>
        <time>2021-02-20T15:45:13.000Z</time>
      </trkpt>
      <trkpt lat="45.87898" lon="5.36733">
        <ele>212.4</ele>
        <time>2021-02-20T15:45:16.000Z</time>
      </trkpt>
      <trkpt lat="45.87893" lon="5.36729">
        <ele>212.4</ele>
        <time>2021-02-20T15:45:17.000Z</time>
      </trkpt>
      <trkpt lat="45.87888" lon="5.36724">
        <ele>212.4</ele>
        <time>2021-02-20T15:45:18.000Z</time>
      </trkpt>
      <trkpt lat="45.87883" lon="5.3672">
        <ele>212.2</ele>
        <time>2021-02-20T15:45:19.000Z</time>
      </trkpt>
      <trkpt lat="45.87878" lon="5.36716">
        <ele>212.4</ele>
        <time>2021-02-20T15:45:20.000Z</time>
      </trkpt>
      <trkpt lat="45.87873" lon="5.36712">
        <ele>212.2</ele>
        <time>2021-02-20T15:45:21.000Z</time>
      </trkpt>
      <trkpt lat="45.87868" lon="5.36708">
        <ele>212</ele>
        <time>2021-02-20T15:45:22.000Z</time>
      </trkpt>
      <trkpt lat="45.87857" lon="5.367">
        <ele>212</ele>
        <time>2021-02-20T15:45:24.000Z</time>
      </trkpt>
      <trkpt lat="45.87852" lon="5.36696">
        <ele>211.8</ele>
        <time>2021-02-20T15:45:25.000Z</time>
      </trkpt>
      <trkpt lat="45.87847" lon="5.36692">
        <ele>211.8</ele>
        <time>2021-02-20T15:45:26.000Z</time>
      </trkpt>
      <trkpt lat="45.87842" lon="5.36688">
        <ele>211.6</ele>
        <time>2021-02-20T15:45:27.000Z</time>
      </trkpt>
      <trkpt lat="45.87837" lon="5.36684">
        <ele>211.6</ele>
        <time>2021-02-20T15:45:28.000Z</time>
      </trkpt>
      <trkpt lat="45.87832" lon="5.3668">
        <ele>211.6</ele>
        <time>2021-02-20T15:45:29.000Z</time>
      </trkpt>
      <trkpt lat="45.87828" lon="5.36676">
        <ele>211.6</ele>
        <time>2021-02-20T15:45:30.000Z</time>
      </trkpt>
      <trkpt lat="45.87823" lon="5.36672">
        <ele>211.6</ele>
        <time>2021-02-20T15:45:31.000Z</time>
      </trkpt>
      <trkpt lat="45.87818" lon="5.36668">
        <ele>211.6</ele>
        <time>2021-02-20T15:45:32.000Z</time>
      </trkpt>
      <trkpt lat="45.87814" lon="5.36664">
        <ele>211.4</ele>
        <time>2021-02-20T15:45:33.000Z</time>
      </trkpt>
      <trkpt lat="45.87809" lon="5.3666">
        <ele>211.4</ele>
        <time>2021-02-20T15:45:34.000Z</time>
      </trkpt>
      <trkpt lat="45.87805" lon="5.36656">
        <ele>211.4</ele>
        <time>2021-02-20T15:45:35.000Z</time>
      </trkpt>
      <trkpt lat="45.87801" lon="5.36652">
        <ele>211.4</ele>
        <time>2021-02-20T15:45:36.000Z</time>
      </trkpt>
      <trkpt lat="45.8779" lon="5.36651">
        <ele>211.4</ele>
        <time>2021-02-20T15:45:38.000Z</time>
      </trkpt>
      <trkpt lat="45.87785" lon="5.36655">
        <ele>211.4</ele>
        <time>2021-02-20T15:45:39.000Z</time>
      </trkpt>
      <trkpt lat="45.8778" lon="5.36661">
        <ele>211.4</ele>
        <time>2021-02-20T15:45:40.000Z</time>
      </trkpt>
      <trkpt lat="45.87776" lon="5.36669">
        <ele>211.4</ele>
        <time>2021-02-20T15:45:41.000Z</time>
      </trkpt>
      <trkpt lat="45.87772" lon="5.36677">
        <ele>211.2</ele>
        <time>2021-02-20T15:45:42.000Z</time>
      </trkpt>
      <trkpt lat="45.87768" lon="5.36685">
        <ele>211.2</ele>
        <time>2021-02-20T15:45:43.000Z</time>
      </trkpt>
      <trkpt lat="45.87765" lon="5.36694">
        <ele>211.2</ele>
        <time>2021-02-20T15:45:44.000Z</time>
      </trkpt>
      <trkpt lat="45.87761" lon="5.36702">
        <ele>211.2</ele>
        <time>2021-02-20T15:45:45.000Z</time>
      </trkpt>
      <trkpt lat="45.87757" lon="5.3671">
        <ele>211.2</ele>
        <time>2021-02-20T15:45:46.000Z</time>
      </trkpt>
      <trkpt lat="45.87754" lon="5.36718">
        <ele>211</ele>
        <time>2021-02-20T15:45:47.000Z</time>
      </trkpt>
      <trkpt lat="45.87734" lon="5.36766">
        <ele>211</ele>
        <time>2021-02-20T15:45:53.000Z</time>
      </trkpt>
      <trkpt lat="45.87728" lon="5.36783">
        <ele>211</ele>
        <time>2021-02-20T15:45:55.000Z</time>
      </trkpt>
      <trkpt lat="45.87725" lon="5.36792">
        <ele>210.8</ele>
        <time>2021-02-20T15:45:56.000Z</time>
      </trkpt>
      <trkpt lat="45.87723" lon="5.368">
        <ele>211</ele>
        <time>2021-02-20T15:45:57.000Z</time>
      </trkpt>
      <trkpt lat="45.87716" lon="5.36815">
        <ele>211</ele>
        <time>2021-02-20T15:45:59.000Z</time>
      </trkpt>
      <trkpt lat="45.8771" lon="5.3683">
        <ele>211.2</ele>
        <time>2021-02-20T15:46:01.000Z</time>
      </trkpt>
      <trkpt lat="45.87701" lon="5.36855">
        <ele>211</ele>
        <time>2021-02-20T15:46:04.000Z</time>
      </trkpt>
      <trkpt lat="45.87698" lon="5.36864">
        <ele>211</ele>
        <time>2021-02-20T15:46:05.000Z</time>
      </trkpt>
      <trkpt lat="45.87693" lon="5.36881">
        <ele>211.2</ele>
        <time>2021-02-20T15:46:07.000Z</time>
      </trkpt>
      <trkpt lat="45.8769" lon="5.36889">
        <ele>211.2</ele>
        <time>2021-02-20T15:46:08.000Z</time>
      </trkpt>
      <trkpt lat="45.87685" lon="5.36906">
        <ele>211</ele>
        <time>2021-02-20T15:46:10.000Z</time>
      </trkpt>
      <trkpt lat="45.87683" lon="5.36915">
        <ele>211</ele>
        <time>2021-02-20T15:46:11.000Z</time>
      </trkpt>
      <trkpt lat="45.87674" lon="5.36948">
        <ele>211</ele>
        <time>2021-02-20T15:46:15.000Z</time>
      </trkpt>
      <trkpt lat="45.87673" lon="5.36957">
        <ele>211</ele>
        <time>2021-02-20T15:46:16.000Z</time>
      </trkpt>
      <trkpt lat="45.87671" lon="5.36966">
        <ele>211</ele>
        <time>2021-02-20T15:46:17.000Z</time>
      </trkpt>
      <trkpt lat="45.8767" lon="5.36974">
        <ele>211</ele>
        <time>2021-02-20T15:46:18.000Z</time>
      </trkpt>
      <trkpt lat="45.87668" lon="5.36991">
        <ele>210.8</ele>
        <time>2021-02-20T15:46:20.000Z</time>
      </trkpt>
      <trkpt lat="45.87663" lon="5.37017">
        <ele>210.8</ele>
        <time>2021-02-20T15:46:23.000Z</time>
      </trkpt>
      <trkpt lat="45.87653" lon="5.37051">
        <ele>210.8</ele>
        <time>2021-02-20T15:46:27.000Z</time>
      </trkpt>
      <trkpt lat="45.8765" lon="5.37058">
        <ele>210.8</ele>
        <time>2021-02-20T15:46:28.000Z</time>
      </trkpt>
      <trkpt lat="45.87647" lon="5.37065">
        <ele>210.8</ele>
        <time>2021-02-20T15:46:29.000Z</time>
      </trkpt>
      <trkpt lat="45.87643" lon="5.37072">
        <ele>210.8</ele>
        <time>2021-02-20T15:46:30.000Z</time>
      </trkpt>
      <trkpt lat="45.8764" lon="5.3708">
        <ele>210.8</ele>
        <time>2021-02-20T15:46:31.000Z</time>
      </trkpt>
      <trkpt lat="45.87637" lon="5.37086">
        <ele>210.8</ele>
        <time>2021-02-20T15:46:32.000Z</time>
      </trkpt>
      <trkpt lat="45.87634" lon="5.37093">
        <ele>210.8</ele>
        <time>2021-02-20T15:46:33.000Z</time>
      </trkpt>
      <trkpt lat="45.87631" lon="5.37099">
        <ele>210.8</ele>
        <time>2021-02-20T15:46:34.000Z</time>
      </trkpt>
      <trkpt lat="45.87628" lon="5.37105">
        <ele>210.8</ele>
        <time>2021-02-20T15:46:35.000Z</time>
      </trkpt>
      <trkpt lat="45.87605" lon="5.37134">
        <ele>210.8</ele>
        <time>2021-02-20T15:46:40.000Z</time>
      </trkpt>
      <trkpt lat="45.87579" lon="5.37162">
        <ele>210.8</ele>
        <time>2021-02-20T15:46:45.000Z</time>
      </trkpt>
      <trkpt lat="45.87574" lon="5.37167">
        <ele>211</ele>
        <time>2021-02-20T15:46:46.000Z</time>
      </trkpt>
      <trkpt lat="45.87569" lon="5.37172">
        <ele>210.8</ele>
        <time>2021-02-20T15:46:47.000Z</time>
      </trkpt>
      <trkpt lat="45.87559" lon="5.37183">
        <ele>210.8</ele>
        <time>2021-02-20T15:46:49.000Z</time>
      </trkpt>
      <trkpt lat="45.87554" lon="5.37189">
        <ele>211</ele>
        <time>2021-02-20T15:46:50.000Z</time>
      </trkpt>
      <trkpt lat="45.8755" lon="5.37194">
        <ele>211.2</ele>
        <time>2021-02-20T15:46:51.000Z</time>
      </trkpt>
      <trkpt lat="45.87546" lon="5.372">
        <ele>211</ele>
        <time>2021-02-20T15:46:52.000Z</time>
      </trkpt>
      <trkpt lat="45.87542" lon="5.37205">
        <ele>211</ele>
        <time>2021-02-20T15:46:53.000Z</time>
      </trkpt>
      <trkpt lat="45.87538" lon="5.3721">
        <ele>211.2</ele>
        <time>2021-02-20T15:46:54.000Z</time>
      </trkpt>
      <trkpt lat="45.87534" lon="5.37215">
        <ele>211.2</ele>
        <time>2021-02-20T15:46:55.000Z</time>
      </trkpt>
      <trkpt lat="45.87531" lon="5.3722">
        <ele>211.2</ele>
        <time>2021-02-20T15:46:56.000Z</time>
      </trkpt>
      <trkpt lat="45.87527" lon="5.37225">
        <ele>211.2</ele>
        <time>2021-02-20T15:46:57.000Z</time>
      </trkpt>
      <trkpt lat="45.87517" lon="5.37242">
        <ele>211.2</ele>
        <time>2021-02-20T15:47:00.000Z</time>
      </trkpt>
      <trkpt lat="45.8751" lon="5.37254">
        <ele>211.2</ele>
        <time>2021-02-20T15:47:02.000Z</time>
      </trkpt>
      <trkpt lat="45.875" lon="5.37274">
        <ele>211.2</ele>
        <time>2021-02-20T15:47:05.000Z</time>
      </trkpt>
      <trkpt lat="45.87496" lon="5.3728">
        <ele>211.4</ele>
        <time>2021-02-20T15:47:06.000Z</time>
      </trkpt>
      <trkpt lat="45.87493" lon="5.37286">
        <ele>211.4</ele>
        <time>2021-02-20T15:47:07.000Z</time>
      </trkpt>
      <trkpt lat="45.87489" lon="5.37292">
        <ele>211.4</ele>
        <time>2021-02-20T15:47:08.000Z</time>
      </trkpt>
      <trkpt lat="45.87485" lon="5.37298">
        <ele>211.2</ele>
        <time>2021-02-20T15:47:09.000Z</time>
      </trkpt>
      <trkpt lat="45.87467" lon="5.37324">
        <ele>211.2</ele>
        <time>2021-02-20T15:47:14.000Z</time>
      </trkpt>
      <trkpt lat="45.87443" lon="5.37352">
        <ele>211</ele>
        <time>2021-02-20T15:47:19.000Z</time>
      </trkpt>
      <trkpt lat="45.87417" lon="5.37395">
        <ele>211.2</ele>
        <time>2021-02-20T15:47:25.000Z</time>
      </trkpt>
      <trkpt lat="45.87394" lon="5.3743">
        <ele>211</ele>
        <time>2021-02-20T15:47:30.000Z</time>
      </trkpt>
      <trkpt lat="45.87389" lon="5.37437">
        <ele>211</ele>
        <time>2021-02-20T15:47:31.000Z</time>
      </trkpt>
      <trkpt lat="45.87384" lon="5.37444">
        <ele>211</ele>
        <time>2021-02-20T15:47:32.000Z</time>
      </trkpt>
      <trkpt lat="45.8738" lon="5.3745">
        <ele>210.8</ele>
        <time>2021-02-20T15:47:33.000Z</time>
      </trkpt>
      <trkpt lat="45.87376" lon="5.37456">
        <ele>211</ele>
        <time>2021-02-20T15:47:34.000Z</time>
      </trkpt>
      <trkpt lat="45.87371" lon="5.37462">
        <ele>211</ele>
        <time>2021-02-20T15:47:35.000Z</time>
      </trkpt>
      <trkpt lat="45.87366" lon="5.37467">
        <ele>211</ele>
        <time>2021-02-20T15:47:36.000Z</time>
      </trkpt>
      <trkpt lat="45.87361" lon="5.37472">
        <ele>211</ele>
        <time>2021-02-20T15:47:37.000Z</time>
      </trkpt>
      <trkpt lat="45.87357" lon="5.37477">
        <ele>211</ele>
        <time>2021-02-20T15:47:38.000Z</time>
      </trkpt>
      <trkpt lat="45.87352" lon="5.37482">
        <ele>211</ele>
        <time>2021-02-20T15:47:39.000Z</time>
      </trkpt>
      <trkpt lat="45.87348" lon="5.37486">
        <ele>211</ele>
        <time>2021-02-20T15:47:40.000Z</time>
      </trkpt>
      <trkpt lat="45.87345" lon="5.37489">
        <ele>211</ele>
        <time>2021-02-20T15:47:41.000Z</time>
      </trkpt>
      <trkpt lat="45.87341" lon="5.37492">
        <ele>211</ele>
        <time>2021-02-20T15:47:42.000Z</time>
      </trkpt>
      <trkpt lat="45.87339" lon="5.37496">
        <ele>211</ele>
        <time>2021-02-20T15:47:43.000Z</time>
      </trkpt>
      <trkpt lat="45.87337" lon="5.375">
        <ele>211</ele>
        <time>2021-02-20T15:47:44.000Z</time>
      </trkpt>
      <trkpt lat="45.87332" lon="5.37507">
        <ele>211</ele>
        <time>2021-02-20T15:47:46.000Z</time>
      </trkpt>
      <trkpt lat="45.87329" lon="5.37511">
        <ele>211.2</ele>
        <time>2021-02-20T15:47:47.000Z</time>
      </trkpt>
      <trkpt lat="45.87312" lon="5.37537">
        <ele>211.2</ele>
        <time>2021-02-20T15:47:52.000Z</time>
      </trkpt>
      <trkpt lat="45.87286" lon="5.37572">
        <ele>211</ele>
        <time>2021-02-20T15:47:58.000Z</time>
      </trkpt>
      <trkpt lat="45.8725" lon="5.37612">
        <ele>210.4</ele>
        <time>2021-02-20T15:48:05.000Z</time>
      </trkpt>
      <trkpt lat="45.87238" lon="5.37623">
        <ele>210.2</ele>
        <time>2021-02-20T15:48:07.000Z</time>
      </trkpt>
      <trkpt lat="45.87221" lon="5.37641">
        <ele>210.2</ele>
        <time>2021-02-20T15:48:10.000Z</time>
      </trkpt>
      <trkpt lat="45.87215" lon="5.37647">
        <ele>210.2</ele>
        <time>2021-02-20T15:48:11.000Z</time>
      </trkpt>
      <trkpt lat="45.8721" lon="5.37654">
        <ele>210</ele>
        <time>2021-02-20T15:48:12.000Z</time>
      </trkpt>
      <trkpt lat="45.87205" lon="5.37661">
        <ele>210.2</ele>
        <time>2021-02-20T15:48:13.000Z</time>
      </trkpt>
      <trkpt lat="45.872" lon="5.37667">
        <ele>210.2</ele>
        <time>2021-02-20T15:48:14.000Z</time>
      </trkpt>
      <trkpt lat="45.87195" lon="5.37674">
        <ele>210.2</ele>
        <time>2021-02-20T15:48:15.000Z</time>
      </trkpt>
      <trkpt lat="45.87191" lon="5.37681">
        <ele>210.2</ele>
        <time>2021-02-20T15:48:16.000Z</time>
      </trkpt>
      <trkpt lat="45.87186" lon="5.37688">
        <ele>210.2</ele>
        <time>2021-02-20T15:48:17.000Z</time>
      </trkpt>
      <trkpt lat="45.87182" lon="5.37695">
        <ele>210.2</ele>
        <time>2021-02-20T15:48:18.000Z</time>
      </trkpt>
      <trkpt lat="45.87169" lon="5.37716">
        <ele>210.4</ele>
        <time>2021-02-20T15:48:21.000Z</time>
      </trkpt>
      <trkpt lat="45.87155" lon="5.37736">
        <ele>210.6</ele>
        <time>2021-02-20T15:48:24.000Z</time>
      </trkpt>
      <trkpt lat="45.87145" lon="5.3775">
        <ele>210.6</ele>
        <time>2021-02-20T15:48:26.000Z</time>
      </trkpt>
      <trkpt lat="45.87141" lon="5.37756">
        <ele>210.8</ele>
        <time>2021-02-20T15:48:27.000Z</time>
      </trkpt>
      <trkpt lat="45.87137" lon="5.37763">
        <ele>210.8</ele>
        <time>2021-02-20T15:48:28.000Z</time>
      </trkpt>
      <trkpt lat="45.87133" lon="5.3777">
        <ele>210.8</ele>
        <time>2021-02-20T15:48:29.000Z</time>
      </trkpt>
      <trkpt lat="45.87125" lon="5.37785">
        <ele>211</ele>
        <time>2021-02-20T15:48:31.000Z</time>
      </trkpt>
      <trkpt lat="45.87121" lon="5.37792">
        <ele>211</ele>
        <time>2021-02-20T15:48:32.000Z</time>
      </trkpt>
      <trkpt lat="45.87118" lon="5.37799">
        <ele>210.8</ele>
        <time>2021-02-20T15:48:33.000Z</time>
      </trkpt>
      <trkpt lat="45.87114" lon="5.37805">
        <ele>210.8</ele>
        <time>2021-02-20T15:48:34.000Z</time>
      </trkpt>
      <trkpt lat="45.8711" lon="5.37813">
        <ele>210.8</ele>
        <time>2021-02-20T15:48:35.000Z</time>
      </trkpt>
      <trkpt lat="45.87107" lon="5.37819">
        <ele>211</ele>
        <time>2021-02-20T15:48:36.000Z</time>
      </trkpt>
      <trkpt lat="45.87103" lon="5.37826">
        <ele>211</ele>
        <time>2021-02-20T15:48:37.000Z</time>
      </trkpt>
      <trkpt lat="45.87095" lon="5.3784">
        <ele>211</ele>
        <time>2021-02-20T15:48:39.000Z</time>
      </trkpt>
      <trkpt lat="45.87091" lon="5.37847">
        <ele>210.8</ele>
        <time>2021-02-20T15:48:40.000Z</time>
      </trkpt>
      <trkpt lat="45.87087" lon="5.37854">
        <ele>210.8</ele>
        <time>2021-02-20T15:48:41.000Z</time>
      </trkpt>
      <trkpt lat="45.8707" lon="5.3788">
        <ele>210.8</ele>
        <time>2021-02-20T15:48:45.000Z</time>
      </trkpt>
      <trkpt lat="45.87049" lon="5.37917">
        <ele>211</ele>
        <time>2021-02-20T15:48:50.000Z</time>
      </trkpt>
      <trkpt lat="45.87046" lon="5.37924">
        <ele>211</ele>
        <time>2021-02-20T15:48:51.000Z</time>
      </trkpt>
      <trkpt lat="45.87043" lon="5.37932">
        <ele>211</ele>
        <time>2021-02-20T15:48:52.000Z</time>
      </trkpt>
      <trkpt lat="45.87041" lon="5.37939">
        <ele>211</ele>
        <time>2021-02-20T15:48:53.000Z</time>
      </trkpt>
      <trkpt lat="45.8704" lon="5.37946">
        <ele>211</ele>
        <time>2021-02-20T15:48:54.000Z</time>
      </trkpt>
      <trkpt lat="45.87039" lon="5.37953">
        <ele>210.8</ele>
        <time>2021-02-20T15:48:55.000Z</time>
      </trkpt>
      <trkpt lat="45.87037" lon="5.3796">
        <ele>211</ele>
        <time>2021-02-20T15:48:56.000Z</time>
      </trkpt>
      <trkpt lat="45.87024" lon="5.38003">
        <ele>211.2</ele>
        <time>2021-02-20T15:49:02.000Z</time>
      </trkpt>
      <trkpt lat="45.87018" lon="5.38017">
        <ele>211</ele>
        <time>2021-02-20T15:49:04.000Z</time>
      </trkpt>
      <trkpt lat="45.87005" lon="5.38055">
        <ele>211.4</ele>
        <time>2021-02-20T15:49:09.000Z</time>
      </trkpt>
      <trkpt lat="45.87" lon="5.38072">
        <ele>211.6</ele>
        <time>2021-02-20T15:49:11.000Z</time>
      </trkpt>
      <trkpt lat="45.86997" lon="5.3808">
        <ele>211.4</ele>
        <time>2021-02-20T15:49:12.000Z</time>
      </trkpt>
      <trkpt lat="45.86989" lon="5.38104">
        <ele>211.6</ele>
        <time>2021-02-20T15:49:15.000Z</time>
      </trkpt>
      <trkpt lat="45.86987" lon="5.38112">
        <ele>211.6</ele>
        <time>2021-02-20T15:49:16.000Z</time>
      </trkpt>
      <trkpt lat="45.86963" lon="5.38174">
        <ele>211.6</ele>
        <time>2021-02-20T15:49:24.000Z</time>
      </trkpt>
      <trkpt lat="45.86957" lon="5.3819">
        <ele>211.6</ele>
        <time>2021-02-20T15:49:26.000Z</time>
      </trkpt>
      <trkpt lat="45.8695" lon="5.38205">
        <ele>211.6</ele>
        <time>2021-02-20T15:49:28.000Z</time>
      </trkpt>
      <trkpt lat="45.86947" lon="5.38213">
        <ele>211.6</ele>
        <time>2021-02-20T15:49:29.000Z</time>
      </trkpt>
      <trkpt lat="45.86937" lon="5.38236">
        <ele>211.6</ele>
        <time>2021-02-20T15:49:32.000Z</time>
      </trkpt>
      <trkpt lat="45.86927" lon="5.38259">
        <ele>211.4</ele>
        <time>2021-02-20T15:49:35.000Z</time>
      </trkpt>
      <trkpt lat="45.86923" lon="5.38267">
        <ele>211.4</ele>
        <time>2021-02-20T15:49:36.000Z</time>
      </trkpt>
      <trkpt lat="45.8692" lon="5.38275">
        <ele>211.4</ele>
        <time>2021-02-20T15:49:37.000Z</time>
      </trkpt>
      <trkpt lat="45.86916" lon="5.38282">
        <ele>211.4</ele>
        <time>2021-02-20T15:49:38.000Z</time>
      </trkpt>
      <trkpt lat="45.86913" lon="5.38289">
        <ele>211.4</ele>
        <time>2021-02-20T15:49:39.000Z</time>
      </trkpt>
      <trkpt lat="45.8691" lon="5.38296">
        <ele>211.4</ele>
        <time>2021-02-20T15:49:40.000Z</time>
      </trkpt>
      <trkpt lat="45.86907" lon="5.38303">
        <ele>211.2</ele>
        <time>2021-02-20T15:49:41.000Z</time>
      </trkpt>
      <trkpt lat="45.86905" lon="5.38311">
        <ele>211.4</ele>
        <time>2021-02-20T15:49:42.000Z</time>
      </trkpt>
      <trkpt lat="45.86902" lon="5.38318">
        <ele>211.4</ele>
        <time>2021-02-20T15:49:43.000Z</time>
      </trkpt>
      <trkpt lat="45.86887" lon="5.38346">
        <ele>211.4</ele>
        <time>2021-02-20T15:49:47.000Z</time>
      </trkpt>
      <trkpt lat="45.86883" lon="5.38352">
        <ele>211.4</ele>
        <time>2021-02-20T15:49:48.000Z</time>
      </trkpt>
      <trkpt lat="45.86879" lon="5.38358">
        <ele>211.4</ele>
        <time>2021-02-20T15:49:49.000Z</time>
      </trkpt>
      <trkpt lat="45.86866" lon="5.38374">
        <ele>211.4</ele>
        <time>2021-02-20T15:49:52.000Z</time>
      </trkpt>
      <trkpt lat="45.8685" lon="5.38388">
        <ele>211.4</ele>
        <time>2021-02-20T15:49:55.000Z</time>
      </trkpt>
      <trkpt lat="45.86817" lon="5.38413">
        <ele>211.2</ele>
        <time>2021-02-20T15:50:01.000Z</time>
      </trkpt>
      <trkpt lat="45.86812" lon="5.38417">
        <ele>210.8</ele>
        <time>2021-02-20T15:50:02.000Z</time>
      </trkpt>
      <trkpt lat="45.86806" lon="5.3842">
        <ele>211</ele>
        <time>2021-02-20T15:50:03.000Z</time>
      </trkpt>
      <trkpt lat="45.86757" lon="5.3845">
        <ele>210.8</ele>
        <time>2021-02-20T15:50:11.000Z</time>
      </trkpt>
      <trkpt lat="45.86751" lon="5.38454">
        <ele>210.6</ele>
        <time>2021-02-20T15:50:12.000Z</time>
      </trkpt>
      <trkpt lat="45.86739" lon="5.3846">
        <ele>210.6</ele>
        <time>2021-02-20T15:50:14.000Z</time>
      </trkpt>
      <trkpt lat="45.86714" lon="5.38474">
        <ele>210.6</ele>
        <time>2021-02-20T15:50:18.000Z</time>
      </trkpt>
      <trkpt lat="45.86678" lon="5.38502">
        <ele>210.6</ele>
        <time>2021-02-20T15:50:24.000Z</time>
      </trkpt>
      <trkpt lat="45.86661" lon="5.38521">
        <ele>210.6</ele>
        <time>2021-02-20T15:50:27.000Z</time>
      </trkpt>
      <trkpt lat="45.86656" lon="5.38527">
        <ele>210.6</ele>
        <time>2021-02-20T15:50:28.000Z</time>
      </trkpt>
      <trkpt lat="45.86651" lon="5.38534">
        <ele>210.4</ele>
        <time>2021-02-20T15:50:29.000Z</time>
      </trkpt>
      <trkpt lat="45.86647" lon="5.38541">
        <ele>210.6</ele>
        <time>2021-02-20T15:50:30.000Z</time>
      </trkpt>
      <trkpt lat="45.86643" lon="5.38548">
        <ele>210.8</ele>
        <time>2021-02-20T15:50:31.000Z</time>
      </trkpt>
      <trkpt lat="45.86639" lon="5.38555">
        <ele>210.6</ele>
        <time>2021-02-20T15:50:32.000Z</time>
      </trkpt>
      <trkpt lat="45.86626" lon="5.38587">
        <ele>210.8</ele>
        <time>2021-02-20T15:50:36.000Z</time>
      </trkpt>
      <trkpt lat="45.86621" lon="5.38605">
        <ele>210.8</ele>
        <time>2021-02-20T15:50:38.000Z</time>
      </trkpt>
      <trkpt lat="45.86619" lon="5.38614">
        <ele>210.8</ele>
        <time>2021-02-20T15:50:39.000Z</time>
      </trkpt>
      <trkpt lat="45.86618" lon="5.38623">
        <ele>211</ele>
        <time>2021-02-20T15:50:40.000Z</time>
      </trkpt>
      <trkpt lat="45.86616" lon="5.38631">
        <ele>211</ele>
        <time>2021-02-20T15:50:41.000Z</time>
      </trkpt>
      <trkpt lat="45.86615" lon="5.38639">
        <ele>211</ele>
        <time>2021-02-20T15:50:42.000Z</time>
      </trkpt>
      <trkpt lat="45.86612" lon="5.38665">
        <ele>211</ele>
        <time>2021-02-20T15:50:45.000Z</time>
      </trkpt>
      <trkpt lat="45.8661" lon="5.38674">
        <ele>211</ele>
        <time>2021-02-20T15:50:46.000Z</time>
      </trkpt>
      <trkpt lat="45.86607" lon="5.38683">
        <ele>211.2</ele>
        <time>2021-02-20T15:50:47.000Z</time>
      </trkpt>
      <trkpt lat="45.86605" lon="5.38692">
        <ele>211.2</ele>
        <time>2021-02-20T15:50:48.000Z</time>
      </trkpt>
      <trkpt lat="45.86597" lon="5.3872">
        <ele>211</ele>
        <time>2021-02-20T15:50:51.000Z</time>
      </trkpt>
      <trkpt lat="45.86587" lon="5.38745">
        <ele>210.8</ele>
        <time>2021-02-20T15:50:54.000Z</time>
      </trkpt>
      <trkpt lat="45.86584" lon="5.38753">
        <ele>210.8</ele>
        <time>2021-02-20T15:50:55.000Z</time>
      </trkpt>
      <trkpt lat="45.86561" lon="5.38801">
        <ele>211</ele>
        <time>2021-02-20T15:51:01.000Z</time>
      </trkpt>
      <trkpt lat="45.86557" lon="5.38809">
        <ele>211</ele>
        <time>2021-02-20T15:51:02.000Z</time>
      </trkpt>
      <trkpt lat="45.86553" lon="5.38816">
        <ele>211</ele>
        <time>2021-02-20T15:51:03.000Z</time>
      </trkpt>
      <trkpt lat="45.86532" lon="5.38866">
        <ele>211.2</ele>
        <time>2021-02-20T15:51:09.000Z</time>
      </trkpt>
      <trkpt lat="45.8652" lon="5.38912">
        <ele>211.4</ele>
        <time>2021-02-20T15:51:14.000Z</time>
      </trkpt>
      <trkpt lat="45.86518" lon="5.38921">
        <ele>211.2</ele>
        <time>2021-02-20T15:51:15.000Z</time>
      </trkpt>
      <trkpt lat="45.86516" lon="5.38931">
        <ele>211.2</ele>
        <time>2021-02-20T15:51:16.000Z</time>
      </trkpt>
      <trkpt lat="45.86513" lon="5.38949">
        <ele>211.2</ele>
        <time>2021-02-20T15:51:18.000Z</time>
      </trkpt>
      <trkpt lat="45.86511" lon="5.38958">
        <ele>211.4</ele>
        <time>2021-02-20T15:51:19.000Z</time>
      </trkpt>
      <trkpt lat="45.86508" lon="5.38967">
        <ele>211.4</ele>
        <time>2021-02-20T15:51:20.000Z</time>
      </trkpt>
      <trkpt lat="45.86502" lon="5.38984">
        <ele>211.2</ele>
        <time>2021-02-20T15:51:22.000Z</time>
      </trkpt>
      <trkpt lat="45.86479" lon="5.3903">
        <ele>211.2</ele>
        <time>2021-02-20T15:51:28.000Z</time>
      </trkpt>
      <trkpt lat="45.86458" lon="5.39057">
        <ele>211.2</ele>
        <time>2021-02-20T15:51:32.000Z</time>
      </trkpt>
      <trkpt lat="45.86453" lon="5.39063">
        <ele>211.2</ele>
        <time>2021-02-20T15:51:33.000Z</time>
      </trkpt>
      <trkpt lat="45.86443" lon="5.39076">
        <ele>211.2</ele>
        <time>2021-02-20T15:51:35.000Z</time>
      </trkpt>
      <trkpt lat="45.86438" lon="5.39083">
        <ele>211</ele>
        <time>2021-02-20T15:51:36.000Z</time>
      </trkpt>
      <trkpt lat="45.86416" lon="5.3911">
        <ele>211.2</ele>
        <time>2021-02-20T15:51:40.000Z</time>
      </trkpt>
      <trkpt lat="45.86412" lon="5.39117">
        <ele>211</ele>
        <time>2021-02-20T15:51:41.000Z</time>
      </trkpt>
      <trkpt lat="45.86403" lon="5.39132">
        <ele>211.2</ele>
        <time>2021-02-20T15:51:43.000Z</time>
      </trkpt>
      <trkpt lat="45.86399" lon="5.3914">
        <ele>211.2</ele>
        <time>2021-02-20T15:51:44.000Z</time>
      </trkpt>
      <trkpt lat="45.86392" lon="5.39156">
        <ele>211.2</ele>
        <time>2021-02-20T15:51:46.000Z</time>
      </trkpt>
      <trkpt lat="45.86384" lon="5.39173">
        <ele>211</ele>
        <time>2021-02-20T15:51:48.000Z</time>
      </trkpt>
      <trkpt lat="45.86371" lon="5.39198">
        <ele>210.8</ele>
        <time>2021-02-20T15:51:51.000Z</time>
      </trkpt>
      <trkpt lat="45.86367" lon="5.39205">
        <ele>210.6</ele>
        <time>2021-02-20T15:51:52.000Z</time>
      </trkpt>
      <trkpt lat="45.86363" lon="5.39213">
        <ele>210.6</ele>
        <time>2021-02-20T15:51:53.000Z</time>
      </trkpt>
      <trkpt lat="45.86359" lon="5.3922">
        <ele>210.6</ele>
        <time>2021-02-20T15:51:54.000Z</time>
      </trkpt>
      <trkpt lat="45.86351" lon="5.39236">
        <ele>210.4</ele>
        <time>2021-02-20T15:51:56.000Z</time>
      </trkpt>
      <trkpt lat="45.86339" lon="5.39259">
        <ele>210.4</ele>
        <time>2021-02-20T15:51:59.000Z</time>
      </trkpt>
      <trkpt lat="45.86327" lon="5.39283">
        <ele>210.4</ele>
        <time>2021-02-20T15:52:02.000Z</time>
      </trkpt>
      <trkpt lat="45.86313" lon="5.39315">
        <ele>210.4</ele>
        <time>2021-02-20T15:52:06.000Z</time>
      </trkpt>
      <trkpt lat="45.86302" lon="5.39341">
        <ele>210.4</ele>
        <time>2021-02-20T15:52:09.000Z</time>
      </trkpt>
      <trkpt lat="45.86299" lon="5.3935">
        <ele>210.4</ele>
        <time>2021-02-20T15:52:10.000Z</time>
      </trkpt>
      <trkpt lat="45.86295" lon="5.39359">
        <ele>210.4</ele>
        <time>2021-02-20T15:52:11.000Z</time>
      </trkpt>
      <trkpt lat="45.86292" lon="5.39368">
        <ele>210.6</ele>
        <time>2021-02-20T15:52:12.000Z</time>
      </trkpt>
      <trkpt lat="45.86289" lon="5.39377">
        <ele>210.6</ele>
        <time>2021-02-20T15:52:13.000Z</time>
      </trkpt>
      <trkpt lat="45.86287" lon="5.39386">
        <ele>210.6</ele>
        <time>2021-02-20T15:52:14.000Z</time>
      </trkpt>
      <trkpt lat="45.86284" lon="5.39395">
        <ele>210.8</ele>
        <time>2021-02-20T15:52:15.000Z</time>
      </trkpt>
      <trkpt lat="45.86282" lon="5.39403">
        <ele>210.8</ele>
        <time>2021-02-20T15:52:16.000Z</time>
      </trkpt>
      <trkpt lat="45.8628" lon="5.39412">
        <ele>210.8</ele>
        <time>2021-02-20T15:52:17.000Z</time>
      </trkpt>
      <trkpt lat="45.86277" lon="5.39421">
        <ele>211</ele>
        <time>2021-02-20T15:52:18.000Z</time>
      </trkpt>
      <trkpt lat="45.86259" lon="5.39479">
        <ele>211.4</ele>
        <time>2021-02-20T15:52:25.000Z</time>
      </trkpt>
      <trkpt lat="45.86255" lon="5.39487">
        <ele>211.6</ele>
        <time>2021-02-20T15:52:26.000Z</time>
      </trkpt>
      <trkpt lat="45.86252" lon="5.39496">
        <ele>211.8</ele>
        <time>2021-02-20T15:52:27.000Z</time>
      </trkpt>
      <trkpt lat="45.8624" lon="5.39529">
        <ele>211.8</ele>
        <time>2021-02-20T15:52:31.000Z</time>
      </trkpt>
      <trkpt lat="45.86223" lon="5.39573">
        <ele>212</ele>
        <time>2021-02-20T15:52:36.000Z</time>
      </trkpt>
      <trkpt lat="45.86222" lon="5.39582">
        <ele>212</ele>
        <time>2021-02-20T15:52:37.000Z</time>
      </trkpt>
      <trkpt lat="45.86218" lon="5.39602">
        <ele>211.8</ele>
        <time>2021-02-20T15:52:39.000Z</time>
      </trkpt>
      <trkpt lat="45.86209" lon="5.39617">
        <ele>212</ele>
        <time>2021-02-20T15:52:41.000Z</time>
      </trkpt>
      <trkpt lat="45.86205" lon="5.39625">
        <ele>211.8</ele>
        <time>2021-02-20T15:52:42.000Z</time>
      </trkpt>
      <trkpt lat="45.862" lon="5.39632">
        <ele>211.6</ele>
        <time>2021-02-20T15:52:43.000Z</time>
      </trkpt>
      <trkpt lat="45.86196" lon="5.3964">
        <ele>211.8</ele>
        <time>2021-02-20T15:52:44.000Z</time>
      </trkpt>
      <trkpt lat="45.86185" lon="5.39665">
        <ele>211.8</ele>
        <time>2021-02-20T15:52:47.000Z</time>
      </trkpt>
      <trkpt lat="45.86182" lon="5.39674">
        <ele>211.8</ele>
        <time>2021-02-20T15:52:48.000Z</time>
      </trkpt>
      <trkpt lat="45.86179" lon="5.39683">
        <ele>211.6</ele>
        <time>2021-02-20T15:52:49.000Z</time>
      </trkpt>
      <trkpt lat="45.86176" lon="5.39691">
        <ele>211.6</ele>
        <time>2021-02-20T15:52:50.000Z</time>
      </trkpt>
      <trkpt lat="45.86173" lon="5.397">
        <ele>211.6</ele>
        <time>2021-02-20T15:52:51.000Z</time>
      </trkpt>
      <trkpt lat="45.8617" lon="5.39708">
        <ele>211.6</ele>
        <time>2021-02-20T15:52:52.000Z</time>
      </trkpt>
      <trkpt lat="45.86167" lon="5.39717">
        <ele>211.6</ele>
        <time>2021-02-20T15:52:53.000Z</time>
      </trkpt>
      <trkpt lat="45.86164" lon="5.39725">
        <ele>211.6</ele>
        <time>2021-02-20T15:52:54.000Z</time>
      </trkpt>
      <trkpt lat="45.86161" lon="5.39733">
        <ele>211.6</ele>
        <time>2021-02-20T15:52:55.000Z</time>
      </trkpt>
      <trkpt lat="45.86158" lon="5.39741">
        <ele>211.6</ele>
        <time>2021-02-20T15:52:56.000Z</time>
      </trkpt>
      <trkpt lat="45.86146" lon="5.39764">
        <ele>211.8</ele>
        <time>2021-02-20T15:52:59.000Z</time>
      </trkpt>
      <trkpt lat="45.86121" lon="5.39824">
        <ele>211.8</ele>
        <time>2021-02-20T15:53:06.000Z</time>
      </trkpt>
      <trkpt lat="45.86117" lon="5.39833">
        <ele>211.8</ele>
        <time>2021-02-20T15:53:07.000Z</time>
      </trkpt>
      <trkpt lat="45.86114" lon="5.39841">
        <ele>211.8</ele>
        <time>2021-02-20T15:53:08.000Z</time>
      </trkpt>
      <trkpt lat="45.86097" lon="5.39882">
        <ele>211.8</ele>
        <time>2021-02-20T15:53:13.000Z</time>
      </trkpt>
      <trkpt lat="45.86092" lon="5.39889">
        <ele>212</ele>
        <time>2021-02-20T15:53:14.000Z</time>
      </trkpt>
      <trkpt lat="45.86081" lon="5.39915">
        <ele>211.8</ele>
        <time>2021-02-20T15:53:17.000Z</time>
      </trkpt>
      <trkpt lat="45.86074" lon="5.39933">
        <ele>211.8</ele>
        <time>2021-02-20T15:53:19.000Z</time>
      </trkpt>
      <trkpt lat="45.86059" lon="5.3997">
        <ele>211.4</ele>
        <time>2021-02-20T15:53:23.000Z</time>
      </trkpt>
      <trkpt lat="45.86052" lon="5.39989">
        <ele>211.2</ele>
        <time>2021-02-20T15:53:25.000Z</time>
      </trkpt>
      <trkpt lat="45.86037" lon="5.40027">
        <ele>210.4</ele>
        <time>2021-02-20T15:53:29.000Z</time>
      </trkpt>
      <trkpt lat="45.86033" lon="5.40036">
        <ele>210.2</ele>
        <time>2021-02-20T15:53:30.000Z</time>
      </trkpt>
      <trkpt lat="45.86029" lon="5.40045">
        <ele>210</ele>
        <time>2021-02-20T15:53:31.000Z</time>
      </trkpt>
      <trkpt lat="45.86024" lon="5.40054">
        <ele>210</ele>
        <time>2021-02-20T15:53:32.000Z</time>
      </trkpt>
      <trkpt lat="45.86021" lon="5.40062">
        <ele>209.8</ele>
        <time>2021-02-20T15:53:33.000Z</time>
      </trkpt>
      <trkpt lat="45.86017" lon="5.4007">
        <ele>209.8</ele>
        <time>2021-02-20T15:53:34.000Z</time>
      </trkpt>
      <trkpt lat="45.86013" lon="5.40078">
        <ele>209.8</ele>
        <time>2021-02-20T15:53:35.000Z</time>
      </trkpt>
      <trkpt lat="45.86009" lon="5.40085">
        <ele>209.6</ele>
        <time>2021-02-20T15:53:36.000Z</time>
      </trkpt>
      <trkpt lat="45.86006" lon="5.40092">
        <ele>209.6</ele>
        <time>2021-02-20T15:53:37.000Z</time>
      </trkpt>
      <trkpt lat="45.86002" lon="5.401">
        <ele>209.6</ele>
        <time>2021-02-20T15:53:38.000Z</time>
      </trkpt>
      <trkpt lat="45.85987" lon="5.40129">
        <ele>209.6</ele>
        <time>2021-02-20T15:53:42.000Z</time>
      </trkpt>
      <trkpt lat="45.85983" lon="5.40136">
        <ele>209.6</ele>
        <time>2021-02-20T15:53:43.000Z</time>
      </trkpt>
      <trkpt lat="45.85979" lon="5.40143">
        <ele>209.6</ele>
        <time>2021-02-20T15:53:44.000Z</time>
      </trkpt>
      <trkpt lat="45.85976" lon="5.4015">
        <ele>209.6</ele>
        <time>2021-02-20T15:53:45.000Z</time>
      </trkpt>
      <trkpt lat="45.85972" lon="5.40156">
        <ele>209.6</ele>
        <time>2021-02-20T15:53:46.000Z</time>
      </trkpt>
      <trkpt lat="45.85968" lon="5.40162">
        <ele>209.6</ele>
        <time>2021-02-20T15:53:47.000Z</time>
      </trkpt>
      <trkpt lat="45.85964" lon="5.40169">
        <ele>209.6</ele>
        <time>2021-02-20T15:53:48.000Z</time>
      </trkpt>
      <trkpt lat="45.85959" lon="5.40175">
        <ele>209.6</ele>
        <time>2021-02-20T15:53:49.000Z</time>
      </trkpt>
      <trkpt lat="45.85947" lon="5.40195">
        <ele>209.6</ele>
        <time>2021-02-20T15:53:52.000Z</time>
      </trkpt>
      <trkpt lat="45.85921" lon="5.40233">
        <ele>209.6</ele>
        <time>2021-02-20T15:53:58.000Z</time>
      </trkpt>
      <trkpt lat="45.85917" lon="5.40239">
        <ele>209.4</ele>
        <time>2021-02-20T15:53:59.000Z</time>
      </trkpt>
      <trkpt lat="45.85913" lon="5.40245">
        <ele>209.4</ele>
        <time>2021-02-20T15:54:00.000Z</time>
      </trkpt>
      <trkpt lat="45.85908" lon="5.40252">
        <ele>209.4</ele>
        <time>2021-02-20T15:54:01.000Z</time>
      </trkpt>
      <trkpt lat="45.85904" lon="5.40258">
        <ele>209.4</ele>
        <time>2021-02-20T15:54:02.000Z</time>
      </trkpt>
      <trkpt lat="45.85899" lon="5.40264">
        <ele>209.4</ele>
        <time>2021-02-20T15:54:03.000Z</time>
      </trkpt>
      <trkpt lat="45.85894" lon="5.40271">
        <ele>209.4</ele>
        <time>2021-02-20T15:54:04.000Z</time>
      </trkpt>
      <trkpt lat="45.85884" lon="5.40284">
        <ele>209.4</ele>
        <time>2021-02-20T15:54:06.000Z</time>
      </trkpt>
      <trkpt lat="45.8588" lon="5.4029">
        <ele>209.4</ele>
        <time>2021-02-20T15:54:07.000Z</time>
      </trkpt>
      <trkpt lat="45.85875" lon="5.40296">
        <ele>209.4</ele>
        <time>2021-02-20T15:54:08.000Z</time>
      </trkpt>
      <trkpt lat="45.8587" lon="5.40303">
        <ele>209.4</ele>
        <time>2021-02-20T15:54:09.000Z</time>
      </trkpt>
      <trkpt lat="45.85862" lon="5.40315">
        <ele>209.2</ele>
        <time>2021-02-20T15:54:11.000Z</time>
      </trkpt>
      <trkpt lat="45.85858" lon="5.40321">
        <ele>209.2</ele>
        <time>2021-02-20T15:54:12.000Z</time>
      </trkpt>
      <trkpt lat="45.85853" lon="5.40327">
        <ele>209.4</ele>
        <time>2021-02-20T15:54:13.000Z</time>
      </trkpt>
      <trkpt lat="45.85849" lon="5.40332">
        <ele>209.2</ele>
        <time>2021-02-20T15:54:14.000Z</time>
      </trkpt>
      <trkpt lat="45.85845" lon="5.40338">
        <ele>209.2</ele>
        <time>2021-02-20T15:54:15.000Z</time>
      </trkpt>
      <trkpt lat="45.85829" lon="5.40361">
        <ele>209.2</ele>
        <time>2021-02-20T15:54:19.000Z</time>
      </trkpt>
      <trkpt lat="45.85822" lon="5.40372">
        <ele>209.2</ele>
        <time>2021-02-20T15:54:21.000Z</time>
      </trkpt>
      <trkpt lat="45.85794" lon="5.40413">
        <ele>209.4</ele>
        <time>2021-02-20T15:54:28.000Z</time>
      </trkpt>
      <trkpt lat="45.85761" lon="5.40461">
        <ele>209.6</ele>
        <time>2021-02-20T15:54:36.000Z</time>
      </trkpt>
      <trkpt lat="45.85757" lon="5.40468">
        <ele>209.6</ele>
        <time>2021-02-20T15:54:37.000Z</time>
      </trkpt>
      <trkpt lat="45.85749" lon="5.40481">
        <ele>209.6</ele>
        <time>2021-02-20T15:54:39.000Z</time>
      </trkpt>
      <trkpt lat="45.85745" lon="5.40486">
        <ele>209.6</ele>
        <time>2021-02-20T15:54:40.000Z</time>
      </trkpt>
      <trkpt lat="45.85741" lon="5.40492">
        <ele>209.6</ele>
        <time>2021-02-20T15:54:41.000Z</time>
      </trkpt>
      <trkpt lat="45.85736" lon="5.40498">
        <ele>209.6</ele>
        <time>2021-02-20T15:54:42.000Z</time>
      </trkpt>
      <trkpt lat="45.85732" lon="5.40503">
        <ele>209.6</ele>
        <time>2021-02-20T15:54:43.000Z</time>
      </trkpt>
      <trkpt lat="45.85728" lon="5.40509">
        <ele>209.6</ele>
        <time>2021-02-20T15:54:44.000Z</time>
      </trkpt>
      <trkpt lat="45.85707" lon="5.40539">
        <ele>209.8</ele>
        <time>2021-02-20T15:54:49.000Z</time>
      </trkpt>
      <trkpt lat="45.85703" lon="5.40545">
        <ele>209.6</ele>
        <time>2021-02-20T15:54:50.000Z</time>
      </trkpt>
      <trkpt lat="45.85699" lon="5.40551">
        <ele>209.6</ele>
        <time>2021-02-20T15:54:51.000Z</time>
      </trkpt>
      <trkpt lat="45.85695" lon="5.40557">
        <ele>209.8</ele>
        <time>2021-02-20T15:54:52.000Z</time>
      </trkpt>
      <trkpt lat="45.85691" lon="5.40563">
        <ele>209.8</ele>
        <time>2021-02-20T15:54:53.000Z</time>
      </trkpt>
      <trkpt lat="45.85687" lon="5.40569">
        <ele>209.8</ele>
        <time>2021-02-20T15:54:54.000Z</time>
      </trkpt>
      <trkpt lat="45.85682" lon="5.40574">
        <ele>209.8</ele>
        <time>2021-02-20T15:54:55.000Z</time>
      </trkpt>
      <trkpt lat="45.8567" lon="5.40591">
        <ele>209.8</ele>
        <time>2021-02-20T15:54:58.000Z</time>
      </trkpt>
      <trkpt lat="45.85666" lon="5.40597">
        <ele>209.8</ele>
        <time>2021-02-20T15:54:59.000Z</time>
      </trkpt>
      <trkpt lat="45.85663" lon="5.40603">
        <ele>209.8</ele>
        <time>2021-02-20T15:55:00.000Z</time>
      </trkpt>
      <trkpt lat="45.85659" lon="5.40608">
        <ele>209.8</ele>
        <time>2021-02-20T15:55:01.000Z</time>
      </trkpt>
      <trkpt lat="45.85655" lon="5.40614">
        <ele>210</ele>
        <time>2021-02-20T15:55:02.000Z</time>
      </trkpt>
      <trkpt lat="45.85647" lon="5.40625">
        <ele>210</ele>
        <time>2021-02-20T15:55:04.000Z</time>
      </trkpt>
      <trkpt lat="45.85643" lon="5.40631">
        <ele>209.8</ele>
        <time>2021-02-20T15:55:05.000Z</time>
      </trkpt>
      <trkpt lat="45.85639" lon="5.40636">
        <ele>209.8</ele>
        <time>2021-02-20T15:55:06.000Z</time>
      </trkpt>
      <trkpt lat="45.85627" lon="5.40653">
        <ele>209.8</ele>
        <time>2021-02-20T15:55:09.000Z</time>
      </trkpt>
      <trkpt lat="45.85623" lon="5.40659">
        <ele>209.8</ele>
        <time>2021-02-20T15:55:10.000Z</time>
      </trkpt>
      <trkpt lat="45.85619" lon="5.40665">
        <ele>209.8</ele>
        <time>2021-02-20T15:55:11.000Z</time>
      </trkpt>
      <trkpt lat="45.85614" lon="5.4067">
        <ele>209.8</ele>
        <time>2021-02-20T15:55:12.000Z</time>
      </trkpt>
      <trkpt lat="45.8561" lon="5.40676">
        <ele>209.8</ele>
        <time>2021-02-20T15:55:13.000Z</time>
      </trkpt>
      <trkpt lat="45.85603" lon="5.40687">
        <ele>209.8</ele>
        <time>2021-02-20T15:55:15.000Z</time>
      </trkpt>
      <trkpt lat="45.85599" lon="5.40692">
        <ele>209.8</ele>
        <time>2021-02-20T15:55:16.000Z</time>
      </trkpt>
      <trkpt lat="45.85595" lon="5.40697">
        <ele>209.8</ele>
        <time>2021-02-20T15:55:17.000Z</time>
      </trkpt>
      <trkpt lat="45.85591" lon="5.40702">
        <ele>210</ele>
        <time>2021-02-20T15:55:18.000Z</time>
      </trkpt>
      <trkpt lat="45.85587" lon="5.40707">
        <ele>209.8</ele>
        <time>2021-02-20T15:55:19.000Z</time>
      </trkpt>
      <trkpt lat="45.85584" lon="5.40712">
        <ele>209.8</ele>
        <time>2021-02-20T15:55:20.000Z</time>
      </trkpt>
      <trkpt lat="45.8558" lon="5.40716">
        <ele>209.8</ele>
        <time>2021-02-20T15:55:21.000Z</time>
      </trkpt>
      <trkpt lat="45.85577" lon="5.4072">
        <ele>209.8</ele>
        <time>2021-02-20T15:55:22.000Z</time>
      </trkpt>
      <trkpt lat="45.85568" lon="5.40737">
        <ele>209.8</ele>
        <time>2021-02-20T15:55:25.000Z</time>
      </trkpt>
      <trkpt lat="45.85564" lon="5.40742">
        <ele>209.8</ele>
        <time>2021-02-20T15:55:26.000Z</time>
      </trkpt>
      <trkpt lat="45.85547" lon="5.40761">
        <ele>209.8</ele>
        <time>2021-02-20T15:55:30.000Z</time>
      </trkpt>
      <trkpt lat="45.8554" lon="5.4077">
        <ele>210</ele>
        <time>2021-02-20T15:55:32.000Z</time>
      </trkpt>
      <trkpt lat="45.85532" lon="5.4078">
        <ele>209.8</ele>
        <time>2021-02-20T15:55:34.000Z</time>
      </trkpt>
      <trkpt lat="45.85528" lon="5.40785">
        <ele>209.8</ele>
        <time>2021-02-20T15:55:35.000Z</time>
      </trkpt>
      <trkpt lat="45.85524" lon="5.40789">
        <ele>209.6</ele>
        <time>2021-02-20T15:55:36.000Z</time>
      </trkpt>
      <trkpt lat="45.8552" lon="5.40794">
        <ele>209.8</ele>
        <time>2021-02-20T15:55:37.000Z</time>
      </trkpt>
      <trkpt lat="45.85512" lon="5.40803">
        <ele>209.8</ele>
        <time>2021-02-20T15:55:39.000Z</time>
      </trkpt>
      <trkpt lat="45.85508" lon="5.40808">
        <ele>209.8</ele>
        <time>2021-02-20T15:55:40.000Z</time>
      </trkpt>
      <trkpt lat="45.85504" lon="5.40812">
        <ele>209.6</ele>
        <time>2021-02-20T15:55:41.000Z</time>
      </trkpt>
      <trkpt lat="45.855" lon="5.40817">
        <ele>209.6</ele>
        <time>2021-02-20T15:55:42.000Z</time>
      </trkpt>
      <trkpt lat="45.85493" lon="5.40825">
        <ele>209.8</ele>
        <time>2021-02-20T15:55:44.000Z</time>
      </trkpt>
      <trkpt lat="45.85489" lon="5.40829">
        <ele>209.8</ele>
        <time>2021-02-20T15:55:45.000Z</time>
      </trkpt>
      <trkpt lat="45.85485" lon="5.40833">
        <ele>210</ele>
        <time>2021-02-20T15:55:46.000Z</time>
      </trkpt>
      <trkpt lat="45.85482" lon="5.40837">
        <ele>209.8</ele>
        <time>2021-02-20T15:55:47.000Z</time>
      </trkpt>
      <trkpt lat="45.85479" lon="5.4084">
        <ele>209.8</ele>
        <time>2021-02-20T15:55:48.000Z</time>
      </trkpt>
      <trkpt lat="45.85477" lon="5.40845">
        <ele>210.2</ele>
        <time>2021-02-20T15:55:49.000Z</time>
      </trkpt>
      <trkpt lat="45.85477" lon="5.4085">
        <ele>210.2</ele>
        <time>2021-02-20T15:55:50.000Z</time>
      </trkpt>
      <trkpt lat="45.85479" lon="5.40853">
        <ele>210.2</ele>
        <time>2021-02-20T15:55:51.000Z</time>
      </trkpt>
      <trkpt lat="45.85482" lon="5.40857">
        <ele>210.2</ele>
        <time>2021-02-20T15:55:52.000Z</time>
      </trkpt>
      <trkpt lat="45.85485" lon="5.40861">
        <ele>210.2</ele>
        <time>2021-02-20T15:55:53.000Z</time>
      </trkpt>
      <trkpt lat="45.85488" lon="5.40865">
        <ele>210.2</ele>
        <time>2021-02-20T15:55:54.000Z</time>
      </trkpt>
      <trkpt lat="45.85491" lon="5.40869">
        <ele>210.2</ele>
        <time>2021-02-20T15:55:55.000Z</time>
      </trkpt>
      <trkpt lat="45.85494" lon="5.40872">
        <ele>210.4</ele>
        <time>2021-02-20T15:55:56.000Z</time>
      </trkpt>
      <trkpt lat="45.85496" lon="5.40875">
        <ele>210.4</ele>
        <time>2021-02-20T15:55:57.000Z</time>
      </trkpt>
      <trkpt lat="45.85498" lon="5.40877">
        <ele>210.4</ele>
        <time>2021-02-20T15:55:58.000Z</time>
      </trkpt>
      <trkpt lat="45.85498" lon="5.40878">
        <ele>210.8</ele>
        <time>2021-02-20T15:55:59.000Z</time>
      </trkpt>
      <trkpt lat="45.85499" lon="5.4088">
        <ele>211</ele>
        <time>2021-02-20T15:56:00.000Z</time>
      </trkpt>
      <trkpt lat="45.855" lon="5.40882">
        <ele>211.4</ele>
        <time>2021-02-20T15:56:01.000Z</time>
      </trkpt>
      <trkpt lat="45.855" lon="5.40884">
        <ele>211.6</ele>
        <time>2021-02-20T15:56:02.000Z</time>
      </trkpt>
      <trkpt lat="45.85499" lon="5.40886">
        <ele>212.2</ele>
        <time>2021-02-20T15:56:03.000Z</time>
      </trkpt>
      <trkpt lat="45.85499" lon="5.40888">
        <ele>212.8</ele>
        <time>2021-02-20T15:56:04.000Z</time>
      </trkpt>
      <trkpt lat="45.85499" lon="5.40891">
        <ele>213.4</ele>
        <time>2021-02-20T15:56:05.000Z</time>
      </trkpt>
      <trkpt lat="45.85496" lon="5.40894">
        <ele>214</ele>
        <time>2021-02-20T15:56:06.000Z</time>
      </trkpt>
      <trkpt lat="45.85493" lon="5.40897">
        <ele>214</ele>
        <time>2021-02-20T15:56:07.000Z</time>
      </trkpt>
      <trkpt lat="45.8549" lon="5.409">
        <ele>214.4</ele>
        <time>2021-02-20T15:56:08.000Z</time>
      </trkpt>
      <trkpt lat="45.85487" lon="5.40903">
        <ele>214.6</ele>
        <time>2021-02-20T15:56:09.000Z</time>
      </trkpt>
      <trkpt lat="45.85482" lon="5.40904">
        <ele>214.8</ele>
        <time>2021-02-20T15:56:10.000Z</time>
      </trkpt>
      <trkpt lat="45.85478" lon="5.40904">
        <ele>215</ele>
        <time>2021-02-20T15:56:11.000Z</time>
      </trkpt>
      <trkpt lat="45.85474" lon="5.40902">
        <ele>215.2</ele>
        <time>2021-02-20T15:56:12.000Z</time>
      </trkpt>
      <trkpt lat="45.8547" lon="5.40897">
        <ele>215.2</ele>
        <time>2021-02-20T15:56:13.000Z</time>
      </trkpt>
      <trkpt lat="45.85468" lon="5.40891">
        <ele>215.6</ele>
        <time>2021-02-20T15:56:14.000Z</time>
      </trkpt>
      <trkpt lat="45.85466" lon="5.40884">
        <ele>215.6</ele>
        <time>2021-02-20T15:56:15.000Z</time>
      </trkpt>
      <trkpt lat="45.85463" lon="5.40879">
        <ele>215.8</ele>
        <time>2021-02-20T15:56:16.000Z</time>
      </trkpt>
      <trkpt lat="45.85458" lon="5.40874">
        <ele>216</ele>
        <time>2021-02-20T15:56:17.000Z</time>
      </trkpt>
      <trkpt lat="45.85453" lon="5.40869">
        <ele>215.8</ele>
        <time>2021-02-20T15:56:18.000Z</time>
      </trkpt>
      <trkpt lat="45.85449" lon="5.40866">
        <ele>216</ele>
        <time>2021-02-20T15:56:19.000Z</time>
      </trkpt>
      <trkpt lat="45.85446" lon="5.40861">
        <ele>216.2</ele>
        <time>2021-02-20T15:56:20.000Z</time>
      </trkpt>
      <trkpt lat="45.85444" lon="5.40856">
        <ele>216.6</ele>
        <time>2021-02-20T15:56:21.000Z</time>
      </trkpt>
      <trkpt lat="45.85441" lon="5.40851">
        <ele>217</ele>
        <time>2021-02-20T15:56:22.000Z</time>
      </trkpt>
      <trkpt lat="45.85439" lon="5.40847">
        <ele>217.2</ele>
        <time>2021-02-20T15:56:23.000Z</time>
      </trkpt>
      <trkpt lat="45.85437" lon="5.40842">
        <ele>217.4</ele>
        <time>2021-02-20T15:56:24.000Z</time>
      </trkpt>
      <trkpt lat="45.85435" lon="5.40837">
        <ele>217.6</ele>
        <time>2021-02-20T15:56:25.000Z</time>
      </trkpt>
      <trkpt lat="45.85432" lon="5.40832">
        <ele>218</ele>
        <time>2021-02-20T15:56:26.000Z</time>
      </trkpt>
      <trkpt lat="45.8543" lon="5.40827">
        <ele>218</ele>
        <time>2021-02-20T15:56:27.000Z</time>
      </trkpt>
      <trkpt lat="45.85428" lon="5.40822">
        <ele>218.4</ele>
        <time>2021-02-20T15:56:28.000Z</time>
      </trkpt>
      <trkpt lat="45.85426" lon="5.40817">
        <ele>218.6</ele>
        <time>2021-02-20T15:56:29.000Z</time>
      </trkpt>
      <trkpt lat="45.85423" lon="5.40811">
        <ele>219</ele>
        <time>2021-02-20T15:56:30.000Z</time>
      </trkpt>
      <trkpt lat="45.85421" lon="5.40806">
        <ele>219.2</ele>
        <time>2021-02-20T15:56:31.000Z</time>
      </trkpt>
      <trkpt lat="45.85418" lon="5.408">
        <ele>219.2</ele>
        <time>2021-02-20T15:56:32.000Z</time>
      </trkpt>
      <trkpt lat="45.85416" lon="5.40794">
        <ele>219.4</ele>
        <time>2021-02-20T15:56:33.000Z</time>
      </trkpt>
      <trkpt lat="45.85413" lon="5.40787">
        <ele>219.4</ele>
        <time>2021-02-20T15:56:34.000Z</time>
      </trkpt>
      <trkpt lat="45.8541" lon="5.40781">
        <ele>219.4</ele>
        <time>2021-02-20T15:56:35.000Z</time>
      </trkpt>
      <trkpt lat="45.85407" lon="5.40774">
        <ele>219.4</ele>
        <time>2021-02-20T15:56:36.000Z</time>
      </trkpt>
      <trkpt lat="45.85404" lon="5.40768">
        <ele>219.6</ele>
        <time>2021-02-20T15:56:37.000Z</time>
      </trkpt>
      <trkpt lat="45.85401" lon="5.40761">
        <ele>219.4</ele>
        <time>2021-02-20T15:56:38.000Z</time>
      </trkpt>
      <trkpt lat="45.85398" lon="5.40754">
        <ele>219.6</ele>
        <time>2021-02-20T15:56:39.000Z</time>
      </trkpt>
      <trkpt lat="45.85392" lon="5.4074">
        <ele>219.6</ele>
        <time>2021-02-20T15:56:41.000Z</time>
      </trkpt>
      <trkpt lat="45.85389" lon="5.40733">
        <ele>219.4</ele>
        <time>2021-02-20T15:56:42.000Z</time>
      </trkpt>
      <trkpt lat="45.85382" lon="5.40721">
        <ele>219.2</ele>
        <time>2021-02-20T15:56:44.000Z</time>
      </trkpt>
      <trkpt lat="45.85378" lon="5.40715">
        <ele>219.2</ele>
        <time>2021-02-20T15:56:45.000Z</time>
      </trkpt>
      <trkpt lat="45.85375" lon="5.40708">
        <ele>219</ele>
        <time>2021-02-20T15:56:46.000Z</time>
      </trkpt>
      <trkpt lat="45.85368" lon="5.40695">
        <ele>218.8</ele>
        <time>2021-02-20T15:56:48.000Z</time>
      </trkpt>
      <trkpt lat="45.85361" lon="5.40681">
        <ele>218.6</ele>
        <time>2021-02-20T15:56:50.000Z</time>
      </trkpt>
      <trkpt lat="45.85348" lon="5.4065">
        <ele>218.2</ele>
        <time>2021-02-20T15:56:54.000Z</time>
      </trkpt>
      <trkpt lat="45.85345" lon="5.40643">
        <ele>218</ele>
        <time>2021-02-20T15:56:55.000Z</time>
      </trkpt>
      <trkpt lat="45.85342" lon="5.40636">
        <ele>217.8</ele>
        <time>2021-02-20T15:56:56.000Z</time>
      </trkpt>
      <trkpt lat="45.85339" lon="5.40629">
        <ele>217.6</ele>
        <time>2021-02-20T15:56:57.000Z</time>
      </trkpt>
      <trkpt lat="45.85336" lon="5.40622">
        <ele>217.6</ele>
        <time>2021-02-20T15:56:58.000Z</time>
      </trkpt>
      <trkpt lat="45.85331" lon="5.40607">
        <ele>217.6</ele>
        <time>2021-02-20T15:57:00.000Z</time>
      </trkpt>
      <trkpt lat="45.85328" lon="5.406">
        <ele>217.6</ele>
        <time>2021-02-20T15:57:01.000Z</time>
      </trkpt>
      <trkpt lat="45.85325" lon="5.40593">
        <ele>217.6</ele>
        <time>2021-02-20T15:57:02.000Z</time>
      </trkpt>
      <trkpt lat="45.85323" lon="5.40587">
        <ele>217.6</ele>
        <time>2021-02-20T15:57:03.000Z</time>
      </trkpt>
      <trkpt lat="45.8532" lon="5.4058">
        <ele>217.4</ele>
        <time>2021-02-20T15:57:04.000Z</time>
      </trkpt>
      <trkpt lat="45.85317" lon="5.40574">
        <ele>217.6</ele>
        <time>2021-02-20T15:57:05.000Z</time>
      </trkpt>
      <trkpt lat="45.85311" lon="5.4056">
        <ele>217.6</ele>
        <time>2021-02-20T15:57:07.000Z</time>
      </trkpt>
      <trkpt lat="45.85308" lon="5.40554">
        <ele>217.4</ele>
        <time>2021-02-20T15:57:08.000Z</time>
      </trkpt>
      <trkpt lat="45.85305" lon="5.40548">
        <ele>217.6</ele>
        <time>2021-02-20T15:57:09.000Z</time>
      </trkpt>
      <trkpt lat="45.85303" lon="5.40542">
        <ele>217.8</ele>
        <time>2021-02-20T15:57:10.000Z</time>
      </trkpt>
      <trkpt lat="45.853" lon="5.40536">
        <ele>217.8</ele>
        <time>2021-02-20T15:57:11.000Z</time>
      </trkpt>
      <trkpt lat="45.85298" lon="5.40531">
        <ele>217.8</ele>
        <time>2021-02-20T15:57:12.000Z</time>
      </trkpt>
      <trkpt lat="45.85297" lon="5.40526">
        <ele>217.8</ele>
        <time>2021-02-20T15:57:13.000Z</time>
      </trkpt>
      <trkpt lat="45.85297" lon="5.40522">
        <ele>217.6</ele>
        <time>2021-02-20T15:57:14.000Z</time>
      </trkpt>
      <trkpt lat="45.85298" lon="5.40519">
        <ele>217.8</ele>
        <time>2021-02-20T15:57:15.000Z</time>
      </trkpt>
      <trkpt lat="45.853" lon="5.40517">
        <ele>217.8</ele>
        <time>2021-02-20T15:57:16.000Z</time>
      </trkpt>
      <trkpt lat="45.85303" lon="5.40513">
        <ele>217.8</ele>
        <time>2021-02-20T15:57:17.000Z</time>
      </trkpt>
      <trkpt lat="45.85306" lon="5.40509">
        <ele>217.8</ele>
        <time>2021-02-20T15:57:18.000Z</time>
      </trkpt>
      <trkpt lat="45.85311" lon="5.40506">
        <ele>217.8</ele>
        <time>2021-02-20T15:57:19.000Z</time>
      </trkpt>
      <trkpt lat="45.85316" lon="5.40502">
        <ele>217.8</ele>
        <time>2021-02-20T15:57:20.000Z</time>
      </trkpt>
      <trkpt lat="45.85328" lon="5.40497">
        <ele>217.8</ele>
        <time>2021-02-20T15:57:22.000Z</time>
      </trkpt>
      <trkpt lat="45.85341" lon="5.40484">
        <ele>217.6</ele>
        <time>2021-02-20T15:57:24.000Z</time>
      </trkpt>
      <trkpt lat="45.85346" lon="5.40477">
        <ele>217.2</ele>
        <time>2021-02-20T15:57:25.000Z</time>
      </trkpt>
      <trkpt lat="45.85353" lon="5.40469">
        <ele>217</ele>
        <time>2021-02-20T15:57:26.000Z</time>
      </trkpt>
      <trkpt lat="45.85374" lon="5.40451">
        <ele>216.2</ele>
        <time>2021-02-20T15:57:29.000Z</time>
      </trkpt>
      <trkpt lat="45.85381" lon="5.40446">
        <ele>215.2</ele>
        <time>2021-02-20T15:57:30.000Z</time>
      </trkpt>
      <trkpt lat="45.85388" lon="5.4044">
        <ele>214.4</ele>
        <time>2021-02-20T15:57:31.000Z</time>
      </trkpt>
      <trkpt lat="45.85395" lon="5.40435">
        <ele>214</ele>
        <time>2021-02-20T15:57:32.000Z</time>
      </trkpt>
      <trkpt lat="45.85401" lon="5.4043">
        <ele>213.6</ele>
        <time>2021-02-20T15:57:33.000Z</time>
      </trkpt>
      <trkpt lat="45.85407" lon="5.40426">
        <ele>213.4</ele>
        <time>2021-02-20T15:57:34.000Z</time>
      </trkpt>
      <trkpt lat="45.85413" lon="5.40421">
        <ele>213.2</ele>
        <time>2021-02-20T15:57:35.000Z</time>
      </trkpt>
      <trkpt lat="45.85418" lon="5.40416">
        <ele>213.2</ele>
        <time>2021-02-20T15:57:36.000Z</time>
      </trkpt>
      <trkpt lat="45.85423" lon="5.40411">
        <ele>213.2</ele>
        <time>2021-02-20T15:57:37.000Z</time>
      </trkpt>
      <trkpt lat="45.85428" lon="5.40406">
        <ele>213.2</ele>
        <time>2021-02-20T15:57:38.000Z</time>
      </trkpt>
      <trkpt lat="45.85433" lon="5.404">
        <ele>213.2</ele>
        <time>2021-02-20T15:57:39.000Z</time>
      </trkpt>
      <trkpt lat="45.85437" lon="5.40395">
        <ele>213</ele>
        <time>2021-02-20T15:57:40.000Z</time>
      </trkpt>
      <trkpt lat="45.85441" lon="5.40389">
        <ele>213</ele>
        <time>2021-02-20T15:57:41.000Z</time>
      </trkpt>
      <trkpt lat="45.85445" lon="5.40384">
        <ele>213</ele>
        <time>2021-02-20T15:57:42.000Z</time>
      </trkpt>
      <trkpt lat="45.85448" lon="5.40379">
        <ele>213</ele>
        <time>2021-02-20T15:57:43.000Z</time>
      </trkpt>
      <trkpt lat="45.85451" lon="5.40374">
        <ele>213.2</ele>
        <time>2021-02-20T15:57:44.000Z</time>
      </trkpt>
      <trkpt lat="45.85453" lon="5.40369">
        <ele>213.2</ele>
        <time>2021-02-20T15:57:45.000Z</time>
      </trkpt>
      <trkpt lat="45.85455" lon="5.40363">
        <ele>213.2</ele>
        <time>2021-02-20T15:57:46.000Z</time>
      </trkpt>
      <trkpt lat="45.85457" lon="5.40358">
        <ele>213.4</ele>
        <time>2021-02-20T15:57:47.000Z</time>
      </trkpt>
      <trkpt lat="45.85457" lon="5.40353">
        <ele>213.6</ele>
        <time>2021-02-20T15:57:48.000Z</time>
      </trkpt>
      <trkpt lat="45.85458" lon="5.40349">
        <ele>213.6</ele>
        <time>2021-02-20T15:57:49.000Z</time>
      </trkpt>
      <trkpt lat="45.85458" lon="5.40345">
        <ele>213.8</ele>
        <time>2021-02-20T15:57:50.000Z</time>
      </trkpt>
      <trkpt lat="45.85458" lon="5.40342">
        <ele>214</ele>
        <time>2021-02-20T15:57:51.000Z</time>
      </trkpt>
      <trkpt lat="45.85458" lon="5.40339">
        <ele>214.2</ele>
        <time>2021-02-20T15:57:52.000Z</time>
      </trkpt>
      <trkpt lat="45.85458" lon="5.40337">
        <ele>214.2</ele>
        <time>2021-02-20T15:57:53.000Z</time>
      </trkpt>
      <trkpt lat="45.85459" lon="5.40334">
        <ele>214.2</ele>
        <time>2021-02-20T15:57:54.000Z</time>
      </trkpt>
      <trkpt lat="45.85459" lon="5.40331">
        <ele>214.2</ele>
        <time>2021-02-20T15:57:55.000Z</time>
      </trkpt>
      <trkpt lat="45.8546" lon="5.40325">
        <ele>214.4</ele>
        <time>2021-02-20T15:57:57.000Z</time>
      </trkpt>
      <trkpt lat="45.8546" lon="5.40324">
        <ele>214.4</ele>
        <time>2021-02-20T15:57:58.000Z</time>
      </trkpt>
      <trkpt lat="45.8546" lon="5.40323">
        <ele>214.4</ele>
        <time>2021-02-20T15:57:59.000Z</time>
      </trkpt>
      <trkpt lat="45.8546" lon="5.40322">
        <ele>214.4</ele>
        <time>2021-02-20T15:58:00.000Z</time>
      </trkpt>
      <trkpt lat="45.85459" lon="5.40321">
        <ele>214.6</ele>
        <time>2021-02-20T15:58:01.000Z</time>
      </trkpt>
      <trkpt lat="45.85459" lon="5.40319">
        <ele>214.6</ele>
        <time>2021-02-20T15:58:02.000Z</time>
      </trkpt>
      <trkpt lat="45.85458" lon="5.40315">
        <ele>214.6</ele>
        <time>2021-02-20T15:58:03.000Z</time>
      </trkpt>
      <trkpt lat="45.85452" lon="5.40301">
        <ele>214.6</ele>
        <time>2021-02-20T15:58:06.000Z</time>
      </trkpt>
      <trkpt lat="45.85451" lon="5.40296">
        <ele>214.4</ele>
        <time>2021-02-20T15:58:07.000Z</time>
      </trkpt>
      <trkpt lat="45.85451" lon="5.4029">
        <ele>214.4</ele>
        <time>2021-02-20T15:58:08.000Z</time>
      </trkpt>
      <trkpt lat="45.85452" lon="5.40284">
        <ele>214.6</ele>
        <time>2021-02-20T15:58:09.000Z</time>
      </trkpt>
      <trkpt lat="45.85454" lon="5.40277">
        <ele>214.6</ele>
        <time>2021-02-20T15:58:10.000Z</time>
      </trkpt>
      <trkpt lat="45.85455" lon="5.40271">
        <ele>214.4</ele>
        <time>2021-02-20T15:58:11.000Z</time>
      </trkpt>
      <trkpt lat="45.85458" lon="5.40259">
        <ele>214.4</ele>
        <time>2021-02-20T15:58:13.000Z</time>
      </trkpt>
      <trkpt lat="45.85459" lon="5.40252">
        <ele>214.2</ele>
        <time>2021-02-20T15:58:14.000Z</time>
      </trkpt>
      <trkpt lat="45.8546" lon="5.40246">
        <ele>214.4</ele>
        <time>2021-02-20T15:58:15.000Z</time>
      </trkpt>
      <trkpt lat="45.85461" lon="5.4024">
        <ele>214.2</ele>
        <time>2021-02-20T15:58:16.000Z</time>
      </trkpt>
      <trkpt lat="45.85463" lon="5.40235">
        <ele>214</ele>
        <time>2021-02-20T15:58:17.000Z</time>
      </trkpt>
      <trkpt lat="45.85465" lon="5.40223">
        <ele>214.2</ele>
        <time>2021-02-20T15:58:19.000Z</time>
      </trkpt>
      <trkpt lat="45.85469" lon="5.40211">
        <ele>214</ele>
        <time>2021-02-20T15:58:21.000Z</time>
      </trkpt>
      <trkpt lat="45.8547" lon="5.40205">
        <ele>214</ele>
        <time>2021-02-20T15:58:22.000Z</time>
      </trkpt>
      <trkpt lat="45.85472" lon="5.40199">
        <ele>214</ele>
        <time>2021-02-20T15:58:23.000Z</time>
      </trkpt>
      <trkpt lat="45.85476" lon="5.40181">
        <ele>214.2</ele>
        <time>2021-02-20T15:58:26.000Z</time>
      </trkpt>
      <trkpt lat="45.85479" lon="5.40169">
        <ele>214.2</ele>
        <time>2021-02-20T15:58:28.000Z</time>
      </trkpt>
      <trkpt lat="45.8548" lon="5.40164">
        <ele>214.2</ele>
        <time>2021-02-20T15:58:29.000Z</time>
      </trkpt>
      <trkpt lat="45.85481" lon="5.40158">
        <ele>214</ele>
        <time>2021-02-20T15:58:30.000Z</time>
      </trkpt>
      <trkpt lat="45.85482" lon="5.40152">
        <ele>214.2</ele>
        <time>2021-02-20T15:58:31.000Z</time>
      </trkpt>
      <trkpt lat="45.85484" lon="5.40147">
        <ele>214.2</ele>
        <time>2021-02-20T15:58:32.000Z</time>
      </trkpt>
      <trkpt lat="45.85485" lon="5.40141">
        <ele>214.2</ele>
        <time>2021-02-20T15:58:33.000Z</time>
      </trkpt>
      <trkpt lat="45.85487" lon="5.40135">
        <ele>214.4</ele>
        <time>2021-02-20T15:58:34.000Z</time>
      </trkpt>
      <trkpt lat="45.85488" lon="5.4013">
        <ele>214.6</ele>
        <time>2021-02-20T15:58:35.000Z</time>
      </trkpt>
      <trkpt lat="45.85488" lon="5.40124">
        <ele>214.4</ele>
        <time>2021-02-20T15:58:36.000Z</time>
      </trkpt>
      <trkpt lat="45.8549" lon="5.40119">
        <ele>214.6</ele>
        <time>2021-02-20T15:58:37.000Z</time>
      </trkpt>
      <trkpt lat="45.85491" lon="5.40114">
        <ele>214.6</ele>
        <time>2021-02-20T15:58:38.000Z</time>
      </trkpt>
      <trkpt lat="45.85492" lon="5.40109">
        <ele>214.8</ele>
        <time>2021-02-20T15:58:39.000Z</time>
      </trkpt>
      <trkpt lat="45.85493" lon="5.40103">
        <ele>215</ele>
        <time>2021-02-20T15:58:40.000Z</time>
      </trkpt>
      <trkpt lat="45.85494" lon="5.40098">
        <ele>215.4</ele>
        <time>2021-02-20T15:58:41.000Z</time>
      </trkpt>
      <trkpt lat="45.85495" lon="5.40093">
        <ele>215.6</ele>
        <time>2021-02-20T15:58:42.000Z</time>
      </trkpt>
      <trkpt lat="45.85496" lon="5.40088">
        <ele>216</ele>
        <time>2021-02-20T15:58:43.000Z</time>
      </trkpt>
      <trkpt lat="45.85498" lon="5.40083">
        <ele>216.6</ele>
        <time>2021-02-20T15:58:44.000Z</time>
      </trkpt>
      <trkpt lat="45.85499" lon="5.40078">
        <ele>216.8</ele>
        <time>2021-02-20T15:58:45.000Z</time>
      </trkpt>
      <trkpt lat="45.855" lon="5.40072">
        <ele>217</ele>
        <time>2021-02-20T15:58:46.000Z</time>
      </trkpt>
      <trkpt lat="45.85501" lon="5.40067">
        <ele>217.2</ele>
        <time>2021-02-20T15:58:47.000Z</time>
      </trkpt>
      <trkpt lat="45.85502" lon="5.40062">
        <ele>217.2</ele>
        <time>2021-02-20T15:58:48.000Z</time>
      </trkpt>
      <trkpt lat="45.85503" lon="5.40057">
        <ele>217.2</ele>
        <time>2021-02-20T15:58:49.000Z</time>
      </trkpt>
      <trkpt lat="45.85504" lon="5.40052">
        <ele>217.2</ele>
        <time>2021-02-20T15:58:50.000Z</time>
      </trkpt>
      <trkpt lat="45.85505" lon="5.40047">
        <ele>217.4</ele>
        <time>2021-02-20T15:58:51.000Z</time>
      </trkpt>
      <trkpt lat="45.85506" lon="5.40042">
        <ele>217.8</ele>
        <time>2021-02-20T15:58:52.000Z</time>
      </trkpt>
      <trkpt lat="45.85507" lon="5.40037">
        <ele>218</ele>
        <time>2021-02-20T15:58:53.000Z</time>
      </trkpt>
      <trkpt lat="45.85507" lon="5.40031">
        <ele>218.4</ele>
        <time>2021-02-20T15:58:54.000Z</time>
      </trkpt>
      <trkpt lat="45.85506" lon="5.40025">
        <ele>218.4</ele>
        <time>2021-02-20T15:58:55.000Z</time>
      </trkpt>
      <trkpt lat="45.85505" lon="5.4002">
        <ele>218.6</ele>
        <time>2021-02-20T15:58:56.000Z</time>
      </trkpt>
      <trkpt lat="45.85502" lon="5.40016">
        <ele>218.4</ele>
        <time>2021-02-20T15:58:57.000Z</time>
      </trkpt>
      <trkpt lat="45.85499" lon="5.40013">
        <ele>218.6</ele>
        <time>2021-02-20T15:58:58.000Z</time>
      </trkpt>
      <trkpt lat="45.85496" lon="5.4001">
        <ele>218.8</ele>
        <time>2021-02-20T15:58:59.000Z</time>
      </trkpt>
      <trkpt lat="45.85493" lon="5.40008">
        <ele>219</ele>
        <time>2021-02-20T15:59:00.000Z</time>
      </trkpt>
      <trkpt lat="45.8549" lon="5.40007">
        <ele>219</ele>
        <time>2021-02-20T15:59:01.000Z</time>
      </trkpt>
      <trkpt lat="45.85487" lon="5.40005">
        <ele>219</ele>
        <time>2021-02-20T15:59:02.000Z</time>
      </trkpt>
      <trkpt lat="45.85484" lon="5.40005">
        <ele>219</ele>
        <time>2021-02-20T15:59:03.000Z</time>
      </trkpt>
      <trkpt lat="45.8548" lon="5.40005">
        <ele>219.2</ele>
        <time>2021-02-20T15:59:04.000Z</time>
      </trkpt>
      <trkpt lat="45.85477" lon="5.40004">
        <ele>219.2</ele>
        <time>2021-02-20T15:59:05.000Z</time>
      </trkpt>
      <trkpt lat="45.85474" lon="5.40004">
        <ele>219.2</ele>
        <time>2021-02-20T15:59:06.000Z</time>
      </trkpt>
      <trkpt lat="45.85471" lon="5.40004">
        <ele>219.4</ele>
        <time>2021-02-20T15:59:07.000Z</time>
      </trkpt>
      <trkpt lat="45.85467" lon="5.40005">
        <ele>219.6</ele>
        <time>2021-02-20T15:59:08.000Z</time>
      </trkpt>
      <trkpt lat="45.85464" lon="5.40005">
        <ele>219.6</ele>
        <time>2021-02-20T15:59:09.000Z</time>
      </trkpt>
      <trkpt lat="45.85461" lon="5.40005">
        <ele>219.8</ele>
        <time>2021-02-20T15:59:10.000Z</time>
      </trkpt>
      <trkpt lat="45.85458" lon="5.40004">
        <ele>219.8</ele>
        <time>2021-02-20T15:59:11.000Z</time>
      </trkpt>
      <trkpt lat="45.85456" lon="5.40004">
        <ele>220.2</ele>
        <time>2021-02-20T15:59:12.000Z</time>
      </trkpt>
      <trkpt lat="45.85454" lon="5.40004">
        <ele>220.6</ele>
        <time>2021-02-20T15:59:13.000Z</time>
      </trkpt>
      <trkpt lat="45.85451" lon="5.40004">
        <ele>220.6</ele>
        <time>2021-02-20T15:59:14.000Z</time>
      </trkpt>
      <trkpt lat="45.85449" lon="5.40004">
        <ele>220.6</ele>
        <time>2021-02-20T15:59:15.000Z</time>
      </trkpt>
      <trkpt lat="45.85446" lon="5.40004">
        <ele>220.8</ele>
        <time>2021-02-20T15:59:16.000Z</time>
      </trkpt>
      <trkpt lat="45.85444" lon="5.40003">
        <ele>221</ele>
        <time>2021-02-20T15:59:17.000Z</time>
      </trkpt>
      <trkpt lat="45.85441" lon="5.40003">
        <ele>221.2</ele>
        <time>2021-02-20T15:59:18.000Z</time>
      </trkpt>
      <trkpt lat="45.85439" lon="5.40002">
        <ele>221.4</ele>
        <time>2021-02-20T15:59:19.000Z</time>
      </trkpt>
      <trkpt lat="45.85437" lon="5.40002">
        <ele>221.6</ele>
        <time>2021-02-20T15:59:20.000Z</time>
      </trkpt>
      <trkpt lat="45.85435" lon="5.40003">
        <ele>221.6</ele>
        <time>2021-02-20T15:59:21.000Z</time>
      </trkpt>
      <trkpt lat="45.85432" lon="5.40003">
        <ele>221.8</ele>
        <time>2021-02-20T15:59:22.000Z</time>
      </trkpt>
      <trkpt lat="45.8543" lon="5.40003">
        <ele>222.2</ele>
        <time>2021-02-20T15:59:23.000Z</time>
      </trkpt>
      <trkpt lat="45.85429" lon="5.40002">
        <ele>222.4</ele>
        <time>2021-02-20T15:59:24.000Z</time>
      </trkpt>
      <trkpt lat="45.85427" lon="5.40001">
        <ele>222.4</ele>
        <time>2021-02-20T15:59:25.000Z</time>
      </trkpt>
      <trkpt lat="45.85425" lon="5.40001">
        <ele>222.8</ele>
        <time>2021-02-20T15:59:26.000Z</time>
      </trkpt>
      <trkpt lat="45.85423" lon="5.4">
        <ele>223.2</ele>
        <time>2021-02-20T15:59:27.000Z</time>
      </trkpt>
      <trkpt lat="45.85422" lon="5.39999">
        <ele>223.4</ele>
        <time>2021-02-20T15:59:28.000Z</time>
      </trkpt>
      <trkpt lat="45.8542" lon="5.39998">
        <ele>223.6</ele>
        <time>2021-02-20T15:59:29.000Z</time>
      </trkpt>
      <trkpt lat="45.8542" lon="5.39997">
        <ele>223.6</ele>
        <time>2021-02-20T15:59:30.000Z</time>
      </trkpt>
      <trkpt lat="45.85419" lon="5.39997">
        <ele>224</ele>
        <time>2021-02-20T15:59:31.000Z</time>
      </trkpt>
      <trkpt lat="45.85417" lon="5.39995">
        <ele>224.4</ele>
        <time>2021-02-20T15:59:33.000Z</time>
      </trkpt>
      <trkpt lat="45.85415" lon="5.39993">
        <ele>224.6</ele>
        <time>2021-02-20T15:59:34.000Z</time>
      </trkpt>
      <trkpt lat="45.85413" lon="5.39991">
        <ele>225.2</ele>
        <time>2021-02-20T15:59:36.000Z</time>
      </trkpt>
      <trkpt lat="45.85413" lon="5.3999">
        <ele>225.6</ele>
        <time>2021-02-20T15:59:37.000Z</time>
      </trkpt>
      <trkpt lat="45.85414" lon="5.39988">
        <ele>226</ele>
        <time>2021-02-20T15:59:38.000Z</time>
      </trkpt>
      <trkpt lat="45.85413" lon="5.39987">
        <ele>226.2</ele>
        <time>2021-02-20T15:59:39.000Z</time>
      </trkpt>
      <trkpt lat="45.85411" lon="5.39986">
        <ele>226.6</ele>
        <time>2021-02-20T15:59:40.000Z</time>
      </trkpt>
      <trkpt lat="45.85409" lon="5.39985">
        <ele>226.8</ele>
        <time>2021-02-20T15:59:41.000Z</time>
      </trkpt>
      <trkpt lat="45.85408" lon="5.39984">
        <ele>227.4</ele>
        <time>2021-02-20T15:59:42.000Z</time>
      </trkpt>
      <trkpt lat="45.85405" lon="5.39983">
        <ele>227.8</ele>
        <time>2021-02-20T15:59:43.000Z</time>
      </trkpt>
      <trkpt lat="45.85403" lon="5.39983">
        <ele>228</ele>
        <time>2021-02-20T15:59:44.000Z</time>
      </trkpt>
      <trkpt lat="45.85401" lon="5.39981">
        <ele>228.4</ele>
        <time>2021-02-20T15:59:45.000Z</time>
      </trkpt>
      <trkpt lat="45.854" lon="5.39979">
        <ele>228.8</ele>
        <time>2021-02-20T15:59:46.000Z</time>
      </trkpt>
      <trkpt lat="45.85396" lon="5.39977">
        <ele>229</ele>
        <time>2021-02-20T15:59:47.000Z</time>
      </trkpt>
      <trkpt lat="45.85394" lon="5.39974">
        <ele>229.4</ele>
        <time>2021-02-20T15:59:48.000Z</time>
      </trkpt>
      <trkpt lat="45.85393" lon="5.39972">
        <ele>229.8</ele>
        <time>2021-02-20T15:59:49.000Z</time>
      </trkpt>
      <trkpt lat="45.85391" lon="5.3997">
        <ele>230.2</ele>
        <time>2021-02-20T15:59:50.000Z</time>
      </trkpt>
      <trkpt lat="45.85389" lon="5.39968">
        <ele>230.2</ele>
        <time>2021-02-20T15:59:51.000Z</time>
      </trkpt>
      <trkpt lat="45.85385" lon="5.39967">
        <ele>230.6</ele>
        <time>2021-02-20T15:59:52.000Z</time>
      </trkpt>
      <trkpt lat="45.85383" lon="5.39964">
        <ele>231</ele>
        <time>2021-02-20T15:59:53.000Z</time>
      </trkpt>
      <trkpt lat="45.85381" lon="5.39962">
        <ele>231.2</ele>
        <time>2021-02-20T15:59:54.000Z</time>
      </trkpt>
      <trkpt lat="45.85379" lon="5.3996">
        <ele>231.4</ele>
        <time>2021-02-20T15:59:55.000Z</time>
      </trkpt>
      <trkpt lat="45.85377" lon="5.39957">
        <ele>231.8</ele>
        <time>2021-02-20T15:59:56.000Z</time>
      </trkpt>
      <trkpt lat="45.85375" lon="5.39954">
        <ele>232</ele>
        <time>2021-02-20T15:59:57.000Z</time>
      </trkpt>
      <trkpt lat="45.85372" lon="5.3995">
        <ele>232</ele>
        <time>2021-02-20T15:59:58.000Z</time>
      </trkpt>
      <trkpt lat="45.8537" lon="5.39947">
        <ele>232</ele>
        <time>2021-02-20T15:59:59.000Z</time>
      </trkpt>
      <trkpt lat="45.85366" lon="5.39943">
        <ele>232.2</ele>
        <time>2021-02-20T16:00:00.000Z</time>
      </trkpt>
      <trkpt lat="45.85362" lon="5.39938">
        <ele>232.2</ele>
        <time>2021-02-20T16:00:01.000Z</time>
      </trkpt>
      <trkpt lat="45.85357" lon="5.39933">
        <ele>232.2</ele>
        <time>2021-02-20T16:00:02.000Z</time>
      </trkpt>
      <trkpt lat="45.85353" lon="5.39926">
        <ele>232.4</ele>
        <time>2021-02-20T16:00:03.000Z</time>
      </trkpt>
      <trkpt lat="45.85349" lon="5.39921">
        <ele>232.4</ele>
        <time>2021-02-20T16:00:04.000Z</time>
      </trkpt>
      <trkpt lat="45.85346" lon="5.39916">
        <ele>232.4</ele>
        <time>2021-02-20T16:00:05.000Z</time>
      </trkpt>
      <trkpt lat="45.85328" lon="5.39895">
        <ele>232</ele>
        <time>2021-02-20T16:00:08.000Z</time>
      </trkpt>
      <trkpt lat="45.85323" lon="5.3989">
        <ele>231.6</ele>
        <time>2021-02-20T16:00:09.000Z</time>
      </trkpt>
      <trkpt lat="45.85317" lon="5.39885">
        <ele>231.4</ele>
        <time>2021-02-20T16:00:10.000Z</time>
      </trkpt>
      <trkpt lat="45.85311" lon="5.3988">
        <ele>231.4</ele>
        <time>2021-02-20T16:00:11.000Z</time>
      </trkpt>
      <trkpt lat="45.85307" lon="5.39874">
        <ele>231.2</ele>
        <time>2021-02-20T16:00:12.000Z</time>
      </trkpt>
      <trkpt lat="45.85301" lon="5.39869">
        <ele>230.8</ele>
        <time>2021-02-20T16:00:13.000Z</time>
      </trkpt>
      <trkpt lat="45.85296" lon="5.39865">
        <ele>229.8</ele>
        <time>2021-02-20T16:00:14.000Z</time>
      </trkpt>
      <trkpt lat="45.85292" lon="5.39861">
        <ele>229.2</ele>
        <time>2021-02-20T16:00:15.000Z</time>
      </trkpt>
      <trkpt lat="45.85288" lon="5.39856">
        <ele>228.6</ele>
        <time>2021-02-20T16:00:16.000Z</time>
      </trkpt>
      <trkpt lat="45.85285" lon="5.39851">
        <ele>228.4</ele>
        <time>2021-02-20T16:00:17.000Z</time>
      </trkpt>
      <trkpt lat="45.8528" lon="5.39847">
        <ele>228.4</ele>
        <time>2021-02-20T16:00:18.000Z</time>
      </trkpt>
      <trkpt lat="45.85276" lon="5.39843">
        <ele>228.2</ele>
        <time>2021-02-20T16:00:19.000Z</time>
      </trkpt>
      <trkpt lat="45.85272" lon="5.39839">
        <ele>228.2</ele>
        <time>2021-02-20T16:00:20.000Z</time>
      </trkpt>
      <trkpt lat="45.85267" lon="5.39835">
        <ele>228.2</ele>
        <time>2021-02-20T16:00:21.000Z</time>
      </trkpt>
      <trkpt lat="45.85264" lon="5.3983">
        <ele>228.2</ele>
        <time>2021-02-20T16:00:22.000Z</time>
      </trkpt>
      <trkpt lat="45.85261" lon="5.39825">
        <ele>228.2</ele>
        <time>2021-02-20T16:00:23.000Z</time>
      </trkpt>
      <trkpt lat="45.85257" lon="5.39821">
        <ele>228.2</ele>
        <time>2021-02-20T16:00:24.000Z</time>
      </trkpt>
      <trkpt lat="45.85254" lon="5.39817">
        <ele>228.4</ele>
        <time>2021-02-20T16:00:25.000Z</time>
      </trkpt>
      <trkpt lat="45.85252" lon="5.39813">
        <ele>228.2</ele>
        <time>2021-02-20T16:00:26.000Z</time>
      </trkpt>
      <trkpt lat="45.85247" lon="5.39808">
        <ele>228.6</ele>
        <time>2021-02-20T16:00:27.000Z</time>
      </trkpt>
      <trkpt lat="45.85236" lon="5.39796">
        <ele>228.8</ele>
        <time>2021-02-20T16:00:30.000Z</time>
      </trkpt>
      <trkpt lat="45.85233" lon="5.39793">
        <ele>228.8</ele>
        <time>2021-02-20T16:00:31.000Z</time>
      </trkpt>
      <trkpt lat="45.8523" lon="5.3979">
        <ele>228.8</ele>
        <time>2021-02-20T16:00:32.000Z</time>
      </trkpt>
      <trkpt lat="45.85228" lon="5.39786">
        <ele>228.8</ele>
        <time>2021-02-20T16:00:33.000Z</time>
      </trkpt>
      <trkpt lat="45.85221" lon="5.39776">
        <ele>229.2</ele>
        <time>2021-02-20T16:00:36.000Z</time>
      </trkpt>
      <trkpt lat="45.85215" lon="5.39769">
        <ele>229.6</ele>
        <time>2021-02-20T16:00:38.000Z</time>
      </trkpt>
      <trkpt lat="45.85211" lon="5.39765">
        <ele>229.6</ele>
        <time>2021-02-20T16:00:39.000Z</time>
      </trkpt>
      <trkpt lat="45.85197" lon="5.39745">
        <ele>230</ele>
        <time>2021-02-20T16:00:44.000Z</time>
      </trkpt>
      <trkpt lat="45.85193" lon="5.3974">
        <ele>230</ele>
        <time>2021-02-20T16:00:45.000Z</time>
      </trkpt>
      <trkpt lat="45.85191" lon="5.39737">
        <ele>230</ele>
        <time>2021-02-20T16:00:46.000Z</time>
      </trkpt>
      <trkpt lat="45.85184" lon="5.39731">
        <ele>230</ele>
        <time>2021-02-20T16:00:48.000Z</time>
      </trkpt>
      <trkpt lat="45.85182" lon="5.39729">
        <ele>230.2</ele>
        <time>2021-02-20T16:00:49.000Z</time>
      </trkpt>
      <trkpt lat="45.85179" lon="5.39727">
        <ele>230.2</ele>
        <time>2021-02-20T16:00:50.000Z</time>
      </trkpt>
      <trkpt lat="45.85177" lon="5.39725">
        <ele>230.2</ele>
        <time>2021-02-20T16:00:51.000Z</time>
      </trkpt>
      <trkpt lat="45.85175" lon="5.39724">
        <ele>230.2</ele>
        <time>2021-02-20T16:00:52.000Z</time>
      </trkpt>
      <trkpt lat="45.85174" lon="5.39722">
        <ele>230.2</ele>
        <time>2021-02-20T16:00:53.000Z</time>
      </trkpt>
      <trkpt lat="45.85172" lon="5.39721">
        <ele>230.2</ele>
        <time>2021-02-20T16:00:54.000Z</time>
      </trkpt>
      <trkpt lat="45.8517" lon="5.3972">
        <ele>230.2</ele>
        <time>2021-02-20T16:00:55.000Z</time>
      </trkpt>
      <trkpt lat="45.85167" lon="5.39716">
        <ele>230.2</ele>
        <time>2021-02-20T16:00:56.000Z</time>
      </trkpt>
      <trkpt lat="45.85163" lon="5.39714">
        <ele>230.4</ele>
        <time>2021-02-20T16:00:57.000Z</time>
      </trkpt>
      <trkpt lat="45.85161" lon="5.39709">
        <ele>230.2</ele>
        <time>2021-02-20T16:00:58.000Z</time>
      </trkpt>
      <trkpt lat="45.85159" lon="5.39706">
        <ele>230.2</ele>
        <time>2021-02-20T16:00:59.000Z</time>
      </trkpt>
      <trkpt lat="45.85157" lon="5.39704">
        <ele>230.4</ele>
        <time>2021-02-20T16:01:00.000Z</time>
      </trkpt>
      <trkpt lat="45.85156" lon="5.39702">
        <ele>230.4</ele>
        <time>2021-02-20T16:01:01.000Z</time>
      </trkpt>
      <trkpt lat="45.85155" lon="5.39701">
        <ele>230.4</ele>
        <time>2021-02-20T16:01:02.000Z</time>
      </trkpt>
      <trkpt lat="45.85156" lon="5.39701">
        <ele>230.6</ele>
        <time>2021-02-20T16:01:03.000Z</time>
      </trkpt>
      <trkpt lat="45.85154" lon="5.39701">
        <ele>231</ele>
        <time>2021-02-20T16:01:05.000Z</time>
      </trkpt>
      <trkpt lat="45.85155" lon="5.39701">
        <ele>231.2</ele>
        <time>2021-02-20T16:01:07.000Z</time>
      </trkpt>
      <trkpt lat="45.85154" lon="5.397">
        <ele>231.6</ele>
        <time>2021-02-20T16:01:08.000Z</time>
      </trkpt>
      <trkpt lat="45.85153" lon="5.39699">
        <ele>231.6</ele>
        <time>2021-02-20T16:01:09.000Z</time>
      </trkpt>
      <trkpt lat="45.85152" lon="5.39698">
        <ele>232</ele>
        <time>2021-02-20T16:01:10.000Z</time>
      </trkpt>
      <trkpt lat="45.8515" lon="5.39698">
        <ele>232</ele>
        <time>2021-02-20T16:01:11.000Z</time>
      </trkpt>
      <trkpt lat="45.85149" lon="5.39698">
        <ele>232</ele>
        <time>2021-02-20T16:01:12.000Z</time>
      </trkpt>
      <trkpt lat="45.85149" lon="5.39699">
        <ele>232.4</ele>
        <time>2021-02-20T16:01:14.000Z</time>
      </trkpt>
      <trkpt lat="45.85148" lon="5.39699">
        <ele>232.4</ele>
        <time>2021-02-20T16:01:15.000Z</time>
      </trkpt>
      <trkpt lat="45.85146" lon="5.397">
        <ele>232.8</ele>
        <time>2021-02-20T16:01:16.000Z</time>
      </trkpt>
      <trkpt lat="45.85145" lon="5.397">
        <ele>232.8</ele>
        <time>2021-02-20T16:01:17.000Z</time>
      </trkpt>
      <trkpt lat="45.85144" lon="5.397">
        <ele>233</ele>
        <time>2021-02-20T16:01:18.000Z</time>
      </trkpt>
      <trkpt lat="45.85143" lon="5.39701">
        <ele>233.4</ele>
        <time>2021-02-20T16:01:19.000Z</time>
      </trkpt>
      <trkpt lat="45.85142" lon="5.39701">
        <ele>233.6</ele>
        <time>2021-02-20T16:01:20.000Z</time>
      </trkpt>
      <trkpt lat="45.85139" lon="5.39701">
        <ele>233.8</ele>
        <time>2021-02-20T16:01:21.000Z</time>
      </trkpt>
      <trkpt lat="45.85137" lon="5.39702">
        <ele>233.8</ele>
        <time>2021-02-20T16:01:22.000Z</time>
      </trkpt>
      <trkpt lat="45.85135" lon="5.39702">
        <ele>234</ele>
        <time>2021-02-20T16:01:23.000Z</time>
      </trkpt>
      <trkpt lat="45.85135" lon="5.39703">
        <ele>234</ele>
        <time>2021-02-20T16:01:24.000Z</time>
      </trkpt>
      <trkpt lat="45.85134" lon="5.39703">
        <ele>234.6</ele>
        <time>2021-02-20T16:01:26.000Z</time>
      </trkpt>
      <trkpt lat="45.85134" lon="5.39702">
        <ele>235</ele>
        <time>2021-02-20T16:01:28.000Z</time>
      </trkpt>
      <trkpt lat="45.85134" lon="5.39702">
        <ele>235.6</ele>
        <time>2021-02-20T16:01:30.000Z</time>
      </trkpt>
      <trkpt lat="45.8513" lon="5.39702">
        <ele>235.8</ele>
        <time>2021-02-20T16:01:31.000Z</time>
      </trkpt>
      <trkpt lat="45.85128" lon="5.39701">
        <ele>235.8</ele>
        <time>2021-02-20T16:01:32.000Z</time>
      </trkpt>
      <trkpt lat="45.85125" lon="5.39701">
        <ele>236</ele>
        <time>2021-02-20T16:01:33.000Z</time>
      </trkpt>
      <trkpt lat="45.85124" lon="5.39701">
        <ele>236</ele>
        <time>2021-02-20T16:01:35.000Z</time>
      </trkpt>
      <trkpt lat="45.85123" lon="5.39701">
        <ele>236.6</ele>
        <time>2021-02-20T16:01:36.000Z</time>
      </trkpt>
      <trkpt lat="45.85123" lon="5.397">
        <ele>237</ele>
        <time>2021-02-20T16:01:38.000Z</time>
      </trkpt>
      <trkpt lat="45.85122" lon="5.397">
        <ele>237</ele>
        <time>2021-02-20T16:01:39.000Z</time>
      </trkpt>
      <trkpt lat="45.85121" lon="5.39701">
        <ele>238</ele>
        <time>2021-02-20T16:01:42.000Z</time>
      </trkpt>
      <trkpt lat="45.85122" lon="5.39702">
        <ele>238</ele>
        <time>2021-02-20T16:01:43.000Z</time>
      </trkpt>
      <trkpt lat="45.85121" lon="5.39702">
        <ele>238.4</ele>
        <time>2021-02-20T16:01:44.000Z</time>
      </trkpt>
      <trkpt lat="45.8512" lon="5.39702">
        <ele>238.4</ele>
        <time>2021-02-20T16:01:45.000Z</time>
      </trkpt>
      <trkpt lat="45.85121" lon="5.39703">
        <ele>238.6</ele>
        <time>2021-02-20T16:01:46.000Z</time>
      </trkpt>
      <trkpt lat="45.85122" lon="5.39703">
        <ele>238.8</ele>
        <time>2021-02-20T16:01:47.000Z</time>
      </trkpt>
      <trkpt lat="45.85122" lon="5.39704">
        <ele>239.2</ele>
        <time>2021-02-20T16:01:48.000Z</time>
      </trkpt>
      <trkpt lat="45.85122" lon="5.39703">
        <ele>239.6</ele>
        <time>2021-02-20T16:01:49.000Z</time>
      </trkpt>
      <trkpt lat="45.8512" lon="5.39703">
        <ele>239.8</ele>
        <time>2021-02-20T16:01:50.000Z</time>
      </trkpt>
      <trkpt lat="45.85119" lon="5.39703">
        <ele>239.8</ele>
        <time>2021-02-20T16:01:51.000Z</time>
      </trkpt>
      <trkpt lat="45.85118" lon="5.39703">
        <ele>240</ele>
        <time>2021-02-20T16:01:52.000Z</time>
      </trkpt>
      <trkpt lat="45.85117" lon="5.39702">
        <ele>240.2</ele>
        <time>2021-02-20T16:01:53.000Z</time>
      </trkpt>
      <trkpt lat="45.85116" lon="5.39702">
        <ele>241.2</ele>
        <time>2021-02-20T16:01:55.000Z</time>
      </trkpt>
      <trkpt lat="45.85113" lon="5.39701">
        <ele>241.6</ele>
        <time>2021-02-20T16:01:57.000Z</time>
      </trkpt>
      <trkpt lat="45.8511" lon="5.39698">
        <ele>241.8</ele>
        <time>2021-02-20T16:01:58.000Z</time>
      </trkpt>
      <trkpt lat="45.8511" lon="5.39696">
        <ele>241.8</ele>
        <time>2021-02-20T16:01:59.000Z</time>
      </trkpt>
      <trkpt lat="45.8511" lon="5.39694">
        <ele>242</ele>
        <time>2021-02-20T16:02:00.000Z</time>
      </trkpt>
      <trkpt lat="45.8511" lon="5.39693">
        <ele>242.4</ele>
        <time>2021-02-20T16:02:01.000Z</time>
      </trkpt>
      <trkpt lat="45.85109" lon="5.3969">
        <ele>242.8</ele>
        <time>2021-02-20T16:02:02.000Z</time>
      </trkpt>
      <trkpt lat="45.85108" lon="5.39688">
        <ele>243.2</ele>
        <time>2021-02-20T16:02:03.000Z</time>
      </trkpt>
      <trkpt lat="45.85108" lon="5.39686">
        <ele>243.4</ele>
        <time>2021-02-20T16:02:04.000Z</time>
      </trkpt>
      <trkpt lat="45.85106" lon="5.39684">
        <ele>243.6</ele>
        <time>2021-02-20T16:02:05.000Z</time>
      </trkpt>
      <trkpt lat="45.85105" lon="5.39682">
        <ele>243.8</ele>
        <time>2021-02-20T16:02:06.000Z</time>
      </trkpt>
      <trkpt lat="45.85105" lon="5.3968">
        <ele>244</ele>
        <time>2021-02-20T16:02:07.000Z</time>
      </trkpt>
      <trkpt lat="45.85105" lon="5.39678">
        <ele>244</ele>
        <time>2021-02-20T16:02:08.000Z</time>
      </trkpt>
      <trkpt lat="45.85106" lon="5.39676">
        <ele>244.4</ele>
        <time>2021-02-20T16:02:09.000Z</time>
      </trkpt>
      <trkpt lat="45.85105" lon="5.39675">
        <ele>244.8</ele>
        <time>2021-02-20T16:02:10.000Z</time>
      </trkpt>
      <trkpt lat="45.85105" lon="5.39673">
        <ele>245</ele>
        <time>2021-02-20T16:02:11.000Z</time>
      </trkpt>
      <trkpt lat="45.85104" lon="5.39671">
        <ele>245</ele>
        <time>2021-02-20T16:02:12.000Z</time>
      </trkpt>
      <trkpt lat="45.85104" lon="5.39669">
        <ele>245.2</ele>
        <time>2021-02-20T16:02:13.000Z</time>
      </trkpt>
      <trkpt lat="45.85103" lon="5.39667">
        <ele>245.4</ele>
        <time>2021-02-20T16:02:14.000Z</time>
      </trkpt>
      <trkpt lat="45.85102" lon="5.39665">
        <ele>245.6</ele>
        <time>2021-02-20T16:02:15.000Z</time>
      </trkpt>
      <trkpt lat="45.85103" lon="5.39663">
        <ele>245.8</ele>
        <time>2021-02-20T16:02:16.000Z</time>
      </trkpt>
      <trkpt lat="45.85105" lon="5.39661">
        <ele>245.8</ele>
        <time>2021-02-20T16:02:17.000Z</time>
      </trkpt>
      <trkpt lat="45.85105" lon="5.39659">
        <ele>246.2</ele>
        <time>2021-02-20T16:02:18.000Z</time>
      </trkpt>
      <trkpt lat="45.85106" lon="5.39657">
        <ele>246.4</ele>
        <time>2021-02-20T16:02:19.000Z</time>
      </trkpt>
      <trkpt lat="45.85106" lon="5.39656">
        <ele>246.8</ele>
        <time>2021-02-20T16:02:20.000Z</time>
      </trkpt>
      <trkpt lat="45.85107" lon="5.39653">
        <ele>246.8</ele>
        <time>2021-02-20T16:02:21.000Z</time>
      </trkpt>
      <trkpt lat="45.85107" lon="5.39652">
        <ele>247</ele>
        <time>2021-02-20T16:02:22.000Z</time>
      </trkpt>
      <trkpt lat="45.85106" lon="5.3965">
        <ele>247.4</ele>
        <time>2021-02-20T16:02:23.000Z</time>
      </trkpt>
      <trkpt lat="45.85106" lon="5.39648">
        <ele>247.6</ele>
        <time>2021-02-20T16:02:24.000Z</time>
      </trkpt>
      <trkpt lat="45.85106" lon="5.39645">
        <ele>247.8</ele>
        <time>2021-02-20T16:02:25.000Z</time>
      </trkpt>
      <trkpt lat="45.85106" lon="5.39643">
        <ele>248</ele>
        <time>2021-02-20T16:02:26.000Z</time>
      </trkpt>
      <trkpt lat="45.85105" lon="5.39641">
        <ele>248.2</ele>
        <time>2021-02-20T16:02:27.000Z</time>
      </trkpt>
      <trkpt lat="45.85105" lon="5.39638">
        <ele>248.2</ele>
        <time>2021-02-20T16:02:28.000Z</time>
      </trkpt>
      <trkpt lat="45.85105" lon="5.39636">
        <ele>248.6</ele>
        <time>2021-02-20T16:02:29.000Z</time>
      </trkpt>
      <trkpt lat="45.85105" lon="5.39634">
        <ele>249</ele>
        <time>2021-02-20T16:02:30.000Z</time>
      </trkpt>
      <trkpt lat="45.85104" lon="5.39632">
        <ele>249.2</ele>
        <time>2021-02-20T16:02:31.000Z</time>
      </trkpt>
      <trkpt lat="45.85105" lon="5.3963">
        <ele>249.2</ele>
        <time>2021-02-20T16:02:32.000Z</time>
      </trkpt>
      <trkpt lat="45.85106" lon="5.39627">
        <ele>249.6</ele>
        <time>2021-02-20T16:02:33.000Z</time>
      </trkpt>
      <trkpt lat="45.85107" lon="5.39625">
        <ele>249.8</ele>
        <time>2021-02-20T16:02:34.000Z</time>
      </trkpt>
      <trkpt lat="45.85109" lon="5.39622">
        <ele>250.2</ele>
        <time>2021-02-20T16:02:35.000Z</time>
      </trkpt>
      <trkpt lat="45.8511" lon="5.3962">
        <ele>250.4</ele>
        <time>2021-02-20T16:02:36.000Z</time>
      </trkpt>
      <trkpt lat="45.85111" lon="5.39618">
        <ele>250.4</ele>
        <time>2021-02-20T16:02:37.000Z</time>
      </trkpt>
      <trkpt lat="45.85111" lon="5.39616">
        <ele>250.6</ele>
        <time>2021-02-20T16:02:38.000Z</time>
      </trkpt>
      <trkpt lat="45.85112" lon="5.39613">
        <ele>251</ele>
        <time>2021-02-20T16:02:39.000Z</time>
      </trkpt>
      <trkpt lat="45.85112" lon="5.39611">
        <ele>251</ele>
        <time>2021-02-20T16:02:40.000Z</time>
      </trkpt>
      <trkpt lat="45.85112" lon="5.39609">
        <ele>251.2</ele>
        <time>2021-02-20T16:02:41.000Z</time>
      </trkpt>
      <trkpt lat="45.85112" lon="5.39607">
        <ele>251.6</ele>
        <time>2021-02-20T16:02:42.000Z</time>
      </trkpt>
      <trkpt lat="45.85111" lon="5.39605">
        <ele>251.6</ele>
        <time>2021-02-20T16:02:43.000Z</time>
      </trkpt>
      <trkpt lat="45.85111" lon="5.39603">
        <ele>251.8</ele>
        <time>2021-02-20T16:02:44.000Z</time>
      </trkpt>
      <trkpt lat="45.85112" lon="5.396">
        <ele>252.2</ele>
        <time>2021-02-20T16:02:45.000Z</time>
      </trkpt>
      <trkpt lat="45.85112" lon="5.39598">
        <ele>252.2</ele>
        <time>2021-02-20T16:02:46.000Z</time>
      </trkpt>
      <trkpt lat="45.85113" lon="5.39596">
        <ele>252.2</ele>
        <time>2021-02-20T16:02:47.000Z</time>
      </trkpt>
      <trkpt lat="45.85113" lon="5.39594">
        <ele>252.8</ele>
        <time>2021-02-20T16:02:48.000Z</time>
      </trkpt>
      <trkpt lat="45.85113" lon="5.39592">
        <ele>252.8</ele>
        <time>2021-02-20T16:02:49.000Z</time>
      </trkpt>
      <trkpt lat="45.85112" lon="5.39589">
        <ele>253</ele>
        <time>2021-02-20T16:02:50.000Z</time>
      </trkpt>
      <trkpt lat="45.85112" lon="5.39587">
        <ele>253.2</ele>
        <time>2021-02-20T16:02:51.000Z</time>
      </trkpt>
      <trkpt lat="45.85111" lon="5.39585">
        <ele>253.2</ele>
        <time>2021-02-20T16:02:52.000Z</time>
      </trkpt>
      <trkpt lat="45.85111" lon="5.39584">
        <ele>253.4</ele>
        <time>2021-02-20T16:02:53.000Z</time>
      </trkpt>
      <trkpt lat="45.85109" lon="5.39582">
        <ele>253.6</ele>
        <time>2021-02-20T16:02:54.000Z</time>
      </trkpt>
      <trkpt lat="45.85108" lon="5.39581">
        <ele>253.8</ele>
        <time>2021-02-20T16:02:55.000Z</time>
      </trkpt>
      <trkpt lat="45.85107" lon="5.39579">
        <ele>254</ele>
        <time>2021-02-20T16:02:56.000Z</time>
      </trkpt>
      <trkpt lat="45.85106" lon="5.39577">
        <ele>254.2</ele>
        <time>2021-02-20T16:02:57.000Z</time>
      </trkpt>
      <trkpt lat="45.85106" lon="5.39575">
        <ele>254.4</ele>
        <time>2021-02-20T16:02:58.000Z</time>
      </trkpt>
      <trkpt lat="45.85106" lon="5.39573">
        <ele>254.6</ele>
        <time>2021-02-20T16:02:59.000Z</time>
      </trkpt>
      <trkpt lat="45.85105" lon="5.39571">
        <ele>254.8</ele>
        <time>2021-02-20T16:03:00.000Z</time>
      </trkpt>
      <trkpt lat="45.85105" lon="5.3957">
        <ele>255.2</ele>
        <time>2021-02-20T16:03:01.000Z</time>
      </trkpt>
      <trkpt lat="45.85104" lon="5.39568">
        <ele>255.2</ele>
        <time>2021-02-20T16:03:02.000Z</time>
      </trkpt>
      <trkpt lat="45.85103" lon="5.39567">
        <ele>255.4</ele>
        <time>2021-02-20T16:03:03.000Z</time>
      </trkpt>
      <trkpt lat="45.85102" lon="5.39566">
        <ele>255.6</ele>
        <time>2021-02-20T16:03:04.000Z</time>
      </trkpt>
      <trkpt lat="45.85102" lon="5.39565">
        <ele>255.8</ele>
        <time>2021-02-20T16:03:05.000Z</time>
      </trkpt>
      <trkpt lat="45.85101" lon="5.39564">
        <ele>255.8</ele>
        <time>2021-02-20T16:03:06.000Z</time>
      </trkpt>
      <trkpt lat="45.85099" lon="5.39562">
        <ele>255.8</ele>
        <time>2021-02-20T16:03:07.000Z</time>
      </trkpt>
      <trkpt lat="45.85098" lon="5.39561">
        <ele>256</ele>
        <time>2021-02-20T16:03:08.000Z</time>
      </trkpt>
      <trkpt lat="45.85097" lon="5.39559">
        <ele>256</ele>
        <time>2021-02-20T16:03:09.000Z</time>
      </trkpt>
      <trkpt lat="45.85096" lon="5.39557">
        <ele>256.6</ele>
        <time>2021-02-20T16:03:10.000Z</time>
      </trkpt>
      <trkpt lat="45.85095" lon="5.39555">
        <ele>257</ele>
        <time>2021-02-20T16:03:11.000Z</time>
      </trkpt>
      <trkpt lat="45.85094" lon="5.39553">
        <ele>257</ele>
        <time>2021-02-20T16:03:12.000Z</time>
      </trkpt>
      <trkpt lat="45.85093" lon="5.39552">
        <ele>257</ele>
        <time>2021-02-20T16:03:13.000Z</time>
      </trkpt>
      <trkpt lat="45.85093" lon="5.3955">
        <ele>257.4</ele>
        <time>2021-02-20T16:03:14.000Z</time>
      </trkpt>
      <trkpt lat="45.85092" lon="5.39549">
        <ele>257.6</ele>
        <time>2021-02-20T16:03:15.000Z</time>
      </trkpt>
      <trkpt lat="45.85091" lon="5.39547">
        <ele>257.8</ele>
        <time>2021-02-20T16:03:16.000Z</time>
      </trkpt>
      <trkpt lat="45.8509" lon="5.39546">
        <ele>258</ele>
        <time>2021-02-20T16:03:17.000Z</time>
      </trkpt>
      <trkpt lat="45.85089" lon="5.39545">
        <ele>258.2</ele>
        <time>2021-02-20T16:03:18.000Z</time>
      </trkpt>
      <trkpt lat="45.85088" lon="5.39544">
        <ele>258.4</ele>
        <time>2021-02-20T16:03:19.000Z</time>
      </trkpt>
      <trkpt lat="45.85088" lon="5.39542">
        <ele>258.4</ele>
        <time>2021-02-20T16:03:20.000Z</time>
      </trkpt>
      <trkpt lat="45.85087" lon="5.39541">
        <ele>258.8</ele>
        <time>2021-02-20T16:03:21.000Z</time>
      </trkpt>
      <trkpt lat="45.85086" lon="5.3954">
        <ele>259</ele>
        <time>2021-02-20T16:03:22.000Z</time>
      </trkpt>
      <trkpt lat="45.85086" lon="5.39538">
        <ele>259.4</ele>
        <time>2021-02-20T16:03:23.000Z</time>
      </trkpt>
      <trkpt lat="45.85085" lon="5.39537">
        <ele>259.6</ele>
        <time>2021-02-20T16:03:24.000Z</time>
      </trkpt>
      <trkpt lat="45.85085" lon="5.39536">
        <ele>259.8</ele>
        <time>2021-02-20T16:03:25.000Z</time>
      </trkpt>
      <trkpt lat="45.85084" lon="5.39535">
        <ele>259.8</ele>
        <time>2021-02-20T16:03:26.000Z</time>
      </trkpt>
      <trkpt lat="45.85085" lon="5.39534">
        <ele>260.4</ele>
        <time>2021-02-20T16:03:29.000Z</time>
      </trkpt>
      <trkpt lat="45.85085" lon="5.39533">
        <ele>260.6</ele>
        <time>2021-02-20T16:03:30.000Z</time>
      </trkpt>
      <trkpt lat="45.85085" lon="5.39532">
        <ele>261</ele>
        <time>2021-02-20T16:03:31.000Z</time>
      </trkpt>
      <trkpt lat="45.85085" lon="5.39531">
        <ele>261</ele>
        <time>2021-02-20T16:03:32.000Z</time>
      </trkpt>
      <trkpt lat="45.85087" lon="5.3953">
        <ele>261.4</ele>
        <time>2021-02-20T16:03:34.000Z</time>
      </trkpt>
      <trkpt lat="45.85088" lon="5.39529">
        <ele>261.6</ele>
        <time>2021-02-20T16:03:36.000Z</time>
      </trkpt>
      <trkpt lat="45.85089" lon="5.39529">
        <ele>262</ele>
        <time>2021-02-20T16:03:37.000Z</time>
      </trkpt>
      <trkpt lat="45.8509" lon="5.39528">
        <ele>262.4</ele>
        <time>2021-02-20T16:03:39.000Z</time>
      </trkpt>
      <trkpt lat="45.85091" lon="5.39527">
        <ele>262.8</ele>
        <time>2021-02-20T16:03:40.000Z</time>
      </trkpt>
      <trkpt lat="45.8509" lon="5.39527">
        <ele>263</ele>
        <time>2021-02-20T16:03:41.000Z</time>
      </trkpt>
      <trkpt lat="45.85091" lon="5.39526">
        <ele>263</ele>
        <time>2021-02-20T16:03:42.000Z</time>
      </trkpt>
      <trkpt lat="45.85091" lon="5.39525">
        <ele>263.6</ele>
        <time>2021-02-20T16:03:44.000Z</time>
      </trkpt>
      <trkpt lat="45.8509" lon="5.39524">
        <ele>263.8</ele>
        <time>2021-02-20T16:03:45.000Z</time>
      </trkpt>
      <trkpt lat="45.85087" lon="5.39524">
        <ele>264.2</ele>
        <time>2021-02-20T16:03:46.000Z</time>
      </trkpt>
      <trkpt lat="45.85084" lon="5.39523">
        <ele>264.4</ele>
        <time>2021-02-20T16:03:47.000Z</time>
      </trkpt>
      <trkpt lat="45.85084" lon="5.39522">
        <ele>264.6</ele>
        <time>2021-02-20T16:03:48.000Z</time>
      </trkpt>
      <trkpt lat="45.85083" lon="5.39521">
        <ele>264.8</ele>
        <time>2021-02-20T16:03:49.000Z</time>
      </trkpt>
      <trkpt lat="45.85082" lon="5.39521">
        <ele>265.4</ele>
        <time>2021-02-20T16:03:50.000Z</time>
      </trkpt>
      <trkpt lat="45.85081" lon="5.3952">
        <ele>265.6</ele>
        <time>2021-02-20T16:03:51.000Z</time>
      </trkpt>
      <trkpt lat="45.85081" lon="5.39519">
        <ele>265.6</ele>
        <time>2021-02-20T16:03:52.000Z</time>
      </trkpt>
      <trkpt lat="45.85075" lon="5.39517">
        <ele>266</ele>
        <time>2021-02-20T16:03:53.000Z</time>
      </trkpt>
      <trkpt lat="45.85075" lon="5.39516">
        <ele>266.2</ele>
        <time>2021-02-20T16:03:54.000Z</time>
      </trkpt>
      <trkpt lat="45.85074" lon="5.39515">
        <ele>266.4</ele>
        <time>2021-02-20T16:03:55.000Z</time>
      </trkpt>
      <trkpt lat="45.85074" lon="5.39514">
        <ele>266.6</ele>
        <time>2021-02-20T16:03:56.000Z</time>
      </trkpt>
      <trkpt lat="45.85075" lon="5.39513">
        <ele>267</ele>
        <time>2021-02-20T16:03:57.000Z</time>
      </trkpt>
      <trkpt lat="45.85075" lon="5.39512">
        <ele>267.2</ele>
        <time>2021-02-20T16:03:58.000Z</time>
      </trkpt>
      <trkpt lat="45.85075" lon="5.39511">
        <ele>267.6</ele>
        <time>2021-02-20T16:03:59.000Z</time>
      </trkpt>
      <trkpt lat="45.85076" lon="5.39511">
        <ele>267.8</ele>
        <time>2021-02-20T16:04:00.000Z</time>
      </trkpt>
      <trkpt lat="45.85073" lon="5.3951">
        <ele>268</ele>
        <time>2021-02-20T16:04:01.000Z</time>
      </trkpt>
      <trkpt lat="45.8507" lon="5.39509">
        <ele>268.2</ele>
        <time>2021-02-20T16:04:02.000Z</time>
      </trkpt>
      <trkpt lat="45.85071" lon="5.39508">
        <ele>268.2</ele>
        <time>2021-02-20T16:04:03.000Z</time>
      </trkpt>
      <trkpt lat="45.85072" lon="5.39508">
        <ele>268.6</ele>
        <time>2021-02-20T16:04:04.000Z</time>
      </trkpt>
      <trkpt lat="45.85071" lon="5.39507">
        <ele>269</ele>
        <time>2021-02-20T16:04:05.000Z</time>
      </trkpt>
      <trkpt lat="45.8507" lon="5.39506">
        <ele>269</ele>
        <time>2021-02-20T16:04:06.000Z</time>
      </trkpt>
      <trkpt lat="45.85068" lon="5.39505">
        <ele>269.2</ele>
        <time>2021-02-20T16:04:07.000Z</time>
      </trkpt>
      <trkpt lat="45.8505" lon="5.39503">
        <ele>269.6</ele>
        <time>2021-02-20T16:04:08.000Z</time>
      </trkpt>
      <trkpt lat="45.85037" lon="5.39501">
        <ele>269.8</ele>
        <time>2021-02-20T16:04:09.000Z</time>
      </trkpt>
      <trkpt lat="45.85026" lon="5.395">
        <ele>270</ele>
        <time>2021-02-20T16:04:10.000Z</time>
      </trkpt>
      <trkpt lat="45.85019" lon="5.39497">
        <ele>270.4</ele>
        <time>2021-02-20T16:04:11.000Z</time>
      </trkpt>
      <trkpt lat="45.85014" lon="5.39495">
        <ele>270.4</ele>
        <time>2021-02-20T16:04:12.000Z</time>
      </trkpt>
      <trkpt lat="45.85013" lon="5.39493">
        <ele>270.6</ele>
        <time>2021-02-20T16:04:13.000Z</time>
      </trkpt>
      <trkpt lat="45.85007" lon="5.39491">
        <ele>270.8</ele>
        <time>2021-02-20T16:04:14.000Z</time>
      </trkpt>
      <trkpt lat="45.85001" lon="5.39489">
        <ele>271</ele>
        <time>2021-02-20T16:04:15.000Z</time>
      </trkpt>
      <trkpt lat="45.84997" lon="5.39488">
        <ele>271.2</ele>
        <time>2021-02-20T16:04:16.000Z</time>
      </trkpt>
      <trkpt lat="45.84993" lon="5.39486">
        <ele>271.4</ele>
        <time>2021-02-20T16:04:17.000Z</time>
      </trkpt>
      <trkpt lat="45.84988" lon="5.39485">
        <ele>271.4</ele>
        <time>2021-02-20T16:04:18.000Z</time>
      </trkpt>
      <trkpt lat="45.84984" lon="5.39483">
        <ele>271.6</ele>
        <time>2021-02-20T16:04:19.000Z</time>
      </trkpt>
      <trkpt lat="45.8498" lon="5.3948">
        <ele>271.6</ele>
        <time>2021-02-20T16:04:20.000Z</time>
      </trkpt>
      <trkpt lat="45.84976" lon="5.39478">
        <ele>271.6</ele>
        <time>2021-02-20T16:04:21.000Z</time>
      </trkpt>
      <trkpt lat="45.84974" lon="5.39475">
        <ele>271.8</ele>
        <time>2021-02-20T16:04:22.000Z</time>
      </trkpt>
      <trkpt lat="45.84972" lon="5.39474">
        <ele>271.8</ele>
        <time>2021-02-20T16:04:23.000Z</time>
      </trkpt>
      <trkpt lat="45.8497" lon="5.39472">
        <ele>271.6</ele>
        <time>2021-02-20T16:04:24.000Z</time>
      </trkpt>
      <trkpt lat="45.84968" lon="5.39471">
        <ele>271.8</ele>
        <time>2021-02-20T16:04:25.000Z</time>
      </trkpt>
      <trkpt lat="45.84967" lon="5.39469">
        <ele>271.8</ele>
        <time>2021-02-20T16:04:26.000Z</time>
      </trkpt>
      <trkpt lat="45.84965" lon="5.39467">
        <ele>272</ele>
        <time>2021-02-20T16:04:27.000Z</time>
      </trkpt>
      <trkpt lat="45.84963" lon="5.39466">
        <ele>272.2</ele>
        <time>2021-02-20T16:04:28.000Z</time>
      </trkpt>
      <trkpt lat="45.8496" lon="5.39465">
        <ele>272.2</ele>
        <time>2021-02-20T16:04:29.000Z</time>
      </trkpt>
      <trkpt lat="45.84959" lon="5.39463">
        <ele>272.2</ele>
        <time>2021-02-20T16:04:30.000Z</time>
      </trkpt>
      <trkpt lat="45.84957" lon="5.39462">
        <ele>272.2</ele>
        <time>2021-02-20T16:04:31.000Z</time>
      </trkpt>
      <trkpt lat="45.84955" lon="5.39461">
        <ele>272.2</ele>
        <time>2021-02-20T16:04:32.000Z</time>
      </trkpt>
      <trkpt lat="45.84953" lon="5.39459">
        <ele>272.6</ele>
        <time>2021-02-20T16:04:33.000Z</time>
      </trkpt>
      <trkpt lat="45.84952" lon="5.39457">
        <ele>272.8</ele>
        <time>2021-02-20T16:04:34.000Z</time>
      </trkpt>
      <trkpt lat="45.84948" lon="5.39457">
        <ele>272.8</ele>
        <time>2021-02-20T16:04:35.000Z</time>
      </trkpt>
      <trkpt lat="45.84946" lon="5.39456">
        <ele>273</ele>
        <time>2021-02-20T16:04:36.000Z</time>
      </trkpt>
      <trkpt lat="45.84943" lon="5.39456">
        <ele>273</ele>
        <time>2021-02-20T16:04:37.000Z</time>
      </trkpt>
      <trkpt lat="45.84941" lon="5.39454">
        <ele>273.2</ele>
        <time>2021-02-20T16:04:38.000Z</time>
      </trkpt>
      <trkpt lat="45.8494" lon="5.39454">
        <ele>273.6</ele>
        <time>2021-02-20T16:04:39.000Z</time>
      </trkpt>
      <trkpt lat="45.84938" lon="5.39452">
        <ele>273.8</ele>
        <time>2021-02-20T16:04:40.000Z</time>
      </trkpt>
      <trkpt lat="45.84937" lon="5.39452">
        <ele>274</ele>
        <time>2021-02-20T16:04:41.000Z</time>
      </trkpt>
      <trkpt lat="45.84936" lon="5.3945">
        <ele>274</ele>
        <time>2021-02-20T16:04:42.000Z</time>
      </trkpt>
      <trkpt lat="45.84935" lon="5.39448">
        <ele>274.2</ele>
        <time>2021-02-20T16:04:43.000Z</time>
      </trkpt>
      <trkpt lat="45.84933" lon="5.39447">
        <ele>274.4</ele>
        <time>2021-02-20T16:04:44.000Z</time>
      </trkpt>
      <trkpt lat="45.84932" lon="5.39446">
        <ele>274.8</ele>
        <time>2021-02-20T16:04:45.000Z</time>
      </trkpt>
      <trkpt lat="45.84929" lon="5.39444">
        <ele>274.8</ele>
        <time>2021-02-20T16:04:46.000Z</time>
      </trkpt>
      <trkpt lat="45.84922" lon="5.39442">
        <ele>275.2</ele>
        <time>2021-02-20T16:04:47.000Z</time>
      </trkpt>
      <trkpt lat="45.84914" lon="5.39441">
        <ele>275.4</ele>
        <time>2021-02-20T16:04:48.000Z</time>
      </trkpt>
      <trkpt lat="45.8491" lon="5.3944">
        <ele>275.4</ele>
        <time>2021-02-20T16:04:49.000Z</time>
      </trkpt>
      <trkpt lat="45.84904" lon="5.39439">
        <ele>276</ele>
        <time>2021-02-20T16:04:50.000Z</time>
      </trkpt>
      <trkpt lat="45.84903" lon="5.39438">
        <ele>276</ele>
        <time>2021-02-20T16:04:51.000Z</time>
      </trkpt>
      <trkpt lat="45.84901" lon="5.39439">
        <ele>276.2</ele>
        <time>2021-02-20T16:04:52.000Z</time>
      </trkpt>
      <trkpt lat="45.84899" lon="5.39439">
        <ele>276.4</ele>
        <time>2021-02-20T16:04:53.000Z</time>
      </trkpt>
      <trkpt lat="45.84896" lon="5.39438">
        <ele>276.8</ele>
        <time>2021-02-20T16:04:54.000Z</time>
      </trkpt>
      <trkpt lat="45.84893" lon="5.39437">
        <ele>277</ele>
        <time>2021-02-20T16:04:55.000Z</time>
      </trkpt>
      <trkpt lat="45.8489" lon="5.39437">
        <ele>277.2</ele>
        <time>2021-02-20T16:04:56.000Z</time>
      </trkpt>
      <trkpt lat="45.84887" lon="5.39436">
        <ele>277.4</ele>
        <time>2021-02-20T16:04:57.000Z</time>
      </trkpt>
      <trkpt lat="45.84883" lon="5.39435">
        <ele>277.8</ele>
        <time>2021-02-20T16:04:58.000Z</time>
      </trkpt>
      <trkpt lat="45.84877" lon="5.39434">
        <ele>278</ele>
        <time>2021-02-20T16:04:59.000Z</time>
      </trkpt>
      <trkpt lat="45.84873" lon="5.39434">
        <ele>278.2</ele>
        <time>2021-02-20T16:05:00.000Z</time>
      </trkpt>
      <trkpt lat="45.84869" lon="5.39433">
        <ele>278.2</ele>
        <time>2021-02-20T16:05:01.000Z</time>
      </trkpt>
      <trkpt lat="45.84865" lon="5.39432">
        <ele>278.4</ele>
        <time>2021-02-20T16:05:02.000Z</time>
      </trkpt>
      <trkpt lat="45.84863" lon="5.39432">
        <ele>278.4</ele>
        <time>2021-02-20T16:05:03.000Z</time>
      </trkpt>
      <trkpt lat="45.8486" lon="5.39431">
        <ele>278.4</ele>
        <time>2021-02-20T16:05:04.000Z</time>
      </trkpt>
      <trkpt lat="45.84857" lon="5.3943">
        <ele>278.4</ele>
        <time>2021-02-20T16:05:05.000Z</time>
      </trkpt>
      <trkpt lat="45.84855" lon="5.39428">
        <ele>278.4</ele>
        <time>2021-02-20T16:05:06.000Z</time>
      </trkpt>
      <trkpt lat="45.84853" lon="5.39426">
        <ele>278.4</ele>
        <time>2021-02-20T16:05:07.000Z</time>
      </trkpt>
      <trkpt lat="45.84847" lon="5.39423">
        <ele>278.4</ele>
        <time>2021-02-20T16:05:09.000Z</time>
      </trkpt>
      <trkpt lat="45.84841" lon="5.39421">
        <ele>278</ele>
        <time>2021-02-20T16:05:11.000Z</time>
      </trkpt>
      <trkpt lat="45.8483" lon="5.39415">
        <ele>277</ele>
        <time>2021-02-20T16:05:15.000Z</time>
      </trkpt>
      <trkpt lat="45.84828" lon="5.39414">
        <ele>276.2</ele>
        <time>2021-02-20T16:05:16.000Z</time>
      </trkpt>
      <trkpt lat="45.84828" lon="5.39412">
        <ele>276</ele>
        <time>2021-02-20T16:05:17.000Z</time>
      </trkpt>
      <trkpt lat="45.84826" lon="5.3941">
        <ele>275.6</ele>
        <time>2021-02-20T16:05:18.000Z</time>
      </trkpt>
      <trkpt lat="45.84825" lon="5.39407">
        <ele>275.4</ele>
        <time>2021-02-20T16:05:19.000Z</time>
      </trkpt>
      <trkpt lat="45.84823" lon="5.39405">
        <ele>275.2</ele>
        <time>2021-02-20T16:05:20.000Z</time>
      </trkpt>
      <trkpt lat="45.84821" lon="5.39403">
        <ele>275.4</ele>
        <time>2021-02-20T16:05:21.000Z</time>
      </trkpt>
      <trkpt lat="45.84819" lon="5.39401">
        <ele>275.2</ele>
        <time>2021-02-20T16:05:22.000Z</time>
      </trkpt>
      <trkpt lat="45.84819" lon="5.394">
        <ele>275.2</ele>
        <time>2021-02-20T16:05:23.000Z</time>
      </trkpt>
      <trkpt lat="45.84816" lon="5.39398">
        <ele>275.2</ele>
        <time>2021-02-20T16:05:24.000Z</time>
      </trkpt>
      <trkpt lat="45.84814" lon="5.39396">
        <ele>275.2</ele>
        <time>2021-02-20T16:05:25.000Z</time>
      </trkpt>
      <trkpt lat="45.84812" lon="5.39394">
        <ele>275</ele>
        <time>2021-02-20T16:05:26.000Z</time>
      </trkpt>
      <trkpt lat="45.84806" lon="5.39391">
        <ele>275</ele>
        <time>2021-02-20T16:05:28.000Z</time>
      </trkpt>
      <trkpt lat="45.848" lon="5.39389">
        <ele>275.2</ele>
        <time>2021-02-20T16:05:30.000Z</time>
      </trkpt>
      <trkpt lat="45.84789" lon="5.39387">
        <ele>275.2</ele>
        <time>2021-02-20T16:05:31.000Z</time>
      </trkpt>
      <trkpt lat="45.84783" lon="5.39386">
        <ele>275</ele>
        <time>2021-02-20T16:05:32.000Z</time>
      </trkpt>
      <trkpt lat="45.84778" lon="5.39384">
        <ele>275.2</ele>
        <time>2021-02-20T16:05:33.000Z</time>
      </trkpt>
      <trkpt lat="45.84774" lon="5.39384">
        <ele>275</ele>
        <time>2021-02-20T16:05:34.000Z</time>
      </trkpt>
      <trkpt lat="45.8477" lon="5.39383">
        <ele>275</ele>
        <time>2021-02-20T16:05:35.000Z</time>
      </trkpt>
      <trkpt lat="45.84768" lon="5.39383">
        <ele>275.2</ele>
        <time>2021-02-20T16:05:36.000Z</time>
      </trkpt>
      <trkpt lat="45.84764" lon="5.39384">
        <ele>275.2</ele>
        <time>2021-02-20T16:05:37.000Z</time>
      </trkpt>
      <trkpt lat="45.84761" lon="5.39384">
        <ele>275.2</ele>
        <time>2021-02-20T16:05:38.000Z</time>
      </trkpt>
      <trkpt lat="45.84758" lon="5.39385">
        <ele>275.4</ele>
        <time>2021-02-20T16:05:39.000Z</time>
      </trkpt>
      <trkpt lat="45.84754" lon="5.39385">
        <ele>275.6</ele>
        <time>2021-02-20T16:05:40.000Z</time>
      </trkpt>
      <trkpt lat="45.84752" lon="5.39385">
        <ele>275.6</ele>
        <time>2021-02-20T16:05:41.000Z</time>
      </trkpt>
      <trkpt lat="45.84747" lon="5.39384">
        <ele>276</ele>
        <time>2021-02-20T16:05:43.000Z</time>
      </trkpt>
      <trkpt lat="45.84744" lon="5.39384">
        <ele>276.6</ele>
        <time>2021-02-20T16:05:44.000Z</time>
      </trkpt>
      <trkpt lat="45.84741" lon="5.39384">
        <ele>277</ele>
        <time>2021-02-20T16:05:45.000Z</time>
      </trkpt>
      <trkpt lat="45.84738" lon="5.39384">
        <ele>277.2</ele>
        <time>2021-02-20T16:05:46.000Z</time>
      </trkpt>
      <trkpt lat="45.84736" lon="5.39384">
        <ele>277.2</ele>
        <time>2021-02-20T16:05:47.000Z</time>
      </trkpt>
      <trkpt lat="45.84734" lon="5.39384">
        <ele>277.4</ele>
        <time>2021-02-20T16:05:48.000Z</time>
      </trkpt>
      <trkpt lat="45.84733" lon="5.39383">
        <ele>277.4</ele>
        <time>2021-02-20T16:05:49.000Z</time>
      </trkpt>
      <trkpt lat="45.84731" lon="5.39382">
        <ele>277.4</ele>
        <time>2021-02-20T16:05:50.000Z</time>
      </trkpt>
      <trkpt lat="45.84729" lon="5.39382">
        <ele>277.4</ele>
        <time>2021-02-20T16:05:51.000Z</time>
      </trkpt>
      <trkpt lat="45.84727" lon="5.39381">
        <ele>277.4</ele>
        <time>2021-02-20T16:05:52.000Z</time>
      </trkpt>
      <trkpt lat="45.84723" lon="5.39377">
        <ele>277.4</ele>
        <time>2021-02-20T16:05:54.000Z</time>
      </trkpt>
      <trkpt lat="45.84718" lon="5.39375">
        <ele>277.4</ele>
        <time>2021-02-20T16:05:55.000Z</time>
      </trkpt>
      <trkpt lat="45.84712" lon="5.39373">
        <ele>277.6</ele>
        <time>2021-02-20T16:05:57.000Z</time>
      </trkpt>
      <trkpt lat="45.84707" lon="5.39371">
        <ele>277.4</ele>
        <time>2021-02-20T16:05:59.000Z</time>
      </trkpt>
      <trkpt lat="45.84704" lon="5.3937">
        <ele>277.2</ele>
        <time>2021-02-20T16:06:00.000Z</time>
      </trkpt>
      <trkpt lat="45.847" lon="5.39366">
        <ele>277</ele>
        <time>2021-02-20T16:06:01.000Z</time>
      </trkpt>
      <trkpt lat="45.84697" lon="5.39364">
        <ele>276.8</ele>
        <time>2021-02-20T16:06:02.000Z</time>
      </trkpt>
      <trkpt lat="45.84694" lon="5.39361">
        <ele>276.8</ele>
        <time>2021-02-20T16:06:03.000Z</time>
      </trkpt>
      <trkpt lat="45.84691" lon="5.39359">
        <ele>276.8</ele>
        <time>2021-02-20T16:06:04.000Z</time>
      </trkpt>
      <trkpt lat="45.84688" lon="5.39357">
        <ele>276.6</ele>
        <time>2021-02-20T16:06:05.000Z</time>
      </trkpt>
      <trkpt lat="45.84684" lon="5.39355">
        <ele>276.6</ele>
        <time>2021-02-20T16:06:06.000Z</time>
      </trkpt>
      <trkpt lat="45.84682" lon="5.39353">
        <ele>276.6</ele>
        <time>2021-02-20T16:06:07.000Z</time>
      </trkpt>
      <trkpt lat="45.8468" lon="5.39351">
        <ele>276.4</ele>
        <time>2021-02-20T16:06:08.000Z</time>
      </trkpt>
      <trkpt lat="45.84677" lon="5.39349">
        <ele>276.4</ele>
        <time>2021-02-20T16:06:09.000Z</time>
      </trkpt>
      <trkpt lat="45.84674" lon="5.39345">
        <ele>276.4</ele>
        <time>2021-02-20T16:06:11.000Z</time>
      </trkpt>
      <trkpt lat="45.84672" lon="5.39343">
        <ele>276.6</ele>
        <time>2021-02-20T16:06:12.000Z</time>
      </trkpt>
      <trkpt lat="45.8467" lon="5.39341">
        <ele>276.6</ele>
        <time>2021-02-20T16:06:13.000Z</time>
      </trkpt>
      <trkpt lat="45.84669" lon="5.3934">
        <ele>276.4</ele>
        <time>2021-02-20T16:06:14.000Z</time>
      </trkpt>
      <trkpt lat="45.84667" lon="5.39338">
        <ele>277</ele>
        <time>2021-02-20T16:06:15.000Z</time>
      </trkpt>
      <trkpt lat="45.84666" lon="5.39336">
        <ele>277.4</ele>
        <time>2021-02-20T16:06:16.000Z</time>
      </trkpt>
      <trkpt lat="45.84665" lon="5.39335">
        <ele>277.8</ele>
        <time>2021-02-20T16:06:17.000Z</time>
      </trkpt>
      <trkpt lat="45.84664" lon="5.39333">
        <ele>278.4</ele>
        <time>2021-02-20T16:06:18.000Z</time>
      </trkpt>
      <trkpt lat="45.84654" lon="5.39331">
        <ele>279</ele>
        <time>2021-02-20T16:06:19.000Z</time>
      </trkpt>
      <trkpt lat="45.84652" lon="5.39329">
        <ele>279.4</ele>
        <time>2021-02-20T16:06:20.000Z</time>
      </trkpt>
      <trkpt lat="45.84651" lon="5.39327">
        <ele>279.8</ele>
        <time>2021-02-20T16:06:21.000Z</time>
      </trkpt>
      <trkpt lat="45.8465" lon="5.39326">
        <ele>280.2</ele>
        <time>2021-02-20T16:06:22.000Z</time>
      </trkpt>
      <trkpt lat="45.84648" lon="5.39324">
        <ele>280.6</ele>
        <time>2021-02-20T16:06:23.000Z</time>
      </trkpt>
      <trkpt lat="45.84641" lon="5.39323">
        <ele>280.8</ele>
        <time>2021-02-20T16:06:24.000Z</time>
      </trkpt>
      <trkpt lat="45.84639" lon="5.39321">
        <ele>281</ele>
        <time>2021-02-20T16:06:25.000Z</time>
      </trkpt>
      <trkpt lat="45.84629" lon="5.3932">
        <ele>281.6</ele>
        <time>2021-02-20T16:06:26.000Z</time>
      </trkpt>
      <trkpt lat="45.84625" lon="5.39318">
        <ele>281.8</ele>
        <time>2021-02-20T16:06:27.000Z</time>
      </trkpt>
      <trkpt lat="45.84623" lon="5.39317">
        <ele>282.2</ele>
        <time>2021-02-20T16:06:28.000Z</time>
      </trkpt>
      <trkpt lat="45.84615" lon="5.39316">
        <ele>282.6</ele>
        <time>2021-02-20T16:06:29.000Z</time>
      </trkpt>
      <trkpt lat="45.84611" lon="5.39316">
        <ele>282.8</ele>
        <time>2021-02-20T16:06:30.000Z</time>
      </trkpt>
      <trkpt lat="45.84607" lon="5.39314">
        <ele>283.4</ele>
        <time>2021-02-20T16:06:31.000Z</time>
      </trkpt>
      <trkpt lat="45.84603" lon="5.39313">
        <ele>283.8</ele>
        <time>2021-02-20T16:06:32.000Z</time>
      </trkpt>
      <trkpt lat="45.84601" lon="5.39311">
        <ele>283.8</ele>
        <time>2021-02-20T16:06:33.000Z</time>
      </trkpt>
      <trkpt lat="45.84598" lon="5.39309">
        <ele>284</ele>
        <time>2021-02-20T16:06:34.000Z</time>
      </trkpt>
      <trkpt lat="45.84596" lon="5.39306">
        <ele>284</ele>
        <time>2021-02-20T16:06:35.000Z</time>
      </trkpt>
      <trkpt lat="45.84594" lon="5.39303">
        <ele>284.4</ele>
        <time>2021-02-20T16:06:36.000Z</time>
      </trkpt>
      <trkpt lat="45.84591" lon="5.39301">
        <ele>284.6</ele>
        <time>2021-02-20T16:06:37.000Z</time>
      </trkpt>
      <trkpt lat="45.84589" lon="5.39299">
        <ele>284.8</ele>
        <time>2021-02-20T16:06:38.000Z</time>
      </trkpt>
      <trkpt lat="45.84585" lon="5.39297">
        <ele>284.8</ele>
        <time>2021-02-20T16:06:39.000Z</time>
      </trkpt>
      <trkpt lat="45.84583" lon="5.39295">
        <ele>284.8</ele>
        <time>2021-02-20T16:06:40.000Z</time>
      </trkpt>
      <trkpt lat="45.8458" lon="5.39292">
        <ele>284.8</ele>
        <time>2021-02-20T16:06:41.000Z</time>
      </trkpt>
      <trkpt lat="45.84577" lon="5.3929">
        <ele>284.6</ele>
        <time>2021-02-20T16:06:42.000Z</time>
      </trkpt>
      <trkpt lat="45.84574" lon="5.39288">
        <ele>284.6</ele>
        <time>2021-02-20T16:06:43.000Z</time>
      </trkpt>
      <trkpt lat="45.84573" lon="5.39286">
        <ele>284.8</ele>
        <time>2021-02-20T16:06:44.000Z</time>
      </trkpt>
      <trkpt lat="45.8457" lon="5.39284">
        <ele>284.8</ele>
        <time>2021-02-20T16:06:45.000Z</time>
      </trkpt>
      <trkpt lat="45.84569" lon="5.39281">
        <ele>284.8</ele>
        <time>2021-02-20T16:06:46.000Z</time>
      </trkpt>
      <trkpt lat="45.84568" lon="5.39278">
        <ele>285</ele>
        <time>2021-02-20T16:06:47.000Z</time>
      </trkpt>
      <trkpt lat="45.84567" lon="5.39275">
        <ele>284.8</ele>
        <time>2021-02-20T16:06:48.000Z</time>
      </trkpt>
      <trkpt lat="45.84566" lon="5.39272">
        <ele>285</ele>
        <time>2021-02-20T16:06:49.000Z</time>
      </trkpt>
      <trkpt lat="45.84564" lon="5.39269">
        <ele>285</ele>
        <time>2021-02-20T16:06:50.000Z</time>
      </trkpt>
      <trkpt lat="45.84563" lon="5.39267">
        <ele>285</ele>
        <time>2021-02-20T16:06:51.000Z</time>
      </trkpt>
      <trkpt lat="45.84561" lon="5.39264">
        <ele>285</ele>
        <time>2021-02-20T16:06:52.000Z</time>
      </trkpt>
      <trkpt lat="45.84559" lon="5.39262">
        <ele>285</ele>
        <time>2021-02-20T16:06:53.000Z</time>
      </trkpt>
      <trkpt lat="45.84557" lon="5.39259">
        <ele>285.2</ele>
        <time>2021-02-20T16:06:54.000Z</time>
      </trkpt>
      <trkpt lat="45.84555" lon="5.39256">
        <ele>285.6</ele>
        <time>2021-02-20T16:06:55.000Z</time>
      </trkpt>
      <trkpt lat="45.84554" lon="5.39252">
        <ele>285.8</ele>
        <time>2021-02-20T16:06:56.000Z</time>
      </trkpt>
      <trkpt lat="45.84551" lon="5.3925">
        <ele>285.8</ele>
        <time>2021-02-20T16:06:57.000Z</time>
      </trkpt>
      <trkpt lat="45.84549" lon="5.39248">
        <ele>285.8</ele>
        <time>2021-02-20T16:06:58.000Z</time>
      </trkpt>
      <trkpt lat="45.84546" lon="5.39246">
        <ele>286</ele>
        <time>2021-02-20T16:06:59.000Z</time>
      </trkpt>
      <trkpt lat="45.84544" lon="5.39244">
        <ele>286</ele>
        <time>2021-02-20T16:07:00.000Z</time>
      </trkpt>
      <trkpt lat="45.84541" lon="5.39242">
        <ele>286</ele>
        <time>2021-02-20T16:07:01.000Z</time>
      </trkpt>
      <trkpt lat="45.84534" lon="5.39239">
        <ele>286.4</ele>
        <time>2021-02-20T16:07:04.000Z</time>
      </trkpt>
      <trkpt lat="45.84531" lon="5.39237">
        <ele>286.4</ele>
        <time>2021-02-20T16:07:05.000Z</time>
      </trkpt>
      <trkpt lat="45.84528" lon="5.39236">
        <ele>286.4</ele>
        <time>2021-02-20T16:07:06.000Z</time>
      </trkpt>
      <trkpt lat="45.84526" lon="5.39235">
        <ele>286.4</ele>
        <time>2021-02-20T16:07:07.000Z</time>
      </trkpt>
      <trkpt lat="45.84524" lon="5.39234">
        <ele>286.4</ele>
        <time>2021-02-20T16:07:08.000Z</time>
      </trkpt>
      <trkpt lat="45.84521" lon="5.39233">
        <ele>286.4</ele>
        <time>2021-02-20T16:07:09.000Z</time>
      </trkpt>
      <trkpt lat="45.84509" lon="5.39231">
        <ele>286.6</ele>
        <time>2021-02-20T16:07:13.000Z</time>
      </trkpt>
      <trkpt lat="45.8449" lon="5.39225">
        <ele>287</ele>
        <time>2021-02-20T16:07:18.000Z</time>
      </trkpt>
      <trkpt lat="45.84486" lon="5.39222">
        <ele>287</ele>
        <time>2021-02-20T16:07:19.000Z</time>
      </trkpt>
      <trkpt lat="45.84482" lon="5.3922">
        <ele>287</ele>
        <time>2021-02-20T16:07:20.000Z</time>
      </trkpt>
      <trkpt lat="45.84478" lon="5.39217">
        <ele>287</ele>
        <time>2021-02-20T16:07:21.000Z</time>
      </trkpt>
      <trkpt lat="45.8447" lon="5.39213">
        <ele>287</ele>
        <time>2021-02-20T16:07:23.000Z</time>
      </trkpt>
      <trkpt lat="45.84456" lon="5.39209">
        <ele>286.8</ele>
        <time>2021-02-20T16:07:26.000Z</time>
      </trkpt>
      <trkpt lat="45.84451" lon="5.39208">
        <ele>286.8</ele>
        <time>2021-02-20T16:07:27.000Z</time>
      </trkpt>
      <trkpt lat="45.84447" lon="5.39207">
        <ele>286.4</ele>
        <time>2021-02-20T16:07:28.000Z</time>
      </trkpt>
      <trkpt lat="45.84437" lon="5.39206">
        <ele>285.2</ele>
        <time>2021-02-20T16:07:30.000Z</time>
      </trkpt>
      <trkpt lat="45.8442" lon="5.39205">
        <ele>284.8</ele>
        <time>2021-02-20T16:07:33.000Z</time>
      </trkpt>
      <trkpt lat="45.84396" lon="5.39201">
        <ele>283.6</ele>
        <time>2021-02-20T16:07:37.000Z</time>
      </trkpt>
      <trkpt lat="45.84383" lon="5.39199">
        <ele>282.8</ele>
        <time>2021-02-20T16:07:39.000Z</time>
      </trkpt>
      <trkpt lat="45.84378" lon="5.39197">
        <ele>282</ele>
        <time>2021-02-20T16:07:40.000Z</time>
      </trkpt>
      <trkpt lat="45.84372" lon="5.39195">
        <ele>281.6</ele>
        <time>2021-02-20T16:07:41.000Z</time>
      </trkpt>
      <trkpt lat="45.84366" lon="5.39194">
        <ele>281.2</ele>
        <time>2021-02-20T16:07:42.000Z</time>
      </trkpt>
      <trkpt lat="45.84361" lon="5.39192">
        <ele>281.2</ele>
        <time>2021-02-20T16:07:43.000Z</time>
      </trkpt>
      <trkpt lat="45.84357" lon="5.3919">
        <ele>281</ele>
        <time>2021-02-20T16:07:44.000Z</time>
      </trkpt>
      <trkpt lat="45.84352" lon="5.39187">
        <ele>281</ele>
        <time>2021-02-20T16:07:45.000Z</time>
      </trkpt>
      <trkpt lat="45.84347" lon="5.39183">
        <ele>280.8</ele>
        <time>2021-02-20T16:07:46.000Z</time>
      </trkpt>
      <trkpt lat="45.84342" lon="5.39179">
        <ele>280.6</ele>
        <time>2021-02-20T16:07:47.000Z</time>
      </trkpt>
      <trkpt lat="45.84332" lon="5.39171">
        <ele>279.8</ele>
        <time>2021-02-20T16:07:49.000Z</time>
      </trkpt>
      <trkpt lat="45.84321" lon="5.39164">
        <ele>279.2</ele>
        <time>2021-02-20T16:07:51.000Z</time>
      </trkpt>
      <trkpt lat="45.84309" lon="5.39159">
        <ele>279.2</ele>
        <time>2021-02-20T16:07:53.000Z</time>
      </trkpt>
      <trkpt lat="45.84297" lon="5.39153">
        <ele>278.4</ele>
        <time>2021-02-20T16:07:55.000Z</time>
      </trkpt>
      <trkpt lat="45.84291" lon="5.39149">
        <ele>278.4</ele>
        <time>2021-02-20T16:07:56.000Z</time>
      </trkpt>
      <trkpt lat="45.84285" lon="5.39146">
        <ele>278</ele>
        <time>2021-02-20T16:07:57.000Z</time>
      </trkpt>
      <trkpt lat="45.84279" lon="5.39144">
        <ele>277.8</ele>
        <time>2021-02-20T16:07:58.000Z</time>
      </trkpt>
      <trkpt lat="45.84267" lon="5.39139">
        <ele>277.2</ele>
        <time>2021-02-20T16:08:00.000Z</time>
      </trkpt>
      <trkpt lat="45.84245" lon="5.39129">
        <ele>276.6</ele>
        <time>2021-02-20T16:08:04.000Z</time>
      </trkpt>
      <trkpt lat="45.8424" lon="5.39126">
        <ele>276.4</ele>
        <time>2021-02-20T16:08:05.000Z</time>
      </trkpt>
      <trkpt lat="45.84234" lon="5.39124">
        <ele>276.2</ele>
        <time>2021-02-20T16:08:06.000Z</time>
      </trkpt>
      <trkpt lat="45.84223" lon="5.39121">
        <ele>276</ele>
        <time>2021-02-20T16:08:08.000Z</time>
      </trkpt>
      <trkpt lat="45.84218" lon="5.3912">
        <ele>275.8</ele>
        <time>2021-02-20T16:08:09.000Z</time>
      </trkpt>
      <trkpt lat="45.84212" lon="5.39122">
        <ele>275.6</ele>
        <time>2021-02-20T16:08:10.000Z</time>
      </trkpt>
      <trkpt lat="45.84206" lon="5.39124">
        <ele>275.6</ele>
        <time>2021-02-20T16:08:11.000Z</time>
      </trkpt>
      <trkpt lat="45.8419" lon="5.39129">
        <ele>275.2</ele>
        <time>2021-02-20T16:08:14.000Z</time>
      </trkpt>
      <trkpt lat="45.84184" lon="5.39131">
        <ele>274.8</ele>
        <time>2021-02-20T16:08:15.000Z</time>
      </trkpt>
      <trkpt lat="45.84177" lon="5.39132">
        <ele>274.4</ele>
        <time>2021-02-20T16:08:16.000Z</time>
      </trkpt>
      <trkpt lat="45.84171" lon="5.39134">
        <ele>274.4</ele>
        <time>2021-02-20T16:08:17.000Z</time>
      </trkpt>
      <trkpt lat="45.84165" lon="5.39136">
        <ele>274</ele>
        <time>2021-02-20T16:08:18.000Z</time>
      </trkpt>
      <trkpt lat="45.84159" lon="5.39138">
        <ele>273.8</ele>
        <time>2021-02-20T16:08:19.000Z</time>
      </trkpt>
      <trkpt lat="45.84154" lon="5.3914">
        <ele>273.8</ele>
        <time>2021-02-20T16:08:20.000Z</time>
      </trkpt>
      <trkpt lat="45.84148" lon="5.3914">
        <ele>273.4</ele>
        <time>2021-02-20T16:08:21.000Z</time>
      </trkpt>
      <trkpt lat="45.84143" lon="5.39138">
        <ele>273.2</ele>
        <time>2021-02-20T16:08:22.000Z</time>
      </trkpt>
      <trkpt lat="45.84138" lon="5.39135">
        <ele>273</ele>
        <time>2021-02-20T16:08:23.000Z</time>
      </trkpt>
      <trkpt lat="45.84132" lon="5.39131">
        <ele>273</ele>
        <time>2021-02-20T16:08:24.000Z</time>
      </trkpt>
      <trkpt lat="45.84127" lon="5.39126">
        <ele>272.6</ele>
        <time>2021-02-20T16:08:25.000Z</time>
      </trkpt>
      <trkpt lat="45.84111" lon="5.39113">
        <ele>272</ele>
        <time>2021-02-20T16:08:28.000Z</time>
      </trkpt>
      <trkpt lat="45.84105" lon="5.3911">
        <ele>271.8</ele>
        <time>2021-02-20T16:08:29.000Z</time>
      </trkpt>
      <trkpt lat="45.841" lon="5.39107">
        <ele>271.6</ele>
        <time>2021-02-20T16:08:30.000Z</time>
      </trkpt>
      <trkpt lat="45.84093" lon="5.39103">
        <ele>271.4</ele>
        <time>2021-02-20T16:08:31.000Z</time>
      </trkpt>
      <trkpt lat="45.8407" lon="5.39089">
        <ele>270.6</ele>
        <time>2021-02-20T16:08:35.000Z</time>
      </trkpt>
      <trkpt lat="45.84057" lon="5.39081">
        <ele>270</ele>
        <time>2021-02-20T16:08:37.000Z</time>
      </trkpt>
      <trkpt lat="45.84048" lon="5.39076">
        <ele>269.8</ele>
        <time>2021-02-20T16:08:38.000Z</time>
      </trkpt>
      <trkpt lat="45.84039" lon="5.39073">
        <ele>269.8</ele>
        <time>2021-02-20T16:08:39.000Z</time>
      </trkpt>
      <trkpt lat="45.84032" lon="5.3907">
        <ele>269.6</ele>
        <time>2021-02-20T16:08:40.000Z</time>
      </trkpt>
      <trkpt lat="45.84024" lon="5.39067">
        <ele>269.2</ele>
        <time>2021-02-20T16:08:41.000Z</time>
      </trkpt>
      <trkpt lat="45.84016" lon="5.39066">
        <ele>269</ele>
        <time>2021-02-20T16:08:42.000Z</time>
      </trkpt>
      <trkpt lat="45.84009" lon="5.39064">
        <ele>268.8</ele>
        <time>2021-02-20T16:08:43.000Z</time>
      </trkpt>
      <trkpt lat="45.83995" lon="5.3906">
        <ele>268.4</ele>
        <time>2021-02-20T16:08:45.000Z</time>
      </trkpt>
      <trkpt lat="45.83988" lon="5.39059">
        <ele>268</ele>
        <time>2021-02-20T16:08:46.000Z</time>
      </trkpt>
      <trkpt lat="45.83966" lon="5.39059">
        <ele>266.8</ele>
        <time>2021-02-20T16:08:49.000Z</time>
      </trkpt>
      <trkpt lat="45.83944" lon="5.39062">
        <ele>266</ele>
        <time>2021-02-20T16:08:52.000Z</time>
      </trkpt>
      <trkpt lat="45.83936" lon="5.39064">
        <ele>265.6</ele>
        <time>2021-02-20T16:08:53.000Z</time>
      </trkpt>
      <trkpt lat="45.83929" lon="5.39066">
        <ele>265.2</ele>
        <time>2021-02-20T16:08:54.000Z</time>
      </trkpt>
      <trkpt lat="45.83922" lon="5.39069">
        <ele>265</ele>
        <time>2021-02-20T16:08:55.000Z</time>
      </trkpt>
      <trkpt lat="45.83915" lon="5.39072">
        <ele>264.8</ele>
        <time>2021-02-20T16:08:56.000Z</time>
      </trkpt>
      <trkpt lat="45.83908" lon="5.39075">
        <ele>264.6</ele>
        <time>2021-02-20T16:08:57.000Z</time>
      </trkpt>
      <trkpt lat="45.83902" lon="5.39078">
        <ele>264.4</ele>
        <time>2021-02-20T16:08:58.000Z</time>
      </trkpt>
      <trkpt lat="45.83884" lon="5.39087">
        <ele>263.6</ele>
        <time>2021-02-20T16:09:01.000Z</time>
      </trkpt>
      <trkpt lat="45.83877" lon="5.39092">
        <ele>263.4</ele>
        <time>2021-02-20T16:09:02.000Z</time>
      </trkpt>
      <trkpt lat="45.83871" lon="5.39096">
        <ele>263.2</ele>
        <time>2021-02-20T16:09:03.000Z</time>
      </trkpt>
      <trkpt lat="45.8386" lon="5.39107">
        <ele>263</ele>
        <time>2021-02-20T16:09:05.000Z</time>
      </trkpt>
      <trkpt lat="45.83854" lon="5.39113">
        <ele>262.8</ele>
        <time>2021-02-20T16:09:06.000Z</time>
      </trkpt>
      <trkpt lat="45.83849" lon="5.39119">
        <ele>262.8</ele>
        <time>2021-02-20T16:09:07.000Z</time>
      </trkpt>
      <trkpt lat="45.83844" lon="5.39124">
        <ele>262.8</ele>
        <time>2021-02-20T16:09:08.000Z</time>
      </trkpt>
      <trkpt lat="45.8384" lon="5.39129">
        <ele>263</ele>
        <time>2021-02-20T16:09:09.000Z</time>
      </trkpt>
      <trkpt lat="45.8383" lon="5.39139">
        <ele>262.8</ele>
        <time>2021-02-20T16:09:11.000Z</time>
      </trkpt>
      <trkpt lat="45.83825" lon="5.39144">
        <ele>262.8</ele>
        <time>2021-02-20T16:09:12.000Z</time>
      </trkpt>
      <trkpt lat="45.83816" lon="5.39154">
        <ele>262.8</ele>
        <time>2021-02-20T16:09:14.000Z</time>
      </trkpt>
      <trkpt lat="45.83806" lon="5.39163">
        <ele>262.6</ele>
        <time>2021-02-20T16:09:16.000Z</time>
      </trkpt>
      <trkpt lat="45.83801" lon="5.39167">
        <ele>262.6</ele>
        <time>2021-02-20T16:09:17.000Z</time>
      </trkpt>
      <trkpt lat="45.83796" lon="5.39172">
        <ele>262.8</ele>
        <time>2021-02-20T16:09:18.000Z</time>
      </trkpt>
      <trkpt lat="45.8379" lon="5.39176">
        <ele>262.8</ele>
        <time>2021-02-20T16:09:19.000Z</time>
      </trkpt>
      <trkpt lat="45.8378" lon="5.39184">
        <ele>262.4</ele>
        <time>2021-02-20T16:09:21.000Z</time>
      </trkpt>
      <trkpt lat="45.83776" lon="5.39187">
        <ele>262.4</ele>
        <time>2021-02-20T16:09:22.000Z</time>
      </trkpt>
      <trkpt lat="45.83772" lon="5.3919">
        <ele>262.4</ele>
        <time>2021-02-20T16:09:23.000Z</time>
      </trkpt>
      <trkpt lat="45.83767" lon="5.39192">
        <ele>262.6</ele>
        <time>2021-02-20T16:09:24.000Z</time>
      </trkpt>
      <trkpt lat="45.83762" lon="5.39194">
        <ele>262.6</ele>
        <time>2021-02-20T16:09:25.000Z</time>
      </trkpt>
      <trkpt lat="45.83751" lon="5.39199">
        <ele>262.6</ele>
        <time>2021-02-20T16:09:27.000Z</time>
      </trkpt>
      <trkpt lat="45.83746" lon="5.39201">
        <ele>262.6</ele>
        <time>2021-02-20T16:09:28.000Z</time>
      </trkpt>
      <trkpt lat="45.83734" lon="5.39205">
        <ele>262.8</ele>
        <time>2021-02-20T16:09:30.000Z</time>
      </trkpt>
      <trkpt lat="45.83715" lon="5.39209">
        <ele>262.8</ele>
        <time>2021-02-20T16:09:33.000Z</time>
      </trkpt>
      <trkpt lat="45.83708" lon="5.39209">
        <ele>262.6</ele>
        <time>2021-02-20T16:09:34.000Z</time>
      </trkpt>
      <trkpt lat="45.83702" lon="5.3921">
        <ele>262.4</ele>
        <time>2021-02-20T16:09:35.000Z</time>
      </trkpt>
      <trkpt lat="45.8369" lon="5.39211">
        <ele>262.6</ele>
        <time>2021-02-20T16:09:37.000Z</time>
      </trkpt>
      <trkpt lat="45.83678" lon="5.39211">
        <ele>263</ele>
        <time>2021-02-20T16:09:39.000Z</time>
      </trkpt>
      <trkpt lat="45.83672" lon="5.39211">
        <ele>263</ele>
        <time>2021-02-20T16:09:40.000Z</time>
      </trkpt>
      <trkpt lat="45.83667" lon="5.39212">
        <ele>263</ele>
        <time>2021-02-20T16:09:41.000Z</time>
      </trkpt>
      <trkpt lat="45.83661" lon="5.39212">
        <ele>263</ele>
        <time>2021-02-20T16:09:42.000Z</time>
      </trkpt>
      <trkpt lat="45.83656" lon="5.39213">
        <ele>263</ele>
        <time>2021-02-20T16:09:43.000Z</time>
      </trkpt>
      <trkpt lat="45.83651" lon="5.39213">
        <ele>263</ele>
        <time>2021-02-20T16:09:44.000Z</time>
      </trkpt>
      <trkpt lat="45.83646" lon="5.39214">
        <ele>263</ele>
        <time>2021-02-20T16:09:45.000Z</time>
      </trkpt>
      <trkpt lat="45.83642" lon="5.39214">
        <ele>263</ele>
        <time>2021-02-20T16:09:46.000Z</time>
      </trkpt>
      <trkpt lat="45.83627" lon="5.39216">
        <ele>263.2</ele>
        <time>2021-02-20T16:09:49.000Z</time>
      </trkpt>
      <trkpt lat="45.83621" lon="5.39217">
        <ele>263.2</ele>
        <time>2021-02-20T16:09:50.000Z</time>
      </trkpt>
      <trkpt lat="45.83609" lon="5.39218">
        <ele>263.4</ele>
        <time>2021-02-20T16:09:52.000Z</time>
      </trkpt>
      <trkpt lat="45.83603" lon="5.39218">
        <ele>263.2</ele>
        <time>2021-02-20T16:09:53.000Z</time>
      </trkpt>
      <trkpt lat="45.83597" lon="5.39219">
        <ele>263.4</ele>
        <time>2021-02-20T16:09:54.000Z</time>
      </trkpt>
      <trkpt lat="45.83591" lon="5.3922">
        <ele>263.4</ele>
        <time>2021-02-20T16:09:55.000Z</time>
      </trkpt>
      <trkpt lat="45.83585" lon="5.39221">
        <ele>263.4</ele>
        <time>2021-02-20T16:09:56.000Z</time>
      </trkpt>
      <trkpt lat="45.83579" lon="5.39222">
        <ele>263.4</ele>
        <time>2021-02-20T16:09:57.000Z</time>
      </trkpt>
      <trkpt lat="45.83564" lon="5.39227">
        <ele>263.4</ele>
        <time>2021-02-20T16:10:00.000Z</time>
      </trkpt>
      <trkpt lat="45.83559" lon="5.39229">
        <ele>263.4</ele>
        <time>2021-02-20T16:10:01.000Z</time>
      </trkpt>
      <trkpt lat="45.83548" lon="5.39235">
        <ele>263.4</ele>
        <time>2021-02-20T16:10:03.000Z</time>
      </trkpt>
      <trkpt lat="45.83543" lon="5.39238">
        <ele>263.4</ele>
        <time>2021-02-20T16:10:04.000Z</time>
      </trkpt>
      <trkpt lat="45.83539" lon="5.39242">
        <ele>263.4</ele>
        <time>2021-02-20T16:10:05.000Z</time>
      </trkpt>
      <trkpt lat="45.83536" lon="5.39244">
        <ele>263.4</ele>
        <time>2021-02-20T16:10:06.000Z</time>
      </trkpt>
      <trkpt lat="45.83533" lon="5.39246">
        <ele>263.2</ele>
        <time>2021-02-20T16:10:07.000Z</time>
      </trkpt>
      <trkpt lat="45.83531" lon="5.39247">
        <ele>263.4</ele>
        <time>2021-02-20T16:10:08.000Z</time>
      </trkpt>
      <trkpt lat="45.83528" lon="5.39249">
        <ele>263.4</ele>
        <time>2021-02-20T16:10:09.000Z</time>
      </trkpt>
      <trkpt lat="45.83518" lon="5.39257">
        <ele>263.6</ele>
        <time>2021-02-20T16:10:12.000Z</time>
      </trkpt>
      <trkpt lat="45.83502" lon="5.3928">
        <ele>264.2</ele>
        <time>2021-02-20T16:10:17.000Z</time>
      </trkpt>
      <trkpt lat="45.835" lon="5.39285">
        <ele>264.4</ele>
        <time>2021-02-20T16:10:18.000Z</time>
      </trkpt>
      <trkpt lat="45.83494" lon="5.39295">
        <ele>264.8</ele>
        <time>2021-02-20T16:10:20.000Z</time>
      </trkpt>
      <trkpt lat="45.8348" lon="5.39317">
        <ele>265</ele>
        <time>2021-02-20T16:10:24.000Z</time>
      </trkpt>
      <trkpt lat="45.83474" lon="5.39329">
        <ele>264.8</ele>
        <time>2021-02-20T16:10:26.000Z</time>
      </trkpt>
      <trkpt lat="45.83466" lon="5.39342">
        <ele>264.8</ele>
        <time>2021-02-20T16:10:28.000Z</time>
      </trkpt>
      <trkpt lat="45.83456" lon="5.39355">
        <ele>264.8</ele>
        <time>2021-02-20T16:10:30.000Z</time>
      </trkpt>
      <trkpt lat="45.83446" lon="5.39369">
        <ele>264.6</ele>
        <time>2021-02-20T16:10:32.000Z</time>
      </trkpt>
      <trkpt lat="45.8344" lon="5.39376">
        <ele>264.8</ele>
        <time>2021-02-20T16:10:33.000Z</time>
      </trkpt>
      <trkpt lat="45.83428" lon="5.39389">
        <ele>264.4</ele>
        <time>2021-02-20T16:10:35.000Z</time>
      </trkpt>
      <trkpt lat="45.83414" lon="5.394">
        <ele>263.2</ele>
        <time>2021-02-20T16:10:37.000Z</time>
      </trkpt>
      <trkpt lat="45.83408" lon="5.39405">
        <ele>262.6</ele>
        <time>2021-02-20T16:10:38.000Z</time>
      </trkpt>
      <trkpt lat="45.83402" lon="5.3941">
        <ele>262.4</ele>
        <time>2021-02-20T16:10:39.000Z</time>
      </trkpt>
      <trkpt lat="45.83396" lon="5.39415">
        <ele>261.8</ele>
        <time>2021-02-20T16:10:40.000Z</time>
      </trkpt>
      <trkpt lat="45.83392" lon="5.39421">
        <ele>260.8</ele>
        <time>2021-02-20T16:10:41.000Z</time>
      </trkpt>
      <trkpt lat="45.83388" lon="5.39428">
        <ele>260</ele>
        <time>2021-02-20T16:10:42.000Z</time>
      </trkpt>
      <trkpt lat="45.8339" lon="5.39438">
        <ele>259.4</ele>
        <time>2021-02-20T16:10:43.000Z</time>
      </trkpt>
      <trkpt lat="45.83392" lon="5.39446">
        <ele>259.2</ele>
        <time>2021-02-20T16:10:44.000Z</time>
      </trkpt>
      <trkpt lat="45.83395" lon="5.39453">
        <ele>258.8</ele>
        <time>2021-02-20T16:10:45.000Z</time>
      </trkpt>
      <trkpt lat="45.83398" lon="5.3946">
        <ele>258.6</ele>
        <time>2021-02-20T16:10:46.000Z</time>
      </trkpt>
      <trkpt lat="45.83401" lon="5.39467">
        <ele>258.2</ele>
        <time>2021-02-20T16:10:47.000Z</time>
      </trkpt>
      <trkpt lat="45.83404" lon="5.39474">
        <ele>258.2</ele>
        <time>2021-02-20T16:10:48.000Z</time>
      </trkpt>
      <trkpt lat="45.83415" lon="5.39503">
        <ele>257.8</ele>
        <time>2021-02-20T16:10:52.000Z</time>
      </trkpt>
      <trkpt lat="45.83418" lon="5.3951">
        <ele>257.8</ele>
        <time>2021-02-20T16:10:53.000Z</time>
      </trkpt>
      <trkpt lat="45.8342" lon="5.39517">
        <ele>258</ele>
        <time>2021-02-20T16:10:54.000Z</time>
      </trkpt>
      <trkpt lat="45.83423" lon="5.39525">
        <ele>257.8</ele>
        <time>2021-02-20T16:10:55.000Z</time>
      </trkpt>
      <trkpt lat="45.83428" lon="5.39538">
        <ele>257.8</ele>
        <time>2021-02-20T16:10:57.000Z</time>
      </trkpt>
      <trkpt lat="45.8343" lon="5.39544">
        <ele>257.8</ele>
        <time>2021-02-20T16:10:58.000Z</time>
      </trkpt>
      <trkpt lat="45.83433" lon="5.39551">
        <ele>257.8</ele>
        <time>2021-02-20T16:10:59.000Z</time>
      </trkpt>
      <trkpt lat="45.83435" lon="5.39557">
        <ele>257.8</ele>
        <time>2021-02-20T16:11:00.000Z</time>
      </trkpt>
      <trkpt lat="45.83437" lon="5.39564">
        <ele>258.2</ele>
        <time>2021-02-20T16:11:01.000Z</time>
      </trkpt>
      <trkpt lat="45.8344" lon="5.39571">
        <ele>258.6</ele>
        <time>2021-02-20T16:11:02.000Z</time>
      </trkpt>
      <trkpt lat="45.83447" lon="5.39591">
        <ele>260</ele>
        <time>2021-02-20T16:11:05.000Z</time>
      </trkpt>
      <trkpt lat="45.8345" lon="5.39597">
        <ele>260.4</ele>
        <time>2021-02-20T16:11:06.000Z</time>
      </trkpt>
      <trkpt lat="45.83452" lon="5.39602">
        <ele>260.6</ele>
        <time>2021-02-20T16:11:07.000Z</time>
      </trkpt>
      <trkpt lat="45.83453" lon="5.39607">
        <ele>260.6</ele>
        <time>2021-02-20T16:11:08.000Z</time>
      </trkpt>
      <trkpt lat="45.83454" lon="5.39612">
        <ele>260.6</ele>
        <time>2021-02-20T16:11:09.000Z</time>
      </trkpt>
      <trkpt lat="45.83455" lon="5.39616">
        <ele>260.8</ele>
        <time>2021-02-20T16:11:10.000Z</time>
      </trkpt>
      <trkpt lat="45.83455" lon="5.3962">
        <ele>261</ele>
        <time>2021-02-20T16:11:11.000Z</time>
      </trkpt>
      <trkpt lat="45.83456" lon="5.39623">
        <ele>261.6</ele>
        <time>2021-02-20T16:11:12.000Z</time>
      </trkpt>
      <trkpt lat="45.83458" lon="5.39624">
        <ele>262.2</ele>
        <time>2021-02-20T16:11:13.000Z</time>
      </trkpt>
      <trkpt lat="45.8346" lon="5.39624">
        <ele>262.8</ele>
        <time>2021-02-20T16:11:14.000Z</time>
      </trkpt>
      <trkpt lat="45.83463" lon="5.39623">
        <ele>262.8</ele>
        <time>2021-02-20T16:11:15.000Z</time>
      </trkpt>
      <trkpt lat="45.83465" lon="5.39619">
        <ele>263.2</ele>
        <time>2021-02-20T16:11:16.000Z</time>
      </trkpt>
      <trkpt lat="45.83467" lon="5.39615">
        <ele>263.4</ele>
        <time>2021-02-20T16:11:17.000Z</time>
      </trkpt>
      <trkpt lat="45.83469" lon="5.3961">
        <ele>263.6</ele>
        <time>2021-02-20T16:11:18.000Z</time>
      </trkpt>
      <trkpt lat="45.83471" lon="5.39606">
        <ele>263.4</ele>
        <time>2021-02-20T16:11:19.000Z</time>
      </trkpt>
      <trkpt lat="45.83474" lon="5.39602">
        <ele>263.8</ele>
        <time>2021-02-20T16:11:20.000Z</time>
      </trkpt>
      <trkpt lat="45.83478" lon="5.39598">
        <ele>263.8</ele>
        <time>2021-02-20T16:11:21.000Z</time>
      </trkpt>
      <trkpt lat="45.83481" lon="5.39594">
        <ele>264.2</ele>
        <time>2021-02-20T16:11:22.000Z</time>
      </trkpt>
      <trkpt lat="45.83484" lon="5.3959">
        <ele>264.6</ele>
        <time>2021-02-20T16:11:23.000Z</time>
      </trkpt>
      <trkpt lat="45.83487" lon="5.39587">
        <ele>264.8</ele>
        <time>2021-02-20T16:11:24.000Z</time>
      </trkpt>
      <trkpt lat="45.8349" lon="5.39584">
        <ele>265</ele>
        <time>2021-02-20T16:11:25.000Z</time>
      </trkpt>
      <trkpt lat="45.83492" lon="5.39581">
        <ele>265.2</ele>
        <time>2021-02-20T16:11:26.000Z</time>
      </trkpt>
      <trkpt lat="45.83495" lon="5.39578">
        <ele>265.4</ele>
        <time>2021-02-20T16:11:27.000Z</time>
      </trkpt>
      <trkpt lat="45.83497" lon="5.39575">
        <ele>265.4</ele>
        <time>2021-02-20T16:11:28.000Z</time>
      </trkpt>
      <trkpt lat="45.83499" lon="5.39572">
        <ele>265.2</ele>
        <time>2021-02-20T16:11:29.000Z</time>
      </trkpt>
      <trkpt lat="45.83501" lon="5.39571">
        <ele>265.2</ele>
        <time>2021-02-20T16:11:30.000Z</time>
      </trkpt>
      <trkpt lat="45.83502" lon="5.3957">
        <ele>265.4</ele>
        <time>2021-02-20T16:11:31.000Z</time>
      </trkpt>
      <trkpt lat="45.83503" lon="5.39569">
        <ele>265.4</ele>
        <time>2021-02-20T16:11:32.000Z</time>
      </trkpt>
      <trkpt lat="45.83504" lon="5.39569">
        <ele>266</ele>
        <time>2021-02-20T16:11:33.000Z</time>
      </trkpt>
      <trkpt lat="45.83505" lon="5.39569">
        <ele>266.2</ele>
        <time>2021-02-20T16:11:34.000Z</time>
      </trkpt>
      <trkpt lat="45.83505" lon="5.39568">
        <ele>266.4</ele>
        <time>2021-02-20T16:11:35.000Z</time>
      </trkpt>
    </trkseg>
  </trk>
</gpx>